<?xml version='1.0' encoding='UTF-8'?><gpx version="1.1" creator="JPX - https://github.com/jenetics/jpx" xmlns="http://www.topografix.com/GPX/1/1"><trk><trkseg><trkpt lat="45.40873" lon="10.53865"><ele>119.66666666666666</ele><time>2026-04-25T08:30:57.429Z</time></trkpt><trkpt lat="45.4087183" lon="10.53878"><ele>120.33333333333334</ele><time>2026-04-25T08:30:59.424Z</time></trkpt><trkpt lat="45.4089033" lon="10.5391867"><ele>121.0</ele><time>2026-04-25T08:31:07.424Z</time></trkpt><trkpt lat="45.40896" lon="10.5390483"><ele>122.33333333333334</ele><time>2026-04-25T08:31:08.723Z</time></trkpt><trkpt lat="45.4090267" lon="10.539015"><ele>123.66666666666667</ele><time>2026-04-25T08:31:09.728Z</time></trkpt><trkpt lat="45.4090917" lon="10.5390033"><ele>125.0</ele><time>2026-04-25T08:31:10.722Z</time></trkpt><trkpt lat="45.409165" lon="10.5390183"><ele>126.33333333333334</ele><time>2026-04-25T08:31:11.73Z</time></trkpt><trkpt lat="45.409265" lon="10.5390567"><ele>127.66666666666667</ele><time>2026-04-25T08:31:12.722Z</time></trkpt><trkpt lat="45.4093667" lon="10.539105"><ele>129.0</ele><time>2026-04-25T08:31:13.732Z</time></trkpt><trkpt lat="45.4095267" lon="10.5391417"><ele>130.33333333333334</ele><time>2026-04-25T08:31:14.722Z</time></trkpt><trkpt lat="45.4096717" lon="10.5391767"><ele>131.66666666666669</ele><time>2026-04-25T08:31:15.723Z</time></trkpt><trkpt lat="45.40984" lon="10.5392133"><ele>133.0</ele><time>2026-04-25T08:31:16.73Z</time></trkpt><trkpt lat="45.41002" lon="10.5392483"><ele>133.0</ele><time>2026-04-25T08:31:17.731Z</time></trkpt><trkpt lat="45.4101833" lon="10.53928"><ele>133.0</ele><time>2026-04-25T08:31:18.721Z</time></trkpt><trkpt lat="45.4103383" lon="10.5393067"><ele>133.0</ele><time>2026-04-25T08:31:19.721Z</time></trkpt><trkpt lat="45.4104933" lon="10.5393433"><ele>131.0</ele><time>2026-04-25T08:31:20.733Z</time></trkpt><trkpt lat="45.4106533" lon="10.5393983"><ele>129.0</ele><time>2026-04-25T08:31:21.721Z</time></trkpt><trkpt lat="45.41083" lon="10.539465"><ele>127.0</ele><time>2026-04-25T08:31:22.727Z</time></trkpt><trkpt lat="45.411" lon="10.53953"><ele>126.5</ele><time>2026-04-25T08:31:23.726Z</time></trkpt><trkpt lat="45.41115" lon="10.5395867"><ele>126.0</ele><time>2026-04-25T08:31:24.725Z</time></trkpt><trkpt lat="45.4112767" lon="10.539635"><ele>125.5</ele><time>2026-04-25T08:31:25.728Z</time></trkpt><trkpt lat="45.4113633" lon="10.5396833"><ele>125.0</ele><time>2026-04-25T08:31:26.735Z</time></trkpt><trkpt lat="45.4114383" lon="10.539735"><ele>125.0</ele><time>2026-04-25T08:31:27.723Z</time></trkpt><trkpt lat="45.411495" lon="10.539805"><ele>125.0</ele><time>2026-04-25T08:31:28.719Z</time></trkpt><trkpt lat="45.4115483" lon="10.5399033"><ele>125.0</ele><time>2026-04-25T08:31:29.73Z</time></trkpt><trkpt lat="45.4115983" lon="10.54004"><ele>125.0</ele><time>2026-04-25T08:31:30.74Z</time></trkpt><trkpt lat="45.411645" lon="10.5402083"><ele>125.0</ele><time>2026-04-25T08:31:31.718Z</time></trkpt><trkpt lat="45.41171" lon="10.54038"><ele>126.0</ele><time>2026-04-25T08:31:32.724Z</time></trkpt><trkpt lat="45.411785" lon="10.540545"><ele>127.0</ele><time>2026-04-25T08:31:33.735Z</time></trkpt><trkpt lat="45.41187" lon="10.540705"><ele>128.0</ele><time>2026-04-25T08:31:34.718Z</time></trkpt><trkpt lat="45.41196" lon="10.5408517"><ele>129.0</ele><time>2026-04-25T08:31:35.727Z</time></trkpt><trkpt lat="45.412045" lon="10.5409633"><ele>129.0</ele><time>2026-04-25T08:31:36.741Z</time></trkpt><trkpt lat="45.4121183" lon="10.5410533"><ele>129.0</ele><time>2026-04-25T08:31:37.725Z</time></trkpt><trkpt lat="45.4121733" lon="10.5411383"><ele>129.0</ele><time>2026-04-25T08:31:38.722Z</time></trkpt><trkpt lat="45.4122083" lon="10.54127"><ele>129.0</ele><time>2026-04-25T08:31:40.717Z</time></trkpt><trkpt lat="45.4121617" lon="10.5414283"><ele>129.0</ele><time>2026-04-25T08:31:42.722Z</time></trkpt><trkpt lat="45.4120817" lon="10.5415483"><ele>128.33333333333334</ele><time>2026-04-25T08:31:43.724Z</time></trkpt><trkpt lat="45.4119783" lon="10.5417017"><ele>127.66666666666667</ele><time>2026-04-25T08:31:44.722Z</time></trkpt><trkpt lat="45.4118683" lon="10.5418883"><ele>127.0</ele><time>2026-04-25T08:31:45.722Z</time></trkpt><trkpt lat="45.41176" lon="10.54209"><ele>126.66666666666667</ele><time>2026-04-25T08:31:46.723Z</time></trkpt><trkpt lat="45.411655" lon="10.5423017"><ele>126.33333333333334</ele><time>2026-04-25T08:31:47.72Z</time></trkpt><trkpt lat="45.411545" lon="10.54252"><ele>126.0</ele><time>2026-04-25T08:31:48.73Z</time></trkpt><trkpt lat="45.4114367" lon="10.542745"><ele>126.0</ele><time>2026-04-25T08:31:49.722Z</time></trkpt><trkpt lat="45.4113317" lon="10.5429717"><ele>126.0</ele><time>2026-04-25T08:31:50.722Z</time></trkpt><trkpt lat="45.41124" lon="10.543195"><ele>126.0</ele><time>2026-04-25T08:31:51.721Z</time></trkpt><trkpt lat="45.4111617" lon="10.5434083"><ele>124.66666666666666</ele><time>2026-04-25T08:31:52.732Z</time></trkpt><trkpt lat="45.4111" lon="10.5436317"><ele>123.33333333333333</ele><time>2026-04-25T08:31:53.728Z</time></trkpt><trkpt lat="45.4110383" lon="10.54385"><ele>122.0</ele><time>2026-04-25T08:31:54.728Z</time></trkpt><trkpt lat="45.4109617" lon="10.54405"><ele>122.0</ele><time>2026-04-25T08:31:55.729Z</time></trkpt><trkpt lat="45.410855" lon="10.5442367"><ele>122.0</ele><time>2026-04-25T08:31:56.725Z</time></trkpt><trkpt lat="45.4107217" lon="10.5444217"><ele>122.0</ele><time>2026-04-25T08:31:57.727Z</time></trkpt><trkpt lat="45.410565" lon="10.5446183"><ele>121.66666666666666</ele><time>2026-04-25T08:31:58.735Z</time></trkpt><trkpt lat="45.4103933" lon="10.5448233"><ele>121.33333333333334</ele><time>2026-04-25T08:31:59.724Z</time></trkpt><trkpt lat="45.4102183" lon="10.545025"><ele>121.0</ele><time>2026-04-25T08:32:00.723Z</time></trkpt><trkpt lat="45.4100317" lon="10.5452367"><ele>121.5</ele><time>2026-04-25T08:32:01.733Z</time></trkpt><trkpt lat="45.4098417" lon="10.545435"><ele>122.0</ele><time>2026-04-25T08:32:02.725Z</time></trkpt><trkpt lat="45.4096683" lon="10.5456233"><ele>119.33333333333333</ele><time>2026-04-25T08:32:03.727Z</time></trkpt><trkpt lat="45.4094967" lon="10.5457783"><ele>116.66666666666666</ele><time>2026-04-25T08:32:04.726Z</time></trkpt><trkpt lat="45.40933" lon="10.54589"><ele>114.0</ele><time>2026-04-25T08:32:05.73Z</time></trkpt><trkpt lat="45.40917" lon="10.54596"><ele>114.0</ele><time>2026-04-25T08:32:06.728Z</time></trkpt><trkpt lat="45.40902" lon="10.5459983"><ele>114.0</ele><time>2026-04-25T08:32:07.726Z</time></trkpt><trkpt lat="45.4088733" lon="10.5460417"><ele>114.0</ele><time>2026-04-25T08:32:08.727Z</time></trkpt><trkpt lat="45.4087217" lon="10.546135"><ele>112.66666666666666</ele><time>2026-04-25T08:32:09.722Z</time></trkpt><trkpt lat="45.4085733" lon="10.5462733"><ele>111.33333333333333</ele><time>2026-04-25T08:32:10.727Z</time></trkpt><trkpt lat="45.4084233" lon="10.5464583"><ele>110.0</ele><time>2026-04-25T08:32:11.728Z</time></trkpt><trkpt lat="45.4082733" lon="10.5466767"><ele>110.0</ele><time>2026-04-25T08:32:12.726Z</time></trkpt><trkpt lat="45.4081217" lon="10.5469167"><ele>110.0</ele><time>2026-04-25T08:32:13.728Z</time></trkpt><trkpt lat="45.4079783" lon="10.5471717"><ele>110.5</ele><time>2026-04-25T08:32:14.721Z</time></trkpt><trkpt lat="45.4078367" lon="10.5474433"><ele>111.0</ele><time>2026-04-25T08:32:15.727Z</time></trkpt><trkpt lat="45.4076933" lon="10.5477267"><ele>109.5</ele><time>2026-04-25T08:32:16.723Z</time></trkpt><trkpt lat="45.407545" lon="10.54801"><ele>108.0</ele><time>2026-04-25T08:32:17.736Z</time></trkpt><trkpt lat="45.4073983" lon="10.54829"><ele>108.0</ele><time>2026-04-25T08:32:18.725Z</time></trkpt><trkpt lat="45.4072567" lon="10.5485617"><ele>108.0</ele><time>2026-04-25T08:32:19.735Z</time></trkpt><trkpt lat="45.407125" lon="10.5488133"><ele>108.66666666666666</ele><time>2026-04-25T08:32:20.729Z</time></trkpt><trkpt lat="45.4069967" lon="10.5490533"><ele>109.33333333333333</ele><time>2026-04-25T08:32:21.726Z</time></trkpt><trkpt lat="45.40687" lon="10.5492867"><ele>110.0</ele><time>2026-04-25T08:32:22.723Z</time></trkpt><trkpt lat="45.4067433" lon="10.5495183"><ele>109.33333333333333</ele><time>2026-04-25T08:32:23.722Z</time></trkpt><trkpt lat="45.4066167" lon="10.549755"><ele>108.66666666666666</ele><time>2026-04-25T08:32:24.729Z</time></trkpt><trkpt lat="45.4064917" lon="10.5499983"><ele>108.0</ele><time>2026-04-25T08:32:25.723Z</time></trkpt><trkpt lat="45.4063683" lon="10.5502367"><ele>109.33333333333334</ele><time>2026-04-25T08:32:26.733Z</time></trkpt><trkpt lat="45.4062567" lon="10.5504633"><ele>110.66666666666667</ele><time>2026-04-25T08:32:27.729Z</time></trkpt><trkpt lat="45.4061617" lon="10.550675"><ele>112.0</ele><time>2026-04-25T08:32:28.731Z</time></trkpt><trkpt lat="45.40608" lon="10.55089"><ele>112.0</ele><time>2026-04-25T08:32:29.724Z</time></trkpt><trkpt lat="45.4060133" lon="10.5511217"><ele>112.0</ele><time>2026-04-25T08:32:30.733Z</time></trkpt><trkpt lat="45.4059617" lon="10.55137"><ele>112.0</ele><time>2026-04-25T08:32:31.725Z</time></trkpt><trkpt lat="45.4059233" lon="10.5516217"><ele>112.0</ele><time>2026-04-25T08:32:32.722Z</time></trkpt><trkpt lat="45.4058933" lon="10.5518617"><ele>112.0</ele><time>2026-04-25T08:32:33.723Z</time></trkpt><trkpt lat="45.405865" lon="10.55208"><ele>112.0</ele><time>2026-04-25T08:32:34.727Z</time></trkpt><trkpt lat="45.405835" lon="10.55228"><ele>111.5</ele><time>2026-04-25T08:32:35.728Z</time></trkpt><trkpt lat="45.4057967" lon="10.55247"><ele>111.0</ele><time>2026-04-25T08:32:36.728Z</time></trkpt><trkpt lat="45.4057533" lon="10.5526583"><ele>110.5</ele><time>2026-04-25T08:32:37.727Z</time></trkpt><trkpt lat="45.4057" lon="10.5528433"><ele>110.0</ele><time>2026-04-25T08:32:38.722Z</time></trkpt><trkpt lat="45.4056417" lon="10.5530283"><ele>111.0</ele><time>2026-04-25T08:32:39.737Z</time></trkpt><trkpt lat="45.4055817" lon="10.5532183"><ele>112.0</ele><time>2026-04-25T08:32:40.723Z</time></trkpt><trkpt lat="45.40552" lon="10.5534117"><ele>113.0</ele><time>2026-04-25T08:32:41.717Z</time></trkpt><trkpt lat="45.4054583" lon="10.5536217"><ele>111.66666666666666</ele><time>2026-04-25T08:32:42.726Z</time></trkpt><trkpt lat="45.4054017" lon="10.553845"><ele>110.33333333333334</ele><time>2026-04-25T08:32:43.741Z</time></trkpt><trkpt lat="45.40535" lon="10.5540767"><ele>109.0</ele><time>2026-04-25T08:32:44.722Z</time></trkpt><trkpt lat="45.4053033" lon="10.5543083"><ele>108.0</ele><time>2026-04-25T08:32:45.726Z</time></trkpt><trkpt lat="45.4052583" lon="10.5545467"><ele>107.0</ele><time>2026-04-25T08:32:46.735Z</time></trkpt><trkpt lat="45.4052133" lon="10.5547733"><ele>106.0</ele><time>2026-04-25T08:32:47.728Z</time></trkpt><trkpt lat="45.40517" lon="10.5549767"><ele>106.0</ele><time>2026-04-25T08:32:48.723Z</time></trkpt><trkpt lat="45.405135" lon="10.5551467"><ele>106.0</ele><time>2026-04-25T08:32:49.725Z</time></trkpt><trkpt lat="45.4051083" lon="10.5552833"><ele>106.0</ele><time>2026-04-25T08:32:50.726Z</time></trkpt><trkpt lat="45.40509" lon="10.555385"><ele>106.0</ele><time>2026-04-25T08:32:51.721Z</time></trkpt><trkpt lat="45.4050517" lon="10.5554833"><ele>106.0</ele><time>2026-04-25T08:32:53.725Z</time></trkpt><trkpt lat="45.4049633" lon="10.5554617"><ele>106.0</ele><time>2026-04-25T08:32:55.725Z</time></trkpt><trkpt lat="45.4048933" lon="10.555415"><ele>106.0</ele><time>2026-04-25T08:32:56.755Z</time></trkpt><trkpt lat="45.4048117" lon="10.5553517"><ele>106.0</ele><time>2026-04-25T08:32:57.721Z</time></trkpt><trkpt lat="45.40471" lon="10.555275"><ele>106.0</ele><time>2026-04-25T08:32:58.727Z</time></trkpt><trkpt lat="45.4045767" lon="10.5551883"><ele>106.0</ele><time>2026-04-25T08:32:59.73Z</time></trkpt><trkpt lat="45.4044333" lon="10.555105"><ele>107.0</ele><time>2026-04-25T08:33:00.729Z</time></trkpt><trkpt lat="45.40429" lon="10.555015"><ele>108.0</ele><time>2026-04-25T08:33:01.721Z</time></trkpt><trkpt lat="45.4041583" lon="10.55492"><ele>109.0</ele><time>2026-04-25T08:33:02.727Z</time></trkpt><trkpt lat="45.4040267" lon="10.554825"><ele>109.0</ele><time>2026-04-25T08:33:03.724Z</time></trkpt><trkpt lat="45.4038967" lon="10.554715"><ele>109.0</ele><time>2026-04-25T08:33:04.722Z</time></trkpt><trkpt lat="45.4037717" lon="10.554595"><ele>109.0</ele><time>2026-04-25T08:33:05.724Z</time></trkpt><trkpt lat="45.403665" lon="10.5544783"><ele>109.0</ele><time>2026-04-25T08:33:06.726Z</time></trkpt><trkpt lat="45.4035867" lon="10.5543833"><ele>110.00000000000001</ele><time>2026-04-25T08:33:07.723Z</time></trkpt><trkpt lat="45.403515" lon="10.5542967"><ele>111.0</ele><time>2026-04-25T08:33:08.726Z</time></trkpt><trkpt lat="45.4034417" lon="10.5542067"><ele>112.0</ele><time>2026-04-25T08:33:09.73Z</time></trkpt><trkpt lat="45.403375" lon="10.5541333"><ele>113.0</ele><time>2026-04-25T08:33:10.723Z</time></trkpt><trkpt lat="45.403315" lon="10.5540767"><ele>114.00000000000001</ele><time>2026-04-25T08:33:11.727Z</time></trkpt><trkpt lat="45.4032217" lon="10.554075"><ele>115.0</ele><time>2026-04-25T08:33:13.724Z</time></trkpt><trkpt lat="45.403145" lon="10.5542067"><ele>115.0</ele><time>2026-04-25T08:33:15.733Z</time></trkpt><trkpt lat="45.4030933" lon="10.55432"><ele>115.0</ele><time>2026-04-25T08:33:16.724Z</time></trkpt><trkpt lat="45.4030417" lon="10.5544433"><ele>115.0</ele><time>2026-04-25T08:33:17.73Z</time></trkpt><trkpt lat="45.4029917" lon="10.5545633"><ele>115.0</ele><time>2026-04-25T08:33:18.734Z</time></trkpt><trkpt lat="45.4029383" lon="10.5546883"><ele>115.0</ele><time>2026-04-25T08:33:19.724Z</time></trkpt><trkpt lat="45.402875" lon="10.5548267"><ele>114.5</ele><time>2026-04-25T08:33:20.72Z</time></trkpt><trkpt lat="45.4028033" lon="10.5549633"><ele>114.0</ele><time>2026-04-25T08:33:21.73Z</time></trkpt><trkpt lat="45.4027267" lon="10.5551017"><ele>113.5</ele><time>2026-04-25T08:33:22.725Z</time></trkpt><trkpt lat="45.4026417" lon="10.5552483"><ele>113.0</ele><time>2026-04-25T08:33:23.721Z</time></trkpt><trkpt lat="45.40255" lon="10.5554"><ele>113.0</ele><time>2026-04-25T08:33:24.733Z</time></trkpt><trkpt lat="45.4024517" lon="10.55556"><ele>113.0</ele><time>2026-04-25T08:33:25.726Z</time></trkpt><trkpt lat="45.4023483" lon="10.5557217"><ele>113.0</ele><time>2026-04-25T08:33:26.73Z</time></trkpt><trkpt lat="45.402235" lon="10.5558867"><ele>113.0</ele><time>2026-04-25T08:33:27.718Z</time></trkpt><trkpt lat="45.4021217" lon="10.5560517"><ele>113.0</ele><time>2026-04-25T08:33:28.725Z</time></trkpt><trkpt lat="45.4020183" lon="10.5561967"><ele>113.0</ele><time>2026-04-25T08:33:29.72Z</time></trkpt><trkpt lat="45.40192" lon="10.55634"><ele>113.0</ele><time>2026-04-25T08:33:30.726Z</time></trkpt><trkpt lat="45.40182" lon="10.55648"><ele>113.0</ele><time>2026-04-25T08:33:31.729Z</time></trkpt><trkpt lat="45.4017233" lon="10.5566183"><ele>113.0</ele><time>2026-04-25T08:33:32.75Z</time></trkpt><trkpt lat="45.401635" lon="10.5567483"><ele>113.0</ele><time>2026-04-25T08:33:33.724Z</time></trkpt><trkpt lat="45.4015583" lon="10.55686"><ele>113.0</ele><time>2026-04-25T08:33:34.732Z</time></trkpt><trkpt lat="45.401485" lon="10.55695"><ele>113.0</ele><time>2026-04-25T08:33:35.722Z</time></trkpt><trkpt lat="45.4013983" lon="10.5570267"><ele>113.0</ele><time>2026-04-25T08:33:36.721Z</time></trkpt><trkpt lat="45.401295" lon="10.5570967"><ele>113.0</ele><time>2026-04-25T08:33:37.725Z</time></trkpt><trkpt lat="45.4011733" lon="10.557165"><ele>113.0</ele><time>2026-04-25T08:33:38.724Z</time></trkpt><trkpt lat="45.4010417" lon="10.5572367"><ele>111.25</ele><time>2026-04-25T08:33:39.735Z</time></trkpt><trkpt lat="45.4009017" lon="10.557305"><ele>109.5</ele><time>2026-04-25T08:33:40.723Z</time></trkpt><trkpt lat="45.4007567" lon="10.5573583"><ele>107.75</ele><time>2026-04-25T08:33:41.729Z</time></trkpt><trkpt lat="45.4006217" lon="10.5573983"><ele>106.0</ele><time>2026-04-25T08:33:42.719Z</time></trkpt><trkpt lat="45.4005" lon="10.55743"><ele>105.4</ele><time>2026-04-25T08:33:43.726Z</time></trkpt><trkpt lat="45.4003933" lon="10.557465"><ele>104.8</ele><time>2026-04-25T08:33:44.73Z</time></trkpt><trkpt lat="45.4003017" lon="10.5574967"><ele>104.2</ele><time>2026-04-25T08:33:45.717Z</time></trkpt><trkpt lat="45.400225" lon="10.5575317"><ele>103.60000000000001</ele><time>2026-04-25T08:33:46.732Z</time></trkpt><trkpt lat="45.4001183" lon="10.557625"><ele>103.0</ele><time>2026-04-25T08:33:48.719Z</time></trkpt><trkpt lat="45.4000983" lon="10.5577367"><ele>103.0</ele><time>2026-04-25T08:33:49.729Z</time></trkpt><trkpt lat="45.40009" lon="10.5578583"><ele>103.0</ele><time>2026-04-25T08:33:50.725Z</time></trkpt><trkpt lat="45.4001083" lon="10.5580233"><ele>103.0</ele><time>2026-04-25T08:33:51.73Z</time></trkpt><trkpt lat="45.4001467" lon="10.5582033"><ele>103.0</ele><time>2026-04-25T08:33:52.723Z</time></trkpt><trkpt lat="45.4002017" lon="10.55838"><ele>103.0</ele><time>2026-04-25T08:33:53.732Z</time></trkpt><trkpt lat="45.4002567" lon="10.5585533"><ele>103.0</ele><time>2026-04-25T08:33:54.719Z</time></trkpt><trkpt lat="45.400305" lon="10.558705"><ele>103.0</ele><time>2026-04-25T08:33:55.719Z</time></trkpt><trkpt lat="45.40034" lon="10.5588433"><ele>103.0</ele><time>2026-04-25T08:33:56.726Z</time></trkpt><trkpt lat="45.4003567" lon="10.5589667"><ele>103.0</ele><time>2026-04-25T08:33:57.725Z</time></trkpt><trkpt lat="45.4003533" lon="10.5590733"><ele>103.2</ele><time>2026-04-25T08:33:58.723Z</time></trkpt><trkpt lat="45.4003283" lon="10.559165"><ele>103.4</ele><time>2026-04-25T08:33:59.723Z</time></trkpt><trkpt lat="45.4002767" lon="10.5592383"><ele>103.60000000000001</ele><time>2026-04-25T08:34:00.722Z</time></trkpt><trkpt lat="45.4002083" lon="10.5592917"><ele>103.80000000000001</ele><time>2026-04-25T08:34:01.721Z</time></trkpt><trkpt lat="45.400085" lon="10.55933"><ele>104.0</ele><time>2026-04-25T08:34:02.73Z</time></trkpt><trkpt lat="45.3999583" lon="10.5593733"><ele>104.0</ele><time>2026-04-25T08:34:03.726Z</time></trkpt><trkpt lat="45.3998283" lon="10.5594"><ele>104.0</ele><time>2026-04-25T08:34:04.724Z</time></trkpt><trkpt lat="45.3996783" lon="10.5594383"><ele>104.0</ele><time>2026-04-25T08:34:05.722Z</time></trkpt><trkpt lat="45.3995233" lon="10.55949"><ele>104.0</ele><time>2026-04-25T08:34:06.733Z</time></trkpt><trkpt lat="45.399355" lon="10.5595533"><ele>104.0</ele><time>2026-04-25T08:34:07.718Z</time></trkpt><trkpt lat="45.3991667" lon="10.5596367"><ele>104.0</ele><time>2026-04-25T08:34:08.718Z</time></trkpt><trkpt lat="45.3989683" lon="10.5597233"><ele>104.0</ele><time>2026-04-25T08:34:09.726Z</time></trkpt><trkpt lat="45.3987667" lon="10.559805"><ele>103.66666666666666</ele><time>2026-04-25T08:34:10.743Z</time></trkpt><trkpt lat="45.3985717" lon="10.5598883"><ele>103.33333333333334</ele><time>2026-04-25T08:34:11.727Z</time></trkpt><trkpt lat="45.3983867" lon="10.559965"><ele>103.0</ele><time>2026-04-25T08:34:12.728Z</time></trkpt><trkpt lat="45.3982267" lon="10.5600217"><ele>103.0</ele><time>2026-04-25T08:34:13.737Z</time></trkpt><trkpt lat="45.3980767" lon="10.5600767"><ele>103.0</ele><time>2026-04-25T08:34:14.733Z</time></trkpt><trkpt lat="45.39793" lon="10.56013"><ele>103.0</ele><time>2026-04-25T08:34:15.734Z</time></trkpt><trkpt lat="45.3977833" lon="10.560185"><ele>102.75</ele><time>2026-04-25T08:34:16.726Z</time></trkpt><trkpt lat="45.3976417" lon="10.560235"><ele>102.5</ele><time>2026-04-25T08:34:17.729Z</time></trkpt><trkpt lat="45.3975133" lon="10.5602833"><ele>102.25</ele><time>2026-04-25T08:34:18.726Z</time></trkpt><trkpt lat="45.3974083" lon="10.5603167"><ele>102.0</ele><time>2026-04-25T08:34:19.746Z</time></trkpt><trkpt lat="45.39731" lon="10.5603433"><ele>101.83333333333333</ele><time>2026-04-25T08:34:20.745Z</time></trkpt><trkpt lat="45.3972133" lon="10.560375"><ele>101.66666666666666</ele><time>2026-04-25T08:34:21.742Z</time></trkpt><trkpt lat="45.3971233" lon="10.560405"><ele>101.5</ele><time>2026-04-25T08:34:22.741Z</time></trkpt><trkpt lat="45.3970483" lon="10.5604383"><ele>101.33333333333333</ele><time>2026-04-25T08:34:23.731Z</time></trkpt><trkpt lat="45.3969883" lon="10.56047"><ele>101.16666666666666</ele><time>2026-04-25T08:34:24.743Z</time></trkpt><trkpt lat="45.3969033" lon="10.56052"><ele>101.0</ele><time>2026-04-25T08:34:26.722Z</time></trkpt><trkpt lat="45.3968517" lon="10.560575"><ele>101.6</ele><time>2026-04-25T08:34:29.735Z</time></trkpt><trkpt lat="45.396835" lon="10.5607017"><ele>102.19999999999999</ele><time>2026-04-25T08:34:31.73Z</time></trkpt><trkpt lat="45.3968367" lon="10.5608"><ele>102.80000000000001</ele><time>2026-04-25T08:34:32.736Z</time></trkpt><trkpt lat="45.3968333" lon="10.560925"><ele>103.4</ele><time>2026-04-25T08:34:33.736Z</time></trkpt><trkpt lat="45.3968233" lon="10.561075"><ele>104.0</ele><time>2026-04-25T08:34:34.736Z</time></trkpt><trkpt lat="45.3968" lon="10.5612467"><ele>104.0</ele><time>2026-04-25T08:34:35.726Z</time></trkpt><trkpt lat="45.3967617" lon="10.5614483"><ele>104.0</ele><time>2026-04-25T08:34:36.721Z</time></trkpt><trkpt lat="45.39671" lon="10.5616717"><ele>104.0</ele><time>2026-04-25T08:34:37.723Z</time></trkpt><trkpt lat="45.39665" lon="10.5619233"><ele>103.0</ele><time>2026-04-25T08:34:38.725Z</time></trkpt><trkpt lat="45.3965883" lon="10.562185"><ele>102.0</ele><time>2026-04-25T08:34:39.725Z</time></trkpt><trkpt lat="45.3965217" lon="10.56244"><ele>101.0</ele><time>2026-04-25T08:34:40.727Z</time></trkpt><trkpt lat="45.3964517" lon="10.5626783"><ele>101.0</ele><time>2026-04-25T08:34:41.736Z</time></trkpt><trkpt lat="45.3963817" lon="10.562885"><ele>101.0</ele><time>2026-04-25T08:34:42.744Z</time></trkpt><trkpt lat="45.3963183" lon="10.5630567"><ele>101.0</ele><time>2026-04-25T08:34:43.724Z</time></trkpt><trkpt lat="45.3962717" lon="10.56319"><ele>101.0</ele><time>2026-04-25T08:34:44.732Z</time></trkpt><trkpt lat="45.3962333" lon="10.5632967"><ele>100.99999999999999</ele><time>2026-04-25T08:34:45.739Z</time></trkpt><trkpt lat="45.3962017" lon="10.563385"><ele>101.0</ele><time>2026-04-25T08:34:46.73Z</time></trkpt><trkpt lat="45.3961483" lon="10.5635067"><ele>101.0</ele><time>2026-04-25T08:34:48.733Z</time></trkpt><trkpt lat="45.3961133" lon="10.5635817"><ele>101.0</ele><time>2026-04-25T08:34:50.724Z</time></trkpt><trkpt lat="45.3961383" lon="10.56368"><ele>100.99999999999999</ele><time>2026-04-25T08:34:53.731Z</time></trkpt><trkpt lat="45.396185" lon="10.5637483"><ele>101.0</ele><time>2026-04-25T08:34:54.73Z</time></trkpt><trkpt lat="45.3962467" lon="10.5638283"><ele>101.0</ele><time>2026-04-25T08:34:55.737Z</time></trkpt><trkpt lat="45.3963083" lon="10.5639183"><ele>101.0</ele><time>2026-04-25T08:34:56.728Z</time></trkpt><trkpt lat="45.396365" lon="10.564"><ele>101.0</ele><time>2026-04-25T08:34:57.729Z</time></trkpt><trkpt lat="45.3964083" lon="10.564075"><ele>101.0</ele><time>2026-04-25T08:34:58.743Z</time></trkpt><trkpt lat="45.39641" lon="10.5642067"><ele>101.0</ele><time>2026-04-25T08:35:00.725Z</time></trkpt><trkpt lat="45.39632" lon="10.5643283"><ele>101.0</ele><time>2026-04-25T08:35:02.721Z</time></trkpt><trkpt lat="45.3962333" lon="10.5643967"><ele>101.0</ele><time>2026-04-25T08:35:03.719Z</time></trkpt><trkpt lat="45.3961383" lon="10.5644683"><ele>101.0</ele><time>2026-04-25T08:35:04.727Z</time></trkpt><trkpt lat="45.3960417" lon="10.5645433"><ele>101.0</ele><time>2026-04-25T08:35:05.728Z</time></trkpt><trkpt lat="45.39593" lon="10.5646317"><ele>101.0</ele><time>2026-04-25T08:35:06.731Z</time></trkpt><trkpt lat="45.3958117" lon="10.5647233"><ele>101.0</ele><time>2026-04-25T08:35:07.725Z</time></trkpt><trkpt lat="45.3956817" lon="10.5648267"><ele>101.0</ele><time>2026-04-25T08:35:08.726Z</time></trkpt><trkpt lat="45.3955583" lon="10.5649283"><ele>101.0</ele><time>2026-04-25T08:35:09.723Z</time></trkpt><trkpt lat="45.39544" lon="10.5650283"><ele>101.0</ele><time>2026-04-25T08:35:10.724Z</time></trkpt><trkpt lat="45.3953283" lon="10.56512"><ele>101.19999999999999</ele><time>2026-04-25T08:35:11.723Z</time></trkpt><trkpt lat="45.3952233" lon="10.5652067"><ele>101.39999999999999</ele><time>2026-04-25T08:35:12.723Z</time></trkpt><trkpt lat="45.3951283" lon="10.5652917"><ele>101.6</ele><time>2026-04-25T08:35:13.736Z</time></trkpt><trkpt lat="45.3950517" lon="10.56537"><ele>101.8</ele><time>2026-04-25T08:35:14.725Z</time></trkpt><trkpt lat="45.394985" lon="10.565475"><ele>102.0</ele><time>2026-04-25T08:35:15.721Z</time></trkpt><trkpt lat="45.3949183" lon="10.5656"><ele>101.75</ele><time>2026-04-25T08:35:16.731Z</time></trkpt><trkpt lat="45.3948483" lon="10.56575"><ele>101.5</ele><time>2026-04-25T08:35:17.726Z</time></trkpt><trkpt lat="45.3947717" lon="10.5659133"><ele>101.25</ele><time>2026-04-25T08:35:18.722Z</time></trkpt><trkpt lat="45.3946833" lon="10.566075"><ele>101.0</ele><time>2026-04-25T08:35:19.725Z</time></trkpt><trkpt lat="45.3945883" lon="10.566245"><ele>101.0</ele><time>2026-04-25T08:35:20.725Z</time></trkpt><trkpt lat="45.3944867" lon="10.5664117"><ele>101.0</ele><time>2026-04-25T08:35:21.732Z</time></trkpt><trkpt lat="45.39438" lon="10.5665733"><ele>101.0</ele><time>2026-04-25T08:35:22.72Z</time></trkpt><trkpt lat="45.394275" lon="10.5667333"><ele>101.0</ele><time>2026-04-25T08:35:23.726Z</time></trkpt><trkpt lat="45.3941683" lon="10.5668933"><ele>101.0</ele><time>2026-04-25T08:35:24.721Z</time></trkpt><trkpt lat="45.3940517" lon="10.56706"><ele>101.0</ele><time>2026-04-25T08:35:25.725Z</time></trkpt><trkpt lat="45.3939333" lon="10.5672283"><ele>100.75</ele><time>2026-04-25T08:35:26.727Z</time></trkpt><trkpt lat="45.3938167" lon="10.56739"><ele>100.5</ele><time>2026-04-25T08:35:27.727Z</time></trkpt><trkpt lat="45.3937133" lon="10.5675383"><ele>100.25</ele><time>2026-04-25T08:35:28.72Z</time></trkpt><trkpt lat="45.3936233" lon="10.56767"><ele>100.0</ele><time>2026-04-25T08:35:29.725Z</time></trkpt><trkpt lat="45.3935517" lon="10.5677767"><ele>100.0</ele><time>2026-04-25T08:35:30.724Z</time></trkpt><trkpt lat="45.3935" lon="10.5678533"><ele>100.0</ele><time>2026-04-25T08:35:31.72Z</time></trkpt><trkpt lat="45.3934183" lon="10.5679283"><ele>100.0</ele><time>2026-04-25T08:35:33.727Z</time></trkpt><trkpt lat="45.3933383" lon="10.56794"><ele>100.0</ele><time>2026-04-25T08:35:35.724Z</time></trkpt><trkpt lat="45.3932383" lon="10.5678333"><ele>100.0</ele><time>2026-04-25T08:35:37.72Z</time></trkpt><trkpt lat="45.3931667" lon="10.56773"><ele>100.0</ele><time>2026-04-25T08:35:38.723Z</time></trkpt><trkpt lat="45.39309" lon="10.56761"><ele>100.0</ele><time>2026-04-25T08:35:39.728Z</time></trkpt><trkpt lat="45.3930017" lon="10.5674717"><ele>100.0</ele><time>2026-04-25T08:35:40.729Z</time></trkpt><trkpt lat="45.3929033" lon="10.56732"><ele>100.0</ele><time>2026-04-25T08:35:41.722Z</time></trkpt><trkpt lat="45.3928017" lon="10.5671683"><ele>100.5</ele><time>2026-04-25T08:35:42.725Z</time></trkpt><trkpt lat="45.392705" lon="10.567015"><ele>101.0</ele><time>2026-04-25T08:35:43.72Z</time></trkpt><trkpt lat="45.39262" lon="10.5668817"><ele>101.5</ele><time>2026-04-25T08:35:44.721Z</time></trkpt><trkpt lat="45.3925467" lon="10.5667567"><ele>102.0</ele><time>2026-04-25T08:35:45.726Z</time></trkpt><trkpt lat="45.3924817" lon="10.566635"><ele>102.0</ele><time>2026-04-25T08:35:46.726Z</time></trkpt><trkpt lat="45.39242" lon="10.566545"><ele>102.0</ele><time>2026-04-25T08:35:47.722Z</time></trkpt><trkpt lat="45.3923383" lon="10.566475"><ele>102.0</ele><time>2026-04-25T08:35:49.73Z</time></trkpt><trkpt lat="45.3922517" lon="10.5665083"><ele>102.0</ele><time>2026-04-25T08:35:51.726Z</time></trkpt><trkpt lat="45.3921933" lon="10.56657"><ele>102.0</ele><time>2026-04-25T08:35:52.725Z</time></trkpt><trkpt lat="45.39212" lon="10.566655"><ele>102.0</ele><time>2026-04-25T08:35:53.72Z</time></trkpt><trkpt lat="45.3920467" lon="10.5667533"><ele>102.19999999999999</ele><time>2026-04-25T08:35:54.727Z</time></trkpt><trkpt lat="45.3919733" lon="10.5668467"><ele>102.4</ele><time>2026-04-25T08:35:55.727Z</time></trkpt><trkpt lat="45.3919083" lon="10.566935"><ele>102.6</ele><time>2026-04-25T08:35:56.735Z</time></trkpt><trkpt lat="45.3918583" lon="10.5670117"><ele>102.80000000000001</ele><time>2026-04-25T08:35:57.731Z</time></trkpt><trkpt lat="45.3917717" lon="10.5671"><ele>103.0</ele><time>2026-04-25T08:35:59.73Z</time></trkpt><trkpt lat="45.3916783" lon="10.5671117"><ele>103.66666666666667</ele><time>2026-04-25T08:36:01.745Z</time></trkpt><trkpt lat="45.391595" lon="10.5670083"><ele>104.33333333333334</ele><time>2026-04-25T08:36:03.724Z</time></trkpt><trkpt lat="45.3915783" lon="10.5669083"><ele>105.0</ele><time>2026-04-25T08:36:04.736Z</time></trkpt><trkpt lat="45.391555" lon="10.5668083"><ele>105.66666666666666</ele><time>2026-04-25T08:36:05.725Z</time></trkpt><trkpt lat="45.3915183" lon="10.5667117"><ele>106.33333333333333</ele><time>2026-04-25T08:36:06.724Z</time></trkpt><trkpt lat="45.391465" lon="10.566625"><ele>107.0</ele><time>2026-04-25T08:36:07.73Z</time></trkpt><trkpt lat="45.3914133" lon="10.5665417"><ele>106.99999999999999</ele><time>2026-04-25T08:36:08.73Z</time></trkpt><trkpt lat="45.3913617" lon="10.5664617"><ele>107.0</ele><time>2026-04-25T08:36:09.728Z</time></trkpt><trkpt lat="45.391305" lon="10.5663817"><ele>107.0</ele><time>2026-04-25T08:36:10.723Z</time></trkpt><trkpt lat="45.3912433" lon="10.5662983"><ele>107.0</ele><time>2026-04-25T08:36:11.738Z</time></trkpt><trkpt lat="45.3911833" lon="10.5661933"><ele>106.99999999999999</ele><time>2026-04-25T08:36:12.727Z</time></trkpt><trkpt lat="45.39112" lon="10.5660917"><ele>107.0</ele><time>2026-04-25T08:36:13.721Z</time></trkpt><trkpt lat="45.3910533" lon="10.56599"><ele>109.0</ele><time>2026-04-25T08:36:14.751Z</time></trkpt><trkpt lat="45.391005" lon="10.5658417"><ele>110.99999999999999</ele><time>2026-04-25T08:36:15.734Z</time></trkpt><trkpt lat="45.3909583" lon="10.5657267"><ele>112.99999999999999</ele><time>2026-04-25T08:36:16.722Z</time></trkpt><trkpt lat="45.3909133" lon="10.5656183"><ele>115.0</ele><time>2026-04-25T08:36:17.735Z</time></trkpt><trkpt lat="45.3908533" lon="10.5655217"><ele>117.0</ele><time>2026-04-25T08:36:18.734Z</time></trkpt><trkpt lat="45.3908017" lon="10.565455"><ele>117.0</ele><time>2026-04-25T08:36:19.736Z</time></trkpt><trkpt lat="45.3907683" lon="10.565375"><ele>117.0</ele><time>2026-04-25T08:36:20.73Z</time></trkpt><trkpt lat="45.39072" lon="10.565275"><ele>117.0</ele><time>2026-04-25T08:36:22.733Z</time></trkpt><trkpt lat="45.3906533" lon="10.5653933"><ele>117.0</ele><time>2026-04-25T08:36:24.725Z</time></trkpt><trkpt lat="45.3906167" lon="10.56547"><ele>117.0</ele><time>2026-04-25T08:36:25.719Z</time></trkpt><trkpt lat="45.39057" lon="10.56557"><ele>117.0</ele><time>2026-04-25T08:36:26.717Z</time></trkpt><trkpt lat="45.3905167" lon="10.5656933"><ele>116.5</ele><time>2026-04-25T08:36:27.726Z</time></trkpt><trkpt lat="45.3904517" lon="10.5658617"><ele>116.0</ele><time>2026-04-25T08:36:28.721Z</time></trkpt><trkpt lat="45.3903717" lon="10.5660167"><ele>115.5</ele><time>2026-04-25T08:36:29.727Z</time></trkpt><trkpt lat="45.390295" lon="10.566175"><ele>115.0</ele><time>2026-04-25T08:36:30.73Z</time></trkpt><trkpt lat="45.39022" lon="10.5663033"><ele>114.5</ele><time>2026-04-25T08:36:31.727Z</time></trkpt><trkpt lat="45.3901417" lon="10.566425"><ele>114.0</ele><time>2026-04-25T08:36:32.719Z</time></trkpt><trkpt lat="45.39005" lon="10.5665333"><ele>113.5</ele><time>2026-04-25T08:36:33.725Z</time></trkpt><trkpt lat="45.3899383" lon="10.5666217"><ele>113.0</ele><time>2026-04-25T08:36:34.721Z</time></trkpt><trkpt lat="45.3897933" lon="10.5667083"><ele>113.33333333333333</ele><time>2026-04-25T08:36:35.72Z</time></trkpt><trkpt lat="45.3896317" lon="10.5667983"><ele>113.66666666666666</ele><time>2026-04-25T08:36:36.729Z</time></trkpt><trkpt lat="45.3894683" lon="10.566925"><ele>114.0</ele><time>2026-04-25T08:36:37.726Z</time></trkpt><trkpt lat="45.3893" lon="10.5670367"><ele>114.0</ele><time>2026-04-25T08:36:38.724Z</time></trkpt><trkpt lat="45.38915" lon="10.5671367"><ele>114.0</ele><time>2026-04-25T08:36:39.722Z</time></trkpt><trkpt lat="45.3890367" lon="10.5672283"><ele>114.0</ele><time>2026-04-25T08:36:40.725Z</time></trkpt><trkpt lat="45.388915" lon="10.5673333"><ele>114.0</ele><time>2026-04-25T08:36:41.721Z</time></trkpt><trkpt lat="45.388805" lon="10.5675033"><ele>114.0</ele><time>2026-04-25T08:36:42.724Z</time></trkpt><trkpt lat="45.3886733" lon="10.5676667"><ele>114.0</ele><time>2026-04-25T08:36:43.723Z</time></trkpt><trkpt lat="45.38852" lon="10.56784"><ele>114.0</ele><time>2026-04-25T08:36:44.725Z</time></trkpt><trkpt lat="45.3883733" lon="10.5680017"><ele>113.66666666666666</ele><time>2026-04-25T08:36:45.722Z</time></trkpt><trkpt lat="45.3882367" lon="10.5681417"><ele>113.33333333333333</ele><time>2026-04-25T08:36:46.724Z</time></trkpt><trkpt lat="45.388085" lon="10.5682517"><ele>113.0</ele><time>2026-04-25T08:36:47.72Z</time></trkpt><trkpt lat="45.3879483" lon="10.5683933"><ele>113.0</ele><time>2026-04-25T08:36:48.721Z</time></trkpt><trkpt lat="45.3877983" lon="10.568505"><ele>113.0</ele><time>2026-04-25T08:36:49.727Z</time></trkpt><trkpt lat="45.3876533" lon="10.5686283"><ele>113.0</ele><time>2026-04-25T08:36:50.724Z</time></trkpt><trkpt lat="45.3875117" lon="10.568745"><ele>113.0</ele><time>2026-04-25T08:36:51.719Z</time></trkpt><trkpt lat="45.38739" lon="10.5688533"><ele>113.0</ele><time>2026-04-25T08:36:52.722Z</time></trkpt><trkpt lat="45.387275" lon="10.5689467"><ele>113.0</ele><time>2026-04-25T08:36:53.725Z</time></trkpt><trkpt lat="45.3871633" lon="10.5690333"><ele>113.0</ele><time>2026-04-25T08:36:54.722Z</time></trkpt><trkpt lat="45.3870617" lon="10.5691383"><ele>113.0</ele><time>2026-04-25T08:36:55.735Z</time></trkpt><trkpt lat="45.3869567" lon="10.5692683"><ele>113.0</ele><time>2026-04-25T08:36:56.722Z</time></trkpt><trkpt lat="45.386855" lon="10.5694133"><ele>113.0</ele><time>2026-04-25T08:36:57.721Z</time></trkpt><trkpt lat="45.3867517" lon="10.569565"><ele>113.0</ele><time>2026-04-25T08:36:58.724Z</time></trkpt><trkpt lat="45.386655" lon="10.5697383"><ele>113.0</ele><time>2026-04-25T08:36:59.725Z</time></trkpt><trkpt lat="45.386585" lon="10.569875"><ele>113.0</ele><time>2026-04-25T08:37:00.722Z</time></trkpt><trkpt lat="45.3865283" lon="10.57003"><ele>113.0</ele><time>2026-04-25T08:37:01.724Z</time></trkpt><trkpt lat="45.3864583" lon="10.57014"><ele>113.0</ele><time>2026-04-25T08:37:02.724Z</time></trkpt><trkpt lat="45.3863967" lon="10.5702983"><ele>111.66666666666666</ele><time>2026-04-25T08:37:03.724Z</time></trkpt><trkpt lat="45.3863483" lon="10.5705"><ele>110.33333333333334</ele><time>2026-04-25T08:37:04.722Z</time></trkpt><trkpt lat="45.3863017" lon="10.5707483"><ele>109.0</ele><time>2026-04-25T08:37:05.725Z</time></trkpt><trkpt lat="45.3862717" lon="10.5709417"><ele>109.0</ele><time>2026-04-25T08:37:06.721Z</time></trkpt><trkpt lat="45.3862433" lon="10.5711167"><ele>109.0</ele><time>2026-04-25T08:37:07.722Z</time></trkpt><trkpt lat="45.3862267" lon="10.57125"><ele>109.0</ele><time>2026-04-25T08:37:08.726Z</time></trkpt><trkpt lat="45.3862133" lon="10.5713617"><ele>109.0</ele><time>2026-04-25T08:37:09.73Z</time></trkpt><trkpt lat="45.3862067" lon="10.5714617"><ele>109.0</ele><time>2026-04-25T08:37:10.722Z</time></trkpt><trkpt lat="45.386195" lon="10.571575"><ele>108.83333333333334</ele><time>2026-04-25T08:37:11.723Z</time></trkpt><trkpt lat="45.3861917" lon="10.5716867"><ele>108.66666666666667</ele><time>2026-04-25T08:37:12.733Z</time></trkpt><trkpt lat="45.3862117" lon="10.5718017"><ele>108.5</ele><time>2026-04-25T08:37:13.74Z</time></trkpt><trkpt lat="45.3862433" lon="10.5719033"><ele>108.33333333333334</ele><time>2026-04-25T08:37:14.724Z</time></trkpt><trkpt lat="45.3863067" lon="10.57199"><ele>108.16666666666667</ele><time>2026-04-25T08:37:15.723Z</time></trkpt><trkpt lat="45.386365" lon="10.5720767"><ele>108.0</ele><time>2026-04-25T08:37:16.725Z</time></trkpt><trkpt lat="45.386425" lon="10.5721483"><ele>107.16666666666667</ele><time>2026-04-25T08:37:17.721Z</time></trkpt><trkpt lat="45.3864933" lon="10.57219"><ele>106.33333333333334</ele><time>2026-04-25T08:37:18.726Z</time></trkpt><trkpt lat="45.3865533" lon="10.5722233"><ele>105.5</ele><time>2026-04-25T08:37:19.721Z</time></trkpt><trkpt lat="45.3866467" lon="10.5723117"><ele>104.66666666666667</ele><time>2026-04-25T08:37:21.724Z</time></trkpt><trkpt lat="45.3866617" lon="10.5724667"><ele>103.83333333333334</ele><time>2026-04-25T08:37:23.721Z</time></trkpt><trkpt lat="45.3866167" lon="10.57256"><ele>103.0</ele><time>2026-04-25T08:37:24.726Z</time></trkpt><trkpt lat="45.3865617" lon="10.5726367"><ele>103.0</ele><time>2026-04-25T08:37:25.73Z</time></trkpt><trkpt lat="45.386485" lon="10.5727283"><ele>103.0</ele><time>2026-04-25T08:37:26.722Z</time></trkpt><trkpt lat="45.386425" lon="10.5728117"><ele>103.0</ele><time>2026-04-25T08:37:27.726Z</time></trkpt><trkpt lat="45.3863683" lon="10.572915"><ele>103.0</ele><time>2026-04-25T08:37:28.722Z</time></trkpt><trkpt lat="45.3863617" lon="10.5730517"><ele>103.0</ele><time>2026-04-25T08:37:29.721Z</time></trkpt><trkpt lat="45.3863733" lon="10.5732"><ele>103.0</ele><time>2026-04-25T08:37:30.723Z</time></trkpt><trkpt lat="45.386405" lon="10.57337"><ele>103.0</ele><time>2026-04-25T08:37:31.725Z</time></trkpt><trkpt lat="45.3864433" lon="10.57358"><ele>103.0</ele><time>2026-04-25T08:37:32.721Z</time></trkpt><trkpt lat="45.3864733" lon="10.5737733"><ele>103.0</ele><time>2026-04-25T08:37:33.73Z</time></trkpt><trkpt lat="45.3864983" lon="10.57395"><ele>102.80000000000001</ele><time>2026-04-25T08:37:34.725Z</time></trkpt><trkpt lat="45.3865317" lon="10.5741183"><ele>102.6</ele><time>2026-04-25T08:37:35.728Z</time></trkpt><trkpt lat="45.3865633" lon="10.57427"><ele>102.4</ele><time>2026-04-25T08:37:36.723Z</time></trkpt><trkpt lat="45.3865633" lon="10.5744117"><ele>102.19999999999999</ele><time>2026-04-25T08:37:37.728Z</time></trkpt><trkpt lat="45.3865583" lon="10.5745317"><ele>102.0</ele><time>2026-04-25T08:37:38.723Z</time></trkpt><trkpt lat="45.3865367" lon="10.5746567"><ele>101.75</ele><time>2026-04-25T08:37:39.72Z</time></trkpt><trkpt lat="45.3865" lon="10.5747783"><ele>101.5</ele><time>2026-04-25T08:37:40.724Z</time></trkpt><trkpt lat="45.38645" lon="10.5749"><ele>101.25</ele><time>2026-04-25T08:37:41.725Z</time></trkpt><trkpt lat="45.3863667" lon="10.5750317"><ele>101.0</ele><time>2026-04-25T08:37:42.72Z</time></trkpt><trkpt lat="45.3862283" lon="10.5752"><ele>102.33333333333333</ele><time>2026-04-25T08:37:43.721Z</time></trkpt><trkpt lat="45.3861267" lon="10.575355"><ele>103.66666666666666</ele><time>2026-04-25T08:37:44.73Z</time></trkpt><trkpt lat="45.3860183" lon="10.5755233"><ele>105.0</ele><time>2026-04-25T08:37:45.721Z</time></trkpt><trkpt lat="45.3859033" lon="10.575735"><ele>105.0</ele><time>2026-04-25T08:37:46.721Z</time></trkpt><trkpt lat="45.385845" lon="10.57595"><ele>105.0</ele><time>2026-04-25T08:37:47.728Z</time></trkpt><trkpt lat="45.385775" lon="10.5761983"><ele>105.0</ele><time>2026-04-25T08:37:48.739Z</time></trkpt><trkpt lat="45.3856983" lon="10.5764533"><ele>105.66666666666666</ele><time>2026-04-25T08:37:49.736Z</time></trkpt><trkpt lat="45.3856417" lon="10.5767017"><ele>106.33333333333333</ele><time>2026-04-25T08:37:50.736Z</time></trkpt><trkpt lat="45.3856083" lon="10.576955"><ele>107.0</ele><time>2026-04-25T08:37:51.726Z</time></trkpt><trkpt lat="45.385575" lon="10.57723"><ele>107.0</ele><time>2026-04-25T08:37:52.727Z</time></trkpt><trkpt lat="45.3855383" lon="10.5774833"><ele>107.0</ele><time>2026-04-25T08:37:53.734Z</time></trkpt><trkpt lat="45.3855083" lon="10.5777283"><ele>107.0</ele><time>2026-04-25T08:37:54.732Z</time></trkpt><trkpt lat="45.3854983" lon="10.5779283"><ele>106.8</ele><time>2026-04-25T08:37:55.725Z</time></trkpt><trkpt lat="45.3854467" lon="10.5780817"><ele>106.6</ele><time>2026-04-25T08:37:56.737Z</time></trkpt><trkpt lat="45.3854267" lon="10.5782183"><ele>106.39999999999999</ele><time>2026-04-25T08:37:57.741Z</time></trkpt><trkpt lat="45.3854183" lon="10.5783583"><ele>106.19999999999999</ele><time>2026-04-25T08:37:58.727Z</time></trkpt><trkpt lat="45.3854067" lon="10.5784717"><ele>106.0</ele><time>2026-04-25T08:37:59.74Z</time></trkpt><trkpt lat="45.385395" lon="10.5785667"><ele>106.0</ele><time>2026-04-25T08:38:00.744Z</time></trkpt><trkpt lat="45.3854033" lon="10.57867"><ele>106.0</ele><time>2026-04-25T08:38:02.726Z</time></trkpt><trkpt lat="45.38549" lon="10.5787433"><ele>106.0</ele><time>2026-04-25T08:38:04.721Z</time></trkpt><trkpt lat="45.3855717" lon="10.5787717"><ele>106.0</ele><time>2026-04-25T08:38:05.726Z</time></trkpt><trkpt lat="45.3856767" lon="10.5787917"><ele>106.0</ele><time>2026-04-25T08:38:06.725Z</time></trkpt><trkpt lat="45.3858283" lon="10.5788117"><ele>104.33333333333334</ele><time>2026-04-25T08:38:07.727Z</time></trkpt><trkpt lat="45.3859967" lon="10.57884"><ele>102.66666666666666</ele><time>2026-04-25T08:38:08.721Z</time></trkpt><trkpt lat="45.3862117" lon="10.5788533"><ele>101.0</ele><time>2026-04-25T08:38:09.725Z</time></trkpt><trkpt lat="45.3864033" lon="10.5788883"><ele>101.0</ele><time>2026-04-25T08:38:10.72Z</time></trkpt><trkpt lat="45.3865617" lon="10.5789233"><ele>101.0</ele><time>2026-04-25T08:38:11.722Z</time></trkpt><trkpt lat="45.3867117" lon="10.5789567"><ele>101.0</ele><time>2026-04-25T08:38:12.725Z</time></trkpt><trkpt lat="45.3868617" lon="10.5789817"><ele>101.0</ele><time>2026-04-25T08:38:13.724Z</time></trkpt><trkpt lat="45.3870117" lon="10.5790383"><ele>101.0</ele><time>2026-04-25T08:38:14.726Z</time></trkpt><trkpt lat="45.3871783" lon="10.5791"><ele>101.0</ele><time>2026-04-25T08:38:15.721Z</time></trkpt><trkpt lat="45.3873567" lon="10.579155"><ele>100.66666666666666</ele><time>2026-04-25T08:38:16.722Z</time></trkpt><trkpt lat="45.3875417" lon="10.5792267"><ele>100.33333333333334</ele><time>2026-04-25T08:38:17.718Z</time></trkpt><trkpt lat="45.3877217" lon="10.57931"><ele>100.0</ele><time>2026-04-25T08:38:18.729Z</time></trkpt><trkpt lat="45.3879017" lon="10.57938"><ele>100.66666666666667</ele><time>2026-04-25T08:38:19.724Z</time></trkpt><trkpt lat="45.3880767" lon="10.5794433"><ele>101.33333333333334</ele><time>2026-04-25T08:38:20.726Z</time></trkpt><trkpt lat="45.3882383" lon="10.5795033"><ele>102.0</ele><time>2026-04-25T08:38:21.721Z</time></trkpt><trkpt lat="45.3883933" lon="10.5795567"><ele>102.0</ele><time>2026-04-25T08:38:22.726Z</time></trkpt><trkpt lat="45.3885433" lon="10.579595"><ele>102.0</ele><time>2026-04-25T08:38:23.721Z</time></trkpt><trkpt lat="45.38865" lon="10.5796583"><ele>102.0</ele><time>2026-04-25T08:38:24.726Z</time></trkpt><trkpt lat="45.388765" lon="10.5797017"><ele>102.0</ele><time>2026-04-25T08:38:25.724Z</time></trkpt><trkpt lat="45.3888567" lon="10.5797367"><ele>102.83333333333333</ele><time>2026-04-25T08:38:26.733Z</time></trkpt><trkpt lat="45.3889367" lon="10.5797767"><ele>103.66666666666666</ele><time>2026-04-25T08:38:27.719Z</time></trkpt><trkpt lat="45.3890133" lon="10.5797933"><ele>104.5</ele><time>2026-04-25T08:38:28.725Z</time></trkpt><trkpt lat="45.3891117" lon="10.5798383"><ele>105.33333333333333</ele><time>2026-04-25T08:38:30.728Z</time></trkpt><trkpt lat="45.38919" lon="10.57989"><ele>106.16666666666666</ele><time>2026-04-25T08:38:32.731Z</time></trkpt><trkpt lat="45.3892083" lon="10.580015"><ele>107.0</ele><time>2026-04-25T08:38:34.727Z</time></trkpt><trkpt lat="45.3891867" lon="10.5801267"><ele>107.0</ele><time>2026-04-25T08:38:35.729Z</time></trkpt><trkpt lat="45.3891483" lon="10.58026"><ele>107.0</ele><time>2026-04-25T08:38:36.727Z</time></trkpt><trkpt lat="45.3890967" lon="10.5804217"><ele>107.0</ele><time>2026-04-25T08:38:37.736Z</time></trkpt><trkpt lat="45.389035" lon="10.580615"><ele>107.0</ele><time>2026-04-25T08:38:38.728Z</time></trkpt><trkpt lat="45.3889867" lon="10.5808433"><ele>107.0</ele><time>2026-04-25T08:38:39.731Z</time></trkpt><trkpt lat="45.3889367" lon="10.58106"><ele>107.0</ele><time>2026-04-25T08:38:40.728Z</time></trkpt><trkpt lat="45.3888917" lon="10.58124"><ele>107.0</ele><time>2026-04-25T08:38:41.726Z</time></trkpt><trkpt lat="45.3888667" lon="10.581405"><ele>107.0</ele><time>2026-04-25T08:38:42.734Z</time></trkpt><trkpt lat="45.3888467" lon="10.5815483"><ele>106.33333333333333</ele><time>2026-04-25T08:38:43.732Z</time></trkpt><trkpt lat="45.388825" lon="10.5816583"><ele>105.66666666666666</ele><time>2026-04-25T08:38:44.734Z</time></trkpt><trkpt lat="45.3888117" lon="10.58177"><ele>105.0</ele><time>2026-04-25T08:38:45.727Z</time></trkpt><trkpt lat="45.388795" lon="10.5818717"><ele>104.33333333333334</ele><time>2026-04-25T08:38:46.725Z</time></trkpt><trkpt lat="45.3887733" lon="10.58197"><ele>103.66666666666667</ele><time>2026-04-25T08:38:47.726Z</time></trkpt><trkpt lat="45.3887433" lon="10.58209"><ele>103.0</ele><time>2026-04-25T08:38:48.737Z</time></trkpt><trkpt lat="45.3887067" lon="10.5822533"><ele>103.0</ele><time>2026-04-25T08:38:49.727Z</time></trkpt><trkpt lat="45.3886733" lon="10.5824317"><ele>103.0</ele><time>2026-04-25T08:38:50.728Z</time></trkpt><trkpt lat="45.3886367" lon="10.5826117"><ele>103.0</ele><time>2026-04-25T08:38:51.733Z</time></trkpt><trkpt lat="45.3886133" lon="10.58273"><ele>103.0</ele><time>2026-04-25T08:38:52.729Z</time></trkpt><trkpt lat="45.3886" lon="10.58285"><ele>103.0</ele><time>2026-04-25T08:38:54.738Z</time></trkpt><trkpt lat="45.3886467" lon="10.58293"><ele>103.25</ele><time>2026-04-25T08:38:56.722Z</time></trkpt><trkpt lat="45.38874" lon="10.5829217"><ele>103.5</ele><time>2026-04-25T08:38:57.729Z</time></trkpt><trkpt lat="45.3888367" lon="10.5829217"><ele>103.75</ele><time>2026-04-25T08:38:58.727Z</time></trkpt><trkpt lat="45.3889633" lon="10.5829417"><ele>104.0</ele><time>2026-04-25T08:38:59.728Z</time></trkpt><trkpt lat="45.3891133" lon="10.5829733"><ele>105.5</ele><time>2026-04-25T08:39:00.734Z</time></trkpt><trkpt lat="45.38926" lon="10.5829817"><ele>107.0</ele><time>2026-04-25T08:39:01.727Z</time></trkpt><trkpt lat="45.3893817" lon="10.582995"><ele>108.5</ele><time>2026-04-25T08:39:02.727Z</time></trkpt><trkpt lat="45.389485" lon="10.5829933"><ele>110.0</ele><time>2026-04-25T08:39:03.725Z</time></trkpt><trkpt lat="45.3895767" lon="10.5829683"><ele>112.0</ele><time>2026-04-25T08:39:04.73Z</time></trkpt><trkpt lat="45.3896883" lon="10.5829983"><ele>114.0</ele><time>2026-04-25T08:39:05.721Z</time></trkpt><trkpt lat="45.3897933" lon="10.5829933"><ele>116.0</ele><time>2026-04-25T08:39:06.758Z</time></trkpt><trkpt lat="45.3898783" lon="10.5830067"><ele>118.0</ele><time>2026-04-25T08:39:07.739Z</time></trkpt><trkpt lat="45.389985" lon="10.5830433"><ele>120.0</ele><time>2026-04-25T08:39:09.746Z</time></trkpt><trkpt lat="45.3900367" lon="10.58314"><ele>120.0</ele><time>2026-04-25T08:39:13.728Z</time></trkpt><trkpt lat="45.39" lon="10.5832667"><ele>120.0</ele><time>2026-04-25T08:39:15.724Z</time></trkpt><trkpt lat="45.3899617" lon="10.5833683"><ele>120.0</ele><time>2026-04-25T08:39:16.734Z</time></trkpt><trkpt lat="45.38993" lon="10.5834833"><ele>120.0</ele><time>2026-04-25T08:39:17.741Z</time></trkpt><trkpt lat="45.3899117" lon="10.5836017"><ele>120.0</ele><time>2026-04-25T08:39:18.725Z</time></trkpt><trkpt lat="45.389915" lon="10.5837083"><ele>120.0</ele><time>2026-04-25T08:39:19.719Z</time></trkpt><trkpt lat="45.3899367" lon="10.5838067"><ele>119.83333333333333</ele><time>2026-04-25T08:39:20.72Z</time></trkpt><trkpt lat="45.3899767" lon="10.5838817"><ele>119.66666666666666</ele><time>2026-04-25T08:39:21.724Z</time></trkpt><trkpt lat="45.3900217" lon="10.5839567"><ele>119.5</ele><time>2026-04-25T08:39:22.725Z</time></trkpt><trkpt lat="45.3900867" lon="10.584015"><ele>119.33333333333333</ele><time>2026-04-25T08:39:23.725Z</time></trkpt><trkpt lat="45.390165" lon="10.584055"><ele>119.16666666666666</ele><time>2026-04-25T08:39:24.726Z</time></trkpt><trkpt lat="45.3902617" lon="10.58407"><ele>119.0</ele><time>2026-04-25T08:39:25.72Z</time></trkpt><trkpt lat="45.3904267" lon="10.5840083"><ele>119.0</ele><time>2026-04-25T08:39:26.726Z</time></trkpt><trkpt lat="45.3905967" lon="10.58396"><ele>119.0</ele><time>2026-04-25T08:39:27.72Z</time></trkpt><trkpt lat="45.3907117" lon="10.58395"><ele>119.0</ele><time>2026-04-25T08:39:28.721Z</time></trkpt><trkpt lat="45.3908233" lon="10.5839383"><ele>119.0</ele><time>2026-04-25T08:39:29.724Z</time></trkpt><trkpt lat="45.3909367" lon="10.5839417"><ele>119.0</ele><time>2026-04-25T08:39:30.733Z</time></trkpt><trkpt lat="45.391025" lon="10.5839383"><ele>119.0</ele><time>2026-04-25T08:39:31.72Z</time></trkpt><trkpt lat="45.3910967" lon="10.583985"><ele>119.0</ele><time>2026-04-25T08:39:32.725Z</time></trkpt><trkpt lat="45.3911767" lon="10.5840367"><ele>119.0</ele><time>2026-04-25T08:39:33.728Z</time></trkpt><trkpt lat="45.3912633" lon="10.58413"><ele>119.0</ele><time>2026-04-25T08:39:34.722Z</time></trkpt><trkpt lat="45.391375" lon="10.5842433"><ele>118.0</ele><time>2026-04-25T08:39:35.725Z</time></trkpt><trkpt lat="45.391485" lon="10.5843517"><ele>117.0</ele><time>2026-04-25T08:39:36.728Z</time></trkpt><trkpt lat="45.39159" lon="10.584465"><ele>116.0</ele><time>2026-04-25T08:39:37.72Z</time></trkpt><trkpt lat="45.3916617" lon="10.58458"><ele>115.0</ele><time>2026-04-25T08:39:38.722Z</time></trkpt><trkpt lat="45.3917283" lon="10.5846733"><ele>115.0</ele><time>2026-04-25T08:39:39.725Z</time></trkpt><trkpt lat="45.3917683" lon="10.584785"><ele>115.0</ele><time>2026-04-25T08:39:40.721Z</time></trkpt><trkpt lat="45.391785" lon="10.5849267"><ele>115.0</ele><time>2026-04-25T08:39:41.727Z</time></trkpt><trkpt lat="45.39179" lon="10.5850933"><ele>115.0</ele><time>2026-04-25T08:39:42.728Z</time></trkpt><trkpt lat="45.39176" lon="10.5852967"><ele>115.0</ele><time>2026-04-25T08:39:43.725Z</time></trkpt><trkpt lat="45.391715" lon="10.58554"><ele>115.0</ele><time>2026-04-25T08:39:44.721Z</time></trkpt><trkpt lat="45.39167" lon="10.5858067"><ele>115.0</ele><time>2026-04-25T08:39:45.727Z</time></trkpt><trkpt lat="45.3916517" lon="10.5860283"><ele>114.66666666666667</ele><time>2026-04-25T08:39:46.721Z</time></trkpt><trkpt lat="45.391605" lon="10.5862333"><ele>114.33333333333334</ele><time>2026-04-25T08:39:47.723Z</time></trkpt><trkpt lat="45.3915433" lon="10.5864433"><ele>114.0</ele><time>2026-04-25T08:39:48.725Z</time></trkpt><trkpt lat="45.39144" lon="10.5866517"><ele>114.0</ele><time>2026-04-25T08:39:49.724Z</time></trkpt><trkpt lat="45.39136" lon="10.5868367"><ele>114.0</ele><time>2026-04-25T08:39:50.719Z</time></trkpt><trkpt lat="45.3913067" lon="10.5870017"><ele>114.0</ele><time>2026-04-25T08:39:51.719Z</time></trkpt><trkpt lat="45.3912767" lon="10.5871617"><ele>114.0</ele><time>2026-04-25T08:39:52.725Z</time></trkpt><trkpt lat="45.3912883" lon="10.5873017"><ele>114.25</ele><time>2026-04-25T08:39:53.72Z</time></trkpt><trkpt lat="45.3913267" lon="10.5874417"><ele>114.5</ele><time>2026-04-25T08:39:54.727Z</time></trkpt><trkpt lat="45.3913783" lon="10.5875767"><ele>114.75</ele><time>2026-04-25T08:39:55.724Z</time></trkpt><trkpt lat="45.3914867" lon="10.5876667"><ele>115.0</ele><time>2026-04-25T08:39:56.725Z</time></trkpt><trkpt lat="45.3915933" lon="10.5877983"><ele>115.75</ele><time>2026-04-25T08:39:57.719Z</time></trkpt><trkpt lat="45.3917067" lon="10.5879367"><ele>116.5</ele><time>2026-04-25T08:39:58.726Z</time></trkpt><trkpt lat="45.3917933" lon="10.5881083"><ele>117.25</ele><time>2026-04-25T08:39:59.72Z</time></trkpt><trkpt lat="45.3918617" lon="10.5882733"><ele>118.0</ele><time>2026-04-25T08:40:00.722Z</time></trkpt><trkpt lat="45.3919167" lon="10.5884533"><ele>118.0</ele><time>2026-04-25T08:40:01.724Z</time></trkpt><trkpt lat="45.3919717" lon="10.5886633"><ele>118.0</ele><time>2026-04-25T08:40:02.723Z</time></trkpt><trkpt lat="45.3919917" lon="10.5888817"><ele>118.0</ele><time>2026-04-25T08:40:03.719Z</time></trkpt><trkpt lat="45.3920267" lon="10.5891417"><ele>118.0</ele><time>2026-04-25T08:40:04.724Z</time></trkpt><trkpt lat="45.3920483" lon="10.5893883"><ele>118.0</ele><time>2026-04-25T08:40:05.725Z</time></trkpt><trkpt lat="45.3920483" lon="10.5896317"><ele>118.0</ele><time>2026-04-25T08:40:06.72Z</time></trkpt><trkpt lat="45.392045" lon="10.5898633"><ele>117.66666666666667</ele><time>2026-04-25T08:40:07.728Z</time></trkpt><trkpt lat="45.3920383" lon="10.5900783"><ele>117.33333333333334</ele><time>2026-04-25T08:40:08.724Z</time></trkpt><trkpt lat="45.39204" lon="10.59033"><ele>117.0</ele><time>2026-04-25T08:40:09.718Z</time></trkpt><trkpt lat="45.3920483" lon="10.5905383"><ele>116.75</ele><time>2026-04-25T08:40:10.723Z</time></trkpt><trkpt lat="45.3920567" lon="10.59074"><ele>116.5</ele><time>2026-04-25T08:40:11.726Z</time></trkpt><trkpt lat="45.3920917" lon="10.5909183"><ele>116.25</ele><time>2026-04-25T08:40:12.721Z</time></trkpt><trkpt lat="45.3921433" lon="10.5910733"><ele>116.0</ele><time>2026-04-25T08:40:13.729Z</time></trkpt><trkpt lat="45.392225" lon="10.5912583"><ele>117.66666666666666</ele><time>2026-04-25T08:40:14.724Z</time></trkpt><trkpt lat="45.3923333" lon="10.5914417"><ele>119.33333333333334</ele><time>2026-04-25T08:40:15.725Z</time></trkpt><trkpt lat="45.3924333" lon="10.5916183"><ele>121.0</ele><time>2026-04-25T08:40:16.721Z</time></trkpt><trkpt lat="45.39251" lon="10.5917767"><ele>121.0</ele><time>2026-04-25T08:40:17.73Z</time></trkpt><trkpt lat="45.3925583" lon="10.5919317"><ele>121.0</ele><time>2026-04-25T08:40:18.722Z</time></trkpt><trkpt lat="45.3925883" lon="10.5920867"><ele>121.0</ele><time>2026-04-25T08:40:19.722Z</time></trkpt><trkpt lat="45.3925967" lon="10.5922367"><ele>121.0</ele><time>2026-04-25T08:40:20.726Z</time></trkpt><trkpt lat="45.3925917" lon="10.5923883"><ele>121.0</ele><time>2026-04-25T08:40:21.724Z</time></trkpt><trkpt lat="45.3925683" lon="10.592535"><ele>120.83333333333334</ele><time>2026-04-25T08:40:22.721Z</time></trkpt><trkpt lat="45.39254" lon="10.5926933"><ele>120.66666666666667</ele><time>2026-04-25T08:40:23.72Z</time></trkpt><trkpt lat="45.392525" lon="10.5928017"><ele>120.5</ele><time>2026-04-25T08:40:24.725Z</time></trkpt><trkpt lat="45.3925333" lon="10.592905"><ele>120.33333333333334</ele><time>2026-04-25T08:40:25.72Z</time></trkpt><trkpt lat="45.3925617" lon="10.5929983"><ele>120.16666666666667</ele><time>2026-04-25T08:40:26.725Z</time></trkpt><trkpt lat="45.392635" lon="10.5930733"><ele>120.0</ele><time>2026-04-25T08:40:27.725Z</time></trkpt><trkpt lat="45.3927367" lon="10.5931383"><ele>119.75</ele><time>2026-04-25T08:40:28.724Z</time></trkpt><trkpt lat="45.39286" lon="10.59319"><ele>119.5</ele><time>2026-04-25T08:40:29.718Z</time></trkpt><trkpt lat="45.3930033" lon="10.5932383"><ele>119.25</ele><time>2026-04-25T08:40:30.724Z</time></trkpt><trkpt lat="45.3931317" lon="10.5932767"><ele>119.0</ele><time>2026-04-25T08:40:31.723Z</time></trkpt><trkpt lat="45.3932333" lon="10.5933533"><ele>118.25</ele><time>2026-04-25T08:40:32.72Z</time></trkpt><trkpt lat="45.39337" lon="10.59346"><ele>117.5</ele><time>2026-04-25T08:40:33.724Z</time></trkpt><trkpt lat="45.3934967" lon="10.5935633"><ele>116.75</ele><time>2026-04-25T08:40:34.724Z</time></trkpt><trkpt lat="45.393595" lon="10.5936583"><ele>116.0</ele><time>2026-04-25T08:40:35.719Z</time></trkpt><trkpt lat="45.39371" lon="10.5937333"><ele>115.99999999999999</ele><time>2026-04-25T08:40:36.725Z</time></trkpt><trkpt lat="45.3938" lon="10.5937983"><ele>116.0</ele><time>2026-04-25T08:40:37.724Z</time></trkpt><trkpt lat="45.39387" lon="10.593865"><ele>116.0</ele><time>2026-04-25T08:40:38.72Z</time></trkpt><trkpt lat="45.3939133" lon="10.5939517"><ele>116.0</ele><time>2026-04-25T08:40:39.726Z</time></trkpt><trkpt lat="45.3939533" lon="10.5940583"><ele>115.99999999999999</ele><time>2026-04-25T08:40:40.724Z</time></trkpt><trkpt lat="45.3939683" lon="10.5941933"><ele>116.0</ele><time>2026-04-25T08:40:41.721Z</time></trkpt><trkpt lat="45.3939567" lon="10.5943783"><ele>115.25</ele><time>2026-04-25T08:40:42.721Z</time></trkpt><trkpt lat="45.393945" lon="10.5945917"><ele>114.5</ele><time>2026-04-25T08:40:43.728Z</time></trkpt><trkpt lat="45.3939233" lon="10.5948033"><ele>113.75</ele><time>2026-04-25T08:40:44.72Z</time></trkpt><trkpt lat="45.393905" lon="10.5950067"><ele>113.0</ele><time>2026-04-25T08:40:45.724Z</time></trkpt><trkpt lat="45.39388" lon="10.5951967"><ele>112.80000000000001</ele><time>2026-04-25T08:40:46.723Z</time></trkpt><trkpt lat="45.3938333" lon="10.59535"><ele>112.60000000000001</ele><time>2026-04-25T08:40:47.725Z</time></trkpt><trkpt lat="45.3938517" lon="10.5955067"><ele>112.39999999999999</ele><time>2026-04-25T08:40:48.726Z</time></trkpt><trkpt lat="45.3938567" lon="10.5956167"><ele>112.19999999999999</ele><time>2026-04-25T08:40:49.724Z</time></trkpt><trkpt lat="45.3938867" lon="10.59573"><ele>112.0</ele><time>2026-04-25T08:40:50.724Z</time></trkpt><trkpt lat="45.3939267" lon="10.59584"><ele>112.8</ele><time>2026-04-25T08:40:51.722Z</time></trkpt><trkpt lat="45.3939883" lon="10.5959267"><ele>113.6</ele><time>2026-04-25T08:40:52.734Z</time></trkpt><trkpt lat="45.3940817" lon="10.595955"><ele>114.39999999999999</ele><time>2026-04-25T08:40:53.724Z</time></trkpt><trkpt lat="45.3941983" lon="10.5959633"><ele>115.19999999999999</ele><time>2026-04-25T08:40:54.721Z</time></trkpt><trkpt lat="45.3943" lon="10.5960167"><ele>116.0</ele><time>2026-04-25T08:40:55.721Z</time></trkpt><trkpt lat="45.3943967" lon="10.5960983"><ele>116.0</ele><time>2026-04-25T08:40:56.724Z</time></trkpt><trkpt lat="45.3945017" lon="10.5961283"><ele>116.0</ele><time>2026-04-25T08:40:57.72Z</time></trkpt><trkpt lat="45.3946" lon="10.5961633"><ele>116.0</ele><time>2026-04-25T08:40:58.723Z</time></trkpt><trkpt lat="45.3947083" lon="10.5962033"><ele>116.0</ele><time>2026-04-25T08:40:59.728Z</time></trkpt><trkpt lat="45.39483" lon="10.59624"><ele>116.0</ele><time>2026-04-25T08:41:00.722Z</time></trkpt><trkpt lat="45.3949867" lon="10.5962433"><ele>115.19999999999999</ele><time>2026-04-25T08:41:01.722Z</time></trkpt><trkpt lat="45.3951083" lon="10.5962667"><ele>114.39999999999999</ele><time>2026-04-25T08:41:02.722Z</time></trkpt><trkpt lat="45.395205" lon="10.5963117"><ele>113.6</ele><time>2026-04-25T08:41:03.719Z</time></trkpt><trkpt lat="45.3953" lon="10.596365"><ele>112.8</ele><time>2026-04-25T08:41:04.719Z</time></trkpt><trkpt lat="45.39539" lon="10.5964333"><ele>112.0</ele><time>2026-04-25T08:41:05.733Z</time></trkpt><trkpt lat="45.3954267" lon="10.5965833"><ele>111.19999999999999</ele><time>2026-04-25T08:41:06.746Z</time></trkpt><trkpt lat="45.3955067" lon="10.5967133"><ele>110.39999999999999</ele><time>2026-04-25T08:41:07.724Z</time></trkpt><trkpt lat="45.3955767" lon="10.596875"><ele>109.60000000000001</ele><time>2026-04-25T08:41:08.728Z</time></trkpt><trkpt lat="45.3956367" lon="10.5969533"><ele>108.80000000000001</ele><time>2026-04-25T08:41:09.73Z</time></trkpt><trkpt lat="45.3957117" lon="10.5970317"><ele>108.0</ele><time>2026-04-25T08:41:10.727Z</time></trkpt><trkpt lat="45.3958067" lon="10.5970733"><ele>108.0</ele><time>2026-04-25T08:41:11.729Z</time></trkpt><trkpt lat="45.3959133" lon="10.5971317"><ele>108.00000000000001</ele><time>2026-04-25T08:41:12.748Z</time></trkpt><trkpt lat="45.39602" lon="10.5971533"><ele>108.00000000000001</ele><time>2026-04-25T08:41:13.731Z</time></trkpt><trkpt lat="45.3960967" lon="10.5972017"><ele>108.0</ele><time>2026-04-25T08:41:14.722Z</time></trkpt><trkpt lat="45.39618" lon="10.5972083"><ele>108.0</ele><time>2026-04-25T08:41:15.743Z</time></trkpt><trkpt lat="45.3962567" lon="10.5972467"><ele>107.0</ele><time>2026-04-25T08:41:16.732Z</time></trkpt><trkpt lat="45.3963467" lon="10.59729"><ele>106.00000000000001</ele><time>2026-04-25T08:41:17.743Z</time></trkpt><trkpt lat="45.3964517" lon="10.5973133"><ele>105.0</ele><time>2026-04-25T08:41:18.729Z</time></trkpt><trkpt lat="45.39657" lon="10.5972883"><ele>104.0</ele><time>2026-04-25T08:41:19.737Z</time></trkpt><trkpt lat="45.3966833" lon="10.5972167"><ele>103.0</ele><time>2026-04-25T08:41:20.731Z</time></trkpt><trkpt lat="45.3968017" lon="10.5971517"><ele>103.00000000000001</ele><time>2026-04-25T08:41:21.736Z</time></trkpt><trkpt lat="45.39689" lon="10.5971317"><ele>103.0</ele><time>2026-04-25T08:41:22.725Z</time></trkpt><trkpt lat="45.3970033" lon="10.5971167"><ele>103.0</ele><time>2026-04-25T08:41:23.724Z</time></trkpt><trkpt lat="45.3970867" lon="10.5971283"><ele>103.0</ele><time>2026-04-25T08:41:24.727Z</time></trkpt><trkpt lat="45.3971667" lon="10.5971083"><ele>103.00000000000001</ele><time>2026-04-25T08:41:25.73Z</time></trkpt><trkpt lat="45.3972317" lon="10.5971133"><ele>103.0</ele><time>2026-04-25T08:41:26.728Z</time></trkpt><trkpt lat="45.3973133" lon="10.59715"><ele>103.2</ele><time>2026-04-25T08:41:28.727Z</time></trkpt><trkpt lat="45.3973217" lon="10.59729"><ele>103.4</ele><time>2026-04-25T08:41:30.733Z</time></trkpt><trkpt lat="45.3973133" lon="10.5973983"><ele>103.60000000000001</ele><time>2026-04-25T08:41:31.73Z</time></trkpt><trkpt lat="45.3972983" lon="10.5975267"><ele>103.80000000000001</ele><time>2026-04-25T08:41:32.735Z</time></trkpt><trkpt lat="45.3972733" lon="10.597675"><ele>104.0</ele><time>2026-04-25T08:41:33.723Z</time></trkpt><trkpt lat="45.3972483" lon="10.597855"><ele>103.75</ele><time>2026-04-25T08:41:34.734Z</time></trkpt><trkpt lat="45.397225" lon="10.59804"><ele>103.5</ele><time>2026-04-25T08:41:35.723Z</time></trkpt><trkpt lat="45.39717" lon="10.598195"><ele>103.25</ele><time>2026-04-25T08:41:36.727Z</time></trkpt><trkpt lat="45.3971383" lon="10.5983433"><ele>103.0</ele><time>2026-04-25T08:41:37.748Z</time></trkpt><trkpt lat="45.3970817" lon="10.598515"><ele>102.5</ele><time>2026-04-25T08:41:38.726Z</time></trkpt><trkpt lat="45.3970317" lon="10.5987233"><ele>102.0</ele><time>2026-04-25T08:41:39.729Z</time></trkpt><trkpt lat="45.397" lon="10.5989333"><ele>101.5</ele><time>2026-04-25T08:41:40.729Z</time></trkpt><trkpt lat="45.3969583" lon="10.5991033"><ele>101.0</ele><time>2026-04-25T08:41:41.731Z</time></trkpt><trkpt lat="45.39693" lon="10.5992617"><ele>101.0</ele><time>2026-04-25T08:41:42.721Z</time></trkpt><trkpt lat="45.3969167" lon="10.59941"><ele>101.0</ele><time>2026-04-25T08:41:43.735Z</time></trkpt><trkpt lat="45.3968817" lon="10.5995417"><ele>101.0</ele><time>2026-04-25T08:41:44.726Z</time></trkpt><trkpt lat="45.396815" lon="10.599675"><ele>101.0</ele><time>2026-04-25T08:41:45.731Z</time></trkpt><trkpt lat="45.3967633" lon="10.59981"><ele>101.0</ele><time>2026-04-25T08:41:46.721Z</time></trkpt><trkpt lat="45.3966883" lon="10.599935"><ele>101.5</ele><time>2026-04-25T08:41:47.723Z</time></trkpt><trkpt lat="45.3966167" lon="10.600055"><ele>102.0</ele><time>2026-04-25T08:41:48.721Z</time></trkpt><trkpt lat="45.3965667" lon="10.60018"><ele>102.5</ele><time>2026-04-25T08:41:49.721Z</time></trkpt><trkpt lat="45.396505" lon="10.60035"><ele>103.0</ele><time>2026-04-25T08:41:50.718Z</time></trkpt><trkpt lat="45.3964567" lon="10.6005033"><ele>102.60000000000001</ele><time>2026-04-25T08:41:51.721Z</time></trkpt><trkpt lat="45.3964217" lon="10.6006533"><ele>102.2</ele><time>2026-04-25T08:41:52.722Z</time></trkpt><trkpt lat="45.3963683" lon="10.6007883"><ele>101.8</ele><time>2026-04-25T08:41:53.719Z</time></trkpt><trkpt lat="45.3963217" lon="10.60092"><ele>101.4</ele><time>2026-04-25T08:41:54.725Z</time></trkpt><trkpt lat="45.3962833" lon="10.601055"><ele>101.0</ele><time>2026-04-25T08:41:55.721Z</time></trkpt><trkpt lat="45.3962433" lon="10.6012"><ele>101.0</ele><time>2026-04-25T08:41:56.719Z</time></trkpt><trkpt lat="45.3962117" lon="10.6013383"><ele>101.0</ele><time>2026-04-25T08:41:57.72Z</time></trkpt><trkpt lat="45.396185" lon="10.6014833"><ele>101.0</ele><time>2026-04-25T08:41:58.726Z</time></trkpt><trkpt lat="45.3961517" lon="10.60163"><ele>101.0</ele><time>2026-04-25T08:41:59.726Z</time></trkpt><trkpt lat="45.39611" lon="10.6017783"><ele>101.0</ele><time>2026-04-25T08:42:00.721Z</time></trkpt><trkpt lat="45.3960683" lon="10.6019267"><ele>101.25</ele><time>2026-04-25T08:42:01.718Z</time></trkpt><trkpt lat="45.3960467" lon="10.6021033"><ele>101.5</ele><time>2026-04-25T08:42:02.724Z</time></trkpt><trkpt lat="45.3959917" lon="10.6022733"><ele>101.75</ele><time>2026-04-25T08:42:03.728Z</time></trkpt><trkpt lat="45.3959433" lon="10.6024467"><ele>102.0</ele><time>2026-04-25T08:42:04.727Z</time></trkpt><trkpt lat="45.3958967" lon="10.6026317"><ele>102.0</ele><time>2026-04-25T08:42:05.723Z</time></trkpt><trkpt lat="45.39584" lon="10.6028183"><ele>102.0</ele><time>2026-04-25T08:42:06.726Z</time></trkpt><trkpt lat="45.3957667" lon="10.6029967"><ele>102.0</ele><time>2026-04-25T08:42:07.727Z</time></trkpt><trkpt lat="45.3957033" lon="10.60317"><ele>102.0</ele><time>2026-04-25T08:42:08.731Z</time></trkpt><trkpt lat="45.3956383" lon="10.60334"><ele>101.6</ele><time>2026-04-25T08:42:09.734Z</time></trkpt><trkpt lat="45.39559" lon="10.6034883"><ele>101.19999999999999</ele><time>2026-04-25T08:42:10.728Z</time></trkpt><trkpt lat="45.39555" lon="10.603625"><ele>100.8</ele><time>2026-04-25T08:42:11.728Z</time></trkpt><trkpt lat="45.3954983" lon="10.6037817"><ele>100.4</ele><time>2026-04-25T08:42:12.743Z</time></trkpt><trkpt lat="45.3954533" lon="10.6039067"><ele>100.0</ele><time>2026-04-25T08:42:13.746Z</time></trkpt><trkpt lat="45.3954167" lon="10.604005"><ele>100.0</ele><time>2026-04-25T08:42:14.726Z</time></trkpt><trkpt lat="45.395365" lon="10.6041033"><ele>100.0</ele><time>2026-04-25T08:42:15.734Z</time></trkpt><trkpt lat="45.395305" lon="10.6042567"><ele>100.0</ele><time>2026-04-25T08:42:16.732Z</time></trkpt><trkpt lat="45.3952483" lon="10.6044"><ele>100.0</ele><time>2026-04-25T08:42:17.727Z</time></trkpt><trkpt lat="45.3952167" lon="10.6045283"><ele>100.0</ele><time>2026-04-25T08:42:18.723Z</time></trkpt><trkpt lat="45.395185" lon="10.60465"><ele>100.0</ele><time>2026-04-25T08:42:19.739Z</time></trkpt><trkpt lat="45.3951567" lon="10.604765"><ele>100.0</ele><time>2026-04-25T08:42:20.724Z</time></trkpt><trkpt lat="45.3951317" lon="10.6048867"><ele>100.0</ele><time>2026-04-25T08:42:21.746Z</time></trkpt><trkpt lat="45.3951133" lon="10.6050017"><ele>100.0</ele><time>2026-04-25T08:42:22.733Z</time></trkpt><trkpt lat="45.395085" lon="10.6051283"><ele>100.0</ele><time>2026-04-25T08:42:23.747Z</time></trkpt><trkpt lat="45.395065" lon="10.6052783"><ele>100.4</ele><time>2026-04-25T08:42:24.732Z</time></trkpt><trkpt lat="45.395045" lon="10.60542"><ele>100.8</ele><time>2026-04-25T08:42:25.741Z</time></trkpt><trkpt lat="45.3950233" lon="10.6055717"><ele>101.19999999999999</ele><time>2026-04-25T08:42:26.736Z</time></trkpt><trkpt lat="45.3949983" lon="10.6057217"><ele>101.6</ele><time>2026-04-25T08:42:27.737Z</time></trkpt><trkpt lat="45.3949617" lon="10.6058867"><ele>102.0</ele><time>2026-04-25T08:42:28.732Z</time></trkpt><trkpt lat="45.3949" lon="10.6062517"><ele>102.0</ele><time>2026-04-25T08:42:30.719Z</time></trkpt><trkpt lat="45.39487" lon="10.6064217"><ele>102.0</ele><time>2026-04-25T08:42:31.718Z</time></trkpt><trkpt lat="45.3948317" lon="10.6065983"><ele>102.0</ele><time>2026-04-25T08:42:32.729Z</time></trkpt><trkpt lat="45.3947983" lon="10.6068217"><ele>102.0</ele><time>2026-04-25T08:42:33.736Z</time></trkpt><trkpt lat="45.3947933" lon="10.6070233"><ele>102.66666666666666</ele><time>2026-04-25T08:42:34.734Z</time></trkpt><trkpt lat="45.3947883" lon="10.6072467"><ele>103.33333333333333</ele><time>2026-04-25T08:42:35.729Z</time></trkpt><trkpt lat="45.3947833" lon="10.6074733"><ele>104.0</ele><time>2026-04-25T08:42:36.731Z</time></trkpt><trkpt lat="45.3947917" lon="10.6077317"><ele>104.0</ele><time>2026-04-25T08:42:37.723Z</time></trkpt><trkpt lat="45.3947783" lon="10.6080233"><ele>104.0</ele><time>2026-04-25T08:42:38.726Z</time></trkpt><trkpt lat="45.394775" lon="10.6082233"><ele>104.0</ele><time>2026-04-25T08:42:39.724Z</time></trkpt><trkpt lat="45.39476" lon="10.608405"><ele>104.0</ele><time>2026-04-25T08:42:40.724Z</time></trkpt><trkpt lat="45.3947467" lon="10.6085783"><ele>104.0</ele><time>2026-04-25T08:42:41.74Z</time></trkpt><trkpt lat="45.3947183" lon="10.6087683"><ele>104.0</ele><time>2026-04-25T08:42:42.727Z</time></trkpt><trkpt lat="45.3946817" lon="10.6089867"><ele>104.0</ele><time>2026-04-25T08:42:43.731Z</time></trkpt><trkpt lat="45.3946383" lon="10.6092"><ele>102.5</ele><time>2026-04-25T08:42:44.727Z</time></trkpt><trkpt lat="45.3945767" lon="10.6093983"><ele>101.0</ele><time>2026-04-25T08:42:45.736Z</time></trkpt><trkpt lat="45.3945033" lon="10.6095967"><ele>99.5</ele><time>2026-04-25T08:42:46.726Z</time></trkpt><trkpt lat="45.3944367" lon="10.6097517"><ele>98.0</ele><time>2026-04-25T08:42:47.725Z</time></trkpt><trkpt lat="45.3943767" lon="10.6098783"><ele>98.0</ele><time>2026-04-25T08:42:48.729Z</time></trkpt><trkpt lat="45.39432" lon="10.610015"><ele>98.0</ele><time>2026-04-25T08:42:49.719Z</time></trkpt><trkpt lat="45.3942683" lon="10.610155"><ele>98.0</ele><time>2026-04-25T08:42:50.72Z</time></trkpt><trkpt lat="45.3942417" lon="10.6102883"><ele>98.0</ele><time>2026-04-25T08:42:51.724Z</time></trkpt><trkpt lat="45.3942233" lon="10.610445"><ele>98.0</ele><time>2026-04-25T08:42:52.719Z</time></trkpt><trkpt lat="45.3942183" lon="10.61062"><ele>98.5</ele><time>2026-04-25T08:42:53.725Z</time></trkpt><trkpt lat="45.3942233" lon="10.6107933"><ele>99.0</ele><time>2026-04-25T08:42:54.735Z</time></trkpt><trkpt lat="45.39425" lon="10.6109733"><ele>99.5</ele><time>2026-04-25T08:42:55.727Z</time></trkpt><trkpt lat="45.3942817" lon="10.6111267"><ele>100.0</ele><time>2026-04-25T08:42:56.723Z</time></trkpt><trkpt lat="45.39429" lon="10.6112517"><ele>100.6</ele><time>2026-04-25T08:42:57.73Z</time></trkpt><trkpt lat="45.39428" lon="10.611365"><ele>101.2</ele><time>2026-04-25T08:42:58.723Z</time></trkpt><trkpt lat="45.3942717" lon="10.61148"><ele>101.80000000000001</ele><time>2026-04-25T08:42:59.729Z</time></trkpt><trkpt lat="45.3942167" lon="10.6116033"><ele>102.4</ele><time>2026-04-25T08:43:00.726Z</time></trkpt><trkpt lat="45.3941583" lon="10.6117183"><ele>103.0</ele><time>2026-04-25T08:43:01.741Z</time></trkpt><trkpt lat="45.3940933" lon="10.6118317"><ele>103.0</ele><time>2026-04-25T08:43:02.732Z</time></trkpt><trkpt lat="45.3940383" lon="10.6119467"><ele>103.0</ele><time>2026-04-25T08:43:03.724Z</time></trkpt><trkpt lat="45.3939917" lon="10.6120767"><ele>103.0</ele><time>2026-04-25T08:43:04.733Z</time></trkpt><trkpt lat="45.393955" lon="10.6122133"><ele>103.0</ele><time>2026-04-25T08:43:05.724Z</time></trkpt><trkpt lat="45.3939333" lon="10.6123833"><ele>103.0</ele><time>2026-04-25T08:43:06.732Z</time></trkpt><trkpt lat="45.3939" lon="10.612595"><ele>103.4</ele><time>2026-04-25T08:43:07.727Z</time></trkpt><trkpt lat="45.39388" lon="10.6127833"><ele>103.80000000000001</ele><time>2026-04-25T08:43:08.726Z</time></trkpt><trkpt lat="45.3938667" lon="10.6129417"><ele>104.2</ele><time>2026-04-25T08:43:09.728Z</time></trkpt><trkpt lat="45.3938583" lon="10.6130633"><ele>104.6</ele><time>2026-04-25T08:43:10.729Z</time></trkpt><trkpt lat="45.3938633" lon="10.61318"><ele>105.0</ele><time>2026-04-25T08:43:11.75Z</time></trkpt><trkpt lat="45.3938517" lon="10.6133083"><ele>105.16666666666667</ele><time>2026-04-25T08:43:12.743Z</time></trkpt><trkpt lat="45.3938483" lon="10.6134183"><ele>105.33333333333334</ele><time>2026-04-25T08:43:13.749Z</time></trkpt><trkpt lat="45.39385" lon="10.6135183"><ele>105.5</ele><time>2026-04-25T08:43:14.734Z</time></trkpt><trkpt lat="45.3938583" lon="10.6136517"><ele>105.66666666666667</ele><time>2026-04-25T08:43:16.745Z</time></trkpt><trkpt lat="45.39383" lon="10.6137367"><ele>105.83333333333334</ele><time>2026-04-25T08:43:18.727Z</time></trkpt><trkpt lat="45.3937517" lon="10.61376"><ele>106.0</ele><time>2026-04-25T08:43:20.729Z</time></trkpt><trkpt lat="45.3936617" lon="10.6138183"><ele>104.83333333333334</ele><time>2026-04-25T08:43:22.733Z</time></trkpt><trkpt lat="45.3935883" lon="10.61395"><ele>103.66666666666667</ele><time>2026-04-25T08:43:24.724Z</time></trkpt><trkpt lat="45.3935633" lon="10.614055"><ele>102.5</ele><time>2026-04-25T08:43:25.731Z</time></trkpt><trkpt lat="45.3935533" lon="10.6141833"><ele>101.33333333333334</ele><time>2026-04-25T08:43:26.74Z</time></trkpt><trkpt lat="45.3935417" lon="10.614295"><ele>100.16666666666667</ele><time>2026-04-25T08:43:27.732Z</time></trkpt><trkpt lat="45.3935367" lon="10.6144"><ele>99.0</ele><time>2026-04-25T08:43:28.733Z</time></trkpt><trkpt lat="45.3935417" lon="10.614505"><ele>98.5</ele><time>2026-04-25T08:43:29.728Z</time></trkpt><trkpt lat="45.39355" lon="10.6146033"><ele>98.0</ele><time>2026-04-25T08:43:30.734Z</time></trkpt><trkpt lat="45.3935683" lon="10.6146933"><ele>97.5</ele><time>2026-04-25T08:43:31.722Z</time></trkpt><trkpt lat="45.393595" lon="10.6147767"><ele>97.0</ele><time>2026-04-25T08:43:32.726Z</time></trkpt><trkpt lat="45.3936483" lon="10.614915"><ele>96.5</ele><time>2026-04-25T08:43:34.734Z</time></trkpt><trkpt lat="45.3935783" lon="10.615"><ele>96.0</ele><time>2026-04-25T08:43:43.72Z</time></trkpt><trkpt lat="45.3934667" lon="10.6150633"><ele>96.0</ele><time>2026-04-25T08:43:44.728Z</time></trkpt><trkpt lat="45.3933617" lon="10.6151233"><ele>96.0</ele><time>2026-04-25T08:43:45.725Z</time></trkpt><trkpt lat="45.3932183" lon="10.6152333"><ele>96.0</ele><time>2026-04-25T08:43:46.723Z</time></trkpt><trkpt lat="45.393095" lon="10.6153117"><ele>96.0</ele><time>2026-04-25T08:43:47.727Z</time></trkpt><trkpt lat="45.3929783" lon="10.615395"><ele>95.19999999999999</ele><time>2026-04-25T08:43:48.73Z</time></trkpt><trkpt lat="45.39288" lon="10.6154617"><ele>94.39999999999999</ele><time>2026-04-25T08:43:49.723Z</time></trkpt><trkpt lat="45.3927967" lon="10.615515"><ele>93.6</ele><time>2026-04-25T08:43:50.727Z</time></trkpt><trkpt lat="45.3927167" lon="10.6155717"><ele>92.8</ele><time>2026-04-25T08:43:51.728Z</time></trkpt><trkpt lat="45.39262" lon="10.6156217"><ele>92.0</ele><time>2026-04-25T08:43:52.725Z</time></trkpt><trkpt lat="45.392505" lon="10.6156917"><ele>92.0</ele><time>2026-04-25T08:43:53.724Z</time></trkpt><trkpt lat="45.392405" lon="10.615755"><ele>92.0</ele><time>2026-04-25T08:43:54.723Z</time></trkpt><trkpt lat="45.3923183" lon="10.6158133"><ele>92.0</ele><time>2026-04-25T08:43:55.723Z</time></trkpt><trkpt lat="45.3922467" lon="10.6158583"><ele>92.0</ele><time>2026-04-25T08:43:56.717Z</time></trkpt><trkpt lat="45.392185" lon="10.6158933"><ele>92.0</ele><time>2026-04-25T08:43:57.733Z</time></trkpt><trkpt lat="45.3920633" lon="10.6159733"><ele>92.16666666666667</ele><time>2026-04-25T08:43:59.731Z</time></trkpt><trkpt lat="45.39199" lon="10.6160183"><ele>92.33333333333334</ele><time>2026-04-25T08:44:00.717Z</time></trkpt><trkpt lat="45.3919167" lon="10.6160617"><ele>92.5</ele><time>2026-04-25T08:44:01.739Z</time></trkpt><trkpt lat="45.3918417" lon="10.6161067"><ele>92.66666666666667</ele><time>2026-04-25T08:44:02.722Z</time></trkpt><trkpt lat="45.3917633" lon="10.616155"><ele>92.83333333333333</ele><time>2026-04-25T08:44:03.73Z</time></trkpt><trkpt lat="45.3916867" lon="10.6162033"><ele>93.0</ele><time>2026-04-25T08:44:04.733Z</time></trkpt><trkpt lat="45.3916133" lon="10.6162483"><ele>93.0</ele><time>2026-04-25T08:44:05.732Z</time></trkpt><trkpt lat="45.3915517" lon="10.6162817"><ele>93.0</ele><time>2026-04-25T08:44:06.749Z</time></trkpt><trkpt lat="45.39146" lon="10.6163183"><ele>93.0</ele><time>2026-04-25T08:44:08.73Z</time></trkpt><trkpt lat="45.3915683" lon="10.6162683"><ele>93.0</ele><time>2026-04-25T08:44:16.725Z</time></trkpt><trkpt lat="45.391645" lon="10.6162233"><ele>93.0</ele><time>2026-04-25T08:44:17.731Z</time></trkpt><trkpt lat="45.3917417" lon="10.6161767"><ele>93.0</ele><time>2026-04-25T08:44:18.731Z</time></trkpt><trkpt lat="45.3918733" lon="10.6161133"><ele>93.0</ele><time>2026-04-25T08:44:19.723Z</time></trkpt><trkpt lat="45.3920017" lon="10.616025"><ele>93.0</ele><time>2026-04-25T08:44:20.726Z</time></trkpt><trkpt lat="45.3921267" lon="10.61594"><ele>93.0</ele><time>2026-04-25T08:44:21.726Z</time></trkpt><trkpt lat="45.3922533" lon="10.6158517"><ele>92.83333333333333</ele><time>2026-04-25T08:44:22.738Z</time></trkpt><trkpt lat="45.3923517" lon="10.6157917"><ele>92.66666666666667</ele><time>2026-04-25T08:44:23.736Z</time></trkpt><trkpt lat="45.3924433" lon="10.6157333"><ele>92.5</ele><time>2026-04-25T08:44:24.725Z</time></trkpt><trkpt lat="45.3925183" lon="10.6156867"><ele>92.33333333333334</ele><time>2026-04-25T08:44:25.73Z</time></trkpt><trkpt lat="45.392585" lon="10.615645"><ele>92.16666666666667</ele><time>2026-04-25T08:44:26.726Z</time></trkpt><trkpt lat="45.392645" lon="10.615615"><ele>92.0</ele><time>2026-04-25T08:44:27.727Z</time></trkpt><trkpt lat="45.3927383" lon="10.6156083"><ele>92.0</ele><time>2026-04-25T08:44:29.726Z</time></trkpt><trkpt lat="45.3928017" lon="10.61573"><ele>92.0</ele><time>2026-04-25T08:44:31.726Z</time></trkpt><trkpt lat="45.39283" lon="10.615845"><ele>92.0</ele><time>2026-04-25T08:44:32.72Z</time></trkpt><trkpt lat="45.3928567" lon="10.616"><ele>92.0</ele><time>2026-04-25T08:44:33.724Z</time></trkpt><trkpt lat="45.392885" lon="10.616195"><ele>92.0</ele><time>2026-04-25T08:44:34.724Z</time></trkpt><trkpt lat="45.3929183" lon="10.6163867"><ele>92.0</ele><time>2026-04-25T08:44:35.725Z</time></trkpt><trkpt lat="45.3929617" lon="10.616585"><ele>92.0</ele><time>2026-04-25T08:44:36.735Z</time></trkpt><trkpt lat="45.3930083" lon="10.6168017"><ele>92.0</ele><time>2026-04-25T08:44:37.731Z</time></trkpt><trkpt lat="45.3930633" lon="10.617025"><ele>92.0</ele><time>2026-04-25T08:44:38.728Z</time></trkpt><trkpt lat="45.3931" lon="10.6172467"><ele>92.0</ele><time>2026-04-25T08:44:39.733Z</time></trkpt><trkpt lat="45.3931433" lon="10.6174467"><ele>92.0</ele><time>2026-04-25T08:44:40.726Z</time></trkpt><trkpt lat="45.3931883" lon="10.6176667"><ele>92.0</ele><time>2026-04-25T08:44:41.723Z</time></trkpt><trkpt lat="45.3932267" lon="10.6178633"><ele>92.0</ele><time>2026-04-25T08:44:42.735Z</time></trkpt><trkpt lat="45.3932617" lon="10.61804"><ele>92.0</ele><time>2026-04-25T08:44:43.733Z</time></trkpt><trkpt lat="45.3932917" lon="10.6182067"><ele>92.0</ele><time>2026-04-25T08:44:44.728Z</time></trkpt><trkpt lat="45.3933133" lon="10.6183867"><ele>92.0</ele><time>2026-04-25T08:44:45.729Z</time></trkpt><trkpt lat="45.3933383" lon="10.61855"><ele>92.0</ele><time>2026-04-25T08:44:46.756Z</time></trkpt><trkpt lat="45.3933583" lon="10.6186983"><ele>92.0</ele><time>2026-04-25T08:44:47.729Z</time></trkpt><trkpt lat="45.3933733" lon="10.6188133"><ele>92.0</ele><time>2026-04-25T08:44:48.727Z</time></trkpt><trkpt lat="45.3934117" lon="10.61896"><ele>92.0</ele><time>2026-04-25T08:44:50.735Z</time></trkpt><trkpt lat="45.3933483" lon="10.6190233"><ele>91.8</ele><time>2026-04-25T08:44:52.725Z</time></trkpt><trkpt lat="45.3932067" lon="10.61901"><ele>91.6</ele><time>2026-04-25T08:44:54.722Z</time></trkpt><trkpt lat="45.39312" lon="10.6189917"><ele>91.39999999999999</ele><time>2026-04-25T08:44:55.725Z</time></trkpt><trkpt lat="45.3930233" lon="10.618975"><ele>91.19999999999999</ele><time>2026-04-25T08:44:56.725Z</time></trkpt><trkpt lat="45.3929083" lon="10.618945"><ele>91.0</ele><time>2026-04-25T08:44:57.722Z</time></trkpt><trkpt lat="45.3927917" lon="10.6189067"><ele>91.0</ele><time>2026-04-25T08:44:58.719Z</time></trkpt><trkpt lat="45.3926533" lon="10.6189017"><ele>91.0</ele><time>2026-04-25T08:44:59.722Z</time></trkpt><trkpt lat="45.39251" lon="10.6188883"><ele>91.0</ele><time>2026-04-25T08:45:00.721Z</time></trkpt><trkpt lat="45.392365" lon="10.6188683"><ele>91.0</ele><time>2026-04-25T08:45:01.728Z</time></trkpt><trkpt lat="45.3922117" lon="10.6188617"><ele>91.0</ele><time>2026-04-25T08:45:02.723Z</time></trkpt><trkpt lat="45.3920833" lon="10.61885"><ele>91.0</ele><time>2026-04-25T08:45:03.726Z</time></trkpt><trkpt lat="45.391965" lon="10.6188367"><ele>91.0</ele><time>2026-04-25T08:45:04.72Z</time></trkpt><trkpt lat="45.3918733" lon="10.6187967"><ele>91.0</ele><time>2026-04-25T08:45:05.726Z</time></trkpt><trkpt lat="45.39176" lon="10.618745"><ele>91.0</ele><time>2026-04-25T08:45:06.719Z</time></trkpt><trkpt lat="45.3916467" lon="10.6186883"><ele>91.0</ele><time>2026-04-25T08:45:07.72Z</time></trkpt><trkpt lat="45.39153" lon="10.618585"><ele>91.0</ele><time>2026-04-25T08:45:08.74Z</time></trkpt><trkpt lat="45.39142" lon="10.618485"><ele>91.0</ele><time>2026-04-25T08:45:09.735Z</time></trkpt><trkpt lat="45.3913183" lon="10.6183667"><ele>90.75</ele><time>2026-04-25T08:45:10.726Z</time></trkpt><trkpt lat="45.39121" lon="10.6182583"><ele>90.5</ele><time>2026-04-25T08:45:11.729Z</time></trkpt><trkpt lat="45.39113" lon="10.618145"><ele>90.25</ele><time>2026-04-25T08:45:12.732Z</time></trkpt><trkpt lat="45.3910517" lon="10.6180633"><ele>90.0</ele><time>2026-04-25T08:45:13.728Z</time></trkpt><trkpt lat="45.3909667" lon="10.61797"><ele>90.0</ele><time>2026-04-25T08:45:14.735Z</time></trkpt><trkpt lat="45.390885" lon="10.6178767"><ele>90.0</ele><time>2026-04-25T08:45:15.745Z</time></trkpt><trkpt lat="45.390825" lon="10.6178183"><ele>90.0</ele><time>2026-04-25T08:45:16.731Z</time></trkpt><trkpt lat="45.3907717" lon="10.6177617"><ele>90.0</ele><time>2026-04-25T08:45:17.743Z</time></trkpt><trkpt lat="45.3906983" lon="10.6176967"><ele>90.0</ele><time>2026-04-25T08:45:18.728Z</time></trkpt><trkpt lat="45.3906117" lon="10.61765"><ele>90.0</ele><time>2026-04-25T08:45:19.726Z</time></trkpt><trkpt lat="45.3905267" lon="10.6176233"><ele>90.5</ele><time>2026-04-25T08:45:20.72Z</time></trkpt><trkpt lat="45.390445" lon="10.6176017"><ele>91.0</ele><time>2026-04-25T08:45:21.733Z</time></trkpt><trkpt lat="45.390365" lon="10.61758"><ele>91.5</ele><time>2026-04-25T08:45:22.735Z</time></trkpt><trkpt lat="45.39028" lon="10.61757"><ele>92.0</ele><time>2026-04-25T08:45:23.726Z</time></trkpt><trkpt lat="45.3901983" lon="10.6175583"><ele>92.5</ele><time>2026-04-25T08:45:24.737Z</time></trkpt><trkpt lat="45.390125" lon="10.6175483"><ele>93.0</ele><time>2026-04-25T08:45:25.744Z</time></trkpt><trkpt lat="45.3900567" lon="10.617535"><ele>93.0</ele><time>2026-04-25T08:45:26.73Z</time></trkpt><trkpt lat="45.3899867" lon="10.6175267"><ele>93.0</ele><time>2026-04-25T08:45:27.742Z</time></trkpt><trkpt lat="45.3898617" lon="10.6174883"><ele>93.0</ele><time>2026-04-25T08:45:29.729Z</time></trkpt><trkpt lat="45.389795" lon="10.61746"><ele>93.0</ele><time>2026-04-25T08:45:30.734Z</time></trkpt><trkpt lat="45.3896933" lon="10.6174017"><ele>93.0</ele><time>2026-04-25T08:45:32.722Z</time></trkpt><trkpt lat="45.3896233" lon="10.617455"><ele>92.60000000000001</ele><time>2026-04-25T08:45:37.724Z</time></trkpt><trkpt lat="45.3895833" lon="10.61759"><ele>92.2</ele><time>2026-04-25T08:45:39.719Z</time></trkpt><trkpt lat="45.3895417" lon="10.6176683"><ele>91.8</ele><time>2026-04-25T08:45:40.726Z</time></trkpt><trkpt lat="45.3895017" lon="10.61776"><ele>91.4</ele><time>2026-04-25T08:45:41.723Z</time></trkpt><trkpt lat="45.38945" lon="10.6178767"><ele>91.0</ele><time>2026-04-25T08:45:42.72Z</time></trkpt><trkpt lat="45.3893933" lon="10.61801"><ele>90.5</ele><time>2026-04-25T08:45:43.719Z</time></trkpt><trkpt lat="45.3893317" lon="10.61819"><ele>90.0</ele><time>2026-04-25T08:45:44.724Z</time></trkpt><trkpt lat="45.3892733" lon="10.618385"><ele>89.5</ele><time>2026-04-25T08:45:45.721Z</time></trkpt><trkpt lat="45.38922" lon="10.6185767"><ele>89.0</ele><time>2026-04-25T08:45:46.724Z</time></trkpt><trkpt lat="45.38916" lon="10.6187617"><ele>88.80000000000001</ele><time>2026-04-25T08:45:47.73Z</time></trkpt><trkpt lat="45.3891133" lon="10.6189067"><ele>88.60000000000001</ele><time>2026-04-25T08:45:48.724Z</time></trkpt><trkpt lat="45.3890667" lon="10.6190583"><ele>88.4</ele><time>2026-04-25T08:45:49.725Z</time></trkpt><trkpt lat="45.3890217" lon="10.6191783"><ele>88.2</ele><time>2026-04-25T08:45:50.724Z</time></trkpt><trkpt lat="45.3889767" lon="10.6192783"><ele>88.0</ele><time>2026-04-25T08:45:51.726Z</time></trkpt><trkpt lat="45.3889217" lon="10.6193767"><ele>88.0</ele><time>2026-04-25T08:45:52.726Z</time></trkpt><trkpt lat="45.3888683" lon="10.6194433"><ele>88.0</ele><time>2026-04-25T08:45:53.746Z</time></trkpt><trkpt lat="45.3887933" lon="10.619525"><ele>88.0</ele><time>2026-04-25T08:45:55.721Z</time></trkpt><trkpt lat="45.3888" lon="10.619635"><ele>88.0</ele><time>2026-04-25T08:45:57.735Z</time></trkpt><trkpt lat="45.38893" lon="10.61974"><ele>88.0</ele><time>2026-04-25T08:45:59.738Z</time></trkpt><trkpt lat="45.3890133" lon="10.6197983"><ele>88.4</ele><time>2026-04-25T08:46:00.726Z</time></trkpt><trkpt lat="45.3890783" lon="10.6198467"><ele>88.80000000000001</ele><time>2026-04-25T08:46:01.74Z</time></trkpt><trkpt lat="45.38915" lon="10.6199517"><ele>89.2</ele><time>2026-04-25T08:46:03.736Z</time></trkpt><trkpt lat="45.3891167" lon="10.6201317"><ele>89.6</ele><time>2026-04-25T08:46:05.732Z</time></trkpt><trkpt lat="45.3890533" lon="10.620225"><ele>90.0</ele><time>2026-04-25T08:46:06.734Z</time></trkpt><trkpt lat="45.388975" lon="10.620305"><ele>90.0</ele><time>2026-04-25T08:46:07.745Z</time></trkpt><trkpt lat="45.3888767" lon="10.620375"><ele>90.0</ele><time>2026-04-25T08:46:08.73Z</time></trkpt><trkpt lat="45.388805" lon="10.620435"><ele>90.0</ele><time>2026-04-25T08:46:09.732Z</time></trkpt><trkpt lat="45.38872" lon="10.6205417"><ele>90.0</ele><time>2026-04-25T08:46:10.727Z</time></trkpt><trkpt lat="45.388645" lon="10.6206517"><ele>90.0</ele><time>2026-04-25T08:46:11.735Z</time></trkpt><trkpt lat="45.3885833" lon="10.6207567"><ele>89.66666666666667</ele><time>2026-04-25T08:46:12.747Z</time></trkpt><trkpt lat="45.3885283" lon="10.6208367"><ele>89.33333333333333</ele><time>2026-04-25T08:46:13.727Z</time></trkpt><trkpt lat="45.3884567" lon="10.6209483"><ele>89.0</ele><time>2026-04-25T08:46:15.73Z</time></trkpt><trkpt lat="45.38845" lon="10.6210417"><ele>88.66666666666666</ele><time>2026-04-25T08:46:17.728Z</time></trkpt><trkpt lat="45.388545" lon="10.6210817"><ele>88.33333333333333</ele><time>2026-04-25T08:46:19.722Z</time></trkpt><trkpt lat="45.3886233" lon="10.6210817"><ele>88.0</ele><time>2026-04-25T08:46:20.725Z</time></trkpt><trkpt lat="45.3887217" lon="10.6210767"><ele>88.0</ele><time>2026-04-25T08:46:21.72Z</time></trkpt><trkpt lat="45.3888317" lon="10.6210733"><ele>88.0</ele><time>2026-04-25T08:46:22.726Z</time></trkpt><trkpt lat="45.3889583" lon="10.6210817"><ele>88.0</ele><time>2026-04-25T08:46:23.723Z</time></trkpt><trkpt lat="45.3890933" lon="10.6210783"><ele>88.0</ele><time>2026-04-25T08:46:24.735Z</time></trkpt><trkpt lat="45.3892467" lon="10.6210617"><ele>88.5</ele><time>2026-04-25T08:46:25.735Z</time></trkpt><trkpt lat="45.3893867" lon="10.6210583"><ele>89.0</ele><time>2026-04-25T08:46:26.737Z</time></trkpt><trkpt lat="45.389545" lon="10.621065"><ele>89.5</ele><time>2026-04-25T08:46:27.723Z</time></trkpt><trkpt lat="45.389695" lon="10.6210717"><ele>90.0</ele><time>2026-04-25T08:46:28.73Z</time></trkpt><trkpt lat="45.3898383" lon="10.621055"><ele>90.4</ele><time>2026-04-25T08:46:29.736Z</time></trkpt><trkpt lat="45.389945" lon="10.621065"><ele>90.8</ele><time>2026-04-25T08:46:30.728Z</time></trkpt><trkpt lat="45.3900667" lon="10.6210567"><ele>91.19999999999999</ele><time>2026-04-25T08:46:31.732Z</time></trkpt><trkpt lat="45.3901883" lon="10.6210433"><ele>91.6</ele><time>2026-04-25T08:46:32.736Z</time></trkpt><trkpt lat="45.3902817" lon="10.6210083"><ele>92.0</ele><time>2026-04-25T08:46:33.726Z</time></trkpt><trkpt lat="45.3903683" lon="10.6209917"><ele>92.0</ele><time>2026-04-25T08:46:34.723Z</time></trkpt><trkpt lat="45.3904383" lon="10.6209817"><ele>92.0</ele><time>2026-04-25T08:46:35.729Z</time></trkpt><trkpt lat="45.390505" lon="10.621005"><ele>92.0</ele><time>2026-04-25T08:46:36.732Z</time></trkpt><trkpt lat="45.3905783" lon="10.62104"><ele>92.0</ele><time>2026-04-25T08:46:37.726Z</time></trkpt><trkpt lat="45.390655" lon="10.6211"><ele>92.0</ele><time>2026-04-25T08:46:38.725Z</time></trkpt><trkpt lat="45.39074" lon="10.621175"><ele>92.0</ele><time>2026-04-25T08:46:39.726Z</time></trkpt><trkpt lat="45.3908383" lon="10.621275"><ele>92.33333333333334</ele><time>2026-04-25T08:46:40.721Z</time></trkpt><trkpt lat="45.390925" lon="10.6213467"><ele>92.66666666666667</ele><time>2026-04-25T08:46:41.731Z</time></trkpt><trkpt lat="45.39099" lon="10.62141"><ele>93.0</ele><time>2026-04-25T08:46:42.722Z</time></trkpt><trkpt lat="45.3910583" lon="10.6214983"><ele>93.33333333333333</ele><time>2026-04-25T08:46:44.747Z</time></trkpt><trkpt lat="45.3910183" lon="10.621615"><ele>93.66666666666666</ele><time>2026-04-25T08:46:46.716Z</time></trkpt><trkpt lat="45.3909733" lon="10.6217033"><ele>94.0</ele><time>2026-04-25T08:46:47.719Z</time></trkpt><trkpt lat="45.3909267" lon="10.62182"><ele>94.0</ele><time>2026-04-25T08:46:48.728Z</time></trkpt><trkpt lat="45.3908833" lon="10.6219467"><ele>94.0</ele><time>2026-04-25T08:46:49.719Z</time></trkpt><trkpt lat="45.39083" lon="10.6221"><ele>94.0</ele><time>2026-04-25T08:46:50.725Z</time></trkpt><trkpt lat="45.3907867" lon="10.6222267"><ele>94.0</ele><time>2026-04-25T08:46:51.724Z</time></trkpt><trkpt lat="45.39074" lon="10.622345"><ele>94.0</ele><time>2026-04-25T08:46:52.726Z</time></trkpt><trkpt lat="45.3907033" lon="10.622445"><ele>93.5</ele><time>2026-04-25T08:46:53.722Z</time></trkpt><trkpt lat="45.3906617" lon="10.6225917"><ele>93.0</ele><time>2026-04-25T08:46:54.724Z</time></trkpt><trkpt lat="45.3906217" lon="10.6227583"><ele>92.5</ele><time>2026-04-25T08:46:55.718Z</time></trkpt><trkpt lat="45.390575" lon="10.6229067"><ele>92.0</ele><time>2026-04-25T08:46:56.719Z</time></trkpt><trkpt lat="45.3905433" lon="10.6230433"><ele>92.0</ele><time>2026-04-25T08:46:57.722Z</time></trkpt><trkpt lat="45.3905083" lon="10.6231967"><ele>92.0</ele><time>2026-04-25T08:46:58.721Z</time></trkpt><trkpt lat="45.3904683" lon="10.623305"><ele>92.0</ele><time>2026-04-25T08:46:59.72Z</time></trkpt><trkpt lat="45.3904267" lon="10.623405"><ele>92.0</ele><time>2026-04-25T08:47:00.726Z</time></trkpt><trkpt lat="45.3903817" lon="10.62353"><ele>92.0</ele><time>2026-04-25T08:47:01.725Z</time></trkpt><trkpt lat="45.3903483" lon="10.623665"><ele>91.8</ele><time>2026-04-25T08:47:02.726Z</time></trkpt><trkpt lat="45.3902867" lon="10.623815"><ele>91.6</ele><time>2026-04-25T08:47:03.719Z</time></trkpt><trkpt lat="45.3902167" lon="10.6239583"><ele>91.39999999999999</ele><time>2026-04-25T08:47:04.72Z</time></trkpt><trkpt lat="45.390165" lon="10.624075"><ele>91.19999999999999</ele><time>2026-04-25T08:47:05.731Z</time></trkpt><trkpt lat="45.3901467" lon="10.624185"><ele>91.0</ele><time>2026-04-25T08:47:06.721Z</time></trkpt><trkpt lat="45.3901183" lon="10.62428"><ele>91.0</ele><time>2026-04-25T08:47:07.72Z</time></trkpt><trkpt lat="45.3900967" lon="10.624375"><ele>91.0</ele><time>2026-04-25T08:47:08.733Z</time></trkpt><trkpt lat="45.3900817" lon="10.6244683"><ele>91.0</ele><time>2026-04-25T08:47:09.72Z</time></trkpt><trkpt lat="45.3900683" lon="10.6245633"><ele>91.0</ele><time>2026-04-25T08:47:10.719Z</time></trkpt><trkpt lat="45.390065" lon="10.6246733"><ele>91.0</ele><time>2026-04-25T08:47:11.723Z</time></trkpt><trkpt lat="45.3900617" lon="10.624795"><ele>91.0</ele><time>2026-04-25T08:47:12.722Z</time></trkpt><trkpt lat="45.3900567" lon="10.6249133"><ele>91.16666666666666</ele><time>2026-04-25T08:47:13.719Z</time></trkpt><trkpt lat="45.39005" lon="10.6250233"><ele>91.33333333333333</ele><time>2026-04-25T08:47:14.718Z</time></trkpt><trkpt lat="45.39004" lon="10.6251333"><ele>91.5</ele><time>2026-04-25T08:47:15.72Z</time></trkpt><trkpt lat="45.3900283" lon="10.62525"><ele>91.66666666666667</ele><time>2026-04-25T08:47:16.723Z</time></trkpt><trkpt lat="45.3900167" lon="10.6253717"><ele>91.83333333333334</ele><time>2026-04-25T08:47:17.722Z</time></trkpt><trkpt lat="45.3900017" lon="10.625485"><ele>92.0</ele><time>2026-04-25T08:47:18.72Z</time></trkpt><trkpt lat="45.3899917" lon="10.6255817"><ele>92.0</ele><time>2026-04-25T08:47:19.72Z</time></trkpt><trkpt lat="45.3899767" lon="10.625745"><ele>92.0</ele><time>2026-04-25T08:47:21.718Z</time></trkpt><trkpt lat="45.3899633" lon="10.6258867"><ele>92.0</ele><time>2026-04-25T08:47:23.723Z</time></trkpt><trkpt lat="45.389995" lon="10.626"><ele>92.0</ele><time>2026-04-25T08:47:25.724Z</time></trkpt><trkpt lat="45.390085" lon="10.626115"><ele>92.0</ele><time>2026-04-25T08:47:27.742Z</time></trkpt><trkpt lat="45.390135" lon="10.62617"><ele>92.0</ele><time>2026-04-25T08:47:28.752Z</time></trkpt><trkpt lat="45.3901883" lon="10.6262983"><ele>92.0</ele><time>2026-04-25T08:47:30.728Z</time></trkpt><trkpt lat="45.3902017" lon="10.6263967"><ele>92.0</ele><time>2026-04-25T08:47:31.72Z</time></trkpt><trkpt lat="45.3902017" lon="10.6265133"><ele>92.0</ele><time>2026-04-25T08:47:32.726Z</time></trkpt><trkpt lat="45.39019" lon="10.626655"><ele>92.0</ele><time>2026-04-25T08:47:33.737Z</time></trkpt><trkpt lat="45.390185" lon="10.626825"><ele>92.19999999999999</ele><time>2026-04-25T08:47:34.721Z</time></trkpt><trkpt lat="45.39017" lon="10.626985"><ele>92.4</ele><time>2026-04-25T08:47:35.728Z</time></trkpt><trkpt lat="45.3901633" lon="10.627135"><ele>92.6</ele><time>2026-04-25T08:47:36.726Z</time></trkpt><trkpt lat="45.390145" lon="10.6272817"><ele>92.80000000000001</ele><time>2026-04-25T08:47:37.722Z</time></trkpt><trkpt lat="45.3901417" lon="10.62741"><ele>93.0</ele><time>2026-04-25T08:47:38.734Z</time></trkpt><trkpt lat="45.3901233" lon="10.62755"><ele>93.0</ele><time>2026-04-25T08:47:39.742Z</time></trkpt><trkpt lat="45.3901117" lon="10.6276733"><ele>93.0</ele><time>2026-04-25T08:47:40.719Z</time></trkpt><trkpt lat="45.3901117" lon="10.62781"><ele>93.0</ele><time>2026-04-25T08:47:41.73Z</time></trkpt><trkpt lat="45.390125" lon="10.627955"><ele>93.0</ele><time>2026-04-25T08:47:42.74Z</time></trkpt><trkpt lat="45.390125" lon="10.6280667"><ele>93.0</ele><time>2026-04-25T08:47:43.728Z</time></trkpt><trkpt lat="45.3901283" lon="10.6282183"><ele>93.0</ele><time>2026-04-25T08:47:44.73Z</time></trkpt><trkpt lat="45.3901267" lon="10.6283517"><ele>93.0</ele><time>2026-04-25T08:47:45.734Z</time></trkpt><trkpt lat="45.390145" lon="10.6284883"><ele>93.0</ele><time>2026-04-25T08:47:46.733Z</time></trkpt><trkpt lat="45.390155" lon="10.62859"><ele>93.0</ele><time>2026-04-25T08:47:47.722Z</time></trkpt><trkpt lat="45.39017" lon="10.6286833"><ele>93.0</ele><time>2026-04-25T08:47:48.73Z</time></trkpt><trkpt lat="45.390175" lon="10.6288317"><ele>93.0</ele><time>2026-04-25T08:47:50.728Z</time></trkpt><trkpt lat="45.390105" lon="10.6289233"><ele>93.0</ele><time>2026-04-25T08:47:53.725Z</time></trkpt><trkpt lat="45.3899933" lon="10.6289267"><ele>93.0</ele><time>2026-04-25T08:47:55.725Z</time></trkpt><trkpt lat="45.3899033" lon="10.6289867"><ele>93.0</ele><time>2026-04-25T08:47:57.721Z</time></trkpt><trkpt lat="45.3898867" lon="10.629085"><ele>93.0</ele><time>2026-04-25T08:47:58.725Z</time></trkpt><trkpt lat="45.3898817" lon="10.62921"><ele>93.0</ele><time>2026-04-25T08:47:59.72Z</time></trkpt><trkpt lat="45.3898883" lon="10.6293583"><ele>93.25</ele><time>2026-04-25T08:48:00.722Z</time></trkpt><trkpt lat="45.3898983" lon="10.629535"><ele>93.5</ele><time>2026-04-25T08:48:01.723Z</time></trkpt><trkpt lat="45.3899033" lon="10.6296967"><ele>93.75</ele><time>2026-04-25T08:48:02.724Z</time></trkpt><trkpt lat="45.3898883" lon="10.6298633"><ele>94.0</ele><time>2026-04-25T08:48:03.726Z</time></trkpt><trkpt lat="45.3898817" lon="10.6300267"><ele>94.0</ele><time>2026-04-25T08:48:04.72Z</time></trkpt><trkpt lat="45.3898933" lon="10.630145"><ele>94.0</ele><time>2026-04-25T08:48:05.719Z</time></trkpt><trkpt lat="45.3898967" lon="10.630295"><ele>94.0</ele><time>2026-04-25T08:48:06.725Z</time></trkpt><trkpt lat="45.3898883" lon="10.63042"><ele>94.0</ele><time>2026-04-25T08:48:07.72Z</time></trkpt><trkpt lat="45.3898967" lon="10.6305183"><ele>94.0</ele><time>2026-04-25T08:48:08.722Z</time></trkpt><trkpt lat="45.389945" lon="10.6306417"><ele>94.0</ele><time>2026-04-25T08:48:10.721Z</time></trkpt><trkpt lat="45.3900183" lon="10.6306533"><ele>94.0</ele><time>2026-04-25T08:48:11.722Z</time></trkpt><trkpt lat="45.39009" lon="10.6306617"><ele>94.0</ele><time>2026-04-25T08:48:12.719Z</time></trkpt><trkpt lat="45.3901533" lon="10.6306783"><ele>94.0</ele><time>2026-04-25T08:48:13.726Z</time></trkpt><trkpt lat="45.3902383" lon="10.6308033"><ele>94.0</ele><time>2026-04-25T08:48:15.725Z</time></trkpt><trkpt lat="45.3902633" lon="10.6309167"><ele>94.0</ele><time>2026-04-25T08:48:16.721Z</time></trkpt><trkpt lat="45.3902817" lon="10.6310517"><ele>94.0</ele><time>2026-04-25T08:48:17.731Z</time></trkpt><trkpt lat="45.3903" lon="10.631205"><ele>93.75</ele><time>2026-04-25T08:48:18.721Z</time></trkpt><trkpt lat="45.3903167" lon="10.6313767"><ele>93.5</ele><time>2026-04-25T08:48:19.72Z</time></trkpt><trkpt lat="45.390345" lon="10.6315617"><ele>93.25</ele><time>2026-04-25T08:48:20.723Z</time></trkpt><trkpt lat="45.3903617" lon="10.6317083"><ele>93.0</ele><time>2026-04-25T08:48:21.726Z</time></trkpt><trkpt lat="45.3903783" lon="10.6318417"><ele>93.0</ele><time>2026-04-25T08:48:22.718Z</time></trkpt><trkpt lat="45.3903883" lon="10.63197"><ele>93.0</ele><time>2026-04-25T08:48:23.72Z</time></trkpt><trkpt lat="45.3903967" lon="10.63212"><ele>93.0</ele><time>2026-04-25T08:48:24.726Z</time></trkpt><trkpt lat="45.3903933" lon="10.6322333"><ele>93.0</ele><time>2026-04-25T08:48:25.719Z</time></trkpt><trkpt lat="45.3903817" lon="10.6323267"><ele>93.0</ele><time>2026-04-25T08:48:26.724Z</time></trkpt><trkpt lat="45.3903967" lon="10.6324933"><ele>93.0</ele><time>2026-04-25T08:48:28.721Z</time></trkpt><trkpt lat="45.390435" lon="10.6326017"><ele>93.0</ele><time>2026-04-25T08:48:29.722Z</time></trkpt><trkpt lat="45.3904933" lon="10.6327183"><ele>93.0</ele><time>2026-04-25T08:48:30.725Z</time></trkpt><trkpt lat="45.3905667" lon="10.6328267"><ele>93.0</ele><time>2026-04-25T08:48:31.718Z</time></trkpt><trkpt lat="45.39064" lon="10.6329683"><ele>93.0</ele><time>2026-04-25T08:48:32.718Z</time></trkpt><trkpt lat="45.3907183" lon="10.6331283"><ele>93.0</ele><time>2026-04-25T08:48:33.726Z</time></trkpt><trkpt lat="45.3907833" lon="10.6332817"><ele>93.0</ele><time>2026-04-25T08:48:34.722Z</time></trkpt><trkpt lat="45.3908533" lon="10.6334367"><ele>93.0</ele><time>2026-04-25T08:48:35.723Z</time></trkpt><trkpt lat="45.39093" lon="10.6336133"><ele>93.0</ele><time>2026-04-25T08:48:36.723Z</time></trkpt><trkpt lat="45.3910067" lon="10.633795"><ele>93.0</ele><time>2026-04-25T08:48:37.727Z</time></trkpt><trkpt lat="45.3910917" lon="10.6339867"><ele>93.0</ele><time>2026-04-25T08:48:38.719Z</time></trkpt><trkpt lat="45.3911883" lon="10.6341917"><ele>93.0</ele><time>2026-04-25T08:48:39.723Z</time></trkpt><trkpt lat="45.3912867" lon="10.6344383"><ele>92.66666666666667</ele><time>2026-04-25T08:48:40.724Z</time></trkpt><trkpt lat="45.39139" lon="10.6346817"><ele>92.33333333333334</ele><time>2026-04-25T08:48:41.718Z</time></trkpt><trkpt lat="45.3915" lon="10.634915"><ele>92.0</ele><time>2026-04-25T08:48:42.72Z</time></trkpt><trkpt lat="45.3916017" lon="10.6351067"><ele>92.0</ele><time>2026-04-25T08:48:43.726Z</time></trkpt><trkpt lat="45.39171" lon="10.6352767"><ele>92.0</ele><time>2026-04-25T08:48:44.714Z</time></trkpt><trkpt lat="45.39179" lon="10.6354667"><ele>92.0</ele><time>2026-04-25T08:48:45.718Z</time></trkpt><trkpt lat="45.391875" lon="10.63565"><ele>92.0</ele><time>2026-04-25T08:48:46.721Z</time></trkpt><trkpt lat="45.391975" lon="10.6358417"><ele>92.0</ele><time>2026-04-25T08:48:47.721Z</time></trkpt><trkpt lat="45.39209" lon="10.63604"><ele>92.0</ele><time>2026-04-25T08:48:48.721Z</time></trkpt><trkpt lat="45.39223" lon="10.6362633"><ele>92.0</ele><time>2026-04-25T08:48:49.739Z</time></trkpt><trkpt lat="45.3923567" lon="10.6364783"><ele>92.0</ele><time>2026-04-25T08:48:50.721Z</time></trkpt><trkpt lat="45.3924867" lon="10.6366683"><ele>92.0</ele><time>2026-04-25T08:48:51.72Z</time></trkpt><trkpt lat="45.3926033" lon="10.6368433"><ele>90.66666666666667</ele><time>2026-04-25T08:48:52.723Z</time></trkpt><trkpt lat="45.3927333" lon="10.6370033"><ele>89.33333333333333</ele><time>2026-04-25T08:48:53.724Z</time></trkpt><trkpt lat="45.3928433" lon="10.637135"><ele>88.0</ele><time>2026-04-25T08:48:54.731Z</time></trkpt><trkpt lat="45.392945" lon="10.6372667"><ele>88.66666666666666</ele><time>2026-04-25T08:48:55.723Z</time></trkpt><trkpt lat="45.393085" lon="10.6373867"><ele>89.33333333333333</ele><time>2026-04-25T08:48:56.727Z</time></trkpt><trkpt lat="45.393235" lon="10.6375083"><ele>90.0</ele><time>2026-04-25T08:48:57.719Z</time></trkpt><trkpt lat="45.393385" lon="10.6376467"><ele>90.0</ele><time>2026-04-25T08:48:58.727Z</time></trkpt><trkpt lat="45.3935517" lon="10.63778"><ele>90.0</ele><time>2026-04-25T08:48:59.73Z</time></trkpt><trkpt lat="45.3937133" lon="10.6379"><ele>90.0</ele><time>2026-04-25T08:49:00.724Z</time></trkpt><trkpt lat="45.393875" lon="10.6380117"><ele>90.66666666666667</ele><time>2026-04-25T08:49:01.718Z</time></trkpt><trkpt lat="45.3940217" lon="10.6381317"><ele>91.33333333333334</ele><time>2026-04-25T08:49:02.724Z</time></trkpt><trkpt lat="45.3941517" lon="10.6382533"><ele>92.0</ele><time>2026-04-25T08:49:03.718Z</time></trkpt><trkpt lat="45.39428" lon="10.6383417"><ele>92.0</ele><time>2026-04-25T08:49:04.726Z</time></trkpt><trkpt lat="45.3944" lon="10.63844"><ele>92.0</ele><time>2026-04-25T08:49:05.725Z</time></trkpt><trkpt lat="45.39453" lon="10.6385517"><ele>92.0</ele><time>2026-04-25T08:49:06.743Z</time></trkpt><trkpt lat="45.39465" lon="10.6386633"><ele>92.0</ele><time>2026-04-25T08:49:07.721Z</time></trkpt><trkpt lat="45.394775" lon="10.63877"><ele>91.66666666666667</ele><time>2026-04-25T08:49:08.724Z</time></trkpt><trkpt lat="45.394925" lon="10.6389233"><ele>91.33333333333333</ele><time>2026-04-25T08:49:09.734Z</time></trkpt><trkpt lat="45.3950783" lon="10.6390733"><ele>91.0</ele><time>2026-04-25T08:49:10.725Z</time></trkpt><trkpt lat="45.39522" lon="10.639205"><ele>91.0</ele><time>2026-04-25T08:49:11.732Z</time></trkpt><trkpt lat="45.3953567" lon="10.6393317"><ele>91.0</ele><time>2026-04-25T08:49:12.727Z</time></trkpt><trkpt lat="45.3954817" lon="10.6394267"><ele>91.0</ele><time>2026-04-25T08:49:13.726Z</time></trkpt><trkpt lat="45.395605" lon="10.6395283"><ele>91.0</ele><time>2026-04-25T08:49:14.733Z</time></trkpt><trkpt lat="45.3957433" lon="10.63965"><ele>91.0</ele><time>2026-04-25T08:49:15.735Z</time></trkpt><trkpt lat="45.39589" lon="10.6397867"><ele>91.0</ele><time>2026-04-25T08:49:16.721Z</time></trkpt><trkpt lat="45.3960583" lon="10.6399117"><ele>91.0</ele><time>2026-04-25T08:49:17.74Z</time></trkpt><trkpt lat="45.396215" lon="10.64006"><ele>90.33333333333333</ele><time>2026-04-25T08:49:18.725Z</time></trkpt><trkpt lat="45.396385" lon="10.6401717"><ele>89.66666666666667</ele><time>2026-04-25T08:49:19.744Z</time></trkpt><trkpt lat="45.3965567" lon="10.64028"><ele>89.0</ele><time>2026-04-25T08:49:20.716Z</time></trkpt><trkpt lat="45.3967117" lon="10.6403567"><ele>89.0</ele><time>2026-04-25T08:49:21.721Z</time></trkpt><trkpt lat="45.3968483" lon="10.64045"><ele>89.0</ele><time>2026-04-25T08:49:22.728Z</time></trkpt><trkpt lat="45.3969867" lon="10.64054"><ele>89.0</ele><time>2026-04-25T08:49:23.722Z</time></trkpt><trkpt lat="45.3971533" lon="10.6405867"><ele>89.66666666666667</ele><time>2026-04-25T08:49:24.721Z</time></trkpt><trkpt lat="45.3973183" lon="10.6406583"><ele>90.33333333333333</ele><time>2026-04-25T08:49:25.75Z</time></trkpt><trkpt lat="45.3974833" lon="10.640735"><ele>91.0</ele><time>2026-04-25T08:49:26.733Z</time></trkpt><trkpt lat="45.3976233" lon="10.6408383"><ele>91.0</ele><time>2026-04-25T08:49:27.721Z</time></trkpt><trkpt lat="45.3977617" lon="10.6409283"><ele>91.0</ele><time>2026-04-25T08:49:28.731Z</time></trkpt><trkpt lat="45.3978767" lon="10.6409967"><ele>91.0</ele><time>2026-04-25T08:49:29.728Z</time></trkpt><trkpt lat="45.3979967" lon="10.6410733"><ele>91.0</ele><time>2026-04-25T08:49:30.726Z</time></trkpt><trkpt lat="45.3981083" lon="10.6411567"><ele>90.6</ele><time>2026-04-25T08:49:31.736Z</time></trkpt><trkpt lat="45.3982" lon="10.6412467"><ele>90.19999999999999</ele><time>2026-04-25T08:49:32.729Z</time></trkpt><trkpt lat="45.39829" lon="10.6413117"><ele>89.80000000000001</ele><time>2026-04-25T08:49:33.723Z</time></trkpt><trkpt lat="45.3983783" lon="10.641375"><ele>89.4</ele><time>2026-04-25T08:49:34.727Z</time></trkpt><trkpt lat="45.3984567" lon="10.6414033"><ele>89.0</ele><time>2026-04-25T08:49:35.723Z</time></trkpt><trkpt lat="45.3985283" lon="10.6414467"><ele>89.0</ele><time>2026-04-25T08:49:36.726Z</time></trkpt><trkpt lat="45.3986033" lon="10.641485"><ele>89.0</ele><time>2026-04-25T08:49:37.734Z</time></trkpt><trkpt lat="45.3986767" lon="10.6415683"><ele>89.0</ele><time>2026-04-25T08:49:39.722Z</time></trkpt><trkpt lat="45.3986883" lon="10.6417167"><ele>89.0</ele><time>2026-04-25T08:49:42.724Z</time></trkpt><trkpt lat="45.3986667" lon="10.641815"><ele>89.0</ele><time>2026-04-25T08:49:43.725Z</time></trkpt><trkpt lat="45.3986367" lon="10.6419317"><ele>89.0</ele><time>2026-04-25T08:49:44.727Z</time></trkpt><trkpt lat="45.3985933" lon="10.642055"><ele>88.75</ele><time>2026-04-25T08:49:45.725Z</time></trkpt><trkpt lat="45.3985383" lon="10.6422033"><ele>88.5</ele><time>2026-04-25T08:49:46.722Z</time></trkpt><trkpt lat="45.3984517" lon="10.64234"><ele>88.25</ele><time>2026-04-25T08:49:47.736Z</time></trkpt><trkpt lat="45.3983533" lon="10.6425033"><ele>88.0</ele><time>2026-04-25T08:49:48.723Z</time></trkpt><trkpt lat="45.3982433" lon="10.6426567"><ele>88.0</ele><time>2026-04-25T08:49:49.731Z</time></trkpt><trkpt lat="45.3981117" lon="10.6428167"><ele>88.0</ele><time>2026-04-25T08:49:50.726Z</time></trkpt><trkpt lat="45.39799" lon="10.6429717"><ele>88.0</ele><time>2026-04-25T08:49:51.732Z</time></trkpt><trkpt lat="45.39787" lon="10.6431183"><ele>88.60000000000001</ele><time>2026-04-25T08:49:52.742Z</time></trkpt><trkpt lat="45.3977617" lon="10.6432483"><ele>89.2</ele><time>2026-04-25T08:49:53.736Z</time></trkpt><trkpt lat="45.3976733" lon="10.6433583"><ele>89.8</ele><time>2026-04-25T08:49:54.729Z</time></trkpt><trkpt lat="45.3976067" lon="10.6434483"><ele>90.4</ele><time>2026-04-25T08:49:55.729Z</time></trkpt><trkpt lat="45.3975383" lon="10.643515"><ele>91.0</ele><time>2026-04-25T08:49:56.734Z</time></trkpt><trkpt lat="45.397495" lon="10.643645"><ele>92.25</ele><time>2026-04-25T08:49:58.723Z</time></trkpt><trkpt lat="45.3975733" lon="10.6437867"><ele>93.5</ele><time>2026-04-25T08:50:00.724Z</time></trkpt><trkpt lat="45.3976417" lon="10.6438917"><ele>94.75</ele><time>2026-04-25T08:50:01.718Z</time></trkpt><trkpt lat="45.39772" lon="10.64402"><ele>96.0</ele><time>2026-04-25T08:50:02.722Z</time></trkpt><trkpt lat="45.3978167" lon="10.6441733"><ele>96.0</ele><time>2026-04-25T08:50:03.728Z</time></trkpt><trkpt lat="45.3979483" lon="10.6442983"><ele>96.0</ele><time>2026-04-25T08:50:04.723Z</time></trkpt><trkpt lat="45.39807" lon="10.6444617"><ele>96.0</ele><time>2026-04-25T08:50:05.718Z</time></trkpt><trkpt lat="45.39821" lon="10.6446433"><ele>96.66666666666666</ele><time>2026-04-25T08:50:06.731Z</time></trkpt><trkpt lat="45.398375" lon="10.6448133"><ele>97.33333333333333</ele><time>2026-04-25T08:50:07.722Z</time></trkpt><trkpt lat="45.39857" lon="10.64497"><ele>98.0</ele><time>2026-04-25T08:50:08.724Z</time></trkpt><trkpt lat="45.398775" lon="10.6451267"><ele>100.5</ele><time>2026-04-25T08:50:09.723Z</time></trkpt><trkpt lat="45.3989983" lon="10.64527"><ele>103.0</ele><time>2026-04-25T08:50:10.724Z</time></trkpt><trkpt lat="45.399205" lon="10.6454233"><ele>103.0</ele><time>2026-04-25T08:50:11.721Z</time></trkpt><trkpt lat="45.3994117" lon="10.6455617"><ele>103.0</ele><time>2026-04-25T08:50:12.725Z</time></trkpt><trkpt lat="45.399595" lon="10.6456883"><ele>103.0</ele><time>2026-04-25T08:50:13.724Z</time></trkpt><trkpt lat="45.3997567" lon="10.6458067"><ele>101.75</ele><time>2026-04-25T08:50:14.722Z</time></trkpt><trkpt lat="45.3999217" lon="10.6458717"><ele>100.5</ele><time>2026-04-25T08:50:15.724Z</time></trkpt><trkpt lat="45.4000383" lon="10.6459667"><ele>99.25</ele><time>2026-04-25T08:50:16.748Z</time></trkpt><trkpt lat="45.4001433" lon="10.6460983"><ele>98.0</ele><time>2026-04-25T08:50:17.72Z</time></trkpt><trkpt lat="45.4002317" lon="10.646285"><ele>98.0</ele><time>2026-04-25T08:50:18.722Z</time></trkpt><trkpt lat="45.40034" lon="10.64649"><ele>98.0</ele><time>2026-04-25T08:50:19.729Z</time></trkpt><trkpt lat="45.4004733" lon="10.646715"><ele>98.0</ele><time>2026-04-25T08:50:20.725Z</time></trkpt><trkpt lat="45.4006183" lon="10.64691"><ele>96.0</ele><time>2026-04-25T08:50:21.724Z</time></trkpt><trkpt lat="45.4007517" lon="10.64712"><ele>94.0</ele><time>2026-04-25T08:50:22.726Z</time></trkpt><trkpt lat="45.4008767" lon="10.6473383"><ele>92.0</ele><time>2026-04-25T08:50:23.724Z</time></trkpt><trkpt lat="45.4009817" lon="10.6475483"><ele>92.0</ele><time>2026-04-25T08:50:24.721Z</time></trkpt><trkpt lat="45.401095" lon="10.647735"><ele>92.0</ele><time>2026-04-25T08:50:25.728Z</time></trkpt><trkpt lat="45.4012" lon="10.647905"><ele>92.0</ele><time>2026-04-25T08:50:26.725Z</time></trkpt><trkpt lat="45.401285" lon="10.64806"><ele>92.0</ele><time>2026-04-25T08:50:27.737Z</time></trkpt><trkpt lat="45.4013617" lon="10.6481867"><ele>92.0</ele><time>2026-04-25T08:50:28.735Z</time></trkpt><trkpt lat="45.4014467" lon="10.6483017"><ele>92.0</ele><time>2026-04-25T08:50:29.746Z</time></trkpt><trkpt lat="45.4015217" lon="10.6484117"><ele>92.0</ele><time>2026-04-25T08:50:30.732Z</time></trkpt><trkpt lat="45.4015633" lon="10.648515"><ele>92.0</ele><time>2026-04-25T08:50:31.726Z</time></trkpt><trkpt lat="45.4015167" lon="10.6487033"><ele>92.25</ele><time>2026-04-25T08:50:33.721Z</time></trkpt><trkpt lat="45.4014383" lon="10.64883"><ele>92.5</ele><time>2026-04-25T08:50:34.721Z</time></trkpt><trkpt lat="45.4013367" lon="10.6489867"><ele>92.75</ele><time>2026-04-25T08:50:35.722Z</time></trkpt><trkpt lat="45.40125" lon="10.6491567"><ele>93.0</ele><time>2026-04-25T08:50:36.721Z</time></trkpt><trkpt lat="45.401165" lon="10.64931"><ele>93.80000000000001</ele><time>2026-04-25T08:50:37.715Z</time></trkpt><trkpt lat="45.4011117" lon="10.6494783"><ele>94.6</ele><time>2026-04-25T08:50:38.725Z</time></trkpt><trkpt lat="45.4010417" lon="10.6496067"><ele>95.4</ele><time>2026-04-25T08:50:39.716Z</time></trkpt><trkpt lat="45.4009833" lon="10.64968"><ele>96.19999999999999</ele><time>2026-04-25T08:50:40.722Z</time></trkpt><trkpt lat="45.400905" lon="10.6497717"><ele>97.0</ele><time>2026-04-25T08:50:42.728Z</time></trkpt><trkpt lat="45.4009833" lon="10.6497567"><ele>97.0</ele><time>2026-04-25T08:50:46.718Z</time></trkpt><trkpt lat="45.40103" lon="10.6496833"><ele>97.0</ele><time>2026-04-25T08:50:47.723Z</time></trkpt><trkpt lat="45.4010833" lon="10.6495833"><ele>97.0</ele><time>2026-04-25T08:50:48.722Z</time></trkpt><trkpt lat="45.4011567" lon="10.6494117"><ele>97.0</ele><time>2026-04-25T08:50:49.718Z</time></trkpt><trkpt lat="45.401235" lon="10.6492383"><ele>97.0</ele><time>2026-04-25T08:50:50.718Z</time></trkpt><trkpt lat="45.4013133" lon="10.6490583"><ele>96.19999999999999</ele><time>2026-04-25T08:50:51.723Z</time></trkpt><trkpt lat="45.4013883" lon="10.6488917"><ele>95.4</ele><time>2026-04-25T08:50:52.724Z</time></trkpt><trkpt lat="45.4014583" lon="10.648735"><ele>94.6</ele><time>2026-04-25T08:50:53.725Z</time></trkpt><trkpt lat="45.4015083" lon="10.6486117"><ele>93.80000000000001</ele><time>2026-04-25T08:50:54.72Z</time></trkpt><trkpt lat="45.4015517" lon="10.6485183"><ele>93.0</ele><time>2026-04-25T08:50:55.723Z</time></trkpt><trkpt lat="45.4016233" lon="10.6484433"><ele>93.0</ele><time>2026-04-25T08:50:57.725Z</time></trkpt><trkpt lat="45.4016917" lon="10.64855"><ele>93.0</ele><time>2026-04-25T08:50:59.718Z</time></trkpt><trkpt lat="45.4017383" lon="10.64864"><ele>93.0</ele><time>2026-04-25T08:51:00.722Z</time></trkpt><trkpt lat="45.4018233" lon="10.64877"><ele>93.0</ele><time>2026-04-25T08:51:01.721Z</time></trkpt><trkpt lat="45.4019333" lon="10.6489267"><ele>93.0</ele><time>2026-04-25T08:51:02.718Z</time></trkpt><trkpt lat="45.4020633" lon="10.64908"><ele>93.0</ele><time>2026-04-25T08:51:03.715Z</time></trkpt><trkpt lat="45.4022117" lon="10.6492617"><ele>93.0</ele><time>2026-04-25T08:51:04.726Z</time></trkpt><trkpt lat="45.4023633" lon="10.6494567"><ele>93.66666666666667</ele><time>2026-04-25T08:51:05.731Z</time></trkpt><trkpt lat="45.402495" lon="10.649625"><ele>94.33333333333334</ele><time>2026-04-25T08:51:06.725Z</time></trkpt><trkpt lat="45.4026267" lon="10.6497817"><ele>95.0</ele><time>2026-04-25T08:51:07.722Z</time></trkpt><trkpt lat="45.402725" lon="10.6498783"><ele>95.0</ele><time>2026-04-25T08:51:08.722Z</time></trkpt><trkpt lat="45.4028017" lon="10.6499617"><ele>95.0</ele><time>2026-04-25T08:51:09.717Z</time></trkpt><trkpt lat="45.402865" lon="10.6500383"><ele>95.0</ele><time>2026-04-25T08:51:10.721Z</time></trkpt><trkpt lat="45.4029167" lon="10.6501"><ele>95.0</ele><time>2026-04-25T08:51:11.718Z</time></trkpt><trkpt lat="45.4030067" lon="10.6502117"><ele>95.0</ele><time>2026-04-25T08:51:13.723Z</time></trkpt><trkpt lat="45.4030533" lon="10.6503133"><ele>95.16666666666667</ele><time>2026-04-25T08:51:15.718Z</time></trkpt><trkpt lat="45.4030217" lon="10.65042"><ele>95.33333333333334</ele><time>2026-04-25T08:51:17.722Z</time></trkpt><trkpt lat="45.4029767" lon="10.6504883"><ele>95.5</ele><time>2026-04-25T08:51:19.719Z</time></trkpt><trkpt lat="45.4029317" lon="10.6505967"><ele>95.66666666666667</ele><time>2026-04-25T08:51:21.717Z</time></trkpt><trkpt lat="45.402895" lon="10.650775"><ele>95.83333333333333</ele><time>2026-04-25T08:51:23.721Z</time></trkpt><trkpt lat="45.4028833" lon="10.6508767"><ele>96.0</ele><time>2026-04-25T08:51:24.723Z</time></trkpt><trkpt lat="45.4028883" lon="10.650985"><ele>96.16666666666667</ele><time>2026-04-25T08:51:25.722Z</time></trkpt><trkpt lat="45.4028983" lon="10.6510967"><ele>96.33333333333334</ele><time>2026-04-25T08:51:26.723Z</time></trkpt><trkpt lat="45.402915" lon="10.651215"><ele>96.5</ele><time>2026-04-25T08:51:27.722Z</time></trkpt><trkpt lat="45.4029317" lon="10.651335"><ele>96.66666666666667</ele><time>2026-04-25T08:51:28.719Z</time></trkpt><trkpt lat="45.40295" lon="10.6514533"><ele>96.83333333333334</ele><time>2026-04-25T08:51:29.723Z</time></trkpt><trkpt lat="45.402975" lon="10.6515683"><ele>97.0</ele><time>2026-04-25T08:51:30.721Z</time></trkpt><trkpt lat="45.4030067" lon="10.6516867"><ele>97.00000000000001</ele><time>2026-04-25T08:51:31.718Z</time></trkpt><trkpt lat="45.4030367" lon="10.651795"><ele>97.0</ele><time>2026-04-25T08:51:32.721Z</time></trkpt><trkpt lat="45.40306" lon="10.6519233"><ele>97.0</ele><time>2026-04-25T08:51:33.721Z</time></trkpt><trkpt lat="45.4030817" lon="10.6520483"><ele>97.0</ele><time>2026-04-25T08:51:34.718Z</time></trkpt><trkpt lat="45.4030967" lon="10.6521733"><ele>97.00000000000001</ele><time>2026-04-25T08:51:35.719Z</time></trkpt><trkpt lat="45.403105" lon="10.6523"><ele>97.0</ele><time>2026-04-25T08:51:36.721Z</time></trkpt><trkpt lat="45.4031067" lon="10.65244"><ele>98.16666666666667</ele><time>2026-04-25T08:51:37.718Z</time></trkpt><trkpt lat="45.4031117" lon="10.6525783"><ele>99.33333333333334</ele><time>2026-04-25T08:51:38.724Z</time></trkpt><trkpt lat="45.4031117" lon="10.6527267"><ele>100.5</ele><time>2026-04-25T08:51:39.723Z</time></trkpt><trkpt lat="45.40311" lon="10.652865"><ele>101.66666666666666</ele><time>2026-04-25T08:51:40.724Z</time></trkpt><trkpt lat="45.4031467" lon="10.65295"><ele>102.83333333333333</ele><time>2026-04-25T08:51:41.719Z</time></trkpt><trkpt lat="45.4031883" lon="10.6530383"><ele>104.0</ele><time>2026-04-25T08:51:42.725Z</time></trkpt><trkpt lat="45.403235" lon="10.653135"><ele>104.2</ele><time>2026-04-25T08:51:43.717Z</time></trkpt><trkpt lat="45.4032867" lon="10.6532383"><ele>104.4</ele><time>2026-04-25T08:51:44.718Z</time></trkpt><trkpt lat="45.4033533" lon="10.6533733"><ele>104.6</ele><time>2026-04-25T08:51:45.725Z</time></trkpt><trkpt lat="45.4034167" lon="10.6534817"><ele>104.8</ele><time>2026-04-25T08:51:46.72Z</time></trkpt><trkpt lat="45.4034633" lon="10.653585"><ele>105.0</ele><time>2026-04-25T08:51:47.718Z</time></trkpt><trkpt lat="45.4034967" lon="10.653665"><ele>105.4</ele><time>2026-04-25T08:51:48.725Z</time></trkpt><trkpt lat="45.4035583" lon="10.6538083"><ele>105.8</ele><time>2026-04-25T08:51:50.725Z</time></trkpt><trkpt lat="45.4036233" lon="10.6539567"><ele>106.19999999999999</ele><time>2026-04-25T08:51:52.73Z</time></trkpt><trkpt lat="45.4036433" lon="10.6540617"><ele>106.6</ele><time>2026-04-25T08:51:53.716Z</time></trkpt><trkpt lat="45.40366" lon="10.6541917"><ele>107.0</ele><time>2026-04-25T08:51:54.718Z</time></trkpt><trkpt lat="45.4036683" lon="10.654345"><ele>107.19999999999999</ele><time>2026-04-25T08:51:55.724Z</time></trkpt><trkpt lat="45.4036567" lon="10.654485"><ele>107.39999999999999</ele><time>2026-04-25T08:51:56.719Z</time></trkpt><trkpt lat="45.403655" lon="10.6546333"><ele>107.60000000000001</ele><time>2026-04-25T08:51:57.722Z</time></trkpt><trkpt lat="45.4036483" lon="10.6547617"><ele>107.80000000000001</ele><time>2026-04-25T08:51:58.722Z</time></trkpt><trkpt lat="45.403635" lon="10.65489"><ele>108.0</ele><time>2026-04-25T08:51:59.722Z</time></trkpt><trkpt lat="45.4036117" lon="10.6550183"><ele>108.0</ele><time>2026-04-25T08:52:00.717Z</time></trkpt><trkpt lat="45.403575" lon="10.6551517"><ele>108.00000000000001</ele><time>2026-04-25T08:52:01.722Z</time></trkpt><trkpt lat="45.40354" lon="10.6552883"><ele>108.00000000000001</ele><time>2026-04-25T08:52:02.719Z</time></trkpt><trkpt lat="45.403495" lon="10.6554267"><ele>108.0</ele><time>2026-04-25T08:52:03.72Z</time></trkpt><trkpt lat="45.40343" lon="10.655575"><ele>108.0</ele><time>2026-04-25T08:52:04.729Z</time></trkpt><trkpt lat="45.40336" lon="10.6557133"><ele>108.2</ele><time>2026-04-25T08:52:05.719Z</time></trkpt><trkpt lat="45.40331" lon="10.6558633"><ele>108.4</ele><time>2026-04-25T08:52:06.719Z</time></trkpt><trkpt lat="45.403245" lon="10.655975"><ele>108.60000000000001</ele><time>2026-04-25T08:52:07.72Z</time></trkpt><trkpt lat="45.4031833" lon="10.656105"><ele>108.80000000000001</ele><time>2026-04-25T08:52:08.716Z</time></trkpt><trkpt lat="45.4031483" lon="10.656215"><ele>109.0</ele><time>2026-04-25T08:52:09.72Z</time></trkpt><trkpt lat="45.40311" lon="10.65633"><ele>109.4</ele><time>2026-04-25T08:52:10.723Z</time></trkpt><trkpt lat="45.40308" lon="10.6564633"><ele>109.80000000000001</ele><time>2026-04-25T08:52:11.718Z</time></trkpt><trkpt lat="45.4030617" lon="10.6566117"><ele>110.19999999999999</ele><time>2026-04-25T08:52:12.717Z</time></trkpt><trkpt lat="45.4030483" lon="10.6567583"><ele>110.6</ele><time>2026-04-25T08:52:13.718Z</time></trkpt><trkpt lat="45.4030233" lon="10.6569133"><ele>111.0</ele><time>2026-04-25T08:52:14.717Z</time></trkpt><trkpt lat="45.402995" lon="10.65704"><ele>111.5</ele><time>2026-04-25T08:52:15.716Z</time></trkpt><trkpt lat="45.402975" lon="10.6571767"><ele>112.0</ele><time>2026-04-25T08:52:16.716Z</time></trkpt><trkpt lat="45.4029583" lon="10.6572983"><ele>112.5</ele><time>2026-04-25T08:52:17.722Z</time></trkpt><trkpt lat="45.4029483" lon="10.6574033"><ele>113.0</ele><time>2026-04-25T08:52:18.718Z</time></trkpt><trkpt lat="45.402925" lon="10.6575467"><ele>113.5</ele><time>2026-04-25T08:52:20.719Z</time></trkpt><trkpt lat="45.402905" lon="10.6576383"><ele>114.0</ele><time>2026-04-25T08:52:21.722Z</time></trkpt><trkpt lat="45.4028717" lon="10.6577467"><ele>114.66666666666667</ele><time>2026-04-25T08:52:22.718Z</time></trkpt><trkpt lat="45.4028333" lon="10.6578617"><ele>115.33333333333334</ele><time>2026-04-25T08:52:23.723Z</time></trkpt><trkpt lat="45.4027917" lon="10.6579633"><ele>116.0</ele><time>2026-04-25T08:52:24.723Z</time></trkpt><trkpt lat="45.402745" lon="10.6580467"><ele>116.66666666666667</ele><time>2026-04-25T08:52:25.719Z</time></trkpt><trkpt lat="45.4026983" lon="10.6581167"><ele>117.33333333333334</ele><time>2026-04-25T08:52:26.719Z</time></trkpt><trkpt lat="45.4026433" lon="10.658175"><ele>118.0</ele><time>2026-04-25T08:52:27.722Z</time></trkpt><trkpt lat="45.4025833" lon="10.6582417"><ele>118.0</ele><time>2026-04-25T08:52:28.718Z</time></trkpt><trkpt lat="45.4025083" lon="10.6583167"><ele>118.00000000000001</ele><time>2026-04-25T08:52:29.721Z</time></trkpt><trkpt lat="45.4024117" lon="10.658395"><ele>118.00000000000001</ele><time>2026-04-25T08:52:30.72Z</time></trkpt><trkpt lat="45.4023183" lon="10.6584717"><ele>118.0</ele><time>2026-04-25T08:52:31.722Z</time></trkpt><trkpt lat="45.4022433" lon="10.658565"><ele>118.0</ele><time>2026-04-25T08:52:32.715Z</time></trkpt><trkpt lat="45.4021467" lon="10.6586517"><ele>118.75</ele><time>2026-04-25T08:52:33.721Z</time></trkpt><trkpt lat="45.40207" lon="10.6587583"><ele>119.5</ele><time>2026-04-25T08:52:34.717Z</time></trkpt><trkpt lat="45.4019767" lon="10.658865"><ele>120.25</ele><time>2026-04-25T08:52:35.716Z</time></trkpt><trkpt lat="45.4019067" lon="10.6589633"><ele>121.0</ele><time>2026-04-25T08:52:36.725Z</time></trkpt><trkpt lat="45.4017633" lon="10.6590217"><ele>121.0</ele><time>2026-04-25T08:52:37.72Z</time></trkpt><trkpt lat="45.40166" lon="10.6591417"><ele>121.0</ele><time>2026-04-25T08:52:38.722Z</time></trkpt><trkpt lat="45.4015517" lon="10.6592583"><ele>121.0</ele><time>2026-04-25T08:52:39.723Z</time></trkpt><trkpt lat="45.4014383" lon="10.65938"><ele>121.0</ele><time>2026-04-25T08:52:40.737Z</time></trkpt><trkpt lat="45.401325" lon="10.65952"><ele>120.66666666666667</ele><time>2026-04-25T08:52:41.737Z</time></trkpt><trkpt lat="45.40121" lon="10.659675"><ele>120.33333333333334</ele><time>2026-04-25T08:52:42.734Z</time></trkpt><trkpt lat="45.4010833" lon="10.6598233"><ele>120.0</ele><time>2026-04-25T08:52:43.725Z</time></trkpt><trkpt lat="45.4009867" lon="10.6599717"><ele>120.0</ele><time>2026-04-25T08:52:44.723Z</time></trkpt><trkpt lat="45.4009083" lon="10.6600567"><ele>120.0</ele><time>2026-04-25T08:52:45.727Z</time></trkpt><trkpt lat="45.40082" lon="10.66018"><ele>120.0</ele><time>2026-04-25T08:52:46.719Z</time></trkpt><trkpt lat="45.40073" lon="10.6603283"><ele>120.0</ele><time>2026-04-25T08:52:47.731Z</time></trkpt><trkpt lat="45.4006417" lon="10.6604683"><ele>120.0</ele><time>2026-04-25T08:52:48.734Z</time></trkpt><trkpt lat="45.400535" lon="10.660605"><ele>120.0</ele><time>2026-04-25T08:52:49.733Z</time></trkpt><trkpt lat="45.400445" lon="10.6607067"><ele>120.0</ele><time>2026-04-25T08:52:50.725Z</time></trkpt><trkpt lat="45.400365" lon="10.6607933"><ele>120.0</ele><time>2026-04-25T08:52:51.723Z</time></trkpt><trkpt lat="45.4003033" lon="10.6608583"><ele>120.0</ele><time>2026-04-25T08:52:52.726Z</time></trkpt><trkpt lat="45.4002467" lon="10.6609217"><ele>120.0</ele><time>2026-04-25T08:52:53.741Z</time></trkpt><trkpt lat="45.4001683" lon="10.6610383"><ele>120.0</ele><time>2026-04-25T08:52:55.729Z</time></trkpt><trkpt lat="45.4001433" lon="10.6612433"><ele>120.0</ele><time>2026-04-25T08:52:57.745Z</time></trkpt><trkpt lat="45.4001467" lon="10.6614033"><ele>120.0</ele><time>2026-04-25T08:52:58.715Z</time></trkpt><trkpt lat="45.40017" lon="10.6616033"><ele>119.33333333333334</ele><time>2026-04-25T08:52:59.723Z</time></trkpt><trkpt lat="45.4002033" lon="10.661815"><ele>118.66666666666667</ele><time>2026-04-25T08:53:00.722Z</time></trkpt><trkpt lat="45.4002733" lon="10.6620467"><ele>118.0</ele><time>2026-04-25T08:53:01.723Z</time></trkpt><trkpt lat="45.40033" lon="10.6622817"><ele>118.0</ele><time>2026-04-25T08:53:02.726Z</time></trkpt><trkpt lat="45.400375" lon="10.6625"><ele>118.0</ele><time>2026-04-25T08:53:03.716Z</time></trkpt><trkpt lat="45.4004017" lon="10.6627133"><ele>118.0</ele><time>2026-04-25T08:53:04.721Z</time></trkpt><trkpt lat="45.40039" lon="10.6629267"><ele>117.66666666666667</ele><time>2026-04-25T08:53:05.72Z</time></trkpt><trkpt lat="45.4003517" lon="10.6631517"><ele>117.33333333333334</ele><time>2026-04-25T08:53:06.722Z</time></trkpt><trkpt lat="45.4003117" lon="10.6633883"><ele>117.0</ele><time>2026-04-25T08:53:07.725Z</time></trkpt><trkpt lat="45.400265" lon="10.6636367"><ele>118.33333333333334</ele><time>2026-04-25T08:53:08.722Z</time></trkpt><trkpt lat="45.4002167" lon="10.6639183"><ele>119.66666666666667</ele><time>2026-04-25T08:53:09.722Z</time></trkpt><trkpt lat="45.4001733" lon="10.6642017"><ele>121.0</ele><time>2026-04-25T08:53:10.718Z</time></trkpt><trkpt lat="45.4001217" lon="10.6644833"><ele>121.66666666666667</ele><time>2026-04-25T08:53:11.719Z</time></trkpt><trkpt lat="45.4000667" lon="10.66474"><ele>122.33333333333334</ele><time>2026-04-25T08:53:12.723Z</time></trkpt><trkpt lat="45.400005" lon="10.6649667"><ele>123.0</ele><time>2026-04-25T08:53:13.719Z</time></trkpt><trkpt lat="45.3999467" lon="10.6651767"><ele>123.25</ele><time>2026-04-25T08:53:14.718Z</time></trkpt><trkpt lat="45.3998933" lon="10.6653783"><ele>123.5</ele><time>2026-04-25T08:53:15.717Z</time></trkpt><trkpt lat="45.3998467" lon="10.6655783"><ele>123.75</ele><time>2026-04-25T08:53:16.717Z</time></trkpt><trkpt lat="45.3997967" lon="10.6657783"><ele>124.0</ele><time>2026-04-25T08:53:17.717Z</time></trkpt><trkpt lat="45.3997317" lon="10.66599"><ele>124.33333333333334</ele><time>2026-04-25T08:53:18.719Z</time></trkpt><trkpt lat="45.39964" lon="10.6662083"><ele>124.66666666666666</ele><time>2026-04-25T08:53:19.719Z</time></trkpt><trkpt lat="45.3995367" lon="10.6664367"><ele>125.0</ele><time>2026-04-25T08:53:20.716Z</time></trkpt><trkpt lat="45.3994633" lon="10.6667033"><ele>125.0</ele><time>2026-04-25T08:53:21.718Z</time></trkpt><trkpt lat="45.3994167" lon="10.66697"><ele>125.0</ele><time>2026-04-25T08:53:22.724Z</time></trkpt><trkpt lat="45.3993567" lon="10.6672533"><ele>125.0</ele><time>2026-04-25T08:53:23.718Z</time></trkpt><trkpt lat="45.3992783" lon="10.6675317"><ele>125.33333333333333</ele><time>2026-04-25T08:53:24.72Z</time></trkpt><trkpt lat="45.3992017" lon="10.6677883"><ele>125.66666666666666</ele><time>2026-04-25T08:53:25.718Z</time></trkpt><trkpt lat="45.3991117" lon="10.668005"><ele>126.0</ele><time>2026-04-25T08:53:26.717Z</time></trkpt><trkpt lat="45.39902" lon="10.6681933"><ele>126.0</ele><time>2026-04-25T08:53:27.717Z</time></trkpt><trkpt lat="45.398925" lon="10.6684117"><ele>126.0</ele><time>2026-04-25T08:53:28.717Z</time></trkpt><trkpt lat="45.39883" lon="10.6686417"><ele>126.0</ele><time>2026-04-25T08:53:29.718Z</time></trkpt><trkpt lat="45.3987217" lon="10.6688433"><ele>126.0</ele><time>2026-04-25T08:53:30.718Z</time></trkpt><trkpt lat="45.3986417" lon="10.6690883"><ele>126.0</ele><time>2026-04-25T08:53:31.734Z</time></trkpt><trkpt lat="45.3985683" lon="10.669325"><ele>126.0</ele><time>2026-04-25T08:53:32.717Z</time></trkpt><trkpt lat="45.3984883" lon="10.66952"><ele>125.33333333333334</ele><time>2026-04-25T08:53:33.723Z</time></trkpt><trkpt lat="45.3983833" lon="10.6696817"><ele>124.66666666666667</ele><time>2026-04-25T08:53:34.72Z</time></trkpt><trkpt lat="45.3982617" lon="10.66986"><ele>124.0</ele><time>2026-04-25T08:53:35.723Z</time></trkpt><trkpt lat="45.398145" lon="10.6700817"><ele>122.0</ele><time>2026-04-25T08:53:36.718Z</time></trkpt><trkpt lat="45.3980033" lon="10.6703217"><ele>120.0</ele><time>2026-04-25T08:53:37.724Z</time></trkpt><trkpt lat="45.3978483" lon="10.6705383"><ele>118.0</ele><time>2026-04-25T08:53:38.718Z</time></trkpt><trkpt lat="45.3977" lon="10.670765"><ele>118.0</ele><time>2026-04-25T08:53:39.719Z</time></trkpt><trkpt lat="45.3975433" lon="10.6709817"><ele>118.0</ele><time>2026-04-25T08:53:40.721Z</time></trkpt><trkpt lat="45.397395" lon="10.6711817"><ele>118.0</ele><time>2026-04-25T08:53:41.721Z</time></trkpt><trkpt lat="45.397265" lon="10.6713717"><ele>117.66666666666667</ele><time>2026-04-25T08:53:42.72Z</time></trkpt><trkpt lat="45.39714" lon="10.6715783"><ele>117.33333333333334</ele><time>2026-04-25T08:53:43.72Z</time></trkpt><trkpt lat="45.397025" lon="10.6717967"><ele>117.0</ele><time>2026-04-25T08:53:44.72Z</time></trkpt><trkpt lat="45.3969433" lon="10.6720367"><ele>116.66666666666666</ele><time>2026-04-25T08:53:45.716Z</time></trkpt><trkpt lat="45.3968667" lon="10.6723017"><ele>116.33333333333333</ele><time>2026-04-25T08:53:46.721Z</time></trkpt><trkpt lat="45.3967967" lon="10.672575"><ele>116.0</ele><time>2026-04-25T08:53:47.722Z</time></trkpt><trkpt lat="45.3967533" lon="10.6728583"><ele>115.0</ele><time>2026-04-25T08:53:48.721Z</time></trkpt><trkpt lat="45.3967217" lon="10.673125"><ele>114.0</ele><time>2026-04-25T08:53:49.718Z</time></trkpt><trkpt lat="45.3966917" lon="10.6733817"><ele>113.0</ele><time>2026-04-25T08:53:50.722Z</time></trkpt><trkpt lat="45.3966783" lon="10.6736217"><ele>113.0</ele><time>2026-04-25T08:53:51.722Z</time></trkpt><trkpt lat="45.3966467" lon="10.673855"><ele>113.0</ele><time>2026-04-25T08:53:52.73Z</time></trkpt><trkpt lat="45.39659" lon="10.6740917"><ele>113.0</ele><time>2026-04-25T08:53:53.722Z</time></trkpt><trkpt lat="45.396525" lon="10.6743383"><ele>112.33333333333333</ele><time>2026-04-25T08:53:54.718Z</time></trkpt><trkpt lat="45.396445" lon="10.6746167"><ele>111.66666666666666</ele><time>2026-04-25T08:53:55.716Z</time></trkpt><trkpt lat="45.3963617" lon="10.674905"><ele>111.0</ele><time>2026-04-25T08:53:56.719Z</time></trkpt><trkpt lat="45.3962733" lon="10.6751883"><ele>112.33333333333334</ele><time>2026-04-25T08:53:57.716Z</time></trkpt><trkpt lat="45.3961933" lon="10.6754533"><ele>113.66666666666667</ele><time>2026-04-25T08:53:58.716Z</time></trkpt><trkpt lat="45.3961167" lon="10.6757017"><ele>115.0</ele><time>2026-04-25T08:53:59.723Z</time></trkpt><trkpt lat="45.396055" lon="10.6759567"><ele>114.33333333333334</ele><time>2026-04-25T08:54:00.722Z</time></trkpt><trkpt lat="45.3960167" lon="10.67624"><ele>113.66666666666666</ele><time>2026-04-25T08:54:01.717Z</time></trkpt><trkpt lat="45.3959833" lon="10.6765233"><ele>113.0</ele><time>2026-04-25T08:54:02.718Z</time></trkpt><trkpt lat="45.395955" lon="10.67681"><ele>112.0</ele><time>2026-04-25T08:54:03.721Z</time></trkpt><trkpt lat="45.39593" lon="10.6771033"><ele>111.0</ele><time>2026-04-25T08:54:04.722Z</time></trkpt><trkpt lat="45.39594" lon="10.6773867"><ele>110.0</ele><time>2026-04-25T08:54:05.722Z</time></trkpt><trkpt lat="45.3959133" lon="10.6776667"><ele>109.5</ele><time>2026-04-25T08:54:06.729Z</time></trkpt><trkpt lat="45.39592" lon="10.678"><ele>109.0</ele><time>2026-04-25T08:54:07.731Z</time></trkpt><trkpt lat="45.3959083" lon="10.6783083"><ele>109.33333333333334</ele><time>2026-04-25T08:54:08.72Z</time></trkpt><trkpt lat="45.3958817" lon="10.678615"><ele>109.66666666666666</ele><time>2026-04-25T08:54:09.724Z</time></trkpt><trkpt lat="45.3958533" lon="10.6788933"><ele>110.0</ele><time>2026-04-25T08:54:10.735Z</time></trkpt><trkpt lat="45.3958183" lon="10.6791467"><ele>110.0</ele><time>2026-04-25T08:54:11.747Z</time></trkpt><trkpt lat="45.3957717" lon="10.6793783"><ele>110.0</ele><time>2026-04-25T08:54:12.734Z</time></trkpt><trkpt lat="45.395745" lon="10.67955"><ele>110.0</ele><time>2026-04-25T08:54:13.733Z</time></trkpt><trkpt lat="45.3957133" lon="10.6797033"><ele>110.0</ele><time>2026-04-25T08:54:14.741Z</time></trkpt><trkpt lat="45.3956883" lon="10.679865"><ele>110.0</ele><time>2026-04-25T08:54:15.73Z</time></trkpt><trkpt lat="45.3956567" lon="10.680015"><ele>110.0</ele><time>2026-04-25T08:54:16.724Z</time></trkpt><trkpt lat="45.3956367" lon="10.6801717"><ele>110.0</ele><time>2026-04-25T08:54:17.722Z</time></trkpt><trkpt lat="45.3956267" lon="10.6803367"><ele>110.0</ele><time>2026-04-25T08:54:18.737Z</time></trkpt><trkpt lat="45.3956117" lon="10.6804617"><ele>110.0</ele><time>2026-04-25T08:54:19.726Z</time></trkpt><trkpt lat="45.3955833" lon="10.6805667"><ele>109.99999999999999</ele><time>2026-04-25T08:54:20.731Z</time></trkpt><trkpt lat="45.3955733" lon="10.6806617"><ele>110.0</ele><time>2026-04-25T08:54:21.721Z</time></trkpt><trkpt lat="45.39557" lon="10.6807567"><ele>110.0</ele><time>2026-04-25T08:54:22.72Z</time></trkpt><trkpt lat="45.3956567" lon="10.68085"><ele>110.0</ele><time>2026-04-25T08:54:24.724Z</time></trkpt><trkpt lat="45.3957367" lon="10.6808733"><ele>109.99999999999999</ele><time>2026-04-25T08:54:25.724Z</time></trkpt><trkpt lat="45.3958133" lon="10.6809133"><ele>110.0</ele><time>2026-04-25T08:54:26.738Z</time></trkpt><trkpt lat="45.3958783" lon="10.6809767"><ele>110.0</ele><time>2026-04-25T08:54:27.724Z</time></trkpt><trkpt lat="45.3959283" lon="10.6810767"><ele>110.0</ele><time>2026-04-25T08:54:28.721Z</time></trkpt><trkpt lat="45.395975" lon="10.6811983"><ele>110.0</ele><time>2026-04-25T08:54:29.752Z</time></trkpt><trkpt lat="45.3960283" lon="10.6813283"><ele>110.0</ele><time>2026-04-25T08:54:30.724Z</time></trkpt><trkpt lat="45.3961083" lon="10.6814517"><ele>110.0</ele><time>2026-04-25T08:54:31.729Z</time></trkpt><trkpt lat="45.3962017" lon="10.6815467"><ele>110.0</ele><time>2026-04-25T08:54:32.726Z</time></trkpt><trkpt lat="45.3963017" lon="10.6816017"><ele>110.0</ele><time>2026-04-25T08:54:33.726Z</time></trkpt><trkpt lat="45.3963783" lon="10.68165"><ele>110.0</ele><time>2026-04-25T08:54:34.715Z</time></trkpt><trkpt lat="45.3964683" lon="10.6816433"><ele>110.0</ele><time>2026-04-25T08:54:35.721Z</time></trkpt><trkpt lat="45.396555" lon="10.6816217"><ele>110.0</ele><time>2026-04-25T08:54:36.717Z</time></trkpt><trkpt lat="45.3966583" lon="10.6815917"><ele>109.75</ele><time>2026-04-25T08:54:37.721Z</time></trkpt><trkpt lat="45.3967983" lon="10.6815433"><ele>109.5</ele><time>2026-04-25T08:54:38.722Z</time></trkpt><trkpt lat="45.3969633" lon="10.6814683"><ele>109.25</ele><time>2026-04-25T08:54:39.721Z</time></trkpt><trkpt lat="45.3970717" lon="10.6814417"><ele>109.0</ele><time>2026-04-25T08:54:40.716Z</time></trkpt><trkpt lat="45.3972017" lon="10.681425"><ele>108.0</ele><time>2026-04-25T08:54:41.722Z</time></trkpt><trkpt lat="45.3973533" lon="10.6813717"><ele>107.0</ele><time>2026-04-25T08:54:42.718Z</time></trkpt><trkpt lat="45.39748" lon="10.6813333"><ele>106.0</ele><time>2026-04-25T08:54:43.719Z</time></trkpt><trkpt lat="45.3976267" lon="10.681335"><ele>105.0</ele><time>2026-04-25T08:54:44.721Z</time></trkpt><trkpt lat="45.3977683" lon="10.6813333"><ele>105.0</ele><time>2026-04-25T08:54:45.718Z</time></trkpt><trkpt lat="45.3979267" lon="10.681305"><ele>105.0</ele><time>2026-04-25T08:54:46.719Z</time></trkpt><trkpt lat="45.3980833" lon="10.6812567"><ele>105.0</ele><time>2026-04-25T08:54:47.718Z</time></trkpt><trkpt lat="45.3982233" lon="10.68118"><ele>104.5</ele><time>2026-04-25T08:54:48.728Z</time></trkpt><trkpt lat="45.3983467" lon="10.68112"><ele>104.0</ele><time>2026-04-25T08:54:49.713Z</time></trkpt><trkpt lat="45.39847" lon="10.6810417"><ele>103.5</ele><time>2026-04-25T08:54:50.721Z</time></trkpt><trkpt lat="45.3985967" lon="10.6809733"><ele>103.0</ele><time>2026-04-25T08:54:51.726Z</time></trkpt><trkpt lat="45.3987167" lon="10.680925"><ele>103.0</ele><time>2026-04-25T08:54:52.723Z</time></trkpt><trkpt lat="45.39885" lon="10.68089"><ele>103.0</ele><time>2026-04-25T08:54:53.717Z</time></trkpt><trkpt lat="45.3989817" lon="10.6808567"><ele>103.0</ele><time>2026-04-25T08:54:54.721Z</time></trkpt><trkpt lat="45.3991217" lon="10.6808367"><ele>103.0</ele><time>2026-04-25T08:54:55.716Z</time></trkpt><trkpt lat="45.3992683" lon="10.6808067"><ele>103.0</ele><time>2026-04-25T08:54:56.715Z</time></trkpt><trkpt lat="45.39941" lon="10.6808033"><ele>103.0</ele><time>2026-04-25T08:54:57.723Z</time></trkpt><trkpt lat="45.3995467" lon="10.680795"><ele>103.0</ele><time>2026-04-25T08:54:58.727Z</time></trkpt><trkpt lat="45.39968" lon="10.680825"><ele>103.0</ele><time>2026-04-25T08:54:59.716Z</time></trkpt><trkpt lat="45.399805" lon="10.6808583"><ele>102.80000000000001</ele><time>2026-04-25T08:55:00.748Z</time></trkpt><trkpt lat="45.3999133" lon="10.6809067"><ele>102.6</ele><time>2026-04-25T08:55:01.727Z</time></trkpt><trkpt lat="45.4000167" lon="10.680925"><ele>102.4</ele><time>2026-04-25T08:55:02.716Z</time></trkpt><trkpt lat="45.4001083" lon="10.680935"><ele>102.19999999999999</ele><time>2026-04-25T08:55:03.732Z</time></trkpt><trkpt lat="45.4001983" lon="10.680965"><ele>102.0</ele><time>2026-04-25T08:55:04.722Z</time></trkpt><trkpt lat="45.40029" lon="10.6809683"><ele>102.0</ele><time>2026-04-25T08:55:05.719Z</time></trkpt><trkpt lat="45.400365" lon="10.68098"><ele>102.0</ele><time>2026-04-25T08:55:06.717Z</time></trkpt><trkpt lat="45.40043" lon="10.6809917"><ele>102.0</ele><time>2026-04-25T08:55:07.72Z</time></trkpt><trkpt lat="45.4005217" lon="10.6810467"><ele>102.0</ele><time>2026-04-25T08:55:09.722Z</time></trkpt><trkpt lat="45.4005417" lon="10.6811733"><ele>102.0</ele><time>2026-04-25T08:55:11.72Z</time></trkpt><trkpt lat="45.4005333" lon="10.68133"><ele>102.0</ele><time>2026-04-25T08:55:13.722Z</time></trkpt><trkpt lat="45.400545" lon="10.6814767"><ele>102.0</ele><time>2026-04-25T08:55:15.717Z</time></trkpt><trkpt lat="45.4005433" lon="10.681615"><ele>102.0</ele><time>2026-04-25T08:55:17.724Z</time></trkpt><trkpt lat="45.4004683" lon="10.6817317"><ele>102.0</ele><time>2026-04-25T08:55:19.716Z</time></trkpt><trkpt lat="45.4004" lon="10.68178"><ele>102.0</ele><time>2026-04-25T08:55:20.72Z</time></trkpt><trkpt lat="45.4003267" lon="10.6818333"><ele>102.0</ele><time>2026-04-25T08:55:21.722Z</time></trkpt><trkpt lat="45.4002667" lon="10.681885"><ele>102.0</ele><time>2026-04-25T08:55:22.721Z</time></trkpt><trkpt lat="45.4002417" lon="10.682025"><ele>101.8</ele><time>2026-04-25T08:55:24.723Z</time></trkpt><trkpt lat="45.40026" lon="10.682125"><ele>101.6</ele><time>2026-04-25T08:55:25.717Z</time></trkpt><trkpt lat="45.400285" lon="10.68224"><ele>101.39999999999999</ele><time>2026-04-25T08:55:26.721Z</time></trkpt><trkpt lat="45.4003217" lon="10.6823717"><ele>101.19999999999999</ele><time>2026-04-25T08:55:27.718Z</time></trkpt><trkpt lat="45.40037" lon="10.6825117"><ele>101.0</ele><time>2026-04-25T08:55:28.72Z</time></trkpt><trkpt lat="45.4004117" lon="10.6826767"><ele>100.6</ele><time>2026-04-25T08:55:29.728Z</time></trkpt><trkpt lat="45.4004517" lon="10.6828367"><ele>100.19999999999999</ele><time>2026-04-25T08:55:30.722Z</time></trkpt><trkpt lat="45.40046" lon="10.68297"><ele>99.80000000000001</ele><time>2026-04-25T08:55:31.721Z</time></trkpt><trkpt lat="45.4004717" lon="10.6830783"><ele>99.4</ele><time>2026-04-25T08:55:32.722Z</time></trkpt><trkpt lat="45.4004717" lon="10.6832"><ele>99.0</ele><time>2026-04-25T08:55:33.724Z</time></trkpt><trkpt lat="45.4004683" lon="10.6833183"><ele>99.0</ele><time>2026-04-25T08:55:34.719Z</time></trkpt><trkpt lat="45.40046" lon="10.6834167"><ele>99.0</ele><time>2026-04-25T08:55:35.717Z</time></trkpt><trkpt lat="45.4004333" lon="10.6835267"><ele>99.0</ele><time>2026-04-25T08:55:37.72Z</time></trkpt><trkpt lat="45.4003817" lon="10.6835783"><ele>99.0</ele><time>2026-04-25T08:55:41.718Z</time></trkpt><trkpt lat="45.4003" lon="10.683635"><ele>99.0</ele><time>2026-04-25T08:55:44.717Z</time></trkpt><trkpt lat="45.40023" lon="10.6836933"><ele>99.0</ele><time>2026-04-25T08:55:46.718Z</time></trkpt><trkpt lat="45.4001717" lon="10.68373"><ele>98.83333333333333</ele><time>2026-04-25T08:55:47.717Z</time></trkpt><trkpt lat="45.4001083" lon="10.6837717"><ele>98.66666666666666</ele><time>2026-04-25T08:55:48.724Z</time></trkpt><trkpt lat="45.4000217" lon="10.68386"><ele>98.5</ele><time>2026-04-25T08:55:50.717Z</time></trkpt><trkpt lat="45.4000183" lon="10.68402"><ele>98.33333333333333</ele><time>2026-04-25T08:55:52.72Z</time></trkpt><trkpt lat="45.4000217" lon="10.6841283"><ele>98.16666666666666</ele><time>2026-04-25T08:55:53.717Z</time></trkpt><trkpt lat="45.4000283" lon="10.6842467"><ele>98.0</ele><time>2026-04-25T08:55:54.729Z</time></trkpt><trkpt lat="45.4000433" lon="10.68437"><ele>98.0</ele><time>2026-04-25T08:55:55.722Z</time></trkpt><trkpt lat="45.40006" lon="10.684495"><ele>98.0</ele><time>2026-04-25T08:55:56.724Z</time></trkpt><trkpt lat="45.4000767" lon="10.68462"><ele>98.0</ele><time>2026-04-25T08:55:57.719Z</time></trkpt><trkpt lat="45.4001017" lon="10.68474"><ele>98.0</ele><time>2026-04-25T08:55:58.721Z</time></trkpt><trkpt lat="45.40012" lon="10.6848717"><ele>98.0</ele><time>2026-04-25T08:55:59.718Z</time></trkpt><trkpt lat="45.4001417" lon="10.68501"><ele>97.99999999999999</ele><time>2026-04-25T08:56:00.717Z</time></trkpt><trkpt lat="45.4001567" lon="10.6851417"><ele>98.0</ele><time>2026-04-25T08:56:01.722Z</time></trkpt><trkpt lat="45.40017" lon="10.6852683"><ele>98.0</ele><time>2026-04-25T08:56:02.721Z</time></trkpt><trkpt lat="45.4001833" lon="10.685385"><ele>98.0</ele><time>2026-04-25T08:56:03.72Z</time></trkpt><trkpt lat="45.4001983" lon="10.68549"><ele>97.99999999999999</ele><time>2026-04-25T08:56:04.721Z</time></trkpt><trkpt lat="45.40021" lon="10.685595"><ele>98.0</ele><time>2026-04-25T08:56:05.721Z</time></trkpt><trkpt lat="45.40022" lon="10.6856983"><ele>97.80000000000001</ele><time>2026-04-25T08:56:06.719Z</time></trkpt><trkpt lat="45.4002033" lon="10.6858483"><ele>97.6</ele><time>2026-04-25T08:56:08.722Z</time></trkpt><trkpt lat="45.400095" lon="10.6859183"><ele>97.4</ele><time>2026-04-25T08:56:10.719Z</time></trkpt><trkpt lat="45.4" lon="10.6859417"><ele>97.19999999999999</ele><time>2026-04-25T08:56:11.721Z</time></trkpt><trkpt lat="45.3998833" lon="10.68596"><ele>97.0</ele><time>2026-04-25T08:56:12.719Z</time></trkpt><trkpt lat="45.399795" lon="10.685945"><ele>97.0</ele><time>2026-04-25T08:56:13.72Z</time></trkpt><trkpt lat="45.3996967" lon="10.686"><ele>97.0</ele><time>2026-04-25T08:56:14.722Z</time></trkpt><trkpt lat="45.3995717" lon="10.68608"><ele>97.0</ele><time>2026-04-25T08:56:15.72Z</time></trkpt><trkpt lat="45.3994567" lon="10.6861783"><ele>97.0</ele><time>2026-04-25T08:56:16.718Z</time></trkpt><trkpt lat="45.3993483" lon="10.68626"><ele>96.5</ele><time>2026-04-25T08:56:17.722Z</time></trkpt><trkpt lat="45.399225" lon="10.6863617"><ele>96.0</ele><time>2026-04-25T08:56:18.719Z</time></trkpt><trkpt lat="45.3991083" lon="10.6864517"><ele>95.5</ele><time>2026-04-25T08:56:19.719Z</time></trkpt><trkpt lat="45.3989967" lon="10.6865267"><ele>95.0</ele><time>2026-04-25T08:56:20.722Z</time></trkpt><trkpt lat="45.3988983" lon="10.6865783"><ele>95.6</ele><time>2026-04-25T08:56:21.723Z</time></trkpt><trkpt lat="45.3987967" lon="10.6866567"><ele>96.2</ele><time>2026-04-25T08:56:22.718Z</time></trkpt><trkpt lat="45.3987083" lon="10.6867267"><ele>96.80000000000001</ele><time>2026-04-25T08:56:23.716Z</time></trkpt><trkpt lat="45.3986433" lon="10.6867783"><ele>97.4</ele><time>2026-04-25T08:56:24.722Z</time></trkpt><trkpt lat="45.398565" lon="10.6868733"><ele>98.0</ele><time>2026-04-25T08:56:26.721Z</time></trkpt><trkpt lat="45.3985433" lon="10.6870217"><ele>97.99999999999999</ele><time>2026-04-25T08:56:28.721Z</time></trkpt><trkpt lat="45.3985533" lon="10.6871233"><ele>98.0</ele><time>2026-04-25T08:56:29.717Z</time></trkpt><trkpt lat="45.3985633" lon="10.68722"><ele>98.0</ele><time>2026-04-25T08:56:30.726Z</time></trkpt><trkpt lat="45.3985683" lon="10.6873767"><ele>98.0</ele><time>2026-04-25T08:56:32.717Z</time></trkpt><trkpt lat="45.3985067" lon="10.6874083"><ele>97.99999999999999</ele><time>2026-04-25T08:56:34.718Z</time></trkpt><trkpt lat="45.3984033" lon="10.68734"><ele>98.0</ele><time>2026-04-25T08:56:36.717Z</time></trkpt><trkpt lat="45.398345" lon="10.687295"><ele>97.99999999999999</ele><time>2026-04-25T08:56:37.722Z</time></trkpt><trkpt lat="45.3982783" lon="10.6872583"><ele>98.0</ele><time>2026-04-25T08:56:38.719Z</time></trkpt><trkpt lat="45.3982" lon="10.68723"><ele>98.0</ele><time>2026-04-25T08:56:39.722Z</time></trkpt><trkpt lat="45.3981233" lon="10.6872167"><ele>98.0</ele><time>2026-04-25T08:56:40.719Z</time></trkpt><trkpt lat="45.398035" lon="10.68721"><ele>97.99999999999999</ele><time>2026-04-25T08:56:41.72Z</time></trkpt><trkpt lat="45.3979517" lon="10.68722"><ele>98.0</ele><time>2026-04-25T08:56:42.72Z</time></trkpt><trkpt lat="45.3978433" lon="10.6872467"><ele>98.0</ele><time>2026-04-25T08:56:43.721Z</time></trkpt><trkpt lat="45.39772" lon="10.6872867"><ele>98.0</ele><time>2026-04-25T08:56:44.716Z</time></trkpt><trkpt lat="45.39759" lon="10.6873267"><ele>98.0</ele><time>2026-04-25T08:56:45.721Z</time></trkpt><trkpt lat="45.3974617" lon="10.6873883"><ele>98.0</ele><time>2026-04-25T08:56:46.722Z</time></trkpt><trkpt lat="45.3973417" lon="10.6874117"><ele>98.0</ele><time>2026-04-25T08:56:47.72Z</time></trkpt><trkpt lat="45.3972317" lon="10.6874133"><ele>98.0</ele><time>2026-04-25T08:56:48.719Z</time></trkpt><trkpt lat="45.3971067" lon="10.687405"><ele>98.0</ele><time>2026-04-25T08:56:49.721Z</time></trkpt><trkpt lat="45.39698" lon="10.687395"><ele>98.0</ele><time>2026-04-25T08:56:50.717Z</time></trkpt><trkpt lat="45.3968517" lon="10.6874067"><ele>97.4</ele><time>2026-04-25T08:56:51.719Z</time></trkpt><trkpt lat="45.3967167" lon="10.68738"><ele>96.80000000000001</ele><time>2026-04-25T08:56:52.721Z</time></trkpt><trkpt lat="45.3966117" lon="10.6873817"><ele>96.2</ele><time>2026-04-25T08:56:53.721Z</time></trkpt><trkpt lat="45.39652" lon="10.6873733"><ele>95.6</ele><time>2026-04-25T08:56:54.721Z</time></trkpt><trkpt lat="45.396425" lon="10.687375"><ele>95.0</ele><time>2026-04-25T08:56:55.717Z</time></trkpt><trkpt lat="45.3963167" lon="10.6874"><ele>95.0</ele><time>2026-04-25T08:56:56.723Z</time></trkpt><trkpt lat="45.3961983" lon="10.6874067"><ele>95.0</ele><time>2026-04-25T08:56:57.72Z</time></trkpt><trkpt lat="45.39608" lon="10.6874383"><ele>95.0</ele><time>2026-04-25T08:56:58.732Z</time></trkpt><trkpt lat="45.39598" lon="10.68747"><ele>95.0</ele><time>2026-04-25T08:56:59.723Z</time></trkpt><trkpt lat="45.3958917" lon="10.6875033"><ele>95.0</ele><time>2026-04-25T08:57:00.723Z</time></trkpt><trkpt lat="45.3958083" lon="10.687565"><ele>95.0</ele><time>2026-04-25T08:57:01.717Z</time></trkpt><trkpt lat="45.3957367" lon="10.6876883"><ele>95.0</ele><time>2026-04-25T08:57:02.722Z</time></trkpt><trkpt lat="45.3956867" lon="10.6878033"><ele>95.0</ele><time>2026-04-25T08:57:03.716Z</time></trkpt><trkpt lat="45.39565" lon="10.6879467"><ele>95.0</ele><time>2026-04-25T08:57:04.717Z</time></trkpt><trkpt lat="45.39564" lon="10.688095"><ele>95.0</ele><time>2026-04-25T08:57:05.725Z</time></trkpt><trkpt lat="45.39562" lon="10.688265"><ele>94.75</ele><time>2026-04-25T08:57:06.724Z</time></trkpt><trkpt lat="45.395575" lon="10.688415"><ele>94.5</ele><time>2026-04-25T08:57:07.717Z</time></trkpt><trkpt lat="45.39551" lon="10.6885333"><ele>94.25</ele><time>2026-04-25T08:57:08.722Z</time></trkpt><trkpt lat="45.395395" lon="10.6886517"><ele>94.0</ele><time>2026-04-25T08:57:09.72Z</time></trkpt><trkpt lat="45.395275" lon="10.6887617"><ele>94.0</ele><time>2026-04-25T08:57:10.715Z</time></trkpt><trkpt lat="45.3951617" lon="10.6888983"><ele>94.0</ele><time>2026-04-25T08:57:11.722Z</time></trkpt><trkpt lat="45.39504" lon="10.6890417"><ele>94.0</ele><time>2026-04-25T08:57:12.722Z</time></trkpt><trkpt lat="45.3949533" lon="10.6891833"><ele>94.0</ele><time>2026-04-25T08:57:13.716Z</time></trkpt><trkpt lat="45.3948633" lon="10.6893283"><ele>93.5</ele><time>2026-04-25T08:57:14.716Z</time></trkpt><trkpt lat="45.394785" lon="10.689445"><ele>93.0</ele><time>2026-04-25T08:57:15.722Z</time></trkpt><trkpt lat="45.3947183" lon="10.6895317"><ele>92.5</ele><time>2026-04-25T08:57:16.717Z</time></trkpt><trkpt lat="45.3946583" lon="10.6895817"><ele>92.0</ele><time>2026-04-25T08:57:17.722Z</time></trkpt><trkpt lat="45.3945967" lon="10.68964"><ele>91.5</ele><time>2026-04-25T08:57:18.723Z</time></trkpt><trkpt lat="45.3945333" lon="10.6897117"><ele>91.0</ele><time>2026-04-25T08:57:19.725Z</time></trkpt><trkpt lat="45.3944617" lon="10.6897867"><ele>91.0</ele><time>2026-04-25T08:57:20.718Z</time></trkpt><trkpt lat="45.394365" lon="10.6898633"><ele>91.0</ele><time>2026-04-25T08:57:21.72Z</time></trkpt><trkpt lat="45.394275" lon="10.6899383"><ele>91.0</ele><time>2026-04-25T08:57:22.72Z</time></trkpt><trkpt lat="45.3942033" lon="10.690005"><ele>91.0</ele><time>2026-04-25T08:57:23.723Z</time></trkpt><trkpt lat="45.3941283" lon="10.6900567"><ele>91.0</ele><time>2026-04-25T08:57:24.726Z</time></trkpt><trkpt lat="45.3940633" lon="10.690105"><ele>91.0</ele><time>2026-04-25T08:57:25.725Z</time></trkpt><trkpt lat="45.3939983" lon="10.69015"><ele>91.0</ele><time>2026-04-25T08:57:26.732Z</time></trkpt><trkpt lat="45.3939167" lon="10.69019"><ele>91.0</ele><time>2026-04-25T08:57:27.723Z</time></trkpt><trkpt lat="45.393815" lon="10.69023"><ele>91.0</ele><time>2026-04-25T08:57:28.73Z</time></trkpt><trkpt lat="45.3937167" lon="10.6902367"><ele>91.0</ele><time>2026-04-25T08:57:29.719Z</time></trkpt><trkpt lat="45.3936" lon="10.690275"><ele>90.0</ele><time>2026-04-25T08:57:30.727Z</time></trkpt><trkpt lat="45.3934483" lon="10.69035"><ele>89.0</ele><time>2026-04-25T08:57:31.722Z</time></trkpt><trkpt lat="45.3932683" lon="10.6904417"><ele>88.0</ele><time>2026-04-25T08:57:32.725Z</time></trkpt><trkpt lat="45.393095" lon="10.690485"><ele>87.75</ele><time>2026-04-25T08:57:33.723Z</time></trkpt><trkpt lat="45.3929317" lon="10.690535"><ele>87.5</ele><time>2026-04-25T08:57:34.73Z</time></trkpt><trkpt lat="45.392825" lon="10.6905867"><ele>87.25</ele><time>2026-04-25T08:57:35.721Z</time></trkpt><trkpt lat="45.3927283" lon="10.6906033"><ele>87.0</ele><time>2026-04-25T08:57:36.718Z</time></trkpt><trkpt lat="45.392635" lon="10.690625"><ele>87.0</ele><time>2026-04-25T08:57:37.726Z</time></trkpt><trkpt lat="45.3925467" lon="10.6906567"><ele>87.0</ele><time>2026-04-25T08:57:38.723Z</time></trkpt><trkpt lat="45.3924633" lon="10.6906583"><ele>87.0</ele><time>2026-04-25T08:57:39.724Z</time></trkpt><trkpt lat="45.3923783" lon="10.690625"><ele>87.0</ele><time>2026-04-25T08:57:40.721Z</time></trkpt><trkpt lat="45.3922783" lon="10.6905583"><ele>87.0</ele><time>2026-04-25T08:57:41.726Z</time></trkpt><trkpt lat="45.39217" lon="10.6904367"><ele>87.75</ele><time>2026-04-25T08:57:42.72Z</time></trkpt><trkpt lat="45.39205" lon="10.690315"><ele>88.5</ele><time>2026-04-25T08:57:43.722Z</time></trkpt><trkpt lat="45.391925" lon="10.6902217"><ele>89.25</ele><time>2026-04-25T08:57:44.719Z</time></trkpt><trkpt lat="45.3918" lon="10.690125"><ele>90.0</ele><time>2026-04-25T08:57:45.721Z</time></trkpt><trkpt lat="45.3916467" lon="10.690025"><ele>90.0</ele><time>2026-04-25T08:57:46.719Z</time></trkpt><trkpt lat="45.3914717" lon="10.68993"><ele>90.0</ele><time>2026-04-25T08:57:47.725Z</time></trkpt><trkpt lat="45.391295" lon="10.689825"><ele>90.0</ele><time>2026-04-25T08:57:48.717Z</time></trkpt><trkpt lat="45.391115" lon="10.68972"><ele>90.0</ele><time>2026-04-25T08:57:49.731Z</time></trkpt><trkpt lat="45.39092" lon="10.68962"><ele>90.0</ele><time>2026-04-25T08:57:50.73Z</time></trkpt><trkpt lat="45.39073" lon="10.689485"><ele>90.0</ele><time>2026-04-25T08:57:51.726Z</time></trkpt><trkpt lat="45.3905267" lon="10.689355"><ele>89.33333333333333</ele><time>2026-04-25T08:57:52.729Z</time></trkpt><trkpt lat="45.3903417" lon="10.6892533"><ele>88.66666666666666</ele><time>2026-04-25T08:57:53.732Z</time></trkpt><trkpt lat="45.3901633" lon="10.6891733"><ele>88.0</ele><time>2026-04-25T08:57:54.722Z</time></trkpt><trkpt lat="45.39" lon="10.6891167"><ele>88.0</ele><time>2026-04-25T08:57:55.724Z</time></trkpt><trkpt lat="45.38988" lon="10.689045"><ele>88.0</ele><time>2026-04-25T08:57:56.764Z</time></trkpt><trkpt lat="45.3897483" lon="10.6889883"><ele>88.0</ele><time>2026-04-25T08:57:57.724Z</time></trkpt><trkpt lat="45.38964" lon="10.6889317"><ele>88.0</ele><time>2026-04-25T08:57:58.721Z</time></trkpt><trkpt lat="45.3895217" lon="10.6888783"><ele>88.33333333333333</ele><time>2026-04-25T08:57:59.726Z</time></trkpt><trkpt lat="45.3894217" lon="10.6888283"><ele>88.66666666666666</ele><time>2026-04-25T08:58:00.723Z</time></trkpt><trkpt lat="45.3893383" lon="10.688785"><ele>89.0</ele><time>2026-04-25T08:58:01.736Z</time></trkpt><trkpt lat="45.3892617" lon="10.68877"><ele>89.33333333333333</ele><time>2026-04-25T08:58:02.726Z</time></trkpt><trkpt lat="45.3891867" lon="10.68877"><ele>89.66666666666667</ele><time>2026-04-25T08:58:03.724Z</time></trkpt><trkpt lat="45.3891217" lon="10.6888617"><ele>90.0</ele><time>2026-04-25T08:58:04.723Z</time></trkpt><trkpt lat="45.3890583" lon="10.6889683"><ele>90.0</ele><time>2026-04-25T08:58:05.732Z</time></trkpt><trkpt lat="45.389015" lon="10.68914"><ele>90.0</ele><time>2026-04-25T08:58:06.735Z</time></trkpt><trkpt lat="45.3889717" lon="10.68932"><ele>90.0</ele><time>2026-04-25T08:58:07.73Z</time></trkpt><trkpt lat="45.388905" lon="10.689465"><ele>90.0</ele><time>2026-04-25T08:58:08.729Z</time></trkpt><trkpt lat="45.3888483" lon="10.689595"><ele>92.5</ele><time>2026-04-25T08:58:09.718Z</time></trkpt><trkpt lat="45.3887767" lon="10.6897"><ele>95.0</ele><time>2026-04-25T08:58:10.718Z</time></trkpt><trkpt lat="45.3886983" lon="10.68984"><ele>97.5</ele><time>2026-04-25T08:58:11.72Z</time></trkpt><trkpt lat="45.3886183" lon="10.6899867"><ele>100.0</ele><time>2026-04-25T08:58:12.73Z</time></trkpt><trkpt lat="45.38853" lon="10.6901267"><ele>97.5</ele><time>2026-04-25T08:58:13.726Z</time></trkpt><trkpt lat="45.38844" lon="10.6902683"><ele>95.0</ele><time>2026-04-25T08:58:14.715Z</time></trkpt><trkpt lat="45.388355" lon="10.6904117"><ele>92.5</ele><time>2026-04-25T08:58:15.732Z</time></trkpt><trkpt lat="45.388265" lon="10.6905483"><ele>90.0</ele><time>2026-04-25T08:58:16.723Z</time></trkpt><trkpt lat="45.3881933" lon="10.6906583"><ele>90.0</ele><time>2026-04-25T08:58:17.718Z</time></trkpt><trkpt lat="45.3881267" lon="10.6907667"><ele>90.0</ele><time>2026-04-25T08:58:18.73Z</time></trkpt><trkpt lat="45.3880483" lon="10.690875"><ele>90.0</ele><time>2026-04-25T08:58:19.725Z</time></trkpt><trkpt lat="45.387965" lon="10.69098"><ele>90.0</ele><time>2026-04-25T08:58:20.725Z</time></trkpt><trkpt lat="45.38786" lon="10.691085"><ele>90.75</ele><time>2026-04-25T08:58:21.723Z</time></trkpt><trkpt lat="45.3877567" lon="10.6911917"><ele>91.5</ele><time>2026-04-25T08:58:22.722Z</time></trkpt><trkpt lat="45.3876483" lon="10.6912867"><ele>92.25</ele><time>2026-04-25T08:58:23.741Z</time></trkpt><trkpt lat="45.387515" lon="10.6913783"><ele>93.0</ele><time>2026-04-25T08:58:24.724Z</time></trkpt><trkpt lat="45.3874067" lon="10.6914633"><ele>93.0</ele><time>2026-04-25T08:58:25.721Z</time></trkpt><trkpt lat="45.3873283" lon="10.6915383"><ele>93.0</ele><time>2026-04-25T08:58:26.717Z</time></trkpt><trkpt lat="45.3872767" lon="10.6916467"><ele>93.0</ele><time>2026-04-25T08:58:27.715Z</time></trkpt><trkpt lat="45.3872633" lon="10.6918017"><ele>93.0</ele><time>2026-04-25T08:58:28.723Z</time></trkpt><trkpt lat="45.3872483" lon="10.6919117"><ele>93.0</ele><time>2026-04-25T08:58:29.719Z</time></trkpt><trkpt lat="45.3872383" lon="10.6920033"><ele>93.0</ele><time>2026-04-25T08:58:30.729Z</time></trkpt><trkpt lat="45.38719" lon="10.6921417"><ele>93.16666666666667</ele><time>2026-04-25T08:58:32.719Z</time></trkpt><trkpt lat="45.3871083" lon="10.6921533"><ele>93.33333333333333</ele><time>2026-04-25T08:58:34.727Z</time></trkpt><trkpt lat="45.3870283" lon="10.692095"><ele>93.5</ele><time>2026-04-25T08:58:36.722Z</time></trkpt><trkpt lat="45.38695" lon="10.69204"><ele>93.66666666666666</ele><time>2026-04-25T08:58:38.722Z</time></trkpt><trkpt lat="45.3868567" lon="10.6919833"><ele>93.83333333333333</ele><time>2026-04-25T08:58:40.725Z</time></trkpt><trkpt lat="45.3867933" lon="10.6919533"><ele>94.0</ele><time>2026-04-25T08:58:41.724Z</time></trkpt><trkpt lat="45.386725" lon="10.6919183"><ele>94.0</ele><time>2026-04-25T08:58:42.716Z</time></trkpt><trkpt lat="45.386655" lon="10.6918867"><ele>94.0</ele><time>2026-04-25T08:58:43.72Z</time></trkpt><trkpt lat="45.3865867" lon="10.6918667"><ele>94.0</ele><time>2026-04-25T08:58:44.718Z</time></trkpt><trkpt lat="45.38649" lon="10.6918433"><ele>94.0</ele><time>2026-04-25T08:58:46.722Z</time></trkpt><trkpt lat="45.3864283" lon="10.6918733"><ele>94.0</ele><time>2026-04-25T08:58:49.719Z</time></trkpt><trkpt lat="45.3863867" lon="10.6919933"><ele>94.0</ele><time>2026-04-25T08:58:52.723Z</time></trkpt><trkpt lat="45.3863583" lon="10.6920983"><ele>93.2</ele><time>2026-04-25T08:58:54.721Z</time></trkpt><trkpt lat="45.38632" lon="10.6922417"><ele>92.4</ele><time>2026-04-25T08:58:56.734Z</time></trkpt><trkpt lat="45.3862817" lon="10.692325"><ele>91.6</ele><time>2026-04-25T08:58:57.724Z</time></trkpt><trkpt lat="45.3862217" lon="10.69247"><ele>90.8</ele><time>2026-04-25T08:58:59.724Z</time></trkpt><trkpt lat="45.386175" lon="10.692595"><ele>90.0</ele><time>2026-04-25T08:59:01.722Z</time></trkpt><trkpt lat="45.3861383" lon="10.6927"><ele>90.0</ele><time>2026-04-25T08:59:03.713Z</time></trkpt><trkpt lat="45.3861133" lon="10.6927867"><ele>90.0</ele><time>2026-04-25T08:59:05.741Z</time></trkpt><trkpt lat="45.3860367" lon="10.6928517"><ele>90.0</ele><time>2026-04-25T08:59:11.715Z</time></trkpt><trkpt lat="45.385935" lon="10.6928483"><ele>90.0</ele><time>2026-04-25T08:59:13.724Z</time></trkpt><trkpt lat="45.3858617" lon="10.69281"><ele>90.0</ele><time>2026-04-25T08:59:14.717Z</time></trkpt><trkpt lat="45.38577" lon="10.69275"><ele>90.0</ele><time>2026-04-25T08:59:15.716Z</time></trkpt><trkpt lat="45.3856767" lon="10.6927367"><ele>90.0</ele><time>2026-04-25T08:59:16.719Z</time></trkpt><trkpt lat="45.3855867" lon="10.692725"><ele>90.0</ele><time>2026-04-25T08:59:17.72Z</time></trkpt><trkpt lat="45.38548" lon="10.6927383"><ele>90.0</ele><time>2026-04-25T08:59:18.72Z</time></trkpt><trkpt lat="45.3853483" lon="10.692755"><ele>90.0</ele><time>2026-04-25T08:59:19.719Z</time></trkpt><trkpt lat="45.3852217" lon="10.69281"><ele>87.25</ele><time>2026-04-25T08:59:20.735Z</time></trkpt><trkpt lat="45.38511" lon="10.6928617"><ele>84.5</ele><time>2026-04-25T08:59:21.727Z</time></trkpt><trkpt lat="45.38499" lon="10.6929433"><ele>81.75</ele><time>2026-04-25T08:59:22.719Z</time></trkpt><trkpt lat="45.38487" lon="10.6930433"><ele>79.0</ele><time>2026-04-25T08:59:23.735Z</time></trkpt><trkpt lat="45.3847517" lon="10.693135"><ele>77.0</ele><time>2026-04-25T08:59:24.721Z</time></trkpt><trkpt lat="45.3846433" lon="10.6931867"><ele>75.0</ele><time>2026-04-25T08:59:25.722Z</time></trkpt><trkpt lat="45.3845267" lon="10.693225"><ele>73.0</ele><time>2026-04-25T08:59:26.731Z</time></trkpt><trkpt lat="45.3844133" lon="10.693265"><ele>71.0</ele><time>2026-04-25T08:59:27.73Z</time></trkpt><trkpt lat="45.3842967" lon="10.693305"><ele>71.0</ele><time>2026-04-25T08:59:28.715Z</time></trkpt><trkpt lat="45.3842083" lon="10.6932917"><ele>71.0</ele><time>2026-04-25T08:59:29.726Z</time></trkpt><trkpt lat="45.384115" lon="10.6933017"><ele>71.0</ele><time>2026-04-25T08:59:30.725Z</time></trkpt><trkpt lat="45.3840267" lon="10.69333"><ele>71.0</ele><time>2026-04-25T08:59:31.724Z</time></trkpt><trkpt lat="45.383945" lon="10.6933467"><ele>71.0</ele><time>2026-04-25T08:59:32.721Z</time></trkpt><trkpt lat="45.3838767" lon="10.6933733"><ele>71.0</ele><time>2026-04-25T08:59:33.714Z</time></trkpt><trkpt lat="45.383805" lon="10.6934517"><ele>70.8</ele><time>2026-04-25T08:59:35.727Z</time></trkpt><trkpt lat="45.3838283" lon="10.6935633"><ele>70.6</ele><time>2026-04-25T08:59:44.727Z</time></trkpt><trkpt lat="45.3839" lon="10.6936917"><ele>70.4</ele><time>2026-04-25T08:59:46.715Z</time></trkpt><trkpt lat="45.3839933" lon="10.6937233"><ele>70.2</ele><time>2026-04-25T08:59:47.716Z</time></trkpt><trkpt lat="45.3840933" lon="10.6937467"><ele>70.0</ele><time>2026-04-25T08:59:48.717Z</time></trkpt><trkpt lat="45.3842133" lon="10.6937733"><ele>69.83333333333333</ele><time>2026-04-25T08:59:49.714Z</time></trkpt><trkpt lat="45.3843267" lon="10.6937733"><ele>69.66666666666666</ele><time>2026-04-25T08:59:50.715Z</time></trkpt><trkpt lat="45.384425" lon="10.693765"><ele>69.5</ele><time>2026-04-25T08:59:51.721Z</time></trkpt><trkpt lat="45.3845067" lon="10.6937633"><ele>69.33333333333333</ele><time>2026-04-25T08:59:52.719Z</time></trkpt><trkpt lat="45.384585" lon="10.6937617"><ele>69.16666666666667</ele><time>2026-04-25T08:59:53.72Z</time></trkpt><trkpt lat="45.3846567" lon="10.6937583"><ele>69.0</ele><time>2026-04-25T08:59:54.716Z</time></trkpt><trkpt lat="45.38472" lon="10.693755"><ele>69.0</ele><time>2026-04-25T08:59:55.718Z</time></trkpt><trkpt lat="45.3847817" lon="10.6937783"><ele>69.0</ele><time>2026-04-25T08:59:56.716Z</time></trkpt><trkpt lat="45.3848533" lon="10.6938983"><ele>69.0</ele><time>2026-04-25T08:59:58.713Z</time></trkpt><trkpt lat="45.3848983" lon="10.6940383"><ele>69.0</ele><time>2026-04-25T09:00:00.723Z</time></trkpt><trkpt lat="45.3848717" lon="10.6941733"><ele>69.0</ele><time>2026-04-25T09:00:01.724Z</time></trkpt><trkpt lat="45.3848183" lon="10.6943367"><ele>67.25</ele><time>2026-04-25T09:00:02.725Z</time></trkpt><trkpt lat="45.3847767" lon="10.6944833"><ele>65.5</ele><time>2026-04-25T09:00:03.725Z</time></trkpt><trkpt lat="45.3847483" lon="10.694635"><ele>63.75</ele><time>2026-04-25T09:00:04.721Z</time></trkpt><trkpt lat="45.3847117" lon="10.6948067"><ele>62.0</ele><time>2026-04-25T09:00:05.722Z</time></trkpt><trkpt lat="45.3846733" lon="10.6950017"><ele>61.5</ele><time>2026-04-25T09:00:06.724Z</time></trkpt><trkpt lat="45.384635" lon="10.695175"><ele>61.0</ele><time>2026-04-25T09:00:07.718Z</time></trkpt><trkpt lat="45.3845933" lon="10.6953783"><ele>60.5</ele><time>2026-04-25T09:00:08.727Z</time></trkpt><trkpt lat="45.3845667" lon="10.6955617"><ele>60.0</ele><time>2026-04-25T09:00:09.72Z</time></trkpt><trkpt lat="45.3845433" lon="10.69572"><ele>60.0</ele><time>2026-04-25T09:00:10.723Z</time></trkpt><trkpt lat="45.3845117" lon="10.69585"><ele>60.0</ele><time>2026-04-25T09:00:11.724Z</time></trkpt><trkpt lat="45.3844917" lon="10.6959733"><ele>60.0</ele><time>2026-04-25T09:00:12.73Z</time></trkpt><trkpt lat="45.3844733" lon="10.6960983"><ele>60.0</ele><time>2026-04-25T09:00:13.727Z</time></trkpt><trkpt lat="45.38446" lon="10.6962183"><ele>60.0</ele><time>2026-04-25T09:00:14.727Z</time></trkpt><trkpt lat="45.384445" lon="10.69633"><ele>60.0</ele><time>2026-04-25T09:00:15.722Z</time></trkpt><trkpt lat="45.3844317" lon="10.6964367"><ele>60.5</ele><time>2026-04-25T09:00:16.722Z</time></trkpt><trkpt lat="45.38442" lon="10.69654"><ele>61.0</ele><time>2026-04-25T09:00:17.716Z</time></trkpt><trkpt lat="45.384405" lon="10.6966433"><ele>61.5</ele><time>2026-04-25T09:00:18.722Z</time></trkpt><trkpt lat="45.3843917" lon="10.6967467"><ele>62.0</ele><time>2026-04-25T09:00:19.727Z</time></trkpt><trkpt lat="45.3843617" lon="10.6968817"><ele>62.5</ele><time>2026-04-25T09:00:21.721Z</time></trkpt><trkpt lat="45.3843967" lon="10.696985"><ele>63.0</ele><time>2026-04-25T09:00:24.721Z</time></trkpt><trkpt lat="45.3844483" lon="10.697045"><ele>63.5</ele><time>2026-04-25T09:00:25.721Z</time></trkpt><trkpt lat="45.3845367" lon="10.69711"><ele>64.0</ele><time>2026-04-25T09:00:26.719Z</time></trkpt><trkpt lat="45.3846533" lon="10.69719"><ele>64.5</ele><time>2026-04-25T09:00:27.718Z</time></trkpt><trkpt lat="45.384775" lon="10.6972983"><ele>65.0</ele><time>2026-04-25T09:00:28.726Z</time></trkpt><trkpt lat="45.384895" lon="10.6974033"><ele>65.2</ele><time>2026-04-25T09:00:29.723Z</time></trkpt><trkpt lat="45.3850083" lon="10.6974933"><ele>65.4</ele><time>2026-04-25T09:00:30.725Z</time></trkpt><trkpt lat="45.3851033" lon="10.69759"><ele>65.6</ele><time>2026-04-25T09:00:31.729Z</time></trkpt><trkpt lat="45.38519" lon="10.697675"><ele>65.8</ele><time>2026-04-25T09:00:32.728Z</time></trkpt><trkpt lat="45.3852567" lon="10.6977633"><ele>66.0</ele><time>2026-04-25T09:00:33.73Z</time></trkpt><trkpt lat="45.3852817" lon="10.6978717"><ele>66.0</ele><time>2026-04-25T09:00:34.724Z</time></trkpt><trkpt lat="45.3852933" lon="10.6979683"><ele>66.0</ele><time>2026-04-25T09:00:35.729Z</time></trkpt><trkpt lat="45.385295" lon="10.6980883"><ele>66.0</ele><time>2026-04-25T09:00:37.739Z</time></trkpt><trkpt lat="45.3853983" lon="10.6981567"><ele>66.0</ele><time>2026-04-25T09:00:44.717Z</time></trkpt><trkpt lat="45.3854917" lon="10.69816"><ele>66.0</ele><time>2026-04-25T09:00:45.724Z</time></trkpt><trkpt lat="45.3855917" lon="10.698165"><ele>65.6</ele><time>2026-04-25T09:00:46.723Z</time></trkpt><trkpt lat="45.3857117" lon="10.6981683"><ele>65.19999999999999</ele><time>2026-04-25T09:00:47.722Z</time></trkpt><trkpt lat="45.3858317" lon="10.6981717"><ele>64.80000000000001</ele><time>2026-04-25T09:00:48.722Z</time></trkpt><trkpt lat="45.385935" lon="10.69821"><ele>64.4</ele><time>2026-04-25T09:00:49.725Z</time></trkpt><trkpt lat="45.38603" lon="10.698255"><ele>64.0</ele><time>2026-04-25T09:00:50.729Z</time></trkpt><trkpt lat="45.386125" lon="10.6982783"><ele>64.0</ele><time>2026-04-25T09:00:51.72Z</time></trkpt><trkpt lat="45.3862417" lon="10.6983317"><ele>64.0</ele><time>2026-04-25T09:00:52.725Z</time></trkpt><trkpt lat="45.3863233" lon="10.698385"><ele>64.0</ele><time>2026-04-25T09:00:53.726Z</time></trkpt><trkpt lat="45.386385" lon="10.69842"><ele>64.0</ele><time>2026-04-25T09:00:54.73Z</time></trkpt><trkpt lat="45.3864817" lon="10.6984883"><ele>64.0</ele><time>2026-04-25T09:00:56.762Z</time></trkpt><trkpt lat="45.3865367" lon="10.6986267"><ele>64.2</ele><time>2026-04-25T09:00:59.724Z</time></trkpt><trkpt lat="45.38649" lon="10.6988083"><ele>64.4</ele><time>2026-04-25T09:01:01.729Z</time></trkpt><trkpt lat="45.38645" lon="10.698925"><ele>64.6</ele><time>2026-04-25T09:01:02.724Z</time></trkpt><trkpt lat="45.3864133" lon="10.699045"><ele>64.8</ele><time>2026-04-25T09:01:03.74Z</time></trkpt><trkpt lat="45.3863767" lon="10.6991767"><ele>65.0</ele><time>2026-04-25T09:01:04.723Z</time></trkpt><trkpt lat="45.386345" lon="10.6993067"><ele>65.16666666666667</ele><time>2026-04-25T09:01:05.731Z</time></trkpt><trkpt lat="45.3863183" lon="10.6994183"><ele>65.33333333333334</ele><time>2026-04-25T09:01:06.724Z</time></trkpt><trkpt lat="45.3862983" lon="10.6995133"><ele>65.5</ele><time>2026-04-25T09:01:07.726Z</time></trkpt><trkpt lat="45.386285" lon="10.699605"><ele>65.66666666666667</ele><time>2026-04-25T09:01:08.73Z</time></trkpt><trkpt lat="45.38629" lon="10.6997033"><ele>65.83333333333333</ele><time>2026-04-25T09:01:09.722Z</time></trkpt><trkpt lat="45.3863083" lon="10.69982"><ele>66.0</ele><time>2026-04-25T09:01:10.719Z</time></trkpt><trkpt lat="45.3863383" lon="10.6999617"><ele>66.0</ele><time>2026-04-25T09:01:11.723Z</time></trkpt><trkpt lat="45.38639" lon="10.700135"><ele>66.0</ele><time>2026-04-25T09:01:12.723Z</time></trkpt><trkpt lat="45.3864117" lon="10.7003517"><ele>66.0</ele><time>2026-04-25T09:01:13.716Z</time></trkpt><trkpt lat="45.3864483" lon="10.7005983"><ele>66.33333333333333</ele><time>2026-04-25T09:01:14.72Z</time></trkpt><trkpt lat="45.38647" lon="10.7008467"><ele>66.66666666666666</ele><time>2026-04-25T09:01:15.723Z</time></trkpt><trkpt lat="45.386485" lon="10.70114"><ele>67.0</ele><time>2026-04-25T09:01:16.719Z</time></trkpt><trkpt lat="45.3865133" lon="10.7014317"><ele>68.33333333333333</ele><time>2026-04-25T09:01:17.719Z</time></trkpt><trkpt lat="45.38654" lon="10.7016867"><ele>69.66666666666667</ele><time>2026-04-25T09:01:18.72Z</time></trkpt><trkpt lat="45.3865667" lon="10.7019133"><ele>71.0</ele><time>2026-04-25T09:01:19.714Z</time></trkpt><trkpt lat="45.3865883" lon="10.702105"><ele>71.33333333333334</ele><time>2026-04-25T09:01:20.717Z</time></trkpt><trkpt lat="45.3866133" lon="10.702325"><ele>71.66666666666667</ele><time>2026-04-25T09:01:21.721Z</time></trkpt><trkpt lat="45.386675" lon="10.7025433"><ele>72.0</ele><time>2026-04-25T09:01:22.718Z</time></trkpt><trkpt lat="45.3867383" lon="10.7027817"><ele>72.0</ele><time>2026-04-25T09:01:23.714Z</time></trkpt><trkpt lat="45.3868233" lon="10.70302"><ele>72.0</ele><time>2026-04-25T09:01:24.723Z</time></trkpt><trkpt lat="45.386905" lon="10.703255"><ele>72.0</ele><time>2026-04-25T09:01:25.719Z</time></trkpt><trkpt lat="45.386965" lon="10.7034717"><ele>72.25</ele><time>2026-04-25T09:01:26.718Z</time></trkpt><trkpt lat="45.3870333" lon="10.7036417"><ele>72.5</ele><time>2026-04-25T09:01:27.724Z</time></trkpt><trkpt lat="45.3870917" lon="10.7038367"><ele>72.75</ele><time>2026-04-25T09:01:28.717Z</time></trkpt><trkpt lat="45.3871033" lon="10.70406"><ele>73.0</ele><time>2026-04-25T09:01:29.717Z</time></trkpt><trkpt lat="45.3871117" lon="10.7043"><ele>73.0</ele><time>2026-04-25T09:01:30.719Z</time></trkpt><trkpt lat="45.3871183" lon="10.7045567"><ele>73.0</ele><time>2026-04-25T09:01:31.722Z</time></trkpt><trkpt lat="45.387115" lon="10.7048"><ele>73.0</ele><time>2026-04-25T09:01:32.715Z</time></trkpt><trkpt lat="45.38713" lon="10.70505"><ele>72.66666666666666</ele><time>2026-04-25T09:01:33.722Z</time></trkpt><trkpt lat="45.38714" lon="10.7053367"><ele>72.33333333333333</ele><time>2026-04-25T09:01:34.739Z</time></trkpt><trkpt lat="45.3871467" lon="10.705605"><ele>72.0</ele><time>2026-04-25T09:01:35.732Z</time></trkpt><trkpt lat="45.3871617" lon="10.7058683"><ele>72.0</ele><time>2026-04-25T09:01:36.72Z</time></trkpt><trkpt lat="45.387175" lon="10.7061317"><ele>72.0</ele><time>2026-04-25T09:01:37.726Z</time></trkpt><trkpt lat="45.3871767" lon="10.70636"><ele>72.0</ele><time>2026-04-25T09:01:38.723Z</time></trkpt><trkpt lat="45.3871867" lon="10.7065767"><ele>72.0</ele><time>2026-04-25T09:01:39.722Z</time></trkpt><trkpt lat="45.387185" lon="10.7067817"><ele>72.0</ele><time>2026-04-25T09:01:40.731Z</time></trkpt><trkpt lat="45.3871967" lon="10.70698"><ele>72.0</ele><time>2026-04-25T09:01:41.722Z</time></trkpt><trkpt lat="45.38721" lon="10.70717"><ele>72.0</ele><time>2026-04-25T09:01:42.721Z</time></trkpt><trkpt lat="45.387245" lon="10.7073383"><ele>72.8</ele><time>2026-04-25T09:01:43.725Z</time></trkpt><trkpt lat="45.387275" lon="10.7074733"><ele>73.6</ele><time>2026-04-25T09:01:44.726Z</time></trkpt><trkpt lat="45.3873167" lon="10.7075833"><ele>74.39999999999999</ele><time>2026-04-25T09:01:45.722Z</time></trkpt><trkpt lat="45.3873467" lon="10.7076667"><ele>75.2</ele><time>2026-04-25T09:01:46.724Z</time></trkpt><trkpt lat="45.3874083" lon="10.707815"><ele>76.0</ele><time>2026-04-25T09:01:48.728Z</time></trkpt><trkpt lat="45.38745" lon="10.70791"><ele>76.75</ele><time>2026-04-25T09:01:49.726Z</time></trkpt><trkpt lat="45.3875" lon="10.7080283"><ele>77.5</ele><time>2026-04-25T09:01:50.723Z</time></trkpt><trkpt lat="45.3875633" lon="10.708165"><ele>78.25</ele><time>2026-04-25T09:01:51.717Z</time></trkpt><trkpt lat="45.3876433" lon="10.7083333"><ele>79.0</ele><time>2026-04-25T09:01:52.715Z</time></trkpt><trkpt lat="45.3877383" lon="10.7085083"><ele>79.0</ele><time>2026-04-25T09:01:53.72Z</time></trkpt><trkpt lat="45.3878467" lon="10.70868"><ele>79.0</ele><time>2026-04-25T09:01:54.724Z</time></trkpt><trkpt lat="45.3879683" lon="10.7088617"><ele>79.0</ele><time>2026-04-25T09:01:55.719Z</time></trkpt><trkpt lat="45.3880933" lon="10.709005"><ele>79.0</ele><time>2026-04-25T09:01:56.722Z</time></trkpt><trkpt lat="45.38824" lon="10.7091733"><ele>79.0</ele><time>2026-04-25T09:01:57.72Z</time></trkpt><trkpt lat="45.3883883" lon="10.70935"><ele>79.0</ele><time>2026-04-25T09:01:58.716Z</time></trkpt><trkpt lat="45.3885383" lon="10.70955"><ele>79.33333333333333</ele><time>2026-04-25T09:01:59.721Z</time></trkpt><trkpt lat="45.3887067" lon="10.7097433"><ele>79.66666666666667</ele><time>2026-04-25T09:02:00.722Z</time></trkpt><trkpt lat="45.3888817" lon="10.7099383"><ele>80.0</ele><time>2026-04-25T09:02:01.727Z</time></trkpt><trkpt lat="45.38903" lon="10.7101267"><ele>80.66666666666667</ele><time>2026-04-25T09:02:02.722Z</time></trkpt><trkpt lat="45.3891583" lon="10.7102817"><ele>81.33333333333333</ele><time>2026-04-25T09:02:03.722Z</time></trkpt><trkpt lat="45.3892717" lon="10.7104283"><ele>82.0</ele><time>2026-04-25T09:02:04.718Z</time></trkpt><trkpt lat="45.3893783" lon="10.7105583"><ele>82.0</ele><time>2026-04-25T09:02:05.729Z</time></trkpt><trkpt lat="45.389475" lon="10.7106717"><ele>82.0</ele><time>2026-04-25T09:02:06.726Z</time></trkpt><trkpt lat="45.3895683" lon="10.7107767"><ele>82.0</ele><time>2026-04-25T09:02:07.73Z</time></trkpt><trkpt lat="45.3896667" lon="10.7108867"><ele>82.0</ele><time>2026-04-25T09:02:08.722Z</time></trkpt><trkpt lat="45.3897417" lon="10.7109967"><ele>82.33333333333333</ele><time>2026-04-25T09:02:09.729Z</time></trkpt><trkpt lat="45.38983" lon="10.7110967"><ele>82.66666666666666</ele><time>2026-04-25T09:02:10.732Z</time></trkpt><trkpt lat="45.389905" lon="10.7111867"><ele>83.0</ele><time>2026-04-25T09:02:11.739Z</time></trkpt><trkpt lat="45.3899733" lon="10.711265"><ele>83.33333333333333</ele><time>2026-04-25T09:02:12.725Z</time></trkpt><trkpt lat="45.3900283" lon="10.7113333"><ele>83.66666666666667</ele><time>2026-04-25T09:02:13.734Z</time></trkpt><trkpt lat="45.3900817" lon="10.71139"><ele>84.0</ele><time>2026-04-25T09:02:14.755Z</time></trkpt><trkpt lat="45.3901617" lon="10.711495"><ele>84.0</ele><time>2026-04-25T09:02:16.746Z</time></trkpt><trkpt lat="45.3902317" lon="10.7116067"><ele>84.0</ele><time>2026-04-25T09:02:18.725Z</time></trkpt><trkpt lat="45.3902933" lon="10.7117"><ele>84.0</ele><time>2026-04-25T09:02:20.721Z</time></trkpt><trkpt lat="45.39034" lon="10.7118067"><ele>84.0</ele><time>2026-04-25T09:02:23.717Z</time></trkpt><trkpt lat="45.3903767" lon="10.7119317"><ele>84.0</ele><time>2026-04-25T09:02:25.723Z</time></trkpt><trkpt lat="45.3904017" lon="10.7120183"><ele>84.0</ele><time>2026-04-25T09:02:26.72Z</time></trkpt><trkpt lat="45.3904333" lon="10.712115"><ele>83.80000000000001</ele><time>2026-04-25T09:02:27.714Z</time></trkpt><trkpt lat="45.3904683" lon="10.7122267"><ele>83.60000000000001</ele><time>2026-04-25T09:02:28.723Z</time></trkpt><trkpt lat="45.3905083" lon="10.7123467"><ele>83.4</ele><time>2026-04-25T09:02:29.72Z</time></trkpt><trkpt lat="45.390555" lon="10.7124783"><ele>83.2</ele><time>2026-04-25T09:02:30.715Z</time></trkpt><trkpt lat="45.3905967" lon="10.7126167"><ele>83.0</ele><time>2026-04-25T09:02:31.717Z</time></trkpt><trkpt lat="45.3906533" lon="10.7127667"><ele>83.5</ele><time>2026-04-25T09:02:32.716Z</time></trkpt><trkpt lat="45.3906933" lon="10.7128967"><ele>84.0</ele><time>2026-04-25T09:02:33.714Z</time></trkpt><trkpt lat="45.3907183" lon="10.7130167"><ele>84.5</ele><time>2026-04-25T09:02:34.73Z</time></trkpt><trkpt lat="45.3907483" lon="10.713115"><ele>85.0</ele><time>2026-04-25T09:02:35.727Z</time></trkpt><trkpt lat="45.3907783" lon="10.7132017"><ele>85.5</ele><time>2026-04-25T09:02:36.726Z</time></trkpt><trkpt lat="45.3908083" lon="10.713295"><ele>86.0</ele><time>2026-04-25T09:02:37.736Z</time></trkpt><trkpt lat="45.390845" lon="10.7134"><ele>86.0</ele><time>2026-04-25T09:02:38.721Z</time></trkpt><trkpt lat="45.39088" lon="10.7135233"><ele>86.0</ele><time>2026-04-25T09:02:39.737Z</time></trkpt><trkpt lat="45.3909183" lon="10.7136683"><ele>86.0</ele><time>2026-04-25T09:02:40.724Z</time></trkpt><trkpt lat="45.3909483" lon="10.71383"><ele>86.0</ele><time>2026-04-25T09:02:41.729Z</time></trkpt><trkpt lat="45.3909883" lon="10.7140033"><ele>86.0</ele><time>2026-04-25T09:02:42.717Z</time></trkpt><trkpt lat="45.3910233" lon="10.7141717"><ele>85.75</ele><time>2026-04-25T09:02:43.73Z</time></trkpt><trkpt lat="45.3910533" lon="10.7143383"><ele>85.5</ele><time>2026-04-25T09:02:44.716Z</time></trkpt><trkpt lat="45.3910983" lon="10.7145217"><ele>85.25</ele><time>2026-04-25T09:02:45.718Z</time></trkpt><trkpt lat="45.391145" lon="10.71471"><ele>85.0</ele><time>2026-04-25T09:02:46.719Z</time></trkpt><trkpt lat="45.3911783" lon="10.7148933"><ele>84.75</ele><time>2026-04-25T09:02:47.731Z</time></trkpt><trkpt lat="45.3912183" lon="10.715065"><ele>84.5</ele><time>2026-04-25T09:02:48.736Z</time></trkpt><trkpt lat="45.3912533" lon="10.7152317"><ele>84.25</ele><time>2026-04-25T09:02:49.725Z</time></trkpt><trkpt lat="45.3912833" lon="10.7154017"><ele>84.0</ele><time>2026-04-25T09:02:50.73Z</time></trkpt><trkpt lat="45.391305" lon="10.7155667"><ele>84.0</ele><time>2026-04-25T09:02:51.742Z</time></trkpt><trkpt lat="45.391325" lon="10.7156817"><ele>84.0</ele><time>2026-04-25T09:02:52.727Z</time></trkpt><trkpt lat="45.3913283" lon="10.7157883"><ele>84.0</ele><time>2026-04-25T09:02:53.722Z</time></trkpt><trkpt lat="45.3913717" lon="10.7159267"><ele>84.0</ele><time>2026-04-25T09:02:55.725Z</time></trkpt><trkpt lat="45.39147" lon="10.71598"><ele>84.0</ele><time>2026-04-25T09:02:57.725Z</time></trkpt><trkpt lat="45.3915633" lon="10.7159533"><ele>83.75</ele><time>2026-04-25T09:02:58.727Z</time></trkpt><trkpt lat="45.39166" lon="10.7159083"><ele>83.5</ele><time>2026-04-25T09:02:59.731Z</time></trkpt><trkpt lat="45.3917783" lon="10.715885"><ele>83.25</ele><time>2026-04-25T09:03:00.734Z</time></trkpt><trkpt lat="45.39191" lon="10.7158717"><ele>83.0</ele><time>2026-04-25T09:03:01.734Z</time></trkpt><trkpt lat="45.3920217" lon="10.7158583"><ele>83.0</ele><time>2026-04-25T09:03:02.737Z</time></trkpt><trkpt lat="45.3920983" lon="10.7158567"><ele>83.0</ele><time>2026-04-25T09:03:03.725Z</time></trkpt><trkpt lat="45.3921717" lon="10.7158433"><ele>83.0</ele><time>2026-04-25T09:03:04.734Z</time></trkpt><trkpt lat="45.3922817" lon="10.715785"><ele>83.0</ele><time>2026-04-25T09:03:06.727Z</time></trkpt><trkpt lat="45.3923517" lon="10.7157517"><ele>83.0</ele><time>2026-04-25T09:03:08.731Z</time></trkpt><trkpt lat="45.3924283" lon="10.7158083"><ele>83.0</ele><time>2026-04-25T09:03:10.723Z</time></trkpt><trkpt lat="45.3924717" lon="10.71589"><ele>82.5</ele><time>2026-04-25T09:03:11.723Z</time></trkpt><trkpt lat="45.3925267" lon="10.7159967"><ele>82.0</ele><time>2026-04-25T09:03:12.722Z</time></trkpt><trkpt lat="45.3925983" lon="10.716145"><ele>81.5</ele><time>2026-04-25T09:03:13.721Z</time></trkpt><trkpt lat="45.3926717" lon="10.716285"><ele>81.0</ele><time>2026-04-25T09:03:14.716Z</time></trkpt><trkpt lat="45.3927433" lon="10.71642"><ele>81.0</ele><time>2026-04-25T09:03:15.715Z</time></trkpt><trkpt lat="45.39283" lon="10.71657"><ele>81.0</ele><time>2026-04-25T09:03:16.721Z</time></trkpt><trkpt lat="45.3929233" lon="10.7167283"><ele>81.0</ele><time>2026-04-25T09:03:17.731Z</time></trkpt><trkpt lat="45.3930083" lon="10.7168667"><ele>81.0</ele><time>2026-04-25T09:03:18.721Z</time></trkpt><trkpt lat="45.3931033" lon="10.7169667"><ele>81.4</ele><time>2026-04-25T09:03:19.72Z</time></trkpt><trkpt lat="45.39319" lon="10.717045"><ele>81.8</ele><time>2026-04-25T09:03:20.719Z</time></trkpt><trkpt lat="45.3932667" lon="10.71711"><ele>82.2</ele><time>2026-04-25T09:03:21.717Z</time></trkpt><trkpt lat="45.3933533" lon="10.7171767"><ele>82.60000000000001</ele><time>2026-04-25T09:03:22.722Z</time></trkpt><trkpt lat="45.3934767" lon="10.71722"><ele>83.0</ele><time>2026-04-25T09:03:23.72Z</time></trkpt><trkpt lat="45.3936017" lon="10.7172633"><ele>83.0</ele><time>2026-04-25T09:03:24.722Z</time></trkpt><trkpt lat="45.3937483" lon="10.7172967"><ele>83.0</ele><time>2026-04-25T09:03:25.716Z</time></trkpt><trkpt lat="45.3939083" lon="10.7173583"><ele>83.0</ele><time>2026-04-25T09:03:26.723Z</time></trkpt><trkpt lat="45.3940817" lon="10.71744"><ele>83.66666666666667</ele><time>2026-04-25T09:03:27.715Z</time></trkpt><trkpt lat="45.3942367" lon="10.7175283"><ele>84.33333333333333</ele><time>2026-04-25T09:03:28.718Z</time></trkpt><trkpt lat="45.39443" lon="10.717645"><ele>85.0</ele><time>2026-04-25T09:03:29.719Z</time></trkpt><trkpt lat="45.3946233" lon="10.7177717"><ele>83.66666666666666</ele><time>2026-04-25T09:03:30.726Z</time></trkpt><trkpt lat="45.394795" lon="10.7179033"><ele>82.33333333333333</ele><time>2026-04-25T09:03:31.724Z</time></trkpt><trkpt lat="45.39493" lon="10.718005"><ele>81.0</ele><time>2026-04-25T09:03:32.732Z</time></trkpt><trkpt lat="45.3950833" lon="10.7181183"><ele>81.0</ele><time>2026-04-25T09:03:33.725Z</time></trkpt><trkpt lat="45.3952417" lon="10.7182283"><ele>81.0</ele><time>2026-04-25T09:03:34.723Z</time></trkpt><trkpt lat="45.3953833" lon="10.7183"><ele>81.0</ele><time>2026-04-25T09:03:35.734Z</time></trkpt><trkpt lat="45.3954983" lon="10.7183667"><ele>80.75</ele><time>2026-04-25T09:03:36.726Z</time></trkpt><trkpt lat="45.3956133" lon="10.71843"><ele>80.5</ele><time>2026-04-25T09:03:37.728Z</time></trkpt><trkpt lat="45.3957233" lon="10.7184933"><ele>80.25</ele><time>2026-04-25T09:03:38.724Z</time></trkpt><trkpt lat="45.3958333" lon="10.7185583"><ele>80.0</ele><time>2026-04-25T09:03:39.731Z</time></trkpt><trkpt lat="45.3959367" lon="10.7186"><ele>81.66666666666667</ele><time>2026-04-25T09:03:40.743Z</time></trkpt><trkpt lat="45.3960533" lon="10.71864"><ele>83.33333333333334</ele><time>2026-04-25T09:03:41.734Z</time></trkpt><trkpt lat="45.39614" lon="10.7187"><ele>85.0</ele><time>2026-04-25T09:03:42.763Z</time></trkpt><trkpt lat="45.396185" lon="10.7187883"><ele>86.66666666666667</ele><time>2026-04-25T09:03:43.734Z</time></trkpt><trkpt lat="45.396205" lon="10.7188817"><ele>88.33333333333333</ele><time>2026-04-25T09:03:44.73Z</time></trkpt><trkpt lat="45.3962117" lon="10.718985"><ele>90.0</ele><time>2026-04-25T09:03:45.731Z</time></trkpt><trkpt lat="45.3962433" lon="10.7191317"><ele>90.0</ele><time>2026-04-25T09:03:47.718Z</time></trkpt><trkpt lat="45.39633" lon="10.7191967"><ele>90.0</ele><time>2026-04-25T09:03:49.721Z</time></trkpt><trkpt lat="45.396405" lon="10.7192133"><ele>90.0</ele><time>2026-04-25T09:03:50.713Z</time></trkpt><trkpt lat="45.3964867" lon="10.71923"><ele>90.0</ele><time>2026-04-25T09:03:51.715Z</time></trkpt><trkpt lat="45.39657" lon="10.7192433"><ele>90.0</ele><time>2026-04-25T09:03:52.721Z</time></trkpt><trkpt lat="45.3966617" lon="10.7192617"><ele>90.0</ele><time>2026-04-25T09:03:53.717Z</time></trkpt><trkpt lat="45.39675" lon="10.7192817"><ele>90.33333333333333</ele><time>2026-04-25T09:03:54.72Z</time></trkpt><trkpt lat="45.39681" lon="10.71931"><ele>90.66666666666667</ele><time>2026-04-25T09:03:55.721Z</time></trkpt><trkpt lat="45.3969083" lon="10.719345"><ele>91.0</ele><time>2026-04-25T09:03:57.715Z</time></trkpt><trkpt lat="45.3969717" lon="10.7193833"><ele>91.33333333333334</ele><time>2026-04-25T09:03:59.717Z</time></trkpt><trkpt lat="45.3970317" lon="10.719445"><ele>91.66666666666667</ele><time>2026-04-25T09:04:01.717Z</time></trkpt><trkpt lat="45.3970767" lon="10.719535"><ele>92.0</ele><time>2026-04-25T09:04:03.715Z</time></trkpt><trkpt lat="45.39711" lon="10.719625"><ele>92.83333333333334</ele><time>2026-04-25T09:04:06.715Z</time></trkpt><trkpt lat="45.3971783" lon="10.7196383"><ele>93.66666666666667</ele><time>2026-04-25T09:04:14.723Z</time></trkpt><trkpt lat="45.397255" lon="10.7197"><ele>94.5</ele><time>2026-04-25T09:04:16.715Z</time></trkpt><trkpt lat="45.39732" lon="10.7197667"><ele>95.33333333333334</ele><time>2026-04-25T09:04:17.723Z</time></trkpt><trkpt lat="45.3973717" lon="10.7198433"><ele>96.16666666666667</ele><time>2026-04-25T09:04:18.715Z</time></trkpt><trkpt lat="45.3974617" lon="10.7198867"><ele>97.0</ele><time>2026-04-25T09:04:20.72Z</time></trkpt><trkpt lat="45.397535" lon="10.719955"><ele>97.00000000000001</ele><time>2026-04-25T09:04:22.717Z</time></trkpt><trkpt lat="45.3975933" lon="10.720075"><ele>97.0</ele><time>2026-04-25T09:04:24.726Z</time></trkpt><trkpt lat="45.3976933" lon="10.720165"><ele>97.0</ele><time>2026-04-25T09:04:26.721Z</time></trkpt><trkpt lat="45.3977533" lon="10.7202"><ele>97.0</ele><time>2026-04-25T09:04:27.722Z</time></trkpt><trkpt lat="45.39782" lon="10.7202383"><ele>97.00000000000001</ele><time>2026-04-25T09:04:28.721Z</time></trkpt><trkpt lat="45.3978983" lon="10.720275"><ele>97.0</ele><time>2026-04-25T09:04:29.716Z</time></trkpt><trkpt lat="45.3979817" lon="10.7203117"><ele>97.8</ele><time>2026-04-25T09:04:30.716Z</time></trkpt><trkpt lat="45.3980767" lon="10.7203367"><ele>98.6</ele><time>2026-04-25T09:04:31.717Z</time></trkpt><trkpt lat="45.398175" lon="10.720385"><ele>99.39999999999999</ele><time>2026-04-25T09:04:32.718Z</time></trkpt><trkpt lat="45.3982633" lon="10.7204233"><ele>100.19999999999999</ele><time>2026-04-25T09:04:33.716Z</time></trkpt><trkpt lat="45.3983817" lon="10.7204633"><ele>101.0</ele><time>2026-04-25T09:04:34.715Z</time></trkpt><trkpt lat="45.398485" lon="10.7204367"><ele>100.99999999999999</ele><time>2026-04-25T09:04:35.716Z</time></trkpt><trkpt lat="45.398555" lon="10.72042"><ele>101.0</ele><time>2026-04-25T09:04:36.715Z</time></trkpt><trkpt lat="45.3986683" lon="10.7204117"><ele>101.0</ele><time>2026-04-25T09:04:38.715Z</time></trkpt><trkpt lat="45.398755" lon="10.72041"><ele>101.0</ele><time>2026-04-25T09:04:40.715Z</time></trkpt><trkpt lat="45.39883" lon="10.72038"><ele>100.99999999999999</ele><time>2026-04-25T09:04:43.716Z</time></trkpt><trkpt lat="45.39889" lon="10.7203433"><ele>101.0</ele><time>2026-04-25T09:04:47.716Z</time></trkpt><trkpt lat="45.3989583" lon="10.7203633"><ele>100.66666666666666</ele><time>2026-04-25T09:04:48.716Z</time></trkpt><trkpt lat="45.399035" lon="10.7203867"><ele>100.33333333333333</ele><time>2026-04-25T09:04:49.716Z</time></trkpt><trkpt lat="45.399115" lon="10.7204283"><ele>100.0</ele><time>2026-04-25T09:04:50.727Z</time></trkpt><trkpt lat="45.3991917" lon="10.7204817"><ele>99.66666666666666</ele><time>2026-04-25T09:04:51.724Z</time></trkpt><trkpt lat="45.3992717" lon="10.7205383"><ele>99.33333333333333</ele><time>2026-04-25T09:04:52.721Z</time></trkpt><trkpt lat="45.3993467" lon="10.7206167"><ele>99.0</ele><time>2026-04-25T09:04:53.726Z</time></trkpt><trkpt lat="45.39942" lon="10.720695"><ele>99.0</ele><time>2026-04-25T09:04:54.725Z</time></trkpt><trkpt lat="45.399495" lon="10.7207667"><ele>99.0</ele><time>2026-04-25T09:04:55.722Z</time></trkpt><trkpt lat="45.3995683" lon="10.720825"><ele>99.0</ele><time>2026-04-25T09:04:56.721Z</time></trkpt><trkpt lat="45.3996467" lon="10.720875"><ele>99.0</ele><time>2026-04-25T09:04:57.723Z</time></trkpt><trkpt lat="45.399735" lon="10.7209133"><ele>99.0</ele><time>2026-04-25T09:04:58.729Z</time></trkpt><trkpt lat="45.3998183" lon="10.7209433"><ele>99.0</ele><time>2026-04-25T09:04:59.724Z</time></trkpt><trkpt lat="45.399895" lon="10.7209617"><ele>99.4</ele><time>2026-04-25T09:05:00.722Z</time></trkpt><trkpt lat="45.39996" lon="10.7209717"><ele>99.80000000000001</ele><time>2026-04-25T09:05:01.721Z</time></trkpt><trkpt lat="45.4000733" lon="10.7209817"><ele>100.19999999999999</ele><time>2026-04-25T09:05:03.725Z</time></trkpt><trkpt lat="45.400165" lon="10.7210067"><ele>100.6</ele><time>2026-04-25T09:05:05.722Z</time></trkpt><trkpt lat="45.4002767" lon="10.7210667"><ele>101.0</ele><time>2026-04-25T09:05:07.721Z</time></trkpt><trkpt lat="45.40035" lon="10.7211117"><ele>100.99999999999999</ele><time>2026-04-25T09:05:08.728Z</time></trkpt><trkpt lat="45.4004167" lon="10.7211633"><ele>101.0</ele><time>2026-04-25T09:05:09.722Z</time></trkpt><trkpt lat="45.400475" lon="10.72122"><ele>101.0</ele><time>2026-04-25T09:05:10.719Z</time></trkpt><trkpt lat="45.40054" lon="10.7212617"><ele>101.0</ele><time>2026-04-25T09:05:11.728Z</time></trkpt><trkpt lat="45.4006033" lon="10.7212917"><ele>100.99999999999999</ele><time>2026-04-25T09:05:12.725Z</time></trkpt><trkpt lat="45.4007" lon="10.7213417"><ele>101.0</ele><time>2026-04-25T09:05:14.731Z</time></trkpt><trkpt lat="45.40081" lon="10.7213667"><ele>100.33333333333333</ele><time>2026-04-25T09:05:16.727Z</time></trkpt><trkpt lat="45.4009133" lon="10.721405"><ele>99.66666666666666</ele><time>2026-04-25T09:05:18.726Z</time></trkpt><trkpt lat="45.4009733" lon="10.72145"><ele>99.0</ele><time>2026-04-25T09:05:20.725Z</time></trkpt><trkpt lat="45.4010483" lon="10.7214817"><ele>98.33333333333334</ele><time>2026-04-25T09:05:23.713Z</time></trkpt><trkpt lat="45.4010017" lon="10.721605"><ele>97.66666666666667</ele><time>2026-04-25T09:05:25.727Z</time></trkpt><trkpt lat="45.4009633" lon="10.7216983"><ele>97.0</ele><time>2026-04-25T09:05:26.731Z</time></trkpt><trkpt lat="45.400925" lon="10.721815"><ele>98.19999999999999</ele><time>2026-04-25T09:05:27.719Z</time></trkpt><trkpt lat="45.4008917" lon="10.721945"><ele>99.4</ele><time>2026-04-25T09:05:28.741Z</time></trkpt><trkpt lat="45.4008533" lon="10.7221017"><ele>100.6</ele><time>2026-04-25T09:05:29.723Z</time></trkpt><trkpt lat="45.40082" lon="10.7222217"><ele>101.80000000000001</ele><time>2026-04-25T09:05:30.723Z</time></trkpt><trkpt lat="45.4007933" lon="10.7223183"><ele>103.0</ele><time>2026-04-25T09:05:31.725Z</time></trkpt><trkpt lat="45.4007467" lon="10.7224033"><ele>103.0</ele><time>2026-04-25T09:05:32.717Z</time></trkpt><trkpt lat="45.4006933" lon="10.7224983"><ele>103.0</ele><time>2026-04-25T09:05:33.726Z</time></trkpt><trkpt lat="45.4006467" lon="10.72261"><ele>103.0</ele><time>2026-04-25T09:05:34.717Z</time></trkpt><trkpt lat="45.4006033" lon="10.722725"><ele>103.0</ele><time>2026-04-25T09:05:35.726Z</time></trkpt><trkpt lat="45.4004933" lon="10.7229683"><ele>103.60000000000001</ele><time>2026-04-25T09:05:37.73Z</time></trkpt><trkpt lat="45.4004267" lon="10.7231117"><ele>104.2</ele><time>2026-04-25T09:05:38.728Z</time></trkpt><trkpt lat="45.40036" lon="10.7232283"><ele>104.8</ele><time>2026-04-25T09:05:39.716Z</time></trkpt><trkpt lat="45.4003017" lon="10.7233283"><ele>105.4</ele><time>2026-04-25T09:05:40.739Z</time></trkpt><trkpt lat="45.4002417" lon="10.7233883"><ele>106.0</ele><time>2026-04-25T09:05:41.722Z</time></trkpt><trkpt lat="45.40017" lon="10.72352"><ele>106.50000000000001</ele><time>2026-04-25T09:05:43.723Z</time></trkpt><trkpt lat="45.4001317" lon="10.723625"><ele>107.0</ele><time>2026-04-25T09:05:44.721Z</time></trkpt><trkpt lat="45.40009" lon="10.72373"><ele>107.5</ele><time>2026-04-25T09:05:45.718Z</time></trkpt><trkpt lat="45.40005" lon="10.7238233"><ele>108.0</ele><time>2026-04-25T09:05:46.72Z</time></trkpt><trkpt lat="45.4000067" lon="10.7239533"><ele>108.50000000000001</ele><time>2026-04-25T09:05:48.717Z</time></trkpt><trkpt lat="45.4000233" lon="10.7240633"><ele>109.0</ele><time>2026-04-25T09:05:54.722Z</time></trkpt><trkpt lat="45.4000683" lon="10.72414"><ele>109.0</ele><time>2026-04-25T09:05:55.721Z</time></trkpt><trkpt lat="45.40013" lon="10.7242167"><ele>109.0</ele><time>2026-04-25T09:05:56.72Z</time></trkpt><trkpt lat="45.4002067" lon="10.72431"><ele>109.0</ele><time>2026-04-25T09:05:57.721Z</time></trkpt><trkpt lat="45.4003067" lon="10.724435"><ele>109.0</ele><time>2026-04-25T09:05:58.717Z</time></trkpt><trkpt lat="45.4004" lon="10.7245533"><ele>109.0</ele><time>2026-04-25T09:05:59.722Z</time></trkpt><trkpt lat="45.4005117" lon="10.72467"><ele>109.0</ele><time>2026-04-25T09:06:00.724Z</time></trkpt><trkpt lat="45.4006133" lon="10.7248183"><ele>109.0</ele><time>2026-04-25T09:06:01.719Z</time></trkpt><trkpt lat="45.4007267" lon="10.7249733"><ele>109.0</ele><time>2026-04-25T09:06:02.722Z</time></trkpt><trkpt lat="45.4008467" lon="10.7251033"><ele>109.33333333333334</ele><time>2026-04-25T09:06:03.726Z</time></trkpt><trkpt lat="45.4009667" lon="10.7252333"><ele>109.66666666666666</ele><time>2026-04-25T09:06:04.726Z</time></trkpt><trkpt lat="45.4011067" lon="10.7253433"><ele>110.0</ele><time>2026-04-25T09:06:05.72Z</time></trkpt><trkpt lat="45.4012517" lon="10.725445"><ele>110.0</ele><time>2026-04-25T09:06:06.726Z</time></trkpt><trkpt lat="45.4013967" lon="10.7255383"><ele>110.0</ele><time>2026-04-25T09:06:07.721Z</time></trkpt><trkpt lat="45.4015383" lon="10.72563"><ele>110.0</ele><time>2026-04-25T09:06:08.725Z</time></trkpt><trkpt lat="45.4016867" lon="10.7256517"><ele>110.0</ele><time>2026-04-25T09:06:09.724Z</time></trkpt><trkpt lat="45.4018467" lon="10.725695"><ele>110.0</ele><time>2026-04-25T09:06:10.745Z</time></trkpt><trkpt lat="45.4020233" lon="10.7257233"><ele>110.0</ele><time>2026-04-25T09:06:11.73Z</time></trkpt><trkpt lat="45.4021967" lon="10.7257183"><ele>111.0</ele><time>2026-04-25T09:06:12.732Z</time></trkpt><trkpt lat="45.4023817" lon="10.7257017"><ele>112.0</ele><time>2026-04-25T09:06:13.739Z</time></trkpt><trkpt lat="45.4025383" lon="10.7257067"><ele>113.0</ele><time>2026-04-25T09:06:14.719Z</time></trkpt><trkpt lat="45.40267" lon="10.7257517"><ele>113.0</ele><time>2026-04-25T09:06:15.725Z</time></trkpt><trkpt lat="45.4028017" lon="10.7257717"><ele>113.0</ele><time>2026-04-25T09:06:16.725Z</time></trkpt><trkpt lat="45.402915" lon="10.7257833"><ele>113.0</ele><time>2026-04-25T09:06:17.722Z</time></trkpt><trkpt lat="45.4029983" lon="10.7257833"><ele>113.0</ele><time>2026-04-25T09:06:18.726Z</time></trkpt><trkpt lat="45.403115" lon="10.725885"><ele>112.4</ele><time>2026-04-25T09:06:20.723Z</time></trkpt><trkpt lat="45.4031767" lon="10.7259633"><ele>111.80000000000001</ele><time>2026-04-25T09:06:21.725Z</time></trkpt><trkpt lat="45.4032417" lon="10.7260533"><ele>111.2</ele><time>2026-04-25T09:06:22.735Z</time></trkpt><trkpt lat="45.40329" lon="10.7261867"><ele>110.6</ele><time>2026-04-25T09:06:23.729Z</time></trkpt><trkpt lat="45.4033383" lon="10.726305"><ele>110.0</ele><time>2026-04-25T09:06:24.721Z</time></trkpt><trkpt lat="45.4033817" lon="10.7264517"><ele>110.0</ele><time>2026-04-25T09:06:25.723Z</time></trkpt><trkpt lat="45.40343" lon="10.7265833"><ele>110.0</ele><time>2026-04-25T09:06:26.718Z</time></trkpt><trkpt lat="45.4035117" lon="10.7267267"><ele>110.0</ele><time>2026-04-25T09:06:27.724Z</time></trkpt><trkpt lat="45.4036267" lon="10.72683"><ele>110.0</ele><time>2026-04-25T09:06:28.72Z</time></trkpt><trkpt lat="45.4037133" lon="10.7269883"><ele>110.5</ele><time>2026-04-25T09:06:29.72Z</time></trkpt><trkpt lat="45.4038033" lon="10.72713"><ele>111.0</ele><time>2026-04-25T09:06:30.718Z</time></trkpt><trkpt lat="45.4039083" lon="10.7272917"><ele>111.5</ele><time>2026-04-25T09:06:31.73Z</time></trkpt><trkpt lat="45.404025" lon="10.7274367"><ele>112.0</ele><time>2026-04-25T09:06:32.719Z</time></trkpt><trkpt lat="45.4041" lon="10.72763"><ele>112.0</ele><time>2026-04-25T09:06:33.715Z</time></trkpt><trkpt lat="45.404205" lon="10.727815"><ele>112.0</ele><time>2026-04-25T09:06:34.72Z</time></trkpt><trkpt lat="45.4042267" lon="10.7280533"><ele>112.0</ele><time>2026-04-25T09:06:35.715Z</time></trkpt><trkpt lat="45.4042917" lon="10.7282367"><ele>112.0</ele><time>2026-04-25T09:06:36.717Z</time></trkpt><trkpt lat="45.404325" lon="10.7283983"><ele>112.0</ele><time>2026-04-25T09:06:37.718Z</time></trkpt><trkpt lat="45.4043767" lon="10.7285367"><ele>112.0</ele><time>2026-04-25T09:06:38.72Z</time></trkpt><trkpt lat="45.4044267" lon="10.7286833"><ele>112.0</ele><time>2026-04-25T09:06:39.717Z</time></trkpt><trkpt lat="45.404495" lon="10.7288383"><ele>112.0</ele><time>2026-04-25T09:06:40.72Z</time></trkpt><trkpt lat="45.4045783" lon="10.7289933"><ele>112.0</ele><time>2026-04-25T09:06:41.737Z</time></trkpt><trkpt lat="45.40466" lon="10.72914"><ele>112.0</ele><time>2026-04-25T09:06:42.719Z</time></trkpt><trkpt lat="45.404755" lon="10.7292867"><ele>112.0</ele><time>2026-04-25T09:06:43.718Z</time></trkpt><trkpt lat="45.404875" lon="10.7294133"><ele>112.0</ele><time>2026-04-25T09:06:44.724Z</time></trkpt><trkpt lat="45.404975" lon="10.7295517"><ele>112.0</ele><time>2026-04-25T09:06:45.721Z</time></trkpt><trkpt lat="45.4050767" lon="10.7297033"><ele>112.0</ele><time>2026-04-25T09:06:46.714Z</time></trkpt><trkpt lat="45.4051783" lon="10.7298517"><ele>112.0</ele><time>2026-04-25T09:06:47.735Z</time></trkpt><trkpt lat="45.40528" lon="10.7300233"><ele>112.0</ele><time>2026-04-25T09:06:48.721Z</time></trkpt><trkpt lat="45.40538" lon="10.7301967"><ele>112.0</ele><time>2026-04-25T09:06:49.715Z</time></trkpt><trkpt lat="45.4054833" lon="10.73036"><ele>112.0</ele><time>2026-04-25T09:06:50.715Z</time></trkpt><trkpt lat="45.405585" lon="10.7305033"><ele>111.5</ele><time>2026-04-25T09:06:51.72Z</time></trkpt><trkpt lat="45.4056783" lon="10.7306167"><ele>111.0</ele><time>2026-04-25T09:06:52.715Z</time></trkpt><trkpt lat="45.40577" lon="10.7307883"><ele>110.5</ele><time>2026-04-25T09:06:53.718Z</time></trkpt><trkpt lat="45.4058633" lon="10.73093"><ele>110.0</ele><time>2026-04-25T09:06:54.733Z</time></trkpt><trkpt lat="45.405965" lon="10.7310567"><ele>108.75</ele><time>2026-04-25T09:06:55.73Z</time></trkpt><trkpt lat="45.406065" lon="10.7312017"><ele>107.5</ele><time>2026-04-25T09:06:56.726Z</time></trkpt><trkpt lat="45.40615" lon="10.73136"><ele>106.25</ele><time>2026-04-25T09:06:57.731Z</time></trkpt><trkpt lat="45.406215" lon="10.7315483"><ele>105.0</ele><time>2026-04-25T09:06:58.732Z</time></trkpt><trkpt lat="45.4062933" lon="10.7317433"><ele>106.0</ele><time>2026-04-25T09:06:59.725Z</time></trkpt><trkpt lat="45.4063317" lon="10.7319283"><ele>107.0</ele><time>2026-04-25T09:07:00.729Z</time></trkpt><trkpt lat="45.40635" lon="10.732145"><ele>108.0</ele><time>2026-04-25T09:07:01.733Z</time></trkpt><trkpt lat="45.4063567" lon="10.7323617"><ele>109.0</ele><time>2026-04-25T09:07:02.734Z</time></trkpt><trkpt lat="45.406385" lon="10.732545"><ele>108.5</ele><time>2026-04-25T09:07:03.723Z</time></trkpt><trkpt lat="45.406415" lon="10.732735"><ele>108.0</ele><time>2026-04-25T09:07:04.737Z</time></trkpt><trkpt lat="45.4064383" lon="10.7329"><ele>107.5</ele><time>2026-04-25T09:07:05.735Z</time></trkpt><trkpt lat="45.40646" lon="10.7330517"><ele>107.0</ele><time>2026-04-25T09:07:06.733Z</time></trkpt><trkpt lat="45.4064733" lon="10.733225"><ele>107.0</ele><time>2026-04-25T09:07:07.728Z</time></trkpt><trkpt lat="45.406495" lon="10.7333717"><ele>106.99999999999999</ele><time>2026-04-25T09:07:08.735Z</time></trkpt><trkpt lat="45.4065417" lon="10.7335083"><ele>106.99999999999999</ele><time>2026-04-25T09:07:10.728Z</time></trkpt><trkpt lat="45.406605" lon="10.7335333"><ele>107.0</ele><time>2026-04-25T09:07:12.717Z</time></trkpt><trkpt lat="45.4067367" lon="10.7334917"><ele>107.0</ele><time>2026-04-25T09:07:14.715Z</time></trkpt><trkpt lat="45.4068283" lon="10.73347"><ele>107.0</ele><time>2026-04-25T09:07:15.72Z</time></trkpt><trkpt lat="45.4069317" lon="10.73345"><ele>106.99999999999999</ele><time>2026-04-25T09:07:16.719Z</time></trkpt><trkpt lat="45.4070383" lon="10.733435"><ele>106.99999999999999</ele><time>2026-04-25T09:07:17.723Z</time></trkpt><trkpt lat="45.4071283" lon="10.73342"><ele>107.0</ele><time>2026-04-25T09:07:18.719Z</time></trkpt><trkpt lat="45.40721" lon="10.733405"><ele>107.0</ele><time>2026-04-25T09:07:19.72Z</time></trkpt><trkpt lat="45.4072933" lon="10.7333967"><ele>106.6</ele><time>2026-04-25T09:07:20.715Z</time></trkpt><trkpt lat="45.407375" lon="10.7333933"><ele>106.19999999999999</ele><time>2026-04-25T09:07:21.716Z</time></trkpt><trkpt lat="45.40746" lon="10.7333867"><ele>105.8</ele><time>2026-04-25T09:07:22.715Z</time></trkpt><trkpt lat="45.40755" lon="10.733385"><ele>105.4</ele><time>2026-04-25T09:07:23.721Z</time></trkpt><trkpt lat="45.407645" lon="10.7333883"><ele>105.0</ele><time>2026-04-25T09:07:24.715Z</time></trkpt><trkpt lat="45.4077533" lon="10.7334083"><ele>105.0</ele><time>2026-04-25T09:07:25.721Z</time></trkpt><trkpt lat="45.407875" lon="10.733435"><ele>105.0</ele><time>2026-04-25T09:07:26.721Z</time></trkpt><trkpt lat="45.4079967" lon="10.7334683"><ele>105.0</ele><time>2026-04-25T09:07:27.72Z</time></trkpt><trkpt lat="45.40809" lon="10.7335033"><ele>105.0</ele><time>2026-04-25T09:07:28.717Z</time></trkpt><trkpt lat="45.4081867" lon="10.733525"><ele>105.0</ele><time>2026-04-25T09:07:29.72Z</time></trkpt><trkpt lat="45.4082717" lon="10.7335567"><ele>104.83333333333333</ele><time>2026-04-25T09:07:30.714Z</time></trkpt><trkpt lat="45.4083467" lon="10.7335733"><ele>104.66666666666666</ele><time>2026-04-25T09:07:31.719Z</time></trkpt><trkpt lat="45.4084233" lon="10.733585"><ele>104.5</ele><time>2026-04-25T09:07:32.72Z</time></trkpt><trkpt lat="45.4085033" lon="10.73359"><ele>104.33333333333333</ele><time>2026-04-25T09:07:33.716Z</time></trkpt><trkpt lat="45.4085783" lon="10.73359"><ele>104.16666666666666</ele><time>2026-04-25T09:07:34.718Z</time></trkpt><trkpt lat="45.408655" lon="10.7335917"><ele>104.0</ele><time>2026-04-25T09:07:35.716Z</time></trkpt><trkpt lat="45.408735" lon="10.733595"><ele>104.0</ele><time>2026-04-25T09:07:36.72Z</time></trkpt><trkpt lat="45.4088117" lon="10.7335967"><ele>104.0</ele><time>2026-04-25T09:07:37.716Z</time></trkpt><trkpt lat="45.4088917" lon="10.7336033"><ele>104.0</ele><time>2026-04-25T09:07:38.718Z</time></trkpt><trkpt lat="45.4089817" lon="10.7336117"><ele>104.0</ele><time>2026-04-25T09:07:39.714Z</time></trkpt><trkpt lat="45.409085" lon="10.73363"><ele>104.0</ele><time>2026-04-25T09:07:40.715Z</time></trkpt><trkpt lat="45.4091967" lon="10.7336467"><ele>104.2</ele><time>2026-04-25T09:07:41.716Z</time></trkpt><trkpt lat="45.40931" lon="10.7336567"><ele>104.4</ele><time>2026-04-25T09:07:42.721Z</time></trkpt><trkpt lat="45.409425" lon="10.733675"><ele>104.6</ele><time>2026-04-25T09:07:43.718Z</time></trkpt><trkpt lat="45.409535" lon="10.7336367"><ele>104.8</ele><time>2026-04-25T09:07:44.72Z</time></trkpt><trkpt lat="45.40961" lon="10.7336117"><ele>105.0</ele><time>2026-04-25T09:07:45.719Z</time></trkpt><trkpt lat="45.4097117" lon="10.7336"><ele>105.6</ele><time>2026-04-25T09:07:46.714Z</time></trkpt><trkpt lat="45.4098217" lon="10.7335567"><ele>106.2</ele><time>2026-04-25T09:07:47.723Z</time></trkpt><trkpt lat="45.4099283" lon="10.733525"><ele>106.80000000000001</ele><time>2026-04-25T09:07:48.719Z</time></trkpt><trkpt lat="45.41003" lon="10.7334683"><ele>107.4</ele><time>2026-04-25T09:07:49.715Z</time></trkpt><trkpt lat="45.4101283" lon="10.7334133"><ele>108.0</ele><time>2026-04-25T09:07:50.716Z</time></trkpt><trkpt lat="45.4102117" lon="10.7333467"><ele>108.60000000000001</ele><time>2026-04-25T09:07:51.713Z</time></trkpt><trkpt lat="45.4103033" lon="10.7332933"><ele>109.20000000000002</ele><time>2026-04-25T09:07:52.716Z</time></trkpt><trkpt lat="45.4103883" lon="10.7332367"><ele>109.8</ele><time>2026-04-25T09:07:53.717Z</time></trkpt><trkpt lat="45.4104917" lon="10.73319"><ele>110.4</ele><time>2026-04-25T09:07:54.718Z</time></trkpt><trkpt lat="45.410585" lon="10.73309"><ele>111.0</ele><time>2026-04-25T09:07:55.718Z</time></trkpt><trkpt lat="45.4106667" lon="10.732975"><ele>112.5</ele><time>2026-04-25T09:07:56.714Z</time></trkpt><trkpt lat="45.4107517" lon="10.7328567"><ele>114.0</ele><time>2026-04-25T09:07:57.725Z</time></trkpt><trkpt lat="45.410835" lon="10.7327317"><ele>115.5</ele><time>2026-04-25T09:07:58.721Z</time></trkpt><trkpt lat="45.4109183" lon="10.7326067"><ele>117.0</ele><time>2026-04-25T09:07:59.714Z</time></trkpt><trkpt lat="45.410995" lon="10.7324967"><ele>117.0</ele><time>2026-04-25T09:08:00.716Z</time></trkpt><trkpt lat="45.4110533" lon="10.7324017"><ele>116.99999999999999</ele><time>2026-04-25T09:08:01.72Z</time></trkpt><trkpt lat="45.4111383" lon="10.7323567"><ele>116.99999999999999</ele><time>2026-04-25T09:08:03.715Z</time></trkpt><trkpt lat="45.4112083" lon="10.7323433"><ele>117.0</ele><time>2026-04-25T09:08:05.717Z</time></trkpt><trkpt lat="45.4112883" lon="10.7323433"><ele>117.0</ele><time>2026-04-25T09:08:08.729Z</time></trkpt><trkpt lat="45.4114167" lon="10.732365"><ele>118.0</ele><time>2026-04-25T09:08:10.729Z</time></trkpt><trkpt lat="45.4115" lon="10.7323917"><ele>118.99999999999999</ele><time>2026-04-25T09:08:11.727Z</time></trkpt><trkpt lat="45.4116167" lon="10.7324283"><ele>119.99999999999999</ele><time>2026-04-25T09:08:12.722Z</time></trkpt><trkpt lat="45.4117267" lon="10.7324767"><ele>121.0</ele><time>2026-04-25T09:08:13.727Z</time></trkpt><trkpt lat="45.411845" lon="10.7325267"><ele>122.0</ele><time>2026-04-25T09:08:14.721Z</time></trkpt><trkpt lat="45.4119267" lon="10.7325833"><ele>121.99999999999999</ele><time>2026-04-25T09:08:15.725Z</time></trkpt><trkpt lat="45.4119983" lon="10.7326317"><ele>122.0</ele><time>2026-04-25T09:08:16.727Z</time></trkpt><trkpt lat="45.4120567" lon="10.7326783"><ele>122.0</ele><time>2026-04-25T09:08:17.732Z</time></trkpt><trkpt lat="45.4121167" lon="10.73273"><ele>122.0</ele><time>2026-04-25T09:08:18.732Z</time></trkpt><trkpt lat="45.41219" lon="10.7327633"><ele>121.99999999999999</ele><time>2026-04-25T09:08:19.715Z</time></trkpt><trkpt lat="45.4122683" lon="10.7327783"><ele>122.0</ele><time>2026-04-25T09:08:20.724Z</time></trkpt><trkpt lat="45.4123483" lon="10.7327717"><ele>122.39999999999999</ele><time>2026-04-25T09:08:21.734Z</time></trkpt><trkpt lat="45.4124317" lon="10.7327533"><ele>122.79999999999998</ele><time>2026-04-25T09:08:22.73Z</time></trkpt><trkpt lat="45.4125133" lon="10.7327267"><ele>123.2</ele><time>2026-04-25T09:08:23.72Z</time></trkpt><trkpt lat="45.4126017" lon="10.7326933"><ele>123.6</ele><time>2026-04-25T09:08:24.726Z</time></trkpt><trkpt lat="45.4126917" lon="10.73264"><ele>124.0</ele><time>2026-04-25T09:08:25.727Z</time></trkpt><trkpt lat="45.4127917" lon="10.73258"><ele>124.0</ele><time>2026-04-25T09:08:26.739Z</time></trkpt><trkpt lat="45.412885" lon="10.7325283"><ele>124.0</ele><time>2026-04-25T09:08:27.735Z</time></trkpt><trkpt lat="45.4129783" lon="10.7324733"><ele>124.0</ele><time>2026-04-25T09:08:28.725Z</time></trkpt><trkpt lat="45.4130717" lon="10.732425"><ele>124.0</ele><time>2026-04-25T09:08:29.727Z</time></trkpt><trkpt lat="45.413175" lon="10.732365"><ele>124.0</ele><time>2026-04-25T09:08:30.726Z</time></trkpt><trkpt lat="45.4132717" lon="10.7323167"><ele>122.6</ele><time>2026-04-25T09:08:31.721Z</time></trkpt><trkpt lat="45.4133583" lon="10.7322733"><ele>121.2</ele><time>2026-04-25T09:08:32.718Z</time></trkpt><trkpt lat="45.41345" lon="10.7322583"><ele>119.79999999999998</ele><time>2026-04-25T09:08:33.725Z</time></trkpt><trkpt lat="45.4135667" lon="10.7322567"><ele>118.39999999999999</ele><time>2026-04-25T09:08:34.719Z</time></trkpt><trkpt lat="45.41368" lon="10.7322567"><ele>117.0</ele><time>2026-04-25T09:08:35.726Z</time></trkpt><trkpt lat="45.4137983" lon="10.73224"><ele>116.39999999999999</ele><time>2026-04-25T09:08:36.735Z</time></trkpt><trkpt lat="45.4139117" lon="10.7322283"><ele>115.79999999999998</ele><time>2026-04-25T09:08:37.736Z</time></trkpt><trkpt lat="45.4140133" lon="10.73221"><ele>115.2</ele><time>2026-04-25T09:08:38.726Z</time></trkpt><trkpt lat="45.4140967" lon="10.732185"><ele>114.6</ele><time>2026-04-25T09:08:39.723Z</time></trkpt><trkpt lat="45.4141733" lon="10.7321767"><ele>114.0</ele><time>2026-04-25T09:08:40.727Z</time></trkpt><trkpt lat="45.4142483" lon="10.73216"><ele>114.0</ele><time>2026-04-25T09:08:41.719Z</time></trkpt><trkpt lat="45.4143133" lon="10.7321333"><ele>114.0</ele><time>2026-04-25T09:08:42.729Z</time></trkpt><trkpt lat="45.4143883" lon="10.7320833"><ele>114.0</ele><time>2026-04-25T09:08:44.717Z</time></trkpt><trkpt lat="45.41448" lon="10.732035"><ele>114.0</ele><time>2026-04-25T09:08:47.723Z</time></trkpt><trkpt lat="45.4145883" lon="10.73205"><ele>114.0</ele><time>2026-04-25T09:08:49.72Z</time></trkpt><trkpt lat="45.4146967" lon="10.7320383"><ele>113.2</ele><time>2026-04-25T09:08:51.714Z</time></trkpt><trkpt lat="45.4147783" lon="10.7320183"><ele>112.4</ele><time>2026-04-25T09:08:52.718Z</time></trkpt><trkpt lat="45.414875" lon="10.7319967"><ele>111.6</ele><time>2026-04-25T09:08:53.719Z</time></trkpt><trkpt lat="45.41498" lon="10.7319817"><ele>110.8</ele><time>2026-04-25T09:08:54.714Z</time></trkpt><trkpt lat="45.4150783" lon="10.7319567"><ele>110.0</ele><time>2026-04-25T09:08:55.716Z</time></trkpt><trkpt lat="45.4151967" lon="10.7319083"><ele>110.2</ele><time>2026-04-25T09:08:56.716Z</time></trkpt><trkpt lat="45.415305" lon="10.731885"><ele>110.4</ele><time>2026-04-25T09:08:57.714Z</time></trkpt><trkpt lat="45.4154217" lon="10.7318767"><ele>110.6</ele><time>2026-04-25T09:08:58.713Z</time></trkpt><trkpt lat="45.4155217" lon="10.7318617"><ele>110.8</ele><time>2026-04-25T09:08:59.713Z</time></trkpt><trkpt lat="45.4156067" lon="10.73186"><ele>111.0</ele><time>2026-04-25T09:09:00.714Z</time></trkpt><trkpt lat="45.4156967" lon="10.7318467"><ele>110.6</ele><time>2026-04-25T09:09:01.713Z</time></trkpt><trkpt lat="45.4157817" lon="10.7318483"><ele>110.19999999999999</ele><time>2026-04-25T09:09:02.715Z</time></trkpt><trkpt lat="45.4158717" lon="10.7318517"><ele>109.80000000000001</ele><time>2026-04-25T09:09:03.716Z</time></trkpt><trkpt lat="45.4159783" lon="10.7318233"><ele>109.4</ele><time>2026-04-25T09:09:04.716Z</time></trkpt><trkpt lat="45.4160883" lon="10.7318067"><ele>109.0</ele><time>2026-04-25T09:09:05.719Z</time></trkpt><trkpt lat="45.4161917" lon="10.7318017"><ele>109.0</ele><time>2026-04-25T09:09:06.716Z</time></trkpt><trkpt lat="45.4162933" lon="10.731785"><ele>109.0</ele><time>2026-04-25T09:09:07.72Z</time></trkpt><trkpt lat="45.416395" lon="10.7318067"><ele>109.0</ele><time>2026-04-25T09:09:08.716Z</time></trkpt><trkpt lat="45.4164667" lon="10.7318333"><ele>109.0</ele><time>2026-04-25T09:09:09.724Z</time></trkpt><trkpt lat="45.4165733" lon="10.7318417"><ele>109.0</ele><time>2026-04-25T09:09:10.722Z</time></trkpt><trkpt lat="45.416675" lon="10.7318633"><ele>108.83333333333334</ele><time>2026-04-25T09:09:11.718Z</time></trkpt><trkpt lat="45.416775" lon="10.7318467"><ele>108.66666666666667</ele><time>2026-04-25T09:09:12.72Z</time></trkpt><trkpt lat="45.4168667" lon="10.73184"><ele>108.5</ele><time>2026-04-25T09:09:13.716Z</time></trkpt><trkpt lat="45.4169433" lon="10.7318733"><ele>108.33333333333334</ele><time>2026-04-25T09:09:14.719Z</time></trkpt><trkpt lat="45.4170217" lon="10.7318967"><ele>108.16666666666667</ele><time>2026-04-25T09:09:15.716Z</time></trkpt><trkpt lat="45.4170933" lon="10.731915"><ele>108.0</ele><time>2026-04-25T09:09:16.713Z</time></trkpt><trkpt lat="45.41716" lon="10.731925"><ele>107.42857142857143</ele><time>2026-04-25T09:09:17.721Z</time></trkpt><trkpt lat="45.4172233" lon="10.7319383"><ele>106.85714285714286</ele><time>2026-04-25T09:09:18.719Z</time></trkpt><trkpt lat="45.417285" lon="10.7319683"><ele>106.28571428571428</ele><time>2026-04-25T09:09:19.715Z</time></trkpt><trkpt lat="45.4173567" lon="10.7319983"><ele>105.71428571428572</ele><time>2026-04-25T09:09:20.714Z</time></trkpt><trkpt lat="45.4174333" lon="10.7320383"><ele>105.14285714285715</ele><time>2026-04-25T09:09:21.719Z</time></trkpt><trkpt lat="45.4175033" lon="10.7320783"><ele>104.57142857142857</ele><time>2026-04-25T09:09:22.715Z</time></trkpt><trkpt lat="45.417575" lon="10.732105"><ele>104.0</ele><time>2026-04-25T09:09:23.715Z</time></trkpt><trkpt lat="45.4176433" lon="10.73213"><ele>103.99999999999999</ele><time>2026-04-25T09:09:25.718Z</time></trkpt><trkpt lat="45.4176733" lon="10.7322317"><ele>104.0</ele><time>2026-04-25T09:09:33.719Z</time></trkpt><trkpt lat="45.4176283" lon="10.7321417"><ele>104.0</ele><time>2026-04-25T09:09:42.718Z</time></trkpt><trkpt lat="45.4175817" lon="10.7320783"><ele>104.0</ele><time>2026-04-25T09:09:44.718Z</time></trkpt><trkpt lat="45.4175683" lon="10.7319283"><ele>103.99999999999999</ele><time>2026-04-25T09:09:46.724Z</time></trkpt><trkpt lat="45.417565" lon="10.7318333"><ele>104.0</ele><time>2026-04-25T09:09:47.715Z</time></trkpt><trkpt lat="45.4175633" lon="10.7317417"><ele>103.49999999999999</ele><time>2026-04-25T09:09:48.713Z</time></trkpt><trkpt lat="45.4175617" lon="10.7316483"><ele>103.0</ele><time>2026-04-25T09:09:49.716Z</time></trkpt><trkpt lat="45.41755" lon="10.7315367"><ele>102.5</ele><time>2026-04-25T09:09:50.719Z</time></trkpt><trkpt lat="45.4175383" lon="10.73142"><ele>102.0</ele><time>2026-04-25T09:09:51.714Z</time></trkpt><trkpt lat="45.4175283" lon="10.7313067"><ele>101.49999999999999</ele><time>2026-04-25T09:09:52.717Z</time></trkpt><trkpt lat="45.4175167" lon="10.7312117"><ele>101.0</ele><time>2026-04-25T09:09:53.72Z</time></trkpt><trkpt lat="45.4174883" lon="10.73104"><ele>100.49999999999999</ele><time>2026-04-25T09:09:55.721Z</time></trkpt><trkpt lat="45.41747" lon="10.7309417"><ele>100.0</ele><time>2026-04-25T09:09:56.723Z</time></trkpt><trkpt lat="45.4174517" lon="10.730845"><ele>99.5</ele><time>2026-04-25T09:09:57.726Z</time></trkpt><trkpt lat="45.4174317" lon="10.7307517"><ele>99.0</ele><time>2026-04-25T09:09:58.718Z</time></trkpt><trkpt lat="45.4174133" lon="10.7306533"><ele>98.49999999999999</ele><time>2026-04-25T09:09:59.723Z</time></trkpt><trkpt lat="45.4173967" lon="10.73056"><ele>98.0</ele><time>2026-04-25T09:10:00.725Z</time></trkpt><trkpt lat="45.4173717" lon="10.7303983"><ele>98.0</ele><time>2026-04-25T09:10:02.715Z</time></trkpt><trkpt lat="45.4173733" lon="10.7302317"><ele>98.0</ele><time>2026-04-25T09:10:04.721Z</time></trkpt><trkpt lat="45.4173767" lon="10.7301267"><ele>98.0</ele><time>2026-04-25T09:10:05.718Z</time></trkpt><trkpt lat="45.41739" lon="10.73001"><ele>98.0</ele><time>2026-04-25T09:10:06.727Z</time></trkpt><trkpt lat="45.41741" lon="10.729875"><ele>98.0</ele><time>2026-04-25T09:10:07.731Z</time></trkpt><trkpt lat="45.4174483" lon="10.7297133"><ele>97.2</ele><time>2026-04-25T09:10:08.721Z</time></trkpt><trkpt lat="45.4174567" lon="10.7295317"><ele>96.4</ele><time>2026-04-25T09:10:09.718Z</time></trkpt><trkpt lat="45.4174917" lon="10.7293667"><ele>95.60000000000001</ele><time>2026-04-25T09:10:10.713Z</time></trkpt><trkpt lat="45.4175133" lon="10.7292233"><ele>94.80000000000001</ele><time>2026-04-25T09:10:11.721Z</time></trkpt><trkpt lat="45.4175267" lon="10.7291"><ele>94.0</ele><time>2026-04-25T09:10:12.723Z</time></trkpt><trkpt lat="45.4175467" lon="10.7289817"><ele>94.0</ele><time>2026-04-25T09:10:13.731Z</time></trkpt><trkpt lat="45.4175633" lon="10.7288833"><ele>94.0</ele><time>2026-04-25T09:10:14.725Z</time></trkpt><trkpt lat="45.4175983" lon="10.7287333"><ele>94.0</ele><time>2026-04-25T09:10:16.726Z</time></trkpt><trkpt lat="45.4176617" lon="10.7286917"><ele>94.0</ele><time>2026-04-25T09:10:18.734Z</time></trkpt><trkpt lat="45.4177867" lon="10.7287483"><ele>94.0</ele><time>2026-04-25T09:10:20.727Z</time></trkpt><trkpt lat="45.4178683" lon="10.7287717"><ele>94.0</ele><time>2026-04-25T09:10:21.72Z</time></trkpt><trkpt lat="45.41795" lon="10.7287783"><ele>94.0</ele><time>2026-04-25T09:10:22.734Z</time></trkpt><trkpt lat="45.4180317" lon="10.7287717"><ele>94.0</ele><time>2026-04-25T09:10:23.721Z</time></trkpt><trkpt lat="45.4181117" lon="10.7287683"><ele>94.0</ele><time>2026-04-25T09:10:24.72Z</time></trkpt><trkpt lat="45.4182117" lon="10.72877"><ele>94.0</ele><time>2026-04-25T09:10:25.721Z</time></trkpt><trkpt lat="45.418335" lon="10.7287933"><ele>94.0</ele><time>2026-04-25T09:10:26.713Z</time></trkpt><trkpt lat="45.4184517" lon="10.7288267"><ele>94.0</ele><time>2026-04-25T09:10:27.72Z</time></trkpt><trkpt lat="45.4185933" lon="10.7288717"><ele>94.0</ele><time>2026-04-25T09:10:28.713Z</time></trkpt><trkpt lat="45.4187033" lon="10.7288967"><ele>94.0</ele><time>2026-04-25T09:10:29.716Z</time></trkpt><trkpt lat="45.4188433" lon="10.72894"><ele>94.0</ele><time>2026-04-25T09:10:30.717Z</time></trkpt><trkpt lat="45.4189983" lon="10.72901"><ele>94.0</ele><time>2026-04-25T09:10:31.717Z</time></trkpt><trkpt lat="45.4191433" lon="10.7290267"><ele>94.0</ele><time>2026-04-25T09:10:32.716Z</time></trkpt><trkpt lat="45.4192933" lon="10.729075"><ele>94.0</ele><time>2026-04-25T09:10:33.713Z</time></trkpt><trkpt lat="45.419445" lon="10.729135"><ele>94.0</ele><time>2026-04-25T09:10:34.715Z</time></trkpt><trkpt lat="45.4195817" lon="10.729215"><ele>94.0</ele><time>2026-04-25T09:10:35.718Z</time></trkpt><trkpt lat="45.4197083" lon="10.7292883"><ele>94.0</ele><time>2026-04-25T09:10:36.719Z</time></trkpt><trkpt lat="45.4198433" lon="10.72938"><ele>94.33333333333333</ele><time>2026-04-25T09:10:37.721Z</time></trkpt><trkpt lat="45.4199867" lon="10.7294667"><ele>94.66666666666667</ele><time>2026-04-25T09:10:38.718Z</time></trkpt><trkpt lat="45.42014" lon="10.7295567"><ele>95.0</ele><time>2026-04-25T09:10:39.714Z</time></trkpt><trkpt lat="45.4202867" lon="10.7296483"><ele>95.0</ele><time>2026-04-25T09:10:40.715Z</time></trkpt><trkpt lat="45.4204433" lon="10.7297383"><ele>95.0</ele><time>2026-04-25T09:10:41.721Z</time></trkpt><trkpt lat="45.4205883" lon="10.7298333"><ele>95.0</ele><time>2026-04-25T09:10:42.717Z</time></trkpt><trkpt lat="45.4207183" lon="10.7299233"><ele>95.0</ele><time>2026-04-25T09:10:43.714Z</time></trkpt><trkpt lat="45.42084" lon="10.7300217"><ele>95.0</ele><time>2026-04-25T09:10:44.722Z</time></trkpt><trkpt lat="45.4209533" lon="10.7301233"><ele>95.0</ele><time>2026-04-25T09:10:45.719Z</time></trkpt><trkpt lat="45.421055" lon="10.730205"><ele>95.0</ele><time>2026-04-25T09:10:46.719Z</time></trkpt><trkpt lat="45.4211433" lon="10.7302867"><ele>95.0</ele><time>2026-04-25T09:10:47.719Z</time></trkpt><trkpt lat="45.421235" lon="10.7303583"><ele>95.0</ele><time>2026-04-25T09:10:48.736Z</time></trkpt><trkpt lat="45.421305" lon="10.7304267"><ele>95.0</ele><time>2026-04-25T09:10:49.721Z</time></trkpt><trkpt lat="45.4213517" lon="10.73049"><ele>95.0</ele><time>2026-04-25T09:10:50.726Z</time></trkpt><trkpt lat="45.4213967" lon="10.7305533"><ele>95.0</ele><time>2026-04-25T09:10:51.724Z</time></trkpt><trkpt lat="45.421445" lon="10.7306167"><ele>95.0</ele><time>2026-04-25T09:10:52.732Z</time></trkpt><trkpt lat="45.4215217" lon="10.7307517"><ele>94.66666666666667</ele><time>2026-04-25T09:10:54.725Z</time></trkpt><trkpt lat="45.4215633" lon="10.7308233"><ele>94.33333333333334</ele><time>2026-04-25T09:10:55.727Z</time></trkpt><trkpt lat="45.421605" lon="10.7308983"><ele>94.0</ele><time>2026-04-25T09:10:56.727Z</time></trkpt><trkpt lat="45.421645" lon="10.7309733"><ele>93.66666666666667</ele><time>2026-04-25T09:10:57.742Z</time></trkpt><trkpt lat="45.4216867" lon="10.7310433"><ele>93.33333333333333</ele><time>2026-04-25T09:10:58.72Z</time></trkpt><trkpt lat="45.421765" lon="10.731175"><ele>93.0</ele><time>2026-04-25T09:11:00.725Z</time></trkpt><trkpt lat="45.4218267" lon="10.7312783"><ele>93.0</ele><time>2026-04-25T09:11:02.734Z</time></trkpt><trkpt lat="45.4218783" lon="10.731355"><ele>93.0</ele><time>2026-04-25T09:11:04.72Z</time></trkpt><trkpt lat="45.4219333" lon="10.7314183"><ele>93.0</ele><time>2026-04-25T09:11:06.723Z</time></trkpt><trkpt lat="45.422025" lon="10.7314717"><ele>93.0</ele><time>2026-04-25T09:11:09.719Z</time></trkpt><trkpt lat="45.4221133" lon="10.73148"><ele>93.0</ele><time>2026-04-25T09:11:11.729Z</time></trkpt><trkpt lat="45.4221883" lon="10.7315367"><ele>93.0</ele><time>2026-04-25T09:11:13.713Z</time></trkpt><trkpt lat="45.4222417" lon="10.7316133"><ele>92.80000000000001</ele><time>2026-04-25T09:11:15.713Z</time></trkpt><trkpt lat="45.4222817" lon="10.73169"><ele>92.6</ele><time>2026-04-25T09:11:17.726Z</time></trkpt><trkpt lat="45.4223317" lon="10.7317917"><ele>92.4</ele><time>2026-04-25T09:11:19.715Z</time></trkpt><trkpt lat="45.4224167" lon="10.7319533"><ele>92.19999999999999</ele><time>2026-04-25T09:11:21.716Z</time></trkpt><trkpt lat="45.42247" lon="10.7320717"><ele>92.0</ele><time>2026-04-25T09:11:22.726Z</time></trkpt><trkpt lat="45.4225367" lon="10.73222"><ele>92.5</ele><time>2026-04-25T09:11:23.714Z</time></trkpt><trkpt lat="45.4226017" lon="10.732395"><ele>93.0</ele><time>2026-04-25T09:11:24.714Z</time></trkpt><trkpt lat="45.422675" lon="10.73259"><ele>93.5</ele><time>2026-04-25T09:11:25.713Z</time></trkpt><trkpt lat="45.4227417" lon="10.73276"><ele>94.0</ele><time>2026-04-25T09:11:26.718Z</time></trkpt><trkpt lat="45.4228033" lon="10.7329083"><ele>93.80000000000001</ele><time>2026-04-25T09:11:27.714Z</time></trkpt><trkpt lat="45.4228583" lon="10.7330517"><ele>93.60000000000001</ele><time>2026-04-25T09:11:28.712Z</time></trkpt><trkpt lat="45.4229083" lon="10.73317"><ele>93.4</ele><time>2026-04-25T09:11:29.717Z</time></trkpt><trkpt lat="45.4229517" lon="10.7332967"><ele>93.2</ele><time>2026-04-25T09:11:30.715Z</time></trkpt><trkpt lat="45.4229783" lon="10.7334283"><ele>93.0</ele><time>2026-04-25T09:11:31.714Z</time></trkpt><trkpt lat="45.4229933" lon="10.7336067"><ele>93.0</ele><time>2026-04-25T09:11:32.718Z</time></trkpt><trkpt lat="45.4230067" lon="10.7337633"><ele>93.0</ele><time>2026-04-25T09:11:33.719Z</time></trkpt><trkpt lat="45.4230167" lon="10.7339333"><ele>93.0</ele><time>2026-04-25T09:11:34.713Z</time></trkpt><trkpt lat="45.4230183" lon="10.73413"><ele>93.0</ele><time>2026-04-25T09:11:35.717Z</time></trkpt><trkpt lat="45.4230233" lon="10.7343267"><ele>93.66666666666667</ele><time>2026-04-25T09:11:36.72Z</time></trkpt><trkpt lat="45.4230533" lon="10.73455"><ele>94.33333333333334</ele><time>2026-04-25T09:11:37.714Z</time></trkpt><trkpt lat="45.4230767" lon="10.7347733"><ele>95.0</ele><time>2026-04-25T09:11:38.717Z</time></trkpt><trkpt lat="45.4231267" lon="10.7349867"><ele>95.0</ele><time>2026-04-25T09:11:39.719Z</time></trkpt><trkpt lat="45.4231567" lon="10.7351917"><ele>95.0</ele><time>2026-04-25T09:11:40.714Z</time></trkpt><trkpt lat="45.4231817" lon="10.735365"><ele>95.0</ele><time>2026-04-25T09:11:41.719Z</time></trkpt><trkpt lat="45.423205" lon="10.73552"><ele>95.0</ele><time>2026-04-25T09:11:42.721Z</time></trkpt><trkpt lat="45.42323" lon="10.7356867"><ele>95.25</ele><time>2026-04-25T09:11:43.713Z</time></trkpt><trkpt lat="45.4232467" lon="10.7358733"><ele>95.5</ele><time>2026-04-25T09:11:44.714Z</time></trkpt><trkpt lat="45.42327" lon="10.7360467"><ele>95.75</ele><time>2026-04-25T09:11:45.723Z</time></trkpt><trkpt lat="45.4232967" lon="10.736235"><ele>96.0</ele><time>2026-04-25T09:11:46.716Z</time></trkpt><trkpt lat="45.4233217" lon="10.7364267"><ele>96.0</ele><time>2026-04-25T09:11:47.713Z</time></trkpt><trkpt lat="45.4233433" lon="10.7366133"><ele>96.0</ele><time>2026-04-25T09:11:48.724Z</time></trkpt><trkpt lat="45.4233683" lon="10.736815"><ele>96.0</ele><time>2026-04-25T09:11:49.712Z</time></trkpt><trkpt lat="45.4234033" lon="10.73702"><ele>96.0</ele><time>2026-04-25T09:11:50.713Z</time></trkpt><trkpt lat="45.423435" lon="10.737245"><ele>96.25</ele><time>2026-04-25T09:11:51.715Z</time></trkpt><trkpt lat="45.4234467" lon="10.737445"><ele>96.5</ele><time>2026-04-25T09:11:52.726Z</time></trkpt><trkpt lat="45.4234567" lon="10.7376383"><ele>96.75</ele><time>2026-04-25T09:11:53.712Z</time></trkpt><trkpt lat="45.4234817" lon="10.7378433"><ele>97.0</ele><time>2026-04-25T09:11:54.719Z</time></trkpt><trkpt lat="45.4234733" lon="10.73803"><ele>97.5</ele><time>2026-04-25T09:11:55.71Z</time></trkpt><trkpt lat="45.4234817" lon="10.7381933"><ele>98.0</ele><time>2026-04-25T09:11:56.713Z</time></trkpt><trkpt lat="45.4234733" lon="10.7383617"><ele>98.5</ele><time>2026-04-25T09:11:57.714Z</time></trkpt><trkpt lat="45.42349" lon="10.738535"><ele>99.0</ele><time>2026-04-25T09:11:58.719Z</time></trkpt><trkpt lat="45.4235217" lon="10.738715"><ele>99.25</ele><time>2026-04-25T09:11:59.721Z</time></trkpt><trkpt lat="45.4235733" lon="10.7389133"><ele>99.5</ele><time>2026-04-25T09:12:00.721Z</time></trkpt><trkpt lat="45.423625" lon="10.7391117"><ele>99.75</ele><time>2026-04-25T09:12:01.723Z</time></trkpt><trkpt lat="45.4236917" lon="10.7392883"><ele>100.0</ele><time>2026-04-25T09:12:02.719Z</time></trkpt><trkpt lat="45.4237667" lon="10.739465"><ele>100.66666666666667</ele><time>2026-04-25T09:12:03.717Z</time></trkpt><trkpt lat="45.4238133" lon="10.73967"><ele>101.33333333333334</ele><time>2026-04-25T09:12:04.72Z</time></trkpt><trkpt lat="45.42386" lon="10.73988"><ele>102.0</ele><time>2026-04-25T09:12:05.729Z</time></trkpt><trkpt lat="45.4238983" lon="10.74009"><ele>101.0</ele><time>2026-04-25T09:12:06.717Z</time></trkpt><trkpt lat="45.4239467" lon="10.74029"><ele>100.0</ele><time>2026-04-25T09:12:07.723Z</time></trkpt><trkpt lat="45.4239867" lon="10.74048"><ele>99.0</ele><time>2026-04-25T09:12:08.73Z</time></trkpt><trkpt lat="45.424005" lon="10.7406517"><ele>98.0</ele><time>2026-04-25T09:12:09.727Z</time></trkpt><trkpt lat="45.424015" lon="10.74083"><ele>98.0</ele><time>2026-04-25T09:12:10.721Z</time></trkpt><trkpt lat="45.4240483" lon="10.7409517"><ele>98.0</ele><time>2026-04-25T09:12:11.738Z</time></trkpt><trkpt lat="45.4241033" lon="10.7411017"><ele>98.0</ele><time>2026-04-25T09:12:12.737Z</time></trkpt><trkpt lat="45.4241733" lon="10.741285"><ele>98.0</ele><time>2026-04-25T09:12:13.737Z</time></trkpt><trkpt lat="45.42425" lon="10.7414333"><ele>98.5</ele><time>2026-04-25T09:12:14.729Z</time></trkpt><trkpt lat="45.4243233" lon="10.7416083"><ele>99.0</ele><time>2026-04-25T09:12:15.714Z</time></trkpt><trkpt lat="45.42439" lon="10.741765"><ele>99.5</ele><time>2026-04-25T09:12:16.716Z</time></trkpt><trkpt lat="45.4244333" lon="10.7418783"><ele>100.0</ele><time>2026-04-25T09:12:17.721Z</time></trkpt><trkpt lat="45.4244667" lon="10.7420083"><ele>101.0</ele><time>2026-04-25T09:12:18.715Z</time></trkpt><trkpt lat="45.4244983" lon="10.7421583"><ele>102.0</ele><time>2026-04-25T09:12:19.713Z</time></trkpt><trkpt lat="45.424505" lon="10.7423267"><ele>103.0</ele><time>2026-04-25T09:12:20.72Z</time></trkpt><trkpt lat="45.4245083" lon="10.742455"><ele>104.0</ele><time>2026-04-25T09:12:21.711Z</time></trkpt><trkpt lat="45.4244783" lon="10.7426133"><ele>105.0</ele><time>2026-04-25T09:12:22.712Z</time></trkpt><trkpt lat="45.4244217" lon="10.742755"><ele>105.25</ele><time>2026-04-25T09:12:23.714Z</time></trkpt><trkpt lat="45.4243317" lon="10.74291"><ele>105.5</ele><time>2026-04-25T09:12:24.719Z</time></trkpt><trkpt lat="45.4242417" lon="10.7430467"><ele>105.75</ele><time>2026-04-25T09:12:25.715Z</time></trkpt><trkpt lat="45.424165" lon="10.743155"><ele>106.0</ele><time>2026-04-25T09:12:26.719Z</time></trkpt><trkpt lat="45.4240967" lon="10.7432583"><ele>106.0</ele><time>2026-04-25T09:12:27.714Z</time></trkpt><trkpt lat="45.4240067" lon="10.74334"><ele>106.0</ele><time>2026-04-25T09:12:28.713Z</time></trkpt><trkpt lat="45.4238967" lon="10.743405"><ele>106.0</ele><time>2026-04-25T09:12:29.715Z</time></trkpt><trkpt lat="45.4237867" lon="10.7434317"><ele>106.0</ele><time>2026-04-25T09:12:30.724Z</time></trkpt><trkpt lat="45.423655" lon="10.7434167"><ele>105.5</ele><time>2026-04-25T09:12:31.722Z</time></trkpt><trkpt lat="45.4235267" lon="10.7434"><ele>105.0</ele><time>2026-04-25T09:12:32.713Z</time></trkpt><trkpt lat="45.4234117" lon="10.7433783"><ele>104.5</ele><time>2026-04-25T09:12:33.752Z</time></trkpt><trkpt lat="45.4233133" lon="10.7433833"><ele>104.0</ele><time>2026-04-25T09:12:34.72Z</time></trkpt><trkpt lat="45.4232" lon="10.7434183"><ele>104.0</ele><time>2026-04-25T09:12:35.717Z</time></trkpt><trkpt lat="45.423125" lon="10.7434467"><ele>104.0</ele><time>2026-04-25T09:12:36.723Z</time></trkpt><trkpt lat="45.4230583" lon="10.7434867"><ele>104.0</ele><time>2026-04-25T09:12:37.726Z</time></trkpt><trkpt lat="45.4230067" lon="10.7435467"><ele>104.0</ele><time>2026-04-25T09:12:38.716Z</time></trkpt><trkpt lat="45.4229867" lon="10.743635"><ele>104.0</ele><time>2026-04-25T09:12:39.719Z</time></trkpt><trkpt lat="45.422975" lon="10.7437433"><ele>104.0</ele><time>2026-04-25T09:12:40.717Z</time></trkpt><trkpt lat="45.4229667" lon="10.7438717"><ele>104.0</ele><time>2026-04-25T09:12:41.718Z</time></trkpt><trkpt lat="45.4229583" lon="10.74401"><ele>104.2</ele><time>2026-04-25T09:12:42.713Z</time></trkpt><trkpt lat="45.4229383" lon="10.74418"><ele>104.4</ele><time>2026-04-25T09:12:43.723Z</time></trkpt><trkpt lat="45.4229167" lon="10.7442967"><ele>104.6</ele><time>2026-04-25T09:12:44.724Z</time></trkpt><trkpt lat="45.42291" lon="10.7443917"><ele>104.8</ele><time>2026-04-25T09:12:45.723Z</time></trkpt><trkpt lat="45.4228883" lon="10.7445433"><ele>105.0</ele><time>2026-04-25T09:12:47.719Z</time></trkpt><trkpt lat="45.4228567" lon="10.74464"><ele>105.0</ele><time>2026-04-25T09:12:48.724Z</time></trkpt><trkpt lat="45.4228183" lon="10.7447667"><ele>105.0</ele><time>2026-04-25T09:12:49.751Z</time></trkpt><trkpt lat="45.42279" lon="10.7449067"><ele>105.0</ele><time>2026-04-25T09:12:50.72Z</time></trkpt><trkpt lat="45.4227633" lon="10.7450317"><ele>105.0</ele><time>2026-04-25T09:12:51.722Z</time></trkpt><trkpt lat="45.4227383" lon="10.7451383"><ele>105.0</ele><time>2026-04-25T09:12:52.743Z</time></trkpt><trkpt lat="45.4227183" lon="10.745225"><ele>105.0</ele><time>2026-04-25T09:12:53.719Z</time></trkpt><trkpt lat="45.42277" lon="10.74539"><ele>105.0</ele><time>2026-04-25T09:13:00.716Z</time></trkpt><trkpt lat="45.4228467" lon="10.745455"><ele>105.0</ele><time>2026-04-25T09:13:01.719Z</time></trkpt><trkpt lat="45.4229383" lon="10.7455267"><ele>105.0</ele><time>2026-04-25T09:13:02.722Z</time></trkpt><trkpt lat="45.42307" lon="10.745605"><ele>105.0</ele><time>2026-04-25T09:13:03.718Z</time></trkpt><trkpt lat="45.42322" lon="10.7457"><ele>105.0</ele><time>2026-04-25T09:13:04.72Z</time></trkpt><trkpt lat="45.4233833" lon="10.7458117"><ele>105.0</ele><time>2026-04-25T09:13:05.728Z</time></trkpt><trkpt lat="45.4235367" lon="10.7459483"><ele>105.0</ele><time>2026-04-25T09:13:06.722Z</time></trkpt><trkpt lat="45.423685" lon="10.7460767"><ele>105.5</ele><time>2026-04-25T09:13:07.737Z</time></trkpt><trkpt lat="45.4238167" lon="10.74618"><ele>106.0</ele><time>2026-04-25T09:13:08.741Z</time></trkpt><trkpt lat="45.4239333" lon="10.74627"><ele>106.5</ele><time>2026-04-25T09:13:09.721Z</time></trkpt><trkpt lat="45.424025" lon="10.7463483"><ele>107.0</ele><time>2026-04-25T09:13:10.723Z</time></trkpt><trkpt lat="45.4241117" lon="10.7464183"><ele>107.0</ele><time>2026-04-25T09:13:11.721Z</time></trkpt><trkpt lat="45.4241683" lon="10.7464833"><ele>106.99999999999999</ele><time>2026-04-25T09:13:12.72Z</time></trkpt><trkpt lat="45.4242067" lon="10.7466433"><ele>106.99999999999999</ele><time>2026-04-25T09:13:14.713Z</time></trkpt><trkpt lat="45.4242" lon="10.7467667"><ele>107.0</ele><time>2026-04-25T09:13:15.72Z</time></trkpt><trkpt lat="45.4241517" lon="10.746925"><ele>107.0</ele><time>2026-04-25T09:13:16.713Z</time></trkpt><trkpt lat="45.42407" lon="10.7471"><ele>107.33333333333333</ele><time>2026-04-25T09:13:17.72Z</time></trkpt><trkpt lat="45.42399" lon="10.747305"><ele>107.66666666666666</ele><time>2026-04-25T09:13:18.718Z</time></trkpt><trkpt lat="45.4239167" lon="10.7475333"><ele>108.0</ele><time>2026-04-25T09:13:19.728Z</time></trkpt><trkpt lat="45.4238433" lon="10.7477917"><ele>107.0</ele><time>2026-04-25T09:13:20.717Z</time></trkpt><trkpt lat="45.423765" lon="10.748025"><ele>106.0</ele><time>2026-04-25T09:13:21.721Z</time></trkpt><trkpt lat="45.4236983" lon="10.74823"><ele>105.0</ele><time>2026-04-25T09:13:22.717Z</time></trkpt><trkpt lat="45.4236383" lon="10.7484383"><ele>105.0</ele><time>2026-04-25T09:13:23.716Z</time></trkpt><trkpt lat="45.4235917" lon="10.7486617"><ele>105.0</ele><time>2026-04-25T09:13:24.72Z</time></trkpt><trkpt lat="45.4235517" lon="10.748905"><ele>105.0</ele><time>2026-04-25T09:13:25.72Z</time></trkpt><trkpt lat="45.423525" lon="10.7491683"><ele>104.33333333333334</ele><time>2026-04-25T09:13:26.713Z</time></trkpt><trkpt lat="45.4235" lon="10.7494283"><ele>103.66666666666667</ele><time>2026-04-25T09:13:27.713Z</time></trkpt><trkpt lat="45.4234833" lon="10.7496567"><ele>103.0</ele><time>2026-04-25T09:13:28.716Z</time></trkpt><trkpt lat="45.423455" lon="10.7499033"><ele>103.0</ele><time>2026-04-25T09:13:29.734Z</time></trkpt><trkpt lat="45.4234217" lon="10.7501417"><ele>103.0</ele><time>2026-04-25T09:13:30.725Z</time></trkpt><trkpt lat="45.4234017" lon="10.7503617"><ele>103.0</ele><time>2026-04-25T09:13:31.722Z</time></trkpt><trkpt lat="45.4233833" lon="10.7505667"><ele>103.0</ele><time>2026-04-25T09:13:32.721Z</time></trkpt><trkpt lat="45.4233583" lon="10.7507817"><ele>103.0</ele><time>2026-04-25T09:13:33.716Z</time></trkpt><trkpt lat="45.4233167" lon="10.7509817"><ele>103.0</ele><time>2026-04-25T09:13:34.726Z</time></trkpt><trkpt lat="45.4232817" lon="10.751195"><ele>103.33333333333334</ele><time>2026-04-25T09:13:35.721Z</time></trkpt><trkpt lat="45.4232467" lon="10.7514283"><ele>103.66666666666666</ele><time>2026-04-25T09:13:36.723Z</time></trkpt><trkpt lat="45.4232067" lon="10.7516533"><ele>104.0</ele><time>2026-04-25T09:13:37.727Z</time></trkpt><trkpt lat="45.4231867" lon="10.7518983"><ele>104.0</ele><time>2026-04-25T09:13:38.722Z</time></trkpt><trkpt lat="45.423165" lon="10.7521"><ele>104.0</ele><time>2026-04-25T09:13:39.731Z</time></trkpt><trkpt lat="45.42314" lon="10.7522767"><ele>104.0</ele><time>2026-04-25T09:13:40.728Z</time></trkpt><trkpt lat="45.4231317" lon="10.75244"><ele>104.0</ele><time>2026-04-25T09:13:41.726Z</time></trkpt><trkpt lat="45.4230967" lon="10.7525567"><ele>104.0</ele><time>2026-04-25T09:13:42.723Z</time></trkpt><trkpt lat="45.4230633" lon="10.7526733"><ele>104.0</ele><time>2026-04-25T09:13:44.722Z</time></trkpt><trkpt lat="45.4231367" lon="10.75278"><ele>104.0</ele><time>2026-04-25T09:13:56.722Z</time></trkpt><trkpt lat="45.42321" lon="10.7528583"><ele>104.0</ele><time>2026-04-25T09:13:57.724Z</time></trkpt><trkpt lat="45.4232883" lon="10.7529567"><ele>104.0</ele><time>2026-04-25T09:13:58.721Z</time></trkpt><trkpt lat="45.4233883" lon="10.753055"><ele>103.33333333333333</ele><time>2026-04-25T09:13:59.731Z</time></trkpt><trkpt lat="45.4235117" lon="10.7531633"><ele>102.66666666666666</ele><time>2026-04-25T09:14:00.724Z</time></trkpt><trkpt lat="45.423655" lon="10.7532817"><ele>102.0</ele><time>2026-04-25T09:14:01.731Z</time></trkpt><trkpt lat="45.4238117" lon="10.7534317"><ele>102.0</ele><time>2026-04-25T09:14:02.715Z</time></trkpt><trkpt lat="45.42396" lon="10.7535683"><ele>102.0</ele><time>2026-04-25T09:14:03.716Z</time></trkpt><trkpt lat="45.4240983" lon="10.7537033"><ele>102.0</ele><time>2026-04-25T09:14:04.725Z</time></trkpt><trkpt lat="45.424205" lon="10.7538233"><ele>102.0</ele><time>2026-04-25T09:14:05.725Z</time></trkpt><trkpt lat="45.4242983" lon="10.7538917"><ele>102.0</ele><time>2026-04-25T09:14:06.725Z</time></trkpt><trkpt lat="45.4243783" lon="10.75397"><ele>102.0</ele><time>2026-04-25T09:14:07.747Z</time></trkpt><trkpt lat="45.4244633" lon="10.75407"><ele>102.0</ele><time>2026-04-25T09:14:08.723Z</time></trkpt><trkpt lat="45.42453" lon="10.7541733"><ele>102.0</ele><time>2026-04-25T09:14:09.725Z</time></trkpt><trkpt lat="45.424555" lon="10.7543167"><ele>102.0</ele><time>2026-04-25T09:14:10.718Z</time></trkpt><trkpt lat="45.4246167" lon="10.75447"><ele>102.0</ele><time>2026-04-25T09:14:11.72Z</time></trkpt><trkpt lat="45.4246683" lon="10.7546133"><ele>102.0</ele><time>2026-04-25T09:14:12.726Z</time></trkpt><trkpt lat="45.4247567" lon="10.75469"><ele>102.0</ele><time>2026-04-25T09:14:13.723Z</time></trkpt><trkpt lat="45.424855" lon="10.7548317"><ele>102.33333333333334</ele><time>2026-04-25T09:14:14.733Z</time></trkpt><trkpt lat="45.4249767" lon="10.754985"><ele>102.66666666666667</ele><time>2026-04-25T09:14:15.744Z</time></trkpt><trkpt lat="45.4250983" lon="10.7551783"><ele>103.0</ele><time>2026-04-25T09:14:16.712Z</time></trkpt><trkpt lat="45.4252567" lon="10.7553383"><ele>103.0</ele><time>2026-04-25T09:14:17.714Z</time></trkpt><trkpt lat="45.4254533" lon="10.7554967"><ele>103.0</ele><time>2026-04-25T09:14:18.715Z</time></trkpt><trkpt lat="45.42566" lon="10.7556833"><ele>102.5</ele><time>2026-04-25T09:14:19.717Z</time></trkpt><trkpt lat="45.4258933" lon="10.7558617"><ele>102.0</ele><time>2026-04-25T09:14:20.715Z</time></trkpt><trkpt lat="45.4261133" lon="10.756035"><ele>101.5</ele><time>2026-04-25T09:14:21.713Z</time></trkpt><trkpt lat="45.426345" lon="10.75621"><ele>101.0</ele><time>2026-04-25T09:14:22.712Z</time></trkpt><trkpt lat="45.42657" lon="10.756355"><ele>101.0</ele><time>2026-04-25T09:14:23.72Z</time></trkpt><trkpt lat="45.4267817" lon="10.75649"><ele>101.0</ele><time>2026-04-25T09:14:24.717Z</time></trkpt><trkpt lat="45.4269767" lon="10.7566333"><ele>101.0</ele><time>2026-04-25T09:14:25.722Z</time></trkpt><trkpt lat="45.4271467" lon="10.75677"><ele>101.0</ele><time>2026-04-25T09:14:26.728Z</time></trkpt><trkpt lat="45.4273267" lon="10.7568783"><ele>101.0</ele><time>2026-04-25T09:14:27.721Z</time></trkpt><trkpt lat="45.4274867" lon="10.7570117"><ele>101.0</ele><time>2026-04-25T09:14:28.743Z</time></trkpt><trkpt lat="45.427645" lon="10.757135"><ele>101.0</ele><time>2026-04-25T09:14:29.744Z</time></trkpt><trkpt lat="45.427795" lon="10.7572033"><ele>101.0</ele><time>2026-04-25T09:14:30.721Z</time></trkpt><trkpt lat="45.4279367" lon="10.7572767"><ele>101.25</ele><time>2026-04-25T09:14:31.721Z</time></trkpt><trkpt lat="45.4280683" lon="10.7573383"><ele>101.5</ele><time>2026-04-25T09:14:32.725Z</time></trkpt><trkpt lat="45.428195" lon="10.7574017"><ele>101.75</ele><time>2026-04-25T09:14:33.72Z</time></trkpt><trkpt lat="45.42831" lon="10.75745"><ele>102.0</ele><time>2026-04-25T09:14:34.722Z</time></trkpt><trkpt lat="45.4284167" lon="10.7574933"><ele>102.0</ele><time>2026-04-25T09:14:35.714Z</time></trkpt><trkpt lat="45.4284967" lon="10.757555"><ele>102.0</ele><time>2026-04-25T09:14:36.714Z</time></trkpt><trkpt lat="45.428565" lon="10.7576217"><ele>102.0</ele><time>2026-04-25T09:14:37.713Z</time></trkpt><trkpt lat="45.4285933" lon="10.7577033"><ele>102.0</ele><time>2026-04-25T09:14:38.715Z</time></trkpt><trkpt lat="45.4285833" lon="10.7579067"><ele>102.0</ele><time>2026-04-25T09:14:40.714Z</time></trkpt><trkpt lat="45.4285733" lon="10.75803"><ele>102.0</ele><time>2026-04-25T09:14:41.717Z</time></trkpt><trkpt lat="45.4285567" lon="10.7581767"><ele>102.0</ele><time>2026-04-25T09:14:42.714Z</time></trkpt><trkpt lat="45.4285417" lon="10.7582883"><ele>102.0</ele><time>2026-04-25T09:14:43.718Z</time></trkpt><trkpt lat="45.4285483" lon="10.75842"><ele>102.0</ele><time>2026-04-25T09:14:44.719Z</time></trkpt><trkpt lat="45.4286" lon="10.7585383"><ele>102.0</ele><time>2026-04-25T09:14:45.713Z</time></trkpt><trkpt lat="45.42866" lon="10.7586833"><ele>102.0</ele><time>2026-04-25T09:14:46.712Z</time></trkpt><trkpt lat="45.4287017" lon="10.75882"><ele>102.0</ele><time>2026-04-25T09:14:47.714Z</time></trkpt><trkpt lat="45.4287217" lon="10.7589833"><ele>102.0</ele><time>2026-04-25T09:14:48.716Z</time></trkpt><trkpt lat="45.428715" lon="10.7591783"><ele>102.0</ele><time>2026-04-25T09:14:49.72Z</time></trkpt><trkpt lat="45.4286917" lon="10.7593933"><ele>101.66666666666666</ele><time>2026-04-25T09:14:50.712Z</time></trkpt><trkpt lat="45.4286567" lon="10.759635"><ele>101.33333333333333</ele><time>2026-04-25T09:14:51.717Z</time></trkpt><trkpt lat="45.4286017" lon="10.7599083"><ele>101.0</ele><time>2026-04-25T09:14:52.713Z</time></trkpt><trkpt lat="45.4285783" lon="10.7601933"><ele>100.66666666666666</ele><time>2026-04-25T09:14:53.717Z</time></trkpt><trkpt lat="45.42854" lon="10.7604683"><ele>100.33333333333334</ele><time>2026-04-25T09:14:54.719Z</time></trkpt><trkpt lat="45.4285217" lon="10.760725"><ele>100.0</ele><time>2026-04-25T09:14:55.713Z</time></trkpt><trkpt lat="45.42854" lon="10.7609583"><ele>101.0</ele><time>2026-04-25T09:14:56.713Z</time></trkpt><trkpt lat="45.4285533" lon="10.761195"><ele>102.0</ele><time>2026-04-25T09:14:57.717Z</time></trkpt><trkpt lat="45.4286017" lon="10.76146"><ele>103.0</ele><time>2026-04-25T09:14:58.711Z</time></trkpt><trkpt lat="45.4286733" lon="10.7617533"><ele>102.33333333333334</ele><time>2026-04-25T09:14:59.712Z</time></trkpt><trkpt lat="45.42874" lon="10.762025"><ele>101.66666666666666</ele><time>2026-04-25T09:15:00.73Z</time></trkpt><trkpt lat="45.4288067" lon="10.762275"><ele>101.0</ele><time>2026-04-25T09:15:01.721Z</time></trkpt><trkpt lat="45.428855" lon="10.7625033"><ele>100.66666666666666</ele><time>2026-04-25T09:15:02.721Z</time></trkpt><trkpt lat="45.4289117" lon="10.7627217"><ele>100.33333333333334</ele><time>2026-04-25T09:15:03.713Z</time></trkpt><trkpt lat="45.4289733" lon="10.762945"><ele>100.0</ele><time>2026-04-25T09:15:04.729Z</time></trkpt><trkpt lat="45.4290467" lon="10.7631567"><ele>100.0</ele><time>2026-04-25T09:15:05.714Z</time></trkpt><trkpt lat="45.4291233" lon="10.7633667"><ele>100.0</ele><time>2026-04-25T09:15:06.722Z</time></trkpt><trkpt lat="45.429195" lon="10.7636167"><ele>100.0</ele><time>2026-04-25T09:15:07.714Z</time></trkpt><trkpt lat="45.4292733" lon="10.7638533"><ele>100.2</ele><time>2026-04-25T09:15:08.721Z</time></trkpt><trkpt lat="45.4293467" lon="10.7640233"><ele>100.4</ele><time>2026-04-25T09:15:09.726Z</time></trkpt><trkpt lat="45.429375" lon="10.764175"><ele>100.6</ele><time>2026-04-25T09:15:10.727Z</time></trkpt><trkpt lat="45.429415" lon="10.7642817"><ele>100.8</ele><time>2026-04-25T09:15:11.723Z</time></trkpt><trkpt lat="45.4294467" lon="10.7643683"><ele>101.0</ele><time>2026-04-25T09:15:12.735Z</time></trkpt><trkpt lat="45.4295167" lon="10.7645083"><ele>101.0</ele><time>2026-04-25T09:15:14.714Z</time></trkpt><trkpt lat="45.429605" lon="10.7646083"><ele>101.0</ele><time>2026-04-25T09:15:16.715Z</time></trkpt><trkpt lat="45.4297467" lon="10.76461"><ele>101.0</ele><time>2026-04-25T09:15:18.716Z</time></trkpt><trkpt lat="45.4298317" lon="10.76455"><ele>101.0</ele><time>2026-04-25T09:15:19.72Z</time></trkpt><trkpt lat="45.4299067" lon="10.7645033"><ele>101.0</ele><time>2026-04-25T09:15:20.714Z</time></trkpt><trkpt lat="45.4299867" lon="10.7644333"><ele>100.75</ele><time>2026-04-25T09:15:21.714Z</time></trkpt><trkpt lat="45.4300767" lon="10.7643383"><ele>100.5</ele><time>2026-04-25T09:15:22.715Z</time></trkpt><trkpt lat="45.4301533" lon="10.76418"><ele>100.25</ele><time>2026-04-25T09:15:23.716Z</time></trkpt><trkpt lat="45.4302383" lon="10.764005"><ele>100.0</ele><time>2026-04-25T09:15:24.717Z</time></trkpt><trkpt lat="45.4303033" lon="10.7637967"><ele>100.0</ele><time>2026-04-25T09:15:25.717Z</time></trkpt><trkpt lat="45.4303783" lon="10.763575"><ele>100.0</ele><time>2026-04-25T09:15:26.716Z</time></trkpt><trkpt lat="45.4304717" lon="10.7633367"><ele>100.0</ele><time>2026-04-25T09:15:27.714Z</time></trkpt><trkpt lat="45.4305617" lon="10.76308"><ele>100.0</ele><time>2026-04-25T09:15:28.712Z</time></trkpt><trkpt lat="45.4306567" lon="10.7628183"><ele>100.0</ele><time>2026-04-25T09:15:29.721Z</time></trkpt><trkpt lat="45.430745" lon="10.762575"><ele>100.0</ele><time>2026-04-25T09:15:30.713Z</time></trkpt><trkpt lat="45.4308233" lon="10.7623583"><ele>100.0</ele><time>2026-04-25T09:15:31.712Z</time></trkpt><trkpt lat="45.4308817" lon="10.7621567"><ele>100.0</ele><time>2026-04-25T09:15:32.714Z</time></trkpt><trkpt lat="45.4309317" lon="10.76195"><ele>100.0</ele><time>2026-04-25T09:15:33.719Z</time></trkpt><trkpt lat="45.43095" lon="10.761715"><ele>99.66666666666667</ele><time>2026-04-25T09:15:34.715Z</time></trkpt><trkpt lat="45.4309383" lon="10.76144"><ele>99.33333333333334</ele><time>2026-04-25T09:15:35.714Z</time></trkpt><trkpt lat="45.430925" lon="10.761215"><ele>99.0</ele><time>2026-04-25T09:15:36.716Z</time></trkpt><trkpt lat="45.4309017" lon="10.760875"><ele>99.0</ele><time>2026-04-25T09:15:37.717Z</time></trkpt><trkpt lat="45.4309033" lon="10.7606067"><ele>99.0</ele><time>2026-04-25T09:15:38.723Z</time></trkpt><trkpt lat="45.4309017" lon="10.7603917"><ele>99.0</ele><time>2026-04-25T09:15:39.714Z</time></trkpt><trkpt lat="45.430915" lon="10.7602933"><ele>99.0</ele><time>2026-04-25T09:15:40.713Z</time></trkpt><trkpt lat="45.4310133" lon="10.760165"><ele>99.25</ele><time>2026-04-25T09:15:42.718Z</time></trkpt><trkpt lat="45.4311133" lon="10.760125"><ele>99.5</ele><time>2026-04-25T09:15:43.712Z</time></trkpt><trkpt lat="45.4312467" lon="10.7601283"><ele>99.75</ele><time>2026-04-25T09:15:44.712Z</time></trkpt><trkpt lat="45.43141" lon="10.7601317"><ele>100.0</ele><time>2026-04-25T09:15:45.717Z</time></trkpt><trkpt lat="45.431585" lon="10.76013"><ele>100.33333333333334</ele><time>2026-04-25T09:15:46.728Z</time></trkpt><trkpt lat="45.4317667" lon="10.7601367"><ele>100.66666666666666</ele><time>2026-04-25T09:15:47.716Z</time></trkpt><trkpt lat="45.43197" lon="10.760145"><ele>101.0</ele><time>2026-04-25T09:15:48.724Z</time></trkpt><trkpt lat="45.432175" lon="10.760115"><ele>101.66666666666666</ele><time>2026-04-25T09:15:49.725Z</time></trkpt><trkpt lat="45.432395" lon="10.7601083"><ele>102.33333333333334</ele><time>2026-04-25T09:15:50.716Z</time></trkpt><trkpt lat="45.4326183" lon="10.76011"><ele>103.0</ele><time>2026-04-25T09:15:51.722Z</time></trkpt><trkpt lat="45.4328033" lon="10.7601083"><ele>103.0</ele><time>2026-04-25T09:15:52.739Z</time></trkpt><trkpt lat="45.4330067" lon="10.7600917"><ele>103.0</ele><time>2026-04-25T09:15:53.769Z</time></trkpt><trkpt lat="45.43318" lon="10.7600783"><ele>103.0</ele><time>2026-04-25T09:15:54.719Z</time></trkpt><trkpt lat="45.4333083" lon="10.7600783"><ele>103.00000000000001</ele><time>2026-04-25T09:15:55.725Z</time></trkpt><trkpt lat="45.4334133" lon="10.7601"><ele>103.0</ele><time>2026-04-25T09:15:56.718Z</time></trkpt><trkpt lat="45.4334833" lon="10.760095"><ele>103.0</ele><time>2026-04-25T09:15:57.719Z</time></trkpt><trkpt lat="45.433565" lon="10.76009"><ele>103.0</ele><time>2026-04-25T09:15:58.721Z</time></trkpt><trkpt lat="45.433645" lon="10.7600633"><ele>103.00000000000001</ele><time>2026-04-25T09:15:59.722Z</time></trkpt><trkpt lat="45.4337283" lon="10.760045"><ele>103.0</ele><time>2026-04-25T09:16:00.723Z</time></trkpt><trkpt lat="45.4338267" lon="10.7600417"><ele>103.25</ele><time>2026-04-25T09:16:01.718Z</time></trkpt><trkpt lat="45.4339633" lon="10.7600467"><ele>103.5</ele><time>2026-04-25T09:16:02.717Z</time></trkpt><trkpt lat="45.4341117" lon="10.7600483"><ele>103.75</ele><time>2026-04-25T09:16:03.727Z</time></trkpt><trkpt lat="45.434245" lon="10.760025"><ele>104.0</ele><time>2026-04-25T09:16:04.714Z</time></trkpt><trkpt lat="45.4343833" lon="10.7600033"><ele>104.0</ele><time>2026-04-25T09:16:05.718Z</time></trkpt><trkpt lat="45.4344917" lon="10.7600083"><ele>104.0</ele><time>2026-04-25T09:16:06.713Z</time></trkpt><trkpt lat="45.4346117" lon="10.76"><ele>104.0</ele><time>2026-04-25T09:16:07.716Z</time></trkpt><trkpt lat="45.43471" lon="10.7599933"><ele>104.0</ele><time>2026-04-25T09:16:08.719Z</time></trkpt><trkpt lat="45.43481" lon="10.7599633"><ele>104.0</ele><time>2026-04-25T09:16:09.713Z</time></trkpt><trkpt lat="45.4348933" lon="10.7599567"><ele>104.4</ele><time>2026-04-25T09:16:10.717Z</time></trkpt><trkpt lat="45.4349867" lon="10.7599583"><ele>104.80000000000001</ele><time>2026-04-25T09:16:11.712Z</time></trkpt><trkpt lat="45.43507" lon="10.760015"><ele>105.19999999999999</ele><time>2026-04-25T09:16:12.72Z</time></trkpt><trkpt lat="45.4351767" lon="10.76004"><ele>105.6</ele><time>2026-04-25T09:16:13.71Z</time></trkpt><trkpt lat="45.435285" lon="10.760085"><ele>106.0</ele><time>2026-04-25T09:16:14.716Z</time></trkpt><trkpt lat="45.4354033" lon="10.7600883"><ele>106.0</ele><time>2026-04-25T09:16:15.716Z</time></trkpt><trkpt lat="45.4355117" lon="10.7601117"><ele>106.0</ele><time>2026-04-25T09:16:16.713Z</time></trkpt><trkpt lat="45.4355933" lon="10.7601417"><ele>106.0</ele><time>2026-04-25T09:16:17.717Z</time></trkpt><trkpt lat="45.43573" lon="10.7601517"><ele>106.0</ele><time>2026-04-25T09:16:18.714Z</time></trkpt><trkpt lat="45.435875" lon="10.7601517"><ele>106.0</ele><time>2026-04-25T09:16:19.714Z</time></trkpt><trkpt lat="45.4360517" lon="10.7601517"><ele>106.0</ele><time>2026-04-25T09:16:20.716Z</time></trkpt><trkpt lat="45.4362517" lon="10.7601633"><ele>106.0</ele><time>2026-04-25T09:16:21.721Z</time></trkpt><trkpt lat="45.4364483" lon="10.7601533"><ele>105.33333333333334</ele><time>2026-04-25T09:16:22.722Z</time></trkpt><trkpt lat="45.4366333" lon="10.7601267"><ele>104.66666666666666</ele><time>2026-04-25T09:16:23.729Z</time></trkpt><trkpt lat="45.4368017" lon="10.7601833"><ele>104.0</ele><time>2026-04-25T09:16:24.728Z</time></trkpt><trkpt lat="45.4369633" lon="10.76016"><ele>104.0</ele><time>2026-04-25T09:16:25.724Z</time></trkpt><trkpt lat="45.437125" lon="10.7601167"><ele>104.0</ele><time>2026-04-25T09:16:26.733Z</time></trkpt><trkpt lat="45.4372767" lon="10.76012"><ele>104.0</ele><time>2026-04-25T09:16:27.727Z</time></trkpt><trkpt lat="45.4374217" lon="10.7601517"><ele>104.2</ele><time>2026-04-25T09:16:28.721Z</time></trkpt><trkpt lat="45.4375433" lon="10.7601917"><ele>104.4</ele><time>2026-04-25T09:16:29.718Z</time></trkpt><trkpt lat="45.4376617" lon="10.760235"><ele>104.6</ele><time>2026-04-25T09:16:30.725Z</time></trkpt><trkpt lat="45.437765" lon="10.7602767"><ele>104.8</ele><time>2026-04-25T09:16:31.722Z</time></trkpt><trkpt lat="45.4378533" lon="10.7603233"><ele>105.0</ele><time>2026-04-25T09:16:32.714Z</time></trkpt><trkpt lat="45.4379333" lon="10.7603667"><ele>104.5</ele><time>2026-04-25T09:16:33.718Z</time></trkpt><trkpt lat="45.437995" lon="10.7604083"><ele>104.0</ele><time>2026-04-25T09:16:34.72Z</time></trkpt><trkpt lat="45.4380583" lon="10.760495"><ele>103.5</ele><time>2026-04-25T09:16:36.717Z</time></trkpt><trkpt lat="45.438115" lon="10.76055"><ele>103.0</ele><time>2026-04-25T09:16:39.715Z</time></trkpt><trkpt lat="45.4381767" lon="10.7606283"><ele>102.5</ele><time>2026-04-25T09:16:42.715Z</time></trkpt><trkpt lat="45.43829" lon="10.76072"><ele>102.0</ele><time>2026-04-25T09:16:44.717Z</time></trkpt><trkpt lat="45.4383767" lon="10.7607483"><ele>102.0</ele><time>2026-04-25T09:16:45.717Z</time></trkpt><trkpt lat="45.4384917" lon="10.760725"><ele>102.0</ele><time>2026-04-25T09:16:46.741Z</time></trkpt><trkpt lat="45.43861" lon="10.76067"><ele>102.0</ele><time>2026-04-25T09:16:47.729Z</time></trkpt><trkpt lat="45.438715" lon="10.7606183"><ele>102.0</ele><time>2026-04-25T09:16:48.719Z</time></trkpt><trkpt lat="45.438845" lon="10.7605683"><ele>101.8</ele><time>2026-04-25T09:16:49.725Z</time></trkpt><trkpt lat="45.4389483" lon="10.7605033"><ele>101.6</ele><time>2026-04-25T09:16:50.717Z</time></trkpt><trkpt lat="45.4390533" lon="10.7604617"><ele>101.39999999999999</ele><time>2026-04-25T09:16:51.715Z</time></trkpt><trkpt lat="45.439125" lon="10.7603967"><ele>101.19999999999999</ele><time>2026-04-25T09:16:52.724Z</time></trkpt><trkpt lat="45.4391967" lon="10.7603533"><ele>101.0</ele><time>2026-04-25T09:16:53.722Z</time></trkpt><trkpt lat="45.4392633" lon="10.7603083"><ele>101.0</ele><time>2026-04-25T09:16:54.734Z</time></trkpt><trkpt lat="45.4393367" lon="10.76028"><ele>101.0</ele><time>2026-04-25T09:16:55.726Z</time></trkpt><trkpt lat="45.4393967" lon="10.760235"><ele>101.0</ele><time>2026-04-25T09:16:56.721Z</time></trkpt><trkpt lat="45.439455" lon="10.7601883"><ele>101.0</ele><time>2026-04-25T09:16:57.722Z</time></trkpt><trkpt lat="45.4395183" lon="10.7601167"><ele>101.0</ele><time>2026-04-25T09:16:59.717Z</time></trkpt><trkpt lat="45.4394417" lon="10.7601417"><ele>101.0</ele><time>2026-04-25T09:17:10.712Z</time></trkpt><trkpt lat="45.4393767" lon="10.7601983"><ele>101.0</ele><time>2026-04-25T09:17:11.716Z</time></trkpt><trkpt lat="45.4392683" lon="10.76028"><ele>101.0</ele><time>2026-04-25T09:17:12.718Z</time></trkpt><trkpt lat="45.4391583" lon="10.7603583"><ele>101.0</ele><time>2026-04-25T09:17:13.716Z</time></trkpt><trkpt lat="45.4390333" lon="10.760435"><ele>101.0</ele><time>2026-04-25T09:17:14.718Z</time></trkpt><trkpt lat="45.4389017" lon="10.760505"><ele>101.0</ele><time>2026-04-25T09:17:15.717Z</time></trkpt><trkpt lat="45.43878" lon="10.76057"><ele>101.16666666666666</ele><time>2026-04-25T09:17:16.714Z</time></trkpt><trkpt lat="45.43867" lon="10.7606267"><ele>101.33333333333333</ele><time>2026-04-25T09:17:17.712Z</time></trkpt><trkpt lat="45.438595" lon="10.7606583"><ele>101.5</ele><time>2026-04-25T09:17:18.722Z</time></trkpt><trkpt lat="45.4385" lon="10.7606583"><ele>101.66666666666666</ele><time>2026-04-25T09:17:20.718Z</time></trkpt><trkpt lat="45.4384483" lon="10.76056"><ele>101.83333333333333</ele><time>2026-04-25T09:17:28.716Z</time></trkpt><trkpt lat="45.4383933" lon="10.7605067"><ele>102.0</ele><time>2026-04-25T09:17:29.717Z</time></trkpt><trkpt lat="45.43833" lon="10.7604633"><ele>102.0</ele><time>2026-04-25T09:17:30.756Z</time></trkpt><trkpt lat="45.438235" lon="10.760485"><ele>102.0</ele><time>2026-04-25T09:17:32.721Z</time></trkpt><trkpt lat="45.4382183" lon="10.7606633"><ele>102.0</ele><time>2026-04-25T09:17:34.718Z</time></trkpt><trkpt lat="45.4382433" lon="10.7607717"><ele>102.0</ele><time>2026-04-25T09:17:35.73Z</time></trkpt><trkpt lat="45.4382917" lon="10.7608817"><ele>102.0</ele><time>2026-04-25T09:17:36.723Z</time></trkpt><trkpt lat="45.438335" lon="10.76101"><ele>102.0</ele><time>2026-04-25T09:17:37.724Z</time></trkpt><trkpt lat="45.4383683" lon="10.761185"><ele>102.0</ele><time>2026-04-25T09:17:38.723Z</time></trkpt><trkpt lat="45.4383917" lon="10.76136"><ele>102.0</ele><time>2026-04-25T09:17:39.717Z</time></trkpt><trkpt lat="45.4384083" lon="10.7615483"><ele>102.0</ele><time>2026-04-25T09:17:40.73Z</time></trkpt><trkpt lat="45.4384183" lon="10.7617333"><ele>102.0</ele><time>2026-04-25T09:17:41.734Z</time></trkpt><trkpt lat="45.4384333" lon="10.76189"><ele>102.0</ele><time>2026-04-25T09:17:42.726Z</time></trkpt><trkpt lat="45.4384467" lon="10.762045"><ele>102.0</ele><time>2026-04-25T09:17:43.721Z</time></trkpt><trkpt lat="45.43846" lon="10.7622033"><ele>102.0</ele><time>2026-04-25T09:17:44.723Z</time></trkpt><trkpt lat="45.4384767" lon="10.7623683"><ele>102.0</ele><time>2026-04-25T09:17:45.736Z</time></trkpt><trkpt lat="45.4384933" lon="10.7625067"><ele>102.0</ele><time>2026-04-25T09:17:46.738Z</time></trkpt><trkpt lat="45.4385183" lon="10.762645"><ele>102.0</ele><time>2026-04-25T09:17:47.738Z</time></trkpt><trkpt lat="45.4385233" lon="10.762765"><ele>102.0</ele><time>2026-04-25T09:17:48.72Z</time></trkpt><trkpt lat="45.4385517" lon="10.762915"><ele>102.0</ele><time>2026-04-25T09:17:49.722Z</time></trkpt><trkpt lat="45.4385733" lon="10.7630817"><ele>102.0</ele><time>2026-04-25T09:17:50.722Z</time></trkpt><trkpt lat="45.4386017" lon="10.7632383"><ele>102.0</ele><time>2026-04-25T09:17:51.736Z</time></trkpt><trkpt lat="45.4386367" lon="10.7634017"><ele>102.0</ele><time>2026-04-25T09:17:52.729Z</time></trkpt><trkpt lat="45.438665" lon="10.763555"><ele>102.0</ele><time>2026-04-25T09:17:53.718Z</time></trkpt><trkpt lat="45.4386983" lon="10.7636967"><ele>102.0</ele><time>2026-04-25T09:17:54.74Z</time></trkpt><trkpt lat="45.4387233" lon="10.7638117"><ele>102.0</ele><time>2026-04-25T09:17:55.715Z</time></trkpt><trkpt lat="45.4387433" lon="10.7639267"><ele>102.0</ele><time>2026-04-25T09:17:56.72Z</time></trkpt><trkpt lat="45.4387567" lon="10.7640617"><ele>102.0</ele><time>2026-04-25T09:17:58.717Z</time></trkpt><trkpt lat="45.438785" lon="10.7641583"><ele>102.0</ele><time>2026-04-25T09:18:16.717Z</time></trkpt><trkpt lat="45.43881" lon="10.7642667"><ele>102.0</ele><time>2026-04-25T09:19:01.722Z</time></trkpt><trkpt lat="45.438865" lon="10.76433"><ele>102.0</ele><time>2026-04-25T09:19:04.715Z</time></trkpt><trkpt lat="45.4389633" lon="10.7643383"><ele>102.0</ele><time>2026-04-25T09:19:06.726Z</time></trkpt><trkpt lat="45.43903" lon="10.764325"><ele>102.66666666666667</ele><time>2026-04-25T09:19:07.73Z</time></trkpt><trkpt lat="45.439095" lon="10.764305"><ele>103.33333333333334</ele><time>2026-04-25T09:19:08.724Z</time></trkpt><trkpt lat="45.43922" lon="10.7642817"><ele>104.0</ele><time>2026-04-25T09:19:10.723Z</time></trkpt><trkpt lat="45.43929" lon="10.7642567"><ele>104.66666666666667</ele><time>2026-04-25T09:19:11.727Z</time></trkpt><trkpt lat="45.4393617" lon="10.7642317"><ele>105.33333333333334</ele><time>2026-04-25T09:19:12.725Z</time></trkpt><trkpt lat="45.4394317" lon="10.7642067"><ele>106.0</ele><time>2026-04-25T09:19:13.724Z</time></trkpt><trkpt lat="45.4395" lon="10.7641783"><ele>106.0</ele><time>2026-04-25T09:19:14.716Z</time></trkpt><trkpt lat="45.439565" lon="10.7641517"><ele>106.0</ele><time>2026-04-25T09:19:15.712Z</time></trkpt><trkpt lat="45.4396267" lon="10.764125"><ele>106.0</ele><time>2026-04-25T09:19:16.717Z</time></trkpt><trkpt lat="45.43974" lon="10.764095"><ele>106.0</ele><time>2026-04-25T09:19:18.713Z</time></trkpt><trkpt lat="45.43985" lon="10.7640567"><ele>106.0</ele><time>2026-04-25T09:19:20.714Z</time></trkpt><trkpt lat="45.4399667" lon="10.764025"><ele>106.19999999999999</ele><time>2026-04-25T09:19:22.712Z</time></trkpt><trkpt lat="45.4400783" lon="10.7639667"><ele>106.39999999999999</ele><time>2026-04-25T09:19:24.713Z</time></trkpt><trkpt lat="45.4401383" lon="10.7639383"><ele>106.6</ele><time>2026-04-25T09:19:25.713Z</time></trkpt><trkpt lat="45.4402" lon="10.763905"><ele>106.8</ele><time>2026-04-25T09:19:26.713Z</time></trkpt><trkpt lat="45.4403133" lon="10.7638783"><ele>107.0</ele><time>2026-04-25T09:19:28.711Z</time></trkpt><trkpt lat="45.4404" lon="10.7638633"><ele>107.33333333333333</ele><time>2026-04-25T09:19:30.712Z</time></trkpt><trkpt lat="45.4404733" lon="10.7638533"><ele>107.66666666666666</ele><time>2026-04-25T09:19:32.711Z</time></trkpt><trkpt lat="45.4405533" lon="10.7638467"><ele>108.0</ele><time>2026-04-25T09:19:35.716Z</time></trkpt><trkpt lat="45.4406283" lon="10.76386"><ele>108.33333333333334</ele><time>2026-04-25T09:19:37.715Z</time></trkpt><trkpt lat="45.4406833" lon="10.7639283"><ele>108.66666666666667</ele><time>2026-04-25T09:19:38.712Z</time></trkpt><trkpt lat="45.4407433" lon="10.7639817"><ele>109.0</ele><time>2026-04-25T09:19:40.711Z</time></trkpt><trkpt lat="45.4408183" lon="10.764055"><ele>109.00000000000001</ele><time>2026-04-25T09:19:42.721Z</time></trkpt><trkpt lat="45.4408533" lon="10.76413"><ele>109.0</ele><time>2026-04-25T09:19:43.711Z</time></trkpt><trkpt lat="45.44091" lon="10.7642017"><ele>109.0</ele><time>2026-04-25T09:19:44.71Z</time></trkpt><trkpt lat="45.4409817" lon="10.7642617"><ele>109.0</ele><time>2026-04-25T09:19:45.716Z</time></trkpt><trkpt lat="45.441045" lon="10.76434"><ele>109.00000000000001</ele><time>2026-04-25T09:19:46.71Z</time></trkpt><trkpt lat="45.4411183" lon="10.76442"><ele>109.0</ele><time>2026-04-25T09:19:47.714Z</time></trkpt><trkpt lat="45.4411783" lon="10.76454"><ele>109.50000000000001</ele><time>2026-04-25T09:19:48.713Z</time></trkpt><trkpt lat="45.4412517" lon="10.7646217"><ele>110.0</ele><time>2026-04-25T09:19:49.712Z</time></trkpt><trkpt lat="45.4413217" lon="10.7646933"><ele>110.5</ele><time>2026-04-25T09:19:50.713Z</time></trkpt><trkpt lat="45.44138" lon="10.76477"><ele>111.0</ele><time>2026-04-25T09:19:51.712Z</time></trkpt><trkpt lat="45.4414483" lon="10.7648317"><ele>111.50000000000001</ele><time>2026-04-25T09:19:52.711Z</time></trkpt><trkpt lat="45.441505" lon="10.7648983"><ele>112.0</ele><time>2026-04-25T09:19:53.712Z</time></trkpt><trkpt lat="45.4415517" lon="10.7649683"><ele>112.39999999999999</ele><time>2026-04-25T09:19:54.713Z</time></trkpt><trkpt lat="45.441605" lon="10.7650433"><ele>112.79999999999998</ele><time>2026-04-25T09:19:55.714Z</time></trkpt><trkpt lat="45.4416683" lon="10.7651417"><ele>113.2</ele><time>2026-04-25T09:19:56.712Z</time></trkpt><trkpt lat="45.4417367" lon="10.765255"><ele>113.6</ele><time>2026-04-25T09:19:57.711Z</time></trkpt><trkpt lat="45.441815" lon="10.7653683"><ele>114.0</ele><time>2026-04-25T09:19:58.713Z</time></trkpt><trkpt lat="45.4418967" lon="10.7654917"><ele>114.5</ele><time>2026-04-25T09:19:59.714Z</time></trkpt><trkpt lat="45.4420033" lon="10.7656"><ele>115.0</ele><time>2026-04-25T09:20:00.711Z</time></trkpt><trkpt lat="45.4421267" lon="10.765705"><ele>115.5</ele><time>2026-04-25T09:20:01.711Z</time></trkpt><trkpt lat="45.4422583" lon="10.7657883"><ele>116.0</ele><time>2026-04-25T09:20:02.711Z</time></trkpt><trkpt lat="45.44237" lon="10.7659067"><ele>116.5</ele><time>2026-04-25T09:20:03.711Z</time></trkpt><trkpt lat="45.4424367" lon="10.766055"><ele>117.0</ele><time>2026-04-25T09:20:04.715Z</time></trkpt><trkpt lat="45.4425" lon="10.76626"><ele>117.5</ele><time>2026-04-25T09:20:05.718Z</time></trkpt><trkpt lat="45.4426067" lon="10.766365"><ele>118.0</ele><time>2026-04-25T09:20:06.712Z</time></trkpt><trkpt lat="45.442695" lon="10.7664617"><ele>118.0</ele><time>2026-04-25T09:20:07.717Z</time></trkpt><trkpt lat="45.4427917" lon="10.7665383"><ele>118.0</ele><time>2026-04-25T09:20:08.722Z</time></trkpt><trkpt lat="45.4429217" lon="10.7665767"><ele>118.0</ele><time>2026-04-25T09:20:09.713Z</time></trkpt><trkpt lat="45.443" lon="10.766675"><ele>118.0</ele><time>2026-04-25T09:20:10.711Z</time></trkpt><trkpt lat="45.4431083" lon="10.76668"><ele>118.0</ele><time>2026-04-25T09:20:11.719Z</time></trkpt><trkpt lat="45.443225" lon="10.7666867"><ele>118.0</ele><time>2026-04-25T09:20:12.714Z</time></trkpt><trkpt lat="45.44333" lon="10.7666883"><ele>118.0</ele><time>2026-04-25T09:20:13.717Z</time></trkpt><trkpt lat="45.443455" lon="10.7666733"><ele>118.0</ele><time>2026-04-25T09:20:14.714Z</time></trkpt><trkpt lat="45.4435683" lon="10.76668"><ele>118.0</ele><time>2026-04-25T09:20:15.714Z</time></trkpt><trkpt lat="45.4437" lon="10.7666767"><ele>118.0</ele><time>2026-04-25T09:20:16.71Z</time></trkpt><trkpt lat="45.4438233" lon="10.76663"><ele>118.0</ele><time>2026-04-25T09:20:17.717Z</time></trkpt><trkpt lat="45.44394" lon="10.766675"><ele>118.0</ele><time>2026-04-25T09:20:18.714Z</time></trkpt><trkpt lat="45.444075" lon="10.7666917"><ele>117.5</ele><time>2026-04-25T09:20:19.712Z</time></trkpt><trkpt lat="45.4442167" lon="10.766745"><ele>117.0</ele><time>2026-04-25T09:20:20.714Z</time></trkpt><trkpt lat="45.4443267" lon="10.7668067"><ele>116.5</ele><time>2026-04-25T09:20:21.711Z</time></trkpt><trkpt lat="45.44446" lon="10.76686"><ele>116.0</ele><time>2026-04-25T09:20:22.712Z</time></trkpt><trkpt lat="45.4446117" lon="10.7668567"><ele>116.0</ele><time>2026-04-25T09:20:23.713Z</time></trkpt><trkpt lat="45.4447517" lon="10.7668967"><ele>116.0</ele><time>2026-04-25T09:20:24.727Z</time></trkpt><trkpt lat="45.444865" lon="10.76694"><ele>116.0</ele><time>2026-04-25T09:20:25.732Z</time></trkpt><trkpt lat="45.44499" lon="10.7669617"><ele>116.0</ele><time>2026-04-25T09:20:26.721Z</time></trkpt><trkpt lat="45.44512" lon="10.767025"><ele>116.0</ele><time>2026-04-25T09:20:27.718Z</time></trkpt><trkpt lat="45.4452383" lon="10.76708"><ele>116.0</ele><time>2026-04-25T09:20:28.752Z</time></trkpt><trkpt lat="45.4453567" lon="10.7671183"><ele>116.0</ele><time>2026-04-25T09:20:29.719Z</time></trkpt><trkpt lat="45.44549" lon="10.76715"><ele>116.0</ele><time>2026-04-25T09:20:30.732Z</time></trkpt><trkpt lat="45.4456117" lon="10.7671683"><ele>115.25</ele><time>2026-04-25T09:20:31.72Z</time></trkpt><trkpt lat="45.44575" lon="10.7672417"><ele>114.5</ele><time>2026-04-25T09:20:32.729Z</time></trkpt><trkpt lat="45.44587" lon="10.7672833"><ele>113.75</ele><time>2026-04-25T09:20:33.724Z</time></trkpt><trkpt lat="45.445935" lon="10.7673883"><ele>113.0</ele><time>2026-04-25T09:20:34.724Z</time></trkpt><trkpt lat="45.4460333" lon="10.7674717"><ele>113.0</ele><time>2026-04-25T09:20:35.725Z</time></trkpt><trkpt lat="45.44614" lon="10.7675967"><ele>113.00000000000001</ele><time>2026-04-25T09:20:36.73Z</time></trkpt><trkpt lat="45.4462383" lon="10.7677167"><ele>113.00000000000001</ele><time>2026-04-25T09:20:37.723Z</time></trkpt><trkpt lat="45.4463017" lon="10.7678183"><ele>113.0</ele><time>2026-04-25T09:20:38.724Z</time></trkpt><trkpt lat="45.44633" lon="10.7679183"><ele>113.0</ele><time>2026-04-25T09:20:39.717Z</time></trkpt><trkpt lat="45.4464183" lon="10.768065"><ele>112.75</ele><time>2026-04-25T09:20:46.717Z</time></trkpt><trkpt lat="45.4465033" lon="10.768135"><ele>112.5</ele><time>2026-04-25T09:20:47.714Z</time></trkpt><trkpt lat="45.446625" lon="10.7682067"><ele>112.25</ele><time>2026-04-25T09:20:48.715Z</time></trkpt><trkpt lat="45.4467917" lon="10.768285"><ele>112.0</ele><time>2026-04-25T09:20:49.717Z</time></trkpt><trkpt lat="45.4469633" lon="10.7683667"><ele>112.66666666666667</ele><time>2026-04-25T09:20:50.712Z</time></trkpt><trkpt lat="45.4471667" lon="10.768475"><ele>113.33333333333334</ele><time>2026-04-25T09:20:51.711Z</time></trkpt><trkpt lat="45.447375" lon="10.768605"><ele>114.0</ele><time>2026-04-25T09:20:52.717Z</time></trkpt><trkpt lat="45.4475917" lon="10.76875"><ele>114.0</ele><time>2026-04-25T09:20:53.713Z</time></trkpt><trkpt lat="45.44782" lon="10.7689067"><ele>114.0</ele><time>2026-04-25T09:20:54.724Z</time></trkpt><trkpt lat="45.4480533" lon="10.769075"><ele>114.0</ele><time>2026-04-25T09:20:55.723Z</time></trkpt><trkpt lat="45.4482867" lon="10.7692583"><ele>114.0</ele><time>2026-04-25T09:20:56.724Z</time></trkpt><trkpt lat="45.448515" lon="10.76947"><ele>113.66666666666666</ele><time>2026-04-25T09:20:57.726Z</time></trkpt><trkpt lat="45.4487033" lon="10.7696717"><ele>113.33333333333333</ele><time>2026-04-25T09:20:58.729Z</time></trkpt><trkpt lat="45.4488467" lon="10.7698683"><ele>113.0</ele><time>2026-04-25T09:20:59.724Z</time></trkpt><trkpt lat="45.4489583" lon="10.770045"><ele>113.4</ele><time>2026-04-25T09:21:00.723Z</time></trkpt><trkpt lat="45.4490533" lon="10.7701883"><ele>113.80000000000001</ele><time>2026-04-25T09:21:01.726Z</time></trkpt><trkpt lat="45.4491283" lon="10.7703017"><ele>114.2</ele><time>2026-04-25T09:21:02.726Z</time></trkpt><trkpt lat="45.44919" lon="10.7703867"><ele>114.6</ele><time>2026-04-25T09:21:03.719Z</time></trkpt><trkpt lat="45.4492483" lon="10.7704333"><ele>115.0</ele><time>2026-04-25T09:21:04.722Z</time></trkpt><trkpt lat="45.44931" lon="10.7704633"><ele>115.0</ele><time>2026-04-25T09:21:05.717Z</time></trkpt><trkpt lat="45.4494017" lon="10.7704717"><ele>115.0</ele><time>2026-04-25T09:21:06.73Z</time></trkpt><trkpt lat="45.449535" lon="10.770455"><ele>115.0</ele><time>2026-04-25T09:21:07.712Z</time></trkpt><trkpt lat="45.4497233" lon="10.7704567"><ele>115.0</ele><time>2026-04-25T09:21:08.719Z</time></trkpt><trkpt lat="45.4499117" lon="10.7704783"><ele>115.0</ele><time>2026-04-25T09:21:09.721Z</time></trkpt><trkpt lat="45.4501033" lon="10.77047"><ele>115.0</ele><time>2026-04-25T09:21:10.714Z</time></trkpt><trkpt lat="45.4502667" lon="10.7704933"><ele>115.0</ele><time>2026-04-25T09:21:11.719Z</time></trkpt><trkpt lat="45.45042" lon="10.770515"><ele>115.25</ele><time>2026-04-25T09:21:12.715Z</time></trkpt><trkpt lat="45.45056" lon="10.7705267"><ele>115.5</ele><time>2026-04-25T09:21:13.712Z</time></trkpt><trkpt lat="45.450685" lon="10.7705433"><ele>115.75</ele><time>2026-04-25T09:21:14.709Z</time></trkpt><trkpt lat="45.450815" lon="10.77056"><ele>116.0</ele><time>2026-04-25T09:21:15.719Z</time></trkpt><trkpt lat="45.4509467" lon="10.77059"><ele>116.0</ele><time>2026-04-25T09:21:16.712Z</time></trkpt><trkpt lat="45.4511" lon="10.7706317"><ele>116.0</ele><time>2026-04-25T09:21:17.716Z</time></trkpt><trkpt lat="45.4512583" lon="10.7706567"><ele>116.0</ele><time>2026-04-25T09:21:18.719Z</time></trkpt><trkpt lat="45.4514133" lon="10.7706817"><ele>116.33333333333333</ele><time>2026-04-25T09:21:19.713Z</time></trkpt><trkpt lat="45.4515567" lon="10.7707217"><ele>116.66666666666666</ele><time>2026-04-25T09:21:20.718Z</time></trkpt><trkpt lat="45.451715" lon="10.77075"><ele>117.0</ele><time>2026-04-25T09:21:21.719Z</time></trkpt><trkpt lat="45.4518683" lon="10.7707833"><ele>117.0</ele><time>2026-04-25T09:21:22.711Z</time></trkpt><trkpt lat="45.4520267" lon="10.7708183"><ele>117.0</ele><time>2026-04-25T09:21:23.71Z</time></trkpt><trkpt lat="45.4521833" lon="10.77085"><ele>117.0</ele><time>2026-04-25T09:21:24.715Z</time></trkpt><trkpt lat="45.4523433" lon="10.7708667"><ele>117.66666666666666</ele><time>2026-04-25T09:21:25.711Z</time></trkpt><trkpt lat="45.4525017" lon="10.7709"><ele>118.33333333333333</ele><time>2026-04-25T09:21:26.711Z</time></trkpt><trkpt lat="45.4526733" lon="10.7709317"><ele>119.0</ele><time>2026-04-25T09:21:27.71Z</time></trkpt><trkpt lat="45.4528367" lon="10.7709667"><ele>118.75</ele><time>2026-04-25T09:21:28.715Z</time></trkpt><trkpt lat="45.45299" lon="10.77098"><ele>118.5</ele><time>2026-04-25T09:21:29.721Z</time></trkpt><trkpt lat="45.4531283" lon="10.7710083"><ele>118.25</ele><time>2026-04-25T09:21:30.725Z</time></trkpt><trkpt lat="45.4532733" lon="10.77104"><ele>118.0</ele><time>2026-04-25T09:21:31.731Z</time></trkpt><trkpt lat="45.4534317" lon="10.771065"><ele>118.0</ele><time>2026-04-25T09:21:32.739Z</time></trkpt><trkpt lat="45.4535867" lon="10.7710733"><ele>118.0</ele><time>2026-04-25T09:21:33.725Z</time></trkpt><trkpt lat="45.453745" lon="10.771085"><ele>118.0</ele><time>2026-04-25T09:21:34.726Z</time></trkpt><trkpt lat="45.45389" lon="10.7711267"><ele>117.66666666666667</ele><time>2026-04-25T09:21:35.717Z</time></trkpt><trkpt lat="45.4540567" lon="10.7711533"><ele>117.33333333333334</ele><time>2026-04-25T09:21:36.722Z</time></trkpt><trkpt lat="45.454215" lon="10.7711917"><ele>117.0</ele><time>2026-04-25T09:21:37.723Z</time></trkpt><trkpt lat="45.4543767" lon="10.77124"><ele>117.0</ele><time>2026-04-25T09:21:38.726Z</time></trkpt><trkpt lat="45.4545317" lon="10.7712767"><ele>117.0</ele><time>2026-04-25T09:21:39.735Z</time></trkpt><trkpt lat="45.4546817" lon="10.7712967"><ele>117.0</ele><time>2026-04-25T09:21:40.723Z</time></trkpt><trkpt lat="45.454805" lon="10.771305"><ele>117.0</ele><time>2026-04-25T09:21:41.727Z</time></trkpt><trkpt lat="45.4548967" lon="10.771295"><ele>117.5</ele><time>2026-04-25T09:21:42.729Z</time></trkpt><trkpt lat="45.4549633" lon="10.77129"><ele>118.0</ele><time>2026-04-25T09:21:43.722Z</time></trkpt><trkpt lat="45.4550583" lon="10.77131"><ele>118.5</ele><time>2026-04-25T09:21:45.719Z</time></trkpt><trkpt lat="45.4550817" lon="10.7714283"><ele>119.0</ele><time>2026-04-25T09:21:47.722Z</time></trkpt><trkpt lat="45.4550833" lon="10.7715283"><ele>119.5</ele><time>2026-04-25T09:21:48.723Z</time></trkpt><trkpt lat="45.4551233" lon="10.7716883"><ele>120.0</ele><time>2026-04-25T09:21:50.728Z</time></trkpt><trkpt lat="45.4552617" lon="10.7717617"><ele>120.0</ele><time>2026-04-25T09:21:52.714Z</time></trkpt><trkpt lat="45.4553583" lon="10.7717883"><ele>120.0</ele><time>2026-04-25T09:21:53.717Z</time></trkpt><trkpt lat="45.455455" lon="10.7718083"><ele>120.0</ele><time>2026-04-25T09:21:54.712Z</time></trkpt><trkpt lat="45.45558" lon="10.77183"><ele>120.0</ele><time>2026-04-25T09:21:55.726Z</time></trkpt><trkpt lat="45.4557033" lon="10.7718567"><ele>120.0</ele><time>2026-04-25T09:21:56.718Z</time></trkpt><trkpt lat="45.45584" lon="10.7718917"><ele>120.25</ele><time>2026-04-25T09:21:57.71Z</time></trkpt><trkpt lat="45.455975" lon="10.77194"><ele>120.5</ele><time>2026-04-25T09:21:58.709Z</time></trkpt><trkpt lat="45.4561017" lon="10.7719733"><ele>120.75</ele><time>2026-04-25T09:21:59.712Z</time></trkpt><trkpt lat="45.4562233" lon="10.771995"><ele>121.0</ele><time>2026-04-25T09:22:00.718Z</time></trkpt><trkpt lat="45.4563517" lon="10.7720233"><ele>121.0</ele><time>2026-04-25T09:22:01.712Z</time></trkpt><trkpt lat="45.456495" lon="10.7720383"><ele>121.0</ele><time>2026-04-25T09:22:02.714Z</time></trkpt><trkpt lat="45.45663" lon="10.7720633"><ele>121.0</ele><time>2026-04-25T09:22:03.712Z</time></trkpt><trkpt lat="45.456805" lon="10.7720767"><ele>121.0</ele><time>2026-04-25T09:22:04.71Z</time></trkpt><trkpt lat="45.4569767" lon="10.7721017"><ele>121.0</ele><time>2026-04-25T09:22:05.714Z</time></trkpt><trkpt lat="45.45714" lon="10.7720933"><ele>121.0</ele><time>2026-04-25T09:22:06.719Z</time></trkpt><trkpt lat="45.45727" lon="10.7721017"><ele>121.0</ele><time>2026-04-25T09:22:07.723Z</time></trkpt><trkpt lat="45.4574067" lon="10.7721"><ele>121.0</ele><time>2026-04-25T09:22:08.716Z</time></trkpt><trkpt lat="45.4575033" lon="10.7720867"><ele>121.0</ele><time>2026-04-25T09:22:09.715Z</time></trkpt><trkpt lat="45.4575967" lon="10.77208"><ele>121.0</ele><time>2026-04-25T09:22:10.711Z</time></trkpt><trkpt lat="45.4576867" lon="10.7720767"><ele>121.0</ele><time>2026-04-25T09:22:11.716Z</time></trkpt><trkpt lat="45.4577833" lon="10.77209"><ele>121.0</ele><time>2026-04-25T09:22:12.718Z</time></trkpt><trkpt lat="45.4578983" lon="10.772085"><ele>121.0</ele><time>2026-04-25T09:22:13.72Z</time></trkpt><trkpt lat="45.4580333" lon="10.7720717"><ele>121.0</ele><time>2026-04-25T09:22:14.712Z</time></trkpt><trkpt lat="45.45818" lon="10.7720933"><ele>121.0</ele><time>2026-04-25T09:22:15.714Z</time></trkpt><trkpt lat="45.458345" lon="10.77209"><ele>121.0</ele><time>2026-04-25T09:22:16.71Z</time></trkpt><trkpt lat="45.4585067" lon="10.7720633"><ele>121.0</ele><time>2026-04-25T09:22:17.712Z</time></trkpt><trkpt lat="45.458685" lon="10.7720567"><ele>121.0</ele><time>2026-04-25T09:22:18.709Z</time></trkpt><trkpt lat="45.45885" lon="10.772035"><ele>121.0</ele><time>2026-04-25T09:22:19.713Z</time></trkpt><trkpt lat="45.4590317" lon="10.7719983"><ele>121.0</ele><time>2026-04-25T09:22:20.714Z</time></trkpt><trkpt lat="45.4591867" lon="10.7719633"><ele>121.0</ele><time>2026-04-25T09:22:21.722Z</time></trkpt><trkpt lat="45.4593267" lon="10.771945"><ele>121.0</ele><time>2026-04-25T09:22:22.724Z</time></trkpt><trkpt lat="45.45947" lon="10.771905"><ele>121.0</ele><time>2026-04-25T09:22:23.739Z</time></trkpt><trkpt lat="45.459615" lon="10.7719083"><ele>121.0</ele><time>2026-04-25T09:22:24.714Z</time></trkpt><trkpt lat="45.4597583" lon="10.771925"><ele>121.0</ele><time>2026-04-25T09:22:25.722Z</time></trkpt><trkpt lat="45.4599" lon="10.7719367"><ele>121.25</ele><time>2026-04-25T09:22:26.715Z</time></trkpt><trkpt lat="45.460045" lon="10.7719533"><ele>121.5</ele><time>2026-04-25T09:22:27.716Z</time></trkpt><trkpt lat="45.4601817" lon="10.771955"><ele>121.75</ele><time>2026-04-25T09:22:28.715Z</time></trkpt><trkpt lat="45.460325" lon="10.7719467"><ele>122.0</ele><time>2026-04-25T09:22:29.713Z</time></trkpt><trkpt lat="45.4604767" lon="10.77194"><ele>122.25</ele><time>2026-04-25T09:22:30.723Z</time></trkpt><trkpt lat="45.46063" lon="10.771965"><ele>122.5</ele><time>2026-04-25T09:22:31.723Z</time></trkpt><trkpt lat="45.4607783" lon="10.7719683"><ele>122.75</ele><time>2026-04-25T09:22:32.728Z</time></trkpt><trkpt lat="45.4609117" lon="10.772005"><ele>123.0</ele><time>2026-04-25T09:22:33.724Z</time></trkpt><trkpt lat="45.4610083" lon="10.7720017"><ele>123.0</ele><time>2026-04-25T09:22:34.712Z</time></trkpt><trkpt lat="45.46111" lon="10.7720033"><ele>123.00000000000001</ele><time>2026-04-25T09:22:35.725Z</time></trkpt><trkpt lat="45.4611717" lon="10.7719783"><ele>123.00000000000001</ele><time>2026-04-25T09:22:36.719Z</time></trkpt><trkpt lat="45.4612433" lon="10.7719933"><ele>123.0</ele><time>2026-04-25T09:22:38.723Z</time></trkpt><trkpt lat="45.4612667" lon="10.7721783"><ele>123.0</ele><time>2026-04-25T09:22:44.715Z</time></trkpt><trkpt lat="45.4612717" lon="10.772305"><ele>123.33333333333333</ele><time>2026-04-25T09:22:45.719Z</time></trkpt><trkpt lat="45.4612833" lon="10.772425"><ele>123.66666666666666</ele><time>2026-04-25T09:22:46.722Z</time></trkpt><trkpt lat="45.4613" lon="10.77252"><ele>124.0</ele><time>2026-04-25T09:22:47.723Z</time></trkpt><trkpt lat="45.4613867" lon="10.7725967"><ele>124.33333333333333</ele><time>2026-04-25T09:22:49.713Z</time></trkpt><trkpt lat="45.461465" lon="10.7726083"><ele>124.66666666666666</ele><time>2026-04-25T09:22:50.71Z</time></trkpt><trkpt lat="45.46157" lon="10.7726183"><ele>125.0</ele><time>2026-04-25T09:22:51.716Z</time></trkpt><trkpt lat="45.461705" lon="10.772625"><ele>125.0</ele><time>2026-04-25T09:22:52.714Z</time></trkpt><trkpt lat="45.4618383" lon="10.7726067"><ele>125.0</ele><time>2026-04-25T09:22:53.714Z</time></trkpt><trkpt lat="45.46201" lon="10.7725717"><ele>125.0</ele><time>2026-04-25T09:22:54.713Z</time></trkpt><trkpt lat="45.462175" lon="10.772545"><ele>125.66666666666666</ele><time>2026-04-25T09:22:55.711Z</time></trkpt><trkpt lat="45.4623517" lon="10.7725067"><ele>126.33333333333334</ele><time>2026-04-25T09:22:56.719Z</time></trkpt><trkpt lat="45.46251" lon="10.7724533"><ele>127.0</ele><time>2026-04-25T09:22:57.718Z</time></trkpt><trkpt lat="45.462655" lon="10.7724183"><ele>127.0</ele><time>2026-04-25T09:22:58.717Z</time></trkpt><trkpt lat="45.4627817" lon="10.7723783"><ele>127.0</ele><time>2026-04-25T09:22:59.716Z</time></trkpt><trkpt lat="45.462915" lon="10.7723617"><ele>127.0</ele><time>2026-04-25T09:23:00.721Z</time></trkpt><trkpt lat="45.4630517" lon="10.77237"><ele>127.0</ele><time>2026-04-25T09:23:01.715Z</time></trkpt><trkpt lat="45.463215" lon="10.7723833"><ele>128.0</ele><time>2026-04-25T09:23:02.711Z</time></trkpt><trkpt lat="45.4633667" lon="10.772425"><ele>129.0</ele><time>2026-04-25T09:23:03.717Z</time></trkpt><trkpt lat="45.4635" lon="10.7724583"><ele>130.0</ele><time>2026-04-25T09:23:04.729Z</time></trkpt><trkpt lat="45.4636233" lon="10.7725083"><ele>131.0</ele><time>2026-04-25T09:23:05.718Z</time></trkpt><trkpt lat="45.463745" lon="10.77258"><ele>131.75</ele><time>2026-04-25T09:23:06.729Z</time></trkpt><trkpt lat="45.463875" lon="10.7726383"><ele>132.5</ele><time>2026-04-25T09:23:07.728Z</time></trkpt><trkpt lat="45.4640083" lon="10.7727133"><ele>133.25</ele><time>2026-04-25T09:23:08.716Z</time></trkpt><trkpt lat="45.4641267" lon="10.7728"><ele>134.0</ele><time>2026-04-25T09:23:09.716Z</time></trkpt><trkpt lat="45.4642267" lon="10.7728917"><ele>134.4</ele><time>2026-04-25T09:23:10.719Z</time></trkpt><trkpt lat="45.4643" lon="10.772975"><ele>134.8</ele><time>2026-04-25T09:23:11.724Z</time></trkpt><trkpt lat="45.4643683" lon="10.7730983"><ele>135.2</ele><time>2026-04-25T09:23:13.739Z</time></trkpt><trkpt lat="45.46443" lon="10.7731817"><ele>135.6</ele><time>2026-04-25T09:23:15.718Z</time></trkpt><trkpt lat="45.46455" lon="10.77324"><ele>136.0</ele><time>2026-04-25T09:23:17.739Z</time></trkpt><trkpt lat="45.4646267" lon="10.7732733"><ele>136.0</ele><time>2026-04-25T09:23:18.741Z</time></trkpt><trkpt lat="45.4647117" lon="10.7733067"><ele>136.0</ele><time>2026-04-25T09:23:19.725Z</time></trkpt><trkpt lat="45.4647817" lon="10.7733417"><ele>136.0</ele><time>2026-04-25T09:23:20.716Z</time></trkpt><trkpt lat="45.4648533" lon="10.7733717"><ele>136.0</ele><time>2026-04-25T09:23:21.715Z</time></trkpt><trkpt lat="45.4649483" lon="10.77341"><ele>136.0</ele><time>2026-04-25T09:23:23.713Z</time></trkpt><trkpt lat="45.46494" lon="10.77332"><ele>136.0</ele><time>2026-04-25T09:23:26.716Z</time></trkpt><trkpt lat="45.46482" lon="10.7732967"><ele>136.0</ele><time>2026-04-25T09:23:29.72Z</time></trkpt><trkpt lat="45.4647467" lon="10.7732933"><ele>136.0</ele><time>2026-04-25T09:23:30.717Z</time></trkpt><trkpt lat="45.4646617" lon="10.7732833"><ele>136.0</ele><time>2026-04-25T09:23:31.716Z</time></trkpt><trkpt lat="45.46457" lon="10.7732417"><ele>136.0</ele><time>2026-04-25T09:23:32.744Z</time></trkpt><trkpt lat="45.464485" lon="10.773205"><ele>136.0</ele><time>2026-04-25T09:23:33.715Z</time></trkpt><trkpt lat="45.464405" lon="10.773185"><ele>136.0</ele><time>2026-04-25T09:23:34.728Z</time></trkpt><trkpt lat="45.4643333" lon="10.77318"><ele>136.2</ele><time>2026-04-25T09:23:35.723Z</time></trkpt><trkpt lat="45.4642317" lon="10.77327"><ele>136.39999999999998</ele><time>2026-04-25T09:23:37.718Z</time></trkpt><trkpt lat="45.464185" lon="10.77337"><ele>136.6</ele><time>2026-04-25T09:23:38.717Z</time></trkpt><trkpt lat="45.4641317" lon="10.773495"><ele>136.79999999999998</ele><time>2026-04-25T09:23:39.722Z</time></trkpt><trkpt lat="45.4640817" lon="10.7736633"><ele>137.0</ele><time>2026-04-25T09:23:40.716Z</time></trkpt><trkpt lat="45.46402" lon="10.77385"><ele>137.79999999999998</ele><time>2026-04-25T09:23:41.718Z</time></trkpt><trkpt lat="45.4639633" lon="10.7740017"><ele>138.6</ele><time>2026-04-25T09:23:42.757Z</time></trkpt><trkpt lat="45.4638967" lon="10.7741517"><ele>139.39999999999998</ele><time>2026-04-25T09:23:43.722Z</time></trkpt><trkpt lat="45.46384" lon="10.7742517"><ele>140.2</ele><time>2026-04-25T09:23:44.718Z</time></trkpt><trkpt lat="45.4638167" lon="10.7743367"><ele>141.0</ele><time>2026-04-25T09:23:45.725Z</time></trkpt><trkpt lat="45.4638383" lon="10.7744767"><ele>141.25</ele><time>2026-04-25T09:23:47.716Z</time></trkpt><trkpt lat="45.4639333" lon="10.7746133"><ele>141.5</ele><time>2026-04-25T09:23:49.735Z</time></trkpt><trkpt lat="45.464015" lon="10.7746967"><ele>141.75</ele><time>2026-04-25T09:23:50.719Z</time></trkpt><trkpt lat="45.464115" lon="10.7748"><ele>142.0</ele><time>2026-04-25T09:23:51.715Z</time></trkpt><trkpt lat="45.4642333" lon="10.774905"><ele>142.0</ele><time>2026-04-25T09:23:52.71Z</time></trkpt><trkpt lat="45.4643283" lon="10.7750067"><ele>142.0</ele><time>2026-04-25T09:23:53.715Z</time></trkpt><trkpt lat="45.4644233" lon="10.775105"><ele>142.0</ele><time>2026-04-25T09:23:54.729Z</time></trkpt><trkpt lat="45.464525" lon="10.7751633"><ele>142.0</ele><time>2026-04-25T09:23:55.715Z</time></trkpt><trkpt lat="45.4645917" lon="10.7752433"><ele>142.0</ele><time>2026-04-25T09:23:56.71Z</time></trkpt><trkpt lat="45.4646583" lon="10.7753467"><ele>143.75</ele><time>2026-04-25T09:23:57.719Z</time></trkpt><trkpt lat="45.46475" lon="10.7754217"><ele>145.5</ele><time>2026-04-25T09:23:58.719Z</time></trkpt><trkpt lat="45.4648483" lon="10.7755167"><ele>147.25</ele><time>2026-04-25T09:23:59.714Z</time></trkpt><trkpt lat="45.4649467" lon="10.7755983"><ele>149.0</ele><time>2026-04-25T09:24:00.714Z</time></trkpt><trkpt lat="45.4650483" lon="10.7756867"><ele>149.0</ele><time>2026-04-25T09:24:01.719Z</time></trkpt><trkpt lat="45.4651633" lon="10.7757617"><ele>149.0</ele><time>2026-04-25T09:24:02.723Z</time></trkpt><trkpt lat="45.465275" lon="10.7758567"><ele>149.0</ele><time>2026-04-25T09:24:03.713Z</time></trkpt><trkpt lat="45.46536" lon="10.7759383"><ele>149.0</ele><time>2026-04-25T09:24:04.715Z</time></trkpt><trkpt lat="45.465425" lon="10.7760167"><ele>149.0</ele><time>2026-04-25T09:24:05.712Z</time></trkpt><trkpt lat="45.4655117" lon="10.7760833"><ele>149.4</ele><time>2026-04-25T09:24:06.715Z</time></trkpt><trkpt lat="45.465605" lon="10.7761383"><ele>149.8</ele><time>2026-04-25T09:24:07.713Z</time></trkpt><trkpt lat="45.4657067" lon="10.776185"><ele>150.2</ele><time>2026-04-25T09:24:08.714Z</time></trkpt><trkpt lat="45.4657983" lon="10.7762217"><ele>150.6</ele><time>2026-04-25T09:24:09.721Z</time></trkpt><trkpt lat="45.4659" lon="10.776275"><ele>151.0</ele><time>2026-04-25T09:24:10.72Z</time></trkpt><trkpt lat="45.46599" lon="10.7763217"><ele>151.0</ele><time>2026-04-25T09:24:11.711Z</time></trkpt><trkpt lat="45.4661" lon="10.7763567"><ele>151.0</ele><time>2026-04-25T09:24:12.714Z</time></trkpt><trkpt lat="45.4662167" lon="10.7763783"><ele>151.0</ele><time>2026-04-25T09:24:13.713Z</time></trkpt><trkpt lat="45.4663017" lon="10.77643"><ele>151.0</ele><time>2026-04-25T09:24:14.72Z</time></trkpt><trkpt lat="45.4663783" lon="10.77647"><ele>151.0</ele><time>2026-04-25T09:24:15.709Z</time></trkpt><trkpt lat="45.4664683" lon="10.7765167"><ele>151.75</ele><time>2026-04-25T09:24:16.712Z</time></trkpt><trkpt lat="45.4665617" lon="10.7765733"><ele>152.5</ele><time>2026-04-25T09:24:17.717Z</time></trkpt><trkpt lat="45.4666983" lon="10.7766383"><ele>153.25</ele><time>2026-04-25T09:24:18.71Z</time></trkpt><trkpt lat="45.466815" lon="10.7767133"><ele>154.0</ele><time>2026-04-25T09:24:19.713Z</time></trkpt><trkpt lat="45.4669533" lon="10.776785"><ele>153.5</ele><time>2026-04-25T09:24:20.714Z</time></trkpt><trkpt lat="45.4670783" lon="10.7768667"><ele>153.0</ele><time>2026-04-25T09:24:21.714Z</time></trkpt><trkpt lat="45.467225" lon="10.7769417"><ele>152.5</ele><time>2026-04-25T09:24:22.71Z</time></trkpt><trkpt lat="45.4673483" lon="10.7770067"><ele>152.0</ele><time>2026-04-25T09:24:23.714Z</time></trkpt><trkpt lat="45.467455" lon="10.7770517"><ele>153.2</ele><time>2026-04-25T09:24:24.719Z</time></trkpt><trkpt lat="45.4675683" lon="10.7770867"><ele>154.39999999999998</ele><time>2026-04-25T09:24:25.726Z</time></trkpt><trkpt lat="45.4676483" lon="10.7771267"><ele>155.60000000000002</ele><time>2026-04-25T09:24:26.721Z</time></trkpt><trkpt lat="45.467725" lon="10.77715"><ele>156.8</ele><time>2026-04-25T09:24:27.723Z</time></trkpt><trkpt lat="45.467795" lon="10.77721"><ele>158.0</ele><time>2026-04-25T09:24:28.717Z</time></trkpt><trkpt lat="45.4678783" lon="10.777275"><ele>157.5</ele><time>2026-04-25T09:24:29.72Z</time></trkpt><trkpt lat="45.4679767" lon="10.777355"><ele>157.0</ele><time>2026-04-25T09:24:30.722Z</time></trkpt><trkpt lat="45.468095" lon="10.7774317"><ele>156.5</ele><time>2026-04-25T09:24:31.72Z</time></trkpt><trkpt lat="45.4682267" lon="10.7775317"><ele>156.0</ele><time>2026-04-25T09:24:32.725Z</time></trkpt><trkpt lat="45.46836" lon="10.777565"><ele>156.0</ele><time>2026-04-25T09:24:33.719Z</time></trkpt><trkpt lat="45.468495" lon="10.7776417"><ele>156.0</ele><time>2026-04-25T09:24:34.715Z</time></trkpt><trkpt lat="45.4686167" lon="10.7777283"><ele>156.0</ele><time>2026-04-25T09:24:35.723Z</time></trkpt><trkpt lat="45.468735" lon="10.77781"><ele>156.0</ele><time>2026-04-25T09:24:36.721Z</time></trkpt><trkpt lat="45.46885" lon="10.7778933"><ele>155.6</ele><time>2026-04-25T09:24:37.721Z</time></trkpt><trkpt lat="45.468965" lon="10.7779617"><ele>155.2</ele><time>2026-04-25T09:24:38.724Z</time></trkpt><trkpt lat="45.4690467" lon="10.7780017"><ele>154.8</ele><time>2026-04-25T09:24:39.72Z</time></trkpt><trkpt lat="45.4691167" lon="10.778035"><ele>154.4</ele><time>2026-04-25T09:24:40.73Z</time></trkpt><trkpt lat="45.4691817" lon="10.7780767"><ele>154.0</ele><time>2026-04-25T09:24:41.722Z</time></trkpt><trkpt lat="45.4692367" lon="10.7781867"><ele>154.0</ele><time>2026-04-25T09:24:43.716Z</time></trkpt><trkpt lat="45.4691967" lon="10.7783133"><ele>154.0</ele><time>2026-04-25T09:24:45.72Z</time></trkpt><trkpt lat="45.4691583" lon="10.7783917"><ele>154.0</ele><time>2026-04-25T09:24:46.727Z</time></trkpt><trkpt lat="45.4691067" lon="10.7784867"><ele>154.0</ele><time>2026-04-25T09:24:47.718Z</time></trkpt><trkpt lat="45.4690383" lon="10.7785883"><ele>154.0</ele><time>2026-04-25T09:24:48.712Z</time></trkpt><trkpt lat="45.4689533" lon="10.7787083"><ele>154.0</ele><time>2026-04-25T09:24:49.722Z</time></trkpt><trkpt lat="45.46885" lon="10.77886"><ele>154.0</ele><time>2026-04-25T09:24:50.723Z</time></trkpt><trkpt lat="45.4687283" lon="10.7790067"><ele>154.0</ele><time>2026-04-25T09:24:51.714Z</time></trkpt><trkpt lat="45.4686133" lon="10.7791733"><ele>153.33333333333334</ele><time>2026-04-25T09:24:52.715Z</time></trkpt><trkpt lat="45.4684917" lon="10.779345"><ele>152.66666666666666</ele><time>2026-04-25T09:24:53.716Z</time></trkpt><trkpt lat="45.468375" lon="10.779515"><ele>152.0</ele><time>2026-04-25T09:24:54.71Z</time></trkpt><trkpt lat="45.4682733" lon="10.7796433"><ele>152.0</ele><time>2026-04-25T09:24:55.713Z</time></trkpt><trkpt lat="45.4681667" lon="10.7797483"><ele>152.0</ele><time>2026-04-25T09:24:56.71Z</time></trkpt><trkpt lat="45.4680583" lon="10.77982"><ele>152.0</ele><time>2026-04-25T09:24:57.719Z</time></trkpt><trkpt lat="45.467935" lon="10.7798833"><ele>152.0</ele><time>2026-04-25T09:24:58.717Z</time></trkpt><trkpt lat="45.4678133" lon="10.77996"><ele>152.33333333333331</ele><time>2026-04-25T09:24:59.731Z</time></trkpt><trkpt lat="45.4677033" lon="10.7800783"><ele>152.66666666666666</ele><time>2026-04-25T09:25:00.713Z</time></trkpt><trkpt lat="45.4676033" lon="10.7802217"><ele>153.0</ele><time>2026-04-25T09:25:01.715Z</time></trkpt><trkpt lat="45.4674933" lon="10.7804317"><ele>154.66666666666666</ele><time>2026-04-25T09:25:02.714Z</time></trkpt><trkpt lat="45.4673817" lon="10.7806333"><ele>156.33333333333331</ele><time>2026-04-25T09:25:03.714Z</time></trkpt><trkpt lat="45.4672817" lon="10.78085"><ele>158.0</ele><time>2026-04-25T09:25:04.713Z</time></trkpt><trkpt lat="45.4671867" lon="10.7810217"><ele>158.5</ele><time>2026-04-25T09:25:05.717Z</time></trkpt><trkpt lat="45.467115" lon="10.7811717"><ele>159.0</ele><time>2026-04-25T09:25:06.709Z</time></trkpt><trkpt lat="45.467035" lon="10.7812817"><ele>159.5</ele><time>2026-04-25T09:25:07.712Z</time></trkpt><trkpt lat="45.4670117" lon="10.7814117"><ele>160.0</ele><time>2026-04-25T09:25:08.718Z</time></trkpt><trkpt lat="45.4669517" lon="10.7815767"><ele>158.0</ele><time>2026-04-25T09:25:09.709Z</time></trkpt><trkpt lat="45.466895" lon="10.7817767"><ele>156.0</ele><time>2026-04-25T09:25:10.712Z</time></trkpt><trkpt lat="45.4668317" lon="10.7820117"><ele>154.0</ele><time>2026-04-25T09:25:11.723Z</time></trkpt><trkpt lat="45.4668" lon="10.7822317"><ele>154.0</ele><time>2026-04-25T09:25:12.718Z</time></trkpt><trkpt lat="45.4667817" lon="10.782425"><ele>154.0</ele><time>2026-04-25T09:25:13.719Z</time></trkpt><trkpt lat="45.4667667" lon="10.7825983"><ele>154.0</ele><time>2026-04-25T09:25:14.721Z</time></trkpt><trkpt lat="45.4667517" lon="10.78276"><ele>154.0</ele><time>2026-04-25T09:25:15.719Z</time></trkpt><trkpt lat="45.4667183" lon="10.7829"><ele>153.75</ele><time>2026-04-25T09:25:16.711Z</time></trkpt><trkpt lat="45.4667" lon="10.783065"><ele>153.5</ele><time>2026-04-25T09:25:17.723Z</time></trkpt><trkpt lat="45.4666667" lon="10.7832317"><ele>153.25</ele><time>2026-04-25T09:25:18.719Z</time></trkpt><trkpt lat="45.4666117" lon="10.7833933"><ele>153.0</ele><time>2026-04-25T09:25:19.718Z</time></trkpt><trkpt lat="45.4665667" lon="10.7835717"><ele>152.75</ele><time>2026-04-25T09:25:20.724Z</time></trkpt><trkpt lat="45.4665467" lon="10.7837667"><ele>152.5</ele><time>2026-04-25T09:25:21.728Z</time></trkpt><trkpt lat="45.4665517" lon="10.7839733"><ele>152.25</ele><time>2026-04-25T09:25:22.728Z</time></trkpt><trkpt lat="45.4665667" lon="10.7841517"><ele>152.0</ele><time>2026-04-25T09:25:23.72Z</time></trkpt><trkpt lat="45.466555" lon="10.784305"><ele>152.5</ele><time>2026-04-25T09:25:24.72Z</time></trkpt><trkpt lat="45.4665367" lon="10.78443"><ele>153.0</ele><time>2026-04-25T09:25:25.725Z</time></trkpt><trkpt lat="45.4665167" lon="10.7845233"><ele>153.5</ele><time>2026-04-25T09:25:26.717Z</time></trkpt><trkpt lat="45.466485" lon="10.7846217"><ele>154.0</ele><time>2026-04-25T09:25:28.716Z</time></trkpt><trkpt lat="45.4665833" lon="10.7846267"><ele>154.5</ele><time>2026-04-25T09:25:38.714Z</time></trkpt><trkpt lat="45.466655" lon="10.7846017"><ele>155.0</ele><time>2026-04-25T09:25:39.711Z</time></trkpt><trkpt lat="45.4667317" lon="10.78459"><ele>155.0</ele><time>2026-04-25T09:25:40.713Z</time></trkpt><trkpt lat="45.4668117" lon="10.7846033"><ele>155.0</ele><time>2026-04-25T09:25:41.711Z</time></trkpt><trkpt lat="45.466895" lon="10.7846367"><ele>155.0</ele><time>2026-04-25T09:25:42.711Z</time></trkpt><trkpt lat="45.4669733" lon="10.78468"><ele>155.0</ele><time>2026-04-25T09:25:43.71Z</time></trkpt><trkpt lat="45.467045" lon="10.78472"><ele>155.0</ele><time>2026-04-25T09:25:44.714Z</time></trkpt><trkpt lat="45.46712" lon="10.7847417"><ele>155.0</ele><time>2026-04-25T09:25:45.709Z</time></trkpt><trkpt lat="45.4671933" lon="10.7847233"><ele>155.0</ele><time>2026-04-25T09:25:46.714Z</time></trkpt><trkpt lat="45.46728" lon="10.784645"><ele>155.0</ele><time>2026-04-25T09:25:47.709Z</time></trkpt><trkpt lat="45.4673717" lon="10.784565"><ele>155.0</ele><time>2026-04-25T09:25:48.71Z</time></trkpt><trkpt lat="45.467475" lon="10.7844567"><ele>155.0</ele><time>2026-04-25T09:25:49.711Z</time></trkpt><trkpt lat="45.4675983" lon="10.7843733"><ele>155.0</ele><time>2026-04-25T09:25:50.717Z</time></trkpt><trkpt lat="45.4677183" lon="10.78436"><ele>155.0</ele><time>2026-04-25T09:25:51.711Z</time></trkpt><trkpt lat="45.46784" lon="10.7843733"><ele>155.0</ele><time>2026-04-25T09:25:52.71Z</time></trkpt><trkpt lat="45.4679533" lon="10.7843967"><ele>155.0</ele><time>2026-04-25T09:25:53.714Z</time></trkpt><trkpt lat="45.4680833" lon="10.7843917"><ele>154.6</ele><time>2026-04-25T09:25:54.71Z</time></trkpt><trkpt lat="45.4681883" lon="10.784375"><ele>154.2</ele><time>2026-04-25T09:25:55.715Z</time></trkpt><trkpt lat="45.4682933" lon="10.7843433"><ele>153.8</ele><time>2026-04-25T09:25:56.714Z</time></trkpt><trkpt lat="45.4683617" lon="10.7842917"><ele>153.4</ele><time>2026-04-25T09:25:57.715Z</time></trkpt><trkpt lat="45.4684367" lon="10.7842367"><ele>153.0</ele><time>2026-04-25T09:25:58.71Z</time></trkpt><trkpt lat="45.4685267" lon="10.7841683"><ele>153.0</ele><time>2026-04-25T09:25:59.715Z</time></trkpt><trkpt lat="45.468625" lon="10.7841117"><ele>153.0</ele><time>2026-04-25T09:26:00.711Z</time></trkpt><trkpt lat="45.4687283" lon="10.7840633"><ele>153.0</ele><time>2026-04-25T09:26:01.721Z</time></trkpt><trkpt lat="45.468835" lon="10.7840317"><ele>153.0</ele><time>2026-04-25T09:26:02.715Z</time></trkpt><trkpt lat="45.468965" lon="10.783985"><ele>152.0</ele><time>2026-04-25T09:26:03.713Z</time></trkpt><trkpt lat="45.4690933" lon="10.78394"><ele>151.0</ele><time>2026-04-25T09:26:04.709Z</time></trkpt><trkpt lat="45.469225" lon="10.783875"><ele>150.0</ele><time>2026-04-25T09:26:05.715Z</time></trkpt><trkpt lat="45.4693467" lon="10.7838283"><ele>149.0</ele><time>2026-04-25T09:26:06.714Z</time></trkpt><trkpt lat="45.469455" lon="10.7838033"><ele>149.0</ele><time>2026-04-25T09:26:07.711Z</time></trkpt><trkpt lat="45.469585" lon="10.7837717"><ele>149.0</ele><time>2026-04-25T09:26:08.713Z</time></trkpt><trkpt lat="45.4697233" lon="10.7837633"><ele>149.0</ele><time>2026-04-25T09:26:09.714Z</time></trkpt><trkpt lat="45.469865" lon="10.7837633"><ele>149.0</ele><time>2026-04-25T09:26:10.711Z</time></trkpt><trkpt lat="45.4699917" lon="10.7837433"><ele>148.25</ele><time>2026-04-25T09:26:11.71Z</time></trkpt><trkpt lat="45.470115" lon="10.7837733"><ele>147.5</ele><time>2026-04-25T09:26:12.715Z</time></trkpt><trkpt lat="45.47025" lon="10.7838233"><ele>146.75</ele><time>2026-04-25T09:26:13.712Z</time></trkpt><trkpt lat="45.470395" lon="10.78387"><ele>146.0</ele><time>2026-04-25T09:26:14.713Z</time></trkpt><trkpt lat="45.4705333" lon="10.7838717"><ele>145.25</ele><time>2026-04-25T09:26:15.716Z</time></trkpt><trkpt lat="45.4706483" lon="10.7838883"><ele>144.5</ele><time>2026-04-25T09:26:16.712Z</time></trkpt><trkpt lat="45.4707717" lon="10.78387"><ele>143.75</ele><time>2026-04-25T09:26:17.711Z</time></trkpt><trkpt lat="45.470925" lon="10.7838467"><ele>143.0</ele><time>2026-04-25T09:26:18.716Z</time></trkpt><trkpt lat="45.47103" lon="10.783835"><ele>143.0</ele><time>2026-04-25T09:26:19.709Z</time></trkpt><trkpt lat="45.4710983" lon="10.7838133"><ele>143.0</ele><time>2026-04-25T09:26:20.709Z</time></trkpt><trkpt lat="45.4711583" lon="10.78378"><ele>143.0</ele><time>2026-04-25T09:26:22.735Z</time></trkpt><trkpt lat="45.47125" lon="10.7837367"><ele>143.0</ele><time>2026-04-25T09:27:42.711Z</time></trkpt><trkpt lat="45.4713733" lon="10.7837067"><ele>143.0</ele><time>2026-04-25T09:28:07.712Z</time></trkpt><trkpt lat="45.47146" lon="10.783685"><ele>143.0</ele><time>2026-04-25T09:28:08.726Z</time></trkpt><trkpt lat="45.4715767" lon="10.7836583"><ele>142.25</ele><time>2026-04-25T09:28:09.724Z</time></trkpt><trkpt lat="45.4717233" lon="10.7836083"><ele>141.5</ele><time>2026-04-25T09:28:10.731Z</time></trkpt><trkpt lat="45.4718667" lon="10.783555"><ele>140.75</ele><time>2026-04-25T09:28:11.719Z</time></trkpt><trkpt lat="45.4720067" lon="10.7835267"><ele>140.0</ele><time>2026-04-25T09:28:12.712Z</time></trkpt><trkpt lat="45.472135" lon="10.7835067"><ele>139.83333333333331</ele><time>2026-04-25T09:28:13.72Z</time></trkpt><trkpt lat="45.4722533" lon="10.7834717"><ele>139.66666666666666</ele><time>2026-04-25T09:28:14.715Z</time></trkpt><trkpt lat="45.472345" lon="10.7834483"><ele>139.5</ele><time>2026-04-25T09:28:15.711Z</time></trkpt><trkpt lat="45.4724083" lon="10.783455"><ele>139.33333333333334</ele><time>2026-04-25T09:28:16.715Z</time></trkpt><trkpt lat="45.472485" lon="10.783445"><ele>139.16666666666669</ele><time>2026-04-25T09:28:17.716Z</time></trkpt><trkpt lat="45.4725633" lon="10.783435"><ele>139.0</ele><time>2026-04-25T09:28:18.727Z</time></trkpt><trkpt lat="45.47264" lon="10.78343"><ele>139.0</ele><time>2026-04-25T09:28:19.71Z</time></trkpt><trkpt lat="45.47273" lon="10.78342"><ele>139.0</ele><time>2026-04-25T09:28:20.717Z</time></trkpt><trkpt lat="45.4728517" lon="10.7834233"><ele>139.0</ele><time>2026-04-25T09:28:21.716Z</time></trkpt><trkpt lat="45.4729583" lon="10.7834133"><ele>139.0</ele><time>2026-04-25T09:28:22.721Z</time></trkpt><trkpt lat="45.473065" lon="10.7834033"><ele>139.0</ele><time>2026-04-25T09:28:23.719Z</time></trkpt><trkpt lat="45.473155" lon="10.7833967"><ele>139.0</ele><time>2026-04-25T09:28:24.72Z</time></trkpt><trkpt lat="45.4732317" lon="10.7833983"><ele>139.0</ele><time>2026-04-25T09:28:25.712Z</time></trkpt><trkpt lat="45.4732983" lon="10.7833967"><ele>139.0</ele><time>2026-04-25T09:28:26.719Z</time></trkpt><trkpt lat="45.4733967" lon="10.7834117"><ele>139.0</ele><time>2026-04-25T09:28:28.721Z</time></trkpt><trkpt lat="45.4734783" lon="10.7834683"><ele>139.0</ele><time>2026-04-25T09:28:30.713Z</time></trkpt><trkpt lat="45.4735467" lon="10.7836067"><ele>139.16666666666669</ele><time>2026-04-25T09:28:32.71Z</time></trkpt><trkpt lat="45.47358" lon="10.783705"><ele>139.33333333333334</ele><time>2026-04-25T09:28:33.709Z</time></trkpt><trkpt lat="45.47362" lon="10.78381"><ele>139.5</ele><time>2026-04-25T09:28:34.708Z</time></trkpt><trkpt lat="45.4736633" lon="10.7839167"><ele>139.66666666666666</ele><time>2026-04-25T09:28:35.71Z</time></trkpt><trkpt lat="45.4737117" lon="10.784025"><ele>139.83333333333331</ele><time>2026-04-25T09:28:36.712Z</time></trkpt><trkpt lat="45.4737667" lon="10.784135"><ele>140.0</ele><time>2026-04-25T09:28:37.713Z</time></trkpt><trkpt lat="45.4738233" lon="10.7842467"><ele>139.5</ele><time>2026-04-25T09:28:38.71Z</time></trkpt><trkpt lat="45.4739033" lon="10.7843617"><ele>139.0</ele><time>2026-04-25T09:28:39.71Z</time></trkpt><trkpt lat="45.47399" lon="10.7844667"><ele>138.5</ele><time>2026-04-25T09:28:40.713Z</time></trkpt><trkpt lat="45.4740817" lon="10.7845883"><ele>138.0</ele><time>2026-04-25T09:28:41.709Z</time></trkpt><trkpt lat="45.4741433" lon="10.7847133"><ele>138.0</ele><time>2026-04-25T09:28:42.71Z</time></trkpt><trkpt lat="45.4742483" lon="10.78484"><ele>138.0</ele><time>2026-04-25T09:28:43.713Z</time></trkpt><trkpt lat="45.4743167" lon="10.7849967"><ele>138.0</ele><time>2026-04-25T09:28:44.708Z</time></trkpt><trkpt lat="45.4744067" lon="10.78517"><ele>138.0</ele><time>2026-04-25T09:28:45.715Z</time></trkpt><trkpt lat="45.47449" lon="10.785345"><ele>137.0</ele><time>2026-04-25T09:28:46.715Z</time></trkpt><trkpt lat="45.4745683" lon="10.78554"><ele>136.0</ele><time>2026-04-25T09:28:47.71Z</time></trkpt><trkpt lat="45.474635" lon="10.78575"><ele>135.0</ele><time>2026-04-25T09:28:48.711Z</time></trkpt><trkpt lat="45.4746883" lon="10.7859583"><ele>134.33333333333334</ele><time>2026-04-25T09:28:49.716Z</time></trkpt><trkpt lat="45.4747367" lon="10.7861683"><ele>133.66666666666669</ele><time>2026-04-25T09:28:50.71Z</time></trkpt><trkpt lat="45.4747733" lon="10.7863767"><ele>133.0</ele><time>2026-04-25T09:28:51.718Z</time></trkpt><trkpt lat="45.4748017" lon="10.7865833"><ele>133.0</ele><time>2026-04-25T09:28:52.729Z</time></trkpt><trkpt lat="45.4748183" lon="10.7867767"><ele>133.0</ele><time>2026-04-25T09:28:53.712Z</time></trkpt><trkpt lat="45.474835" lon="10.78696"><ele>133.0</ele><time>2026-04-25T09:28:54.715Z</time></trkpt><trkpt lat="45.4748433" lon="10.78714"><ele>133.0</ele><time>2026-04-25T09:28:55.723Z</time></trkpt><trkpt lat="45.4748567" lon="10.7873267"><ele>132.75</ele><time>2026-04-25T09:28:56.716Z</time></trkpt><trkpt lat="45.47488" lon="10.78752"><ele>132.5</ele><time>2026-04-25T09:28:57.718Z</time></trkpt><trkpt lat="45.4749167" lon="10.7877067"><ele>132.25</ele><time>2026-04-25T09:28:58.73Z</time></trkpt><trkpt lat="45.4749733" lon="10.7878783"><ele>132.0</ele><time>2026-04-25T09:28:59.721Z</time></trkpt><trkpt lat="45.4750533" lon="10.7880333"><ele>132.0</ele><time>2026-04-25T09:29:00.721Z</time></trkpt><trkpt lat="45.4751567" lon="10.7881567"><ele>132.0</ele><time>2026-04-25T09:29:01.717Z</time></trkpt><trkpt lat="45.4752833" lon="10.788245"><ele>132.0</ele><time>2026-04-25T09:29:02.715Z</time></trkpt><trkpt lat="45.4753833" lon="10.7883267"><ele>132.0</ele><time>2026-04-25T09:29:03.717Z</time></trkpt><trkpt lat="45.4754667" lon="10.7884217"><ele>131.6</ele><time>2026-04-25T09:29:04.719Z</time></trkpt><trkpt lat="45.4755333" lon="10.7885167"><ele>131.2</ele><time>2026-04-25T09:29:05.716Z</time></trkpt><trkpt lat="45.475575" lon="10.7886133"><ele>130.8</ele><time>2026-04-25T09:29:06.731Z</time></trkpt><trkpt lat="45.4756083" lon="10.78875"><ele>130.4</ele><time>2026-04-25T09:29:08.735Z</time></trkpt><trkpt lat="45.4755933" lon="10.78884"><ele>130.0</ele><time>2026-04-25T09:29:10.712Z</time></trkpt><trkpt lat="45.47556" lon="10.7889967"><ele>130.0</ele><time>2026-04-25T09:29:12.721Z</time></trkpt><trkpt lat="45.4755333" lon="10.7890883"><ele>130.0</ele><time>2026-04-25T09:29:13.725Z</time></trkpt><trkpt lat="45.4755067" lon="10.7891783"><ele>130.0</ele><time>2026-04-25T09:29:14.729Z</time></trkpt><trkpt lat="45.4754833" lon="10.789265"><ele>130.0</ele><time>2026-04-25T09:29:15.72Z</time></trkpt><trkpt lat="45.47545" lon="10.7894383"><ele>130.0</ele><time>2026-04-25T09:29:17.72Z</time></trkpt><trkpt lat="45.4754367" lon="10.78954"><ele>130.0</ele><time>2026-04-25T09:29:18.723Z</time></trkpt><trkpt lat="45.4754217" lon="10.7896383"><ele>130.00000000000003</ele><time>2026-04-25T09:29:19.732Z</time></trkpt><trkpt lat="45.4754017" lon="10.789735"><ele>130.0</ele><time>2026-04-25T09:29:20.724Z</time></trkpt><trkpt lat="45.47538" lon="10.7898383"><ele>130.0</ele><time>2026-04-25T09:29:21.743Z</time></trkpt><trkpt lat="45.4753567" lon="10.7899433"><ele>130.0</ele><time>2026-04-25T09:29:22.731Z</time></trkpt><trkpt lat="45.475335" lon="10.7900433"><ele>130.0</ele><time>2026-04-25T09:29:23.717Z</time></trkpt><trkpt lat="45.475315" lon="10.7901417"><ele>130.00000000000003</ele><time>2026-04-25T09:29:24.721Z</time></trkpt><trkpt lat="45.4753" lon="10.7902333"><ele>130.0</ele><time>2026-04-25T09:29:25.713Z</time></trkpt><trkpt lat="45.475285" lon="10.790325"><ele>130.00000000000003</ele><time>2026-04-25T09:29:26.736Z</time></trkpt><trkpt lat="45.47527" lon="10.7904217"><ele>130.0</ele><time>2026-04-25T09:29:27.725Z</time></trkpt><trkpt lat="45.4752567" lon="10.7905283"><ele>130.0</ele><time>2026-04-25T09:29:28.723Z</time></trkpt><trkpt lat="45.4752433" lon="10.790635"><ele>130.0</ele><time>2026-04-25T09:29:29.713Z</time></trkpt><trkpt lat="45.4752367" lon="10.7907367"><ele>130.0</ele><time>2026-04-25T09:29:30.727Z</time></trkpt><trkpt lat="45.4752333" lon="10.790835"><ele>130.00000000000003</ele><time>2026-04-25T09:29:31.738Z</time></trkpt><trkpt lat="45.4752317" lon="10.7909267"><ele>130.0</ele><time>2026-04-25T09:29:32.715Z</time></trkpt><trkpt lat="45.4752267" lon="10.7910167"><ele>130.0</ele><time>2026-04-25T09:29:33.722Z</time></trkpt><trkpt lat="45.475225" lon="10.7911083"><ele>130.0</ele><time>2026-04-25T09:29:34.726Z</time></trkpt><trkpt lat="45.4752217" lon="10.791205"><ele>130.0</ele><time>2026-04-25T09:29:35.717Z</time></trkpt><trkpt lat="45.4752233" lon="10.7912967"><ele>130.0</ele><time>2026-04-25T09:29:36.724Z</time></trkpt><trkpt lat="45.47524" lon="10.791455"><ele>130.0</ele><time>2026-04-25T09:29:38.722Z</time></trkpt><trkpt lat="45.4752767" lon="10.7916083"><ele>130.0</ele><time>2026-04-25T09:29:40.72Z</time></trkpt><trkpt lat="45.4752933" lon="10.7917417"><ele>130.16666666666669</ele><time>2026-04-25T09:29:42.741Z</time></trkpt><trkpt lat="45.475285" lon="10.7918433"><ele>130.33333333333334</ele><time>2026-04-25T09:29:44.727Z</time></trkpt><trkpt lat="45.4752733" lon="10.79196"><ele>130.5</ele><time>2026-04-25T09:29:47.714Z</time></trkpt><trkpt lat="45.4752333" lon="10.792045"><ele>130.66666666666666</ele><time>2026-04-25T09:29:50.716Z</time></trkpt><trkpt lat="45.475165" lon="10.792145"><ele>130.83333333333331</ele><time>2026-04-25T09:29:53.714Z</time></trkpt><trkpt lat="45.4751133" lon="10.7922567"><ele>131.0</ele><time>2026-04-25T09:29:55.722Z</time></trkpt><trkpt lat="45.4750867" lon="10.7923983"><ele>131.0</ele><time>2026-04-25T09:29:57.717Z</time></trkpt><trkpt lat="45.47507" lon="10.7925867"><ele>131.0</ele><time>2026-04-25T09:29:59.718Z</time></trkpt><trkpt lat="45.4750617" lon="10.792695"><ele>131.0</ele><time>2026-04-25T09:30:00.727Z</time></trkpt><trkpt lat="45.4750567" lon="10.7928033"><ele>131.0</ele><time>2026-04-25T09:30:01.72Z</time></trkpt><trkpt lat="45.4750517" lon="10.792905"><ele>131.0</ele><time>2026-04-25T09:30:02.722Z</time></trkpt><trkpt lat="45.475045" lon="10.7930083"><ele>131.0</ele><time>2026-04-25T09:30:03.718Z</time></trkpt><trkpt lat="45.4750367" lon="10.7931117"><ele>130.83333333333331</ele><time>2026-04-25T09:30:04.717Z</time></trkpt><trkpt lat="45.47502" lon="10.79322"><ele>130.66666666666666</ele><time>2026-04-25T09:30:05.72Z</time></trkpt><trkpt lat="45.4749983" lon="10.7933367"><ele>130.5</ele><time>2026-04-25T09:30:06.718Z</time></trkpt><trkpt lat="45.47497" lon="10.793455"><ele>130.33333333333334</ele><time>2026-04-25T09:30:07.729Z</time></trkpt><trkpt lat="45.4749417" lon="10.7935633"><ele>130.16666666666669</ele><time>2026-04-25T09:30:08.711Z</time></trkpt><trkpt lat="45.4749067" lon="10.79366"><ele>130.0</ele><time>2026-04-25T09:30:09.713Z</time></trkpt><trkpt lat="45.4748633" lon="10.7937517"><ele>130.0</ele><time>2026-04-25T09:30:10.713Z</time></trkpt><trkpt lat="45.4748117" lon="10.793845"><ele>130.0</ele><time>2026-04-25T09:30:11.742Z</time></trkpt><trkpt lat="45.4747517" lon="10.7939383"><ele>130.0</ele><time>2026-04-25T09:30:12.72Z</time></trkpt><trkpt lat="45.474685" lon="10.7940283"><ele>130.0</ele><time>2026-04-25T09:30:13.717Z</time></trkpt><trkpt lat="45.4746017" lon="10.794125"><ele>130.0</ele><time>2026-04-25T09:30:14.709Z</time></trkpt><trkpt lat="45.4745233" lon="10.7942283"><ele>130.75</ele><time>2026-04-25T09:30:15.716Z</time></trkpt><trkpt lat="45.4744567" lon="10.7943417"><ele>131.5</ele><time>2026-04-25T09:30:16.717Z</time></trkpt><trkpt lat="45.4743817" lon="10.7944683"><ele>132.25</ele><time>2026-04-25T09:30:17.726Z</time></trkpt><trkpt lat="45.4743133" lon="10.7946167"><ele>133.0</ele><time>2026-04-25T09:30:18.726Z</time></trkpt><trkpt lat="45.474255" lon="10.7947633"><ele>133.0</ele><time>2026-04-25T09:30:19.731Z</time></trkpt><trkpt lat="45.47421" lon="10.79491"><ele>133.0</ele><time>2026-04-25T09:30:20.716Z</time></trkpt><trkpt lat="45.47419" lon="10.7950417"><ele>133.0</ele><time>2026-04-25T09:30:21.723Z</time></trkpt><trkpt lat="45.4741683" lon="10.7951417"><ele>133.0</ele><time>2026-04-25T09:30:22.721Z</time></trkpt><trkpt lat="45.47415" lon="10.7952667"><ele>133.0</ele><time>2026-04-25T09:30:23.714Z</time></trkpt><trkpt lat="45.4741267" lon="10.7953983"><ele>133.4</ele><time>2026-04-25T09:30:24.723Z</time></trkpt><trkpt lat="45.474085" lon="10.7955267"><ele>133.8</ele><time>2026-04-25T09:30:25.737Z</time></trkpt><trkpt lat="45.47406" lon="10.7956617"><ele>134.2</ele><time>2026-04-25T09:30:26.726Z</time></trkpt><trkpt lat="45.4740383" lon="10.7958117"><ele>134.6</ele><time>2026-04-25T09:30:27.713Z</time></trkpt><trkpt lat="45.474015" lon="10.795955"><ele>135.0</ele><time>2026-04-25T09:30:28.722Z</time></trkpt><trkpt lat="45.4739783" lon="10.7961267"><ele>135.25</ele><time>2026-04-25T09:30:29.72Z</time></trkpt><trkpt lat="45.4739383" lon="10.7962933"><ele>135.5</ele><time>2026-04-25T09:30:30.742Z</time></trkpt><trkpt lat="45.4739033" lon="10.7964567"><ele>135.75</ele><time>2026-04-25T09:30:31.726Z</time></trkpt><trkpt lat="45.4738533" lon="10.7966017"><ele>136.0</ele><time>2026-04-25T09:30:32.728Z</time></trkpt><trkpt lat="45.473795" lon="10.7967067"><ele>136.0</ele><time>2026-04-25T09:30:33.724Z</time></trkpt><trkpt lat="45.473775" lon="10.7968133"><ele>136.0</ele><time>2026-04-25T09:30:34.723Z</time></trkpt><trkpt lat="45.47373" lon="10.79689"><ele>136.0</ele><time>2026-04-25T09:30:35.74Z</time></trkpt><trkpt lat="45.47369" lon="10.796965"><ele>136.0</ele><time>2026-04-25T09:30:36.719Z</time></trkpt><trkpt lat="45.4736383" lon="10.7970783"><ele>136.0</ele><time>2026-04-25T09:30:38.751Z</time></trkpt><trkpt lat="45.4736017" lon="10.7971717"><ele>136.0</ele><time>2026-04-25T09:30:40.721Z</time></trkpt><trkpt lat="45.47356" lon="10.7972767"><ele>138.75</ele><time>2026-04-25T09:30:42.714Z</time></trkpt><trkpt lat="45.4735367" lon="10.797425"><ele>141.5</ele><time>2026-04-25T09:30:44.72Z</time></trkpt><trkpt lat="45.4735767" lon="10.797585"><ele>144.25</ele><time>2026-04-25T09:30:46.709Z</time></trkpt><trkpt lat="45.4736667" lon="10.7976867"><ele>147.0</ele><time>2026-04-25T09:30:48.713Z</time></trkpt><trkpt lat="45.4737667" lon="10.79776"><ele>147.16666666666666</ele><time>2026-04-25T09:30:50.712Z</time></trkpt><trkpt lat="45.473865" lon="10.7978383"><ele>147.33333333333334</ele><time>2026-04-25T09:30:52.711Z</time></trkpt><trkpt lat="45.47393" lon="10.79792"><ele>147.5</ele><time>2026-04-25T09:30:54.713Z</time></trkpt><trkpt lat="45.473985" lon="10.7980067"><ele>147.66666666666669</ele><time>2026-04-25T09:30:56.712Z</time></trkpt><trkpt lat="45.474" lon="10.7981083"><ele>147.83333333333334</ele><time>2026-04-25T09:30:58.712Z</time></trkpt><trkpt lat="45.473985" lon="10.7982117"><ele>148.0</ele><time>2026-04-25T09:31:00.711Z</time></trkpt><trkpt lat="45.4739533" lon="10.7983167"><ele>148.0</ele><time>2026-04-25T09:31:02.714Z</time></trkpt><trkpt lat="45.4739317" lon="10.7984533"><ele>148.0</ele><time>2026-04-25T09:31:04.715Z</time></trkpt><trkpt lat="45.4738967" lon="10.7986183"><ele>148.0</ele><time>2026-04-25T09:31:06.714Z</time></trkpt><trkpt lat="45.4738767" lon="10.798715"><ele>148.0</ele><time>2026-04-25T09:31:07.711Z</time></trkpt><trkpt lat="45.473855" lon="10.7988217"><ele>148.0</ele><time>2026-04-25T09:31:08.708Z</time></trkpt><trkpt lat="45.47383" lon="10.7989417"><ele>148.5</ele><time>2026-04-25T09:31:09.718Z</time></trkpt><trkpt lat="45.4738067" lon="10.799085"><ele>149.0</ele><time>2026-04-25T09:31:10.714Z</time></trkpt><trkpt lat="45.473755" lon="10.79924"><ele>149.5</ele><time>2026-04-25T09:31:11.715Z</time></trkpt><trkpt lat="45.473725" lon="10.7993917"><ele>150.0</ele><time>2026-04-25T09:31:12.711Z</time></trkpt><trkpt lat="45.4736833" lon="10.7995483"><ele>152.75</ele><time>2026-04-25T09:31:13.713Z</time></trkpt><trkpt lat="45.4736433" lon="10.7996967"><ele>155.5</ele><time>2026-04-25T09:31:14.709Z</time></trkpt><trkpt lat="45.47361" lon="10.7998517"><ele>158.25</ele><time>2026-04-25T09:31:15.717Z</time></trkpt><trkpt lat="45.4735683" lon="10.8000117"><ele>161.0</ele><time>2026-04-25T09:31:16.723Z</time></trkpt><trkpt lat="45.4735283" lon="10.8001583"><ele>161.66666666666666</ele><time>2026-04-25T09:31:17.726Z</time></trkpt><trkpt lat="45.4735083" lon="10.8002683"><ele>162.33333333333331</ele><time>2026-04-25T09:31:18.721Z</time></trkpt><trkpt lat="45.4734867" lon="10.8003633"><ele>163.0</ele><time>2026-04-25T09:31:19.722Z</time></trkpt><trkpt lat="45.47345" lon="10.8004933"><ele>163.66666666666666</ele><time>2026-04-25T09:31:21.727Z</time></trkpt><trkpt lat="45.4733867" lon="10.8005083"><ele>164.33333333333334</ele><time>2026-04-25T09:31:23.714Z</time></trkpt><trkpt lat="45.47326" lon="10.8004383"><ele>165.0</ele><time>2026-04-25T09:31:25.714Z</time></trkpt><trkpt lat="45.4731883" lon="10.800405"><ele>165.0</ele><time>2026-04-25T09:31:26.713Z</time></trkpt><trkpt lat="45.4731233" lon="10.8003967"><ele>165.0</ele><time>2026-04-25T09:31:27.71Z</time></trkpt><trkpt lat="45.473025" lon="10.80043"><ele>165.0</ele><time>2026-04-25T09:31:29.72Z</time></trkpt><trkpt lat="45.473035" lon="10.8005233"><ele>165.0</ele><time>2026-04-25T09:31:30.708Z</time></trkpt><trkpt lat="45.47304" lon="10.800615"><ele>165.0</ele><time>2026-04-25T09:31:31.711Z</time></trkpt><trkpt lat="45.4730533" lon="10.8007217"><ele>165.0</ele><time>2026-04-25T09:31:32.715Z</time></trkpt><trkpt lat="45.4730717" lon="10.8008417"><ele>165.0</ele><time>2026-04-25T09:31:33.711Z</time></trkpt><trkpt lat="45.4730933" lon="10.8009933"><ele>165.0</ele><time>2026-04-25T09:31:34.713Z</time></trkpt><trkpt lat="45.47312" lon="10.80115"><ele>165.0</ele><time>2026-04-25T09:31:35.713Z</time></trkpt><trkpt lat="45.4731483" lon="10.8012983"><ele>165.0</ele><time>2026-04-25T09:31:36.714Z</time></trkpt><trkpt lat="45.4731917" lon="10.8014783"><ele>165.8</ele><time>2026-04-25T09:31:37.708Z</time></trkpt><trkpt lat="45.4732233" lon="10.801605"><ele>166.6</ele><time>2026-04-25T09:31:38.713Z</time></trkpt><trkpt lat="45.4732433" lon="10.80174"><ele>167.39999999999998</ele><time>2026-04-25T09:31:39.711Z</time></trkpt><trkpt lat="45.47327" lon="10.8018833"><ele>168.2</ele><time>2026-04-25T09:31:40.708Z</time></trkpt><trkpt lat="45.4733017" lon="10.802005"><ele>169.0</ele><time>2026-04-25T09:31:41.712Z</time></trkpt><trkpt lat="45.4732983" lon="10.802205"><ele>170.0</ele><time>2026-04-25T09:31:42.715Z</time></trkpt><trkpt lat="45.4733183" lon="10.8024333"><ele>171.0</ele><time>2026-04-25T09:31:43.719Z</time></trkpt><trkpt lat="45.47333" lon="10.80262"><ele>172.0</ele><time>2026-04-25T09:31:44.713Z</time></trkpt><trkpt lat="45.4733317" lon="10.8028117"><ele>173.0</ele><time>2026-04-25T09:31:45.709Z</time></trkpt><trkpt lat="45.4733517" lon="10.802975"><ele>174.33333333333331</ele><time>2026-04-25T09:31:46.717Z</time></trkpt><trkpt lat="45.4733617" lon="10.8031033"><ele>175.66666666666666</ele><time>2026-04-25T09:31:47.72Z</time></trkpt><trkpt lat="45.47336" lon="10.8032433"><ele>177.0</ele><time>2026-04-25T09:31:48.726Z</time></trkpt><trkpt lat="45.4733517" lon="10.8033667"><ele>178.33333333333334</ele><time>2026-04-25T09:31:49.723Z</time></trkpt><trkpt lat="45.4733417" lon="10.8034833"><ele>179.66666666666669</ele><time>2026-04-25T09:31:50.724Z</time></trkpt><trkpt lat="45.4733333" lon="10.8036117"><ele>181.0</ele><time>2026-04-25T09:31:51.734Z</time></trkpt><trkpt lat="45.4733233" lon="10.8037467"><ele>182.4</ele><time>2026-04-25T09:31:52.711Z</time></trkpt><trkpt lat="45.4733133" lon="10.803905"><ele>183.8</ele><time>2026-04-25T09:31:53.718Z</time></trkpt><trkpt lat="45.4732983" lon="10.8040617"><ele>185.20000000000002</ele><time>2026-04-25T09:31:54.724Z</time></trkpt><trkpt lat="45.47328" lon="10.8042183"><ele>186.60000000000002</ele><time>2026-04-25T09:31:55.724Z</time></trkpt><trkpt lat="45.473255" lon="10.8043583"><ele>188.0</ele><time>2026-04-25T09:31:56.72Z</time></trkpt><trkpt lat="45.4732267" lon="10.8044817"><ele>188.66666666666666</ele><time>2026-04-25T09:31:57.725Z</time></trkpt><trkpt lat="45.47319" lon="10.804625"><ele>189.33333333333331</ele><time>2026-04-25T09:31:58.721Z</time></trkpt><trkpt lat="45.47316" lon="10.80474"><ele>190.0</ele><time>2026-04-25T09:31:59.73Z</time></trkpt><trkpt lat="45.47314" lon="10.8048283"><ele>190.66666666666666</ele><time>2026-04-25T09:32:00.729Z</time></trkpt><trkpt lat="45.4731483" lon="10.804985"><ele>191.33333333333334</ele><time>2026-04-25T09:32:02.716Z</time></trkpt><trkpt lat="45.473155" lon="10.805095"><ele>192.0</ele><time>2026-04-25T09:32:04.727Z</time></trkpt><trkpt lat="45.4731817" lon="10.8052133"><ele>193.5</ele><time>2026-04-25T09:32:06.715Z</time></trkpt><trkpt lat="45.4732117" lon="10.8053017"><ele>195.0</ele><time>2026-04-25T09:32:07.715Z</time></trkpt><trkpt lat="45.4732533" lon="10.8053833"><ele>196.5</ele><time>2026-04-25T09:32:08.715Z</time></trkpt><trkpt lat="45.4732917" lon="10.8054617"><ele>198.0</ele><time>2026-04-25T09:32:09.71Z</time></trkpt><trkpt lat="45.47333" lon="10.805535"><ele>199.5</ele><time>2026-04-25T09:32:10.717Z</time></trkpt><trkpt lat="45.473385" lon="10.805625"><ele>201.0</ele><time>2026-04-25T09:32:11.711Z</time></trkpt><trkpt lat="45.4734533" lon="10.805725"><ele>201.0</ele><time>2026-04-25T09:32:12.71Z</time></trkpt><trkpt lat="45.47353" lon="10.8058467"><ele>201.0</ele><time>2026-04-25T09:32:13.715Z</time></trkpt><trkpt lat="45.4736183" lon="10.8059883"><ele>201.0</ele><time>2026-04-25T09:32:14.715Z</time></trkpt><trkpt lat="45.4737183" lon="10.8061583"><ele>201.0</ele><time>2026-04-25T09:32:15.71Z</time></trkpt><trkpt lat="45.4738417" lon="10.80632"><ele>202.66666666666669</ele><time>2026-04-25T09:32:16.71Z</time></trkpt><trkpt lat="45.4739467" lon="10.8065017"><ele>204.33333333333334</ele><time>2026-04-25T09:32:17.717Z</time></trkpt><trkpt lat="45.4740467" lon="10.8066767"><ele>206.0</ele><time>2026-04-25T09:32:18.713Z</time></trkpt><trkpt lat="45.4741517" lon="10.8068217"><ele>205.5</ele><time>2026-04-25T09:32:19.727Z</time></trkpt><trkpt lat="45.4742417" lon="10.806945"><ele>205.0</ele><time>2026-04-25T09:32:20.724Z</time></trkpt><trkpt lat="45.4743183" lon="10.807075"><ele>204.5</ele><time>2026-04-25T09:32:21.727Z</time></trkpt><trkpt lat="45.4743933" lon="10.8072283"><ele>204.0</ele><time>2026-04-25T09:32:22.718Z</time></trkpt><trkpt lat="45.47448" lon="10.8073983"><ele>204.0</ele><time>2026-04-25T09:32:23.716Z</time></trkpt><trkpt lat="45.4745317" lon="10.8075783"><ele>204.0</ele><time>2026-04-25T09:32:24.721Z</time></trkpt><trkpt lat="45.4746117" lon="10.8077417"><ele>204.0</ele><time>2026-04-25T09:32:25.719Z</time></trkpt><trkpt lat="45.4746967" lon="10.807925"><ele>204.0</ele><time>2026-04-25T09:32:26.723Z</time></trkpt><trkpt lat="45.474765" lon="10.8081133"><ele>203.5</ele><time>2026-04-25T09:32:27.718Z</time></trkpt><trkpt lat="45.474835" lon="10.8083183"><ele>203.0</ele><time>2026-04-25T09:32:28.72Z</time></trkpt><trkpt lat="45.4748833" lon="10.808515"><ele>202.5</ele><time>2026-04-25T09:32:29.723Z</time></trkpt><trkpt lat="45.4748833" lon="10.8086967"><ele>202.0</ele><time>2026-04-25T09:32:30.728Z</time></trkpt><trkpt lat="45.4748933" lon="10.808865"><ele>201.6</ele><time>2026-04-25T09:32:31.72Z</time></trkpt><trkpt lat="45.4748767" lon="10.8090267"><ele>201.2</ele><time>2026-04-25T09:32:32.721Z</time></trkpt><trkpt lat="45.4748733" lon="10.809155"><ele>200.8</ele><time>2026-04-25T09:32:33.727Z</time></trkpt><trkpt lat="45.474885" lon="10.809265"><ele>200.4</ele><time>2026-04-25T09:32:34.73Z</time></trkpt><trkpt lat="45.4749633" lon="10.8093633"><ele>200.0</ele><time>2026-04-25T09:32:36.716Z</time></trkpt><trkpt lat="45.475045" lon="10.809355"><ele>200.0</ele><time>2026-04-25T09:32:37.716Z</time></trkpt><trkpt lat="45.4751417" lon="10.8093367"><ele>200.0</ele><time>2026-04-25T09:32:38.716Z</time></trkpt><trkpt lat="45.4752617" lon="10.8092683"><ele>200.0</ele><time>2026-04-25T09:32:39.723Z</time></trkpt><trkpt lat="45.47537" lon="10.8091783"><ele>200.0</ele><time>2026-04-25T09:32:40.721Z</time></trkpt><trkpt lat="45.47549" lon="10.8090417"><ele>200.8</ele><time>2026-04-25T09:32:41.709Z</time></trkpt><trkpt lat="45.4755783" lon="10.808895"><ele>201.6</ele><time>2026-04-25T09:32:42.718Z</time></trkpt><trkpt lat="45.4756767" lon="10.80878"><ele>202.39999999999998</ele><time>2026-04-25T09:32:43.709Z</time></trkpt><trkpt lat="45.4757333" lon="10.8086767"><ele>203.2</ele><time>2026-04-25T09:32:44.706Z</time></trkpt><trkpt lat="45.4758017" lon="10.8086217"><ele>204.0</ele><time>2026-04-25T09:32:45.715Z</time></trkpt><trkpt lat="45.4758833" lon="10.8085933"><ele>204.0</ele><time>2026-04-25T09:32:46.714Z</time></trkpt><trkpt lat="45.4759683" lon="10.8086283"><ele>204.0</ele><time>2026-04-25T09:32:47.708Z</time></trkpt><trkpt lat="45.4760483" lon="10.8087"><ele>204.0</ele><time>2026-04-25T09:32:48.711Z</time></trkpt><trkpt lat="45.47612" lon="10.808845"><ele>204.0</ele><time>2026-04-25T09:32:49.716Z</time></trkpt><trkpt lat="45.476205" lon="10.80901"><ele>203.0</ele><time>2026-04-25T09:32:50.71Z</time></trkpt><trkpt lat="45.4762817" lon="10.80922"><ele>202.0</ele><time>2026-04-25T09:32:51.713Z</time></trkpt><trkpt lat="45.4763433" lon="10.8093983"><ele>201.0</ele><time>2026-04-25T09:32:52.714Z</time></trkpt><trkpt lat="45.4764133" lon="10.80958"><ele>200.8</ele><time>2026-04-25T09:32:53.712Z</time></trkpt><trkpt lat="45.4764983" lon="10.8097433"><ele>200.60000000000002</ele><time>2026-04-25T09:32:54.714Z</time></trkpt><trkpt lat="45.47657" lon="10.8098883"><ele>200.4</ele><time>2026-04-25T09:32:55.722Z</time></trkpt><trkpt lat="45.4766167" lon="10.8099883"><ele>200.2</ele><time>2026-04-25T09:32:56.709Z</time></trkpt><trkpt lat="45.4766517" lon="10.8100717"><ele>200.0</ele><time>2026-04-25T09:32:57.713Z</time></trkpt><trkpt lat="45.47674" lon="10.81016"><ele>200.0</ele><time>2026-04-25T09:32:59.712Z</time></trkpt><trkpt lat="45.47683" lon="10.8101033"><ele>200.0</ele><time>2026-04-25T09:33:00.708Z</time></trkpt><trkpt lat="45.4769167" lon="10.8100317"><ele>200.0</ele><time>2026-04-25T09:33:01.711Z</time></trkpt><trkpt lat="45.477025" lon="10.8099283"><ele>200.0</ele><time>2026-04-25T09:33:02.716Z</time></trkpt><trkpt lat="45.4771283" lon="10.8098017"><ele>200.33333333333334</ele><time>2026-04-25T09:33:03.71Z</time></trkpt><trkpt lat="45.4772817" lon="10.8096767"><ele>200.66666666666669</ele><time>2026-04-25T09:33:04.715Z</time></trkpt><trkpt lat="45.4773917" lon="10.8095117"><ele>201.0</ele><time>2026-04-25T09:33:05.713Z</time></trkpt><trkpt lat="45.4775467" lon="10.80932"><ele>201.0</ele><time>2026-04-25T09:33:06.71Z</time></trkpt><trkpt lat="45.477685" lon="10.8091333"><ele>201.0</ele><time>2026-04-25T09:33:07.71Z</time></trkpt><trkpt lat="45.4778417" lon="10.808945"><ele>201.0</ele><time>2026-04-25T09:33:08.714Z</time></trkpt><trkpt lat="45.47801" lon="10.8087467"><ele>201.0</ele><time>2026-04-25T09:33:09.709Z</time></trkpt><trkpt lat="45.4781617" lon="10.8085717"><ele>201.0</ele><time>2026-04-25T09:33:10.712Z</time></trkpt><trkpt lat="45.478315" lon="10.80842"><ele>201.0</ele><time>2026-04-25T09:33:11.717Z</time></trkpt><trkpt lat="45.47845" lon="10.8083133"><ele>201.0</ele><time>2026-04-25T09:33:12.72Z</time></trkpt><trkpt lat="45.4786083" lon="10.80825"><ele>201.0</ele><time>2026-04-25T09:33:13.714Z</time></trkpt><trkpt lat="45.47878" lon="10.808215"><ele>201.0</ele><time>2026-04-25T09:33:14.718Z</time></trkpt><trkpt lat="45.4789683" lon="10.8082067"><ele>201.0</ele><time>2026-04-25T09:33:15.716Z</time></trkpt><trkpt lat="45.4791567" lon="10.80824"><ele>201.0</ele><time>2026-04-25T09:33:16.71Z</time></trkpt><trkpt lat="45.4793383" lon="10.8082733"><ele>201.0</ele><time>2026-04-25T09:33:17.717Z</time></trkpt><trkpt lat="45.47951" lon="10.808295"><ele>199.66666666666669</ele><time>2026-04-25T09:33:18.723Z</time></trkpt><trkpt lat="45.47965" lon="10.8083067"><ele>198.33333333333334</ele><time>2026-04-25T09:33:19.732Z</time></trkpt><trkpt lat="45.4798083" lon="10.8082867"><ele>197.0</ele><time>2026-04-25T09:33:20.717Z</time></trkpt><trkpt lat="45.479955" lon="10.8082317"><ele>197.0</ele><time>2026-04-25T09:33:21.731Z</time></trkpt><trkpt lat="45.48006" lon="10.808205"><ele>197.0</ele><time>2026-04-25T09:33:22.716Z</time></trkpt><trkpt lat="45.4801267" lon="10.8081667"><ele>197.0</ele><time>2026-04-25T09:33:23.721Z</time></trkpt><trkpt lat="45.4801917" lon="10.8081033"><ele>197.0</ele><time>2026-04-25T09:33:25.726Z</time></trkpt><trkpt lat="45.48029" lon="10.80801"><ele>197.0</ele><time>2026-04-25T09:33:27.711Z</time></trkpt><trkpt lat="45.4803583" lon="10.8079233"><ele>196.0</ele><time>2026-04-25T09:33:28.718Z</time></trkpt><trkpt lat="45.480435" lon="10.8078183"><ele>195.0</ele><time>2026-04-25T09:33:29.729Z</time></trkpt><trkpt lat="45.48054" lon="10.8076633"><ele>194.0</ele><time>2026-04-25T09:33:30.708Z</time></trkpt><trkpt lat="45.4806433" lon="10.8075167"><ele>193.0</ele><time>2026-04-25T09:33:31.718Z</time></trkpt><trkpt lat="45.4807633" lon="10.807395"><ele>193.0</ele><time>2026-04-25T09:33:32.712Z</time></trkpt><trkpt lat="45.4808983" lon="10.8073067"><ele>193.0</ele><time>2026-04-25T09:33:33.713Z</time></trkpt><trkpt lat="45.48106" lon="10.8072483"><ele>193.0</ele><time>2026-04-25T09:33:34.713Z</time></trkpt><trkpt lat="45.48123" lon="10.8071717"><ele>193.66666666666666</ele><time>2026-04-25T09:33:35.716Z</time></trkpt><trkpt lat="45.4814283" lon="10.8071083"><ele>194.33333333333331</ele><time>2026-04-25T09:33:36.716Z</time></trkpt><trkpt lat="45.4816117" lon="10.8070117"><ele>195.0</ele><time>2026-04-25T09:33:37.714Z</time></trkpt><trkpt lat="45.4817917" lon="10.8069483"><ele>195.0</ele><time>2026-04-25T09:33:38.71Z</time></trkpt><trkpt lat="45.4819383" lon="10.8068717"><ele>195.0</ele><time>2026-04-25T09:33:39.716Z</time></trkpt><trkpt lat="45.4820883" lon="10.8067867"><ele>195.0</ele><time>2026-04-25T09:33:40.718Z</time></trkpt><trkpt lat="45.482235" lon="10.8067333"><ele>193.5</ele><time>2026-04-25T09:33:41.712Z</time></trkpt><trkpt lat="45.48234" lon="10.8066417"><ele>192.0</ele><time>2026-04-25T09:33:42.721Z</time></trkpt><trkpt lat="45.4824717" lon="10.8065317"><ele>190.5</ele><time>2026-04-25T09:33:43.732Z</time></trkpt><trkpt lat="45.4825867" lon="10.8064383"><ele>189.0</ele><time>2026-04-25T09:33:44.721Z</time></trkpt><trkpt lat="45.4827067" lon="10.8063717"><ele>189.0</ele><time>2026-04-25T09:33:45.72Z</time></trkpt><trkpt lat="45.4828083" lon="10.8062867"><ele>189.0</ele><time>2026-04-25T09:33:46.725Z</time></trkpt><trkpt lat="45.4829" lon="10.8062233"><ele>189.0</ele><time>2026-04-25T09:33:47.715Z</time></trkpt><trkpt lat="45.4829917" lon="10.8061983"><ele>189.0</ele><time>2026-04-25T09:33:48.714Z</time></trkpt><trkpt lat="45.4830867" lon="10.8062217"><ele>189.0</ele><time>2026-04-25T09:33:49.719Z</time></trkpt><trkpt lat="45.4831967" lon="10.8062983"><ele>189.0</ele><time>2026-04-25T09:33:50.719Z</time></trkpt><trkpt lat="45.4833067" lon="10.80639"><ele>189.0</ele><time>2026-04-25T09:33:51.722Z</time></trkpt><trkpt lat="45.48341" lon="10.8065067"><ele>189.0</ele><time>2026-04-25T09:33:52.737Z</time></trkpt><trkpt lat="45.4835233" lon="10.80667"><ele>189.0</ele><time>2026-04-25T09:33:53.727Z</time></trkpt><trkpt lat="45.4836233" lon="10.8068767"><ele>189.0</ele><time>2026-04-25T09:33:54.722Z</time></trkpt><trkpt lat="45.4837133" lon="10.807095"><ele>189.0</ele><time>2026-04-25T09:33:55.725Z</time></trkpt><trkpt lat="45.4838017" lon="10.8073117"><ele>189.0</ele><time>2026-04-25T09:33:56.728Z</time></trkpt><trkpt lat="45.4838867" lon="10.8075233"><ele>189.0</ele><time>2026-04-25T09:33:57.723Z</time></trkpt><trkpt lat="45.4840083" lon="10.8077283"><ele>189.0</ele><time>2026-04-25T09:33:58.719Z</time></trkpt><trkpt lat="45.48409" lon="10.8078933"><ele>189.0</ele><time>2026-04-25T09:33:59.733Z</time></trkpt><trkpt lat="45.4841533" lon="10.8080317"><ele>189.0</ele><time>2026-04-25T09:34:00.732Z</time></trkpt><trkpt lat="45.4842167" lon="10.8081633"><ele>189.0</ele><time>2026-04-25T09:34:01.731Z</time></trkpt><trkpt lat="45.4842533" lon="10.808255"><ele>189.0</ele><time>2026-04-25T09:34:02.716Z</time></trkpt><trkpt lat="45.4843067" lon="10.8083517"><ele>189.0</ele><time>2026-04-25T09:34:04.716Z</time></trkpt><trkpt lat="45.4843967" lon="10.8083"><ele>189.0</ele><time>2026-04-25T09:34:09.727Z</time></trkpt><trkpt lat="45.4844483" lon="10.8082367"><ele>189.0</ele><time>2026-04-25T09:34:10.707Z</time></trkpt><trkpt lat="45.4845133" lon="10.80817"><ele>189.0</ele><time>2026-04-25T09:34:11.716Z</time></trkpt><trkpt lat="45.4845783" lon="10.80811"><ele>188.42857142857142</ele><time>2026-04-25T09:34:12.713Z</time></trkpt><trkpt lat="45.48464" lon="10.8080617"><ele>187.85714285714286</ele><time>2026-04-25T09:34:13.712Z</time></trkpt><trkpt lat="45.4847017" lon="10.8080317"><ele>187.28571428571428</ele><time>2026-04-25T09:34:14.706Z</time></trkpt><trkpt lat="45.4847633" lon="10.80801"><ele>186.71428571428572</ele><time>2026-04-25T09:34:15.722Z</time></trkpt><trkpt lat="45.4848367" lon="10.8080067"><ele>186.14285714285714</ele><time>2026-04-25T09:34:16.719Z</time></trkpt><trkpt lat="45.48491" lon="10.8080217"><ele>185.57142857142856</ele><time>2026-04-25T09:34:17.71Z</time></trkpt><trkpt lat="45.4849783" lon="10.8080433"><ele>185.0</ele><time>2026-04-25T09:34:18.715Z</time></trkpt><trkpt lat="45.48509" lon="10.8081267"><ele>185.0</ele><time>2026-04-25T09:34:20.71Z</time></trkpt><trkpt lat="45.48514" lon="10.8081967"><ele>185.0</ele><time>2026-04-25T09:34:21.717Z</time></trkpt><trkpt lat="45.4851967" lon="10.8082783"><ele>185.0</ele><time>2026-04-25T09:34:22.716Z</time></trkpt><trkpt lat="45.485255" lon="10.80837"><ele>185.0</ele><time>2026-04-25T09:34:23.711Z</time></trkpt><trkpt lat="45.4853133" lon="10.8084667"><ele>185.0</ele><time>2026-04-25T09:34:24.713Z</time></trkpt><trkpt lat="45.485385" lon="10.8085883"><ele>185.0</ele><time>2026-04-25T09:34:25.713Z</time></trkpt><trkpt lat="45.485445" lon="10.8086817"><ele>184.8</ele><time>2026-04-25T09:34:26.706Z</time></trkpt><trkpt lat="45.485505" lon="10.80878"><ele>184.6</ele><time>2026-04-25T09:34:27.724Z</time></trkpt><trkpt lat="45.4855733" lon="10.8088767"><ele>184.39999999999998</ele><time>2026-04-25T09:34:28.713Z</time></trkpt><trkpt lat="45.485645" lon="10.8089783"><ele>184.2</ele><time>2026-04-25T09:34:29.713Z</time></trkpt><trkpt lat="45.485715" lon="10.809085"><ele>184.0</ele><time>2026-04-25T09:34:30.71Z</time></trkpt><trkpt lat="45.4857783" lon="10.809195"><ele>184.0</ele><time>2026-04-25T09:34:31.714Z</time></trkpt><trkpt lat="45.4858383" lon="10.8093083"><ele>184.0</ele><time>2026-04-25T09:34:32.708Z</time></trkpt><trkpt lat="45.4858967" lon="10.8094133"><ele>184.0</ele><time>2026-04-25T09:34:33.715Z</time></trkpt><trkpt lat="45.4859617" lon="10.8095183"><ele>184.0</ele><time>2026-04-25T09:34:34.712Z</time></trkpt><trkpt lat="45.486015" lon="10.8096167"><ele>184.0</ele><time>2026-04-25T09:34:35.716Z</time></trkpt><trkpt lat="45.4860783" lon="10.8097133"><ele>183.66666666666669</ele><time>2026-04-25T09:34:36.724Z</time></trkpt><trkpt lat="45.4861283" lon="10.80979"><ele>183.33333333333334</ele><time>2026-04-25T09:34:37.723Z</time></trkpt><trkpt lat="45.48621" lon="10.809905"><ele>183.0</ele><time>2026-04-25T09:34:39.716Z</time></trkpt><trkpt lat="45.48627" lon="10.8099933"><ele>182.66666666666666</ele><time>2026-04-25T09:34:41.731Z</time></trkpt><trkpt lat="45.4863067" lon="10.81007"><ele>182.33333333333331</ele><time>2026-04-25T09:34:43.714Z</time></trkpt><trkpt lat="45.48633" lon="10.8101767"><ele>182.0</ele><time>2026-04-25T09:34:46.72Z</time></trkpt><trkpt lat="45.4863433" lon="10.8102767"><ele>182.0</ele><time>2026-04-25T09:34:50.72Z</time></trkpt><trkpt lat="45.4863583" lon="10.8101683"><ele>182.0</ele><time>2026-04-25T09:34:56.717Z</time></trkpt><trkpt lat="45.4863083" lon="10.810045"><ele>182.0</ele><time>2026-04-25T09:34:58.711Z</time></trkpt><trkpt lat="45.486225" lon="10.8099033"><ele>182.0</ele><time>2026-04-25T09:35:00.717Z</time></trkpt><trkpt lat="45.486175" lon="10.809825"><ele>182.0</ele><time>2026-04-25T09:35:01.729Z</time></trkpt><trkpt lat="45.48612" lon="10.8097383"><ele>182.39999999999998</ele><time>2026-04-25T09:35:02.711Z</time></trkpt><trkpt lat="45.4860617" lon="10.8096433"><ele>182.79999999999998</ele><time>2026-04-25T09:35:03.717Z</time></trkpt><trkpt lat="45.4860017" lon="10.8095433"><ele>183.2</ele><time>2026-04-25T09:35:04.712Z</time></trkpt><trkpt lat="45.485935" lon="10.8094333"><ele>183.6</ele><time>2026-04-25T09:35:05.724Z</time></trkpt><trkpt lat="45.4858633" lon="10.8093217"><ele>184.0</ele><time>2026-04-25T09:35:06.73Z</time></trkpt><trkpt lat="45.4857867" lon="10.8092033"><ele>184.0</ele><time>2026-04-25T09:35:07.726Z</time></trkpt><trkpt lat="45.48571" lon="10.80908"><ele>184.0</ele><time>2026-04-25T09:35:08.708Z</time></trkpt><trkpt lat="45.48563" lon="10.8089583"><ele>184.0</ele><time>2026-04-25T09:35:09.712Z</time></trkpt><trkpt lat="45.4855467" lon="10.8088333"><ele>184.0</ele><time>2026-04-25T09:35:10.711Z</time></trkpt><trkpt lat="45.4854617" lon="10.8087033"><ele>184.2</ele><time>2026-04-25T09:35:11.717Z</time></trkpt><trkpt lat="45.485365" lon="10.8085883"><ele>184.39999999999998</ele><time>2026-04-25T09:35:12.718Z</time></trkpt><trkpt lat="45.4852983" lon="10.8084567"><ele>184.6</ele><time>2026-04-25T09:35:13.721Z</time></trkpt><trkpt lat="45.4852383" lon="10.80833"><ele>184.8</ele><time>2026-04-25T09:35:14.711Z</time></trkpt><trkpt lat="45.4851733" lon="10.8082317"><ele>185.0</ele><time>2026-04-25T09:35:15.723Z</time></trkpt><trkpt lat="45.4851083" lon="10.8081517"><ele>185.0</ele><time>2026-04-25T09:35:16.716Z</time></trkpt><trkpt lat="45.4850267" lon="10.8080167"><ele>185.0</ele><time>2026-04-25T09:35:18.727Z</time></trkpt><trkpt lat="45.4849633" lon="10.807985"><ele>185.0</ele><time>2026-04-25T09:35:19.717Z</time></trkpt><trkpt lat="45.48488" lon="10.807975"><ele>185.0</ele><time>2026-04-25T09:35:20.723Z</time></trkpt><trkpt lat="45.484785" lon="10.8079833"><ele>185.0</ele><time>2026-04-25T09:35:21.724Z</time></trkpt><trkpt lat="45.4846967" lon="10.808045"><ele>185.0</ele><time>2026-04-25T09:35:22.723Z</time></trkpt><trkpt lat="45.4846117" lon="10.8080667"><ele>185.0</ele><time>2026-04-25T09:35:23.717Z</time></trkpt><trkpt lat="45.4845383" lon="10.808125"><ele>185.0</ele><time>2026-04-25T09:35:24.727Z</time></trkpt><trkpt lat="45.4844783" lon="10.8081933"><ele>185.0</ele><time>2026-04-25T09:35:25.722Z</time></trkpt><trkpt lat="45.4844283" lon="10.8082567"><ele>185.0</ele><time>2026-04-25T09:35:26.732Z</time></trkpt><trkpt lat="45.48436" lon="10.8083267"><ele>185.0</ele><time>2026-04-25T09:35:28.711Z</time></trkpt><trkpt lat="45.48434" lon="10.80842"><ele>186.25</ele><time>2026-04-25T09:35:46.711Z</time></trkpt><trkpt lat="45.4843733" lon="10.80855"><ele>187.5</ele><time>2026-04-25T09:35:47.706Z</time></trkpt><trkpt lat="45.4844233" lon="10.8086883"><ele>188.75</ele><time>2026-04-25T09:35:48.722Z</time></trkpt><trkpt lat="45.4844817" lon="10.8088433"><ele>190.0</ele><time>2026-04-25T09:35:49.709Z</time></trkpt><trkpt lat="45.484555" lon="10.8090217"><ele>187.0</ele><time>2026-04-25T09:35:50.713Z</time></trkpt><trkpt lat="45.484715" lon="10.80942"><ele>184.0</ele><time>2026-04-25T09:35:52.713Z</time></trkpt><trkpt lat="45.4848133" lon="10.8096417"><ele>184.0</ele><time>2026-04-25T09:35:53.71Z</time></trkpt><trkpt lat="45.484935" lon="10.8098867"><ele>184.0</ele><time>2026-04-25T09:35:54.715Z</time></trkpt><trkpt lat="45.4850383" lon="10.810125"><ele>184.0</ele><time>2026-04-25T09:35:55.713Z</time></trkpt><trkpt lat="45.4851533" lon="10.8103517"><ele>185.66666666666669</ele><time>2026-04-25T09:35:56.711Z</time></trkpt><trkpt lat="45.485245" lon="10.810585"><ele>187.33333333333334</ele><time>2026-04-25T09:35:57.74Z</time></trkpt><trkpt lat="45.4853433" lon="10.81081"><ele>189.0</ele><time>2026-04-25T09:35:58.716Z</time></trkpt><trkpt lat="45.4854383" lon="10.8110267"><ele>186.5</ele><time>2026-04-25T09:35:59.712Z</time></trkpt><trkpt lat="45.48552" lon="10.8111967"><ele>184.0</ele><time>2026-04-25T09:36:00.71Z</time></trkpt><trkpt lat="45.485525" lon="10.8113783"><ele>181.5</ele><time>2026-04-25T09:36:01.723Z</time></trkpt><trkpt lat="45.4855967" lon="10.8115433"><ele>179.0</ele><time>2026-04-25T09:36:02.706Z</time></trkpt><trkpt lat="45.485655" lon="10.8116767"><ele>179.0</ele><time>2026-04-25T09:36:03.73Z</time></trkpt><trkpt lat="45.4856983" lon="10.811815"><ele>179.0</ele><time>2026-04-25T09:36:04.751Z</time></trkpt><trkpt lat="45.4857217" lon="10.8119117"><ele>179.0</ele><time>2026-04-25T09:36:05.748Z</time></trkpt><trkpt lat="45.485755" lon="10.8120017"><ele>179.0</ele><time>2026-04-25T09:36:07.714Z</time></trkpt><trkpt lat="45.4858233" lon="10.8120617"><ele>179.0</ele><time>2026-04-25T09:36:18.721Z</time></trkpt><trkpt lat="45.485895" lon="10.81217"><ele>179.0</ele><time>2026-04-25T09:36:20.724Z</time></trkpt><trkpt lat="45.48595" lon="10.81233"><ele>179.5</ele><time>2026-04-25T09:36:22.718Z</time></trkpt><trkpt lat="45.4859883" lon="10.81241"><ele>180.0</ele><time>2026-04-25T09:36:23.724Z</time></trkpt><trkpt lat="45.4860333" lon="10.8124783"><ele>180.5</ele><time>2026-04-25T09:36:24.715Z</time></trkpt><trkpt lat="45.4860833" lon="10.8125333"><ele>181.0</ele><time>2026-04-25T09:36:25.71Z</time></trkpt><trkpt lat="45.486165" lon="10.8126167"><ele>181.5</ele><time>2026-04-25T09:36:27.712Z</time></trkpt><trkpt lat="45.4862367" lon="10.8126333"><ele>182.0</ele><time>2026-04-25T09:36:29.719Z</time></trkpt><trkpt lat="45.4862567" lon="10.8124933"><ele>182.0</ele><time>2026-04-25T09:36:32.71Z</time></trkpt><trkpt lat="45.48619" lon="10.812345"><ele>182.0</ele><time>2026-04-25T09:36:34.709Z</time></trkpt><trkpt lat="45.48615" lon="10.8122667"><ele>182.0</ele><time>2026-04-25T09:36:35.721Z</time></trkpt><trkpt lat="45.4860933" lon="10.81214"><ele>182.0</ele><time>2026-04-25T09:36:37.715Z</time></trkpt><trkpt lat="45.4861233" lon="10.8120567"><ele>182.0</ele><time>2026-04-25T09:36:41.716Z</time></trkpt><trkpt lat="45.486195" lon="10.812065"><ele>182.0</ele><time>2026-04-25T09:36:43.713Z</time></trkpt><trkpt lat="45.4862817" lon="10.812125"><ele>180.2</ele><time>2026-04-25T09:36:45.709Z</time></trkpt><trkpt lat="45.4863583" lon="10.81227"><ele>178.39999999999998</ele><time>2026-04-25T09:36:47.711Z</time></trkpt><trkpt lat="45.4864017" lon="10.8123683"><ele>176.60000000000002</ele><time>2026-04-25T09:36:48.715Z</time></trkpt><trkpt lat="45.4864483" lon="10.8124817"><ele>174.8</ele><time>2026-04-25T09:36:49.714Z</time></trkpt><trkpt lat="45.4864967" lon="10.8126133"><ele>173.0</ele><time>2026-04-25T09:36:50.707Z</time></trkpt><trkpt lat="45.486545" lon="10.8127567"><ele>172.8</ele><time>2026-04-25T09:36:51.706Z</time></trkpt><trkpt lat="45.48658" lon="10.8128967"><ele>172.60000000000002</ele><time>2026-04-25T09:36:52.712Z</time></trkpt><trkpt lat="45.486615" lon="10.81303"><ele>172.39999999999998</ele><time>2026-04-25T09:36:53.711Z</time></trkpt><trkpt lat="45.48664" lon="10.813145"><ele>172.2</ele><time>2026-04-25T09:36:54.716Z</time></trkpt><trkpt lat="45.48667" lon="10.8132417"><ele>172.0</ele><time>2026-04-25T09:36:55.716Z</time></trkpt><trkpt lat="45.4867483" lon="10.81335"><ele>172.0</ele><time>2026-04-25T09:36:57.718Z</time></trkpt><trkpt lat="45.4868667" lon="10.813295"><ele>172.0</ele><time>2026-04-25T09:37:00.719Z</time></trkpt><trkpt lat="45.48693" lon="10.813225"><ele>172.0</ele><time>2026-04-25T09:37:01.722Z</time></trkpt><trkpt lat="45.48699" lon="10.81316"><ele>172.0</ele><time>2026-04-25T09:37:02.729Z</time></trkpt><trkpt lat="45.4870517" lon="10.8131083"><ele>172.0</ele><time>2026-04-25T09:37:03.718Z</time></trkpt><trkpt lat="45.4871533" lon="10.813075"><ele>171.33333333333334</ele><time>2026-04-25T09:37:05.724Z</time></trkpt><trkpt lat="45.4872267" lon="10.8131533"><ele>170.66666666666669</ele><time>2026-04-25T09:37:07.727Z</time></trkpt><trkpt lat="45.48727" lon="10.81322"><ele>170.0</ele><time>2026-04-25T09:37:08.723Z</time></trkpt><trkpt lat="45.48732" lon="10.8133"><ele>169.33333333333334</ele><time>2026-04-25T09:37:09.72Z</time></trkpt><trkpt lat="45.487375" lon="10.8133983"><ele>168.66666666666666</ele><time>2026-04-25T09:37:10.72Z</time></trkpt><trkpt lat="45.487435" lon="10.8134933"><ele>168.0</ele><time>2026-04-25T09:37:11.721Z</time></trkpt><trkpt lat="45.4874917" lon="10.81359"><ele>167.5</ele><time>2026-04-25T09:37:12.713Z</time></trkpt><trkpt lat="45.487545" lon="10.8136667"><ele>167.0</ele><time>2026-04-25T09:37:13.721Z</time></trkpt><trkpt lat="45.4875983" lon="10.8137217"><ele>166.5</ele><time>2026-04-25T09:37:14.725Z</time></trkpt><trkpt lat="45.48768" lon="10.8138517"><ele>166.0</ele><time>2026-04-25T09:37:16.711Z</time></trkpt><trkpt lat="45.487715" lon="10.8139417"><ele>165.5</ele><time>2026-04-25T09:37:17.723Z</time></trkpt><trkpt lat="45.4877517" lon="10.8140467"><ele>165.0</ele><time>2026-04-25T09:37:18.725Z</time></trkpt><trkpt lat="45.4877933" lon="10.8141533"><ele>165.0</ele><time>2026-04-25T09:37:19.725Z</time></trkpt><trkpt lat="45.4878383" lon="10.8142567"><ele>165.0</ele><time>2026-04-25T09:37:20.724Z</time></trkpt><trkpt lat="45.4878833" lon="10.8143517"><ele>165.0</ele><time>2026-04-25T09:37:21.724Z</time></trkpt><trkpt lat="45.4879333" lon="10.814445"><ele>165.0</ele><time>2026-04-25T09:37:22.723Z</time></trkpt><trkpt lat="45.4879867" lon="10.8145417"><ele>165.0</ele><time>2026-04-25T09:37:23.719Z</time></trkpt><trkpt lat="45.4880417" lon="10.814635"><ele>165.0</ele><time>2026-04-25T09:37:24.722Z</time></trkpt><trkpt lat="45.488095" lon="10.8147167"><ele>164.66666666666666</ele><time>2026-04-25T09:37:25.721Z</time></trkpt><trkpt lat="45.4881483" lon="10.8147783"><ele>164.33333333333334</ele><time>2026-04-25T09:37:26.728Z</time></trkpt><trkpt lat="45.4882483" lon="10.8148467"><ele>164.0</ele><time>2026-04-25T09:37:28.721Z</time></trkpt><trkpt lat="45.48836" lon="10.814845"><ele>163.66666666666669</ele><time>2026-04-25T09:37:30.724Z</time></trkpt><trkpt lat="45.4884333" lon="10.8148167"><ele>163.33333333333334</ele><time>2026-04-25T09:37:31.712Z</time></trkpt><trkpt lat="45.488505" lon="10.8148033"><ele>163.0</ele><time>2026-04-25T09:37:32.718Z</time></trkpt><trkpt lat="45.4885783" lon="10.8148083"><ele>163.0</ele><time>2026-04-25T09:37:33.72Z</time></trkpt><trkpt lat="45.4887117" lon="10.8149017"><ele>163.0</ele><time>2026-04-25T09:37:35.715Z</time></trkpt><trkpt lat="45.4887783" lon="10.81498"><ele>163.0</ele><time>2026-04-25T09:37:36.715Z</time></trkpt><trkpt lat="45.488845" lon="10.8150617"><ele>163.0</ele><time>2026-04-25T09:37:37.719Z</time></trkpt><trkpt lat="45.488915" lon="10.81514"><ele>163.0</ele><time>2026-04-25T09:37:38.721Z</time></trkpt><trkpt lat="45.488985" lon="10.8152067"><ele>162.16666666666669</ele><time>2026-04-25T09:37:39.733Z</time></trkpt><trkpt lat="45.489055" lon="10.8152567"><ele>161.33333333333334</ele><time>2026-04-25T09:37:40.728Z</time></trkpt><trkpt lat="45.4891217" lon="10.8152867"><ele>160.5</ele><time>2026-04-25T09:37:41.716Z</time></trkpt><trkpt lat="45.48924" lon="10.81528"><ele>159.66666666666666</ele><time>2026-04-25T09:37:43.715Z</time></trkpt><trkpt lat="45.4892967" lon="10.8152333"><ele>158.83333333333331</ele><time>2026-04-25T09:37:44.722Z</time></trkpt><trkpt lat="45.4893583" lon="10.8151567"><ele>158.0</ele><time>2026-04-25T09:37:45.721Z</time></trkpt><trkpt lat="45.4894183" lon="10.81508"><ele>159.83333333333331</ele><time>2026-04-25T09:37:46.723Z</time></trkpt><trkpt lat="45.489475" lon="10.8150033"><ele>161.66666666666666</ele><time>2026-04-25T09:37:47.726Z</time></trkpt><trkpt lat="45.4895283" lon="10.8149317"><ele>163.5</ele><time>2026-04-25T09:37:48.714Z</time></trkpt><trkpt lat="45.4895817" lon="10.8148567"><ele>165.33333333333334</ele><time>2026-04-25T09:37:49.728Z</time></trkpt><trkpt lat="45.489635" lon="10.8147733"><ele>167.16666666666669</ele><time>2026-04-25T09:37:50.736Z</time></trkpt><trkpt lat="45.4896933" lon="10.814685"><ele>169.0</ele><time>2026-04-25T09:37:51.728Z</time></trkpt><trkpt lat="45.4897533" lon="10.814605"><ele>169.83333333333334</ele><time>2026-04-25T09:37:52.741Z</time></trkpt><trkpt lat="45.4898083" lon="10.8145433"><ele>170.66666666666669</ele><time>2026-04-25T09:37:53.721Z</time></trkpt><trkpt lat="45.4898883" lon="10.8144517"><ele>171.5</ele><time>2026-04-25T09:37:55.721Z</time></trkpt><trkpt lat="45.4898" lon="10.814545"><ele>172.33333333333334</ele><time>2026-04-25T09:38:06.715Z</time></trkpt><trkpt lat="45.4897417" lon="10.8146217"><ele>173.16666666666666</ele><time>2026-04-25T09:38:07.716Z</time></trkpt><trkpt lat="45.48968" lon="10.8147083"><ele>174.0</ele><time>2026-04-25T09:38:08.714Z</time></trkpt><trkpt lat="45.48962" lon="10.814795"><ele>173.28571428571428</ele><time>2026-04-25T09:38:09.721Z</time></trkpt><trkpt lat="45.4895667" lon="10.8148683"><ele>172.57142857142858</ele><time>2026-04-25T09:38:10.718Z</time></trkpt><trkpt lat="45.489515" lon="10.8149367"><ele>171.85714285714286</ele><time>2026-04-25T09:38:11.726Z</time></trkpt><trkpt lat="45.489455" lon="10.815"><ele>171.14285714285714</ele><time>2026-04-25T09:38:12.722Z</time></trkpt><trkpt lat="45.4894" lon="10.8150717"><ele>170.42857142857142</ele><time>2026-04-25T09:38:13.723Z</time></trkpt><trkpt lat="45.4893517" lon="10.815145"><ele>169.71428571428572</ele><time>2026-04-25T09:38:14.714Z</time></trkpt><trkpt lat="45.4893" lon="10.8152083"><ele>169.0</ele><time>2026-04-25T09:38:15.713Z</time></trkpt><trkpt lat="45.4892" lon="10.81527"><ele>169.0</ele><time>2026-04-25T09:38:17.724Z</time></trkpt><trkpt lat="45.48911" lon="10.8152267"><ele>169.0</ele><time>2026-04-25T09:38:19.72Z</time></trkpt><trkpt lat="45.4890033" lon="10.8151267"><ele>169.0</ele><time>2026-04-25T09:38:21.721Z</time></trkpt><trkpt lat="45.4889467" lon="10.8150667"><ele>169.0</ele><time>2026-04-25T09:38:22.716Z</time></trkpt><trkpt lat="45.4888867" lon="10.815"><ele>169.0</ele><time>2026-04-25T09:38:23.715Z</time></trkpt><trkpt lat="45.4888267" lon="10.8149333"><ele>169.0</ele><time>2026-04-25T09:38:24.724Z</time></trkpt><trkpt lat="45.4887717" lon="10.814875"><ele>168.0</ele><time>2026-04-25T09:38:25.719Z</time></trkpt><trkpt lat="45.4887183" lon="10.81482"><ele>167.0</ele><time>2026-04-25T09:38:26.716Z</time></trkpt><trkpt lat="45.4886333" lon="10.814755"><ele>166.0</ele><time>2026-04-25T09:38:28.714Z</time></trkpt><trkpt lat="45.48854" lon="10.814725"><ele>165.0</ele><time>2026-04-25T09:38:30.715Z</time></trkpt><trkpt lat="45.4884667" lon="10.8147217"><ele>164.0</ele><time>2026-04-25T09:38:32.731Z</time></trkpt><trkpt lat="45.4884017" lon="10.8147633"><ele>163.0</ele><time>2026-04-25T09:38:36.718Z</time></trkpt><trkpt lat="45.4883183" lon="10.814795"><ele>163.0</ele><time>2026-04-25T09:38:44.714Z</time></trkpt><trkpt lat="45.4882983" lon="10.81489"><ele>163.0</ele><time>2026-04-25T09:38:59.721Z</time></trkpt><trkpt lat="45.488295" lon="10.8150417"><ele>163.0</ele><time>2026-04-25T09:39:07.719Z</time></trkpt><trkpt lat="45.4883133" lon="10.81517"><ele>163.0</ele><time>2026-04-25T09:39:09.715Z</time></trkpt><trkpt lat="45.48832" lon="10.8153433"><ele>163.0</ele><time>2026-04-25T09:39:11.714Z</time></trkpt><trkpt lat="45.4883133" lon="10.815505"><ele>161.8</ele><time>2026-04-25T09:39:13.73Z</time></trkpt><trkpt lat="45.4883083" lon="10.81565"><ele>160.60000000000002</ele><time>2026-04-25T09:39:15.726Z</time></trkpt><trkpt lat="45.4883117" lon="10.8158167"><ele>159.39999999999998</ele><time>2026-04-25T09:39:17.72Z</time></trkpt><trkpt lat="45.4883217" lon="10.815975"><ele>158.2</ele><time>2026-04-25T09:39:19.733Z</time></trkpt><trkpt lat="45.4883283" lon="10.8158517"><ele>157.0</ele><time>2026-04-25T09:39:43.719Z</time></trkpt><trkpt lat="45.4882933" lon="10.815685"><ele>157.0</ele><time>2026-04-25T09:39:45.72Z</time></trkpt><trkpt lat="45.4882917" lon="10.8155833"><ele>157.0</ele><time>2026-04-25T09:39:46.712Z</time></trkpt><trkpt lat="45.4883017" lon="10.8154767"><ele>157.0</ele><time>2026-04-25T09:39:47.713Z</time></trkpt><trkpt lat="45.4883083" lon="10.8153733"><ele>157.0</ele><time>2026-04-25T09:39:48.725Z</time></trkpt><trkpt lat="45.4883117" lon="10.8152783"><ele>157.0</ele><time>2026-04-25T09:39:49.72Z</time></trkpt><trkpt lat="45.4883067" lon="10.81512"><ele>157.0</ele><time>2026-04-25T09:39:51.721Z</time></trkpt><trkpt lat="45.4883" lon="10.8150067"><ele>158.0</ele><time>2026-04-25T09:39:53.721Z</time></trkpt><trkpt lat="45.4882833" lon="10.8148983"><ele>159.0</ele><time>2026-04-25T09:40:02.721Z</time></trkpt><trkpt lat="45.4882483" lon="10.8148217"><ele>160.0</ele><time>2026-04-25T09:40:04.347Z</time></trkpt><trkpt lat="45.488155" lon="10.8147367"><ele>161.0</ele><time>2026-04-25T09:40:06.345Z</time></trkpt><trkpt lat="45.4880933" lon="10.81465"><ele>162.0</ele><time>2026-04-25T09:40:07.351Z</time></trkpt><trkpt lat="45.4880333" lon="10.8145633"><ele>163.0</ele><time>2026-04-25T09:40:08.346Z</time></trkpt><trkpt lat="45.4879717" lon="10.8144717"><ele>163.4</ele><time>2026-04-25T09:40:09.345Z</time></trkpt><trkpt lat="45.487915" lon="10.8143683"><ele>163.8</ele><time>2026-04-25T09:40:10.342Z</time></trkpt><trkpt lat="45.4878633" lon="10.8142583"><ele>164.2</ele><time>2026-04-25T09:40:11.345Z</time></trkpt><trkpt lat="45.4878133" lon="10.8141317"><ele>164.6</ele><time>2026-04-25T09:40:12.342Z</time></trkpt><trkpt lat="45.487765" lon="10.8140167"><ele>165.0</ele><time>2026-04-25T09:40:13.384Z</time></trkpt><trkpt lat="45.4877117" lon="10.81391"><ele>165.0</ele><time>2026-04-25T09:40:14.356Z</time></trkpt><trkpt lat="45.48768" lon="10.8138217"><ele>165.0</ele><time>2026-04-25T09:40:15.356Z</time></trkpt><trkpt lat="45.4876367" lon="10.8137417"><ele>165.0</ele><time>2026-04-25T09:40:16.35Z</time></trkpt><trkpt lat="45.4875883" lon="10.8136633"><ele>165.0</ele><time>2026-04-25T09:40:17.361Z</time></trkpt><trkpt lat="45.487525" lon="10.8135917"><ele>165.0</ele><time>2026-04-25T09:40:18.35Z</time></trkpt><trkpt lat="45.4874583" lon="10.8135167"><ele>165.0</ele><time>2026-04-25T09:40:19.358Z</time></trkpt><trkpt lat="45.48739" lon="10.8134283"><ele>165.5</ele><time>2026-04-25T09:40:20.354Z</time></trkpt><trkpt lat="45.4873217" lon="10.8133317"><ele>166.0</ele><time>2026-04-25T09:40:21.356Z</time></trkpt><trkpt lat="45.4872717" lon="10.813245"><ele>166.5</ele><time>2026-04-25T09:40:22.384Z</time></trkpt><trkpt lat="45.4872317" lon="10.81316"><ele>167.0</ele><time>2026-04-25T09:40:23.392Z</time></trkpt><trkpt lat="45.487165" lon="10.8130583"><ele>167.5</ele><time>2026-04-25T09:40:25.379Z</time></trkpt><trkpt lat="45.4870783" lon="10.8130533"><ele>168.0</ele><time>2026-04-25T09:40:27.358Z</time></trkpt><trkpt lat="45.4869633" lon="10.8131733"><ele>168.8</ele><time>2026-04-25T09:40:29.36Z</time></trkpt><trkpt lat="45.4868967" lon="10.8132383"><ele>169.60000000000002</ele><time>2026-04-25T09:40:30.355Z</time></trkpt><trkpt lat="45.4868367" lon="10.813285"><ele>170.39999999999998</ele><time>2026-04-25T09:40:31.343Z</time></trkpt><trkpt lat="45.4867467" lon="10.8132767"><ele>171.2</ele><time>2026-04-25T09:40:33.354Z</time></trkpt><trkpt lat="45.4866817" lon="10.8131317"><ele>172.0</ele><time>2026-04-25T09:40:35.35Z</time></trkpt><trkpt lat="45.48665" lon="10.8130117"><ele>172.0</ele><time>2026-04-25T09:40:36.354Z</time></trkpt><trkpt lat="45.486615" lon="10.812885"><ele>172.0</ele><time>2026-04-25T09:40:37.343Z</time></trkpt><trkpt lat="45.486575" lon="10.8127533"><ele>172.0</ele><time>2026-04-25T09:40:38.347Z</time></trkpt><trkpt lat="45.486545" lon="10.8126367"><ele>172.0</ele><time>2026-04-25T09:40:39.345Z</time></trkpt><trkpt lat="45.4864933" lon="10.8125167"><ele>172.0</ele><time>2026-04-25T09:40:40.345Z</time></trkpt><trkpt lat="45.4864383" lon="10.8123883"><ele>172.2</ele><time>2026-04-25T09:40:41.341Z</time></trkpt><trkpt lat="45.4863733" lon="10.8122683"><ele>172.39999999999998</ele><time>2026-04-25T09:40:42.345Z</time></trkpt><trkpt lat="45.486305" lon="10.812175"><ele>172.60000000000002</ele><time>2026-04-25T09:40:43.339Z</time></trkpt><trkpt lat="45.4862417" lon="10.8120467"><ele>172.8</ele><time>2026-04-25T09:40:45.344Z</time></trkpt><trkpt lat="45.4861617" lon="10.8120333"><ele>173.0</ele><time>2026-04-25T09:40:47.341Z</time></trkpt><trkpt lat="45.4861183" lon="10.8121267"><ele>173.0</ele><time>2026-04-25T09:40:50.339Z</time></trkpt><trkpt lat="45.486165" lon="10.8122633"><ele>173.0</ele><time>2026-04-25T09:40:52.343Z</time></trkpt><trkpt lat="45.4862033" lon="10.8123483"><ele>173.0</ele><time>2026-04-25T09:40:53.357Z</time></trkpt><trkpt lat="45.486245" lon="10.812435"><ele>173.0</ele><time>2026-04-25T09:40:54.338Z</time></trkpt><trkpt lat="45.4862983" lon="10.81257"><ele>173.0</ele><time>2026-04-25T09:40:56.34Z</time></trkpt><trkpt lat="45.4862367" lon="10.8126617"><ele>173.0</ele><time>2026-04-25T09:40:59.346Z</time></trkpt><trkpt lat="45.486125" lon="10.8125883"><ele>174.5</ele><time>2026-04-25T09:41:01.34Z</time></trkpt><trkpt lat="45.4860617" lon="10.812515"><ele>176.0</ele><time>2026-04-25T09:41:02.347Z</time></trkpt><trkpt lat="45.4860117" lon="10.81243"><ele>177.5</ele><time>2026-04-25T09:41:03.338Z</time></trkpt><trkpt lat="45.4859533" lon="10.81232"><ele>179.0</ele><time>2026-04-25T09:41:04.349Z</time></trkpt><trkpt lat="45.4859217" lon="10.8122083"><ele>180.5</ele><time>2026-04-25T09:41:05.344Z</time></trkpt><trkpt lat="45.4858867" lon="10.812105"><ele>182.0</ele><time>2026-04-25T09:41:06.339Z</time></trkpt><trkpt lat="45.48584" lon="10.8119667"><ele>182.0</ele><time>2026-04-25T09:41:08.352Z</time></trkpt><trkpt lat="45.4857717" lon="10.8119917"><ele>182.0</ele><time>2026-04-25T09:41:11.347Z</time></trkpt><trkpt lat="45.485745" lon="10.81218"><ele>182.0</ele><time>2026-04-25T09:41:13.348Z</time></trkpt><trkpt lat="45.4857483" lon="10.8123183"><ele>182.0</ele><time>2026-04-25T09:41:14.35Z</time></trkpt><trkpt lat="45.4857467" lon="10.8124833"><ele>182.0</ele><time>2026-04-25T09:41:15.344Z</time></trkpt><trkpt lat="45.4857483" lon="10.8126817"><ele>181.75</ele><time>2026-04-25T09:41:16.343Z</time></trkpt><trkpt lat="45.4857233" lon="10.8128633"><ele>181.5</ele><time>2026-04-25T09:41:17.349Z</time></trkpt><trkpt lat="45.485685" lon="10.8130533"><ele>181.25</ele><time>2026-04-25T09:41:18.346Z</time></trkpt><trkpt lat="45.485635" lon="10.8132267"><ele>181.0</ele><time>2026-04-25T09:41:19.364Z</time></trkpt><trkpt lat="45.485585" lon="10.8134233"><ele>181.25</ele><time>2026-04-25T09:41:20.346Z</time></trkpt><trkpt lat="45.4855183" lon="10.8135917"><ele>181.5</ele><time>2026-04-25T09:41:21.343Z</time></trkpt><trkpt lat="45.485415" lon="10.8137483"><ele>181.75</ele><time>2026-04-25T09:41:22.361Z</time></trkpt><trkpt lat="45.48531" lon="10.813905"><ele>182.0</ele><time>2026-04-25T09:41:23.366Z</time></trkpt><trkpt lat="45.4852083" lon="10.8140483"><ele>182.0</ele><time>2026-04-25T09:41:24.365Z</time></trkpt><trkpt lat="45.4851017" lon="10.8141883"><ele>182.0</ele><time>2026-04-25T09:41:25.37Z</time></trkpt><trkpt lat="45.484955" lon="10.814295"><ele>182.0</ele><time>2026-04-25T09:41:26.356Z</time></trkpt><trkpt lat="45.484785" lon="10.8143783"><ele>181.33333333333331</ele><time>2026-04-25T09:41:27.352Z</time></trkpt><trkpt lat="45.4846217" lon="10.8144667"><ele>180.66666666666666</ele><time>2026-04-25T09:41:28.359Z</time></trkpt><trkpt lat="45.4844783" lon="10.81456"><ele>180.0</ele><time>2026-04-25T09:41:29.358Z</time></trkpt><trkpt lat="45.4843267" lon="10.8146617"><ele>180.0</ele><time>2026-04-25T09:41:30.379Z</time></trkpt><trkpt lat="45.4841833" lon="10.814735"><ele>180.0</ele><time>2026-04-25T09:41:31.341Z</time></trkpt><trkpt lat="45.484045" lon="10.8148417"><ele>180.0</ele><time>2026-04-25T09:41:32.348Z</time></trkpt><trkpt lat="45.48389" lon="10.8149483"><ele>180.33333333333334</ele><time>2026-04-25T09:41:33.349Z</time></trkpt><trkpt lat="45.4837367" lon="10.8150483"><ele>180.66666666666669</ele><time>2026-04-25T09:41:34.352Z</time></trkpt><trkpt lat="45.4835717" lon="10.8151067"><ele>181.0</ele><time>2026-04-25T09:41:35.356Z</time></trkpt><trkpt lat="45.4834183" lon="10.81515"><ele>181.0</ele><time>2026-04-25T09:41:36.351Z</time></trkpt><trkpt lat="45.48326" lon="10.8151833"><ele>181.0</ele><time>2026-04-25T09:41:37.349Z</time></trkpt><trkpt lat="45.4830967" lon="10.8152267"><ele>181.0</ele><time>2026-04-25T09:41:38.346Z</time></trkpt><trkpt lat="45.4829267" lon="10.8152633"><ele>181.0</ele><time>2026-04-25T09:41:39.351Z</time></trkpt><trkpt lat="45.48276" lon="10.8153317"><ele>181.0</ele><time>2026-04-25T09:41:40.352Z</time></trkpt><trkpt lat="45.482595" lon="10.8153783"><ele>181.0</ele><time>2026-04-25T09:41:41.345Z</time></trkpt><trkpt lat="45.482405" lon="10.8154267"><ele>181.0</ele><time>2026-04-25T09:41:42.346Z</time></trkpt><trkpt lat="45.4822183" lon="10.8154767"><ele>181.0</ele><time>2026-04-25T09:41:43.349Z</time></trkpt><trkpt lat="45.4820533" lon="10.815525"><ele>181.0</ele><time>2026-04-25T09:41:44.351Z</time></trkpt><trkpt lat="45.481885" lon="10.8156083"><ele>181.66666666666669</ele><time>2026-04-25T09:41:45.354Z</time></trkpt><trkpt lat="45.48172" lon="10.8156933"><ele>182.33333333333334</ele><time>2026-04-25T09:41:46.344Z</time></trkpt><trkpt lat="45.4815517" lon="10.815795"><ele>183.0</ele><time>2026-04-25T09:41:47.346Z</time></trkpt><trkpt lat="45.4813983" lon="10.81593"><ele>184.66666666666666</ele><time>2026-04-25T09:41:48.343Z</time></trkpt><trkpt lat="45.4812417" lon="10.816095"><ele>186.33333333333331</ele><time>2026-04-25T09:41:49.35Z</time></trkpt><trkpt lat="45.4811133" lon="10.81629"><ele>188.0</ele><time>2026-04-25T09:41:50.349Z</time></trkpt><trkpt lat="45.48098" lon="10.816485"><ele>188.0</ele><time>2026-04-25T09:41:51.344Z</time></trkpt><trkpt lat="45.4808767" lon="10.81673"><ele>188.0</ele><time>2026-04-25T09:41:52.347Z</time></trkpt><trkpt lat="45.480785" lon="10.8169717"><ele>188.0</ele><time>2026-04-25T09:41:53.345Z</time></trkpt><trkpt lat="45.480715" lon="10.8171867"><ele>186.66666666666666</ele><time>2026-04-25T09:41:54.345Z</time></trkpt><trkpt lat="45.48064" lon="10.817385"><ele>185.33333333333334</ele><time>2026-04-25T09:41:55.351Z</time></trkpt><trkpt lat="45.4805817" lon="10.8175783"><ele>184.0</ele><time>2026-04-25T09:41:56.346Z</time></trkpt><trkpt lat="45.4805267" lon="10.81777"><ele>184.0</ele><time>2026-04-25T09:41:57.355Z</time></trkpt><trkpt lat="45.4804567" lon="10.8179367"><ele>184.0</ele><time>2026-04-25T09:41:58.344Z</time></trkpt><trkpt lat="45.4803983" lon="10.8180917"><ele>184.0</ele><time>2026-04-25T09:41:59.349Z</time></trkpt><trkpt lat="45.4803383" lon="10.8182117"><ele>184.0</ele><time>2026-04-25T09:42:00.358Z</time></trkpt><trkpt lat="45.4802717" lon="10.8183217"><ele>184.39999999999998</ele><time>2026-04-25T09:42:01.352Z</time></trkpt><trkpt lat="45.4802083" lon="10.8184383"><ele>184.8</ele><time>2026-04-25T09:42:02.353Z</time></trkpt><trkpt lat="45.4801317" lon="10.818535"><ele>185.2</ele><time>2026-04-25T09:42:03.356Z</time></trkpt><trkpt lat="45.480045" lon="10.8186283"><ele>185.60000000000002</ele><time>2026-04-25T09:42:04.348Z</time></trkpt><trkpt lat="45.4799467" lon="10.8187117"><ele>186.0</ele><time>2026-04-25T09:42:05.354Z</time></trkpt><trkpt lat="45.479835" lon="10.8188033"><ele>185.75</ele><time>2026-04-25T09:42:06.351Z</time></trkpt><trkpt lat="45.479725" lon="10.8188883"><ele>185.5</ele><time>2026-04-25T09:42:07.356Z</time></trkpt><trkpt lat="45.4795817" lon="10.81898"><ele>185.25</ele><time>2026-04-25T09:42:08.36Z</time></trkpt><trkpt lat="45.47945" lon="10.8190683"><ele>185.0</ele><time>2026-04-25T09:42:09.355Z</time></trkpt><trkpt lat="45.4793117" lon="10.819175"><ele>185.0</ele><time>2026-04-25T09:42:10.352Z</time></trkpt><trkpt lat="45.4791667" lon="10.8192667"><ele>185.0</ele><time>2026-04-25T09:42:11.349Z</time></trkpt><trkpt lat="45.4790067" lon="10.8193617"><ele>185.0</ele><time>2026-04-25T09:42:12.354Z</time></trkpt><trkpt lat="45.478845" lon="10.81946"><ele>182.0</ele><time>2026-04-25T09:42:13.364Z</time></trkpt><trkpt lat="45.478685" lon="10.819565"><ele>179.0</ele><time>2026-04-25T09:42:14.361Z</time></trkpt><trkpt lat="45.4785367" lon="10.8196917"><ele>176.0</ele><time>2026-04-25T09:42:15.353Z</time></trkpt><trkpt lat="45.478395" lon="10.8198517"><ele>176.0</ele><time>2026-04-25T09:42:16.365Z</time></trkpt><trkpt lat="45.478255" lon="10.820015"><ele>176.0</ele><time>2026-04-25T09:42:17.348Z</time></trkpt><trkpt lat="45.4781167" lon="10.8201867"><ele>176.0</ele><time>2026-04-25T09:42:18.35Z</time></trkpt><trkpt lat="45.477985" lon="10.8203567"><ele>174.66666666666666</ele><time>2026-04-25T09:42:19.356Z</time></trkpt><trkpt lat="45.47786" lon="10.8205167"><ele>173.33333333333334</ele><time>2026-04-25T09:42:20.349Z</time></trkpt><trkpt lat="45.477715" lon="10.8206517"><ele>172.0</ele><time>2026-04-25T09:42:21.358Z</time></trkpt><trkpt lat="45.4776067" lon="10.8208017"><ele>172.0</ele><time>2026-04-25T09:42:22.351Z</time></trkpt><trkpt lat="45.4775333" lon="10.82097"><ele>172.0</ele><time>2026-04-25T09:42:23.349Z</time></trkpt><trkpt lat="45.4774583" lon="10.8211683"><ele>172.0</ele><time>2026-04-25T09:42:24.36Z</time></trkpt><trkpt lat="45.4774083" lon="10.8213867"><ele>169.0</ele><time>2026-04-25T09:42:25.354Z</time></trkpt><trkpt lat="45.4773533" lon="10.82161"><ele>166.0</ele><time>2026-04-25T09:42:26.345Z</time></trkpt><trkpt lat="45.477325" lon="10.8218383"><ele>163.0</ele><time>2026-04-25T09:42:27.358Z</time></trkpt><trkpt lat="45.4773217" lon="10.8220617"><ele>162.66666666666669</ele><time>2026-04-25T09:42:28.345Z</time></trkpt><trkpt lat="45.4773417" lon="10.8222867"><ele>162.33333333333334</ele><time>2026-04-25T09:42:29.406Z</time></trkpt><trkpt lat="45.4773583" lon="10.8225267"><ele>162.0</ele><time>2026-04-25T09:42:30.354Z</time></trkpt><trkpt lat="45.47737" lon="10.82277"><ele>161.33333333333334</ele><time>2026-04-25T09:42:31.349Z</time></trkpt><trkpt lat="45.477415" lon="10.8230167"><ele>160.66666666666669</ele><time>2026-04-25T09:42:32.36Z</time></trkpt><trkpt lat="45.4774233" lon="10.82325"><ele>160.0</ele><time>2026-04-25T09:42:33.349Z</time></trkpt><trkpt lat="45.4774217" lon="10.8234767"><ele>159.0</ele><time>2026-04-25T09:42:34.347Z</time></trkpt><trkpt lat="45.4774317" lon="10.823715"><ele>158.0</ele><time>2026-04-25T09:42:35.354Z</time></trkpt><trkpt lat="45.4774333" lon="10.8239267"><ele>157.0</ele><time>2026-04-25T09:42:36.356Z</time></trkpt><trkpt lat="45.4774533" lon="10.8241717"><ele>156.25</ele><time>2026-04-25T09:42:37.346Z</time></trkpt><trkpt lat="45.4774567" lon="10.8244033"><ele>155.5</ele><time>2026-04-25T09:42:38.347Z</time></trkpt><trkpt lat="45.4774517" lon="10.82461"><ele>154.75</ele><time>2026-04-25T09:42:39.348Z</time></trkpt><trkpt lat="45.4774433" lon="10.8248083"><ele>154.0</ele><time>2026-04-25T09:42:40.357Z</time></trkpt><trkpt lat="45.4774383" lon="10.825015"><ele>153.75</ele><time>2026-04-25T09:42:41.364Z</time></trkpt><trkpt lat="45.4774367" lon="10.825225"><ele>153.5</ele><time>2026-04-25T09:42:42.349Z</time></trkpt><trkpt lat="45.4774283" lon="10.82544"><ele>153.25</ele><time>2026-04-25T09:42:43.342Z</time></trkpt><trkpt lat="45.477415" lon="10.82565"><ele>153.0</ele><time>2026-04-25T09:42:44.36Z</time></trkpt><trkpt lat="45.4774067" lon="10.82586"><ele>152.25</ele><time>2026-04-25T09:42:45.341Z</time></trkpt><trkpt lat="45.4774033" lon="10.82607"><ele>151.5</ele><time>2026-04-25T09:42:46.356Z</time></trkpt><trkpt lat="45.4773933" lon="10.82627"><ele>150.75</ele><time>2026-04-25T09:42:47.36Z</time></trkpt><trkpt lat="45.4773867" lon="10.82646"><ele>150.0</ele><time>2026-04-25T09:42:48.352Z</time></trkpt><trkpt lat="45.4773983" lon="10.826645"><ele>150.0</ele><time>2026-04-25T09:42:49.354Z</time></trkpt><trkpt lat="45.4773883" lon="10.8268067"><ele>150.0</ele><time>2026-04-25T09:42:50.362Z</time></trkpt><trkpt lat="45.4774" lon="10.8270017"><ele>150.0</ele><time>2026-04-25T09:42:51.361Z</time></trkpt><trkpt lat="45.4773917" lon="10.8271817"><ele>150.0</ele><time>2026-04-25T09:42:52.353Z</time></trkpt><trkpt lat="45.4773983" lon="10.8273583"><ele>149.6</ele><time>2026-04-25T09:42:53.367Z</time></trkpt><trkpt lat="45.4773867" lon="10.8275267"><ele>149.2</ele><time>2026-04-25T09:42:54.355Z</time></trkpt><trkpt lat="45.4773683" lon="10.82768"><ele>148.8</ele><time>2026-04-25T09:42:55.355Z</time></trkpt><trkpt lat="45.4773717" lon="10.8278233"><ele>148.4</ele><time>2026-04-25T09:42:56.348Z</time></trkpt><trkpt lat="45.47738" lon="10.8279867"><ele>148.0</ele><time>2026-04-25T09:42:57.353Z</time></trkpt><trkpt lat="45.47739" lon="10.8281617"><ele>147.5</ele><time>2026-04-25T09:42:58.357Z</time></trkpt><trkpt lat="45.4773683" lon="10.8283367"><ele>147.0</ele><time>2026-04-25T09:42:59.356Z</time></trkpt><trkpt lat="45.4773617" lon="10.8284967"><ele>146.5</ele><time>2026-04-25T09:43:00.367Z</time></trkpt><trkpt lat="45.47738" lon="10.8286583"><ele>146.0</ele><time>2026-04-25T09:43:01.355Z</time></trkpt><trkpt lat="45.477375" lon="10.828815"><ele>145.4</ele><time>2026-04-25T09:43:02.35Z</time></trkpt><trkpt lat="45.4773683" lon="10.8289433"><ele>144.8</ele><time>2026-04-25T09:43:03.35Z</time></trkpt><trkpt lat="45.4773633" lon="10.8290983"><ele>144.20000000000002</ele><time>2026-04-25T09:43:04.345Z</time></trkpt><trkpt lat="45.4773583" lon="10.8292567"><ele>143.6</ele><time>2026-04-25T09:43:05.346Z</time></trkpt><trkpt lat="45.477335" lon="10.829415"><ele>143.0</ele><time>2026-04-25T09:43:06.352Z</time></trkpt><trkpt lat="45.4773233" lon="10.8295617"><ele>142.5</ele><time>2026-04-25T09:43:07.348Z</time></trkpt><trkpt lat="45.4773017" lon="10.8297483"><ele>142.0</ele><time>2026-04-25T09:43:08.345Z</time></trkpt><trkpt lat="45.4772867" lon="10.829925"><ele>141.5</ele><time>2026-04-25T09:43:09.351Z</time></trkpt><trkpt lat="45.4772733" lon="10.830095"><ele>141.0</ele><time>2026-04-25T09:43:10.349Z</time></trkpt><trkpt lat="45.47725" lon="10.830275"><ele>141.0</ele><time>2026-04-25T09:43:11.353Z</time></trkpt><trkpt lat="45.4772217" lon="10.830435"><ele>141.0</ele><time>2026-04-25T09:43:12.354Z</time></trkpt><trkpt lat="45.47721" lon="10.8306083"><ele>141.0</ele><time>2026-04-25T09:43:13.355Z</time></trkpt><trkpt lat="45.4771867" lon="10.83079"><ele>141.0</ele><time>2026-04-25T09:43:14.342Z</time></trkpt><trkpt lat="45.4771517" lon="10.8309833"><ele>140.5</ele><time>2026-04-25T09:43:15.361Z</time></trkpt><trkpt lat="45.4771583" lon="10.8311633"><ele>140.0</ele><time>2026-04-25T09:43:16.357Z</time></trkpt><trkpt lat="45.47714" lon="10.8313283"><ele>139.5</ele><time>2026-04-25T09:43:17.347Z</time></trkpt><trkpt lat="45.4771317" lon="10.831495"><ele>139.0</ele><time>2026-04-25T09:43:18.364Z</time></trkpt><trkpt lat="45.4771" lon="10.83169"><ele>138.5</ele><time>2026-04-25T09:43:19.346Z</time></trkpt><trkpt lat="45.4770717" lon="10.8318667"><ele>138.0</ele><time>2026-04-25T09:43:20.352Z</time></trkpt><trkpt lat="45.4770333" lon="10.83204"><ele>137.5</ele><time>2026-04-25T09:43:21.348Z</time></trkpt><trkpt lat="45.4770267" lon="10.832225"><ele>137.0</ele><time>2026-04-25T09:43:22.373Z</time></trkpt><trkpt lat="45.477" lon="10.83241"><ele>137.0</ele><time>2026-04-25T09:43:23.344Z</time></trkpt><trkpt lat="45.4769933" lon="10.8326033"><ele>137.0</ele><time>2026-04-25T09:43:24.345Z</time></trkpt><trkpt lat="45.4769817" lon="10.8327967"><ele>137.0</ele><time>2026-04-25T09:43:25.346Z</time></trkpt><trkpt lat="45.47695" lon="10.8329783"><ele>137.0</ele><time>2026-04-25T09:43:26.352Z</time></trkpt><trkpt lat="45.4769317" lon="10.8331567"><ele>136.5</ele><time>2026-04-25T09:43:27.35Z</time></trkpt><trkpt lat="45.4769433" lon="10.833345"><ele>136.0</ele><time>2026-04-25T09:43:28.351Z</time></trkpt><trkpt lat="45.4769417" lon="10.8335633"><ele>135.5</ele><time>2026-04-25T09:43:29.357Z</time></trkpt><trkpt lat="45.4769483" lon="10.83377"><ele>135.0</ele><time>2026-04-25T09:43:30.35Z</time></trkpt><trkpt lat="45.4769533" lon="10.833965"><ele>135.0</ele><time>2026-04-25T09:43:31.347Z</time></trkpt><trkpt lat="45.4769483" lon="10.83417"><ele>135.0</ele><time>2026-04-25T09:43:32.35Z</time></trkpt><trkpt lat="45.4769483" lon="10.8343533"><ele>135.0</ele><time>2026-04-25T09:43:33.346Z</time></trkpt><trkpt lat="45.47693" lon="10.8345283"><ele>135.0</ele><time>2026-04-25T09:43:34.34Z</time></trkpt><trkpt lat="45.47692" lon="10.834685"><ele>134.6</ele><time>2026-04-25T09:43:35.355Z</time></trkpt><trkpt lat="45.4769083" lon="10.8348317"><ele>134.2</ele><time>2026-04-25T09:43:36.342Z</time></trkpt><trkpt lat="45.476875" lon="10.8349517"><ele>133.8</ele><time>2026-04-25T09:43:37.349Z</time></trkpt><trkpt lat="45.47683" lon="10.83503"><ele>133.4</ele><time>2026-04-25T09:43:38.349Z</time></trkpt><trkpt lat="45.4767633" lon="10.8350967"><ele>133.0</ele><time>2026-04-25T09:43:39.344Z</time></trkpt><trkpt lat="45.4767433" lon="10.8352583"><ele>132.6</ele><time>2026-04-25T09:43:41.349Z</time></trkpt><trkpt lat="45.4767883" lon="10.8353317"><ele>132.20000000000002</ele><time>2026-04-25T09:43:42.352Z</time></trkpt><trkpt lat="45.4768483" lon="10.8353767"><ele>131.8</ele><time>2026-04-25T09:43:43.353Z</time></trkpt><trkpt lat="45.4769383" lon="10.83552"><ele>131.4</ele><time>2026-04-25T09:43:45.347Z</time></trkpt><trkpt lat="45.4769383" lon="10.8356683"><ele>131.0</ele><time>2026-04-25T09:43:46.344Z</time></trkpt><trkpt lat="45.4769433" lon="10.8358367"><ele>130.25</ele><time>2026-04-25T09:43:47.353Z</time></trkpt><trkpt lat="45.4769417" lon="10.8360117"><ele>129.5</ele><time>2026-04-25T09:43:48.345Z</time></trkpt><trkpt lat="45.4769517" lon="10.8362083"><ele>128.75</ele><time>2026-04-25T09:43:49.346Z</time></trkpt><trkpt lat="45.476935" lon="10.83638"><ele>128.0</ele><time>2026-04-25T09:43:50.355Z</time></trkpt><trkpt lat="45.4769183" lon="10.83656"><ele>128.0</ele><time>2026-04-25T09:43:51.35Z</time></trkpt><trkpt lat="45.476905" lon="10.83676"><ele>128.0</ele><time>2026-04-25T09:43:52.348Z</time></trkpt><trkpt lat="45.476895" lon="10.8369583"><ele>128.0</ele><time>2026-04-25T09:43:53.346Z</time></trkpt><trkpt lat="45.4768567" lon="10.83715"><ele>128.0</ele><time>2026-04-25T09:43:54.351Z</time></trkpt><trkpt lat="45.4768433" lon="10.837345"><ele>127.5</ele><time>2026-04-25T09:43:55.341Z</time></trkpt><trkpt lat="45.4768217" lon="10.8375633"><ele>127.0</ele><time>2026-04-25T09:43:56.363Z</time></trkpt><trkpt lat="45.4767817" lon="10.83777"><ele>126.5</ele><time>2026-04-25T09:43:57.362Z</time></trkpt><trkpt lat="45.4767533" lon="10.8379617"><ele>126.0</ele><time>2026-04-25T09:43:58.35Z</time></trkpt><trkpt lat="45.4767167" lon="10.83815"><ele>125.75</ele><time>2026-04-25T09:43:59.345Z</time></trkpt><trkpt lat="45.4766767" lon="10.8383283"><ele>125.5</ele><time>2026-04-25T09:44:00.367Z</time></trkpt><trkpt lat="45.47664" lon="10.838515"><ele>125.25</ele><time>2026-04-25T09:44:01.351Z</time></trkpt><trkpt lat="45.4766033" lon="10.83872"><ele>125.0</ele><time>2026-04-25T09:44:02.393Z</time></trkpt><trkpt lat="45.476555" lon="10.83892"><ele>124.66666666666666</ele><time>2026-04-25T09:44:03.344Z</time></trkpt><trkpt lat="45.4765183" lon="10.8391317"><ele>124.33333333333334</ele><time>2026-04-25T09:44:04.359Z</time></trkpt><trkpt lat="45.4764767" lon="10.83934"><ele>124.0</ele><time>2026-04-25T09:44:05.357Z</time></trkpt><trkpt lat="45.4764483" lon="10.8395467"><ele>124.66666666666667</ele><time>2026-04-25T09:44:06.342Z</time></trkpt><trkpt lat="45.4764133" lon="10.8397467"><ele>125.33333333333334</ele><time>2026-04-25T09:44:07.354Z</time></trkpt><trkpt lat="45.4763717" lon="10.8399567"><ele>126.0</ele><time>2026-04-25T09:44:08.343Z</time></trkpt><trkpt lat="45.4763467" lon="10.8401717"><ele>126.0</ele><time>2026-04-25T09:44:09.354Z</time></trkpt><trkpt lat="45.4763183" lon="10.8403667"><ele>126.0</ele><time>2026-04-25T09:44:10.353Z</time></trkpt><trkpt lat="45.47628" lon="10.840575"><ele>126.0</ele><time>2026-04-25T09:44:11.348Z</time></trkpt><trkpt lat="45.4762417" lon="10.840775"><ele>126.0</ele><time>2026-04-25T09:44:12.347Z</time></trkpt><trkpt lat="45.47621" lon="10.8409767"><ele>126.5</ele><time>2026-04-25T09:44:13.352Z</time></trkpt><trkpt lat="45.4761783" lon="10.8411717"><ele>127.0</ele><time>2026-04-25T09:44:14.345Z</time></trkpt><trkpt lat="45.4761383" lon="10.8413433"><ele>127.5</ele><time>2026-04-25T09:44:15.343Z</time></trkpt><trkpt lat="45.4761" lon="10.8414917"><ele>128.0</ele><time>2026-04-25T09:44:16.388Z</time></trkpt><trkpt lat="45.4760517" lon="10.8416333"><ele>127.99999999999999</ele><time>2026-04-25T09:44:17.363Z</time></trkpt><trkpt lat="45.4760083" lon="10.8417717"><ele>128.0</ele><time>2026-04-25T09:44:18.361Z</time></trkpt><trkpt lat="45.475975" lon="10.8419"><ele>128.0</ele><time>2026-04-25T09:44:19.344Z</time></trkpt><trkpt lat="45.475955" lon="10.8420217"><ele>128.0</ele><time>2026-04-25T09:44:20.354Z</time></trkpt><trkpt lat="45.47593" lon="10.84211"><ele>127.99999999999999</ele><time>2026-04-25T09:44:21.349Z</time></trkpt><trkpt lat="45.4758883" lon="10.8421933"><ele>128.0</ele><time>2026-04-25T09:44:35.339Z</time></trkpt><trkpt lat="45.4758583" lon="10.8423433"><ele>128.20000000000002</ele><time>2026-04-25T09:44:37.343Z</time></trkpt><trkpt lat="45.4758667" lon="10.8424817"><ele>128.4</ele><time>2026-04-25T09:44:39.344Z</time></trkpt><trkpt lat="45.4759517" lon="10.84257"><ele>128.60000000000002</ele><time>2026-04-25T09:44:41.362Z</time></trkpt><trkpt lat="45.47602" lon="10.8425967"><ele>128.8</ele><time>2026-04-25T09:44:42.354Z</time></trkpt><trkpt lat="45.4761167" lon="10.842605"><ele>129.0</ele><time>2026-04-25T09:44:43.349Z</time></trkpt><trkpt lat="45.4762233" lon="10.8426183"><ele>129.5</ele><time>2026-04-25T09:44:44.356Z</time></trkpt><trkpt lat="45.4763333" lon="10.8426467"><ele>130.0</ele><time>2026-04-25T09:44:45.349Z</time></trkpt><trkpt lat="45.4764467" lon="10.84268"><ele>130.5</ele><time>2026-04-25T09:44:46.347Z</time></trkpt><trkpt lat="45.4765733" lon="10.842715"><ele>131.0</ele><time>2026-04-25T09:44:47.345Z</time></trkpt><trkpt lat="45.476715" lon="10.8427567"><ele>131.0</ele><time>2026-04-25T09:44:48.352Z</time></trkpt><trkpt lat="45.47684" lon="10.8428033"><ele>131.0</ele><time>2026-04-25T09:44:49.357Z</time></trkpt><trkpt lat="45.47697" lon="10.842845"><ele>131.0</ele><time>2026-04-25T09:44:50.344Z</time></trkpt><trkpt lat="45.477095" lon="10.8428883"><ele>131.0</ele><time>2026-04-25T09:44:51.345Z</time></trkpt><trkpt lat="45.4772083" lon="10.8429217"><ele>129.0</ele><time>2026-04-25T09:44:52.355Z</time></trkpt><trkpt lat="45.4773017" lon="10.8429667"><ele>127.0</ele><time>2026-04-25T09:44:53.342Z</time></trkpt><trkpt lat="45.4773833" lon="10.8430267"><ele>125.0</ele><time>2026-04-25T09:44:54.351Z</time></trkpt><trkpt lat="45.4774383" lon="10.84311"><ele>123.0</ele><time>2026-04-25T09:44:55.349Z</time></trkpt><trkpt lat="45.4774733" lon="10.8432333"><ele>120.99999999999999</ele><time>2026-04-25T09:44:56.35Z</time></trkpt><trkpt lat="45.477495" lon="10.8433483"><ele>119.0</ele><time>2026-04-25T09:44:57.341Z</time></trkpt><trkpt lat="45.47747" lon="10.8435033"><ele>117.0</ele><time>2026-04-25T09:44:58.347Z</time></trkpt><trkpt lat="45.4774083" lon="10.84365"><ele>115.0</ele><time>2026-04-25T09:44:59.349Z</time></trkpt><trkpt lat="45.4773433" lon="10.8438083"><ele>113.0</ele><time>2026-04-25T09:45:00.344Z</time></trkpt><trkpt lat="45.4772933" lon="10.8439583"><ele>111.0</ele><time>2026-04-25T09:45:01.351Z</time></trkpt><trkpt lat="45.4772367" lon="10.844115"><ele>111.0</ele><time>2026-04-25T09:45:02.343Z</time></trkpt><trkpt lat="45.4771483" lon="10.8442533"><ele>111.0</ele><time>2026-04-25T09:45:03.345Z</time></trkpt><trkpt lat="45.4770817" lon="10.8444233"><ele>111.0</ele><time>2026-04-25T09:45:04.342Z</time></trkpt><trkpt lat="45.4770133" lon="10.844605"><ele>111.0</ele><time>2026-04-25T09:45:05.347Z</time></trkpt><trkpt lat="45.47695" lon="10.8447667"><ele>112.5</ele><time>2026-04-25T09:45:06.343Z</time></trkpt><trkpt lat="45.4768917" lon="10.8449233"><ele>114.0</ele><time>2026-04-25T09:45:07.346Z</time></trkpt><trkpt lat="45.4768467" lon="10.8450267"><ele>115.5</ele><time>2026-04-25T09:45:08.355Z</time></trkpt><trkpt lat="45.476785" lon="10.84519"><ele>117.0</ele><time>2026-04-25T09:45:09.352Z</time></trkpt><trkpt lat="45.4767333" lon="10.8453333"><ele>117.0</ele><time>2026-04-25T09:45:10.344Z</time></trkpt><trkpt lat="45.4766683" lon="10.8454867"><ele>117.0</ele><time>2026-04-25T09:45:11.348Z</time></trkpt><trkpt lat="45.4765983" lon="10.8456633"><ele>117.0</ele><time>2026-04-25T09:45:12.347Z</time></trkpt><trkpt lat="45.47652" lon="10.8458233"><ele>117.0</ele><time>2026-04-25T09:45:13.366Z</time></trkpt><trkpt lat="45.4764567" lon="10.8459533"><ele>118.8</ele><time>2026-04-25T09:45:14.347Z</time></trkpt><trkpt lat="45.4763883" lon="10.846055"><ele>120.6</ele><time>2026-04-25T09:45:15.35Z</time></trkpt><trkpt lat="45.4763367" lon="10.8461883"><ele>122.39999999999999</ele><time>2026-04-25T09:45:16.343Z</time></trkpt><trkpt lat="45.476275" lon="10.8463083"><ele>124.19999999999999</ele><time>2026-04-25T09:45:17.345Z</time></trkpt><trkpt lat="45.4762283" lon="10.84643"><ele>126.0</ele><time>2026-04-25T09:45:18.355Z</time></trkpt><trkpt lat="45.4762" lon="10.846535"><ele>126.0</ele><time>2026-04-25T09:45:19.357Z</time></trkpt><trkpt lat="45.4761683" lon="10.8466383"><ele>126.0</ele><time>2026-04-25T09:45:20.35Z</time></trkpt><trkpt lat="45.4761367" lon="10.8467383"><ele>126.0</ele><time>2026-04-25T09:45:21.354Z</time></trkpt><trkpt lat="45.4761083" lon="10.84682"><ele>126.0</ele><time>2026-04-25T09:45:22.353Z</time></trkpt><trkpt lat="45.4760783" lon="10.846945"><ele>126.0</ele><time>2026-04-25T09:45:24.345Z</time></trkpt><trkpt lat="45.4761283" lon="10.8468267"><ele>126.0</ele><time>2026-04-25T09:45:27.358Z</time></trkpt><trkpt lat="45.4761733" lon="10.8467383"><ele>126.0</ele><time>2026-04-25T09:45:28.358Z</time></trkpt><trkpt lat="45.476245" lon="10.84661"><ele>126.0</ele><time>2026-04-25T09:45:29.348Z</time></trkpt><trkpt lat="45.4763167" lon="10.8464667"><ele>126.0</ele><time>2026-04-25T09:45:30.339Z</time></trkpt><trkpt lat="45.476395" lon="10.846365"><ele>126.0</ele><time>2026-04-25T09:45:31.337Z</time></trkpt><trkpt lat="45.47648" lon="10.846235"><ele>124.19999999999999</ele><time>2026-04-25T09:45:32.346Z</time></trkpt><trkpt lat="45.4765517" lon="10.8461167"><ele>122.39999999999999</ele><time>2026-04-25T09:45:33.349Z</time></trkpt><trkpt lat="45.4766417" lon="10.8460333"><ele>120.6</ele><time>2026-04-25T09:45:34.351Z</time></trkpt><trkpt lat="45.4767117" lon="10.845945"><ele>118.8</ele><time>2026-04-25T09:45:35.353Z</time></trkpt><trkpt lat="45.476795" lon="10.8459"><ele>117.0</ele><time>2026-04-25T09:45:36.341Z</time></trkpt><trkpt lat="45.476865" lon="10.84584"><ele>117.0</ele><time>2026-04-25T09:45:37.346Z</time></trkpt><trkpt lat="45.4769283" lon="10.8457633"><ele>117.0</ele><time>2026-04-25T09:45:38.344Z</time></trkpt><trkpt lat="45.476975" lon="10.8456867"><ele>117.0</ele><time>2026-04-25T09:45:39.354Z</time></trkpt><trkpt lat="45.47705" lon="10.8455817"><ele>117.0</ele><time>2026-04-25T09:45:41.346Z</time></trkpt><trkpt lat="45.4770617" lon="10.8456783"><ele>117.0</ele><time>2026-04-25T09:45:44.346Z</time></trkpt><trkpt lat="45.4770117" lon="10.8457633"><ele>117.0</ele><time>2026-04-25T09:45:46.348Z</time></trkpt><trkpt lat="45.47697" lon="10.8458317"><ele>117.0</ele><time>2026-04-25T09:45:47.358Z</time></trkpt><trkpt lat="45.4769133" lon="10.8459117"><ele>116.99999999999999</ele><time>2026-04-25T09:45:48.359Z</time></trkpt><trkpt lat="45.4768433" lon="10.8460083"><ele>116.99999999999999</ele><time>2026-04-25T09:45:49.352Z</time></trkpt><trkpt lat="45.4767583" lon="10.8461283"><ele>117.0</ele><time>2026-04-25T09:45:50.352Z</time></trkpt><trkpt lat="45.4767133" lon="10.8462617"><ele>117.0</ele><time>2026-04-25T09:45:51.342Z</time></trkpt><trkpt lat="45.4766867" lon="10.846405"><ele>114.0</ele><time>2026-04-25T09:45:52.345Z</time></trkpt><trkpt lat="45.4767117" lon="10.8465567"><ele>110.99999999999999</ele><time>2026-04-25T09:45:53.345Z</time></trkpt><trkpt lat="45.4767067" lon="10.846715"><ele>108.0</ele><time>2026-04-25T09:45:54.343Z</time></trkpt><trkpt lat="45.476695" lon="10.84685"><ele>105.0</ele><time>2026-04-25T09:45:55.353Z</time></trkpt><trkpt lat="45.4766783" lon="10.846985"><ele>102.0</ele><time>2026-04-25T09:45:56.353Z</time></trkpt><trkpt lat="45.4766333" lon="10.8471267"><ele>101.25</ele><time>2026-04-25T09:45:57.344Z</time></trkpt><trkpt lat="45.47657" lon="10.8472783"><ele>100.5</ele><time>2026-04-25T09:45:58.349Z</time></trkpt><trkpt lat="45.4765133" lon="10.8474183"><ele>99.75</ele><time>2026-04-25T09:45:59.355Z</time></trkpt><trkpt lat="45.4764517" lon="10.8475683"><ele>99.0</ele><time>2026-04-25T09:46:00.354Z</time></trkpt><trkpt lat="45.4764233" lon="10.8476983"><ele>98.0</ele><time>2026-04-25T09:46:01.337Z</time></trkpt><trkpt lat="45.4764417" lon="10.8478683"><ele>97.0</ele><time>2026-04-25T09:46:03.352Z</time></trkpt><trkpt lat="45.4765517" lon="10.847945"><ele>96.0</ele><time>2026-04-25T09:46:05.356Z</time></trkpt><trkpt lat="45.4766467" lon="10.84798"><ele>95.0</ele><time>2026-04-25T09:46:06.355Z</time></trkpt><trkpt lat="45.47673" lon="10.8480267"><ele>94.0</ele><time>2026-04-25T09:46:07.344Z</time></trkpt><trkpt lat="45.4768183" lon="10.848065"><ele>94.0</ele><time>2026-04-25T09:46:08.344Z</time></trkpt><trkpt lat="45.476895" lon="10.8481117"><ele>94.0</ele><time>2026-04-25T09:46:09.349Z</time></trkpt><trkpt lat="45.476975" lon="10.8481533"><ele>94.0</ele><time>2026-04-25T09:46:10.337Z</time></trkpt><trkpt lat="45.477065" lon="10.84818"><ele>94.0</ele><time>2026-04-25T09:46:11.35Z</time></trkpt><trkpt lat="45.4771517" lon="10.848185"><ele>94.0</ele><time>2026-04-25T09:46:12.363Z</time></trkpt><trkpt lat="45.47723" lon="10.84816"><ele>94.0</ele><time>2026-04-25T09:46:13.359Z</time></trkpt><trkpt lat="45.4773133" lon="10.848105"><ele>91.25</ele><time>2026-04-25T09:46:14.346Z</time></trkpt><trkpt lat="45.477425" lon="10.8480167"><ele>88.5</ele><time>2026-04-25T09:46:15.355Z</time></trkpt><trkpt lat="45.477525" lon="10.8479"><ele>85.75</ele><time>2026-04-25T09:46:16.347Z</time></trkpt><trkpt lat="45.477635" lon="10.8477483"><ele>83.0</ele><time>2026-04-25T09:46:17.343Z</time></trkpt><trkpt lat="45.477735" lon="10.8476017"><ele>83.0</ele><time>2026-04-25T09:46:18.349Z</time></trkpt><trkpt lat="45.4778417" lon="10.8474517"><ele>83.0</ele><time>2026-04-25T09:46:19.35Z</time></trkpt><trkpt lat="45.4779417" lon="10.84731"><ele>83.0</ele><time>2026-04-25T09:46:20.346Z</time></trkpt><trkpt lat="45.4780483" lon="10.8471533"><ele>83.0</ele><time>2026-04-25T09:46:21.351Z</time></trkpt><trkpt lat="45.47816" lon="10.8470233"><ele>82.5</ele><time>2026-04-25T09:46:22.35Z</time></trkpt><trkpt lat="45.4782667" lon="10.846885"><ele>82.0</ele><time>2026-04-25T09:46:23.347Z</time></trkpt><trkpt lat="45.4783683" lon="10.8467467"><ele>81.5</ele><time>2026-04-25T09:46:24.347Z</time></trkpt><trkpt lat="45.4784567" lon="10.846595"><ele>81.0</ele><time>2026-04-25T09:46:25.348Z</time></trkpt><trkpt lat="45.4785317" lon="10.84644"><ele>81.0</ele><time>2026-04-25T09:46:26.345Z</time></trkpt><trkpt lat="45.4785783" lon="10.846275"><ele>81.0</ele><time>2026-04-25T09:46:27.347Z</time></trkpt><trkpt lat="45.4785917" lon="10.8461233"><ele>81.0</ele><time>2026-04-25T09:46:28.347Z</time></trkpt><trkpt lat="45.478605" lon="10.8459883"><ele>81.0</ele><time>2026-04-25T09:46:29.349Z</time></trkpt><trkpt lat="45.4786383" lon="10.8458833"><ele>81.0</ele><time>2026-04-25T09:46:30.355Z</time></trkpt><trkpt lat="45.478675" lon="10.8457633"><ele>81.4</ele><time>2026-04-25T09:46:32.346Z</time></trkpt><trkpt lat="45.47873" lon="10.8456433"><ele>81.8</ele><time>2026-04-25T09:47:41.336Z</time></trkpt><trkpt lat="45.478805" lon="10.84557"><ele>82.2</ele><time>2026-04-25T09:47:43.337Z</time></trkpt><trkpt lat="45.4788933" lon="10.8455633"><ele>82.60000000000001</ele><time>2026-04-25T09:47:45.341Z</time></trkpt><trkpt lat="45.4789917" lon="10.8455867"><ele>83.0</ele><time>2026-04-25T09:47:47.344Z</time></trkpt><trkpt lat="45.47911" lon="10.8456767"><ele>82.2</ele><time>2026-04-25T09:47:49.351Z</time></trkpt><trkpt lat="45.479185" lon="10.8457433"><ele>81.4</ele><time>2026-04-25T09:47:50.343Z</time></trkpt><trkpt lat="45.4792717" lon="10.8458167"><ele>80.60000000000001</ele><time>2026-04-25T09:47:51.355Z</time></trkpt><trkpt lat="45.4793683" lon="10.84591"><ele>79.80000000000001</ele><time>2026-04-25T09:47:52.353Z</time></trkpt><trkpt lat="45.47946" lon="10.84601"><ele>79.0</ele><time>2026-04-25T09:47:53.357Z</time></trkpt><trkpt lat="45.479565" lon="10.8460967"><ele>80.0</ele><time>2026-04-25T09:47:54.35Z</time></trkpt><trkpt lat="45.4796783" lon="10.8461583"><ele>81.0</ele><time>2026-04-25T09:47:55.348Z</time></trkpt><trkpt lat="45.47977" lon="10.8462433"><ele>82.0</ele><time>2026-04-25T09:47:56.348Z</time></trkpt><trkpt lat="45.4798533" lon="10.8463217"><ele>83.0</ele><time>2026-04-25T09:47:57.348Z</time></trkpt><trkpt lat="45.479935" lon="10.8464117"><ele>84.0</ele><time>2026-04-25T09:47:58.359Z</time></trkpt><trkpt lat="45.47999" lon="10.84649"><ele>84.0</ele><time>2026-04-25T09:47:59.347Z</time></trkpt><trkpt lat="45.48006" lon="10.846565"><ele>84.0</ele><time>2026-04-25T09:48:00.35Z</time></trkpt><trkpt lat="45.480135" lon="10.8466317"><ele>84.0</ele><time>2026-04-25T09:48:01.352Z</time></trkpt><trkpt lat="45.480205" lon="10.84671"><ele>84.0</ele><time>2026-04-25T09:48:02.348Z</time></trkpt><trkpt lat="45.48027" lon="10.8467717"><ele>84.0</ele><time>2026-04-25T09:48:03.355Z</time></trkpt><trkpt lat="45.4803583" lon="10.8468183"><ele>84.0</ele><time>2026-04-25T09:48:04.342Z</time></trkpt><trkpt lat="45.4804283" lon="10.8468583"><ele>84.16666666666667</ele><time>2026-04-25T09:48:05.348Z</time></trkpt><trkpt lat="45.4804983" lon="10.8468833"><ele>84.33333333333333</ele><time>2026-04-25T09:48:06.354Z</time></trkpt><trkpt lat="45.480575" lon="10.8469083"><ele>84.5</ele><time>2026-04-25T09:48:07.348Z</time></trkpt><trkpt lat="45.4806633" lon="10.84693"><ele>84.66666666666666</ele><time>2026-04-25T09:48:08.352Z</time></trkpt><trkpt lat="45.4807433" lon="10.84694"><ele>84.83333333333333</ele><time>2026-04-25T09:48:09.348Z</time></trkpt><trkpt lat="45.4808317" lon="10.8468183"><ele>85.0</ele><time>2026-04-25T09:48:10.36Z</time></trkpt><trkpt lat="45.480905" lon="10.846765"><ele>85.0</ele><time>2026-04-25T09:48:11.343Z</time></trkpt><trkpt lat="45.4809667" lon="10.8466967"><ele>85.0</ele><time>2026-04-25T09:48:12.353Z</time></trkpt><trkpt lat="45.4810183" lon="10.8465583"><ele>85.0</ele><time>2026-04-25T09:48:14.341Z</time></trkpt><trkpt lat="45.4810917" lon="10.84652"><ele>85.0</ele><time>2026-04-25T09:48:24.346Z</time></trkpt><trkpt lat="45.4811567" lon="10.8465183"><ele>85.0</ele><time>2026-04-25T09:48:25.4Z</time></trkpt><trkpt lat="45.481225" lon="10.8464933"><ele>85.0</ele><time>2026-04-25T09:48:26.382Z</time></trkpt><trkpt lat="45.4812967" lon="10.8464833"><ele>84.33333333333333</ele><time>2026-04-25T09:48:27.364Z</time></trkpt><trkpt lat="45.48137" lon="10.8464583"><ele>83.66666666666666</ele><time>2026-04-25T09:48:28.357Z</time></trkpt><trkpt lat="45.48148" lon="10.8464717"><ele>83.0</ele><time>2026-04-25T09:48:29.346Z</time></trkpt><trkpt lat="45.4815633" lon="10.8464533"><ele>82.33333333333333</ele><time>2026-04-25T09:48:30.349Z</time></trkpt><trkpt lat="45.4816367" lon="10.846415"><ele>81.66666666666667</ele><time>2026-04-25T09:48:31.346Z</time></trkpt><trkpt lat="45.481715" lon="10.8463783"><ele>81.0</ele><time>2026-04-25T09:48:32.347Z</time></trkpt><trkpt lat="45.4818083" lon="10.84641"><ele>81.0</ele><time>2026-04-25T09:48:33.357Z</time></trkpt><trkpt lat="45.4819183" lon="10.8464233"><ele>81.0</ele><time>2026-04-25T09:48:34.339Z</time></trkpt><trkpt lat="45.4820483" lon="10.8464317"><ele>81.0</ele><time>2026-04-25T09:48:35.34Z</time></trkpt><trkpt lat="45.4821867" lon="10.8464517"><ele>81.0</ele><time>2026-04-25T09:48:36.342Z</time></trkpt><trkpt lat="45.48234" lon="10.846475"><ele>80.66666666666667</ele><time>2026-04-25T09:48:37.336Z</time></trkpt><trkpt lat="45.48247" lon="10.8465133"><ele>80.33333333333334</ele><time>2026-04-25T09:48:38.343Z</time></trkpt><trkpt lat="45.4826267" lon="10.8465617"><ele>80.0</ele><time>2026-04-25T09:48:39.341Z</time></trkpt><trkpt lat="45.4827833" lon="10.8466083"><ele>79.66666666666667</ele><time>2026-04-25T09:48:40.351Z</time></trkpt><trkpt lat="45.482945" lon="10.846665"><ele>79.33333333333333</ele><time>2026-04-25T09:48:41.352Z</time></trkpt><trkpt lat="45.4831133" lon="10.8467267"><ele>79.0</ele><time>2026-04-25T09:48:42.354Z</time></trkpt><trkpt lat="45.4832933" lon="10.8468033"><ele>78.66666666666666</ele><time>2026-04-25T09:48:43.344Z</time></trkpt><trkpt lat="45.4834667" lon="10.84689"><ele>78.33333333333333</ele><time>2026-04-25T09:48:44.342Z</time></trkpt><trkpt lat="45.4836267" lon="10.8469717"><ele>78.0</ele><time>2026-04-25T09:48:45.343Z</time></trkpt><trkpt lat="45.483775" lon="10.8470483"><ele>78.5</ele><time>2026-04-25T09:48:46.362Z</time></trkpt><trkpt lat="45.4839083" lon="10.8471233"><ele>79.0</ele><time>2026-04-25T09:48:47.375Z</time></trkpt><trkpt lat="45.4840183" lon="10.8471917"><ele>79.5</ele><time>2026-04-25T09:48:48.37Z</time></trkpt><trkpt lat="45.484095" lon="10.8472583"><ele>80.0</ele><time>2026-04-25T09:48:49.366Z</time></trkpt><trkpt lat="45.4841633" lon="10.8474067"><ele>80.0</ele><time>2026-04-25T09:48:51.351Z</time></trkpt><trkpt lat="45.4842167" lon="10.8474733"><ele>80.0</ele><time>2026-04-25T09:48:52.361Z</time></trkpt><trkpt lat="45.4842733" lon="10.8475133"><ele>80.0</ele><time>2026-04-25T09:48:53.351Z</time></trkpt><trkpt lat="45.4843417" lon="10.8475133"><ele>80.0</ele><time>2026-04-25T09:48:54.36Z</time></trkpt><trkpt lat="45.4844333" lon="10.8474883"><ele>80.0</ele><time>2026-04-25T09:48:55.353Z</time></trkpt><trkpt lat="45.4845483" lon="10.8474833"><ele>80.0</ele><time>2026-04-25T09:48:56.362Z</time></trkpt><trkpt lat="45.4846833" lon="10.84746"><ele>82.0</ele><time>2026-04-25T09:48:57.393Z</time></trkpt><trkpt lat="45.4848183" lon="10.84746"><ele>84.0</ele><time>2026-04-25T09:48:58.347Z</time></trkpt><trkpt lat="45.4849667" lon="10.8474267"><ele>86.0</ele><time>2026-04-25T09:48:59.345Z</time></trkpt><trkpt lat="45.4851267" lon="10.84736"><ele>86.0</ele><time>2026-04-25T09:49:00.341Z</time></trkpt><trkpt lat="45.4852667" lon="10.84729"><ele>86.0</ele><time>2026-04-25T09:49:01.346Z</time></trkpt><trkpt lat="45.4853917" lon="10.8472117"><ele>86.0</ele><time>2026-04-25T09:49:02.352Z</time></trkpt><trkpt lat="45.4855117" lon="10.84709"><ele>86.0</ele><time>2026-04-25T09:49:03.356Z</time></trkpt><trkpt lat="45.4855683" lon="10.846935"><ele>88.0</ele><time>2026-04-25T09:49:04.36Z</time></trkpt><trkpt lat="45.4856317" lon="10.8467133"><ele>90.0</ele><time>2026-04-25T09:49:05.358Z</time></trkpt><trkpt lat="45.4856967" lon="10.8464917"><ele>92.0</ele><time>2026-04-25T09:49:06.347Z</time></trkpt><trkpt lat="45.48576" lon="10.8462883"><ele>92.0</ele><time>2026-04-25T09:49:07.352Z</time></trkpt><trkpt lat="45.48582" lon="10.8461267"><ele>92.0</ele><time>2026-04-25T09:49:08.359Z</time></trkpt><trkpt lat="45.48589" lon="10.8459817"><ele>92.0</ele><time>2026-04-25T09:49:09.355Z</time></trkpt><trkpt lat="45.4859717" lon="10.8458717"><ele>92.0</ele><time>2026-04-25T09:49:10.346Z</time></trkpt><trkpt lat="45.4860833" lon="10.8458233"><ele>92.33333333333334</ele><time>2026-04-25T09:49:11.35Z</time></trkpt><trkpt lat="45.4862067" lon="10.84582"><ele>92.66666666666667</ele><time>2026-04-25T09:49:12.362Z</time></trkpt><trkpt lat="45.486375" lon="10.845825"><ele>93.0</ele><time>2026-04-25T09:49:13.357Z</time></trkpt><trkpt lat="45.4865383" lon="10.8458867"><ele>93.60000000000001</ele><time>2026-04-25T09:49:14.347Z</time></trkpt><trkpt lat="45.4866883" lon="10.845905"><ele>94.2</ele><time>2026-04-25T09:49:15.349Z</time></trkpt><trkpt lat="45.4867917" lon="10.8459067"><ele>94.8</ele><time>2026-04-25T09:49:16.346Z</time></trkpt><trkpt lat="45.4868767" lon="10.845935"><ele>95.4</ele><time>2026-04-25T09:49:17.349Z</time></trkpt><trkpt lat="45.4869683" lon="10.8459767"><ele>96.0</ele><time>2026-04-25T09:49:18.344Z</time></trkpt><trkpt lat="45.4870633" lon="10.84601"><ele>95.75</ele><time>2026-04-25T09:49:19.345Z</time></trkpt><trkpt lat="45.4871567" lon="10.8460567"><ele>95.5</ele><time>2026-04-25T09:49:20.341Z</time></trkpt><trkpt lat="45.487285" lon="10.846125"><ele>95.25</ele><time>2026-04-25T09:49:21.345Z</time></trkpt><trkpt lat="45.4874433" lon="10.8461733"><ele>95.0</ele><time>2026-04-25T09:49:22.341Z</time></trkpt><trkpt lat="45.48759" lon="10.846245"><ele>95.0</ele><time>2026-04-25T09:49:23.341Z</time></trkpt><trkpt lat="45.48775" lon="10.8463033"><ele>95.0</ele><time>2026-04-25T09:49:24.338Z</time></trkpt><trkpt lat="45.4878933" lon="10.8463717"><ele>95.0</ele><time>2026-04-25T09:49:25.347Z</time></trkpt><trkpt lat="45.4880533" lon="10.846475"><ele>95.33333333333334</ele><time>2026-04-25T09:49:26.338Z</time></trkpt><trkpt lat="45.4882083" lon="10.8465933"><ele>95.66666666666667</ele><time>2026-04-25T09:49:27.344Z</time></trkpt><trkpt lat="45.4883817" lon="10.8466933"><ele>96.0</ele><time>2026-04-25T09:49:28.34Z</time></trkpt><trkpt lat="45.4885583" lon="10.8467933"><ele>95.66666666666667</ele><time>2026-04-25T09:49:29.344Z</time></trkpt><trkpt lat="45.4887383" lon="10.846925"><ele>95.33333333333334</ele><time>2026-04-25T09:49:30.352Z</time></trkpt><trkpt lat="45.4889217" lon="10.84702"><ele>95.0</ele><time>2026-04-25T09:49:31.344Z</time></trkpt><trkpt lat="45.4890883" lon="10.84714"><ele>95.0</ele><time>2026-04-25T09:49:32.338Z</time></trkpt><trkpt lat="45.4892333" lon="10.8472317"><ele>95.0</ele><time>2026-04-25T09:49:33.344Z</time></trkpt><trkpt lat="45.489375" lon="10.8473067"><ele>95.0</ele><time>2026-04-25T09:49:34.343Z</time></trkpt><trkpt lat="45.489535" lon="10.8473967"><ele>95.0</ele><time>2026-04-25T09:49:35.339Z</time></trkpt><trkpt lat="45.4896817" lon="10.8474783"><ele>95.0</ele><time>2026-04-25T09:49:36.348Z</time></trkpt><trkpt lat="45.4898483" lon="10.84756"><ele>95.0</ele><time>2026-04-25T09:49:37.352Z</time></trkpt><trkpt lat="45.49001" lon="10.8476417"><ele>95.0</ele><time>2026-04-25T09:49:38.338Z</time></trkpt><trkpt lat="45.4901633" lon="10.8477383"><ele>95.0</ele><time>2026-04-25T09:49:39.34Z</time></trkpt><trkpt lat="45.4903217" lon="10.847825"><ele>95.0</ele><time>2026-04-25T09:49:40.344Z</time></trkpt><trkpt lat="45.49049" lon="10.8479233"><ele>95.33333333333334</ele><time>2026-04-25T09:49:41.351Z</time></trkpt><trkpt lat="45.4906533" lon="10.8480317"><ele>95.66666666666667</ele><time>2026-04-25T09:49:42.341Z</time></trkpt><trkpt lat="45.49083" lon="10.8481367"><ele>96.0</ele><time>2026-04-25T09:49:43.344Z</time></trkpt><trkpt lat="45.49099" lon="10.8482317"><ele>96.0</ele><time>2026-04-25T09:49:44.346Z</time></trkpt><trkpt lat="45.4911183" lon="10.8483183"><ele>96.0</ele><time>2026-04-25T09:49:45.339Z</time></trkpt><trkpt lat="45.4912517" lon="10.8483967"><ele>96.0</ele><time>2026-04-25T09:49:46.345Z</time></trkpt><trkpt lat="45.4913817" lon="10.8484717"><ele>96.0</ele><time>2026-04-25T09:49:47.341Z</time></trkpt><trkpt lat="45.491485" lon="10.8485433"><ele>96.19999999999999</ele><time>2026-04-25T09:49:48.348Z</time></trkpt><trkpt lat="45.4915683" lon="10.84863"><ele>96.39999999999999</ele><time>2026-04-25T09:49:49.348Z</time></trkpt><trkpt lat="45.4916667" lon="10.8486867"><ele>96.6</ele><time>2026-04-25T09:49:50.348Z</time></trkpt><trkpt lat="45.4917717" lon="10.84875"><ele>96.8</ele><time>2026-04-25T09:49:51.34Z</time></trkpt><trkpt lat="45.4918683" lon="10.8488167"><ele>97.0</ele><time>2026-04-25T09:49:52.345Z</time></trkpt><trkpt lat="45.4919783" lon="10.8488833"><ele>98.0</ele><time>2026-04-25T09:49:53.367Z</time></trkpt><trkpt lat="45.4920933" lon="10.8489367"><ele>99.0</ele><time>2026-04-25T09:49:54.339Z</time></trkpt><trkpt lat="45.4922033" lon="10.84901"><ele>100.0</ele><time>2026-04-25T09:49:55.355Z</time></trkpt><trkpt lat="45.4923017" lon="10.8490717"><ele>101.0</ele><time>2026-04-25T09:49:56.342Z</time></trkpt><trkpt lat="45.4923933" lon="10.8491283"><ele>101.0</ele><time>2026-04-25T09:49:57.344Z</time></trkpt><trkpt lat="45.49248" lon="10.8491983"><ele>101.0</ele><time>2026-04-25T09:49:58.341Z</time></trkpt><trkpt lat="45.4925867" lon="10.8492667"><ele>101.0</ele><time>2026-04-25T09:49:59.346Z</time></trkpt><trkpt lat="45.4927083" lon="10.8493267"><ele>101.0</ele><time>2026-04-25T09:50:00.336Z</time></trkpt><trkpt lat="45.492815" lon="10.84937"><ele>102.25</ele><time>2026-04-25T09:50:01.34Z</time></trkpt><trkpt lat="45.492965" lon="10.8493683"><ele>103.5</ele><time>2026-04-25T09:50:02.336Z</time></trkpt><trkpt lat="45.4930883" lon="10.8494167"><ele>104.75</ele><time>2026-04-25T09:50:03.338Z</time></trkpt><trkpt lat="45.493225" lon="10.84947"><ele>106.0</ele><time>2026-04-25T09:50:04.337Z</time></trkpt><trkpt lat="45.4933733" lon="10.8495233"><ele>106.0</ele><time>2026-04-25T09:50:05.338Z</time></trkpt><trkpt lat="45.4935167" lon="10.8495883"><ele>106.0</ele><time>2026-04-25T09:50:06.342Z</time></trkpt><trkpt lat="45.4936433" lon="10.8496317"><ele>106.0</ele><time>2026-04-25T09:50:07.346Z</time></trkpt><trkpt lat="45.49376" lon="10.8496617"><ele>106.0</ele><time>2026-04-25T09:50:08.345Z</time></trkpt><trkpt lat="45.4938783" lon="10.8497"><ele>106.25</ele><time>2026-04-25T09:50:09.355Z</time></trkpt><trkpt lat="45.494" lon="10.8497567"><ele>106.5</ele><time>2026-04-25T09:50:10.347Z</time></trkpt><trkpt lat="45.4941417" lon="10.8498017"><ele>106.75</ele><time>2026-04-25T09:50:11.348Z</time></trkpt><trkpt lat="45.4942767" lon="10.8498383"><ele>107.0</ele><time>2026-04-25T09:50:12.358Z</time></trkpt><trkpt lat="45.494435" lon="10.8498867"><ele>108.0</ele><time>2026-04-25T09:50:13.351Z</time></trkpt><trkpt lat="45.4946133" lon="10.849935"><ele>109.0</ele><time>2026-04-25T09:50:14.357Z</time></trkpt><trkpt lat="45.4947833" lon="10.8500033"><ele>110.0</ele><time>2026-04-25T09:50:15.354Z</time></trkpt><trkpt lat="45.4949183" lon="10.8500417"><ele>110.0</ele><time>2026-04-25T09:50:16.351Z</time></trkpt><trkpt lat="45.4950483" lon="10.8500633"><ele>110.0</ele><time>2026-04-25T09:50:17.353Z</time></trkpt><trkpt lat="45.4951683" lon="10.8500983"><ele>110.0</ele><time>2026-04-25T09:50:18.356Z</time></trkpt><trkpt lat="45.4952833" lon="10.8501017"><ele>110.0</ele><time>2026-04-25T09:50:19.375Z</time></trkpt><trkpt lat="45.4953533" lon="10.8501283"><ele>110.0</ele><time>2026-04-25T09:50:20.357Z</time></trkpt><trkpt lat="45.4954267" lon="10.8501567"><ele>110.0</ele><time>2026-04-25T09:50:22.348Z</time></trkpt><trkpt lat="45.4955017" lon="10.8501617"><ele>110.0</ele><time>2026-04-25T09:50:28.345Z</time></trkpt><trkpt lat="45.49554" lon="10.850075"><ele>110.0</ele><time>2026-04-25T09:50:29.354Z</time></trkpt><trkpt lat="45.495585" lon="10.8499517"><ele>110.0</ele><time>2026-04-25T09:50:30.35Z</time></trkpt><trkpt lat="45.4956383" lon="10.8498067"><ele>110.0</ele><time>2026-04-25T09:50:31.36Z</time></trkpt><trkpt lat="45.4956983" lon="10.8496133"><ele>110.0</ele><time>2026-04-25T09:50:32.341Z</time></trkpt><trkpt lat="45.4957633" lon="10.849425"><ele>110.0</ele><time>2026-04-25T09:50:33.336Z</time></trkpt><trkpt lat="45.4958483" lon="10.849245"><ele>110.0</ele><time>2026-04-25T09:50:34.336Z</time></trkpt><trkpt lat="45.495935" lon="10.8490383"><ele>110.0</ele><time>2026-04-25T09:50:35.335Z</time></trkpt><trkpt lat="45.496025" lon="10.84881"><ele>110.0</ele><time>2026-04-25T09:50:36.352Z</time></trkpt><trkpt lat="45.49611" lon="10.8485717"><ele>110.0</ele><time>2026-04-25T09:50:37.338Z</time></trkpt><trkpt lat="45.4961817" lon="10.8483433"><ele>111.0</ele><time>2026-04-25T09:50:38.342Z</time></trkpt><trkpt lat="45.4962567" lon="10.8481183"><ele>112.0</ele><time>2026-04-25T09:50:39.342Z</time></trkpt><trkpt lat="45.496335" lon="10.847895"><ele>113.0</ele><time>2026-04-25T09:50:40.353Z</time></trkpt><trkpt lat="45.496405" lon="10.8476733"><ele>112.75</ele><time>2026-04-25T09:50:41.347Z</time></trkpt><trkpt lat="45.496465" lon="10.8474717"><ele>112.5</ele><time>2026-04-25T09:50:42.343Z</time></trkpt><trkpt lat="45.49652" lon="10.8473"><ele>112.25</ele><time>2026-04-25T09:50:43.345Z</time></trkpt><trkpt lat="45.49657" lon="10.8471667"><ele>112.0</ele><time>2026-04-25T09:50:44.361Z</time></trkpt><trkpt lat="45.4966217" lon="10.84701"><ele>112.0</ele><time>2026-04-25T09:50:45.345Z</time></trkpt><trkpt lat="45.4966767" lon="10.8468467"><ele>112.0</ele><time>2026-04-25T09:50:46.345Z</time></trkpt><trkpt lat="45.4967417" lon="10.8466783"><ele>112.0</ele><time>2026-04-25T09:50:47.35Z</time></trkpt><trkpt lat="45.4968" lon="10.8465367"><ele>112.0</ele><time>2026-04-25T09:50:48.346Z</time></trkpt><trkpt lat="45.4968517" lon="10.8463633"><ele>111.33333333333334</ele><time>2026-04-25T09:50:49.348Z</time></trkpt><trkpt lat="45.4969233" lon="10.846155"><ele>110.66666666666666</ele><time>2026-04-25T09:50:50.348Z</time></trkpt><trkpt lat="45.4969817" lon="10.8459367"><ele>110.0</ele><time>2026-04-25T09:50:51.344Z</time></trkpt><trkpt lat="45.497055" lon="10.8457483"><ele>110.25</ele><time>2026-04-25T09:50:52.356Z</time></trkpt><trkpt lat="45.4971367" lon="10.8455667"><ele>110.5</ele><time>2026-04-25T09:50:53.36Z</time></trkpt><trkpt lat="45.497205" lon="10.84537"><ele>110.75</ele><time>2026-04-25T09:50:54.36Z</time></trkpt><trkpt lat="45.4972767" lon="10.8451933"><ele>111.0</ele><time>2026-04-25T09:50:55.354Z</time></trkpt><trkpt lat="45.4973383" lon="10.8450183"><ele>111.0</ele><time>2026-04-25T09:50:56.337Z</time></trkpt><trkpt lat="45.4973983" lon="10.8448667"><ele>111.0</ele><time>2026-04-25T09:50:57.364Z</time></trkpt><trkpt lat="45.4974583" lon="10.8447267"><ele>111.0</ele><time>2026-04-25T09:50:58.348Z</time></trkpt><trkpt lat="45.4975067" lon="10.8445967"><ele>111.0</ele><time>2026-04-25T09:50:59.348Z</time></trkpt><trkpt lat="45.497565" lon="10.8445017"><ele>111.0</ele><time>2026-04-25T09:51:00.349Z</time></trkpt><trkpt lat="45.4976867" lon="10.844465"><ele>111.0</ele><time>2026-04-25T09:51:02.339Z</time></trkpt><trkpt lat="45.49778" lon="10.8444817"><ele>111.0</ele><time>2026-04-25T09:51:03.347Z</time></trkpt><trkpt lat="45.4978933" lon="10.844525"><ele>111.0</ele><time>2026-04-25T09:51:04.346Z</time></trkpt><trkpt lat="45.4980217" lon="10.844575"><ele>111.0</ele><time>2026-04-25T09:51:05.355Z</time></trkpt><trkpt lat="45.4981733" lon="10.8446217"><ele>111.33333333333334</ele><time>2026-04-25T09:51:06.368Z</time></trkpt><trkpt lat="45.49833" lon="10.8446767"><ele>111.66666666666667</ele><time>2026-04-25T09:51:07.354Z</time></trkpt><trkpt lat="45.4984767" lon="10.84474"><ele>112.0</ele><time>2026-04-25T09:51:08.348Z</time></trkpt><trkpt lat="45.498615" lon="10.844785"><ele>112.0</ele><time>2026-04-25T09:51:09.364Z</time></trkpt><trkpt lat="45.498725" lon="10.84485"><ele>111.99999999999999</ele><time>2026-04-25T09:51:10.357Z</time></trkpt><trkpt lat="45.4988217" lon="10.8448833"><ele>111.99999999999999</ele><time>2026-04-25T09:51:11.34Z</time></trkpt><trkpt lat="45.4988817" lon="10.8449133"><ele>112.0</ele><time>2026-04-25T09:51:12.362Z</time></trkpt><trkpt lat="45.498935" lon="10.8449867"><ele>112.0</ele><time>2026-04-25T09:51:14.342Z</time></trkpt><trkpt lat="45.4988833" lon="10.8451083"><ele>112.25</ele><time>2026-04-25T09:51:16.354Z</time></trkpt><trkpt lat="45.4988233" lon="10.8452"><ele>112.5</ele><time>2026-04-25T09:51:17.345Z</time></trkpt><trkpt lat="45.498745" lon="10.845305"><ele>112.75</ele><time>2026-04-25T09:51:18.352Z</time></trkpt><trkpt lat="45.4986167" lon="10.845395"><ele>113.0</ele><time>2026-04-25T09:51:19.359Z</time></trkpt><trkpt lat="45.4985317" lon="10.84553"><ele>113.0</ele><time>2026-04-25T09:51:20.34Z</time></trkpt><trkpt lat="45.4984617" lon="10.845675"><ele>113.00000000000001</ele><time>2026-04-25T09:51:21.35Z</time></trkpt><trkpt lat="45.4984033" lon="10.8457817"><ele>113.00000000000001</ele><time>2026-04-25T09:51:22.343Z</time></trkpt><trkpt lat="45.49833" lon="10.8458967"><ele>113.0</ele><time>2026-04-25T09:51:23.346Z</time></trkpt><trkpt lat="45.4982633" lon="10.8460033"><ele>113.0</ele><time>2026-04-25T09:51:24.35Z</time></trkpt><trkpt lat="45.4981833" lon="10.8461033"><ele>113.2</ele><time>2026-04-25T09:51:25.344Z</time></trkpt><trkpt lat="45.4981217" lon="10.8462233"><ele>113.4</ele><time>2026-04-25T09:51:26.346Z</time></trkpt><trkpt lat="45.4980483" lon="10.84636"><ele>113.60000000000001</ele><time>2026-04-25T09:51:27.344Z</time></trkpt><trkpt lat="45.4979867" lon="10.84649"><ele>113.80000000000001</ele><time>2026-04-25T09:51:28.352Z</time></trkpt><trkpt lat="45.4979283" lon="10.8466"><ele>114.0</ele><time>2026-04-25T09:51:29.35Z</time></trkpt><trkpt lat="45.497875" lon="10.846695"><ele>113.6</ele><time>2026-04-25T09:51:30.337Z</time></trkpt><trkpt lat="45.4978217" lon="10.8467733"><ele>113.2</ele><time>2026-04-25T09:51:31.346Z</time></trkpt><trkpt lat="45.4977517" lon="10.8468983"><ele>112.79999999999998</ele><time>2026-04-25T09:51:33.344Z</time></trkpt><trkpt lat="45.4977383" lon="10.8470183"><ele>112.39999999999999</ele><time>2026-04-25T09:51:35.352Z</time></trkpt><trkpt lat="45.497795" lon="10.8471567"><ele>112.0</ele><time>2026-04-25T09:51:37.341Z</time></trkpt><trkpt lat="45.4978533" lon="10.8472283"><ele>112.25</ele><time>2026-04-25T09:51:38.341Z</time></trkpt><trkpt lat="45.4979617" lon="10.8473"><ele>112.5</ele><time>2026-04-25T09:51:39.342Z</time></trkpt><trkpt lat="45.4980717" lon="10.8473833"><ele>112.75</ele><time>2026-04-25T09:51:40.337Z</time></trkpt><trkpt lat="45.49819" lon="10.8474683"><ele>113.0</ele><time>2026-04-25T09:51:41.343Z</time></trkpt><trkpt lat="45.4983183" lon="10.8475533"><ele>113.25</ele><time>2026-04-25T09:51:42.345Z</time></trkpt><trkpt lat="45.4984567" lon="10.8476367"><ele>113.5</ele><time>2026-04-25T09:51:43.337Z</time></trkpt><trkpt lat="45.4985883" lon="10.8477167"><ele>113.75</ele><time>2026-04-25T09:51:44.336Z</time></trkpt><trkpt lat="45.4987117" lon="10.8477817"><ele>114.0</ele><time>2026-04-25T09:51:45.346Z</time></trkpt><trkpt lat="45.4988117" lon="10.8478333"><ele>114.16666666666667</ele><time>2026-04-25T09:51:46.335Z</time></trkpt><trkpt lat="45.4988483" lon="10.8479317"><ele>114.33333333333334</ele><time>2026-04-25T09:51:47.334Z</time></trkpt><trkpt lat="45.4989317" lon="10.847945"><ele>114.5</ele><time>2026-04-25T09:51:49.339Z</time></trkpt><trkpt lat="45.4990083" lon="10.8478983"><ele>114.66666666666667</ele><time>2026-04-25T09:51:50.346Z</time></trkpt><trkpt lat="45.4990667" lon="10.84785"><ele>114.83333333333334</ele><time>2026-04-25T09:51:51.344Z</time></trkpt><trkpt lat="45.499185" lon="10.8478617"><ele>115.0</ele><time>2026-04-25T09:51:53.342Z</time></trkpt><trkpt lat="45.49925" lon="10.8478817"><ele>115.0</ele><time>2026-04-25T09:51:54.342Z</time></trkpt><trkpt lat="45.4993317" lon="10.84792"><ele>115.0</ele><time>2026-04-25T09:51:55.334Z</time></trkpt><trkpt lat="45.4994283" lon="10.8479667"><ele>115.0</ele><time>2026-04-25T09:51:56.34Z</time></trkpt><trkpt lat="45.49955" lon="10.848"><ele>115.0</ele><time>2026-04-25T09:51:57.343Z</time></trkpt><trkpt lat="45.499685" lon="10.8480383"><ele>115.33333333333334</ele><time>2026-04-25T09:51:58.342Z</time></trkpt><trkpt lat="45.4998417" lon="10.84807"><ele>115.66666666666666</ele><time>2026-04-25T09:51:59.337Z</time></trkpt><trkpt lat="45.5000117" lon="10.8480967"><ele>116.0</ele><time>2026-04-25T09:52:00.339Z</time></trkpt><trkpt lat="45.500195" lon="10.84813"><ele>116.0</ele><time>2026-04-25T09:52:01.349Z</time></trkpt><trkpt lat="45.5003967" lon="10.8481533"><ele>116.0</ele><time>2026-04-25T09:52:02.345Z</time></trkpt><trkpt lat="45.5006167" lon="10.84819"><ele>116.0</ele><time>2026-04-25T09:52:03.346Z</time></trkpt><trkpt lat="45.5007933" lon="10.848215"><ele>116.33333333333333</ele><time>2026-04-25T09:52:04.341Z</time></trkpt><trkpt lat="45.5009883" lon="10.8482683"><ele>116.66666666666666</ele><time>2026-04-25T09:52:05.344Z</time></trkpt><trkpt lat="45.501145" lon="10.8483217"><ele>117.0</ele><time>2026-04-25T09:52:06.337Z</time></trkpt><trkpt lat="45.5012967" lon="10.8483417"><ele>117.25</ele><time>2026-04-25T09:52:07.343Z</time></trkpt><trkpt lat="45.501435" lon="10.8483817"><ele>117.5</ele><time>2026-04-25T09:52:08.337Z</time></trkpt><trkpt lat="45.5015617" lon="10.84844"><ele>117.75</ele><time>2026-04-25T09:52:09.345Z</time></trkpt><trkpt lat="45.5016817" lon="10.8484767"><ele>118.0</ele><time>2026-04-25T09:52:10.342Z</time></trkpt><trkpt lat="45.5018267" lon="10.8485033"><ele>117.75</ele><time>2026-04-25T09:52:11.341Z</time></trkpt><trkpt lat="45.5019683" lon="10.8485433"><ele>117.5</ele><time>2026-04-25T09:52:12.336Z</time></trkpt><trkpt lat="45.50211" lon="10.8485917"><ele>117.25</ele><time>2026-04-25T09:52:13.358Z</time></trkpt><trkpt lat="45.50225" lon="10.848645"><ele>117.0</ele><time>2026-04-25T09:52:14.356Z</time></trkpt><trkpt lat="45.5024067" lon="10.8486917"><ele>117.0</ele><time>2026-04-25T09:52:15.346Z</time></trkpt><trkpt lat="45.50256" lon="10.8487183"><ele>117.0</ele><time>2026-04-25T09:52:16.356Z</time></trkpt><trkpt lat="45.50271" lon="10.8487367"><ele>117.0</ele><time>2026-04-25T09:52:17.361Z</time></trkpt><trkpt lat="45.50287" lon="10.84876"><ele>118.33333333333334</ele><time>2026-04-25T09:52:18.337Z</time></trkpt><trkpt lat="45.5030533" lon="10.84878"><ele>119.66666666666667</ele><time>2026-04-25T09:52:19.343Z</time></trkpt><trkpt lat="45.5032167" lon="10.848815"><ele>121.0</ele><time>2026-04-25T09:52:20.356Z</time></trkpt><trkpt lat="45.50336" lon="10.8488367"><ele>121.0</ele><time>2026-04-25T09:52:21.349Z</time></trkpt><trkpt lat="45.503505" lon="10.8488717"><ele>121.0</ele><time>2026-04-25T09:52:22.358Z</time></trkpt><trkpt lat="45.5036067" lon="10.8489117"><ele>121.0</ele><time>2026-04-25T09:52:23.359Z</time></trkpt><trkpt lat="45.5036983" lon="10.8489467"><ele>121.0</ele><time>2026-04-25T09:52:24.361Z</time></trkpt><trkpt lat="45.5037767" lon="10.8489833"><ele>121.0</ele><time>2026-04-25T09:52:25.346Z</time></trkpt><trkpt lat="45.50388" lon="10.84904"><ele>120.50000000000001</ele><time>2026-04-25T09:52:27.347Z</time></trkpt><trkpt lat="45.5039617" lon="10.849085"><ele>120.0</ele><time>2026-04-25T09:52:29.352Z</time></trkpt><trkpt lat="45.5039983" lon="10.8491717"><ele>119.5</ele><time>2026-04-25T09:52:32.361Z</time></trkpt><trkpt lat="45.503995" lon="10.84929"><ele>119.0</ele><time>2026-04-25T09:52:34.347Z</time></trkpt><trkpt lat="45.5039767" lon="10.8493983"><ele>118.50000000000001</ele><time>2026-04-25T09:52:36.352Z</time></trkpt><trkpt lat="45.5039617" lon="10.8494983"><ele>118.0</ele><time>2026-04-25T09:52:38.35Z</time></trkpt><trkpt lat="45.5039433" lon="10.8496117"><ele>117.75</ele><time>2026-04-25T09:52:41.337Z</time></trkpt><trkpt lat="45.5040167" lon="10.8496767"><ele>117.5</ele><time>2026-04-25T09:52:44.336Z</time></trkpt><trkpt lat="45.50415" lon="10.8497017"><ele>117.25</ele><time>2026-04-25T09:52:46.346Z</time></trkpt><trkpt lat="45.5042467" lon="10.8497283"><ele>117.0</ele><time>2026-04-25T09:52:47.334Z</time></trkpt><trkpt lat="45.50438" lon="10.8497617"><ele>117.0</ele><time>2026-04-25T09:52:48.348Z</time></trkpt><trkpt lat="45.5045183" lon="10.84979"><ele>117.0</ele><time>2026-04-25T09:52:49.342Z</time></trkpt><trkpt lat="45.5046367" lon="10.849835"><ele>117.0</ele><time>2026-04-25T09:52:50.336Z</time></trkpt><trkpt lat="45.5047583" lon="10.849895"><ele>117.0</ele><time>2026-04-25T09:52:51.342Z</time></trkpt><trkpt lat="45.5048767" lon="10.84995"><ele>117.0</ele><time>2026-04-25T09:52:52.339Z</time></trkpt><trkpt lat="45.5049817" lon="10.849995"><ele>117.0</ele><time>2026-04-25T09:52:53.336Z</time></trkpt><trkpt lat="45.5050817" lon="10.8500483"><ele>117.0</ele><time>2026-04-25T09:52:54.342Z</time></trkpt><trkpt lat="45.5052067" lon="10.850105"><ele>117.0</ele><time>2026-04-25T09:52:55.343Z</time></trkpt><trkpt lat="45.505355" lon="10.8501633"><ele>115.66666666666666</ele><time>2026-04-25T09:52:56.34Z</time></trkpt><trkpt lat="45.50553" lon="10.8502217"><ele>114.33333333333333</ele><time>2026-04-25T09:52:57.337Z</time></trkpt><trkpt lat="45.50569" lon="10.850265"><ele>113.0</ele><time>2026-04-25T09:52:58.342Z</time></trkpt><trkpt lat="45.5058567" lon="10.8503217"><ele>113.0</ele><time>2026-04-25T09:52:59.337Z</time></trkpt><trkpt lat="45.5060517" lon="10.850395"><ele>113.0</ele><time>2026-04-25T09:53:00.338Z</time></trkpt><trkpt lat="45.5062483" lon="10.8504933"><ele>113.0</ele><time>2026-04-25T09:53:01.344Z</time></trkpt><trkpt lat="45.5064217" lon="10.850545"><ele>113.66666666666666</ele><time>2026-04-25T09:53:02.341Z</time></trkpt><trkpt lat="45.5065967" lon="10.8506017"><ele>114.33333333333334</ele><time>2026-04-25T09:53:03.333Z</time></trkpt><trkpt lat="45.5067433" lon="10.8506583"><ele>115.0</ele><time>2026-04-25T09:53:04.339Z</time></trkpt><trkpt lat="45.5069217" lon="10.85073"><ele>116.0</ele><time>2026-04-25T09:53:05.343Z</time></trkpt><trkpt lat="45.5070833" lon="10.8507967"><ele>117.0</ele><time>2026-04-25T09:53:06.34Z</time></trkpt><trkpt lat="45.507265" lon="10.8508583"><ele>118.0</ele><time>2026-04-25T09:53:07.341Z</time></trkpt><trkpt lat="45.5074517" lon="10.8509183"><ele>118.0</ele><time>2026-04-25T09:53:08.344Z</time></trkpt><trkpt lat="45.5076283" lon="10.850985"><ele>118.0</ele><time>2026-04-25T09:53:09.345Z</time></trkpt><trkpt lat="45.50781" lon="10.8510717"><ele>118.0</ele><time>2026-04-25T09:53:10.347Z</time></trkpt><trkpt lat="45.5079617" lon="10.8511383"><ele>118.0</ele><time>2026-04-25T09:53:11.35Z</time></trkpt><trkpt lat="45.5081583" lon="10.851195"><ele>118.0</ele><time>2026-04-25T09:53:12.345Z</time></trkpt><trkpt lat="45.5083217" lon="10.8512683"><ele>118.0</ele><time>2026-04-25T09:53:13.355Z</time></trkpt><trkpt lat="45.5084667" lon="10.851325"><ele>118.0</ele><time>2026-04-25T09:53:14.35Z</time></trkpt><trkpt lat="45.5086583" lon="10.8514033"><ele>118.0</ele><time>2026-04-25T09:53:15.35Z</time></trkpt><trkpt lat="45.5088533" lon="10.8514833"><ele>118.0</ele><time>2026-04-25T09:53:16.357Z</time></trkpt><trkpt lat="45.5090483" lon="10.8515433"><ele>117.0</ele><time>2026-04-25T09:53:17.364Z</time></trkpt><trkpt lat="45.5092333" lon="10.8516017"><ele>116.0</ele><time>2026-04-25T09:53:18.361Z</time></trkpt><trkpt lat="45.509385" lon="10.8516733"><ele>115.0</ele><time>2026-04-25T09:53:19.346Z</time></trkpt><trkpt lat="45.5095233" lon="10.8517267"><ele>115.25</ele><time>2026-04-25T09:53:20.375Z</time></trkpt><trkpt lat="45.5096367" lon="10.8517783"><ele>115.5</ele><time>2026-04-25T09:53:21.369Z</time></trkpt><trkpt lat="45.5097567" lon="10.8518217"><ele>115.75</ele><time>2026-04-25T09:53:22.345Z</time></trkpt><trkpt lat="45.509875" lon="10.8518817"><ele>116.0</ele><time>2026-04-25T09:53:23.34Z</time></trkpt><trkpt lat="45.5100083" lon="10.85194"><ele>116.0</ele><time>2026-04-25T09:53:24.345Z</time></trkpt><trkpt lat="45.5101533" lon="10.8519883"><ele>116.0</ele><time>2026-04-25T09:53:25.337Z</time></trkpt><trkpt lat="45.5103017" lon="10.8520333"><ele>116.0</ele><time>2026-04-25T09:53:26.344Z</time></trkpt><trkpt lat="45.5104533" lon="10.8521033"><ele>116.33333333333333</ele><time>2026-04-25T09:53:27.349Z</time></trkpt><trkpt lat="45.5106217" lon="10.8521667"><ele>116.66666666666666</ele><time>2026-04-25T09:53:28.353Z</time></trkpt><trkpt lat="45.5107983" lon="10.85223"><ele>117.0</ele><time>2026-04-25T09:53:29.344Z</time></trkpt><trkpt lat="45.510945" lon="10.852285"><ele>117.0</ele><time>2026-04-25T09:53:30.352Z</time></trkpt><trkpt lat="45.5110883" lon="10.8523417"><ele>117.0</ele><time>2026-04-25T09:53:31.354Z</time></trkpt><trkpt lat="45.51122" lon="10.8523817"><ele>117.0</ele><time>2026-04-25T09:53:32.376Z</time></trkpt><trkpt lat="45.5113533" lon="10.85243"><ele>117.0</ele><time>2026-04-25T09:53:33.362Z</time></trkpt><trkpt lat="45.5114683" lon="10.852495"><ele>117.39999999999999</ele><time>2026-04-25T09:53:34.349Z</time></trkpt><trkpt lat="45.5116017" lon="10.85249"><ele>117.79999999999998</ele><time>2026-04-25T09:53:35.344Z</time></trkpt><trkpt lat="45.511695" lon="10.85254"><ele>118.2</ele><time>2026-04-25T09:53:36.352Z</time></trkpt><trkpt lat="45.51182" lon="10.85261"><ele>118.6</ele><time>2026-04-25T09:53:38.344Z</time></trkpt><trkpt lat="45.511885" lon="10.8526383"><ele>119.0</ele><time>2026-04-25T09:53:39.349Z</time></trkpt><trkpt lat="45.511955" lon="10.8526933"><ele>119.0</ele><time>2026-04-25T09:53:40.34Z</time></trkpt><trkpt lat="45.5120233" lon="10.8528017"><ele>119.0</ele><time>2026-04-25T09:53:41.354Z</time></trkpt><trkpt lat="45.5120833" lon="10.85293"><ele>119.0</ele><time>2026-04-25T09:53:42.341Z</time></trkpt><trkpt lat="45.5121217" lon="10.853085"><ele>119.0</ele><time>2026-04-25T09:53:43.342Z</time></trkpt><trkpt lat="45.5121717" lon="10.8532467"><ele>119.0</ele><time>2026-04-25T09:53:44.338Z</time></trkpt><trkpt lat="45.5122133" lon="10.8534183"><ele>122.75</ele><time>2026-04-25T09:53:45.341Z</time></trkpt><trkpt lat="45.512255" lon="10.8535933"><ele>126.5</ele><time>2026-04-25T09:53:46.343Z</time></trkpt><trkpt lat="45.5122867" lon="10.85376"><ele>130.25</ele><time>2026-04-25T09:53:47.341Z</time></trkpt><trkpt lat="45.5123117" lon="10.85391"><ele>134.0</ele><time>2026-04-25T09:53:48.34Z</time></trkpt><trkpt lat="45.5123333" lon="10.8540483"><ele>134.0</ele><time>2026-04-25T09:53:49.349Z</time></trkpt><trkpt lat="45.5123533" lon="10.85418"><ele>134.0</ele><time>2026-04-25T09:53:50.344Z</time></trkpt><trkpt lat="45.51237" lon="10.85431"><ele>134.0</ele><time>2026-04-25T09:53:51.336Z</time></trkpt><trkpt lat="45.5123783" lon="10.85442"><ele>134.0</ele><time>2026-04-25T09:53:52.345Z</time></trkpt><trkpt lat="45.5123867" lon="10.85451"><ele>134.0</ele><time>2026-04-25T09:53:53.344Z</time></trkpt><trkpt lat="45.5124" lon="10.8546233"><ele>134.0</ele><time>2026-04-25T09:53:55.349Z</time></trkpt><trkpt lat="45.5124467" lon="10.85454"><ele>134.0</ele><time>2026-04-25T09:53:57.341Z</time></trkpt><trkpt lat="45.5124367" lon="10.85445"><ele>134.0</ele><time>2026-04-25T09:53:58.346Z</time></trkpt><trkpt lat="45.5124" lon="10.8543417"><ele>134.0</ele><time>2026-04-25T09:53:59.353Z</time></trkpt><trkpt lat="45.5123583" lon="10.8542083"><ele>134.0</ele><time>2026-04-25T09:54:00.352Z</time></trkpt><trkpt lat="45.5123167" lon="10.8540417"><ele>134.0</ele><time>2026-04-25T09:54:01.347Z</time></trkpt><trkpt lat="45.5122733" lon="10.8538517"><ele>134.0</ele><time>2026-04-25T09:54:02.343Z</time></trkpt><trkpt lat="45.51223" lon="10.853645"><ele>134.0</ele><time>2026-04-25T09:54:03.339Z</time></trkpt><trkpt lat="45.512185" lon="10.8534333"><ele>134.0</ele><time>2026-04-25T09:54:04.343Z</time></trkpt><trkpt lat="45.5121367" lon="10.8531867"><ele>133.8</ele><time>2026-04-25T09:54:05.352Z</time></trkpt><trkpt lat="45.5120933" lon="10.8529983"><ele>133.60000000000002</ele><time>2026-04-25T09:54:06.343Z</time></trkpt><trkpt lat="45.5120433" lon="10.8528633"><ele>133.4</ele><time>2026-04-25T09:54:07.339Z</time></trkpt><trkpt lat="45.5119933" lon="10.8527633"><ele>133.20000000000002</ele><time>2026-04-25T09:54:08.338Z</time></trkpt><trkpt lat="45.5119417" lon="10.852685"><ele>133.0</ele><time>2026-04-25T09:54:09.342Z</time></trkpt><trkpt lat="45.5118733" lon="10.8526733"><ele>129.5</ele><time>2026-04-25T09:54:11.34Z</time></trkpt><trkpt lat="45.51184" lon="10.8528217"><ele>126.0</ele><time>2026-04-25T09:54:13.342Z</time></trkpt><trkpt lat="45.5118833" lon="10.8529983"><ele>122.5</ele><time>2026-04-25T09:54:14.337Z</time></trkpt><trkpt lat="45.5119233" lon="10.8532167"><ele>119.0</ele><time>2026-04-25T09:54:15.337Z</time></trkpt><trkpt lat="45.5119633" lon="10.8534133"><ele>119.0</ele><time>2026-04-25T09:54:16.341Z</time></trkpt><trkpt lat="45.5119533" lon="10.8536067"><ele>119.0</ele><time>2026-04-25T09:54:17.346Z</time></trkpt><trkpt lat="45.5119483" lon="10.8538333"><ele>119.0</ele><time>2026-04-25T09:54:18.344Z</time></trkpt><trkpt lat="45.5119183" lon="10.8540617"><ele>119.33333333333333</ele><time>2026-04-25T09:54:19.341Z</time></trkpt><trkpt lat="45.5119033" lon="10.8543033"><ele>119.66666666666666</ele><time>2026-04-25T09:54:20.334Z</time></trkpt><trkpt lat="45.5118817" lon="10.8545483"><ele>120.0</ele><time>2026-04-25T09:54:21.341Z</time></trkpt><trkpt lat="45.5118583" lon="10.8547817"><ele>120.0</ele><time>2026-04-25T09:54:22.339Z</time></trkpt><trkpt lat="45.5118433" lon="10.855005"><ele>120.0</ele><time>2026-04-25T09:54:23.338Z</time></trkpt><trkpt lat="45.5118317" lon="10.8551983"><ele>120.0</ele><time>2026-04-25T09:54:24.348Z</time></trkpt><trkpt lat="45.51183" lon="10.8553883"><ele>120.0</ele><time>2026-04-25T09:54:25.339Z</time></trkpt><trkpt lat="45.5118183" lon="10.8555867"><ele>120.25</ele><time>2026-04-25T09:54:26.336Z</time></trkpt><trkpt lat="45.5118" lon="10.8558033"><ele>120.5</ele><time>2026-04-25T09:54:27.334Z</time></trkpt><trkpt lat="45.51176" lon="10.8560017"><ele>120.75</ele><time>2026-04-25T09:54:28.335Z</time></trkpt><trkpt lat="45.5117217" lon="10.8561867"><ele>121.0</ele><time>2026-04-25T09:54:29.337Z</time></trkpt><trkpt lat="45.5117" lon="10.8563967"><ele>121.5</ele><time>2026-04-25T09:54:30.344Z</time></trkpt><trkpt lat="45.5116717" lon="10.8565883"><ele>122.0</ele><time>2026-04-25T09:54:31.343Z</time></trkpt><trkpt lat="45.5116383" lon="10.8567967"><ele>122.5</ele><time>2026-04-25T09:54:32.341Z</time></trkpt><trkpt lat="45.511585" lon="10.8569933"><ele>123.0</ele><time>2026-04-25T09:54:33.337Z</time></trkpt><trkpt lat="45.5115433" lon="10.85718"><ele>123.60000000000001</ele><time>2026-04-25T09:54:34.34Z</time></trkpt><trkpt lat="45.511505" lon="10.8573417"><ele>124.20000000000002</ele><time>2026-04-25T09:54:35.335Z</time></trkpt><trkpt lat="45.5114767" lon="10.8575167"><ele>124.8</ele><time>2026-04-25T09:54:36.337Z</time></trkpt><trkpt lat="45.5114567" lon="10.8576817"><ele>125.4</ele><time>2026-04-25T09:54:37.343Z</time></trkpt><trkpt lat="45.5114567" lon="10.857785"><ele>126.0</ele><time>2026-04-25T09:54:38.345Z</time></trkpt><trkpt lat="45.5114667" lon="10.8578833"><ele>126.0</ele><time>2026-04-25T09:54:39.334Z</time></trkpt><trkpt lat="45.5114767" lon="10.858075"><ele>126.0</ele><time>2026-04-25T09:54:41.34Z</time></trkpt><trkpt lat="45.5114617" lon="10.858185"><ele>126.0</ele><time>2026-04-25T09:54:42.335Z</time></trkpt><trkpt lat="45.5114133" lon="10.85829"><ele>126.0</ele><time>2026-04-25T09:54:43.334Z</time></trkpt><trkpt lat="45.5113817" lon="10.85839"><ele>126.0</ele><time>2026-04-25T09:54:44.334Z</time></trkpt><trkpt lat="45.5113667" lon="10.858495"><ele>126.0</ele><time>2026-04-25T09:54:45.341Z</time></trkpt><trkpt lat="45.5113683" lon="10.8586167"><ele>126.0</ele><time>2026-04-25T09:54:46.339Z</time></trkpt><trkpt lat="45.5113767" lon="10.85875"><ele>126.0</ele><time>2026-04-25T09:54:47.342Z</time></trkpt><trkpt lat="45.5113767" lon="10.8588817"><ele>126.0</ele><time>2026-04-25T09:54:48.335Z</time></trkpt><trkpt lat="45.5113567" lon="10.8590383"><ele>126.0</ele><time>2026-04-25T09:54:49.339Z</time></trkpt><trkpt lat="45.5113117" lon="10.8592033"><ele>125.25</ele><time>2026-04-25T09:54:50.342Z</time></trkpt><trkpt lat="45.51126" lon="10.8593633"><ele>124.5</ele><time>2026-04-25T09:54:51.342Z</time></trkpt><trkpt lat="45.5111983" lon="10.85952"><ele>123.75</ele><time>2026-04-25T09:54:52.335Z</time></trkpt><trkpt lat="45.5111517" lon="10.85968"><ele>123.0</ele><time>2026-04-25T09:54:53.342Z</time></trkpt><trkpt lat="45.511105" lon="10.85987"><ele>123.0</ele><time>2026-04-25T09:54:54.341Z</time></trkpt><trkpt lat="45.5110533" lon="10.8600217"><ele>123.00000000000001</ele><time>2026-04-25T09:54:55.338Z</time></trkpt><trkpt lat="45.5110317" lon="10.860155"><ele>123.00000000000001</ele><time>2026-04-25T09:54:56.344Z</time></trkpt><trkpt lat="45.510985" lon="10.8602883"><ele>123.0</ele><time>2026-04-25T09:54:57.344Z</time></trkpt><trkpt lat="45.5109383" lon="10.8604283"><ele>123.0</ele><time>2026-04-25T09:54:58.334Z</time></trkpt><trkpt lat="45.5108883" lon="10.8605883"><ele>123.75</ele><time>2026-04-25T09:54:59.339Z</time></trkpt><trkpt lat="45.5108167" lon="10.8607667"><ele>124.5</ele><time>2026-04-25T09:55:00.336Z</time></trkpt><trkpt lat="45.5107417" lon="10.8609267"><ele>125.25</ele><time>2026-04-25T09:55:01.335Z</time></trkpt><trkpt lat="45.5106783" lon="10.861075"><ele>126.0</ele><time>2026-04-25T09:55:02.336Z</time></trkpt><trkpt lat="45.5106233" lon="10.8611917"><ele>127.0</ele><time>2026-04-25T09:55:03.343Z</time></trkpt><trkpt lat="45.5106017" lon="10.8612883"><ele>128.0</ele><time>2026-04-25T09:55:04.342Z</time></trkpt><trkpt lat="45.51061" lon="10.86138"><ele>129.0</ele><time>2026-04-25T09:55:05.342Z</time></trkpt><trkpt lat="45.510655" lon="10.8614633"><ele>130.0</ele><time>2026-04-25T09:55:06.342Z</time></trkpt><trkpt lat="45.510725" lon="10.86154"><ele>131.0</ele><time>2026-04-25T09:55:07.339Z</time></trkpt><trkpt lat="45.5108167" lon="10.8616"><ele>132.0</ele><time>2026-04-25T09:55:08.334Z</time></trkpt><trkpt lat="45.5109467" lon="10.8616367"><ele>132.0</ele><time>2026-04-25T09:55:09.34Z</time></trkpt><trkpt lat="45.511055" lon="10.8616733"><ele>132.0</ele><time>2026-04-25T09:55:10.341Z</time></trkpt><trkpt lat="45.51117" lon="10.8617217"><ele>132.0</ele><time>2026-04-25T09:55:11.336Z</time></trkpt><trkpt lat="45.5112783" lon="10.8617567"><ele>132.0</ele><time>2026-04-25T09:55:12.334Z</time></trkpt><trkpt lat="45.5113967" lon="10.8618133"><ele>132.2</ele><time>2026-04-25T09:55:13.34Z</time></trkpt><trkpt lat="45.5115217" lon="10.8618567"><ele>132.39999999999998</ele><time>2026-04-25T09:55:14.348Z</time></trkpt><trkpt lat="45.5116367" lon="10.8619067"><ele>132.60000000000002</ele><time>2026-04-25T09:55:15.341Z</time></trkpt><trkpt lat="45.511735" lon="10.8619617"><ele>132.8</ele><time>2026-04-25T09:55:16.337Z</time></trkpt><trkpt lat="45.5118167" lon="10.86201"><ele>133.0</ele><time>2026-04-25T09:55:17.343Z</time></trkpt><trkpt lat="45.5118583" lon="10.862085"><ele>133.0</ele><time>2026-04-25T09:55:18.34Z</time></trkpt><trkpt lat="45.511865" lon="10.8622083"><ele>133.0</ele><time>2026-04-25T09:55:19.342Z</time></trkpt><trkpt lat="45.51185" lon="10.8623633"><ele>133.0</ele><time>2026-04-25T09:55:20.334Z</time></trkpt><trkpt lat="45.5118283" lon="10.8625033"><ele>133.0</ele><time>2026-04-25T09:55:21.342Z</time></trkpt><trkpt lat="45.5118267" lon="10.862605"><ele>133.0</ele><time>2026-04-25T09:55:22.342Z</time></trkpt><trkpt lat="45.5118267" lon="10.8627733"><ele>132.75</ele><time>2026-04-25T09:55:24.34Z</time></trkpt><trkpt lat="45.5118783" lon="10.86292"><ele>132.5</ele><time>2026-04-25T09:55:26.343Z</time></trkpt><trkpt lat="45.5119967" lon="10.8629483"><ele>132.25</ele><time>2026-04-25T09:55:27.347Z</time></trkpt><trkpt lat="45.5121" lon="10.8629983"><ele>132.0</ele><time>2026-04-25T09:55:28.354Z</time></trkpt><trkpt lat="45.51221" lon="10.863045"><ele>132.0</ele><time>2026-04-25T09:55:29.345Z</time></trkpt><trkpt lat="45.5123217" lon="10.8630833"><ele>132.0</ele><time>2026-04-25T09:55:30.346Z</time></trkpt><trkpt lat="45.51245" lon="10.863125"><ele>132.0</ele><time>2026-04-25T09:55:31.346Z</time></trkpt><trkpt lat="45.5125883" lon="10.863175"><ele>132.0</ele><time>2026-04-25T09:55:32.352Z</time></trkpt><trkpt lat="45.5127133" lon="10.8632167"><ele>132.0</ele><time>2026-04-25T09:55:33.347Z</time></trkpt><trkpt lat="45.5128433" lon="10.8632633"><ele>132.0</ele><time>2026-04-25T09:55:34.343Z</time></trkpt><trkpt lat="45.5129967" lon="10.8633167"><ele>132.0</ele><time>2026-04-25T09:55:35.343Z</time></trkpt><trkpt lat="45.513145" lon="10.8633717"><ele>132.0</ele><time>2026-04-25T09:55:36.351Z</time></trkpt><trkpt lat="45.513285" lon="10.8634267"><ele>131.79999999999998</ele><time>2026-04-25T09:55:37.343Z</time></trkpt><trkpt lat="45.5134167" lon="10.8634783"><ele>131.6</ele><time>2026-04-25T09:55:38.354Z</time></trkpt><trkpt lat="45.51353" lon="10.8635233"><ele>131.39999999999998</ele><time>2026-04-25T09:55:39.346Z</time></trkpt><trkpt lat="45.5136283" lon="10.863565"><ele>131.2</ele><time>2026-04-25T09:55:40.345Z</time></trkpt><trkpt lat="45.513715" lon="10.8636"><ele>131.0</ele><time>2026-04-25T09:55:41.352Z</time></trkpt><trkpt lat="45.5137833" lon="10.8636317"><ele>131.0</ele><time>2026-04-25T09:55:42.362Z</time></trkpt><trkpt lat="45.5138383" lon="10.86372"><ele>131.0</ele><time>2026-04-25T09:55:44.358Z</time></trkpt><trkpt lat="45.51378" lon="10.8638967"><ele>131.0</ele><time>2026-04-25T09:55:46.336Z</time></trkpt><trkpt lat="45.513725" lon="10.86401"><ele>131.0</ele><time>2026-04-25T09:55:47.345Z</time></trkpt><trkpt lat="45.5136617" lon="10.864155"><ele>131.0</ele><time>2026-04-25T09:55:48.344Z</time></trkpt><trkpt lat="45.5135883" lon="10.8643617"><ele>131.33333333333331</ele><time>2026-04-25T09:55:49.34Z</time></trkpt><trkpt lat="45.5135167" lon="10.86458"><ele>131.66666666666666</ele><time>2026-04-25T09:55:50.339Z</time></trkpt><trkpt lat="45.5134467" lon="10.8648167"><ele>132.0</ele><time>2026-04-25T09:55:51.347Z</time></trkpt><trkpt lat="45.513375" lon="10.865075"><ele>132.0</ele><time>2026-04-25T09:55:52.337Z</time></trkpt><trkpt lat="45.5132833" lon="10.86538"><ele>132.0</ele><time>2026-04-25T09:55:53.343Z</time></trkpt><trkpt lat="45.51319" lon="10.8656833"><ele>132.0</ele><time>2026-04-25T09:55:54.343Z</time></trkpt><trkpt lat="45.5130967" lon="10.865985"><ele>132.0</ele><time>2026-04-25T09:55:55.342Z</time></trkpt><trkpt lat="45.5130233" lon="10.86627"><ele>132.0</ele><time>2026-04-25T09:55:56.333Z</time></trkpt><trkpt lat="45.5129517" lon="10.8665183"><ele>132.0</ele><time>2026-04-25T09:55:57.343Z</time></trkpt><trkpt lat="45.512885" lon="10.8667533"><ele>132.0</ele><time>2026-04-25T09:55:58.341Z</time></trkpt><trkpt lat="45.5128217" lon="10.8669683"><ele>132.0</ele><time>2026-04-25T09:55:59.341Z</time></trkpt><trkpt lat="45.5127483" lon="10.867185"><ele>132.0</ele><time>2026-04-25T09:56:00.344Z</time></trkpt><trkpt lat="45.5126967" lon="10.86742"><ele>132.0</ele><time>2026-04-25T09:56:01.345Z</time></trkpt><trkpt lat="45.512605" lon="10.8676517"><ele>132.0</ele><time>2026-04-25T09:56:02.359Z</time></trkpt><trkpt lat="45.5125433" lon="10.8678667"><ele>132.33333333333334</ele><time>2026-04-25T09:56:03.351Z</time></trkpt><trkpt lat="45.5124867" lon="10.8680733"><ele>132.66666666666669</ele><time>2026-04-25T09:56:04.358Z</time></trkpt><trkpt lat="45.5124283" lon="10.8682883"><ele>133.0</ele><time>2026-04-25T09:56:05.352Z</time></trkpt><trkpt lat="45.5123667" lon="10.868505"><ele>133.0</ele><time>2026-04-25T09:56:06.353Z</time></trkpt><trkpt lat="45.5123033" lon="10.86871"><ele>133.0</ele><time>2026-04-25T09:56:07.344Z</time></trkpt><trkpt lat="45.51225" lon="10.8688867"><ele>133.0</ele><time>2026-04-25T09:56:08.36Z</time></trkpt><trkpt lat="45.512205" lon="10.869025"><ele>133.0</ele><time>2026-04-25T09:56:09.35Z</time></trkpt><trkpt lat="45.51218" lon="10.8691333"><ele>133.0</ele><time>2026-04-25T09:56:10.35Z</time></trkpt><trkpt lat="45.51216" lon="10.869225"><ele>133.0</ele><time>2026-04-25T09:56:11.347Z</time></trkpt><trkpt lat="45.5121283" lon="10.8693333"><ele>133.0</ele><time>2026-04-25T09:56:13.341Z</time></trkpt><trkpt lat="45.51207" lon="10.86943"><ele>133.0</ele><time>2026-04-25T09:56:16.343Z</time></trkpt><trkpt lat="45.5120083" lon="10.8695567"><ele>133.0</ele><time>2026-04-25T09:56:18.34Z</time></trkpt><trkpt lat="45.5119633" lon="10.8696633"><ele>133.0</ele><time>2026-04-25T09:56:19.349Z</time></trkpt><trkpt lat="45.5119133" lon="10.86979"><ele>132.75</ele><time>2026-04-25T09:56:20.345Z</time></trkpt><trkpt lat="45.51185" lon="10.86997"><ele>132.5</ele><time>2026-04-25T09:56:21.345Z</time></trkpt><trkpt lat="45.5117917" lon="10.8701683"><ele>132.25</ele><time>2026-04-25T09:56:22.357Z</time></trkpt><trkpt lat="45.5117283" lon="10.8703483"><ele>132.0</ele><time>2026-04-25T09:56:23.353Z</time></trkpt><trkpt lat="45.51168" lon="10.8705317"><ele>132.0</ele><time>2026-04-25T09:56:24.37Z</time></trkpt><trkpt lat="45.5116267" lon="10.8707233"><ele>132.0</ele><time>2026-04-25T09:56:25.354Z</time></trkpt><trkpt lat="45.51159" lon="10.87095"><ele>132.0</ele><time>2026-04-25T09:56:26.358Z</time></trkpt><trkpt lat="45.511545" lon="10.8711667"><ele>132.33333333333334</ele><time>2026-04-25T09:56:27.355Z</time></trkpt><trkpt lat="45.5114967" lon="10.87139"><ele>132.66666666666669</ele><time>2026-04-25T09:56:28.353Z</time></trkpt><trkpt lat="45.511435" lon="10.8716183"><ele>133.0</ele><time>2026-04-25T09:56:29.365Z</time></trkpt><trkpt lat="45.5113917" lon="10.87181"><ele>133.0</ele><time>2026-04-25T09:56:30.377Z</time></trkpt><trkpt lat="45.51136" lon="10.8719833"><ele>133.0</ele><time>2026-04-25T09:56:31.346Z</time></trkpt><trkpt lat="45.5113367" lon="10.8721033"><ele>133.0</ele><time>2026-04-25T09:56:32.351Z</time></trkpt><trkpt lat="45.5113033" lon="10.8721933"><ele>133.0</ele><time>2026-04-25T09:56:33.349Z</time></trkpt><trkpt lat="45.511245" lon="10.8723117"><ele>133.0</ele><time>2026-04-25T09:56:35.341Z</time></trkpt><trkpt lat="45.5112883" lon="10.8724233"><ele>133.0</ele><time>2026-04-25T09:56:38.347Z</time></trkpt><trkpt lat="45.5113467" lon="10.8724683"><ele>133.0</ele><time>2026-04-25T09:56:39.344Z</time></trkpt><trkpt lat="45.5114267" lon="10.8725133"><ele>133.0</ele><time>2026-04-25T09:56:40.352Z</time></trkpt><trkpt lat="45.5115267" lon="10.8725667"><ele>133.0</ele><time>2026-04-25T09:56:41.355Z</time></trkpt><trkpt lat="45.511665" lon="10.87263"><ele>133.0</ele><time>2026-04-25T09:56:42.346Z</time></trkpt><trkpt lat="45.5118083" lon="10.8727067"><ele>133.0</ele><time>2026-04-25T09:56:43.347Z</time></trkpt><trkpt lat="45.5119633" lon="10.87277"><ele>133.0</ele><time>2026-04-25T09:56:44.355Z</time></trkpt><trkpt lat="45.5121383" lon="10.8728467"><ele>133.0</ele><time>2026-04-25T09:56:45.364Z</time></trkpt><trkpt lat="45.5123217" lon="10.872945"><ele>133.0</ele><time>2026-04-25T09:56:46.363Z</time></trkpt><trkpt lat="45.51251" lon="10.873065"><ele>133.0</ele><time>2026-04-25T09:56:47.358Z</time></trkpt><trkpt lat="45.5126917" lon="10.8731683"><ele>133.0</ele><time>2026-04-25T09:56:48.345Z</time></trkpt><trkpt lat="45.5128733" lon="10.87327"><ele>133.0</ele><time>2026-04-25T09:56:49.358Z</time></trkpt><trkpt lat="45.5130217" lon="10.8733817"><ele>133.0</ele><time>2026-04-25T09:56:50.348Z</time></trkpt><trkpt lat="45.51316" lon="10.87346"><ele>133.0</ele><time>2026-04-25T09:56:51.348Z</time></trkpt><trkpt lat="45.513295" lon="10.8735367"><ele>133.0</ele><time>2026-04-25T09:56:52.343Z</time></trkpt><trkpt lat="45.51341" lon="10.8736483"><ele>133.0</ele><time>2026-04-25T09:56:53.351Z</time></trkpt><trkpt lat="45.51354" lon="10.8737683"><ele>133.0</ele><time>2026-04-25T09:56:54.35Z</time></trkpt><trkpt lat="45.5136517" lon="10.8739233"><ele>133.66666666666669</ele><time>2026-04-25T09:56:55.346Z</time></trkpt><trkpt lat="45.5137833" lon="10.8740683"><ele>134.33333333333334</ele><time>2026-04-25T09:56:56.353Z</time></trkpt><trkpt lat="45.5139033" lon="10.8742183"><ele>135.0</ele><time>2026-04-25T09:56:57.351Z</time></trkpt><trkpt lat="45.51403" lon="10.87436"><ele>135.75</ele><time>2026-04-25T09:56:58.349Z</time></trkpt><trkpt lat="45.5141433" lon="10.8744467"><ele>136.5</ele><time>2026-04-25T09:56:59.353Z</time></trkpt><trkpt lat="45.514265" lon="10.87452"><ele>137.25</ele><time>2026-04-25T09:57:00.344Z</time></trkpt><trkpt lat="45.5144183" lon="10.8745617"><ele>138.0</ele><time>2026-04-25T09:57:01.352Z</time></trkpt><trkpt lat="45.5145583" lon="10.8746167"><ele>138.0</ele><time>2026-04-25T09:57:02.349Z</time></trkpt><trkpt lat="45.5146883" lon="10.874695"><ele>138.0</ele><time>2026-04-25T09:57:03.356Z</time></trkpt><trkpt lat="45.514815" lon="10.874775"><ele>138.0</ele><time>2026-04-25T09:57:04.348Z</time></trkpt><trkpt lat="45.51492" lon="10.8748783"><ele>138.0</ele><time>2026-04-25T09:57:05.356Z</time></trkpt><trkpt lat="45.5150467" lon="10.8750017"><ele>137.5</ele><time>2026-04-25T09:57:06.346Z</time></trkpt><trkpt lat="45.515165" lon="10.8751667"><ele>137.0</ele><time>2026-04-25T09:57:07.347Z</time></trkpt><trkpt lat="45.5152783" lon="10.8752933"><ele>136.5</ele><time>2026-04-25T09:57:08.355Z</time></trkpt><trkpt lat="45.5153783" lon="10.8754067"><ele>136.0</ele><time>2026-04-25T09:57:09.343Z</time></trkpt><trkpt lat="45.5154483" lon="10.8754983"><ele>136.0</ele><time>2026-04-25T09:57:10.349Z</time></trkpt><trkpt lat="45.51551" lon="10.8755417"><ele>136.0</ele><time>2026-04-25T09:57:11.365Z</time></trkpt><trkpt lat="45.5155883" lon="10.875475"><ele>136.0</ele><time>2026-04-25T09:57:13.341Z</time></trkpt><trkpt lat="45.5156267" lon="10.8754017"><ele>136.0</ele><time>2026-04-25T09:57:14.354Z</time></trkpt><trkpt lat="45.5156833" lon="10.8753167"><ele>136.0</ele><time>2026-04-25T09:57:15.349Z</time></trkpt><trkpt lat="45.51577" lon="10.8752217"><ele>136.0</ele><time>2026-04-25T09:57:16.346Z</time></trkpt><trkpt lat="45.5158583" lon="10.8750917"><ele>136.0</ele><time>2026-04-25T09:57:17.365Z</time></trkpt><trkpt lat="45.51597" lon="10.8749683"><ele>136.0</ele><time>2026-04-25T09:57:18.363Z</time></trkpt><trkpt lat="45.5160783" lon="10.8748683"><ele>136.0</ele><time>2026-04-25T09:57:19.351Z</time></trkpt><trkpt lat="45.5161867" lon="10.8747767"><ele>136.0</ele><time>2026-04-25T09:57:20.351Z</time></trkpt><trkpt lat="45.5162767" lon="10.8746733"><ele>136.0</ele><time>2026-04-25T09:57:21.346Z</time></trkpt><trkpt lat="45.5163783" lon="10.8745667"><ele>136.0</ele><time>2026-04-25T09:57:22.345Z</time></trkpt><trkpt lat="45.5164767" lon="10.8744783"><ele>136.0</ele><time>2026-04-25T09:57:23.348Z</time></trkpt><trkpt lat="45.5165617" lon="10.87439"><ele>136.0</ele><time>2026-04-25T09:57:24.343Z</time></trkpt><trkpt lat="45.516645" lon="10.8743083"><ele>136.0</ele><time>2026-04-25T09:57:25.352Z</time></trkpt><trkpt lat="45.5167667" lon="10.874195"><ele>136.0</ele><time>2026-04-25T09:57:27.351Z</time></trkpt><trkpt lat="45.5168233" lon="10.8741433"><ele>136.0</ele><time>2026-04-25T09:57:28.352Z</time></trkpt><trkpt lat="45.516905" lon="10.8740617"><ele>136.0</ele><time>2026-04-25T09:57:30.35Z</time></trkpt><trkpt lat="45.516845" lon="10.8740933"><ele>136.0</ele><time>2026-04-25T09:57:35.355Z</time></trkpt><trkpt lat="45.5167717" lon="10.8741867"><ele>136.0</ele><time>2026-04-25T09:57:36.348Z</time></trkpt><trkpt lat="45.516685" lon="10.8742667"><ele>136.0</ele><time>2026-04-25T09:57:37.343Z</time></trkpt><trkpt lat="45.5165967" lon="10.8743517"><ele>136.0</ele><time>2026-04-25T09:57:38.344Z</time></trkpt><trkpt lat="45.5164933" lon="10.874455"><ele>136.0</ele><time>2026-04-25T09:57:39.342Z</time></trkpt><trkpt lat="45.5164017" lon="10.8745617"><ele>136.0</ele><time>2026-04-25T09:57:40.35Z</time></trkpt><trkpt lat="45.5162917" lon="10.8746633"><ele>136.0</ele><time>2026-04-25T09:57:41.345Z</time></trkpt><trkpt lat="45.5162017" lon="10.8747433"><ele>136.33333333333334</ele><time>2026-04-25T09:57:42.347Z</time></trkpt><trkpt lat="45.5161467" lon="10.874805"><ele>136.66666666666669</ele><time>2026-04-25T09:57:43.347Z</time></trkpt><trkpt lat="45.5160817" lon="10.8747967"><ele>137.0</ele><time>2026-04-25T09:57:45.338Z</time></trkpt><trkpt lat="45.51602" lon="10.8746833"><ele>137.33333333333334</ele><time>2026-04-25T09:57:47.341Z</time></trkpt><trkpt lat="45.5159933" lon="10.87457"><ele>137.66666666666666</ele><time>2026-04-25T09:57:48.342Z</time></trkpt><trkpt lat="45.51597" lon="10.8744383"><ele>138.0</ele><time>2026-04-25T09:57:49.347Z</time></trkpt><trkpt lat="45.515935" lon="10.87428"><ele>137.83333333333334</ele><time>2026-04-25T09:57:50.348Z</time></trkpt><trkpt lat="45.5159117" lon="10.8741683"><ele>137.66666666666666</ele><time>2026-04-25T09:57:51.345Z</time></trkpt><trkpt lat="45.5158967" lon="10.8740467"><ele>137.5</ele><time>2026-04-25T09:57:52.352Z</time></trkpt><trkpt lat="45.515905" lon="10.8739233"><ele>137.33333333333331</ele><time>2026-04-25T09:57:53.351Z</time></trkpt><trkpt lat="45.5159283" lon="10.8738083"><ele>137.16666666666666</ele><time>2026-04-25T09:57:54.34Z</time></trkpt><trkpt lat="45.51597" lon="10.8737117"><ele>137.0</ele><time>2026-04-25T09:57:55.349Z</time></trkpt><trkpt lat="45.5160217" lon="10.873625"><ele>137.0</ele><time>2026-04-25T09:57:56.349Z</time></trkpt><trkpt lat="45.5160867" lon="10.8735467"><ele>137.0</ele><time>2026-04-25T09:57:57.347Z</time></trkpt><trkpt lat="45.5161617" lon="10.87347"><ele>137.0</ele><time>2026-04-25T09:57:58.337Z</time></trkpt><trkpt lat="45.5162383" lon="10.873375"><ele>137.0</ele><time>2026-04-25T09:57:59.346Z</time></trkpt><trkpt lat="45.5163117" lon="10.8732817"><ele>137.0</ele><time>2026-04-25T09:58:00.345Z</time></trkpt><trkpt lat="45.51639" lon="10.8731933"><ele>137.0</ele><time>2026-04-25T09:58:01.347Z</time></trkpt><trkpt lat="45.5164683" lon="10.8731"><ele>137.0</ele><time>2026-04-25T09:58:02.345Z</time></trkpt><trkpt lat="45.5165367" lon="10.8730083"><ele>137.0</ele><time>2026-04-25T09:58:03.348Z</time></trkpt><trkpt lat="45.5165933" lon="10.872925"><ele>137.0</ele><time>2026-04-25T09:58:04.341Z</time></trkpt><trkpt lat="45.5166567" lon="10.8728567"><ele>137.0</ele><time>2026-04-25T09:58:06.352Z</time></trkpt><trkpt lat="45.516665" lon="10.8727233"><ele>136.79999999999998</ele><time>2026-04-25T09:58:09.365Z</time></trkpt><trkpt lat="45.5166067" lon="10.8725683"><ele>136.6</ele><time>2026-04-25T09:58:11.351Z</time></trkpt><trkpt lat="45.5165617" lon="10.87246"><ele>136.39999999999998</ele><time>2026-04-25T09:58:12.351Z</time></trkpt><trkpt lat="45.516505" lon="10.872345"><ele>136.2</ele><time>2026-04-25T09:58:13.352Z</time></trkpt><trkpt lat="45.5164267" lon="10.87223"><ele>136.0</ele><time>2026-04-25T09:58:14.352Z</time></trkpt><trkpt lat="45.5163583" lon="10.8720733"><ele>136.0</ele><time>2026-04-25T09:58:15.379Z</time></trkpt><trkpt lat="45.5163017" lon="10.8719483"><ele>136.0</ele><time>2026-04-25T09:58:16.348Z</time></trkpt><trkpt lat="45.5162733" lon="10.87183"><ele>136.0</ele><time>2026-04-25T09:58:17.341Z</time></trkpt><trkpt lat="45.5162383" lon="10.8717533"><ele>136.0</ele><time>2026-04-25T09:58:18.345Z</time></trkpt><trkpt lat="45.51618" lon="10.8716"><ele>136.0</ele><time>2026-04-25T09:58:20.337Z</time></trkpt><trkpt lat="45.5161933" lon="10.871445"><ele>136.0</ele><time>2026-04-25T09:58:22.344Z</time></trkpt><trkpt lat="45.5162333" lon="10.8713733"><ele>136.0</ele><time>2026-04-25T09:58:23.336Z</time></trkpt><trkpt lat="45.5162967" lon="10.871305"><ele>136.0</ele><time>2026-04-25T09:58:24.338Z</time></trkpt><trkpt lat="45.5163867" lon="10.8712267"><ele>136.0</ele><time>2026-04-25T09:58:25.346Z</time></trkpt><trkpt lat="45.5165067" lon="10.87115"><ele>136.0</ele><time>2026-04-25T09:58:26.346Z</time></trkpt><trkpt lat="45.516625" lon="10.8710783"><ele>136.0</ele><time>2026-04-25T09:58:27.361Z</time></trkpt><trkpt lat="45.5167533" lon="10.8709683"><ele>136.0</ele><time>2026-04-25T09:58:28.351Z</time></trkpt><trkpt lat="45.516885" lon="10.8708683"><ele>136.0</ele><time>2026-04-25T09:58:29.361Z</time></trkpt><trkpt lat="45.5170117" lon="10.870765"><ele>136.0</ele><time>2026-04-25T09:58:30.345Z</time></trkpt><trkpt lat="45.51713" lon="10.87066"><ele>135.75</ele><time>2026-04-25T09:58:31.346Z</time></trkpt><trkpt lat="45.517255" lon="10.8705683"><ele>135.5</ele><time>2026-04-25T09:58:32.341Z</time></trkpt><trkpt lat="45.5173683" lon="10.8704767"><ele>135.25</ele><time>2026-04-25T09:58:33.355Z</time></trkpt><trkpt lat="45.5174833" lon="10.870385"><ele>135.0</ele><time>2026-04-25T09:58:34.343Z</time></trkpt><trkpt lat="45.517575" lon="10.8703167"><ele>135.0</ele><time>2026-04-25T09:58:35.36Z</time></trkpt><trkpt lat="45.5176533" lon="10.8702367"><ele>135.0</ele><time>2026-04-25T09:58:36.339Z</time></trkpt><trkpt lat="45.517725" lon="10.870175"><ele>135.0</ele><time>2026-04-25T09:58:37.357Z</time></trkpt><trkpt lat="45.517815" lon="10.8701183"><ele>135.0</ele><time>2026-04-25T09:58:38.357Z</time></trkpt><trkpt lat="45.5178783" lon="10.870055"><ele>135.0</ele><time>2026-04-25T09:58:39.347Z</time></trkpt><trkpt lat="45.5179617" lon="10.8699983"><ele>135.0</ele><time>2026-04-25T09:58:40.355Z</time></trkpt><trkpt lat="45.51802" lon="10.86996"><ele>135.4</ele><time>2026-04-25T09:58:41.354Z</time></trkpt><trkpt lat="45.5180867" lon="10.8698817"><ele>135.8</ele><time>2026-04-25T09:58:50.345Z</time></trkpt><trkpt lat="45.5181733" lon="10.8697783"><ele>136.2</ele><time>2026-04-25T09:58:52.347Z</time></trkpt><trkpt lat="45.518245" lon="10.8697233"><ele>136.6</ele><time>2026-04-25T09:58:54.359Z</time></trkpt><trkpt lat="45.5183267" lon="10.8697067"><ele>137.0</ele><time>2026-04-25T09:58:56.356Z</time></trkpt><trkpt lat="45.5184467" lon="10.8697567"><ele>137.0</ele><time>2026-04-25T09:58:58.342Z</time></trkpt><trkpt lat="45.5185267" lon="10.8698117"><ele>137.0</ele><time>2026-04-25T09:58:59.343Z</time></trkpt><trkpt lat="45.5186317" lon="10.8698767"><ele>137.0</ele><time>2026-04-25T09:59:00.35Z</time></trkpt><trkpt lat="45.5187283" lon="10.8699267"><ele>137.0</ele><time>2026-04-25T09:59:01.344Z</time></trkpt><trkpt lat="45.5188033" lon="10.8699733"><ele>137.0</ele><time>2026-04-25T09:59:02.337Z</time></trkpt><trkpt lat="45.518875" lon="10.87002"><ele>137.0</ele><time>2026-04-25T09:59:03.343Z</time></trkpt><trkpt lat="45.51894" lon="10.8700733"><ele>137.0</ele><time>2026-04-25T09:59:04.343Z</time></trkpt><trkpt lat="45.519015" lon="10.87013"><ele>137.0</ele><time>2026-04-25T09:59:05.341Z</time></trkpt><trkpt lat="45.5190983" lon="10.8701917"><ele>137.0</ele><time>2026-04-25T09:59:06.345Z</time></trkpt><trkpt lat="45.5191667" lon="10.8702567"><ele>137.0</ele><time>2026-04-25T09:59:07.342Z</time></trkpt><trkpt lat="45.5192667" lon="10.87033"><ele>137.0</ele><time>2026-04-25T09:59:08.338Z</time></trkpt><trkpt lat="45.5193683" lon="10.8703983"><ele>137.0</ele><time>2026-04-25T09:59:09.339Z</time></trkpt><trkpt lat="45.5194667" lon="10.8704767"><ele>137.0</ele><time>2026-04-25T09:59:10.34Z</time></trkpt><trkpt lat="45.5195667" lon="10.8705333"><ele>137.0</ele><time>2026-04-25T09:59:11.337Z</time></trkpt><trkpt lat="45.5196467" lon="10.87058"><ele>137.0</ele><time>2026-04-25T09:59:12.345Z</time></trkpt><trkpt lat="45.51975" lon="10.87061"><ele>137.0</ele><time>2026-04-25T09:59:13.342Z</time></trkpt><trkpt lat="45.519865" lon="10.8706667"><ele>137.5</ele><time>2026-04-25T09:59:14.336Z</time></trkpt><trkpt lat="45.51999" lon="10.8706767"><ele>138.0</ele><time>2026-04-25T09:59:15.338Z</time></trkpt><trkpt lat="45.5201117" lon="10.8707167"><ele>138.5</ele><time>2026-04-25T09:59:16.343Z</time></trkpt><trkpt lat="45.52023" lon="10.8707533"><ele>139.0</ele><time>2026-04-25T09:59:17.339Z</time></trkpt><trkpt lat="45.5203433" lon="10.8707717"><ele>139.25</ele><time>2026-04-25T09:59:18.348Z</time></trkpt><trkpt lat="45.5204517" lon="10.8708083"><ele>139.5</ele><time>2026-04-25T09:59:19.352Z</time></trkpt><trkpt lat="45.52057" lon="10.8708633"><ele>139.75</ele><time>2026-04-25T09:59:20.344Z</time></trkpt><trkpt lat="45.5207167" lon="10.8709"><ele>140.0</ele><time>2026-04-25T09:59:21.34Z</time></trkpt><trkpt lat="45.5208467" lon="10.87095"><ele>140.25</ele><time>2026-04-25T09:59:22.354Z</time></trkpt><trkpt lat="45.5209817" lon="10.8710183"><ele>140.5</ele><time>2026-04-25T09:59:23.345Z</time></trkpt><trkpt lat="45.52112" lon="10.8711"><ele>140.75</ele><time>2026-04-25T09:59:24.341Z</time></trkpt><trkpt lat="45.5212567" lon="10.8711883"><ele>141.0</ele><time>2026-04-25T09:59:25.343Z</time></trkpt><trkpt lat="45.521385" lon="10.871275"><ele>141.25</ele><time>2026-04-25T09:59:26.339Z</time></trkpt><trkpt lat="45.5214883" lon="10.8713617"><ele>141.5</ele><time>2026-04-25T09:59:27.339Z</time></trkpt><trkpt lat="45.5216117" lon="10.8714333"><ele>141.75</ele><time>2026-04-25T09:59:28.339Z</time></trkpt><trkpt lat="45.52175" lon="10.8715067"><ele>142.0</ele><time>2026-04-25T09:59:29.345Z</time></trkpt><trkpt lat="45.5218883" lon="10.8715317"><ele>142.0</ele><time>2026-04-25T09:59:30.338Z</time></trkpt><trkpt lat="45.522035" lon="10.8715933"><ele>142.0</ele><time>2026-04-25T09:59:31.35Z</time></trkpt><trkpt lat="45.5221717" lon="10.8716417"><ele>142.0</ele><time>2026-04-25T09:59:32.349Z</time></trkpt><trkpt lat="45.5223233" lon="10.8717133"><ele>142.0</ele><time>2026-04-25T09:59:33.34Z</time></trkpt><trkpt lat="45.522495" lon="10.8717617"><ele>142.0</ele><time>2026-04-25T09:59:34.359Z</time></trkpt><trkpt lat="45.522685" lon="10.8717783"><ele>142.0</ele><time>2026-04-25T09:59:35.359Z</time></trkpt><trkpt lat="45.5228567" lon="10.8717933"><ele>142.25</ele><time>2026-04-25T09:59:36.343Z</time></trkpt><trkpt lat="45.52303" lon="10.8718183"><ele>142.5</ele><time>2026-04-25T09:59:37.361Z</time></trkpt><trkpt lat="45.5231667" lon="10.8718517"><ele>142.75</ele><time>2026-04-25T09:59:38.357Z</time></trkpt><trkpt lat="45.5232917" lon="10.8718617"><ele>143.0</ele><time>2026-04-25T09:59:39.355Z</time></trkpt><trkpt lat="45.5234083" lon="10.8719083"><ele>143.0</ele><time>2026-04-25T09:59:40.362Z</time></trkpt><trkpt lat="45.523495" lon="10.8719417"><ele>143.0</ele><time>2026-04-25T09:59:41.348Z</time></trkpt><trkpt lat="45.5235717" lon="10.8719833"><ele>143.0</ele><time>2026-04-25T09:59:42.374Z</time></trkpt><trkpt lat="45.5236317" lon="10.8720267"><ele>143.0</ele><time>2026-04-25T09:59:43.362Z</time></trkpt><trkpt lat="45.52369" lon="10.8721117"><ele>143.0</ele><time>2026-04-25T09:59:46.345Z</time></trkpt><trkpt lat="45.5237567" lon="10.87217"><ele>143.0</ele><time>2026-04-25T09:59:48.362Z</time></trkpt><trkpt lat="45.52389" lon="10.8720683"><ele>144.6</ele><time>2026-04-25T09:59:50.345Z</time></trkpt><trkpt lat="45.5239567" lon="10.8719883"><ele>146.20000000000002</ele><time>2026-04-25T09:59:51.344Z</time></trkpt><trkpt lat="45.5240333" lon="10.871925"><ele>147.8</ele><time>2026-04-25T09:59:52.359Z</time></trkpt><trkpt lat="45.5241217" lon="10.8718817"><ele>149.4</ele><time>2026-04-25T09:59:53.347Z</time></trkpt><trkpt lat="45.524225" lon="10.871835"><ele>151.0</ele><time>2026-04-25T09:59:54.337Z</time></trkpt><trkpt lat="45.5243317" lon="10.871785"><ele>150.83333333333334</ele><time>2026-04-25T09:59:55.351Z</time></trkpt><trkpt lat="45.5244217" lon="10.8717367"><ele>150.66666666666669</ele><time>2026-04-25T09:59:56.349Z</time></trkpt><trkpt lat="45.5245083" lon="10.8716867"><ele>150.5</ele><time>2026-04-25T09:59:57.354Z</time></trkpt><trkpt lat="45.52459" lon="10.8716383"><ele>150.33333333333334</ele><time>2026-04-25T09:59:58.348Z</time></trkpt><trkpt lat="45.5246583" lon="10.871575"><ele>150.16666666666666</ele><time>2026-04-25T09:59:59.351Z</time></trkpt><trkpt lat="45.52472" lon="10.8715383"><ele>150.0</ele><time>2026-04-25T10:00:00.342Z</time></trkpt><trkpt lat="45.5247817" lon="10.8714967"><ele>150.6</ele><time>2026-04-25T10:00:01.35Z</time></trkpt><trkpt lat="45.5248517" lon="10.871475"><ele>151.2</ele><time>2026-04-25T10:00:02.337Z</time></trkpt><trkpt lat="45.52495" lon="10.8714967"><ele>151.8</ele><time>2026-04-25T10:00:03.334Z</time></trkpt><trkpt lat="45.5250417" lon="10.8715033"><ele>152.4</ele><time>2026-04-25T10:00:04.339Z</time></trkpt><trkpt lat="45.52515" lon="10.87151"><ele>153.0</ele><time>2026-04-25T10:00:05.336Z</time></trkpt><trkpt lat="45.5252467" lon="10.8715133"><ele>153.0</ele><time>2026-04-25T10:00:06.345Z</time></trkpt><trkpt lat="45.5253367" lon="10.871515"><ele>153.0</ele><time>2026-04-25T10:00:07.341Z</time></trkpt><trkpt lat="45.5254267" lon="10.8715183"><ele>153.0</ele><time>2026-04-25T10:00:08.347Z</time></trkpt><trkpt lat="45.5255033" lon="10.87154"><ele>153.0</ele><time>2026-04-25T10:00:09.338Z</time></trkpt><trkpt lat="45.5255833" lon="10.8715183"><ele>153.0</ele><time>2026-04-25T10:00:10.352Z</time></trkpt><trkpt lat="45.5256633" lon="10.871505"><ele>153.0</ele><time>2026-04-25T10:00:11.346Z</time></trkpt><trkpt lat="45.5257267" lon="10.8714867"><ele>153.0</ele><time>2026-04-25T10:00:13.357Z</time></trkpt><trkpt lat="45.5256633" lon="10.8714483"><ele>153.0</ele><time>2026-04-25T10:00:20.352Z</time></trkpt><trkpt lat="45.525595" lon="10.871475"><ele>153.0</ele><time>2026-04-25T10:00:21.354Z</time></trkpt><trkpt lat="45.5255133" lon="10.87149"><ele>153.0</ele><time>2026-04-25T10:00:22.345Z</time></trkpt><trkpt lat="45.5254117" lon="10.8715017"><ele>153.0</ele><time>2026-04-25T10:00:23.349Z</time></trkpt><trkpt lat="45.525295" lon="10.8714933"><ele>153.0</ele><time>2026-04-25T10:00:24.347Z</time></trkpt><trkpt lat="45.52516" lon="10.871475"><ele>153.0</ele><time>2026-04-25T10:00:25.344Z</time></trkpt><trkpt lat="45.5250333" lon="10.8714817"><ele>153.0</ele><time>2026-04-25T10:00:26.346Z</time></trkpt><trkpt lat="45.5249283" lon="10.8715133"><ele>153.0</ele><time>2026-04-25T10:00:27.344Z</time></trkpt><trkpt lat="45.5248533" lon="10.87152"><ele>153.0</ele><time>2026-04-25T10:00:28.352Z</time></trkpt><trkpt lat="45.524785" lon="10.871515"><ele>153.0</ele><time>2026-04-25T10:00:29.355Z</time></trkpt><trkpt lat="45.5246967" lon="10.8714733"><ele>153.0</ele><time>2026-04-25T10:00:31.355Z</time></trkpt><trkpt lat="45.5246967" lon="10.8713433"><ele>153.0</ele><time>2026-04-25T10:00:33.353Z</time></trkpt><trkpt lat="45.5247567" lon="10.87115"><ele>153.0</ele><time>2026-04-25T10:00:35.355Z</time></trkpt><trkpt lat="45.5248017" lon="10.8710367"><ele>153.0</ele><time>2026-04-25T10:00:36.35Z</time></trkpt><trkpt lat="45.5248417" lon="10.8709117"><ele>153.0</ele><time>2026-04-25T10:00:37.358Z</time></trkpt><trkpt lat="45.52488" lon="10.8707917"><ele>152.83333333333334</ele><time>2026-04-25T10:00:38.354Z</time></trkpt><trkpt lat="45.5249183" lon="10.8706817"><ele>152.66666666666666</ele><time>2026-04-25T10:00:39.344Z</time></trkpt><trkpt lat="45.5249533" lon="10.870585"><ele>152.5</ele><time>2026-04-25T10:00:40.353Z</time></trkpt><trkpt lat="45.524985" lon="10.8704967"><ele>152.33333333333331</ele><time>2026-04-25T10:00:41.353Z</time></trkpt><trkpt lat="45.5250183" lon="10.8704083"><ele>152.16666666666666</ele><time>2026-04-25T10:00:42.347Z</time></trkpt><trkpt lat="45.5250467" lon="10.8703017"><ele>152.0</ele><time>2026-04-25T10:00:43.35Z</time></trkpt><trkpt lat="45.5250767" lon="10.870195"><ele>152.0</ele><time>2026-04-25T10:00:44.347Z</time></trkpt><trkpt lat="45.525105" lon="10.870085"><ele>152.0</ele><time>2026-04-25T10:00:45.356Z</time></trkpt><trkpt lat="45.5251333" lon="10.8699867"><ele>152.0</ele><time>2026-04-25T10:00:46.357Z</time></trkpt><trkpt lat="45.5251683" lon="10.8698867"><ele>152.0</ele><time>2026-04-25T10:00:48.355Z</time></trkpt><trkpt lat="45.5252267" lon="10.8699667"><ele>152.0</ele><time>2026-04-25T10:01:02.337Z</time></trkpt><trkpt lat="45.5251833" lon="10.8701283"><ele>152.0</ele><time>2026-04-25T10:01:04.345Z</time></trkpt><trkpt lat="45.52515" lon="10.870225"><ele>152.0</ele><time>2026-04-25T10:01:05.348Z</time></trkpt><trkpt lat="45.52509" lon="10.870335"><ele>152.0</ele><time>2026-04-25T10:01:06.374Z</time></trkpt><trkpt lat="45.5250217" lon="10.87046"><ele>152.0</ele><time>2026-04-25T10:01:07.357Z</time></trkpt><trkpt lat="45.52494" lon="10.8706167"><ele>152.0</ele><time>2026-04-25T10:01:08.354Z</time></trkpt><trkpt lat="45.5248933" lon="10.8707533"><ele>152.0</ele><time>2026-04-25T10:01:09.351Z</time></trkpt><trkpt lat="45.52485" lon="10.87089"><ele>152.0</ele><time>2026-04-25T10:01:10.348Z</time></trkpt><trkpt lat="45.5248217" lon="10.870995"><ele>152.0</ele><time>2026-04-25T10:01:11.347Z</time></trkpt><trkpt lat="45.5247917" lon="10.871085"><ele>152.0</ele><time>2026-04-25T10:01:12.346Z</time></trkpt><trkpt lat="45.5247617" lon="10.8711683"><ele>152.0</ele><time>2026-04-25T10:01:13.345Z</time></trkpt><trkpt lat="45.5247283" lon="10.8712533"><ele>152.0</ele><time>2026-04-25T10:01:14.359Z</time></trkpt><trkpt lat="45.524695" lon="10.87134"><ele>152.16666666666666</ele><time>2026-04-25T10:01:15.344Z</time></trkpt><trkpt lat="45.5246617" lon="10.8714233"><ele>152.33333333333331</ele><time>2026-04-25T10:01:16.338Z</time></trkpt><trkpt lat="45.52464" lon="10.8715083"><ele>152.5</ele><time>2026-04-25T10:01:17.342Z</time></trkpt><trkpt lat="45.524635" lon="10.87169"><ele>152.66666666666666</ele><time>2026-04-25T10:01:19.337Z</time></trkpt><trkpt lat="45.5246717" lon="10.8717967"><ele>152.83333333333334</ele><time>2026-04-25T10:01:20.334Z</time></trkpt><trkpt lat="45.5247367" lon="10.8718967"><ele>153.0</ele><time>2026-04-25T10:01:21.339Z</time></trkpt><trkpt lat="45.524815" lon="10.8719917"><ele>154.0</ele><time>2026-04-25T10:01:22.334Z</time></trkpt><trkpt lat="45.5249" lon="10.8720783"><ele>155.0</ele><time>2026-04-25T10:01:23.335Z</time></trkpt><trkpt lat="45.5249817" lon="10.872175"><ele>156.0</ele><time>2026-04-25T10:01:24.341Z</time></trkpt><trkpt lat="45.52505" lon="10.8722683"><ele>157.0</ele><time>2026-04-25T10:01:25.335Z</time></trkpt><trkpt lat="45.5251067" lon="10.8723583"><ele>158.0</ele><time>2026-04-25T10:01:26.34Z</time></trkpt><trkpt lat="45.5251667" lon="10.8724267"><ele>158.0</ele><time>2026-04-25T10:01:27.343Z</time></trkpt><trkpt lat="45.5252633" lon="10.8725183"><ele>158.0</ele><time>2026-04-25T10:01:29.335Z</time></trkpt><trkpt lat="45.5253717" lon="10.872585"><ele>158.0</ele><time>2026-04-25T10:01:31.345Z</time></trkpt><trkpt lat="45.525435" lon="10.8726083"><ele>158.0</ele><time>2026-04-25T10:01:32.341Z</time></trkpt><trkpt lat="45.5255117" lon="10.8726267"><ele>158.0</ele><time>2026-04-25T10:01:33.34Z</time></trkpt><trkpt lat="45.525585" lon="10.8726483"><ele>158.4</ele><time>2026-04-25T10:01:34.348Z</time></trkpt><trkpt lat="45.525665" lon="10.8726667"><ele>158.8</ele><time>2026-04-25T10:01:35.349Z</time></trkpt><trkpt lat="45.5257517" lon="10.8726833"><ele>159.2</ele><time>2026-04-25T10:01:36.343Z</time></trkpt><trkpt lat="45.5258567" lon="10.8727"><ele>159.6</ele><time>2026-04-25T10:01:37.356Z</time></trkpt><trkpt lat="45.52596" lon="10.8726933"><ele>160.0</ele><time>2026-04-25T10:01:38.34Z</time></trkpt><trkpt lat="45.5260917" lon="10.8725983"><ele>160.0</ele><time>2026-04-25T10:01:39.345Z</time></trkpt><trkpt lat="45.5261733" lon="10.8726333"><ele>160.0</ele><time>2026-04-25T10:01:40.346Z</time></trkpt><trkpt lat="45.526265" lon="10.8726133"><ele>160.0</ele><time>2026-04-25T10:01:41.341Z</time></trkpt><trkpt lat="45.5263833" lon="10.872635"><ele>160.0</ele><time>2026-04-25T10:01:42.358Z</time></trkpt><trkpt lat="45.5265083" lon="10.872635"><ele>160.0</ele><time>2026-04-25T10:01:43.356Z</time></trkpt><trkpt lat="45.5266367" lon="10.8726217"><ele>160.6</ele><time>2026-04-25T10:01:44.345Z</time></trkpt><trkpt lat="45.52673" lon="10.872635"><ele>161.2</ele><time>2026-04-25T10:01:45.356Z</time></trkpt><trkpt lat="45.526795" lon="10.8726567"><ele>161.8</ele><time>2026-04-25T10:01:46.348Z</time></trkpt><trkpt lat="45.52692" lon="10.87273"><ele>162.4</ele><time>2026-04-25T10:01:48.344Z</time></trkpt><trkpt lat="45.5269967" lon="10.8727717"><ele>163.0</ele><time>2026-04-25T10:01:49.346Z</time></trkpt><trkpt lat="45.5270833" lon="10.8727983"><ele>163.4</ele><time>2026-04-25T10:01:50.351Z</time></trkpt><trkpt lat="45.52718" lon="10.8728083"><ele>163.8</ele><time>2026-04-25T10:01:51.354Z</time></trkpt><trkpt lat="45.5272783" lon="10.8728317"><ele>164.2</ele><time>2026-04-25T10:01:52.345Z</time></trkpt><trkpt lat="45.5273917" lon="10.8728667"><ele>164.6</ele><time>2026-04-25T10:01:53.346Z</time></trkpt><trkpt lat="45.5274833" lon="10.8728733"><ele>165.0</ele><time>2026-04-25T10:01:54.351Z</time></trkpt><trkpt lat="45.5275467" lon="10.8729067"><ele>165.0</ele><time>2026-04-25T10:01:55.35Z</time></trkpt><trkpt lat="45.527615" lon="10.8729417"><ele>165.0</ele><time>2026-04-25T10:01:56.342Z</time></trkpt><trkpt lat="45.5276917" lon="10.8729933"><ele>165.0</ele><time>2026-04-25T10:01:57.334Z</time></trkpt><trkpt lat="45.5277983" lon="10.8730733"><ele>165.0</ele><time>2026-04-25T10:01:58.341Z</time></trkpt><trkpt lat="45.5279" lon="10.8731633"><ele>165.0</ele><time>2026-04-25T10:01:59.339Z</time></trkpt><trkpt lat="45.527995" lon="10.873265"><ele>165.5</ele><time>2026-04-25T10:02:00.345Z</time></trkpt><trkpt lat="45.5281233" lon="10.8733483"><ele>166.0</ele><time>2026-04-25T10:02:01.337Z</time></trkpt><trkpt lat="45.5282433" lon="10.873425"><ele>166.5</ele><time>2026-04-25T10:02:02.348Z</time></trkpt><trkpt lat="45.5283633" lon="10.8735033"><ele>167.0</ele><time>2026-04-25T10:02:03.348Z</time></trkpt><trkpt lat="45.5284883" lon="10.87359"><ele>166.75</ele><time>2026-04-25T10:02:04.339Z</time></trkpt><trkpt lat="45.5286217" lon="10.8736933"><ele>166.5</ele><time>2026-04-25T10:02:05.36Z</time></trkpt><trkpt lat="45.52874" lon="10.8737933"><ele>166.25</ele><time>2026-04-25T10:02:06.355Z</time></trkpt><trkpt lat="45.52887" lon="10.8738833"><ele>166.0</ele><time>2026-04-25T10:02:07.35Z</time></trkpt><trkpt lat="45.5290033" lon="10.8739567"><ele>166.0</ele><time>2026-04-25T10:02:08.349Z</time></trkpt><trkpt lat="45.529125" lon="10.8740317"><ele>166.0</ele><time>2026-04-25T10:02:09.351Z</time></trkpt><trkpt lat="45.5292217" lon="10.8740967"><ele>166.0</ele><time>2026-04-25T10:02:10.351Z</time></trkpt><trkpt lat="45.5292983" lon="10.874145"><ele>166.0</ele><time>2026-04-25T10:02:11.356Z</time></trkpt><trkpt lat="45.5293583" lon="10.8741817"><ele>166.0</ele><time>2026-04-25T10:02:12.361Z</time></trkpt><trkpt lat="45.5294367" lon="10.8742267"><ele>166.0</ele><time>2026-04-25T10:02:14.345Z</time></trkpt><trkpt lat="45.5295217" lon="10.8742117"><ele>166.0</ele><time>2026-04-25T10:02:24.348Z</time></trkpt><trkpt lat="45.5295817" lon="10.87418"><ele>166.0</ele><time>2026-04-25T10:02:25.364Z</time></trkpt><trkpt lat="45.5296467" lon="10.8741533"><ele>166.0</ele><time>2026-04-25T10:02:26.357Z</time></trkpt><trkpt lat="45.5297567" lon="10.874115"><ele>166.0</ele><time>2026-04-25T10:02:28.349Z</time></trkpt><trkpt lat="45.5298633" lon="10.8741283"><ele>166.0</ele><time>2026-04-25T10:02:30.359Z</time></trkpt><trkpt lat="45.52993" lon="10.8741533"><ele>167.16666666666669</ele><time>2026-04-25T10:02:31.345Z</time></trkpt><trkpt lat="45.5300033" lon="10.874165"><ele>168.33333333333334</ele><time>2026-04-25T10:02:32.356Z</time></trkpt><trkpt lat="45.5301" lon="10.87424"><ele>169.5</ele><time>2026-04-25T10:02:34.355Z</time></trkpt><trkpt lat="45.530175" lon="10.8741817"><ele>170.66666666666666</ele><time>2026-04-25T10:02:37.357Z</time></trkpt><trkpt lat="45.5302133" lon="10.87408"><ele>171.83333333333331</ele><time>2026-04-25T10:02:39.344Z</time></trkpt><trkpt lat="45.5302867" lon="10.8739883"><ele>173.0</ele><time>2026-04-25T10:02:41.348Z</time></trkpt><trkpt lat="45.5303833" lon="10.8738717"><ele>173.16666666666666</ele><time>2026-04-25T10:02:43.354Z</time></trkpt><trkpt lat="45.530445" lon="10.8738033"><ele>173.33333333333331</ele><time>2026-04-25T10:02:44.349Z</time></trkpt><trkpt lat="45.5305083" lon="10.87373"><ele>173.5</ele><time>2026-04-25T10:02:45.35Z</time></trkpt><trkpt lat="45.5305783" lon="10.8736617"><ele>173.66666666666666</ele><time>2026-04-25T10:02:46.342Z</time></trkpt><trkpt lat="45.5306467" lon="10.873595"><ele>173.83333333333334</ele><time>2026-04-25T10:02:47.351Z</time></trkpt><trkpt lat="45.5307183" lon="10.8735267"><ele>174.0</ele><time>2026-04-25T10:02:48.352Z</time></trkpt><trkpt lat="45.5307917" lon="10.8734517"><ele>176.0</ele><time>2026-04-25T10:02:49.35Z</time></trkpt><trkpt lat="45.530855" lon="10.8733767"><ele>178.0</ele><time>2026-04-25T10:02:50.353Z</time></trkpt><trkpt lat="45.530905" lon="10.8733117"><ele>180.0</ele><time>2026-04-25T10:02:51.36Z</time></trkpt><trkpt lat="45.530945" lon="10.8732417"><ele>182.0</ele><time>2026-04-25T10:02:52.356Z</time></trkpt><trkpt lat="45.5310083" lon="10.8731133"><ele>184.0</ele><time>2026-04-25T10:02:54.344Z</time></trkpt><trkpt lat="45.5310683" lon="10.873075"><ele>186.0</ele><time>2026-04-25T10:03:08.359Z</time></trkpt><trkpt lat="45.531145" lon="10.8731333"><ele>187.66666666666666</ele><time>2026-04-25T10:03:10.36Z</time></trkpt><trkpt lat="45.53124" lon="10.873205"><ele>189.33333333333331</ele><time>2026-04-25T10:03:12.351Z</time></trkpt><trkpt lat="45.5313167" lon="10.873255"><ele>191.0</ele><time>2026-04-25T10:03:14.337Z</time></trkpt><trkpt lat="45.5314067" lon="10.8733067"><ele>192.66666666666666</ele><time>2026-04-25T10:03:16.344Z</time></trkpt><trkpt lat="45.5314817" lon="10.8733533"><ele>194.33333333333331</ele><time>2026-04-25T10:03:18.341Z</time></trkpt><trkpt lat="45.5315383" lon="10.8734033"><ele>196.0</ele><time>2026-04-25T10:03:21.338Z</time></trkpt><trkpt lat="45.53161" lon="10.873395"><ele>196.0</ele><time>2026-04-25T10:03:25.344Z</time></trkpt><trkpt lat="45.5315483" lon="10.8733583"><ele>196.0</ele><time>2026-04-25T10:03:33.356Z</time></trkpt><trkpt lat="45.5314683" lon="10.873315"><ele>196.0</ele><time>2026-04-25T10:03:35.342Z</time></trkpt><trkpt lat="45.531365" lon="10.8732417"><ele>196.0</ele><time>2026-04-25T10:03:37.343Z</time></trkpt><trkpt lat="45.531265" lon="10.873165"><ele>196.0</ele><time>2026-04-25T10:03:39.336Z</time></trkpt><trkpt lat="45.5311883" lon="10.8731117"><ele>194.33333333333331</ele><time>2026-04-25T10:03:41.35Z</time></trkpt><trkpt lat="45.5311183" lon="10.8730717"><ele>192.66666666666666</ele><time>2026-04-25T10:03:44.342Z</time></trkpt><trkpt lat="45.5310533" lon="10.87303"><ele>191.0</ele><time>2026-04-25T10:03:46.336Z</time></trkpt><trkpt lat="45.530945" lon="10.872945"><ele>189.33333333333331</ele><time>2026-04-25T10:03:48.355Z</time></trkpt><trkpt lat="45.530885" lon="10.8729067"><ele>187.66666666666666</ele><time>2026-04-25T10:03:49.347Z</time></trkpt><trkpt lat="45.5308183" lon="10.8728833"><ele>186.0</ele><time>2026-04-25T10:03:50.337Z</time></trkpt><trkpt lat="45.5307483" lon="10.8728583"><ele>186.0</ele><time>2026-04-25T10:03:51.357Z</time></trkpt><trkpt lat="45.5306783" lon="10.8728433"><ele>186.0</ele><time>2026-04-25T10:03:52.357Z</time></trkpt><trkpt lat="45.5306083" lon="10.8728333"><ele>186.0</ele><time>2026-04-25T10:03:53.341Z</time></trkpt><trkpt lat="45.5305433" lon="10.8728167"><ele>186.0</ele><time>2026-04-25T10:03:54.356Z</time></trkpt><trkpt lat="45.5304217" lon="10.8728017"><ele>186.0</ele><time>2026-04-25T10:03:56.346Z</time></trkpt><trkpt lat="45.5303117" lon="10.8727967"><ele>186.0</ele><time>2026-04-25T10:03:58.347Z</time></trkpt><trkpt lat="45.5302267" lon="10.8727867"><ele>186.0</ele><time>2026-04-25T10:04:00.369Z</time></trkpt><trkpt lat="45.53014" lon="10.87278"><ele>186.0</ele><time>2026-04-25T10:04:03.343Z</time></trkpt><trkpt lat="45.5300683" lon="10.8727783"><ele>186.0</ele><time>2026-04-25T10:04:06.351Z</time></trkpt><trkpt lat="45.5301883" lon="10.8727867"><ele>186.0</ele><time>2026-04-25T10:04:29.368Z</time></trkpt><trkpt lat="45.5302633" lon="10.8727883"><ele>186.0</ele><time>2026-04-25T10:04:30.369Z</time></trkpt><trkpt lat="45.5303433" lon="10.8728083"><ele>186.0</ele><time>2026-04-25T10:04:31.347Z</time></trkpt><trkpt lat="45.5304267" lon="10.8728217"><ele>186.0</ele><time>2026-04-25T10:04:32.371Z</time></trkpt><trkpt lat="45.53051" lon="10.8728317"><ele>186.0</ele><time>2026-04-25T10:04:33.353Z</time></trkpt><trkpt lat="45.5306" lon="10.8728433"><ele>186.0</ele><time>2026-04-25T10:04:34.342Z</time></trkpt><trkpt lat="45.5307017" lon="10.8728567"><ele>186.0</ele><time>2026-04-25T10:04:35.34Z</time></trkpt><trkpt lat="45.53083" lon="10.8728833"><ele>186.0</ele><time>2026-04-25T10:04:36.355Z</time></trkpt><trkpt lat="45.5309467" lon="10.8729267"><ele>186.0</ele><time>2026-04-25T10:04:37.34Z</time></trkpt><trkpt lat="45.5310317" lon="10.872985"><ele>186.0</ele><time>2026-04-25T10:04:38.351Z</time></trkpt><trkpt lat="45.5311183" lon="10.87308"><ele>186.0</ele><time>2026-04-25T10:04:39.351Z</time></trkpt><trkpt lat="45.531205" lon="10.873155"><ele>186.0</ele><time>2026-04-25T10:04:40.359Z</time></trkpt><trkpt lat="45.53129" lon="10.8731983"><ele>186.0</ele><time>2026-04-25T10:04:41.337Z</time></trkpt><trkpt lat="45.53138" lon="10.8732467"><ele>185.16666666666666</ele><time>2026-04-25T10:04:42.344Z</time></trkpt><trkpt lat="45.53144" lon="10.8733017"><ele>184.33333333333334</ele><time>2026-04-25T10:04:43.338Z</time></trkpt><trkpt lat="45.53151" lon="10.87334"><ele>183.5</ele><time>2026-04-25T10:04:44.337Z</time></trkpt><trkpt lat="45.5315817" lon="10.8733867"><ele>182.66666666666669</ele><time>2026-04-25T10:04:45.353Z</time></trkpt><trkpt lat="45.531645" lon="10.873445"><ele>181.83333333333334</ele><time>2026-04-25T10:04:46.355Z</time></trkpt><trkpt lat="45.5317217" lon="10.8735183"><ele>181.0</ele><time>2026-04-25T10:04:47.341Z</time></trkpt><trkpt lat="45.5318033" lon="10.8736167"><ele>181.0</ele><time>2026-04-25T10:04:48.345Z</time></trkpt><trkpt lat="45.5318933" lon="10.8737217"><ele>181.0</ele><time>2026-04-25T10:04:49.347Z</time></trkpt><trkpt lat="45.5319833" lon="10.87383"><ele>181.0</ele><time>2026-04-25T10:04:50.348Z</time></trkpt><trkpt lat="45.5320683" lon="10.8739333"><ele>181.0</ele><time>2026-04-25T10:04:51.355Z</time></trkpt><trkpt lat="45.53215" lon="10.8740283"><ele>181.66666666666669</ele><time>2026-04-25T10:04:52.351Z</time></trkpt><trkpt lat="45.5322383" lon="10.8741067"><ele>182.33333333333334</ele><time>2026-04-25T10:04:53.355Z</time></trkpt><trkpt lat="45.5323083" lon="10.8741833"><ele>183.0</ele><time>2026-04-25T10:04:54.348Z</time></trkpt><trkpt lat="45.532375" lon="10.874255"><ele>183.66666666666666</ele><time>2026-04-25T10:04:55.352Z</time></trkpt><trkpt lat="45.5324333" lon="10.8743217"><ele>184.33333333333331</ele><time>2026-04-25T10:04:56.344Z</time></trkpt><trkpt lat="45.5325083" lon="10.874385"><ele>185.0</ele><time>2026-04-25T10:04:57.35Z</time></trkpt><trkpt lat="45.53259" lon="10.87445"><ele>185.0</ele><time>2026-04-25T10:04:58.357Z</time></trkpt><trkpt lat="45.5326767" lon="10.8745067"><ele>185.0</ele><time>2026-04-25T10:04:59.35Z</time></trkpt><trkpt lat="45.532765" lon="10.8745567"><ele>185.0</ele><time>2026-04-25T10:05:00.351Z</time></trkpt><trkpt lat="45.5328317" lon="10.8746517"><ele>185.0</ele><time>2026-04-25T10:05:01.37Z</time></trkpt><trkpt lat="45.532885" lon="10.874735"><ele>185.0</ele><time>2026-04-25T10:05:02.346Z</time></trkpt><trkpt lat="45.5329317" lon="10.8748433"><ele>187.6</ele><time>2026-04-25T10:05:03.35Z</time></trkpt><trkpt lat="45.5329733" lon="10.8749667"><ele>190.2</ele><time>2026-04-25T10:05:04.358Z</time></trkpt><trkpt lat="45.533005" lon="10.8750983"><ele>192.8</ele><time>2026-04-25T10:05:05.347Z</time></trkpt><trkpt lat="45.5330283" lon="10.8752383"><ele>195.4</ele><time>2026-04-25T10:05:06.344Z</time></trkpt><trkpt lat="45.53304" lon="10.8753817"><ele>198.0</ele><time>2026-04-25T10:05:07.348Z</time></trkpt><trkpt lat="45.533045" lon="10.8755067"><ele>198.0</ele><time>2026-04-25T10:05:08.345Z</time></trkpt><trkpt lat="45.53303" lon="10.8756167"><ele>198.0</ele><time>2026-04-25T10:05:09.346Z</time></trkpt><trkpt lat="45.5330167" lon="10.875715"><ele>198.0</ele><time>2026-04-25T10:05:10.358Z</time></trkpt><trkpt lat="45.533005" lon="10.8758067"><ele>198.0</ele><time>2026-04-25T10:05:11.363Z</time></trkpt><trkpt lat="45.5330867" lon="10.8758967"><ele>198.0</ele><time>2026-04-25T10:05:13.348Z</time></trkpt><trkpt lat="45.5332167" lon="10.875985"><ele>196.0</ele><time>2026-04-25T10:05:15.34Z</time></trkpt><trkpt lat="45.5332867" lon="10.8760267"><ele>194.0</ele><time>2026-04-25T10:05:16.346Z</time></trkpt><trkpt lat="45.5333517" lon="10.8760583"><ele>192.0</ele><time>2026-04-25T10:05:17.344Z</time></trkpt><trkpt lat="45.5334483" lon="10.8761067"><ele>190.0</ele><time>2026-04-25T10:05:19.348Z</time></trkpt><trkpt lat="45.53352" lon="10.8761433"><ele>188.0</ele><time>2026-04-25T10:05:22.343Z</time></trkpt><trkpt lat="45.5335883" lon="10.8761283"><ele>186.0</ele><time>2026-04-25T10:05:24.342Z</time></trkpt><trkpt lat="45.53368" lon="10.87613"><ele>186.4</ele><time>2026-04-25T10:05:26.35Z</time></trkpt><trkpt lat="45.5337533" lon="10.876105"><ele>186.8</ele><time>2026-04-25T10:05:29.346Z</time></trkpt><trkpt lat="45.5337783" lon="10.8759867"><ele>187.20000000000002</ele><time>2026-04-25T10:05:31.346Z</time></trkpt><trkpt lat="45.5337633" lon="10.8757467"><ele>187.60000000000002</ele><time>2026-04-25T10:05:33.346Z</time></trkpt><trkpt lat="45.5337617" lon="10.87561"><ele>188.0</ele><time>2026-04-25T10:05:34.354Z</time></trkpt><trkpt lat="45.53377" lon="10.87547"><ele>191.2</ele><time>2026-04-25T10:05:35.345Z</time></trkpt><trkpt lat="45.53378" lon="10.8753183"><ele>194.4</ele><time>2026-04-25T10:05:36.348Z</time></trkpt><trkpt lat="45.5338" lon="10.8751483"><ele>197.6</ele><time>2026-04-25T10:05:37.344Z</time></trkpt><trkpt lat="45.53381" lon="10.875"><ele>200.79999999999998</ele><time>2026-04-25T10:05:38.356Z</time></trkpt><trkpt lat="45.5337967" lon="10.87487"><ele>204.0</ele><time>2026-04-25T10:05:39.344Z</time></trkpt><trkpt lat="45.53378" lon="10.8747433"><ele>203.83333333333334</ele><time>2026-04-25T10:05:40.35Z</time></trkpt><trkpt lat="45.5337533" lon="10.87463"><ele>203.66666666666669</ele><time>2026-04-25T10:05:41.349Z</time></trkpt><trkpt lat="45.5337367" lon="10.8745133"><ele>203.5</ele><time>2026-04-25T10:05:42.347Z</time></trkpt><trkpt lat="45.5337183" lon="10.8744017"><ele>203.33333333333334</ele><time>2026-04-25T10:05:43.346Z</time></trkpt><trkpt lat="45.5336833" lon="10.8742883"><ele>203.16666666666669</ele><time>2026-04-25T10:05:44.347Z</time></trkpt><trkpt lat="45.5336433" lon="10.87417"><ele>203.0</ele><time>2026-04-25T10:05:45.353Z</time></trkpt><trkpt lat="45.5335917" lon="10.87405"><ele>203.0</ele><time>2026-04-25T10:05:46.342Z</time></trkpt><trkpt lat="45.53353" lon="10.8739267"><ele>203.0</ele><time>2026-04-25T10:05:47.341Z</time></trkpt><trkpt lat="45.53346" lon="10.8738083"><ele>203.0</ele><time>2026-04-25T10:05:48.348Z</time></trkpt><trkpt lat="45.5333933" lon="10.87369"><ele>203.0</ele><time>2026-04-25T10:05:49.353Z</time></trkpt><trkpt lat="45.5333367" lon="10.8735817"><ele>203.0</ele><time>2026-04-25T10:05:50.346Z</time></trkpt><trkpt lat="45.5332967" lon="10.8734767"><ele>203.83333333333334</ele><time>2026-04-25T10:05:51.346Z</time></trkpt><trkpt lat="45.5332683" lon="10.8733783"><ele>204.66666666666669</ele><time>2026-04-25T10:05:52.343Z</time></trkpt><trkpt lat="45.5332533" lon="10.873285"><ele>205.5</ele><time>2026-04-25T10:05:53.396Z</time></trkpt><trkpt lat="45.5332417" lon="10.8731817"><ele>206.33333333333331</ele><time>2026-04-25T10:05:54.352Z</time></trkpt><trkpt lat="45.5332367" lon="10.8730717"><ele>207.16666666666666</ele><time>2026-04-25T10:05:55.348Z</time></trkpt><trkpt lat="45.53324" lon="10.8729517"><ele>208.0</ele><time>2026-04-25T10:05:56.343Z</time></trkpt><trkpt lat="45.5332467" lon="10.8728267"><ele>207.99999999999997</ele><time>2026-04-25T10:05:57.345Z</time></trkpt><trkpt lat="45.533255" lon="10.8727"><ele>208.0</ele><time>2026-04-25T10:05:58.345Z</time></trkpt><trkpt lat="45.5332633" lon="10.8725783"><ele>208.0</ele><time>2026-04-25T10:05:59.345Z</time></trkpt><trkpt lat="45.5332733" lon="10.8724717"><ele>208.0</ele><time>2026-04-25T10:06:00.341Z</time></trkpt><trkpt lat="45.53328" lon="10.872375"><ele>207.99999999999997</ele><time>2026-04-25T10:06:01.353Z</time></trkpt><trkpt lat="45.5332967" lon="10.87224"><ele>208.0</ele><time>2026-04-25T10:06:03.353Z</time></trkpt><trkpt lat="45.5332917" lon="10.8721167"><ele>208.99999999999997</ele><time>2026-04-25T10:06:05.353Z</time></trkpt><trkpt lat="45.5332967" lon="10.8719683"><ele>210.0</ele><time>2026-04-25T10:06:07.344Z</time></trkpt><trkpt lat="45.53329" lon="10.8718617"><ele>211.0</ele><time>2026-04-25T10:06:09.343Z</time></trkpt><trkpt lat="45.5332417" lon="10.8717967"><ele>212.0</ele><time>2026-04-25T10:06:12.349Z</time></trkpt><trkpt lat="45.5332867" lon="10.8719233"><ele>212.99999999999997</ele><time>2026-04-25T10:06:39.342Z</time></trkpt><trkpt lat="45.5332733" lon="10.872045"><ele>214.0</ele><time>2026-04-25T10:06:41.356Z</time></trkpt><trkpt lat="45.53329" lon="10.872145"><ele>213.99999999999997</ele><time>2026-04-25T10:06:43.343Z</time></trkpt><trkpt lat="45.5332933" lon="10.872245"><ele>214.0</ele><time>2026-04-25T10:06:46.37Z</time></trkpt><trkpt lat="45.533285" lon="10.87234"><ele>214.0</ele><time>2026-04-25T10:06:48.347Z</time></trkpt><trkpt lat="45.53326" lon="10.872495"><ele>214.0</ele><time>2026-04-25T10:06:50.343Z</time></trkpt><trkpt lat="45.5332467" lon="10.8726017"><ele>213.99999999999997</ele><time>2026-04-25T10:06:51.34Z</time></trkpt><trkpt lat="45.5332383" lon="10.8727183"><ele>214.0</ele><time>2026-04-25T10:06:52.347Z</time></trkpt><trkpt lat="45.53323" lon="10.8728367"><ele>212.99999999999997</ele><time>2026-04-25T10:06:53.347Z</time></trkpt><trkpt lat="45.5332217" lon="10.872955"><ele>212.0</ele><time>2026-04-25T10:06:54.351Z</time></trkpt><trkpt lat="45.53322" lon="10.873065"><ele>211.0</ele><time>2026-04-25T10:06:55.348Z</time></trkpt><trkpt lat="45.53323" lon="10.8731717"><ele>210.0</ele><time>2026-04-25T10:06:56.336Z</time></trkpt><trkpt lat="45.5332417" lon="10.8732733"><ele>208.99999999999997</ele><time>2026-04-25T10:06:57.358Z</time></trkpt><trkpt lat="45.5332667" lon="10.8733783"><ele>208.0</ele><time>2026-04-25T10:06:58.341Z</time></trkpt><trkpt lat="45.53329" lon="10.8734817"><ele>207.16666666666666</ele><time>2026-04-25T10:06:59.359Z</time></trkpt><trkpt lat="45.5333233" lon="10.8735783"><ele>206.33333333333331</ele><time>2026-04-25T10:07:00.351Z</time></trkpt><trkpt lat="45.533365" lon="10.8736733"><ele>205.5</ele><time>2026-04-25T10:07:01.346Z</time></trkpt><trkpt lat="45.533415" lon="10.8737683"><ele>204.66666666666669</ele><time>2026-04-25T10:07:02.342Z</time></trkpt><trkpt lat="45.5334683" lon="10.8738617"><ele>203.83333333333334</ele><time>2026-04-25T10:07:03.348Z</time></trkpt><trkpt lat="45.533515" lon="10.8739467"><ele>203.0</ele><time>2026-04-25T10:07:04.343Z</time></trkpt><trkpt lat="45.5335933" lon="10.8740967"><ele>203.00000000000003</ele><time>2026-04-25T10:07:06.34Z</time></trkpt><trkpt lat="45.5336533" lon="10.8742483"><ele>203.0</ele><time>2026-04-25T10:07:08.348Z</time></trkpt><trkpt lat="45.5336817" lon="10.87433"><ele>203.0</ele><time>2026-04-25T10:07:09.346Z</time></trkpt><trkpt lat="45.5337067" lon="10.8744133"><ele>203.0</ele><time>2026-04-25T10:07:10.346Z</time></trkpt><trkpt lat="45.533725" lon="10.8745"><ele>203.00000000000003</ele><time>2026-04-25T10:07:11.345Z</time></trkpt><trkpt lat="45.5337417" lon="10.8746017"><ele>203.0</ele><time>2026-04-25T10:07:12.366Z</time></trkpt><trkpt lat="45.533755" lon="10.874715"><ele>203.16666666666669</ele><time>2026-04-25T10:07:13.367Z</time></trkpt><trkpt lat="45.5337733" lon="10.87483"><ele>203.33333333333334</ele><time>2026-04-25T10:07:14.345Z</time></trkpt><trkpt lat="45.53379" lon="10.8749367"><ele>203.5</ele><time>2026-04-25T10:07:15.354Z</time></trkpt><trkpt lat="45.5337933" lon="10.8750417"><ele>203.66666666666669</ele><time>2026-04-25T10:07:16.347Z</time></trkpt><trkpt lat="45.5337933" lon="10.875155"><ele>203.83333333333334</ele><time>2026-04-25T10:07:17.344Z</time></trkpt><trkpt lat="45.5337917" lon="10.8752733"><ele>204.0</ele><time>2026-04-25T10:07:18.352Z</time></trkpt><trkpt lat="45.5337917" lon="10.8753983"><ele>204.0</ele><time>2026-04-25T10:07:19.353Z</time></trkpt><trkpt lat="45.5337933" lon="10.8755317"><ele>204.0</ele><time>2026-04-25T10:07:20.349Z</time></trkpt><trkpt lat="45.5338133" lon="10.8756633"><ele>204.0</ele><time>2026-04-25T10:07:21.351Z</time></trkpt><trkpt lat="45.5338133" lon="10.8757717"><ele>204.0</ele><time>2026-04-25T10:07:22.363Z</time></trkpt><trkpt lat="45.533805" lon="10.8758733"><ele>204.0</ele><time>2026-04-25T10:07:23.335Z</time></trkpt><trkpt lat="45.5338117" lon="10.8760167"><ele>204.0</ele><time>2026-04-25T10:07:25.344Z</time></trkpt><trkpt lat="45.5337417" lon="10.8760917"><ele>201.33333333333334</ele><time>2026-04-25T10:07:28.337Z</time></trkpt><trkpt lat="45.53367" lon="10.8760983"><ele>198.66666666666666</ele><time>2026-04-25T10:07:30.348Z</time></trkpt><trkpt lat="45.5336383" lon="10.8761967"><ele>196.0</ele><time>2026-04-25T10:07:33.346Z</time></trkpt><trkpt lat="45.5336617" lon="10.8763133"><ele>193.33333333333331</ele><time>2026-04-25T10:07:35.344Z</time></trkpt><trkpt lat="45.533735" lon="10.87645"><ele>190.66666666666666</ele><time>2026-04-25T10:07:37.359Z</time></trkpt><trkpt lat="45.5338083" lon="10.87653"><ele>188.0</ele><time>2026-04-25T10:07:38.345Z</time></trkpt><trkpt lat="45.5338733" lon="10.87661"><ele>188.0</ele><time>2026-04-25T10:07:39.343Z</time></trkpt><trkpt lat="45.533945" lon="10.8766867"><ele>188.0</ele><time>2026-04-25T10:07:40.34Z</time></trkpt><trkpt lat="45.5340367" lon="10.8767167"><ele>188.0</ele><time>2026-04-25T10:07:41.361Z</time></trkpt><trkpt lat="45.5341283" lon="10.876725"><ele>188.0</ele><time>2026-04-25T10:07:42.344Z</time></trkpt><trkpt lat="45.5342233" lon="10.8767167"><ele>188.0</ele><time>2026-04-25T10:07:43.344Z</time></trkpt><trkpt lat="45.5343267" lon="10.8767083"><ele>188.0</ele><time>2026-04-25T10:07:44.353Z</time></trkpt><trkpt lat="45.534455" lon="10.8767283"><ele>188.0</ele><time>2026-04-25T10:07:45.371Z</time></trkpt><trkpt lat="45.534565" lon="10.87674"><ele>188.0</ele><time>2026-04-25T10:07:46.341Z</time></trkpt><trkpt lat="45.53466" lon="10.8767733"><ele>188.0</ele><time>2026-04-25T10:07:47.339Z</time></trkpt><trkpt lat="45.5347317" lon="10.8768267"><ele>188.0</ele><time>2026-04-25T10:07:48.345Z</time></trkpt><trkpt lat="45.5348317" lon="10.8768783"><ele>185.2</ele><time>2026-04-25T10:07:49.348Z</time></trkpt><trkpt lat="45.5349633" lon="10.8769233"><ele>182.4</ele><time>2026-04-25T10:07:50.356Z</time></trkpt><trkpt lat="45.5350533" lon="10.8769267"><ele>179.6</ele><time>2026-04-25T10:07:51.346Z</time></trkpt><trkpt lat="45.535155" lon="10.8769533"><ele>176.79999999999998</ele><time>2026-04-25T10:07:52.341Z</time></trkpt><trkpt lat="45.5352717" lon="10.876975"><ele>174.0</ele><time>2026-04-25T10:07:53.345Z</time></trkpt><trkpt lat="45.5353733" lon="10.877"><ele>173.83333333333334</ele><time>2026-04-25T10:07:54.349Z</time></trkpt><trkpt lat="45.535475" lon="10.8770317"><ele>173.66666666666666</ele><time>2026-04-25T10:07:55.344Z</time></trkpt><trkpt lat="45.5355733" lon="10.8770533"><ele>173.5</ele><time>2026-04-25T10:07:56.337Z</time></trkpt><trkpt lat="45.5356483" lon="10.8770683"><ele>173.33333333333331</ele><time>2026-04-25T10:07:57.356Z</time></trkpt><trkpt lat="45.53571" lon="10.877095"><ele>173.16666666666666</ele><time>2026-04-25T10:07:58.347Z</time></trkpt><trkpt lat="45.5357817" lon="10.877195"><ele>173.0</ele><time>2026-04-25T10:08:00.353Z</time></trkpt><trkpt lat="45.5357967" lon="10.8772967"><ele>173.0</ele><time>2026-04-25T10:08:01.347Z</time></trkpt><trkpt lat="45.5358083" lon="10.877425"><ele>173.0</ele><time>2026-04-25T10:08:02.347Z</time></trkpt><trkpt lat="45.5358183" lon="10.8775783"><ele>173.0</ele><time>2026-04-25T10:08:03.346Z</time></trkpt><trkpt lat="45.535825" lon="10.87775"><ele>173.0</ele><time>2026-04-25T10:08:04.348Z</time></trkpt><trkpt lat="45.5358333" lon="10.8779183"><ele>173.0</ele><time>2026-04-25T10:08:05.351Z</time></trkpt><trkpt lat="45.5358367" lon="10.8780617"><ele>172.8</ele><time>2026-04-25T10:08:06.346Z</time></trkpt><trkpt lat="45.535845" lon="10.8781967"><ele>172.60000000000002</ele><time>2026-04-25T10:08:07.346Z</time></trkpt><trkpt lat="45.5358467" lon="10.8783117"><ele>172.39999999999998</ele><time>2026-04-25T10:08:08.336Z</time></trkpt><trkpt lat="45.5358483" lon="10.8784117"><ele>172.2</ele><time>2026-04-25T10:08:09.337Z</time></trkpt><trkpt lat="45.5358433" lon="10.8785583"><ele>172.0</ele><time>2026-04-25T10:08:11.345Z</time></trkpt><trkpt lat="45.535925" lon="10.8786483"><ele>171.8</ele><time>2026-04-25T10:08:24.343Z</time></trkpt><trkpt lat="45.5359983" lon="10.878645"><ele>171.6</ele><time>2026-04-25T10:08:25.348Z</time></trkpt><trkpt lat="45.5360867" lon="10.87864"><ele>171.4</ele><time>2026-04-25T10:08:26.349Z</time></trkpt><trkpt lat="45.53619" lon="10.8786333"><ele>171.20000000000002</ele><time>2026-04-25T10:08:27.344Z</time></trkpt><trkpt lat="45.5363117" lon="10.8786267"><ele>171.0</ele><time>2026-04-25T10:08:28.337Z</time></trkpt><trkpt lat="45.536445" lon="10.8786133"><ele>170.75</ele><time>2026-04-25T10:08:29.348Z</time></trkpt><trkpt lat="45.5365817" lon="10.8785967"><ele>170.5</ele><time>2026-04-25T10:08:30.344Z</time></trkpt><trkpt lat="45.5367333" lon="10.8785717"><ele>170.25</ele><time>2026-04-25T10:08:31.337Z</time></trkpt><trkpt lat="45.5368567" lon="10.87856"><ele>170.0</ele><time>2026-04-25T10:08:32.345Z</time></trkpt><trkpt lat="45.5369667" lon="10.8785733"><ele>171.0</ele><time>2026-04-25T10:08:33.352Z</time></trkpt><trkpt lat="45.53707" lon="10.8785683"><ele>172.0</ele><time>2026-04-25T10:08:34.344Z</time></trkpt><trkpt lat="45.5371683" lon="10.8785717"><ele>173.0</ele><time>2026-04-25T10:08:35.365Z</time></trkpt><trkpt lat="45.5372767" lon="10.8785833"><ele>174.0</ele><time>2026-04-25T10:08:36.347Z</time></trkpt><trkpt lat="45.537395" lon="10.8786067"><ele>175.0</ele><time>2026-04-25T10:08:37.344Z</time></trkpt><trkpt lat="45.5375317" lon="10.8786267"><ele>175.0</ele><time>2026-04-25T10:08:38.34Z</time></trkpt><trkpt lat="45.5376683" lon="10.8786383"><ele>175.0</ele><time>2026-04-25T10:08:39.368Z</time></trkpt><trkpt lat="45.5378017" lon="10.8786383"><ele>175.0</ele><time>2026-04-25T10:08:40.344Z</time></trkpt><trkpt lat="45.53795" lon="10.87864"><ele>175.0</ele><time>2026-04-25T10:08:41.338Z</time></trkpt><trkpt lat="45.5380983" lon="10.8786567"><ele>176.5</ele><time>2026-04-25T10:08:42.339Z</time></trkpt><trkpt lat="45.5382233" lon="10.8786533"><ele>178.0</ele><time>2026-04-25T10:08:43.342Z</time></trkpt><trkpt lat="45.5383467" lon="10.87866"><ele>179.5</ele><time>2026-04-25T10:08:44.341Z</time></trkpt><trkpt lat="45.538475" lon="10.8786883"><ele>181.0</ele><time>2026-04-25T10:08:45.334Z</time></trkpt><trkpt lat="45.5386017" lon="10.878685"><ele>182.25</ele><time>2026-04-25T10:08:46.342Z</time></trkpt><trkpt lat="45.5387517" lon="10.8786783"><ele>183.5</ele><time>2026-04-25T10:08:47.347Z</time></trkpt><trkpt lat="45.5388783" lon="10.8786383"><ele>184.75</ele><time>2026-04-25T10:08:48.342Z</time></trkpt><trkpt lat="45.539025" lon="10.8785817"><ele>186.0</ele><time>2026-04-25T10:08:49.345Z</time></trkpt><trkpt lat="45.5391483" lon="10.8785583"><ele>186.0</ele><time>2026-04-25T10:08:50.345Z</time></trkpt><trkpt lat="45.53926" lon="10.8785467"><ele>186.0</ele><time>2026-04-25T10:08:51.336Z</time></trkpt><trkpt lat="45.5393717" lon="10.87852"><ele>186.0</ele><time>2026-04-25T10:08:52.341Z</time></trkpt><trkpt lat="45.5395083" lon="10.878515"><ele>186.0</ele><time>2026-04-25T10:08:53.344Z</time></trkpt><trkpt lat="45.5396383" lon="10.878495"><ele>187.0</ele><time>2026-04-25T10:08:54.345Z</time></trkpt><trkpt lat="45.5397533" lon="10.8784983"><ele>188.0</ele><time>2026-04-25T10:08:55.344Z</time></trkpt><trkpt lat="45.53982" lon="10.878495"><ele>189.0</ele><time>2026-04-25T10:08:56.346Z</time></trkpt><trkpt lat="45.53988" lon="10.8785633"><ele>190.0</ele><time>2026-04-25T10:08:58.346Z</time></trkpt><trkpt lat="45.5398467" lon="10.878465"><ele>191.0</ele><time>2026-04-25T10:09:06.37Z</time></trkpt><trkpt lat="45.5398733" lon="10.87838"><ele>192.0</ele><time>2026-04-25T10:09:07.356Z</time></trkpt><trkpt lat="45.5398967" lon="10.878275"><ele>192.6</ele><time>2026-04-25T10:09:08.375Z</time></trkpt><trkpt lat="45.5399233" lon="10.8781617"><ele>193.2</ele><time>2026-04-25T10:09:09.349Z</time></trkpt><trkpt lat="45.53993" lon="10.8780333"><ele>193.8</ele><time>2026-04-25T10:09:10.344Z</time></trkpt><trkpt lat="45.5399167" lon="10.8779083"><ele>194.4</ele><time>2026-04-25T10:09:11.342Z</time></trkpt><trkpt lat="45.5398867" lon="10.8777683"><ele>195.0</ele><time>2026-04-25T10:09:12.355Z</time></trkpt><trkpt lat="45.5398717" lon="10.8776283"><ele>195.25</ele><time>2026-04-25T10:09:13.353Z</time></trkpt><trkpt lat="45.5398767" lon="10.8774833"><ele>195.5</ele><time>2026-04-25T10:09:14.339Z</time></trkpt><trkpt lat="45.5399283" lon="10.8773183"><ele>195.75</ele><time>2026-04-25T10:09:15.339Z</time></trkpt><trkpt lat="45.5400133" lon="10.8771783"><ele>196.0</ele><time>2026-04-25T10:09:16.345Z</time></trkpt><trkpt lat="45.5401283" lon="10.877065"><ele>196.0</ele><time>2026-04-25T10:09:17.35Z</time></trkpt><trkpt lat="45.540235" lon="10.876955"><ele>196.0</ele><time>2026-04-25T10:09:18.366Z</time></trkpt><trkpt lat="45.540335" lon="10.8768517"><ele>196.0</ele><time>2026-04-25T10:09:19.368Z</time></trkpt><trkpt lat="45.5404217" lon="10.8767867"><ele>196.0</ele><time>2026-04-25T10:09:20.371Z</time></trkpt><trkpt lat="45.5405283" lon="10.8766633"><ele>200.75</ele><time>2026-04-25T10:09:21.353Z</time></trkpt><trkpt lat="45.540635" lon="10.8765083"><ele>205.5</ele><time>2026-04-25T10:09:22.343Z</time></trkpt><trkpt lat="45.5407283" lon="10.8763567"><ele>210.25</ele><time>2026-04-25T10:09:23.341Z</time></trkpt><trkpt lat="45.54083" lon="10.8761917"><ele>215.0</ele><time>2026-04-25T10:09:24.347Z</time></trkpt><trkpt lat="45.5408917" lon="10.8760533"><ele>213.75</ele><time>2026-04-25T10:09:25.357Z</time></trkpt><trkpt lat="45.54093" lon="10.87592"><ele>212.5</ele><time>2026-04-25T10:09:26.343Z</time></trkpt><trkpt lat="45.5409383" lon="10.875775"><ele>211.25</ele><time>2026-04-25T10:09:27.35Z</time></trkpt><trkpt lat="45.5409033" lon="10.8756083"><ele>210.0</ele><time>2026-04-25T10:09:28.347Z</time></trkpt><trkpt lat="45.54083" lon="10.875435"><ele>210.0</ele><time>2026-04-25T10:09:29.346Z</time></trkpt><trkpt lat="45.5407183" lon="10.875315"><ele>210.0</ele><time>2026-04-25T10:09:30.35Z</time></trkpt><trkpt lat="45.5406067" lon="10.8751733"><ele>210.0</ele><time>2026-04-25T10:09:31.354Z</time></trkpt><trkpt lat="45.5404767" lon="10.875035"><ele>208.33333333333331</ele><time>2026-04-25T10:09:32.342Z</time></trkpt><trkpt lat="45.540325" lon="10.8749383"><ele>206.66666666666666</ele><time>2026-04-25T10:09:33.342Z</time></trkpt><trkpt lat="45.5401667" lon="10.8748217"><ele>205.0</ele><time>2026-04-25T10:09:34.347Z</time></trkpt><trkpt lat="45.540015" lon="10.8746767"><ele>205.0</ele><time>2026-04-25T10:09:35.342Z</time></trkpt><trkpt lat="45.5398717" lon="10.8745117"><ele>205.0</ele><time>2026-04-25T10:09:36.339Z</time></trkpt><trkpt lat="45.5397067" lon="10.87438"><ele>205.0</ele><time>2026-04-25T10:09:37.345Z</time></trkpt><trkpt lat="45.539545" lon="10.87421"><ele>206.0</ele><time>2026-04-25T10:09:38.352Z</time></trkpt><trkpt lat="45.5394117" lon="10.8740783"><ele>207.0</ele><time>2026-04-25T10:09:39.365Z</time></trkpt><trkpt lat="45.5393083" lon="10.8739533"><ele>208.0</ele><time>2026-04-25T10:09:40.355Z</time></trkpt><trkpt lat="45.5392367" lon="10.8738617"><ele>209.0</ele><time>2026-04-25T10:09:41.347Z</time></trkpt><trkpt lat="45.5392033" lon="10.873785"><ele>209.0</ele><time>2026-04-25T10:09:42.344Z</time></trkpt><trkpt lat="45.5392283" lon="10.87367"><ele>209.0</ele><time>2026-04-25T10:09:44.341Z</time></trkpt><trkpt lat="45.5393033" lon="10.8736467"><ele>209.0</ele><time>2026-04-25T10:09:45.352Z</time></trkpt><trkpt lat="45.539445" lon="10.8736767"><ele>209.0</ele><time>2026-04-25T10:09:46.35Z</time></trkpt><trkpt lat="45.5395733" lon="10.8736833"><ele>209.0</ele><time>2026-04-25T10:09:47.345Z</time></trkpt><trkpt lat="45.53972" lon="10.87373"><ele>211.66666666666669</ele><time>2026-04-25T10:09:48.343Z</time></trkpt><trkpt lat="45.5398817" lon="10.8737667"><ele>214.33333333333331</ele><time>2026-04-25T10:09:49.357Z</time></trkpt><trkpt lat="45.54005" lon="10.8737967"><ele>217.0</ele><time>2026-04-25T10:09:50.345Z</time></trkpt><trkpt lat="45.5402533" lon="10.873835"><ele>220.0</ele><time>2026-04-25T10:09:51.344Z</time></trkpt><trkpt lat="45.540445" lon="10.8738833"><ele>223.0</ele><time>2026-04-25T10:09:52.343Z</time></trkpt><trkpt lat="45.5406433" lon="10.8739233"><ele>226.0</ele><time>2026-04-25T10:09:53.341Z</time></trkpt><trkpt lat="45.54083" lon="10.8739717"><ele>226.0</ele><time>2026-04-25T10:09:54.342Z</time></trkpt><trkpt lat="45.5410117" lon="10.8740017"><ele>226.0</ele><time>2026-04-25T10:09:55.346Z</time></trkpt><trkpt lat="45.5411717" lon="10.8740067"><ele>226.0</ele><time>2026-04-25T10:09:56.372Z</time></trkpt><trkpt lat="45.5413517" lon="10.8739867"><ele>226.66666666666666</ele><time>2026-04-25T10:09:57.359Z</time></trkpt><trkpt lat="45.5415367" lon="10.8739367"><ele>227.33333333333331</ele><time>2026-04-25T10:09:58.345Z</time></trkpt><trkpt lat="45.5417283" lon="10.8738767"><ele>228.0</ele><time>2026-04-25T10:09:59.342Z</time></trkpt><trkpt lat="45.54192" lon="10.8738283"><ele>230.66666666666669</ele><time>2026-04-25T10:10:00.345Z</time></trkpt><trkpt lat="45.5421133" lon="10.8737933"><ele>233.33333333333334</ele><time>2026-04-25T10:10:01.339Z</time></trkpt><trkpt lat="45.542295" lon="10.8737383"><ele>236.0</ele><time>2026-04-25T10:10:02.344Z</time></trkpt><trkpt lat="45.5424467" lon="10.8737033"><ele>236.0</ele><time>2026-04-25T10:10:03.35Z</time></trkpt><trkpt lat="45.5425833" lon="10.8736867"><ele>236.0</ele><time>2026-04-25T10:10:04.342Z</time></trkpt><trkpt lat="45.542675" lon="10.8736383"><ele>236.0</ele><time>2026-04-25T10:10:05.363Z</time></trkpt><trkpt lat="45.5427417" lon="10.873515"><ele>236.0</ele><time>2026-04-25T10:10:07.342Z</time></trkpt><trkpt lat="45.5426533" lon="10.8733733"><ele>239.0</ele><time>2026-04-25T10:10:09.34Z</time></trkpt><trkpt lat="45.5425583" lon="10.8733217"><ele>242.0</ele><time>2026-04-25T10:10:10.342Z</time></trkpt><trkpt lat="45.5424267" lon="10.8733783"><ele>245.0</ele><time>2026-04-25T10:10:11.368Z</time></trkpt><trkpt lat="45.542295" lon="10.8733917"><ele>248.0</ele><time>2026-04-25T10:10:12.352Z</time></trkpt><trkpt lat="45.5421567" lon="10.8733683"><ele>248.0</ele><time>2026-04-25T10:10:13.341Z</time></trkpt><trkpt lat="45.5420133" lon="10.8733183"><ele>248.0</ele><time>2026-04-25T10:10:14.337Z</time></trkpt><trkpt lat="45.54187" lon="10.8732467"><ele>248.0</ele><time>2026-04-25T10:10:15.343Z</time></trkpt><trkpt lat="45.541705" lon="10.8731633"><ele>248.0</ele><time>2026-04-25T10:10:16.341Z</time></trkpt><trkpt lat="45.5415367" lon="10.8730817"><ele>248.0</ele><time>2026-04-25T10:10:17.346Z</time></trkpt><trkpt lat="45.541345" lon="10.8729817"><ele>248.0</ele><time>2026-04-25T10:10:18.343Z</time></trkpt><trkpt lat="45.5411633" lon="10.8728833"><ele>246.0</ele><time>2026-04-25T10:10:19.344Z</time></trkpt><trkpt lat="45.5409683" lon="10.8727633"><ele>244.0</ele><time>2026-04-25T10:10:20.339Z</time></trkpt><trkpt lat="45.540795" lon="10.8726567"><ele>242.0</ele><time>2026-04-25T10:10:21.361Z</time></trkpt><trkpt lat="45.54063" lon="10.8725533"><ele>243.39999999999998</ele><time>2026-04-25T10:10:22.344Z</time></trkpt><trkpt lat="45.5405067" lon="10.8724633"><ele>244.79999999999998</ele><time>2026-04-25T10:10:23.339Z</time></trkpt><trkpt lat="45.5404067" lon="10.87238"><ele>246.2</ele><time>2026-04-25T10:10:24.374Z</time></trkpt><trkpt lat="45.5403483" lon="10.8723033"><ele>247.6</ele><time>2026-04-25T10:10:25.348Z</time></trkpt><trkpt lat="45.5403567" lon="10.8722083"><ele>249.0</ele><time>2026-04-25T10:10:26.34Z</time></trkpt><trkpt lat="45.540385" lon="10.8721233"><ele>252.0</ele><time>2026-04-25T10:10:27.349Z</time></trkpt><trkpt lat="45.5405383" lon="10.8720883"><ele>255.0</ele><time>2026-04-25T10:10:29.362Z</time></trkpt><trkpt lat="45.540675" lon="10.87214"><ele>258.0</ele><time>2026-04-25T10:10:30.358Z</time></trkpt><trkpt lat="45.5408567" lon="10.8721933"><ele>258.0</ele><time>2026-04-25T10:10:31.347Z</time></trkpt><trkpt lat="45.5410067" lon="10.8722833"><ele>258.0</ele><time>2026-04-25T10:10:32.353Z</time></trkpt><trkpt lat="45.54115" lon="10.8723583"><ele>258.0</ele><time>2026-04-25T10:10:33.341Z</time></trkpt><trkpt lat="45.5413067" lon="10.8723917"><ele>261.0</ele><time>2026-04-25T10:10:34.349Z</time></trkpt><trkpt lat="45.5414583" lon="10.872375"><ele>264.0</ele><time>2026-04-25T10:10:35.34Z</time></trkpt><trkpt lat="45.541645" lon="10.87233"><ele>267.0</ele><time>2026-04-25T10:10:36.348Z</time></trkpt><trkpt lat="45.541835" lon="10.872275"><ele>267.0</ele><time>2026-04-25T10:10:37.347Z</time></trkpt><trkpt lat="45.5420417" lon="10.8722117"><ele>267.0</ele><time>2026-04-25T10:10:38.347Z</time></trkpt><trkpt lat="45.5422383" lon="10.87214"><ele>267.0</ele><time>2026-04-25T10:10:39.344Z</time></trkpt><trkpt lat="45.5424183" lon="10.8720517"><ele>267.3333333333333</ele><time>2026-04-25T10:10:40.334Z</time></trkpt><trkpt lat="45.5426" lon="10.8719633"><ele>267.66666666666663</ele><time>2026-04-25T10:10:41.344Z</time></trkpt><trkpt lat="45.542775" lon="10.8719017"><ele>268.0</ele><time>2026-04-25T10:10:42.344Z</time></trkpt><trkpt lat="45.5429617" lon="10.8718767"><ele>267.4</ele><time>2026-04-25T10:10:43.376Z</time></trkpt><trkpt lat="45.543095" lon="10.8718417"><ele>266.8</ele><time>2026-04-25T10:10:44.348Z</time></trkpt><trkpt lat="45.5431917" lon="10.8718717"><ele>266.2</ele><time>2026-04-25T10:10:45.352Z</time></trkpt><trkpt lat="45.5432733" lon="10.8719117"><ele>265.6</ele><time>2026-04-25T10:10:46.346Z</time></trkpt><trkpt lat="45.543335" lon="10.87189"><ele>265.0</ele><time>2026-04-25T10:10:47.345Z</time></trkpt><trkpt lat="45.5433067" lon="10.8717267"><ele>271.0</ele><time>2026-04-25T10:10:49.338Z</time></trkpt><trkpt lat="45.5432567" lon="10.8716483"><ele>277.0</ele><time>2026-04-25T10:10:50.345Z</time></trkpt><trkpt lat="45.5431683" lon="10.871585"><ele>283.0</ele><time>2026-04-25T10:10:51.355Z</time></trkpt><trkpt lat="45.5430283" lon="10.8715483"><ele>289.0</ele><time>2026-04-25T10:10:52.346Z</time></trkpt><trkpt lat="45.5428883" lon="10.8715267"><ele>289.3333333333333</ele><time>2026-04-25T10:10:53.356Z</time></trkpt><trkpt lat="45.542715" lon="10.8715067"><ele>289.6666666666667</ele><time>2026-04-25T10:10:54.356Z</time></trkpt><trkpt lat="45.5425583" lon="10.871485"><ele>290.0</ele><time>2026-04-25T10:10:55.339Z</time></trkpt><trkpt lat="45.5423883" lon="10.8714583"><ele>290.0</ele><time>2026-04-25T10:10:56.341Z</time></trkpt><trkpt lat="45.542215" lon="10.8714417"><ele>290.0</ele><time>2026-04-25T10:10:57.346Z</time></trkpt><trkpt lat="45.5420467" lon="10.8714083"><ele>290.0</ele><time>2026-04-25T10:10:58.335Z</time></trkpt><trkpt lat="45.5418733" lon="10.871375"><ele>289.33333333333337</ele><time>2026-04-25T10:10:59.34Z</time></trkpt><trkpt lat="45.541705" lon="10.8713083"><ele>288.6666666666667</ele><time>2026-04-25T10:11:00.348Z</time></trkpt><trkpt lat="45.5415433" lon="10.8712467"><ele>288.0</ele><time>2026-04-25T10:11:01.34Z</time></trkpt><trkpt lat="45.5414217" lon="10.8711717"><ele>288.0</ele><time>2026-04-25T10:11:02.345Z</time></trkpt><trkpt lat="45.541335" lon="10.8711333"><ele>288.0</ele><time>2026-04-25T10:11:03.356Z</time></trkpt><trkpt lat="45.5412633" lon="10.87108"><ele>288.0</ele><time>2026-04-25T10:11:04.341Z</time></trkpt><trkpt lat="45.5412433" lon="10.8709417"><ele>288.0</ele><time>2026-04-25T10:11:06.355Z</time></trkpt><trkpt lat="45.5414267" lon="10.8709717"><ele>288.0</ele><time>2026-04-25T10:11:08.335Z</time></trkpt><trkpt lat="45.541525" lon="10.8710433"><ele>288.0</ele><time>2026-04-25T10:11:09.353Z</time></trkpt><trkpt lat="45.5416267" lon="10.8711167"><ele>288.0</ele><time>2026-04-25T10:11:10.347Z</time></trkpt><trkpt lat="45.5417583" lon="10.8711833"><ele>288.0</ele><time>2026-04-25T10:11:11.344Z</time></trkpt><trkpt lat="45.5419317" lon="10.8711767"><ele>288.6666666666667</ele><time>2026-04-25T10:11:12.346Z</time></trkpt><trkpt lat="45.5421067" lon="10.8711167"><ele>289.33333333333337</ele><time>2026-04-25T10:11:13.351Z</time></trkpt><trkpt lat="45.542295" lon="10.8710633"><ele>290.0</ele><time>2026-04-25T10:11:14.339Z</time></trkpt><trkpt lat="45.5424733" lon="10.87101"><ele>290.0</ele><time>2026-04-25T10:11:15.338Z</time></trkpt><trkpt lat="45.5426867" lon="10.87095"><ele>290.0</ele><time>2026-04-25T10:11:16.351Z</time></trkpt><trkpt lat="45.5428867" lon="10.87091"><ele>290.0</ele><time>2026-04-25T10:11:17.347Z</time></trkpt><trkpt lat="45.5430567" lon="10.8708767"><ele>294.8</ele><time>2026-04-25T10:11:18.34Z</time></trkpt><trkpt lat="45.543215" lon="10.8708417"><ele>299.6</ele><time>2026-04-25T10:11:19.352Z</time></trkpt><trkpt lat="45.5433083" lon="10.870815"><ele>304.4</ele><time>2026-04-25T10:11:20.347Z</time></trkpt><trkpt lat="45.5433967" lon="10.870785"><ele>309.2</ele><time>2026-04-25T10:11:21.347Z</time></trkpt><trkpt lat="45.5434633" lon="10.8707317"><ele>314.0</ele><time>2026-04-25T10:11:22.368Z</time></trkpt><trkpt lat="45.5434367" lon="10.8706483"><ele>314.0</ele><time>2026-04-25T10:11:23.356Z</time></trkpt><trkpt lat="45.5433783" lon="10.8705917"><ele>314.0</ele><time>2026-04-25T10:11:24.358Z</time></trkpt><trkpt lat="45.54328" lon="10.870555"><ele>314.0</ele><time>2026-04-25T10:11:25.353Z</time></trkpt><trkpt lat="45.5431767" lon="10.8705433"><ele>314.0</ele><time>2026-04-25T10:11:26.355Z</time></trkpt><trkpt lat="45.5430483" lon="10.870535"><ele>314.0</ele><time>2026-04-25T10:11:27.399Z</time></trkpt><trkpt lat="45.5427483" lon="10.8704817"><ele>314.0</ele><time>2026-04-25T10:11:29.353Z</time></trkpt><trkpt lat="45.5425867" lon="10.8704383"><ele>314.0</ele><time>2026-04-25T10:11:30.345Z</time></trkpt><trkpt lat="45.542415" lon="10.8703417"><ele>314.0</ele><time>2026-04-25T10:11:31.346Z</time></trkpt><trkpt lat="45.5422317" lon="10.87026"><ele>314.0</ele><time>2026-04-25T10:11:32.351Z</time></trkpt><trkpt lat="45.5420717" lon="10.8701267"><ele>314.0</ele><time>2026-04-25T10:11:33.347Z</time></trkpt><trkpt lat="45.54191" lon="10.869965"><ele>314.0</ele><time>2026-04-25T10:11:34.346Z</time></trkpt><trkpt lat="45.5417467" lon="10.869775"><ele>318.33333333333337</ele><time>2026-04-25T10:11:35.367Z</time></trkpt><trkpt lat="45.5416083" lon="10.8696033"><ele>322.6666666666667</ele><time>2026-04-25T10:11:36.351Z</time></trkpt><trkpt lat="45.5414817" lon="10.8694567"><ele>327.0</ele><time>2026-04-25T10:11:37.345Z</time></trkpt><trkpt lat="45.5413867" lon="10.8693667"><ele>327.0</ele><time>2026-04-25T10:11:38.346Z</time></trkpt><trkpt lat="45.5412967" lon="10.8692617"><ele>327.0</ele><time>2026-04-25T10:11:39.34Z</time></trkpt><trkpt lat="45.54134" lon="10.8691717"><ele>327.0</ele><time>2026-04-25T10:11:42.342Z</time></trkpt><trkpt lat="45.5414217" lon="10.8692067"><ele>327.0</ele><time>2026-04-25T10:11:43.341Z</time></trkpt><trkpt lat="45.5415067" lon="10.8692983"><ele>327.0</ele><time>2026-04-25T10:11:44.349Z</time></trkpt><trkpt lat="45.541595" lon="10.8694067"><ele>327.0</ele><time>2026-04-25T10:11:45.347Z</time></trkpt><trkpt lat="45.541725" lon="10.8695467"><ele>327.0</ele><time>2026-04-25T10:11:46.342Z</time></trkpt><trkpt lat="45.5418533" lon="10.8696867"><ele>327.0</ele><time>2026-04-25T10:11:47.381Z</time></trkpt><trkpt lat="45.5420017" lon="10.8697883"><ele>331.0</ele><time>2026-04-25T10:11:48.349Z</time></trkpt><trkpt lat="45.5421733" lon="10.8698667"><ele>335.0</ele><time>2026-04-25T10:11:49.346Z</time></trkpt><trkpt lat="45.542365" lon="10.86989"><ele>339.0</ele><time>2026-04-25T10:11:50.335Z</time></trkpt><trkpt lat="45.542585" lon="10.8698533"><ele>339.0</ele><time>2026-04-25T10:11:51.344Z</time></trkpt><trkpt lat="45.5428" lon="10.869815"><ele>339.0</ele><time>2026-04-25T10:11:52.34Z</time></trkpt><trkpt lat="45.5430017" lon="10.8697633"><ele>339.0</ele><time>2026-04-25T10:11:53.355Z</time></trkpt><trkpt lat="45.5431867" lon="10.869695"><ele>338.6666666666667</ele><time>2026-04-25T10:11:54.404Z</time></trkpt><trkpt lat="45.543355" lon="10.8696467"><ele>338.33333333333337</ele><time>2026-04-25T10:11:55.395Z</time></trkpt><trkpt lat="45.5434883" lon="10.869595"><ele>338.0</ele><time>2026-04-25T10:11:56.338Z</time></trkpt><trkpt lat="45.5436217" lon="10.8694967"><ele>336.0</ele><time>2026-04-25T10:11:57.342Z</time></trkpt><trkpt lat="45.54373" lon="10.8693567"><ele>334.0</ele><time>2026-04-25T10:11:58.347Z</time></trkpt><trkpt lat="45.543855" lon="10.8692117"><ele>332.0</ele><time>2026-04-25T10:11:59.347Z</time></trkpt><trkpt lat="45.5439783" lon="10.8690683"><ele>337.25</ele><time>2026-04-25T10:12:00.345Z</time></trkpt><trkpt lat="45.5440883" lon="10.8689833"><ele>342.5</ele><time>2026-04-25T10:12:01.347Z</time></trkpt><trkpt lat="45.5442183" lon="10.8688867"><ele>347.75</ele><time>2026-04-25T10:12:02.364Z</time></trkpt><trkpt lat="45.5443317" lon="10.8688483"><ele>353.0</ele><time>2026-04-25T10:12:03.347Z</time></trkpt><trkpt lat="45.5444733" lon="10.86883"><ele>354.75</ele><time>2026-04-25T10:12:04.335Z</time></trkpt><trkpt lat="45.5446083" lon="10.8688"><ele>356.5</ele><time>2026-04-25T10:12:05.339Z</time></trkpt><trkpt lat="45.5447433" lon="10.8687583"><ele>358.25</ele><time>2026-04-25T10:12:06.343Z</time></trkpt><trkpt lat="45.544885" lon="10.8687167"><ele>360.0</ele><time>2026-04-25T10:12:07.354Z</time></trkpt><trkpt lat="45.5450267" lon="10.868675"><ele>360.0</ele><time>2026-04-25T10:12:08.349Z</time></trkpt><trkpt lat="45.5451533" lon="10.868655"><ele>360.0</ele><time>2026-04-25T10:12:09.34Z</time></trkpt><trkpt lat="45.5452583" lon="10.8686633"><ele>360.0</ele><time>2026-04-25T10:12:10.349Z</time></trkpt><trkpt lat="45.5453483" lon="10.8687"><ele>360.0</ele><time>2026-04-25T10:12:11.338Z</time></trkpt><trkpt lat="45.5453833" lon="10.8688233"><ele>360.0</ele><time>2026-04-25T10:12:12.344Z</time></trkpt><trkpt lat="45.5454133" lon="10.8689683"><ele>360.75</ele><time>2026-04-25T10:12:13.37Z</time></trkpt><trkpt lat="45.545455" lon="10.86912"><ele>361.5</ele><time>2026-04-25T10:12:14.352Z</time></trkpt><trkpt lat="45.5455217" lon="10.8692717"><ele>362.25</ele><time>2026-04-25T10:12:15.36Z</time></trkpt><trkpt lat="45.54562" lon="10.8694117"><ele>363.0</ele><time>2026-04-25T10:12:16.342Z</time></trkpt><trkpt lat="45.5457383" lon="10.869535"><ele>363.0</ele><time>2026-04-25T10:12:17.341Z</time></trkpt><trkpt lat="45.5458633" lon="10.8696467"><ele>363.0</ele><time>2026-04-25T10:12:18.339Z</time></trkpt><trkpt lat="45.546015" lon="10.86969"><ele>363.0</ele><time>2026-04-25T10:12:19.347Z</time></trkpt><trkpt lat="45.5461633" lon="10.8697067"><ele>364.3333333333333</ele><time>2026-04-25T10:12:20.349Z</time></trkpt><trkpt lat="45.5463367" lon="10.869665"><ele>365.66666666666663</ele><time>2026-04-25T10:12:21.346Z</time></trkpt><trkpt lat="45.5465133" lon="10.8696167"><ele>367.0</ele><time>2026-04-25T10:12:22.332Z</time></trkpt><trkpt lat="45.5466983" lon="10.8695233"><ele>367.0</ele><time>2026-04-25T10:12:23.355Z</time></trkpt><trkpt lat="45.5468617" lon="10.8694633"><ele>367.0</ele><time>2026-04-25T10:12:24.341Z</time></trkpt><trkpt lat="45.5469817" lon="10.8694467"><ele>367.0</ele><time>2026-04-25T10:12:25.343Z</time></trkpt><trkpt lat="45.5470667" lon="10.8694167"><ele>367.0</ele><time>2026-04-25T10:12:26.351Z</time></trkpt><trkpt lat="45.54712" lon="10.8693683"><ele>367.0</ele><time>2026-04-25T10:12:27.349Z</time></trkpt><trkpt lat="45.54716" lon="10.8692367"><ele>372.5</ele><time>2026-04-25T10:12:29.347Z</time></trkpt><trkpt lat="45.5470417" lon="10.8691017"><ele>378.0</ele><time>2026-04-25T10:12:31.342Z</time></trkpt><trkpt lat="45.5469283" lon="10.869115"><ele>383.5</ele><time>2026-04-25T10:12:32.361Z</time></trkpt><trkpt lat="45.5467817" lon="10.8691817"><ele>389.0</ele><time>2026-04-25T10:12:33.35Z</time></trkpt><trkpt lat="45.5466233" lon="10.869235"><ele>389.0</ele><time>2026-04-25T10:12:34.348Z</time></trkpt><trkpt lat="45.5464817" lon="10.8692583"><ele>389.0</ele><time>2026-04-25T10:12:35.347Z</time></trkpt><trkpt lat="45.54634" lon="10.869275"><ele>389.0</ele><time>2026-04-25T10:12:36.349Z</time></trkpt><trkpt lat="45.5462067" lon="10.8692067"><ele>389.0</ele><time>2026-04-25T10:12:37.338Z</time></trkpt><trkpt lat="45.54608" lon="10.8690967"><ele>390.75</ele><time>2026-04-25T10:12:38.352Z</time></trkpt><trkpt lat="45.5459767" lon="10.868975"><ele>392.5</ele><time>2026-04-25T10:12:39.351Z</time></trkpt><trkpt lat="45.545905" lon="10.8687933"><ele>394.25</ele><time>2026-04-25T10:12:40.345Z</time></trkpt><trkpt lat="45.5458383" lon="10.8685817"><ele>396.0</ele><time>2026-04-25T10:12:41.337Z</time></trkpt><trkpt lat="45.54574" lon="10.8683967"><ele>396.0</ele><time>2026-04-25T10:12:42.342Z</time></trkpt><trkpt lat="45.5456217" lon="10.8682033"><ele>396.0</ele><time>2026-04-25T10:12:43.347Z</time></trkpt><trkpt lat="45.5455317" lon="10.8680433"><ele>396.0</ele><time>2026-04-25T10:12:44.339Z</time></trkpt><trkpt lat="45.5453967" lon="10.8679433"><ele>391.6666666666667</ele><time>2026-04-25T10:12:45.352Z</time></trkpt><trkpt lat="45.5452667" lon="10.867835"><ele>387.33333333333337</ele><time>2026-04-25T10:12:46.339Z</time></trkpt><trkpt lat="45.5451083" lon="10.8677783"><ele>383.0</ele><time>2026-04-25T10:12:47.346Z</time></trkpt><trkpt lat="45.5449367" lon="10.867745"><ele>383.0</ele><time>2026-04-25T10:12:48.346Z</time></trkpt><trkpt lat="45.5447667" lon="10.86774"><ele>383.0</ele><time>2026-04-25T10:12:49.341Z</time></trkpt><trkpt lat="45.5445983" lon="10.8677383"><ele>383.0</ele><time>2026-04-25T10:12:50.349Z</time></trkpt><trkpt lat="45.5444433" lon="10.8677367"><ele>382.0</ele><time>2026-04-25T10:12:51.367Z</time></trkpt><trkpt lat="45.5443017" lon="10.8677367"><ele>381.0</ele><time>2026-04-25T10:12:52.349Z</time></trkpt><trkpt lat="45.5441667" lon="10.8677367"><ele>380.0</ele><time>2026-04-25T10:12:53.352Z</time></trkpt><trkpt lat="45.5440317" lon="10.8677183"><ele>379.0</ele><time>2026-04-25T10:12:54.341Z</time></trkpt><trkpt lat="45.5438983" lon="10.8676733"><ele>379.0</ele><time>2026-04-25T10:12:55.348Z</time></trkpt><trkpt lat="45.54378" lon="10.8676167"><ele>379.0</ele><time>2026-04-25T10:12:56.347Z</time></trkpt><trkpt lat="45.5436733" lon="10.8675617"><ele>379.0</ele><time>2026-04-25T10:12:57.341Z</time></trkpt><trkpt lat="45.5435733" lon="10.8674917"><ele>379.0</ele><time>2026-04-25T10:12:58.343Z</time></trkpt><trkpt lat="45.543485" lon="10.8674017"><ele>383.25</ele><time>2026-04-25T10:12:59.342Z</time></trkpt><trkpt lat="45.5434067" lon="10.8672833"><ele>387.5</ele><time>2026-04-25T10:13:00.34Z</time></trkpt><trkpt lat="45.54334" lon="10.8671617"><ele>391.75</ele><time>2026-04-25T10:13:01.347Z</time></trkpt><trkpt lat="45.54332" lon="10.8669867"><ele>396.0</ele><time>2026-04-25T10:13:02.345Z</time></trkpt><trkpt lat="45.5433117" lon="10.8668"><ele>397.5</ele><time>2026-04-25T10:13:03.342Z</time></trkpt><trkpt lat="45.5433017" lon="10.8666017"><ele>399.0</ele><time>2026-04-25T10:13:04.343Z</time></trkpt><trkpt lat="45.5432783" lon="10.8663917"><ele>400.5</ele><time>2026-04-25T10:13:05.345Z</time></trkpt><trkpt lat="45.5432617" lon="10.8662033"><ele>402.0</ele><time>2026-04-25T10:13:06.357Z</time></trkpt><trkpt lat="45.5432533" lon="10.86603"><ele>402.0</ele><time>2026-04-25T10:13:07.345Z</time></trkpt><trkpt lat="45.5432583" lon="10.8658633"><ele>402.0</ele><time>2026-04-25T10:13:08.339Z</time></trkpt><trkpt lat="45.543275" lon="10.8656983"><ele>402.0</ele><time>2026-04-25T10:13:09.354Z</time></trkpt><trkpt lat="45.543395" lon="10.8653833"><ele>402.0</ele><time>2026-04-25T10:13:11.343Z</time></trkpt><trkpt lat="45.5434833" lon="10.865225"><ele>402.0</ele><time>2026-04-25T10:13:12.351Z</time></trkpt><trkpt lat="45.5435783" lon="10.8650617"><ele>402.0</ele><time>2026-04-25T10:13:13.347Z</time></trkpt><trkpt lat="45.5436767" lon="10.8649067"><ele>402.0</ele><time>2026-04-25T10:13:14.374Z</time></trkpt><trkpt lat="45.54378" lon="10.864775"><ele>404.25</ele><time>2026-04-25T10:13:15.333Z</time></trkpt><trkpt lat="45.5439" lon="10.864685"><ele>406.5</ele><time>2026-04-25T10:13:16.345Z</time></trkpt><trkpt lat="45.5440267" lon="10.8646317"><ele>408.75</ele><time>2026-04-25T10:13:17.348Z</time></trkpt><trkpt lat="45.5441817" lon="10.8646133"><ele>411.0</ele><time>2026-04-25T10:13:18.359Z</time></trkpt><trkpt lat="45.5443117" lon="10.8646317"><ele>411.0</ele><time>2026-04-25T10:13:19.354Z</time></trkpt><trkpt lat="45.5444567" lon="10.8646883"><ele>411.0</ele><time>2026-04-25T10:13:20.337Z</time></trkpt><trkpt lat="45.5445883" lon="10.8647867"><ele>411.0</ele><time>2026-04-25T10:13:21.353Z</time></trkpt><trkpt lat="45.5447117" lon="10.8649417"><ele>414.0</ele><time>2026-04-25T10:13:22.36Z</time></trkpt><trkpt lat="45.5448133" lon="10.8651067"><ele>417.0</ele><time>2026-04-25T10:13:23.363Z</time></trkpt><trkpt lat="45.5449083" lon="10.86528"><ele>420.0</ele><time>2026-04-25T10:13:24.364Z</time></trkpt><trkpt lat="45.5450117" lon="10.8654467"><ele>420.5</ele><time>2026-04-25T10:13:25.352Z</time></trkpt><trkpt lat="45.5451117" lon="10.865615"><ele>421.0</ele><time>2026-04-25T10:13:26.356Z</time></trkpt><trkpt lat="45.545205" lon="10.865775"><ele>421.5</ele><time>2026-04-25T10:13:27.349Z</time></trkpt><trkpt lat="45.5452933" lon="10.865915"><ele>422.0</ele><time>2026-04-25T10:13:28.337Z</time></trkpt><trkpt lat="45.545385" lon="10.866035"><ele>423.75</ele><time>2026-04-25T10:13:29.346Z</time></trkpt><trkpt lat="45.5454817" lon="10.86614"><ele>425.5</ele><time>2026-04-25T10:13:30.342Z</time></trkpt><trkpt lat="45.54558" lon="10.8662417"><ele>427.25</ele><time>2026-04-25T10:13:31.345Z</time></trkpt><trkpt lat="45.5457033" lon="10.86633"><ele>429.0</ele><time>2026-04-25T10:13:32.361Z</time></trkpt><trkpt lat="45.545825" lon="10.8664217"><ele>429.0</ele><time>2026-04-25T10:13:33.806Z</time></trkpt><trkpt lat="45.5459467" lon="10.8665167"><ele>429.0</ele><time>2026-04-25T10:13:34.766Z</time></trkpt><trkpt lat="45.5460883" lon="10.8666217"><ele>429.0</ele><time>2026-04-25T10:13:35.769Z</time></trkpt><trkpt lat="45.5462383" lon="10.8667083"><ele>428.0</ele><time>2026-04-25T10:13:36.761Z</time></trkpt><trkpt lat="45.5463833" lon="10.8668083"><ele>427.0</ele><time>2026-04-25T10:13:37.761Z</time></trkpt><trkpt lat="45.5465267" lon="10.8669067"><ele>426.0</ele><time>2026-04-25T10:13:38.751Z</time></trkpt><trkpt lat="45.5466683" lon="10.8669867"><ele>426.0</ele><time>2026-04-25T10:13:39.758Z</time></trkpt><trkpt lat="45.5468233" lon="10.86706"><ele>426.0</ele><time>2026-04-25T10:13:40.755Z</time></trkpt><trkpt lat="45.5469817" lon="10.8671267"><ele>426.0</ele><time>2026-04-25T10:13:41.756Z</time></trkpt><trkpt lat="45.5471283" lon="10.86719"><ele>429.25</ele><time>2026-04-25T10:13:42.78Z</time></trkpt><trkpt lat="45.5472583" lon="10.867245"><ele>432.5</ele><time>2026-04-25T10:13:43.779Z</time></trkpt><trkpt lat="45.54737" lon="10.86728"><ele>435.75</ele><time>2026-04-25T10:13:44.769Z</time></trkpt><trkpt lat="45.5474783" lon="10.86729"><ele>439.0</ele><time>2026-04-25T10:13:45.754Z</time></trkpt><trkpt lat="45.547585" lon="10.86728"><ele>439.0</ele><time>2026-04-25T10:13:46.751Z</time></trkpt><trkpt lat="45.5476967" lon="10.8671867"><ele>439.0</ele><time>2026-04-25T10:13:47.898Z</time></trkpt><trkpt lat="45.5478017" lon="10.8670667"><ele>439.0</ele><time>2026-04-25T10:13:48.891Z</time></trkpt><trkpt lat="45.5479117" lon="10.866935"><ele>439.0</ele><time>2026-04-25T10:13:49.903Z</time></trkpt><trkpt lat="45.54803" lon="10.8667867"><ele>442.33333333333337</ele><time>2026-04-25T10:13:50.901Z</time></trkpt><trkpt lat="45.548155" lon="10.866645"><ele>445.66666666666663</ele><time>2026-04-25T10:13:51.892Z</time></trkpt><trkpt lat="45.54829" lon="10.8665133"><ele>449.0</ele><time>2026-04-25T10:13:52.894Z</time></trkpt><trkpt lat="45.54843" lon="10.8664017"><ele>449.0</ele><time>2026-04-25T10:13:53.898Z</time></trkpt><trkpt lat="45.5485817" lon="10.8663033"><ele>449.0</ele><time>2026-04-25T10:13:54.958Z</time></trkpt><trkpt lat="45.5487333" lon="10.8662117"><ele>449.0</ele><time>2026-04-25T10:13:55.902Z</time></trkpt><trkpt lat="45.548875" lon="10.8661267"><ele>449.0</ele><time>2026-04-25T10:13:56.894Z</time></trkpt><trkpt lat="45.5490033" lon="10.866055"><ele>449.0</ele><time>2026-04-25T10:13:57.893Z</time></trkpt><trkpt lat="45.5491183" lon="10.8659933"><ele>449.0</ele><time>2026-04-25T10:13:58.9Z</time></trkpt><trkpt lat="45.549225" lon="10.8659383"><ele>449.0</ele><time>2026-04-25T10:13:59.911Z</time></trkpt><trkpt lat="45.549325" lon="10.8658833"><ele>449.0</ele><time>2026-04-25T10:14:00.9Z</time></trkpt><trkpt lat="45.5494183" lon="10.8658333"><ele>449.0</ele><time>2026-04-25T10:14:01.89Z</time></trkpt><trkpt lat="45.5495217" lon="10.8657817"><ele>449.0</ele><time>2026-04-25T10:14:02.897Z</time></trkpt><trkpt lat="45.5496367" lon="10.865725"><ele>449.0</ele><time>2026-04-25T10:14:03.898Z</time></trkpt><trkpt lat="45.5497633" lon="10.8656633"><ele>448.75</ele><time>2026-04-25T10:14:04.895Z</time></trkpt><trkpt lat="45.5498967" lon="10.8656017"><ele>448.5</ele><time>2026-04-25T10:14:05.894Z</time></trkpt><trkpt lat="45.550035" lon="10.8655517"><ele>448.25</ele><time>2026-04-25T10:14:06.895Z</time></trkpt><trkpt lat="45.5501783" lon="10.8655267"><ele>448.0</ele><time>2026-04-25T10:14:07.885Z</time></trkpt><trkpt lat="45.550315" lon="10.8655283"><ele>449.0</ele><time>2026-04-25T10:14:08.886Z</time></trkpt><trkpt lat="45.5504517" lon="10.865555"><ele>450.0</ele><time>2026-04-25T10:14:09.896Z</time></trkpt><trkpt lat="45.5505867" lon="10.8656167"><ele>451.0</ele><time>2026-04-25T10:14:10.903Z</time></trkpt><trkpt lat="45.550725" lon="10.8657217"><ele>452.0</ele><time>2026-04-25T10:14:11.894Z</time></trkpt><trkpt lat="45.550865" lon="10.8658433"><ele>452.0</ele><time>2026-04-25T10:14:12.895Z</time></trkpt><trkpt lat="45.55101" lon="10.865935"><ele>452.0</ele><time>2026-04-25T10:14:13.903Z</time></trkpt><trkpt lat="45.5511533" lon="10.86604"><ele>452.0</ele><time>2026-04-25T10:14:14.889Z</time></trkpt><trkpt lat="45.551275" lon="10.8661333"><ele>451.75</ele><time>2026-04-25T10:14:15.889Z</time></trkpt><trkpt lat="45.55141" lon="10.8662133"><ele>451.5</ele><time>2026-04-25T10:14:16.909Z</time></trkpt><trkpt lat="45.5515283" lon="10.8662583"><ele>451.25</ele><time>2026-04-25T10:14:17.911Z</time></trkpt><trkpt lat="45.5516617" lon="10.8662817"><ele>451.0</ele><time>2026-04-25T10:14:18.903Z</time></trkpt><trkpt lat="45.5517833" lon="10.8662717"><ele>451.0</ele><time>2026-04-25T10:14:19.917Z</time></trkpt><trkpt lat="45.5519283" lon="10.86622"><ele>451.0</ele><time>2026-04-25T10:14:20.904Z</time></trkpt><trkpt lat="45.55206" lon="10.8661683"><ele>451.0</ele><time>2026-04-25T10:14:21.902Z</time></trkpt><trkpt lat="45.5522017" lon="10.8661617"><ele>451.0</ele><time>2026-04-25T10:14:22.894Z</time></trkpt><trkpt lat="45.552325" lon="10.866165"><ele>450.0</ele><time>2026-04-25T10:14:23.894Z</time></trkpt><trkpt lat="45.55245" lon="10.8661767"><ele>449.0</ele><time>2026-04-25T10:14:24.894Z</time></trkpt><trkpt lat="45.5525733" lon="10.866215"><ele>448.0</ele><time>2026-04-25T10:14:25.895Z</time></trkpt><trkpt lat="45.55273" lon="10.8662517"><ele>447.0</ele><time>2026-04-25T10:14:26.888Z</time></trkpt><trkpt lat="45.55287" lon="10.8662817"><ele>447.33333333333337</ele><time>2026-04-25T10:14:27.9Z</time></trkpt><trkpt lat="45.55303" lon="10.866305"><ele>447.6666666666667</ele><time>2026-04-25T10:14:28.889Z</time></trkpt><trkpt lat="45.5531767" lon="10.8663267"><ele>448.0</ele><time>2026-04-25T10:14:29.897Z</time></trkpt><trkpt lat="45.5533233" lon="10.8663117"><ele>448.0</ele><time>2026-04-25T10:14:30.894Z</time></trkpt><trkpt lat="45.5534767" lon="10.86631"><ele>448.0</ele><time>2026-04-25T10:14:31.892Z</time></trkpt><trkpt lat="45.553615" lon="10.8663"><ele>448.0</ele><time>2026-04-25T10:14:32.891Z</time></trkpt><trkpt lat="45.55373" lon="10.8662517"><ele>448.0</ele><time>2026-04-25T10:14:33.887Z</time></trkpt><trkpt lat="45.5538083" lon="10.8662167"><ele>447.0</ele><time>2026-04-25T10:14:34.895Z</time></trkpt><trkpt lat="45.5539017" lon="10.8662083"><ele>445.99999999999994</ele><time>2026-04-25T10:14:36.895Z</time></trkpt><trkpt lat="45.5539833" lon="10.8661517"><ele>444.99999999999994</ele><time>2026-04-25T10:14:51.893Z</time></trkpt><trkpt lat="45.5540483" lon="10.8661267"><ele>444.0</ele><time>2026-04-25T10:14:52.904Z</time></trkpt><trkpt lat="45.5541367" lon="10.8661083"><ele>443.0</ele><time>2026-04-25T10:14:53.893Z</time></trkpt><trkpt lat="45.5542533" lon="10.86609"><ele>443.0</ele><time>2026-04-25T10:14:54.899Z</time></trkpt><trkpt lat="45.5543817" lon="10.8660817"><ele>443.0</ele><time>2026-04-25T10:14:55.888Z</time></trkpt><trkpt lat="45.5545167" lon="10.8660567"><ele>443.0</ele><time>2026-04-25T10:14:56.894Z</time></trkpt><trkpt lat="45.5546683" lon="10.8660467"><ele>443.0</ele><time>2026-04-25T10:14:57.898Z</time></trkpt><trkpt lat="45.55482" lon="10.86607"><ele>445.66666666666663</ele><time>2026-04-25T10:14:58.891Z</time></trkpt><trkpt lat="45.5549783" lon="10.8661367"><ele>448.33333333333337</ele><time>2026-04-25T10:14:59.899Z</time></trkpt><trkpt lat="45.5551283" lon="10.8662433"><ele>451.0</ele><time>2026-04-25T10:15:00.899Z</time></trkpt><trkpt lat="45.555255" lon="10.8663917"><ele>451.0</ele><time>2026-04-25T10:15:01.898Z</time></trkpt><trkpt lat="45.5553633" lon="10.866555"><ele>451.0</ele><time>2026-04-25T10:15:02.889Z</time></trkpt><trkpt lat="45.5554717" lon="10.8667017"><ele>451.0</ele><time>2026-04-25T10:15:03.9Z</time></trkpt><trkpt lat="45.555575" lon="10.8668417"><ele>451.0</ele><time>2026-04-25T10:15:04.904Z</time></trkpt><trkpt lat="45.5557233" lon="10.8668533"><ele>447.6666666666667</ele><time>2026-04-25T10:15:05.901Z</time></trkpt><trkpt lat="45.5558933" lon="10.8668817"><ele>444.33333333333337</ele><time>2026-04-25T10:15:06.889Z</time></trkpt><trkpt lat="45.55607" lon="10.8668967"><ele>441.0</ele><time>2026-04-25T10:15:07.895Z</time></trkpt><trkpt lat="45.5562233" lon="10.8668867"><ele>440.33333333333337</ele><time>2026-04-25T10:15:08.892Z</time></trkpt><trkpt lat="45.55636" lon="10.8668083"><ele>439.6666666666667</ele><time>2026-04-25T10:15:09.918Z</time></trkpt><trkpt lat="45.55648" lon="10.8666767"><ele>439.0</ele><time>2026-04-25T10:15:10.908Z</time></trkpt><trkpt lat="45.5566083" lon="10.8664833"><ele>441.33333333333337</ele><time>2026-04-25T10:15:11.9Z</time></trkpt><trkpt lat="45.5567717" lon="10.8663433"><ele>443.66666666666663</ele><time>2026-04-25T10:15:12.905Z</time></trkpt><trkpt lat="45.5569283" lon="10.866235"><ele>446.0</ele><time>2026-04-25T10:15:13.898Z</time></trkpt><trkpt lat="45.5571067" lon="10.8661617"><ele>446.0</ele><time>2026-04-25T10:15:14.889Z</time></trkpt><trkpt lat="45.5572933" lon="10.8660683"><ele>446.0</ele><time>2026-04-25T10:15:15.899Z</time></trkpt><trkpt lat="45.557475" lon="10.8659667"><ele>446.0</ele><time>2026-04-25T10:15:16.899Z</time></trkpt><trkpt lat="45.5576517" lon="10.86583"><ele>452.66666666666663</ele><time>2026-04-25T10:15:17.897Z</time></trkpt><trkpt lat="45.557825" lon="10.8656833"><ele>459.33333333333337</ele><time>2026-04-25T10:15:18.894Z</time></trkpt><trkpt lat="45.5579917" lon="10.865585"><ele>466.0</ele><time>2026-04-25T10:15:19.908Z</time></trkpt><trkpt lat="45.5581483" lon="10.8655333"><ele>466.0</ele><time>2026-04-25T10:15:20.897Z</time></trkpt><trkpt lat="45.558335" lon="10.8655283"><ele>466.0</ele><time>2026-04-25T10:15:21.886Z</time></trkpt><trkpt lat="45.5585067" lon="10.8655767"><ele>466.0</ele><time>2026-04-25T10:15:22.889Z</time></trkpt><trkpt lat="45.55869" lon="10.8656517"><ele>463.6666666666667</ele><time>2026-04-25T10:15:23.895Z</time></trkpt><trkpt lat="45.5588767" lon="10.865725"><ele>461.33333333333337</ele><time>2026-04-25T10:15:24.892Z</time></trkpt><trkpt lat="45.559055" lon="10.8658417"><ele>459.0</ele><time>2026-04-25T10:15:25.894Z</time></trkpt><trkpt lat="45.5592317" lon="10.86596"><ele>459.0</ele><time>2026-04-25T10:15:26.895Z</time></trkpt><trkpt lat="45.5593933" lon="10.866105"><ele>459.0</ele><time>2026-04-25T10:15:27.893Z</time></trkpt><trkpt lat="45.5595567" lon="10.8662217"><ele>459.0</ele><time>2026-04-25T10:15:28.882Z</time></trkpt><trkpt lat="45.5597217" lon="10.8663867"><ele>465.66666666666663</ele><time>2026-04-25T10:15:29.893Z</time></trkpt><trkpt lat="45.5598867" lon="10.866525"><ele>472.3333333333333</ele><time>2026-04-25T10:15:30.893Z</time></trkpt><trkpt lat="45.5600383" lon="10.8666417"><ele>479.0</ele><time>2026-04-25T10:15:31.904Z</time></trkpt><trkpt lat="45.5601833" lon="10.8667417"><ele>478.5</ele><time>2026-04-25T10:15:32.893Z</time></trkpt><trkpt lat="45.5603" lon="10.8668367"><ele>478.0</ele><time>2026-04-25T10:15:33.914Z</time></trkpt><trkpt lat="45.5604033" lon="10.866905"><ele>477.5</ele><time>2026-04-25T10:15:34.901Z</time></trkpt><trkpt lat="45.5604883" lon="10.86696"><ele>477.0</ele><time>2026-04-25T10:15:35.894Z</time></trkpt><trkpt lat="45.560595" lon="10.8669933"><ele>477.0</ele><time>2026-04-25T10:15:36.895Z</time></trkpt><trkpt lat="45.560685" lon="10.8669767"><ele>477.00000000000006</ele><time>2026-04-25T10:15:37.895Z</time></trkpt><trkpt lat="45.5607783" lon="10.8669517"><ele>477.00000000000006</ele><time>2026-04-25T10:15:38.892Z</time></trkpt><trkpt lat="45.5608783" lon="10.8668817"><ele>477.0</ele><time>2026-04-25T10:15:39.892Z</time></trkpt><trkpt lat="45.560965" lon="10.866755"><ele>477.0</ele><time>2026-04-25T10:15:40.908Z</time></trkpt><trkpt lat="45.5610667" lon="10.8666183"><ele>480.33333333333337</ele><time>2026-04-25T10:15:41.895Z</time></trkpt><trkpt lat="45.5611767" lon="10.8664767"><ele>483.6666666666667</ele><time>2026-04-25T10:15:42.894Z</time></trkpt><trkpt lat="45.5612983" lon="10.866365"><ele>487.0</ele><time>2026-04-25T10:15:43.903Z</time></trkpt><trkpt lat="45.5614583" lon="10.8662967"><ele>488.33333333333337</ele><time>2026-04-25T10:15:44.891Z</time></trkpt><trkpt lat="45.5616133" lon="10.8662567"><ele>489.66666666666663</ele><time>2026-04-25T10:15:45.896Z</time></trkpt><trkpt lat="45.561785" lon="10.8662367"><ele>491.0</ele><time>2026-04-25T10:15:46.895Z</time></trkpt><trkpt lat="45.5619483" lon="10.8662383"><ele>494.0</ele><time>2026-04-25T10:15:47.903Z</time></trkpt><trkpt lat="45.5621083" lon="10.8663"><ele>497.0</ele><time>2026-04-25T10:15:48.891Z</time></trkpt><trkpt lat="45.56227" lon="10.8663767"><ele>500.0</ele><time>2026-04-25T10:15:49.892Z</time></trkpt><trkpt lat="45.5624233" lon="10.8664917"><ele>500.0</ele><time>2026-04-25T10:15:50.896Z</time></trkpt><trkpt lat="45.5625833" lon="10.8666233"><ele>500.0</ele><time>2026-04-25T10:15:51.896Z</time></trkpt><trkpt lat="45.5627483" lon="10.86674"><ele>500.0</ele><time>2026-04-25T10:15:52.916Z</time></trkpt><trkpt lat="45.56292" lon="10.86685"><ele>501.0</ele><time>2026-04-25T10:15:53.882Z</time></trkpt><trkpt lat="45.5631083" lon="10.8669933"><ele>502.0</ele><time>2026-04-25T10:15:54.898Z</time></trkpt><trkpt lat="45.5633083" lon="10.867115"><ele>503.0</ele><time>2026-04-25T10:15:55.885Z</time></trkpt><trkpt lat="45.5634917" lon="10.867225"><ele>503.0</ele><time>2026-04-25T10:15:56.89Z</time></trkpt><trkpt lat="45.5636717" lon="10.867315"><ele>503.0</ele><time>2026-04-25T10:15:57.896Z</time></trkpt><trkpt lat="45.5638317" lon="10.8673867"><ele>503.0</ele><time>2026-04-25T10:15:58.903Z</time></trkpt><trkpt lat="45.5639583" lon="10.8674367"><ele>505.4</ele><time>2026-04-25T10:15:59.887Z</time></trkpt><trkpt lat="45.564065" lon="10.8674917"><ele>507.79999999999995</ele><time>2026-04-25T10:16:00.912Z</time></trkpt><trkpt lat="45.5641383" lon="10.8675817"><ele>510.2</ele><time>2026-04-25T10:16:01.899Z</time></trkpt><trkpt lat="45.5641567" lon="10.8677067"><ele>512.6</ele><time>2026-04-25T10:16:02.894Z</time></trkpt><trkpt lat="45.564155" lon="10.86784"><ele>515.0</ele><time>2026-04-25T10:16:03.893Z</time></trkpt><trkpt lat="45.5641217" lon="10.8679933"><ele>515.0</ele><time>2026-04-25T10:16:04.9Z</time></trkpt><trkpt lat="45.5640583" lon="10.8681067"><ele>515.0</ele><time>2026-04-25T10:16:05.904Z</time></trkpt><trkpt lat="45.5639533" lon="10.8682467"><ele>515.0</ele><time>2026-04-25T10:16:06.889Z</time></trkpt><trkpt lat="45.5638467" lon="10.8683567"><ele>515.0</ele><time>2026-04-25T10:16:07.895Z</time></trkpt><trkpt lat="45.563775" lon="10.8684917"><ele>514.6</ele><time>2026-04-25T10:16:08.896Z</time></trkpt><trkpt lat="45.5637617" lon="10.8685983"><ele>514.2</ele><time>2026-04-25T10:16:09.894Z</time></trkpt><trkpt lat="45.5638383" lon="10.8687017"><ele>513.8</ele><time>2026-04-25T10:16:10.893Z</time></trkpt><trkpt lat="45.5639233" lon="10.8687733"><ele>513.4</ele><time>2026-04-25T10:16:11.894Z</time></trkpt><trkpt lat="45.5640467" lon="10.86878"><ele>513.0</ele><time>2026-04-25T10:16:12.892Z</time></trkpt><trkpt lat="45.5641933" lon="10.868775"><ele>513.0</ele><time>2026-04-25T10:16:13.895Z</time></trkpt><trkpt lat="45.5643517" lon="10.86878"><ele>513.0</ele><time>2026-04-25T10:16:14.895Z</time></trkpt><trkpt lat="45.56451" lon="10.8687733"><ele>513.0</ele><time>2026-04-25T10:16:15.896Z</time></trkpt><trkpt lat="45.5646833" lon="10.868775"><ele>516.6666666666666</ele><time>2026-04-25T10:16:16.895Z</time></trkpt><trkpt lat="45.564855" lon="10.8688217"><ele>520.3333333333333</ele><time>2026-04-25T10:16:17.889Z</time></trkpt><trkpt lat="45.5650367" lon="10.86887"><ele>524.0</ele><time>2026-04-25T10:16:18.889Z</time></trkpt><trkpt lat="45.5652133" lon="10.868955"><ele>526.3333333333333</ele><time>2026-04-25T10:16:19.888Z</time></trkpt><trkpt lat="45.5653783" lon="10.8690617"><ele>528.6666666666666</ele><time>2026-04-25T10:16:20.9Z</time></trkpt><trkpt lat="45.5655417" lon="10.8691883"><ele>531.0</ele><time>2026-04-25T10:16:21.887Z</time></trkpt><trkpt lat="45.5656983" lon="10.8692933"><ele>531.0</ele><time>2026-04-25T10:16:22.896Z</time></trkpt><trkpt lat="45.5658533" lon="10.8693833"><ele>531.0</ele><time>2026-04-25T10:16:23.896Z</time></trkpt><trkpt lat="45.566005" lon="10.8694267"><ele>531.0</ele><time>2026-04-25T10:16:24.891Z</time></trkpt><trkpt lat="45.5661133" lon="10.8694"><ele>531.0</ele><time>2026-04-25T10:16:25.903Z</time></trkpt><trkpt lat="45.56621" lon="10.8692767"><ele>534.0</ele><time>2026-04-25T10:16:26.892Z</time></trkpt><trkpt lat="45.5663233" lon="10.869165"><ele>537.0</ele><time>2026-04-25T10:16:27.882Z</time></trkpt><trkpt lat="45.5664233" lon="10.8690283"><ele>540.0</ele><time>2026-04-25T10:16:28.894Z</time></trkpt><trkpt lat="45.56653" lon="10.8689233"><ele>543.0</ele><time>2026-04-25T10:16:29.896Z</time></trkpt><trkpt lat="45.566625" lon="10.86886"><ele>543.0</ele><time>2026-04-25T10:16:30.891Z</time></trkpt><trkpt lat="45.56672" lon="10.86885"><ele>543.0</ele><time>2026-04-25T10:16:31.89Z</time></trkpt><trkpt lat="45.5668017" lon="10.86894"><ele>543.0</ele><time>2026-04-25T10:16:32.902Z</time></trkpt><trkpt lat="45.566855" lon="10.8690917"><ele>543.0</ele><time>2026-04-25T10:16:33.893Z</time></trkpt><trkpt lat="45.566895" lon="10.869245"><ele>543.0</ele><time>2026-04-25T10:16:34.898Z</time></trkpt><trkpt lat="45.5669017" lon="10.869465"><ele>543.3333333333334</ele><time>2026-04-25T10:16:35.892Z</time></trkpt><trkpt lat="45.566905" lon="10.8696817"><ele>543.6666666666667</ele><time>2026-04-25T10:16:36.891Z</time></trkpt><trkpt lat="45.56693" lon="10.869895"><ele>544.0</ele><time>2026-04-25T10:16:37.902Z</time></trkpt><trkpt lat="45.5669567" lon="10.8701133"><ele>545.0</ele><time>2026-04-25T10:16:38.889Z</time></trkpt><trkpt lat="45.5670017" lon="10.870345"><ele>546.0</ele><time>2026-04-25T10:16:39.893Z</time></trkpt><trkpt lat="45.5670483" lon="10.8705883"><ele>547.0</ele><time>2026-04-25T10:16:40.888Z</time></trkpt><trkpt lat="45.567085" lon="10.8708267"><ele>554.6666666666667</ele><time>2026-04-25T10:16:41.89Z</time></trkpt><trkpt lat="45.567125" lon="10.8710567"><ele>562.3333333333334</ele><time>2026-04-25T10:16:42.892Z</time></trkpt><trkpt lat="45.5671683" lon="10.8713117"><ele>570.0</ele><time>2026-04-25T10:16:43.892Z</time></trkpt><trkpt lat="45.567195" lon="10.8715383"><ele>570.0</ele><time>2026-04-25T10:16:44.9Z</time></trkpt><trkpt lat="45.5672067" lon="10.87175"><ele>570.0</ele><time>2026-04-25T10:16:45.938Z</time></trkpt><trkpt lat="45.5671717" lon="10.871975"><ele>570.0</ele><time>2026-04-25T10:16:46.912Z</time></trkpt><trkpt lat="45.5671133" lon="10.87219"><ele>571.6666666666666</ele><time>2026-04-25T10:16:47.942Z</time></trkpt><trkpt lat="45.5670333" lon="10.8724117"><ele>573.3333333333333</ele><time>2026-04-25T10:16:48.898Z</time></trkpt><trkpt lat="45.5669717" lon="10.8726533"><ele>575.0</ele><time>2026-04-25T10:16:49.895Z</time></trkpt><trkpt lat="45.5669033" lon="10.8729033"><ele>574.0</ele><time>2026-04-25T10:16:50.892Z</time></trkpt><trkpt lat="45.5668317" lon="10.8731483"><ele>573.0</ele><time>2026-04-25T10:16:51.895Z</time></trkpt><trkpt lat="45.566765" lon="10.8733933"><ele>572.0</ele><time>2026-04-25T10:16:52.894Z</time></trkpt><trkpt lat="45.5667017" lon="10.8736267"><ele>572.0</ele><time>2026-04-25T10:16:53.889Z</time></trkpt><trkpt lat="45.5666483" lon="10.8738583"><ele>572.0</ele><time>2026-04-25T10:16:54.895Z</time></trkpt><trkpt lat="45.5665967" lon="10.874085"><ele>572.0</ele><time>2026-04-25T10:16:55.89Z</time></trkpt><trkpt lat="45.5665467" lon="10.8742933"><ele>575.0</ele><time>2026-04-25T10:16:56.891Z</time></trkpt><trkpt lat="45.56649" lon="10.8744667"><ele>578.0</ele><time>2026-04-25T10:16:57.886Z</time></trkpt><trkpt lat="45.5664217" lon="10.8746133"><ele>581.0</ele><time>2026-04-25T10:16:58.898Z</time></trkpt><trkpt lat="45.566335" lon="10.8747467"><ele>584.0</ele><time>2026-04-25T10:16:59.892Z</time></trkpt><trkpt lat="45.56621" lon="10.8748267"><ele>582.25</ele><time>2026-04-25T10:17:00.888Z</time></trkpt><trkpt lat="45.5660783" lon="10.8748817"><ele>580.5</ele><time>2026-04-25T10:17:01.896Z</time></trkpt><trkpt lat="45.5659467" lon="10.87491"><ele>578.75</ele><time>2026-04-25T10:17:02.885Z</time></trkpt><trkpt lat="45.5658383" lon="10.874945"><ele>577.0</ele><time>2026-04-25T10:17:03.887Z</time></trkpt><trkpt lat="45.565745" lon="10.87499"><ele>579.8000000000001</ele><time>2026-04-25T10:17:04.892Z</time></trkpt><trkpt lat="45.56574" lon="10.875155"><ele>582.6</ele><time>2026-04-25T10:17:06.887Z</time></trkpt><trkpt lat="45.56583" lon="10.875205"><ele>585.4000000000001</ele><time>2026-04-25T10:17:07.9Z</time></trkpt><trkpt lat="45.5659083" lon="10.87523"><ele>588.2</ele><time>2026-04-25T10:17:08.894Z</time></trkpt><trkpt lat="45.5660133" lon="10.8752233"><ele>591.0</ele><time>2026-04-25T10:17:09.895Z</time></trkpt><trkpt lat="45.56615" lon="10.875145"><ele>589.25</ele><time>2026-04-25T10:17:10.892Z</time></trkpt><trkpt lat="45.5662867" lon="10.8750733"><ele>587.5</ele><time>2026-04-25T10:17:11.895Z</time></trkpt><trkpt lat="45.56642" lon="10.8750083"><ele>585.75</ele><time>2026-04-25T10:17:12.896Z</time></trkpt><trkpt lat="45.5665683" lon="10.8749433"><ele>584.0</ele><time>2026-04-25T10:17:13.887Z</time></trkpt><trkpt lat="45.5667317" lon="10.87488"><ele>584.0</ele><time>2026-04-25T10:17:14.895Z</time></trkpt><trkpt lat="45.566905" lon="10.8748233"><ele>584.0</ele><time>2026-04-25T10:17:15.895Z</time></trkpt><trkpt lat="45.5670917" lon="10.8747517"><ele>584.0</ele><time>2026-04-25T10:17:16.886Z</time></trkpt><trkpt lat="45.5672817" lon="10.8746633"><ele>588.0</ele><time>2026-04-25T10:17:17.89Z</time></trkpt><trkpt lat="45.5674683" lon="10.87457"><ele>592.0</ele><time>2026-04-25T10:17:18.893Z</time></trkpt><trkpt lat="45.5676533" lon="10.8745017"><ele>596.0</ele><time>2026-04-25T10:17:19.888Z</time></trkpt><trkpt lat="45.56786" lon="10.8744267"><ele>596.0</ele><time>2026-04-25T10:17:20.919Z</time></trkpt><trkpt lat="45.568055" lon="10.8743583"><ele>596.0</ele><time>2026-04-25T10:17:21.901Z</time></trkpt><trkpt lat="45.5682583" lon="10.8742833"><ele>596.0</ele><time>2026-04-25T10:17:22.893Z</time></trkpt><trkpt lat="45.5684583" lon="10.87422"><ele>596.0</ele><time>2026-04-25T10:17:23.894Z</time></trkpt><trkpt lat="45.5686433" lon="10.8741467"><ele>596.0</ele><time>2026-04-25T10:17:24.89Z</time></trkpt><trkpt lat="45.56879" lon="10.8740733"><ele>596.0</ele><time>2026-04-25T10:17:25.886Z</time></trkpt><trkpt lat="45.56892" lon="10.87403"><ele>597.75</ele><time>2026-04-25T10:17:26.894Z</time></trkpt><trkpt lat="45.5690467" lon="10.8739967"><ele>599.5</ele><time>2026-04-25T10:17:27.895Z</time></trkpt><trkpt lat="45.56916" lon="10.8739517"><ele>601.25</ele><time>2026-04-25T10:17:28.902Z</time></trkpt><trkpt lat="45.5692783" lon="10.8739167"><ele>603.0</ele><time>2026-04-25T10:17:29.899Z</time></trkpt><trkpt lat="45.5693867" lon="10.87391"><ele>603.0</ele><time>2026-04-25T10:17:30.897Z</time></trkpt><trkpt lat="45.5694617" lon="10.87385"><ele>603.0</ele><time>2026-04-25T10:17:31.888Z</time></trkpt><trkpt lat="45.5695283" lon="10.87382"><ele>603.0</ele><time>2026-04-25T10:17:32.908Z</time></trkpt><trkpt lat="45.5695833" lon="10.87377"><ele>603.0</ele><time>2026-04-25T10:17:33.899Z</time></trkpt><trkpt lat="45.5696333" lon="10.87368"><ele>603.0</ele><time>2026-04-25T10:17:35.895Z</time></trkpt><trkpt lat="45.5696883" lon="10.8735667"><ele>603.0</ele><time>2026-04-25T10:17:37.899Z</time></trkpt><trkpt lat="45.569755" lon="10.87341"><ele>602.6666666666666</ele><time>2026-04-25T10:17:39.898Z</time></trkpt><trkpt lat="45.5697917" lon="10.8733133"><ele>602.3333333333334</ele><time>2026-04-25T10:17:40.916Z</time></trkpt><trkpt lat="45.569825" lon="10.873215"><ele>602.0</ele><time>2026-04-25T10:17:41.898Z</time></trkpt><trkpt lat="45.5698433" lon="10.8731167"><ele>601.6666666666667</ele><time>2026-04-25T10:17:42.884Z</time></trkpt><trkpt lat="45.569875" lon="10.87297"><ele>601.3333333333334</ele><time>2026-04-25T10:17:44.906Z</time></trkpt><trkpt lat="45.5698383" lon="10.8728117"><ele>601.0</ele><time>2026-04-25T10:17:54.891Z</time></trkpt><trkpt lat="45.569765" lon="10.872735"><ele>601.0</ele><time>2026-04-25T10:17:56.898Z</time></trkpt><trkpt lat="45.5696517" lon="10.8726817"><ele>601.0</ele><time>2026-04-25T10:17:58.891Z</time></trkpt><trkpt lat="45.5695783" lon="10.87263"><ele>601.0</ele><time>2026-04-25T10:17:59.891Z</time></trkpt><trkpt lat="45.5695117" lon="10.8725767"><ele>601.0</ele><time>2026-04-25T10:18:00.906Z</time></trkpt><trkpt lat="45.56944" lon="10.87253"><ele>601.0</ele><time>2026-04-25T10:18:01.903Z</time></trkpt><trkpt lat="45.569375" lon="10.872495"><ele>601.0</ele><time>2026-04-25T10:18:02.899Z</time></trkpt><trkpt lat="45.5692667" lon="10.87247"><ele>600.1666666666667</ele><time>2026-04-25T10:18:04.888Z</time></trkpt><trkpt lat="45.5692033" lon="10.872445"><ele>599.3333333333334</ele><time>2026-04-25T10:18:06.89Z</time></trkpt><trkpt lat="45.5691267" lon="10.87241"><ele>598.5</ele><time>2026-04-25T10:20:59.888Z</time></trkpt><trkpt lat="45.5691333" lon="10.8722983"><ele>597.6666666666666</ele><time>2026-04-25T10:21:00.892Z</time></trkpt><trkpt lat="45.5691417" lon="10.8721517"><ele>596.8333333333333</ele><time>2026-04-25T10:21:01.891Z</time></trkpt><trkpt lat="45.5691517" lon="10.872005"><ele>596.0</ele><time>2026-04-25T10:21:02.911Z</time></trkpt><trkpt lat="45.5691617" lon="10.8718767"><ele>595.4</ele><time>2026-04-25T10:21:03.905Z</time></trkpt><trkpt lat="45.5691717" lon="10.871765"><ele>594.8</ele><time>2026-04-25T10:21:04.896Z</time></trkpt><trkpt lat="45.5691717" lon="10.8716667"><ele>594.1999999999999</ele><time>2026-04-25T10:21:05.903Z</time></trkpt><trkpt lat="45.5690633" lon="10.8715817"><ele>593.6</ele><time>2026-04-25T10:21:07.893Z</time></trkpt><trkpt lat="45.5689917" lon="10.8715933"><ele>593.0</ele><time>2026-04-25T10:21:08.899Z</time></trkpt><trkpt lat="45.5688983" lon="10.8716983"><ele>593.75</ele><time>2026-04-25T10:21:09.893Z</time></trkpt><trkpt lat="45.5688017" lon="10.8718017"><ele>594.5</ele><time>2026-04-25T10:21:10.903Z</time></trkpt><trkpt lat="45.568695" lon="10.8719017"><ele>595.25</ele><time>2026-04-25T10:21:11.901Z</time></trkpt><trkpt lat="45.56857" lon="10.8720017"><ele>596.0</ele><time>2026-04-25T10:21:12.908Z</time></trkpt><trkpt lat="45.5684567" lon="10.8720933"><ele>594.0</ele><time>2026-04-25T10:21:13.887Z</time></trkpt><trkpt lat="45.5683417" lon="10.8721317"><ele>592.0</ele><time>2026-04-25T10:21:14.899Z</time></trkpt><trkpt lat="45.5682317" lon="10.8721817"><ele>590.0</ele><time>2026-04-25T10:21:15.91Z</time></trkpt><trkpt lat="45.5681183" lon="10.87224"><ele>588.0</ele><time>2026-04-25T10:21:16.894Z</time></trkpt><trkpt lat="45.56801" lon="10.872295"><ele>588.0</ele><time>2026-04-25T10:21:17.893Z</time></trkpt><trkpt lat="45.56791" lon="10.8723533"><ele>588.0</ele><time>2026-04-25T10:21:18.901Z</time></trkpt><trkpt lat="45.56783" lon="10.8724333"><ele>588.0</ele><time>2026-04-25T10:21:19.895Z</time></trkpt><trkpt lat="45.5677533" lon="10.8725117"><ele>588.0</ele><time>2026-04-25T10:21:20.892Z</time></trkpt><trkpt lat="45.56769" lon="10.872645"><ele>588.0</ele><time>2026-04-25T10:21:21.895Z</time></trkpt><trkpt lat="45.5676367" lon="10.87281"><ele>585.75</ele><time>2026-04-25T10:21:22.893Z</time></trkpt><trkpt lat="45.5675817" lon="10.87299"><ele>583.5</ele><time>2026-04-25T10:21:23.893Z</time></trkpt><trkpt lat="45.567515" lon="10.8730967"><ele>581.25</ele><time>2026-04-25T10:21:24.911Z</time></trkpt><trkpt lat="45.56742" lon="10.873185"><ele>579.0</ele><time>2026-04-25T10:21:25.895Z</time></trkpt><trkpt lat="45.56735" lon="10.8733083"><ele>579.0</ele><time>2026-04-25T10:21:26.906Z</time></trkpt><trkpt lat="45.5672533" lon="10.87338"><ele>579.0</ele><time>2026-04-25T10:21:27.893Z</time></trkpt><trkpt lat="45.5671533" lon="10.8734367"><ele>579.0</ele><time>2026-04-25T10:21:28.896Z</time></trkpt><trkpt lat="45.5670467" lon="10.8734833"><ele>579.0</ele><time>2026-04-25T10:21:29.892Z</time></trkpt><trkpt lat="45.566945" lon="10.87354"><ele>579.0</ele><time>2026-04-25T10:21:30.896Z</time></trkpt><trkpt lat="45.56686" lon="10.8735883"><ele>577.6</ele><time>2026-04-25T10:21:31.896Z</time></trkpt><trkpt lat="45.5667983" lon="10.8736117"><ele>576.2</ele><time>2026-04-25T10:21:32.891Z</time></trkpt><trkpt lat="45.5667483" lon="10.8735167"><ele>574.8000000000001</ele><time>2026-04-25T10:21:34.892Z</time></trkpt><trkpt lat="45.5667867" lon="10.8733267"><ele>573.4</ele><time>2026-04-25T10:21:36.901Z</time></trkpt><trkpt lat="45.5668283" lon="10.8732167"><ele>572.0</ele><time>2026-04-25T10:21:37.89Z</time></trkpt><trkpt lat="45.5668767" lon="10.8730917"><ele>572.75</ele><time>2026-04-25T10:21:38.889Z</time></trkpt><trkpt lat="45.56694" lon="10.8729133"><ele>573.5</ele><time>2026-04-25T10:21:39.893Z</time></trkpt><trkpt lat="45.5670017" lon="10.87273"><ele>574.25</ele><time>2026-04-25T10:21:40.896Z</time></trkpt><trkpt lat="45.5670567" lon="10.8725383"><ele>575.0</ele><time>2026-04-25T10:21:41.898Z</time></trkpt><trkpt lat="45.56711" lon="10.8723533"><ele>575.0</ele><time>2026-04-25T10:21:42.893Z</time></trkpt><trkpt lat="45.5671733" lon="10.872135"><ele>575.0</ele><time>2026-04-25T10:21:43.903Z</time></trkpt><trkpt lat="45.56723" lon="10.871905"><ele>575.0</ele><time>2026-04-25T10:21:44.912Z</time></trkpt><trkpt lat="45.5672667" lon="10.8716917"><ele>573.3333333333333</ele><time>2026-04-25T10:21:45.898Z</time></trkpt><trkpt lat="45.567265" lon="10.871465"><ele>571.6666666666666</ele><time>2026-04-25T10:21:46.892Z</time></trkpt><trkpt lat="45.56722" lon="10.8712217"><ele>570.0</ele><time>2026-04-25T10:21:47.888Z</time></trkpt><trkpt lat="45.567165" lon="10.870985"><ele>569.3333333333334</ele><time>2026-04-25T10:21:48.89Z</time></trkpt><trkpt lat="45.5671167" lon="10.8707517"><ele>568.6666666666667</ele><time>2026-04-25T10:21:49.897Z</time></trkpt><trkpt lat="45.567075" lon="10.8705317"><ele>568.0</ele><time>2026-04-25T10:21:50.903Z</time></trkpt><trkpt lat="45.567035" lon="10.8703217"><ele>562.75</ele><time>2026-04-25T10:21:51.887Z</time></trkpt><trkpt lat="45.566995" lon="10.8701217"><ele>557.5</ele><time>2026-04-25T10:21:52.887Z</time></trkpt><trkpt lat="45.5669583" lon="10.869925"><ele>552.25</ele><time>2026-04-25T10:21:53.896Z</time></trkpt><trkpt lat="45.5669317" lon="10.869735"><ele>547.0</ele><time>2026-04-25T10:21:54.896Z</time></trkpt><trkpt lat="45.5669133" lon="10.8695383"><ele>546.25</ele><time>2026-04-25T10:21:55.892Z</time></trkpt><trkpt lat="45.5668967" lon="10.8693483"><ele>545.5</ele><time>2026-04-25T10:21:56.922Z</time></trkpt><trkpt lat="45.56687" lon="10.8691683"><ele>544.75</ele><time>2026-04-25T10:21:57.9Z</time></trkpt><trkpt lat="45.5668317" lon="10.8690133"><ele>544.0</ele><time>2026-04-25T10:21:58.89Z</time></trkpt><trkpt lat="45.5667517" lon="10.8688783"><ele>543.75</ele><time>2026-04-25T10:21:59.902Z</time></trkpt><trkpt lat="45.56666" lon="10.8688367"><ele>543.5</ele><time>2026-04-25T10:22:00.89Z</time></trkpt><trkpt lat="45.5665533" lon="10.86888"><ele>543.25</ele><time>2026-04-25T10:22:01.893Z</time></trkpt><trkpt lat="45.56644" lon="10.8689433"><ele>543.0</ele><time>2026-04-25T10:22:02.894Z</time></trkpt><trkpt lat="45.56634" lon="10.8690633"><ele>543.0</ele><time>2026-04-25T10:22:03.897Z</time></trkpt><trkpt lat="45.5662283" lon="10.8691917"><ele>543.0</ele><time>2026-04-25T10:22:04.89Z</time></trkpt><trkpt lat="45.5661017" lon="10.8693133"><ele>543.0</ele><time>2026-04-25T10:22:05.902Z</time></trkpt><trkpt lat="45.5659783" lon="10.8693683"><ele>543.0</ele><time>2026-04-25T10:22:06.905Z</time></trkpt><trkpt lat="45.56585" lon="10.8693683"><ele>541.0</ele><time>2026-04-25T10:22:07.895Z</time></trkpt><trkpt lat="45.5657133" lon="10.8693283"><ele>539.0</ele><time>2026-04-25T10:22:08.896Z</time></trkpt><trkpt lat="45.5655967" lon="10.8692133"><ele>537.0</ele><time>2026-04-25T10:22:09.896Z</time></trkpt><trkpt lat="45.5654633" lon="10.86912"><ele>535.0</ele><time>2026-04-25T10:22:10.89Z</time></trkpt><trkpt lat="45.5653333" lon="10.8690333"><ele>531.3333333333334</ele><time>2026-04-25T10:22:11.887Z</time></trkpt><trkpt lat="45.5651917" lon="10.8689517"><ele>527.6666666666666</ele><time>2026-04-25T10:22:12.894Z</time></trkpt><trkpt lat="45.56504" lon="10.868875"><ele>524.0</ele><time>2026-04-25T10:22:13.887Z</time></trkpt><trkpt lat="45.564885" lon="10.8688133"><ele>524.0</ele><time>2026-04-25T10:22:14.897Z</time></trkpt><trkpt lat="45.5647283" lon="10.86877"><ele>524.0</ele><time>2026-04-25T10:22:15.894Z</time></trkpt><trkpt lat="45.5645733" lon="10.868745"><ele>524.0</ele><time>2026-04-25T10:22:16.902Z</time></trkpt><trkpt lat="45.5644167" lon="10.8687333"><ele>521.25</ele><time>2026-04-25T10:22:17.891Z</time></trkpt><trkpt lat="45.5642633" lon="10.8687367"><ele>518.5</ele><time>2026-04-25T10:22:18.894Z</time></trkpt><trkpt lat="45.564115" lon="10.8687417"><ele>515.75</ele><time>2026-04-25T10:22:19.886Z</time></trkpt><trkpt lat="45.56397" lon="10.8687467"><ele>513.0</ele><time>2026-04-25T10:22:20.885Z</time></trkpt><trkpt lat="45.56387" lon="10.86871"><ele>513.0</ele><time>2026-04-25T10:22:21.888Z</time></trkpt><trkpt lat="45.5638117" lon="10.868605"><ele>513.0</ele><time>2026-04-25T10:22:22.898Z</time></trkpt><trkpt lat="45.5637783" lon="10.86852"><ele>513.0</ele><time>2026-04-25T10:22:23.896Z</time></trkpt><trkpt lat="45.5638067" lon="10.8684067"><ele>513.0</ele><time>2026-04-25T10:22:24.887Z</time></trkpt><trkpt lat="45.5638533" lon="10.8682917"><ele>513.0</ele><time>2026-04-25T10:22:25.892Z</time></trkpt><trkpt lat="45.5639317" lon="10.8681667"><ele>513.5</ele><time>2026-04-25T10:22:26.887Z</time></trkpt><trkpt lat="45.5640483" lon="10.8680167"><ele>514.0</ele><time>2026-04-25T10:22:27.905Z</time></trkpt><trkpt lat="45.5641417" lon="10.8678933"><ele>514.5</ele><time>2026-04-25T10:22:28.894Z</time></trkpt><trkpt lat="45.564195" lon="10.8677783"><ele>515.0</ele><time>2026-04-25T10:22:29.894Z</time></trkpt><trkpt lat="45.56419" lon="10.8676467"><ele>515.25</ele><time>2026-04-25T10:22:30.888Z</time></trkpt><trkpt lat="45.564105" lon="10.8675383"><ele>515.5</ele><time>2026-04-25T10:22:31.912Z</time></trkpt><trkpt lat="45.5640167" lon="10.86745"><ele>515.75</ele><time>2026-04-25T10:22:32.891Z</time></trkpt><trkpt lat="45.5639183" lon="10.8673617"><ele>516.0</ele><time>2026-04-25T10:22:33.891Z</time></trkpt><trkpt lat="45.5637867" lon="10.8673283"><ele>511.66666666666663</ele><time>2026-04-25T10:22:34.901Z</time></trkpt><trkpt lat="45.56365" lon="10.86726"><ele>507.3333333333333</ele><time>2026-04-25T10:22:35.894Z</time></trkpt><trkpt lat="45.563505" lon="10.867175"><ele>503.0</ele><time>2026-04-25T10:22:36.893Z</time></trkpt><trkpt lat="45.563355" lon="10.8670767"><ele>503.0</ele><time>2026-04-25T10:22:37.902Z</time></trkpt><trkpt lat="45.563205" lon="10.8669983"><ele>503.0</ele><time>2026-04-25T10:22:38.909Z</time></trkpt><trkpt lat="45.5630383" lon="10.8669233"><ele>503.0</ele><time>2026-04-25T10:22:39.896Z</time></trkpt><trkpt lat="45.5628667" lon="10.8668133"><ele>502.0</ele><time>2026-04-25T10:22:40.897Z</time></trkpt><trkpt lat="45.56269" lon="10.8667217"><ele>501.0</ele><time>2026-04-25T10:22:41.895Z</time></trkpt><trkpt lat="45.562535" lon="10.866625"><ele>500.0</ele><time>2026-04-25T10:22:42.889Z</time></trkpt><trkpt lat="45.5623883" lon="10.8665333"><ele>500.0</ele><time>2026-04-25T10:22:43.892Z</time></trkpt><trkpt lat="45.56225" lon="10.866455"><ele>500.0</ele><time>2026-04-25T10:22:44.892Z</time></trkpt><trkpt lat="45.5620883" lon="10.8664033"><ele>500.0</ele><time>2026-04-25T10:22:45.889Z</time></trkpt><trkpt lat="45.5619233" lon="10.8663717"><ele>497.0</ele><time>2026-04-25T10:22:46.903Z</time></trkpt><trkpt lat="45.561755" lon="10.8663433"><ele>494.0</ele><time>2026-04-25T10:22:47.893Z</time></trkpt><trkpt lat="45.56159" lon="10.86631"><ele>491.0</ele><time>2026-04-25T10:22:48.901Z</time></trkpt><trkpt lat="45.5614217" lon="10.8663533"><ele>491.0</ele><time>2026-04-25T10:22:49.888Z</time></trkpt><trkpt lat="45.5612617" lon="10.866435"><ele>491.0</ele><time>2026-04-25T10:22:50.894Z</time></trkpt><trkpt lat="45.561125" lon="10.8665483"><ele>491.0</ele><time>2026-04-25T10:22:51.894Z</time></trkpt><trkpt lat="45.560995" lon="10.866675"><ele>487.5</ele><time>2026-04-25T10:22:52.906Z</time></trkpt><trkpt lat="45.560885" lon="10.8668067"><ele>484.0</ele><time>2026-04-25T10:22:53.894Z</time></trkpt><trkpt lat="45.56077" lon="10.8669367"><ele>480.5</ele><time>2026-04-25T10:22:54.897Z</time></trkpt><trkpt lat="45.5606633" lon="10.8670233"><ele>477.0</ele><time>2026-04-25T10:22:55.893Z</time></trkpt><trkpt lat="45.560565" lon="10.8670633"><ele>477.0</ele><time>2026-04-25T10:22:56.898Z</time></trkpt><trkpt lat="45.5604567" lon="10.8670533"><ele>477.0</ele><time>2026-04-25T10:22:57.908Z</time></trkpt><trkpt lat="45.56033" lon="10.867"><ele>477.0</ele><time>2026-04-25T10:22:58.9Z</time></trkpt><trkpt lat="45.5601967" lon="10.8669067"><ele>477.0</ele><time>2026-04-25T10:22:59.898Z</time></trkpt><trkpt lat="45.56005" lon="10.8668083"><ele>477.66666666666663</ele><time>2026-04-25T10:23:00.906Z</time></trkpt><trkpt lat="45.5599083" lon="10.8666917"><ele>478.3333333333333</ele><time>2026-04-25T10:23:01.902Z</time></trkpt><trkpt lat="45.5597567" lon="10.8665817"><ele>479.0</ele><time>2026-04-25T10:23:02.89Z</time></trkpt><trkpt lat="45.5596083" lon="10.8664267"><ele>472.3333333333333</ele><time>2026-04-25T10:23:03.909Z</time></trkpt><trkpt lat="45.55946" lon="10.8662983"><ele>465.66666666666663</ele><time>2026-04-25T10:23:04.908Z</time></trkpt><trkpt lat="45.55931" lon="10.8661433"><ele>459.0</ele><time>2026-04-25T10:23:05.882Z</time></trkpt><trkpt lat="45.5591517" lon="10.866035"><ele>461.33333333333337</ele><time>2026-04-25T10:23:06.896Z</time></trkpt><trkpt lat="45.5589817" lon="10.865925"><ele>463.6666666666667</ele><time>2026-04-25T10:23:07.899Z</time></trkpt><trkpt lat="45.5588" lon="10.86581"><ele>466.0</ele><time>2026-04-25T10:23:08.914Z</time></trkpt><trkpt lat="45.5586167" lon="10.8657383"><ele>466.0</ele><time>2026-04-25T10:23:09.894Z</time></trkpt><trkpt lat="45.55845" lon="10.865665"><ele>466.0</ele><time>2026-04-25T10:23:10.894Z</time></trkpt><trkpt lat="45.55829" lon="10.86561"><ele>466.0</ele><time>2026-04-25T10:23:11.887Z</time></trkpt><trkpt lat="45.5581383" lon="10.86558"><ele>466.0</ele><time>2026-04-25T10:23:12.897Z</time></trkpt><trkpt lat="45.557985" lon="10.86561"><ele>466.0</ele><time>2026-04-25T10:23:13.891Z</time></trkpt><trkpt lat="45.5578133" lon="10.8656933"><ele>466.0</ele><time>2026-04-25T10:23:14.894Z</time></trkpt><trkpt lat="45.5576517" lon="10.8658317"><ele>459.33333333333337</ele><time>2026-04-25T10:23:15.895Z</time></trkpt><trkpt lat="45.5574833" lon="10.8659517"><ele>452.66666666666663</ele><time>2026-04-25T10:23:16.895Z</time></trkpt><trkpt lat="45.5573017" lon="10.866055"><ele>446.0</ele><time>2026-04-25T10:23:17.891Z</time></trkpt><trkpt lat="45.557115" lon="10.8661583"><ele>449.3333333333333</ele><time>2026-04-25T10:23:18.896Z</time></trkpt><trkpt lat="45.556925" lon="10.8662533"><ele>452.66666666666663</ele><time>2026-04-25T10:23:19.9Z</time></trkpt><trkpt lat="45.5567633" lon="10.8663483"><ele>456.0</ele><time>2026-04-25T10:23:20.893Z</time></trkpt><trkpt lat="45.556615" lon="10.8664783"><ele>456.0</ele><time>2026-04-25T10:23:21.896Z</time></trkpt><trkpt lat="45.5564733" lon="10.8666233"><ele>456.0</ele><time>2026-04-25T10:23:22.894Z</time></trkpt><trkpt lat="45.5563383" lon="10.866765"><ele>456.0</ele><time>2026-04-25T10:23:23.892Z</time></trkpt><trkpt lat="45.556235" lon="10.8668483"><ele>452.25</ele><time>2026-04-25T10:23:24.891Z</time></trkpt><trkpt lat="45.55611" lon="10.8669083"><ele>448.5</ele><time>2026-04-25T10:23:25.897Z</time></trkpt><trkpt lat="45.55597" lon="10.8669533"><ele>444.75</ele><time>2026-04-25T10:23:26.889Z</time></trkpt><trkpt lat="45.5558183" lon="10.8669533"><ele>441.0</ele><time>2026-04-25T10:23:27.886Z</time></trkpt><trkpt lat="45.555645" lon="10.8668883"><ele>441.0</ele><time>2026-04-25T10:23:28.891Z</time></trkpt><trkpt lat="45.5554783" lon="10.8667833"><ele>441.0</ele><time>2026-04-25T10:23:29.891Z</time></trkpt><trkpt lat="45.555355" lon="10.8666633"><ele>441.0</ele><time>2026-04-25T10:23:30.89Z</time></trkpt><trkpt lat="45.5552733" lon="10.8664867"><ele>444.33333333333337</ele><time>2026-04-25T10:23:31.908Z</time></trkpt><trkpt lat="45.5551783" lon="10.866295"><ele>447.6666666666667</ele><time>2026-04-25T10:23:32.894Z</time></trkpt><trkpt lat="45.555075" lon="10.8661417"><ele>451.0</ele><time>2026-04-25T10:23:33.902Z</time></trkpt><trkpt lat="45.554925" lon="10.8660383"><ele>451.0</ele><time>2026-04-25T10:23:34.886Z</time></trkpt><trkpt lat="45.5547533" lon="10.8659767"><ele>451.0</ele><time>2026-04-25T10:23:35.886Z</time></trkpt><trkpt lat="45.5545867" lon="10.865945"><ele>451.0</ele><time>2026-04-25T10:23:36.892Z</time></trkpt><trkpt lat="45.5544133" lon="10.8659617"><ele>448.33333333333337</ele><time>2026-04-25T10:23:37.887Z</time></trkpt><trkpt lat="45.5542183" lon="10.8660233"><ele>445.66666666666663</ele><time>2026-04-25T10:23:38.898Z</time></trkpt><trkpt lat="45.5540267" lon="10.8660867"><ele>443.0</ele><time>2026-04-25T10:23:39.89Z</time></trkpt><trkpt lat="45.5538267" lon="10.8661433"><ele>444.66666666666663</ele><time>2026-04-25T10:23:40.886Z</time></trkpt><trkpt lat="45.5536467" lon="10.86621"><ele>446.33333333333337</ele><time>2026-04-25T10:23:41.892Z</time></trkpt><trkpt lat="45.5534867" lon="10.866245"><ele>448.0</ele><time>2026-04-25T10:23:42.891Z</time></trkpt><trkpt lat="45.5533333" lon="10.86627"><ele>448.0</ele><time>2026-04-25T10:23:43.902Z</time></trkpt><trkpt lat="45.55316" lon="10.8662983"><ele>448.0</ele><time>2026-04-25T10:23:44.891Z</time></trkpt><trkpt lat="45.5529867" lon="10.8662933"><ele>448.0</ele><time>2026-04-25T10:23:45.889Z</time></trkpt><trkpt lat="45.5527883" lon="10.8662717"><ele>447.6666666666667</ele><time>2026-04-25T10:23:46.894Z</time></trkpt><trkpt lat="45.552615" lon="10.8662467"><ele>447.33333333333337</ele><time>2026-04-25T10:23:47.899Z</time></trkpt><trkpt lat="45.55243" lon="10.86621"><ele>447.0</ele><time>2026-04-25T10:23:48.896Z</time></trkpt><trkpt lat="45.5522583" lon="10.8661667"><ele>447.0</ele><time>2026-04-25T10:23:49.895Z</time></trkpt><trkpt lat="45.5521" lon="10.8661367"><ele>447.0</ele><time>2026-04-25T10:23:50.897Z</time></trkpt><trkpt lat="45.55193" lon="10.8661883"><ele>447.0</ele><time>2026-04-25T10:23:51.891Z</time></trkpt><trkpt lat="45.5517783" lon="10.8662017"><ele>448.0</ele><time>2026-04-25T10:23:52.886Z</time></trkpt><trkpt lat="45.5516417" lon="10.866245"><ele>449.0</ele><time>2026-04-25T10:23:53.888Z</time></trkpt><trkpt lat="45.5515067" lon="10.86625"><ele>450.0</ele><time>2026-04-25T10:23:54.896Z</time></trkpt><trkpt lat="45.551375" lon="10.8662117"><ele>451.0</ele><time>2026-04-25T10:23:55.904Z</time></trkpt><trkpt lat="45.5512367" lon="10.8661167"><ele>451.33333333333337</ele><time>2026-04-25T10:23:56.891Z</time></trkpt><trkpt lat="45.5510833" lon="10.86601"><ele>451.66666666666663</ele><time>2026-04-25T10:23:57.9Z</time></trkpt><trkpt lat="45.550925" lon="10.8659067"><ele>452.0</ele><time>2026-04-25T10:23:58.9Z</time></trkpt><trkpt lat="45.5507633" lon="10.8658033"><ele>452.0</ele><time>2026-04-25T10:23:59.894Z</time></trkpt><trkpt lat="45.5506167" lon="10.865695"><ele>452.0</ele><time>2026-04-25T10:24:00.889Z</time></trkpt><trkpt lat="45.5504717" lon="10.8655967"><ele>452.0</ele><time>2026-04-25T10:24:01.911Z</time></trkpt><trkpt lat="45.5503417" lon="10.8655333"><ele>450.66666666666663</ele><time>2026-04-25T10:24:02.889Z</time></trkpt><trkpt lat="45.5502033" lon="10.8654983"><ele>449.33333333333337</ele><time>2026-04-25T10:24:03.893Z</time></trkpt><trkpt lat="45.550045" lon="10.8654967"><ele>448.0</ele><time>2026-04-25T10:24:04.895Z</time></trkpt><trkpt lat="45.549895" lon="10.86555"><ele>448.0</ele><time>2026-04-25T10:24:05.902Z</time></trkpt><trkpt lat="45.549725" lon="10.8656483"><ele>448.0</ele><time>2026-04-25T10:24:06.902Z</time></trkpt><trkpt lat="45.5495517" lon="10.865755"><ele>448.0</ele><time>2026-04-25T10:24:07.902Z</time></trkpt><trkpt lat="45.5493767" lon="10.8658433"><ele>448.33333333333337</ele><time>2026-04-25T10:24:08.887Z</time></trkpt><trkpt lat="45.549195" lon="10.8659167"><ele>448.66666666666663</ele><time>2026-04-25T10:24:09.888Z</time></trkpt><trkpt lat="45.5489983" lon="10.8660467"><ele>449.0</ele><time>2026-04-25T10:24:10.896Z</time></trkpt><trkpt lat="45.548805" lon="10.86615"><ele>449.0</ele><time>2026-04-25T10:24:11.892Z</time></trkpt><trkpt lat="45.5486133" lon="10.8662483"><ele>449.0</ele><time>2026-04-25T10:24:12.888Z</time></trkpt><trkpt lat="45.5484267" lon="10.86635"><ele>449.0</ele><time>2026-04-25T10:24:13.892Z</time></trkpt><trkpt lat="45.5482583" lon="10.866465"><ele>449.0</ele><time>2026-04-25T10:24:14.894Z</time></trkpt><trkpt lat="45.5481" lon="10.8665983"><ele>449.0</ele><time>2026-04-25T10:24:15.889Z</time></trkpt><trkpt lat="45.54796" lon="10.866785"><ele>449.0</ele><time>2026-04-25T10:24:16.887Z</time></trkpt><trkpt lat="45.547835" lon="10.8669183"><ele>446.5</ele><time>2026-04-25T10:24:17.891Z</time></trkpt><trkpt lat="45.5477217" lon="10.867045"><ele>444.0</ele><time>2026-04-25T10:24:18.89Z</time></trkpt><trkpt lat="45.547605" lon="10.8671567"><ele>441.5</ele><time>2026-04-25T10:24:19.887Z</time></trkpt><trkpt lat="45.5474967" lon="10.8672367"><ele>439.0</ele><time>2026-04-25T10:24:20.906Z</time></trkpt><trkpt lat="45.5473917" lon="10.8672533"><ele>439.0</ele><time>2026-04-25T10:24:21.893Z</time></trkpt><trkpt lat="45.5472783" lon="10.8672333"><ele>439.0</ele><time>2026-04-25T10:24:22.891Z</time></trkpt><trkpt lat="45.5471433" lon="10.8671983"><ele>439.0</ele><time>2026-04-25T10:24:23.888Z</time></trkpt><trkpt lat="45.54699" lon="10.86714"><ele>439.0</ele><time>2026-04-25T10:24:24.896Z</time></trkpt><trkpt lat="45.546835" lon="10.8670667"><ele>434.6666666666667</ele><time>2026-04-25T10:24:25.886Z</time></trkpt><trkpt lat="45.546665" lon="10.86702"><ele>430.33333333333337</ele><time>2026-04-25T10:24:26.924Z</time></trkpt><trkpt lat="45.5464983" lon="10.8669183"><ele>426.0</ele><time>2026-04-25T10:24:27.894Z</time></trkpt><trkpt lat="45.5463233" lon="10.866815"><ele>427.0</ele><time>2026-04-25T10:24:28.906Z</time></trkpt><trkpt lat="45.546145" lon="10.8666917"><ele>428.0</ele><time>2026-04-25T10:24:29.913Z</time></trkpt><trkpt lat="45.545965" lon="10.8665417"><ele>429.0</ele><time>2026-04-25T10:24:30.906Z</time></trkpt><trkpt lat="45.545805" lon="10.866395"><ele>429.0</ele><time>2026-04-25T10:24:31.889Z</time></trkpt><trkpt lat="45.5454817" lon="10.8661733"><ele>429.0</ele><time>2026-04-25T10:24:33.899Z</time></trkpt><trkpt lat="45.5453517" lon="10.8660783"><ele>426.66666666666663</ele><time>2026-04-25T10:24:34.893Z</time></trkpt><trkpt lat="45.5452367" lon="10.8659283"><ele>424.3333333333333</ele><time>2026-04-25T10:24:35.892Z</time></trkpt><trkpt lat="45.5451367" lon="10.8657167"><ele>422.0</ele><time>2026-04-25T10:24:36.889Z</time></trkpt><trkpt lat="45.5450317" lon="10.8655367"><ele>422.0</ele><time>2026-04-25T10:24:37.899Z</time></trkpt><trkpt lat="45.5449267" lon="10.865325"><ele>422.0</ele><time>2026-04-25T10:24:38.887Z</time></trkpt><trkpt lat="45.544815" lon="10.8651383"><ele>422.0</ele><time>2026-04-25T10:24:39.894Z</time></trkpt><trkpt lat="45.544715" lon="10.8649617"><ele>421.3333333333333</ele><time>2026-04-25T10:24:40.886Z</time></trkpt><trkpt lat="45.54459" lon="10.8648217"><ele>420.66666666666663</ele><time>2026-04-25T10:24:41.895Z</time></trkpt><trkpt lat="45.5444583" lon="10.86472"><ele>420.0</ele><time>2026-04-25T10:24:42.896Z</time></trkpt><trkpt lat="45.5441967" lon="10.864605"><ele>417.0</ele><time>2026-04-25T10:24:44.905Z</time></trkpt><trkpt lat="45.54405" lon="10.86461"><ele>414.0</ele><time>2026-04-25T10:24:45.9Z</time></trkpt><trkpt lat="45.5439017" lon="10.8646883"><ele>411.0</ele><time>2026-04-25T10:24:46.908Z</time></trkpt><trkpt lat="45.5437917" lon="10.864825"><ele>408.0</ele><time>2026-04-25T10:24:47.896Z</time></trkpt><trkpt lat="45.5437" lon="10.8650233"><ele>405.0</ele><time>2026-04-25T10:24:48.908Z</time></trkpt><trkpt lat="45.5435933" lon="10.8652167"><ele>402.0</ele><time>2026-04-25T10:24:49.914Z</time></trkpt><trkpt lat="45.5434933" lon="10.8654067"><ele>402.0</ele><time>2026-04-25T10:24:50.893Z</time></trkpt><trkpt lat="45.5433917" lon="10.8655783"><ele>402.0</ele><time>2026-04-25T10:24:51.894Z</time></trkpt><trkpt lat="45.54332" lon="10.8657283"><ele>402.0</ele><time>2026-04-25T10:24:52.892Z</time></trkpt><trkpt lat="45.54326" lon="10.8658683"><ele>402.0</ele><time>2026-04-25T10:24:53.888Z</time></trkpt><trkpt lat="45.5432267" lon="10.86606"><ele>402.0</ele><time>2026-04-25T10:24:54.902Z</time></trkpt><trkpt lat="45.5432383" lon="10.8662467"><ele>402.0</ele><time>2026-04-25T10:24:55.894Z</time></trkpt><trkpt lat="45.5432517" lon="10.8664617"><ele>402.0</ele><time>2026-04-25T10:24:56.89Z</time></trkpt><trkpt lat="45.5432733" lon="10.8666933"><ele>402.0</ele><time>2026-04-25T10:24:57.891Z</time></trkpt><trkpt lat="45.5432867" lon="10.866905"><ele>400.5</ele><time>2026-04-25T10:24:58.892Z</time></trkpt><trkpt lat="45.5433133" lon="10.8671017"><ele>399.0</ele><time>2026-04-25T10:24:59.899Z</time></trkpt><trkpt lat="45.54335" lon="10.8672567"><ele>397.5</ele><time>2026-04-25T10:25:00.906Z</time></trkpt><trkpt lat="45.543415" lon="10.867375"><ele>396.0</ele><time>2026-04-25T10:25:01.903Z</time></trkpt><trkpt lat="45.5435117" lon="10.8674817"><ele>396.0</ele><time>2026-04-25T10:25:02.897Z</time></trkpt><trkpt lat="45.5436517" lon="10.867585"><ele>396.0</ele><time>2026-04-25T10:25:03.886Z</time></trkpt><trkpt lat="45.5437983" lon="10.8676717"><ele>396.0</ele><time>2026-04-25T10:25:04.901Z</time></trkpt><trkpt lat="45.5439417" lon="10.8677783"><ele>390.3333333333333</ele><time>2026-04-25T10:25:05.894Z</time></trkpt><trkpt lat="45.5440817" lon="10.8678717"><ele>384.66666666666663</ele><time>2026-04-25T10:25:06.906Z</time></trkpt><trkpt lat="45.5442567" lon="10.86787"><ele>379.0</ele><time>2026-04-25T10:25:07.896Z</time></trkpt><trkpt lat="45.5444317" lon="10.8678733"><ele>380.3333333333333</ele><time>2026-04-25T10:25:08.892Z</time></trkpt><trkpt lat="45.54461" lon="10.86786"><ele>381.6666666666667</ele><time>2026-04-25T10:25:09.893Z</time></trkpt><trkpt lat="45.54479" lon="10.8678567"><ele>383.0</ele><time>2026-04-25T10:25:10.89Z</time></trkpt><trkpt lat="45.5449617" lon="10.8678517"><ele>383.0</ele><time>2026-04-25T10:25:11.893Z</time></trkpt><trkpt lat="45.54512" lon="10.8678617"><ele>383.0</ele><time>2026-04-25T10:25:12.892Z</time></trkpt><trkpt lat="45.545275" lon="10.8678983"><ele>383.0</ele><time>2026-04-25T10:25:13.892Z</time></trkpt><trkpt lat="45.5454117" lon="10.8679767"><ele>387.33333333333337</ele><time>2026-04-25T10:25:14.905Z</time></trkpt><trkpt lat="45.5455367" lon="10.868085"><ele>391.6666666666667</ele><time>2026-04-25T10:25:15.895Z</time></trkpt><trkpt lat="45.545655" lon="10.86823"><ele>396.0</ele><time>2026-04-25T10:25:16.89Z</time></trkpt><trkpt lat="45.545765" lon="10.86841"><ele>391.0</ele><time>2026-04-25T10:25:17.884Z</time></trkpt><trkpt lat="45.5458567" lon="10.8686083"><ele>386.0</ele><time>2026-04-25T10:25:18.899Z</time></trkpt><trkpt lat="45.545925" lon="10.86881"><ele>381.0</ele><time>2026-04-25T10:25:19.9Z</time></trkpt><trkpt lat="45.5459967" lon="10.8689883"><ele>381.0</ele><time>2026-04-25T10:25:20.892Z</time></trkpt><trkpt lat="45.5460783" lon="10.8691467"><ele>381.0</ele><time>2026-04-25T10:25:21.898Z</time></trkpt><trkpt lat="45.54619" lon="10.8692633"><ele>381.0</ele><time>2026-04-25T10:25:22.889Z</time></trkpt><trkpt lat="45.5463117" lon="10.8693533"><ele>381.0</ele><time>2026-04-25T10:25:23.892Z</time></trkpt><trkpt lat="45.5464667" lon="10.8693783"><ele>383.0</ele><time>2026-04-25T10:25:24.912Z</time></trkpt><trkpt lat="45.5466233" lon="10.869365"><ele>385.0</ele><time>2026-04-25T10:25:25.889Z</time></trkpt><trkpt lat="45.5467733" lon="10.8693133"><ele>387.0</ele><time>2026-04-25T10:25:26.891Z</time></trkpt><trkpt lat="45.5468983" lon="10.869265"><ele>389.0</ele><time>2026-04-25T10:25:27.895Z</time></trkpt><trkpt lat="45.5469967" lon="10.8692283"><ele>389.4</ele><time>2026-04-25T10:25:28.895Z</time></trkpt><trkpt lat="45.5470767" lon="10.8692183"><ele>389.79999999999995</ele><time>2026-04-25T10:25:29.907Z</time></trkpt><trkpt lat="45.5471033" lon="10.8693667"><ele>390.20000000000005</ele><time>2026-04-25T10:25:31.89Z</time></trkpt><trkpt lat="45.5470217" lon="10.8694333"><ele>390.6</ele><time>2026-04-25T10:25:32.897Z</time></trkpt><trkpt lat="45.54695" lon="10.8694583"><ele>391.0</ele><time>2026-04-25T10:25:33.889Z</time></trkpt><trkpt lat="45.5468367" lon="10.8694733"><ele>385.0</ele><time>2026-04-25T10:25:34.899Z</time></trkpt><trkpt lat="45.5467067" lon="10.8695067"><ele>379.0</ele><time>2026-04-25T10:25:35.893Z</time></trkpt><trkpt lat="45.5465717" lon="10.8695517"><ele>373.0</ele><time>2026-04-25T10:25:36.886Z</time></trkpt><trkpt lat="45.5464283" lon="10.8695983"><ele>367.0</ele><time>2026-04-25T10:25:37.896Z</time></trkpt><trkpt lat="45.54628" lon="10.8696333"><ele>365.66666666666663</ele><time>2026-04-25T10:25:38.892Z</time></trkpt><trkpt lat="45.546125" lon="10.8696383"><ele>364.3333333333333</ele><time>2026-04-25T10:25:39.892Z</time></trkpt><trkpt lat="45.54596" lon="10.86959"><ele>363.0</ele><time>2026-04-25T10:25:40.893Z</time></trkpt><trkpt lat="45.5457917" lon="10.869525"><ele>363.0</ele><time>2026-04-25T10:25:41.902Z</time></trkpt><trkpt lat="45.54564" lon="10.8694433"><ele>363.0</ele><time>2026-04-25T10:25:42.891Z</time></trkpt><trkpt lat="45.5454933" lon="10.869355"><ele>363.0</ele><time>2026-04-25T10:25:43.896Z</time></trkpt><trkpt lat="45.54539" lon="10.8692417"><ele>362.25</ele><time>2026-04-25T10:25:44.888Z</time></trkpt><trkpt lat="45.5453633" lon="10.8690783"><ele>361.5</ele><time>2026-04-25T10:25:45.89Z</time></trkpt><trkpt lat="45.5453217" lon="10.8689333"><ele>360.75</ele><time>2026-04-25T10:25:46.899Z</time></trkpt><trkpt lat="45.5452733" lon="10.8687883"><ele>360.0</ele><time>2026-04-25T10:25:47.894Z</time></trkpt><trkpt lat="45.5451883" lon="10.868675"><ele>360.0</ele><time>2026-04-25T10:25:48.893Z</time></trkpt><trkpt lat="45.5450867" lon="10.86863"><ele>360.0</ele><time>2026-04-25T10:25:49.895Z</time></trkpt><trkpt lat="45.544965" lon="10.8686333"><ele>360.0</ele><time>2026-04-25T10:25:50.899Z</time></trkpt><trkpt lat="45.5448267" lon="10.8686767"><ele>360.0</ele><time>2026-04-25T10:25:51.889Z</time></trkpt><trkpt lat="45.5446617" lon="10.8687467"><ele>357.6666666666667</ele><time>2026-04-25T10:25:52.886Z</time></trkpt><trkpt lat="45.544495" lon="10.868815"><ele>355.33333333333337</ele><time>2026-04-25T10:25:53.902Z</time></trkpt><trkpt lat="45.5443283" lon="10.8688767"><ele>353.0</ele><time>2026-04-25T10:25:54.887Z</time></trkpt><trkpt lat="45.5441767" lon="10.86896"><ele>353.0</ele><time>2026-04-25T10:25:55.882Z</time></trkpt><trkpt lat="45.54403" lon="10.8690567"><ele>353.0</ele><time>2026-04-25T10:25:56.902Z</time></trkpt><trkpt lat="45.5438783" lon="10.8691833"><ele>353.0</ele><time>2026-04-25T10:25:57.891Z</time></trkpt><trkpt lat="45.5437267" lon="10.869315"><ele>348.0</ele><time>2026-04-25T10:25:58.893Z</time></trkpt><trkpt lat="45.5435933" lon="10.86947"><ele>343.0</ele><time>2026-04-25T10:25:59.901Z</time></trkpt><trkpt lat="45.54346" lon="10.8695983"><ele>338.0</ele><time>2026-04-25T10:26:00.899Z</time></trkpt><trkpt lat="45.54332" lon="10.8696817"><ele>338.0</ele><time>2026-04-25T10:26:01.892Z</time></trkpt><trkpt lat="45.543165" lon="10.8697283"><ele>338.0</ele><time>2026-04-25T10:26:02.917Z</time></trkpt><trkpt lat="45.5428183" lon="10.8698267"><ele>338.33333333333337</ele><time>2026-04-25T10:26:04.891Z</time></trkpt><trkpt lat="45.5426317" lon="10.86987"><ele>338.6666666666667</ele><time>2026-04-25T10:26:05.894Z</time></trkpt><trkpt lat="45.5424433" lon="10.8698933"><ele>339.0</ele><time>2026-04-25T10:26:06.892Z</time></trkpt><trkpt lat="45.54227" lon="10.869905"><ele>339.0</ele><time>2026-04-25T10:26:07.894Z</time></trkpt><trkpt lat="45.542115" lon="10.8699033"><ele>339.0</ele><time>2026-04-25T10:26:08.905Z</time></trkpt><trkpt lat="45.5419817" lon="10.8698767"><ele>339.0</ele><time>2026-04-25T10:26:09.893Z</time></trkpt><trkpt lat="45.5418683" lon="10.8698083"><ele>339.0</ele><time>2026-04-25T10:26:10.885Z</time></trkpt><trkpt lat="45.5417417" lon="10.8697067"><ele>336.0</ele><time>2026-04-25T10:26:11.891Z</time></trkpt><trkpt lat="45.54163" lon="10.869585"><ele>333.0</ele><time>2026-04-25T10:26:12.894Z</time></trkpt><trkpt lat="45.54153" lon="10.8694633"><ele>330.0</ele><time>2026-04-25T10:26:13.894Z</time></trkpt><trkpt lat="45.5414433" lon="10.86936"><ele>327.0</ele><time>2026-04-25T10:26:14.883Z</time></trkpt><trkpt lat="45.5413767" lon="10.869295"><ele>327.0</ele><time>2026-04-25T10:26:15.899Z</time></trkpt><trkpt lat="45.5413183" lon="10.8692217"><ele>327.0</ele><time>2026-04-25T10:26:16.887Z</time></trkpt><trkpt lat="45.5412217" lon="10.8692667"><ele>327.0</ele><time>2026-04-25T10:26:18.888Z</time></trkpt><trkpt lat="45.5412633" lon="10.8694283"><ele>327.0</ele><time>2026-04-25T10:26:20.886Z</time></trkpt><trkpt lat="45.54133" lon="10.86951"><ele>327.0</ele><time>2026-04-25T10:26:21.892Z</time></trkpt><trkpt lat="45.5414117" lon="10.8695967"><ele>327.0</ele><time>2026-04-25T10:26:22.898Z</time></trkpt><trkpt lat="45.541535" lon="10.8697033"><ele>327.0</ele><time>2026-04-25T10:26:23.887Z</time></trkpt><trkpt lat="45.5416617" lon="10.8698317"><ele>327.0</ele><time>2026-04-25T10:26:24.893Z</time></trkpt><trkpt lat="45.5417983" lon="10.8699733"><ele>322.6666666666667</ele><time>2026-04-25T10:26:25.887Z</time></trkpt><trkpt lat="45.541925" lon="10.87012"><ele>318.33333333333337</ele><time>2026-04-25T10:26:26.882Z</time></trkpt><trkpt lat="45.5420767" lon="10.8702683"><ele>314.0</ele><time>2026-04-25T10:26:27.903Z</time></trkpt><trkpt lat="45.542245" lon="10.8703783"><ele>314.0</ele><time>2026-04-25T10:26:28.892Z</time></trkpt><trkpt lat="45.5424117" lon="10.8704433"><ele>314.0</ele><time>2026-04-25T10:26:29.893Z</time></trkpt><trkpt lat="45.5425583" lon="10.8705083"><ele>314.0</ele><time>2026-04-25T10:26:30.895Z</time></trkpt><trkpt lat="45.54271" lon="10.8705517"><ele>314.0</ele><time>2026-04-25T10:26:31.899Z</time></trkpt><trkpt lat="45.5428483" lon="10.8705967"><ele>314.0</ele><time>2026-04-25T10:26:32.895Z</time></trkpt><trkpt lat="45.542985" lon="10.8706067"><ele>314.0</ele><time>2026-04-25T10:26:33.887Z</time></trkpt><trkpt lat="45.5431017" lon="10.87062"><ele>314.0</ele><time>2026-04-25T10:26:34.902Z</time></trkpt><trkpt lat="45.54319" lon="10.8706117"><ele>314.0</ele><time>2026-04-25T10:26:35.9Z</time></trkpt><trkpt lat="45.54327" lon="10.8706233"><ele>314.0</ele><time>2026-04-25T10:26:36.898Z</time></trkpt><trkpt lat="45.5433383" lon="10.870635"><ele>314.0</ele><time>2026-04-25T10:26:37.893Z</time></trkpt><trkpt lat="45.54342" lon="10.8707183"><ele>314.0</ele><time>2026-04-25T10:26:39.888Z</time></trkpt><trkpt lat="45.54344" lon="10.8708233"><ele>314.0</ele><time>2026-04-25T10:26:41.893Z</time></trkpt><trkpt lat="45.543405" lon="10.8709"><ele>314.0</ele><time>2026-04-25T10:26:42.886Z</time></trkpt><trkpt lat="45.5433133" lon="10.8709583"><ele>308.0</ele><time>2026-04-25T10:26:43.895Z</time></trkpt><trkpt lat="45.543195" lon="10.870995"><ele>302.0</ele><time>2026-04-25T10:26:44.904Z</time></trkpt><trkpt lat="45.5430633" lon="10.8710333"><ele>296.0</ele><time>2026-04-25T10:26:45.891Z</time></trkpt><trkpt lat="45.542915" lon="10.8710683"><ele>290.0</ele><time>2026-04-25T10:26:46.887Z</time></trkpt><trkpt lat="45.5427483" lon="10.8710883"><ele>290.0</ele><time>2026-04-25T10:26:47.888Z</time></trkpt><trkpt lat="45.5425683" lon="10.8711133"><ele>290.0</ele><time>2026-04-25T10:26:48.89Z</time></trkpt><trkpt lat="45.5423867" lon="10.8711433"><ele>290.0</ele><time>2026-04-25T10:26:49.912Z</time></trkpt><trkpt lat="45.542205" lon="10.87117"><ele>289.33333333333337</ele><time>2026-04-25T10:26:50.895Z</time></trkpt><trkpt lat="45.5420283" lon="10.87119"><ele>288.6666666666667</ele><time>2026-04-25T10:26:51.892Z</time></trkpt><trkpt lat="45.5418683" lon="10.87121"><ele>288.0</ele><time>2026-04-25T10:26:52.904Z</time></trkpt><trkpt lat="45.5417167" lon="10.8712017"><ele>288.0</ele><time>2026-04-25T10:26:53.889Z</time></trkpt><trkpt lat="45.5415867" lon="10.87115"><ele>288.0</ele><time>2026-04-25T10:26:54.892Z</time></trkpt><trkpt lat="45.541475" lon="10.8710783"><ele>288.0</ele><time>2026-04-25T10:26:55.887Z</time></trkpt><trkpt lat="45.5413833" lon="10.8710033"><ele>288.0</ele><time>2026-04-25T10:26:56.89Z</time></trkpt><trkpt lat="45.5413167" lon="10.870985"><ele>288.0</ele><time>2026-04-25T10:26:57.89Z</time></trkpt><trkpt lat="45.54125" lon="10.871075"><ele>288.0</ele><time>2026-04-25T10:26:59.897Z</time></trkpt><trkpt lat="45.5413317" lon="10.8712333"><ele>288.0</ele><time>2026-04-25T10:27:01.919Z</time></trkpt><trkpt lat="45.5414167" lon="10.8713017"><ele>288.0</ele><time>2026-04-25T10:27:02.894Z</time></trkpt><trkpt lat="45.5415283" lon="10.8713667"><ele>288.0</ele><time>2026-04-25T10:27:03.892Z</time></trkpt><trkpt lat="45.54169" lon="10.87143"><ele>288.0</ele><time>2026-04-25T10:27:04.887Z</time></trkpt><trkpt lat="45.5418767" lon="10.871495"><ele>288.0</ele><time>2026-04-25T10:27:05.889Z</time></trkpt><trkpt lat="45.5420517" lon="10.8715317"><ele>288.0</ele><time>2026-04-25T10:27:06.894Z</time></trkpt><trkpt lat="45.54223" lon="10.8715683"><ele>288.6666666666667</ele><time>2026-04-25T10:27:07.891Z</time></trkpt><trkpt lat="45.5424183" lon="10.8716117"><ele>289.33333333333337</ele><time>2026-04-25T10:27:08.893Z</time></trkpt><trkpt lat="45.5425717" lon="10.871625"><ele>290.0</ele><time>2026-04-25T10:27:09.89Z</time></trkpt><trkpt lat="45.5427217" lon="10.8716517"><ele>289.75</ele><time>2026-04-25T10:27:10.897Z</time></trkpt><trkpt lat="45.5428817" lon="10.87169"><ele>289.5</ele><time>2026-04-25T10:27:11.886Z</time></trkpt><trkpt lat="45.5430067" lon="10.8717233"><ele>289.25</ele><time>2026-04-25T10:27:12.889Z</time></trkpt><trkpt lat="45.543135" lon="10.8717483"><ele>289.0</ele><time>2026-04-25T10:27:13.888Z</time></trkpt><trkpt lat="45.5432067" lon="10.871755"><ele>285.0</ele><time>2026-04-25T10:27:14.9Z</time></trkpt><trkpt lat="45.543265" lon="10.8718217"><ele>281.0</ele><time>2026-04-25T10:27:15.892Z</time></trkpt><trkpt lat="45.5432917" lon="10.87191"><ele>277.0</ele><time>2026-04-25T10:27:18.898Z</time></trkpt><trkpt lat="45.5431883" lon="10.8719067"><ele>273.0</ele><time>2026-04-25T10:27:21.887Z</time></trkpt><trkpt lat="45.5430767" lon="10.8718783"><ele>269.0</ele><time>2026-04-25T10:27:23.888Z</time></trkpt><trkpt lat="45.54301" lon="10.8718833"><ele>265.0</ele><time>2026-04-25T10:27:24.887Z</time></trkpt><trkpt lat="45.5429367" lon="10.871885"><ele>265.6</ele><time>2026-04-25T10:27:25.893Z</time></trkpt><trkpt lat="45.5428617" lon="10.871895"><ele>266.2</ele><time>2026-04-25T10:27:26.894Z</time></trkpt><trkpt lat="45.5427783" lon="10.8719183"><ele>266.8</ele><time>2026-04-25T10:27:27.898Z</time></trkpt><trkpt lat="45.5426717" lon="10.8719583"><ele>267.4</ele><time>2026-04-25T10:27:28.883Z</time></trkpt><trkpt lat="45.54256" lon="10.872005"><ele>268.0</ele><time>2026-04-25T10:27:29.88Z</time></trkpt><trkpt lat="45.542405" lon="10.8720567"><ele>268.0</ele><time>2026-04-25T10:27:30.895Z</time></trkpt><trkpt lat="45.54224" lon="10.8721383"><ele>268.0</ele><time>2026-04-25T10:27:31.905Z</time></trkpt><trkpt lat="45.5420767" lon="10.8722167"><ele>268.0</ele><time>2026-04-25T10:27:32.886Z</time></trkpt><trkpt lat="45.5419067" lon="10.8722817"><ele>267.66666666666663</ele><time>2026-04-25T10:27:33.884Z</time></trkpt><trkpt lat="45.54174" lon="10.8723267"><ele>267.3333333333333</ele><time>2026-04-25T10:27:34.895Z</time></trkpt><trkpt lat="45.54158" lon="10.8723683"><ele>267.0</ele><time>2026-04-25T10:27:35.894Z</time></trkpt><trkpt lat="45.5414283" lon="10.8724067"><ele>267.0</ele><time>2026-04-25T10:27:36.893Z</time></trkpt><trkpt lat="45.5412917" lon="10.8724217"><ele>267.0</ele><time>2026-04-25T10:27:37.88Z</time></trkpt><trkpt lat="45.5411433" lon="10.8724183"><ele>267.0</ele><time>2026-04-25T10:27:38.888Z</time></trkpt><trkpt lat="45.5409933" lon="10.87237"><ele>267.0</ele><time>2026-04-25T10:27:39.885Z</time></trkpt><trkpt lat="45.54083" lon="10.8722933"><ele>264.75</ele><time>2026-04-25T10:27:40.893Z</time></trkpt><trkpt lat="45.5406867" lon="10.87224"><ele>262.5</ele><time>2026-04-25T10:27:41.891Z</time></trkpt><trkpt lat="45.5405617" lon="10.8721717"><ele>260.25</ele><time>2026-04-25T10:27:42.896Z</time></trkpt><trkpt lat="45.54047" lon="10.87215"><ele>258.0</ele><time>2026-04-25T10:27:43.891Z</time></trkpt><trkpt lat="45.5403883" lon="10.8721467"><ele>258.0</ele><time>2026-04-25T10:27:44.888Z</time></trkpt><trkpt lat="45.5403733" lon="10.872295"><ele>258.0</ele><time>2026-04-25T10:27:46.89Z</time></trkpt><trkpt lat="45.5403983" lon="10.8723883"><ele>258.0</ele><time>2026-04-25T10:27:47.894Z</time></trkpt><trkpt lat="45.540485" lon="10.8724683"><ele>258.0</ele><time>2026-04-25T10:27:48.887Z</time></trkpt><trkpt lat="45.5405983" lon="10.872545"><ele>258.0</ele><time>2026-04-25T10:27:49.893Z</time></trkpt><trkpt lat="45.54074" lon="10.8726367"><ele>252.66666666666669</ele><time>2026-04-25T10:27:50.884Z</time></trkpt><trkpt lat="45.5408817" lon="10.872705"><ele>247.33333333333334</ele><time>2026-04-25T10:27:51.893Z</time></trkpt><trkpt lat="45.54102" lon="10.8728117"><ele>242.0</ele><time>2026-04-25T10:27:52.882Z</time></trkpt><trkpt lat="45.5411867" lon="10.8729233"><ele>244.0</ele><time>2026-04-25T10:27:53.884Z</time></trkpt><trkpt lat="45.54135" lon="10.8730433"><ele>246.0</ele><time>2026-04-25T10:27:54.896Z</time></trkpt><trkpt lat="45.5415283" lon="10.8731483"><ele>248.0</ele><time>2026-04-25T10:27:55.896Z</time></trkpt><trkpt lat="45.5417133" lon="10.8732667"><ele>248.0</ele><time>2026-04-25T10:27:56.881Z</time></trkpt><trkpt lat="45.5418917" lon="10.87335"><ele>248.0</ele><time>2026-04-25T10:27:57.894Z</time></trkpt><trkpt lat="45.5420433" lon="10.87342"><ele>248.0</ele><time>2026-04-25T10:27:58.89Z</time></trkpt><trkpt lat="45.5421883" lon="10.8734883"><ele>245.60000000000002</ele><time>2026-04-25T10:27:59.887Z</time></trkpt><trkpt lat="45.5423317" lon="10.8735133"><ele>243.20000000000002</ele><time>2026-04-25T10:28:00.899Z</time></trkpt><trkpt lat="45.5424667" lon="10.8734867"><ele>240.8</ele><time>2026-04-25T10:28:01.918Z</time></trkpt><trkpt lat="45.542565" lon="10.8734617"><ele>238.4</ele><time>2026-04-25T10:28:02.89Z</time></trkpt><trkpt lat="45.54263" lon="10.87345"><ele>236.0</ele><time>2026-04-25T10:28:03.89Z</time></trkpt><trkpt lat="45.54273" lon="10.8735333"><ele>236.0</ele><time>2026-04-25T10:28:05.896Z</time></trkpt><trkpt lat="45.5426133" lon="10.8736967"><ele>236.0</ele><time>2026-04-25T10:28:07.886Z</time></trkpt><trkpt lat="45.542495" lon="10.8737367"><ele>236.0</ele><time>2026-04-25T10:28:08.893Z</time></trkpt><trkpt lat="45.5423583" lon="10.87372"><ele>236.0</ele><time>2026-04-25T10:28:09.882Z</time></trkpt><trkpt lat="45.5421967" lon="10.8737367"><ele>233.33333333333334</ele><time>2026-04-25T10:28:10.888Z</time></trkpt><trkpt lat="45.54202" lon="10.873785"><ele>230.66666666666669</ele><time>2026-04-25T10:28:11.89Z</time></trkpt><trkpt lat="45.5418333" lon="10.8738417"><ele>228.0</ele><time>2026-04-25T10:28:12.897Z</time></trkpt><trkpt lat="45.5416433" lon="10.873895"><ele>228.0</ele><time>2026-04-25T10:28:13.893Z</time></trkpt><trkpt lat="45.5414533" lon="10.8739417"><ele>228.0</ele><time>2026-04-25T10:28:14.893Z</time></trkpt><trkpt lat="45.5412717" lon="10.8739883"><ele>228.0</ele><time>2026-04-25T10:28:15.904Z</time></trkpt><trkpt lat="45.5410933" lon="10.8740167"><ele>227.33333333333331</ele><time>2026-04-25T10:28:16.884Z</time></trkpt><trkpt lat="45.540915" lon="10.8740117"><ele>226.66666666666666</ele><time>2026-04-25T10:28:17.89Z</time></trkpt><trkpt lat="45.540725" lon="10.8739883"><ele>226.0</ele><time>2026-04-25T10:28:18.888Z</time></trkpt><trkpt lat="45.5405167" lon="10.873925"><ele>223.0</ele><time>2026-04-25T10:28:19.893Z</time></trkpt><trkpt lat="45.540305" lon="10.873865"><ele>220.0</ele><time>2026-04-25T10:28:20.893Z</time></trkpt><trkpt lat="45.5400767" lon="10.8738167"><ele>217.0</ele><time>2026-04-25T10:28:21.885Z</time></trkpt><trkpt lat="45.5398683" lon="10.873775"><ele>217.0</ele><time>2026-04-25T10:28:22.886Z</time></trkpt><trkpt lat="45.5396883" lon="10.87374"><ele>217.0</ele><time>2026-04-25T10:28:23.892Z</time></trkpt><trkpt lat="45.53954" lon="10.8737217"><ele>217.0</ele><time>2026-04-25T10:28:24.885Z</time></trkpt><trkpt lat="45.53943" lon="10.8736967"><ele>217.0</ele><time>2026-04-25T10:28:25.894Z</time></trkpt><trkpt lat="45.5393183" lon="10.8736717"><ele>215.66666666666666</ele><time>2026-04-25T10:28:26.894Z</time></trkpt><trkpt lat="45.5392467" lon="10.87368"><ele>214.33333333333331</ele><time>2026-04-25T10:28:27.898Z</time></trkpt><trkpt lat="45.53918" lon="10.8737067"><ele>213.0</ele><time>2026-04-25T10:28:28.884Z</time></trkpt><trkpt lat="45.539175" lon="10.8738133"><ele>211.66666666666669</ele><time>2026-04-25T10:28:29.905Z</time></trkpt><trkpt lat="45.539215" lon="10.8739117"><ele>210.33333333333334</ele><time>2026-04-25T10:28:30.889Z</time></trkpt><trkpt lat="45.5393" lon="10.874025"><ele>209.0</ele><time>2026-04-25T10:28:31.883Z</time></trkpt><trkpt lat="45.5394183" lon="10.8741533"><ele>207.66666666666669</ele><time>2026-04-25T10:28:32.898Z</time></trkpt><trkpt lat="45.539555" lon="10.87428"><ele>206.33333333333331</ele><time>2026-04-25T10:28:33.911Z</time></trkpt><trkpt lat="45.539705" lon="10.8744183"><ele>205.0</ele><time>2026-04-25T10:28:34.894Z</time></trkpt><trkpt lat="45.5398467" lon="10.8745667"><ele>205.0</ele><time>2026-04-25T10:28:35.907Z</time></trkpt><trkpt lat="45.539975" lon="10.8747283"><ele>205.0</ele><time>2026-04-25T10:28:36.888Z</time></trkpt><trkpt lat="45.540125" lon="10.8748583"><ele>205.0</ele><time>2026-04-25T10:28:37.885Z</time></trkpt><trkpt lat="45.5402767" lon="10.87497"><ele>206.66666666666666</ele><time>2026-04-25T10:28:38.898Z</time></trkpt><trkpt lat="45.5404267" lon="10.8750867"><ele>208.33333333333331</ele><time>2026-04-25T10:28:39.886Z</time></trkpt><trkpt lat="45.5405617" lon="10.8751933"><ele>210.0</ele><time>2026-04-25T10:28:40.886Z</time></trkpt><trkpt lat="45.5406733" lon="10.8753217"><ele>210.0</ele><time>2026-04-25T10:28:41.901Z</time></trkpt><trkpt lat="45.5407783" lon="10.8754533"><ele>210.0</ele><time>2026-04-25T10:28:42.896Z</time></trkpt><trkpt lat="45.540855" lon="10.8755883"><ele>210.0</ele><time>2026-04-25T10:28:43.888Z</time></trkpt><trkpt lat="45.5408833" lon="10.8757517"><ele>210.0</ele><time>2026-04-25T10:28:44.904Z</time></trkpt><trkpt lat="45.54089" lon="10.8759167"><ele>211.25</ele><time>2026-04-25T10:28:45.889Z</time></trkpt><trkpt lat="45.5408533" lon="10.8761017"><ele>212.5</ele><time>2026-04-25T10:28:46.897Z</time></trkpt><trkpt lat="45.54077" lon="10.8762633"><ele>213.75</ele><time>2026-04-25T10:28:47.897Z</time></trkpt><trkpt lat="45.5406667" lon="10.876405"><ele>215.0</ele><time>2026-04-25T10:28:48.886Z</time></trkpt><trkpt lat="45.5405617" lon="10.8765733"><ele>215.0</ele><time>2026-04-25T10:28:49.894Z</time></trkpt><trkpt lat="45.5404433" lon="10.8767367"><ele>215.0</ele><time>2026-04-25T10:28:50.885Z</time></trkpt><trkpt lat="45.5403117" lon="10.8768867"><ele>215.0</ele><time>2026-04-25T10:28:51.896Z</time></trkpt><trkpt lat="45.5401817" lon="10.8770183"><ele>211.2</ele><time>2026-04-25T10:28:52.905Z</time></trkpt><trkpt lat="45.5400683" lon="10.8771317"><ele>207.4</ele><time>2026-04-25T10:28:53.925Z</time></trkpt><trkpt lat="45.53998" lon="10.8772333"><ele>203.60000000000002</ele><time>2026-04-25T10:28:54.898Z</time></trkpt><trkpt lat="45.53991" lon="10.87732"><ele>199.8</ele><time>2026-04-25T10:28:55.889Z</time></trkpt><trkpt lat="45.5398583" lon="10.8774417"><ele>196.0</ele><time>2026-04-25T10:28:57.892Z</time></trkpt><trkpt lat="45.53983" lon="10.87759"><ele>195.8</ele><time>2026-04-25T10:28:59.883Z</time></trkpt><trkpt lat="45.5398467" lon="10.87776"><ele>195.60000000000002</ele><time>2026-04-25T10:29:01.887Z</time></trkpt><trkpt lat="45.5398917" lon="10.87792"><ele>195.4</ele><time>2026-04-25T10:29:03.896Z</time></trkpt><trkpt lat="45.5399133" lon="10.87801"><ele>195.2</ele><time>2026-04-25T10:29:04.887Z</time></trkpt><trkpt lat="45.5399267" lon="10.8781033"><ele>195.0</ele><time>2026-04-25T10:29:05.891Z</time></trkpt><trkpt lat="45.539905" lon="10.878275"><ele>195.0</ele><time>2026-04-25T10:29:07.892Z</time></trkpt><trkpt lat="45.5398633" lon="10.8784217"><ele>195.0</ele><time>2026-04-25T10:29:09.886Z</time></trkpt><trkpt lat="45.5398367" lon="10.8785783"><ele>195.0</ele><time>2026-04-25T10:29:11.89Z</time></trkpt><trkpt lat="45.5398233" lon="10.878675"><ele>195.0</ele><time>2026-04-25T10:29:12.895Z</time></trkpt><trkpt lat="45.5398067" lon="10.8787767"><ele>195.0</ele><time>2026-04-25T10:29:13.885Z</time></trkpt><trkpt lat="45.5397867" lon="10.8789317"><ele>194.4</ele><time>2026-04-25T10:29:15.89Z</time></trkpt><trkpt lat="45.5397633" lon="10.8790717"><ele>193.8</ele><time>2026-04-25T10:29:17.888Z</time></trkpt><trkpt lat="45.5397633" lon="10.8792233"><ele>193.2</ele><time>2026-04-25T10:29:19.884Z</time></trkpt><trkpt lat="45.5398317" lon="10.879345"><ele>192.6</ele><time>2026-04-25T10:29:21.894Z</time></trkpt><trkpt lat="45.5398883" lon="10.8794133"><ele>192.0</ele><time>2026-04-25T10:29:22.879Z</time></trkpt><trkpt lat="45.5399933" lon="10.879495"><ele>191.6</ele><time>2026-04-25T10:29:24.885Z</time></trkpt><trkpt lat="45.5400667" lon="10.879555"><ele>191.2</ele><time>2026-04-25T10:30:07.889Z</time></trkpt><trkpt lat="45.54015" lon="10.8796283"><ele>190.8</ele><time>2026-04-25T10:30:09.891Z</time></trkpt><trkpt lat="45.5402283" lon="10.8796817"><ele>190.4</ele><time>2026-04-25T10:30:10.884Z</time></trkpt><trkpt lat="45.5403167" lon="10.8797433"><ele>190.0</ele><time>2026-04-25T10:30:11.892Z</time></trkpt><trkpt lat="45.5404283" lon="10.8798233"><ele>190.5</ele><time>2026-04-25T10:30:12.895Z</time></trkpt><trkpt lat="45.5405617" lon="10.879905"><ele>191.0</ele><time>2026-04-25T10:30:13.89Z</time></trkpt><trkpt lat="45.5406933" lon="10.8799833"><ele>191.5</ele><time>2026-04-25T10:30:14.898Z</time></trkpt><trkpt lat="45.540835" lon="10.8800683"><ele>192.0</ele><time>2026-04-25T10:30:15.891Z</time></trkpt><trkpt lat="45.5409517" lon="10.880165"><ele>192.0</ele><time>2026-04-25T10:30:16.888Z</time></trkpt><trkpt lat="45.5410867" lon="10.8802433"><ele>192.0</ele><time>2026-04-25T10:30:17.887Z</time></trkpt><trkpt lat="45.5412183" lon="10.8803033"><ele>192.0</ele><time>2026-04-25T10:30:18.892Z</time></trkpt><trkpt lat="45.5413267" lon="10.8803883"><ele>192.0</ele><time>2026-04-25T10:30:19.884Z</time></trkpt><trkpt lat="45.5414217" lon="10.8804917"><ele>192.25</ele><time>2026-04-25T10:30:20.883Z</time></trkpt><trkpt lat="45.5415317" lon="10.880605"><ele>192.5</ele><time>2026-04-25T10:30:21.89Z</time></trkpt><trkpt lat="45.5416367" lon="10.8807267"><ele>192.75</ele><time>2026-04-25T10:30:22.898Z</time></trkpt><trkpt lat="45.541745" lon="10.8808233"><ele>193.0</ele><time>2026-04-25T10:30:23.895Z</time></trkpt><trkpt lat="45.5418533" lon="10.8809333"><ele>193.0</ele><time>2026-04-25T10:30:24.883Z</time></trkpt><trkpt lat="45.54196" lon="10.8810617"><ele>193.0</ele><time>2026-04-25T10:30:25.888Z</time></trkpt><trkpt lat="45.5420567" lon="10.8811867"><ele>193.0</ele><time>2026-04-25T10:30:26.895Z</time></trkpt><trkpt lat="45.5421483" lon="10.88128"><ele>193.0</ele><time>2026-04-25T10:30:27.893Z</time></trkpt><trkpt lat="45.5422217" lon="10.8813933"><ele>194.25</ele><time>2026-04-25T10:30:28.889Z</time></trkpt><trkpt lat="45.5423333" lon="10.8814917"><ele>195.5</ele><time>2026-04-25T10:30:29.892Z</time></trkpt><trkpt lat="45.5424317" lon="10.881575"><ele>196.75</ele><time>2026-04-25T10:30:30.884Z</time></trkpt><trkpt lat="45.542525" lon="10.8816383"><ele>198.0</ele><time>2026-04-25T10:30:31.89Z</time></trkpt><trkpt lat="45.5426133" lon="10.8817367"><ele>198.0</ele><time>2026-04-25T10:30:32.887Z</time></trkpt><trkpt lat="45.5426983" lon="10.8817917"><ele>198.0</ele><time>2026-04-25T10:30:33.888Z</time></trkpt><trkpt lat="45.5427567" lon="10.881855"><ele>198.0</ele><time>2026-04-25T10:30:34.899Z</time></trkpt><trkpt lat="45.54283" lon="10.8819217"><ele>198.0</ele><time>2026-04-25T10:30:35.882Z</time></trkpt><trkpt lat="45.542905" lon="10.8819767"><ele>198.0</ele><time>2026-04-25T10:30:36.881Z</time></trkpt><trkpt lat="45.54297" lon="10.8820433"><ele>198.0</ele><time>2026-04-25T10:30:37.892Z</time></trkpt><trkpt lat="45.54303" lon="10.8820917"><ele>198.0</ele><time>2026-04-25T10:30:38.887Z</time></trkpt><trkpt lat="45.543085" lon="10.8821433"><ele>198.0</ele><time>2026-04-25T10:30:39.901Z</time></trkpt><trkpt lat="45.543165" lon="10.88224"><ele>198.0</ele><time>2026-04-25T10:30:41.883Z</time></trkpt><trkpt lat="45.54321" lon="10.8823617"><ele>198.0</ele><time>2026-04-25T10:30:43.881Z</time></trkpt><trkpt lat="45.5432067" lon="10.8825517"><ele>198.0</ele><time>2026-04-25T10:30:45.891Z</time></trkpt><trkpt lat="45.5431967" lon="10.8826767"><ele>197.2</ele><time>2026-04-25T10:30:46.897Z</time></trkpt><trkpt lat="45.5431867" lon="10.8828117"><ele>196.4</ele><time>2026-04-25T10:30:47.896Z</time></trkpt><trkpt lat="45.54318" lon="10.882945"><ele>195.6</ele><time>2026-04-25T10:30:48.891Z</time></trkpt><trkpt lat="45.5431783" lon="10.883075"><ele>194.79999999999998</ele><time>2026-04-25T10:30:49.886Z</time></trkpt><trkpt lat="45.5431767" lon="10.8832067"><ele>194.0</ele><time>2026-04-25T10:30:50.891Z</time></trkpt><trkpt lat="45.5431783" lon="10.8833367"><ele>193.33333333333334</ele><time>2026-04-25T10:30:51.884Z</time></trkpt><trkpt lat="45.543185" lon="10.883455"><ele>192.66666666666669</ele><time>2026-04-25T10:30:52.888Z</time></trkpt><trkpt lat="45.5431883" lon="10.8835633"><ele>192.0</ele><time>2026-04-25T10:30:53.887Z</time></trkpt><trkpt lat="45.543195" lon="10.8836733"><ele>191.33333333333334</ele><time>2026-04-25T10:30:54.885Z</time></trkpt><trkpt lat="45.5432017" lon="10.8837783"><ele>190.66666666666669</ele><time>2026-04-25T10:30:55.884Z</time></trkpt><trkpt lat="45.543205" lon="10.883875"><ele>190.0</ele><time>2026-04-25T10:30:56.884Z</time></trkpt><trkpt lat="45.5432" lon="10.88398"><ele>190.0</ele><time>2026-04-25T10:30:57.94Z</time></trkpt><trkpt lat="45.5432" lon="10.8840817"><ele>190.0</ele><time>2026-04-25T10:30:58.894Z</time></trkpt><trkpt lat="45.54319" lon="10.8842017"><ele>190.0</ele><time>2026-04-25T10:30:59.893Z</time></trkpt><trkpt lat="45.5431883" lon="10.8843433"><ele>190.0</ele><time>2026-04-25T10:31:00.886Z</time></trkpt><trkpt lat="45.5431867" lon="10.8845"><ele>190.0</ele><time>2026-04-25T10:31:01.884Z</time></trkpt><trkpt lat="45.5431933" lon="10.8846733"><ele>189.4</ele><time>2026-04-25T10:31:02.891Z</time></trkpt><trkpt lat="45.543195" lon="10.8848483"><ele>188.8</ele><time>2026-04-25T10:31:03.891Z</time></trkpt><trkpt lat="45.5432117" lon="10.8850183"><ele>188.2</ele><time>2026-04-25T10:31:04.884Z</time></trkpt><trkpt lat="45.5432217" lon="10.8851917"><ele>187.6</ele><time>2026-04-25T10:31:05.888Z</time></trkpt><trkpt lat="45.543235" lon="10.8852917"><ele>187.0</ele><time>2026-04-25T10:31:06.885Z</time></trkpt><trkpt lat="45.5432383" lon="10.8854067"><ele>186.66666666666669</ele><time>2026-04-25T10:31:07.895Z</time></trkpt><trkpt lat="45.5432417" lon="10.8855067"><ele>186.33333333333334</ele><time>2026-04-25T10:31:08.883Z</time></trkpt><trkpt lat="45.5432083" lon="10.885675"><ele>186.0</ele><time>2026-04-25T10:31:10.889Z</time></trkpt><trkpt lat="45.5431517" lon="10.885725"><ele>185.66666666666666</ele><time>2026-04-25T10:31:11.89Z</time></trkpt><trkpt lat="45.54307" lon="10.8857567"><ele>185.33333333333331</ele><time>2026-04-25T10:31:12.887Z</time></trkpt><trkpt lat="45.5429833" lon="10.88578"><ele>185.0</ele><time>2026-04-25T10:31:13.895Z</time></trkpt><trkpt lat="45.54288" lon="10.885785"><ele>184.25</ele><time>2026-04-25T10:31:14.883Z</time></trkpt><trkpt lat="45.5427717" lon="10.8858067"><ele>183.5</ele><time>2026-04-25T10:31:15.884Z</time></trkpt><trkpt lat="45.5426417" lon="10.8857967"><ele>182.75</ele><time>2026-04-25T10:31:16.892Z</time></trkpt><trkpt lat="45.5425217" lon="10.8857883"><ele>182.0</ele><time>2026-04-25T10:31:17.892Z</time></trkpt><trkpt lat="45.542375" lon="10.8858067"><ele>182.0</ele><time>2026-04-25T10:31:18.893Z</time></trkpt><trkpt lat="45.5422417" lon="10.8858017"><ele>182.0</ele><time>2026-04-25T10:31:19.89Z</time></trkpt><trkpt lat="45.542095" lon="10.8857783"><ele>182.0</ele><time>2026-04-25T10:31:20.893Z</time></trkpt><trkpt lat="45.5419533" lon="10.8857933"><ele>182.0</ele><time>2026-04-25T10:31:21.884Z</time></trkpt><trkpt lat="45.5418033" lon="10.8858217"><ele>181.75</ele><time>2026-04-25T10:31:22.889Z</time></trkpt><trkpt lat="45.5416633" lon="10.8858283"><ele>181.5</ele><time>2026-04-25T10:31:23.888Z</time></trkpt><trkpt lat="45.5415183" lon="10.885825"><ele>181.25</ele><time>2026-04-25T10:31:24.883Z</time></trkpt><trkpt lat="45.5413933" lon="10.8858267"><ele>181.0</ele><time>2026-04-25T10:31:25.889Z</time></trkpt><trkpt lat="45.5412683" lon="10.8858233"><ele>180.60000000000002</ele><time>2026-04-25T10:31:26.893Z</time></trkpt><trkpt lat="45.5411667" lon="10.8858117"><ele>180.2</ele><time>2026-04-25T10:31:27.892Z</time></trkpt><trkpt lat="45.5410933" lon="10.8858067"><ele>179.8</ele><time>2026-04-25T10:31:28.886Z</time></trkpt><trkpt lat="45.54099" lon="10.8857283"><ele>179.39999999999998</ele><time>2026-04-25T10:31:30.891Z</time></trkpt><trkpt lat="45.541065" lon="10.885765"><ele>179.0</ele><time>2026-04-25T10:40:58.888Z</time></trkpt><trkpt lat="45.541175" lon="10.8857683"><ele>179.5</ele><time>2026-04-25T10:40:59.886Z</time></trkpt><trkpt lat="45.5412983" lon="10.8857617"><ele>180.0</ele><time>2026-04-25T10:41:00.876Z</time></trkpt><trkpt lat="45.5414517" lon="10.8857633"><ele>180.5</ele><time>2026-04-25T10:41:01.886Z</time></trkpt><trkpt lat="45.5415983" lon="10.8857717"><ele>181.0</ele><time>2026-04-25T10:41:02.888Z</time></trkpt><trkpt lat="45.5417617" lon="10.8857667"><ele>181.0</ele><time>2026-04-25T10:41:03.88Z</time></trkpt><trkpt lat="45.5419383" lon="10.8857733"><ele>181.0</ele><time>2026-04-25T10:41:04.877Z</time></trkpt><trkpt lat="45.542095" lon="10.885775"><ele>181.0</ele><time>2026-04-25T10:41:05.886Z</time></trkpt><trkpt lat="45.5422433" lon="10.885765"><ele>181.25</ele><time>2026-04-25T10:41:06.881Z</time></trkpt><trkpt lat="45.5423817" lon="10.8857633"><ele>181.5</ele><time>2026-04-25T10:41:07.883Z</time></trkpt><trkpt lat="45.54251" lon="10.8857617"><ele>181.75</ele><time>2026-04-25T10:41:08.883Z</time></trkpt><trkpt lat="45.54263" lon="10.8857733"><ele>182.0</ele><time>2026-04-25T10:41:09.885Z</time></trkpt><trkpt lat="45.5427317" lon="10.8857783"><ele>182.0</ele><time>2026-04-25T10:41:10.881Z</time></trkpt><trkpt lat="45.542795" lon="10.8858517"><ele>182.0</ele><time>2026-04-25T10:41:11.887Z</time></trkpt><trkpt lat="45.54287" lon="10.8858417"><ele>182.0</ele><time>2026-04-25T10:41:12.882Z</time></trkpt><trkpt lat="45.5429417" lon="10.8858417"><ele>182.0</ele><time>2026-04-25T10:41:13.881Z</time></trkpt><trkpt lat="45.5430067" lon="10.8858433"><ele>182.0</ele><time>2026-04-25T10:41:14.884Z</time></trkpt><trkpt lat="45.543105" lon="10.8858433"><ele>182.0</ele><time>2026-04-25T10:41:16.884Z</time></trkpt><trkpt lat="45.5432183" lon="10.8857533"><ele>182.6</ele><time>2026-04-25T10:41:26.884Z</time></trkpt><trkpt lat="45.543235" lon="10.8855567"><ele>183.2</ele><time>2026-04-25T10:41:28.901Z</time></trkpt><trkpt lat="45.5432333" lon="10.8854317"><ele>183.8</ele><time>2026-04-25T10:41:29.881Z</time></trkpt><trkpt lat="45.5432233" lon="10.8852883"><ele>184.4</ele><time>2026-04-25T10:41:30.886Z</time></trkpt><trkpt lat="45.543215" lon="10.8851233"><ele>185.0</ele><time>2026-04-25T10:41:31.882Z</time></trkpt><trkpt lat="45.5431933" lon="10.8849533"><ele>185.33333333333331</ele><time>2026-04-25T10:41:32.881Z</time></trkpt><trkpt lat="45.543195" lon="10.8848017"><ele>185.66666666666666</ele><time>2026-04-25T10:41:33.879Z</time></trkpt><trkpt lat="45.5431983" lon="10.884655"><ele>186.0</ele><time>2026-04-25T10:41:34.882Z</time></trkpt><trkpt lat="45.5431983" lon="10.88453"><ele>186.33333333333334</ele><time>2026-04-25T10:41:35.885Z</time></trkpt><trkpt lat="45.5431917" lon="10.8844217"><ele>186.66666666666669</ele><time>2026-04-25T10:41:36.876Z</time></trkpt><trkpt lat="45.5431917" lon="10.8843233"><ele>187.0</ele><time>2026-04-25T10:41:37.886Z</time></trkpt><trkpt lat="45.5431867" lon="10.8842317"><ele>187.5</ele><time>2026-04-25T10:41:38.883Z</time></trkpt><trkpt lat="45.5431867" lon="10.8840733"><ele>188.0</ele><time>2026-04-25T10:41:40.882Z</time></trkpt><trkpt lat="45.5431967" lon="10.8839217"><ele>188.5</ele><time>2026-04-25T10:41:42.885Z</time></trkpt><trkpt lat="45.5432083" lon="10.8838233"><ele>189.0</ele><time>2026-04-25T10:41:43.887Z</time></trkpt><trkpt lat="45.5432317" lon="10.8837317"><ele>189.5</ele><time>2026-04-25T10:41:44.88Z</time></trkpt><trkpt lat="45.5432367" lon="10.88362"><ele>190.0</ele><time>2026-04-25T10:41:45.881Z</time></trkpt><trkpt lat="45.5432417" lon="10.8835133"><ele>190.8</ele><time>2026-04-25T10:41:46.883Z</time></trkpt><trkpt lat="45.5432133" lon="10.8833417"><ele>191.6</ele><time>2026-04-25T10:41:48.88Z</time></trkpt><trkpt lat="45.5431733" lon="10.88321"><ele>192.39999999999998</ele><time>2026-04-25T10:41:50.887Z</time></trkpt><trkpt lat="45.5431567" lon="10.8830783"><ele>193.2</ele><time>2026-04-25T10:41:52.885Z</time></trkpt><trkpt lat="45.5431517" lon="10.88298"><ele>194.0</ele><time>2026-04-25T10:41:54.882Z</time></trkpt><trkpt lat="45.5431533" lon="10.882855"><ele>194.0</ele><time>2026-04-25T10:41:56.877Z</time></trkpt><trkpt lat="45.5431783" lon="10.8826633"><ele>194.0</ele><time>2026-04-25T10:41:58.888Z</time></trkpt><trkpt lat="45.5431917" lon="10.8825517"><ele>194.0</ele><time>2026-04-25T10:41:59.887Z</time></trkpt><trkpt lat="45.5431983" lon="10.882435"><ele>194.0</ele><time>2026-04-25T10:42:00.898Z</time></trkpt><trkpt lat="45.5431933" lon="10.88234"><ele>194.0</ele><time>2026-04-25T10:42:01.879Z</time></trkpt><trkpt lat="45.5431733" lon="10.88217"><ele>194.0</ele><time>2026-04-25T10:42:03.877Z</time></trkpt><trkpt lat="45.54308" lon="10.8820467"><ele>194.0</ele><time>2026-04-25T10:42:05.885Z</time></trkpt><trkpt lat="45.543" lon="10.882005"><ele>194.0</ele><time>2026-04-25T10:42:06.881Z</time></trkpt><trkpt lat="45.5429217" lon="10.8819433"><ele>194.0</ele><time>2026-04-25T10:42:07.883Z</time></trkpt><trkpt lat="45.5428367" lon="10.8818783"><ele>194.0</ele><time>2026-04-25T10:42:08.884Z</time></trkpt><trkpt lat="45.5427483" lon="10.8818117"><ele>195.0</ele><time>2026-04-25T10:42:09.889Z</time></trkpt><trkpt lat="45.5426567" lon="10.8817367"><ele>196.0</ele><time>2026-04-25T10:42:10.883Z</time></trkpt><trkpt lat="45.5425667" lon="10.8816433"><ele>197.0</ele><time>2026-04-25T10:42:11.89Z</time></trkpt><trkpt lat="45.542475" lon="10.881545"><ele>198.0</ele><time>2026-04-25T10:42:12.894Z</time></trkpt><trkpt lat="45.5423783" lon="10.8814417"><ele>198.0</ele><time>2026-04-25T10:42:13.886Z</time></trkpt><trkpt lat="45.5422783" lon="10.8813467"><ele>198.0</ele><time>2026-04-25T10:42:14.882Z</time></trkpt><trkpt lat="45.5421783" lon="10.8812467"><ele>198.0</ele><time>2026-04-25T10:42:15.891Z</time></trkpt><trkpt lat="45.542075" lon="10.8811483"><ele>198.0</ele><time>2026-04-25T10:42:16.886Z</time></trkpt><trkpt lat="45.541965" lon="10.88105"><ele>197.25</ele><time>2026-04-25T10:42:17.89Z</time></trkpt><trkpt lat="45.5418567" lon="10.8809517"><ele>196.5</ele><time>2026-04-25T10:42:18.89Z</time></trkpt><trkpt lat="45.5417367" lon="10.880845"><ele>195.75</ele><time>2026-04-25T10:42:19.884Z</time></trkpt><trkpt lat="45.541625" lon="10.8807567"><ele>195.0</ele><time>2026-04-25T10:42:20.892Z</time></trkpt><trkpt lat="45.5415233" lon="10.88066"><ele>195.0</ele><time>2026-04-25T10:42:21.88Z</time></trkpt><trkpt lat="45.5414133" lon="10.8805433"><ele>195.0</ele><time>2026-04-25T10:42:22.882Z</time></trkpt><trkpt lat="45.5413283" lon="10.8804267"><ele>195.0</ele><time>2026-04-25T10:42:23.89Z</time></trkpt><trkpt lat="45.541225" lon="10.8803383"><ele>195.0</ele><time>2026-04-25T10:42:24.887Z</time></trkpt><trkpt lat="45.5411033" lon="10.88024"><ele>194.75</ele><time>2026-04-25T10:42:25.888Z</time></trkpt><trkpt lat="45.5409733" lon="10.880155"><ele>194.5</ele><time>2026-04-25T10:42:26.884Z</time></trkpt><trkpt lat="45.5408433" lon="10.8800783"><ele>194.25</ele><time>2026-04-25T10:42:27.887Z</time></trkpt><trkpt lat="45.5407033" lon="10.8800067"><ele>194.0</ele><time>2026-04-25T10:42:28.881Z</time></trkpt><trkpt lat="45.540565" lon="10.8799133"><ele>194.0</ele><time>2026-04-25T10:42:29.877Z</time></trkpt><trkpt lat="45.5404267" lon="10.879825"><ele>194.0</ele><time>2026-04-25T10:42:30.888Z</time></trkpt><trkpt lat="45.540295" lon="10.8797217"><ele>194.0</ele><time>2026-04-25T10:42:31.888Z</time></trkpt><trkpt lat="45.540175" lon="10.8796283"><ele>194.0</ele><time>2026-04-25T10:42:32.89Z</time></trkpt><trkpt lat="45.5400683" lon="10.8795283"><ele>193.66666666666669</ele><time>2026-04-25T10:42:33.881Z</time></trkpt><trkpt lat="45.539965" lon="10.8794333"><ele>193.33333333333334</ele><time>2026-04-25T10:42:34.89Z</time></trkpt><trkpt lat="45.5398817" lon="10.8793533"><ele>193.0</ele><time>2026-04-25T10:42:35.882Z</time></trkpt><trkpt lat="45.539825" lon="10.8792733"><ele>192.66666666666669</ele><time>2026-04-25T10:42:36.883Z</time></trkpt><trkpt lat="45.539775" lon="10.8791983"><ele>192.33333333333334</ele><time>2026-04-25T10:42:37.887Z</time></trkpt><trkpt lat="45.53975" lon="10.8791017"><ele>192.0</ele><time>2026-04-25T10:42:38.884Z</time></trkpt><trkpt lat="45.539735" lon="10.87901"><ele>192.0</ele><time>2026-04-25T10:42:39.887Z</time></trkpt><trkpt lat="45.5397667" lon="10.87888"><ele>192.0</ele><time>2026-04-25T10:42:40.882Z</time></trkpt><trkpt lat="45.5397883" lon="10.8787417"><ele>192.0</ele><time>2026-04-25T10:42:41.886Z</time></trkpt><trkpt lat="45.5398183" lon="10.8785933"><ele>192.0</ele><time>2026-04-25T10:42:42.88Z</time></trkpt><trkpt lat="45.539845" lon="10.8784583"><ele>192.0</ele><time>2026-04-25T10:42:43.889Z</time></trkpt><trkpt lat="45.5398717" lon="10.8783383"><ele>192.5</ele><time>2026-04-25T10:42:44.883Z</time></trkpt><trkpt lat="45.539905" lon="10.8782517"><ele>193.0</ele><time>2026-04-25T10:42:45.886Z</time></trkpt><trkpt lat="45.5399383" lon="10.8781033"><ele>193.5</ele><time>2026-04-25T10:42:47.897Z</time></trkpt><trkpt lat="45.5399217" lon="10.877935"><ele>194.0</ele><time>2026-04-25T10:42:49.884Z</time></trkpt><trkpt lat="45.5398967" lon="10.8778517"><ele>194.5</ele><time>2026-04-25T10:42:50.886Z</time></trkpt><trkpt lat="45.5398633" lon="10.8777617"><ele>195.0</ele><time>2026-04-25T10:42:51.881Z</time></trkpt><trkpt lat="45.5398467" lon="10.8775833"><ele>195.16666666666666</ele><time>2026-04-25T10:42:53.886Z</time></trkpt><trkpt lat="45.5398567" lon="10.87749"><ele>195.33333333333331</ele><time>2026-04-25T10:42:54.891Z</time></trkpt><trkpt lat="45.5398817" lon="10.8773917"><ele>195.5</ele><time>2026-04-25T10:42:55.885Z</time></trkpt><trkpt lat="45.539925" lon="10.8772867"><ele>195.66666666666666</ele><time>2026-04-25T10:42:56.883Z</time></trkpt><trkpt lat="45.5399917" lon="10.8771767"><ele>195.83333333333331</ele><time>2026-04-25T10:42:57.888Z</time></trkpt><trkpt lat="45.5400733" lon="10.8770583"><ele>196.0</ele><time>2026-04-25T10:42:58.884Z</time></trkpt><trkpt lat="45.5401817" lon="10.8769233"><ele>196.0</ele><time>2026-04-25T10:42:59.894Z</time></trkpt><trkpt lat="45.54031" lon="10.8767883"><ele>196.0</ele><time>2026-04-25T10:43:00.887Z</time></trkpt><trkpt lat="45.5404283" lon="10.876665"><ele>196.0</ele><time>2026-04-25T10:43:01.886Z</time></trkpt><trkpt lat="45.5405483" lon="10.876535"><ele>202.33333333333331</ele><time>2026-04-25T10:43:02.892Z</time></trkpt><trkpt lat="45.5406633" lon="10.8763717"><ele>208.66666666666669</ele><time>2026-04-25T10:43:03.884Z</time></trkpt><trkpt lat="45.540765" lon="10.87619"><ele>215.0</ele><time>2026-04-25T10:43:04.886Z</time></trkpt><trkpt lat="45.540845" lon="10.8760167"><ele>213.75</ele><time>2026-04-25T10:43:05.885Z</time></trkpt><trkpt lat="45.540875" lon="10.87585"><ele>212.5</ele><time>2026-04-25T10:43:06.894Z</time></trkpt><trkpt lat="45.5408783" lon="10.875695"><ele>211.25</ele><time>2026-04-25T10:43:07.879Z</time></trkpt><trkpt lat="45.540825" lon="10.87555"><ele>210.0</ele><time>2026-04-25T10:43:08.888Z</time></trkpt><trkpt lat="45.5407383" lon="10.87542"><ele>210.0</ele><time>2026-04-25T10:43:09.894Z</time></trkpt><trkpt lat="45.54063" lon="10.87529"><ele>210.0</ele><time>2026-04-25T10:43:10.891Z</time></trkpt><trkpt lat="45.5405083" lon="10.8751483"><ele>210.0</ele><time>2026-04-25T10:43:11.89Z</time></trkpt><trkpt lat="45.540375" lon="10.8750217"><ele>208.33333333333331</ele><time>2026-04-25T10:43:12.895Z</time></trkpt><trkpt lat="45.5402383" lon="10.8749083"><ele>206.66666666666666</ele><time>2026-04-25T10:43:13.901Z</time></trkpt><trkpt lat="45.5400917" lon="10.8747917"><ele>205.0</ele><time>2026-04-25T10:43:14.887Z</time></trkpt><trkpt lat="45.539935" lon="10.87468"><ele>205.0</ele><time>2026-04-25T10:43:15.89Z</time></trkpt><trkpt lat="45.5397783" lon="10.8745533"><ele>205.0</ele><time>2026-04-25T10:43:16.889Z</time></trkpt><trkpt lat="45.5396283" lon="10.87441"><ele>205.0</ele><time>2026-04-25T10:43:17.891Z</time></trkpt><trkpt lat="45.5394967" lon="10.874265"><ele>206.33333333333331</ele><time>2026-04-25T10:43:18.886Z</time></trkpt><trkpt lat="45.53937" lon="10.874135"><ele>207.66666666666669</ele><time>2026-04-25T10:43:19.891Z</time></trkpt><trkpt lat="45.539275" lon="10.87404"><ele>209.0</ele><time>2026-04-25T10:43:20.876Z</time></trkpt><trkpt lat="45.5391917" lon="10.8737783"><ele>209.0</ele><time>2026-04-25T10:43:22.888Z</time></trkpt><trkpt lat="45.5392767" lon="10.8736817"><ele>209.0</ele><time>2026-04-25T10:43:24.882Z</time></trkpt><trkpt lat="45.5393467" lon="10.8736517"><ele>209.0</ele><time>2026-04-25T10:43:25.894Z</time></trkpt><trkpt lat="45.5394433" lon="10.873675"><ele>209.0</ele><time>2026-04-25T10:43:26.896Z</time></trkpt><trkpt lat="45.539555" lon="10.8737267"><ele>209.0</ele><time>2026-04-25T10:43:27.883Z</time></trkpt><trkpt lat="45.539675" lon="10.8737617"><ele>211.66666666666669</ele><time>2026-04-25T10:43:28.888Z</time></trkpt><trkpt lat="45.53982" lon="10.8738083"><ele>214.33333333333331</ele><time>2026-04-25T10:43:29.885Z</time></trkpt><trkpt lat="45.5399817" lon="10.8738367"><ele>217.0</ele><time>2026-04-25T10:43:30.886Z</time></trkpt><trkpt lat="45.5401517" lon="10.8738767"><ele>217.0</ele><time>2026-04-25T10:43:31.879Z</time></trkpt><trkpt lat="45.540335" lon="10.8739217"><ele>217.0</ele><time>2026-04-25T10:43:32.893Z</time></trkpt><trkpt lat="45.540515" lon="10.8739883"><ele>217.0</ele><time>2026-04-25T10:43:33.894Z</time></trkpt><trkpt lat="45.5407" lon="10.874015"><ele>220.0</ele><time>2026-04-25T10:43:34.894Z</time></trkpt><trkpt lat="45.5409117" lon="10.8740667"><ele>223.0</ele><time>2026-04-25T10:43:35.885Z</time></trkpt><trkpt lat="45.5411217" lon="10.874075"><ele>226.0</ele><time>2026-04-25T10:43:36.886Z</time></trkpt><trkpt lat="45.54133" lon="10.8740683"><ele>226.66666666666666</ele><time>2026-04-25T10:43:37.888Z</time></trkpt><trkpt lat="45.54154" lon="10.8739983"><ele>227.33333333333331</ele><time>2026-04-25T10:43:38.885Z</time></trkpt><trkpt lat="45.5417667" lon="10.873945"><ele>228.0</ele><time>2026-04-25T10:43:39.892Z</time></trkpt><trkpt lat="45.54198" lon="10.8738767"><ele>230.66666666666669</ele><time>2026-04-25T10:43:40.882Z</time></trkpt><trkpt lat="45.5421817" lon="10.873835"><ele>233.33333333333334</ele><time>2026-04-25T10:43:41.892Z</time></trkpt><trkpt lat="45.54237" lon="10.8738033"><ele>236.0</ele><time>2026-04-25T10:43:42.892Z</time></trkpt><trkpt lat="45.5425333" lon="10.8737583"><ele>236.0</ele><time>2026-04-25T10:43:43.888Z</time></trkpt><trkpt lat="45.5426433" lon="10.8737317"><ele>236.00000000000003</ele><time>2026-04-25T10:43:44.887Z</time></trkpt><trkpt lat="45.5427183" lon="10.8737"><ele>236.00000000000003</ele><time>2026-04-25T10:43:45.881Z</time></trkpt><trkpt lat="45.542755" lon="10.8735433"><ele>236.0</ele><time>2026-04-25T10:43:47.896Z</time></trkpt><trkpt lat="45.5427217" lon="10.873455"><ele>236.0</ele><time>2026-04-25T10:43:48.878Z</time></trkpt><trkpt lat="45.5426417" lon="10.87337"><ele>239.0</ele><time>2026-04-25T10:43:49.884Z</time></trkpt><trkpt lat="45.5425067" lon="10.87338"><ele>242.0</ele><time>2026-04-25T10:43:50.883Z</time></trkpt><trkpt lat="45.542365" lon="10.8733967"><ele>245.0</ele><time>2026-04-25T10:43:51.888Z</time></trkpt><trkpt lat="45.5422233" lon="10.8734367"><ele>248.0</ele><time>2026-04-25T10:43:52.898Z</time></trkpt><trkpt lat="45.542075" lon="10.873435"><ele>248.0</ele><time>2026-04-25T10:43:53.883Z</time></trkpt><trkpt lat="45.54194" lon="10.8733617"><ele>248.0</ele><time>2026-04-25T10:43:54.889Z</time></trkpt><trkpt lat="45.541785" lon="10.8732567"><ele>248.0</ele><time>2026-04-25T10:43:55.881Z</time></trkpt><trkpt lat="45.5416333" lon="10.87313"><ele>248.0</ele><time>2026-04-25T10:43:56.883Z</time></trkpt><trkpt lat="45.5414617" lon="10.8730083"><ele>248.0</ele><time>2026-04-25T10:43:57.884Z</time></trkpt><trkpt lat="45.5412767" lon="10.8729083"><ele>248.0</ele><time>2026-04-25T10:43:58.884Z</time></trkpt><trkpt lat="45.541095" lon="10.8728133"><ele>246.0</ele><time>2026-04-25T10:43:59.882Z</time></trkpt><trkpt lat="45.5409" lon="10.8726983"><ele>244.0</ele><time>2026-04-25T10:44:00.883Z</time></trkpt><trkpt lat="45.5407283" lon="10.8726017"><ele>242.0</ele><time>2026-04-25T10:44:01.889Z</time></trkpt><trkpt lat="45.5405733" lon="10.8725283"><ele>243.39999999999998</ele><time>2026-04-25T10:44:02.888Z</time></trkpt><trkpt lat="45.54047" lon="10.87246"><ele>244.79999999999998</ele><time>2026-04-25T10:44:03.878Z</time></trkpt><trkpt lat="45.5404133" lon="10.8724017"><ele>246.2</ele><time>2026-04-25T10:44:04.887Z</time></trkpt><trkpt lat="45.54034" lon="10.8723433"><ele>247.6</ele><time>2026-04-25T10:44:05.881Z</time></trkpt><trkpt lat="45.5403983" lon="10.872185"><ele>249.0</ele><time>2026-04-25T10:44:07.892Z</time></trkpt><trkpt lat="45.5404717" lon="10.8721467"><ele>251.25</ele><time>2026-04-25T10:44:08.883Z</time></trkpt><trkpt lat="45.5405717" lon="10.8721467"><ele>253.5</ele><time>2026-04-25T10:44:09.876Z</time></trkpt><trkpt lat="45.540705" lon="10.87223"><ele>255.75</ele><time>2026-04-25T10:44:10.888Z</time></trkpt><trkpt lat="45.54085" lon="10.8723017"><ele>258.0</ele><time>2026-04-25T10:44:11.883Z</time></trkpt><trkpt lat="45.5410183" lon="10.872305"><ele>258.0</ele><time>2026-04-25T10:44:12.881Z</time></trkpt><trkpt lat="45.5411867" lon="10.8723683"><ele>258.0</ele><time>2026-04-25T10:44:13.888Z</time></trkpt><trkpt lat="45.5413467" lon="10.87236"><ele>258.0</ele><time>2026-04-25T10:44:14.896Z</time></trkpt><trkpt lat="45.5415233" lon="10.872315"><ele>261.0</ele><time>2026-04-25T10:44:15.884Z</time></trkpt><trkpt lat="45.5416967" lon="10.8723067"><ele>264.0</ele><time>2026-04-25T10:44:16.891Z</time></trkpt><trkpt lat="45.5419033" lon="10.872245"><ele>267.0</ele><time>2026-04-25T10:44:17.89Z</time></trkpt><trkpt lat="45.5421" lon="10.8721683"><ele>267.3333333333333</ele><time>2026-04-25T10:44:18.896Z</time></trkpt><trkpt lat="45.5423017" lon="10.8721083"><ele>267.66666666666663</ele><time>2026-04-25T10:44:19.887Z</time></trkpt><trkpt lat="45.5425083" lon="10.8720117"><ele>268.0</ele><time>2026-04-25T10:44:20.89Z</time></trkpt><trkpt lat="45.5427267" lon="10.8719467"><ele>267.0</ele><time>2026-04-25T10:44:21.889Z</time></trkpt><trkpt lat="45.54289" lon="10.8718367"><ele>266.0</ele><time>2026-04-25T10:44:22.878Z</time></trkpt><trkpt lat="45.5430567" lon="10.87186"><ele>265.0</ele><time>2026-04-25T10:44:23.891Z</time></trkpt><trkpt lat="45.5431683" lon="10.8719083"><ele>265.0</ele><time>2026-04-25T10:44:24.884Z</time></trkpt><trkpt lat="45.54324" lon="10.8718933"><ele>265.0</ele><time>2026-04-25T10:44:25.884Z</time></trkpt><trkpt lat="45.5433067" lon="10.8718783"><ele>265.0</ele><time>2026-04-25T10:44:26.897Z</time></trkpt><trkpt lat="45.5432767" lon="10.8717367"><ele>265.0</ele><time>2026-04-25T10:44:28.887Z</time></trkpt><trkpt lat="45.5432317" lon="10.8716567"><ele>265.0</ele><time>2026-04-25T10:44:29.884Z</time></trkpt><trkpt lat="45.5431133" lon="10.8716383"><ele>265.0</ele><time>2026-04-25T10:44:30.891Z</time></trkpt><trkpt lat="45.5429933" lon="10.871635"><ele>271.25</ele><time>2026-04-25T10:44:31.883Z</time></trkpt><trkpt lat="45.5428583" lon="10.871615"><ele>277.5</ele><time>2026-04-25T10:44:32.886Z</time></trkpt><trkpt lat="45.5427267" lon="10.8715767"><ele>283.75</ele><time>2026-04-25T10:44:33.896Z</time></trkpt><trkpt lat="45.5425683" lon="10.8715533"><ele>290.0</ele><time>2026-04-25T10:44:34.881Z</time></trkpt><trkpt lat="45.5424083" lon="10.8715467"><ele>290.0</ele><time>2026-04-25T10:44:35.885Z</time></trkpt><trkpt lat="45.5422317" lon="10.8715433"><ele>290.0</ele><time>2026-04-25T10:44:36.893Z</time></trkpt><trkpt lat="45.5420483" lon="10.87152"><ele>290.0</ele><time>2026-04-25T10:44:37.883Z</time></trkpt><trkpt lat="45.5418767" lon="10.8714767"><ele>289.33333333333337</ele><time>2026-04-25T10:44:38.889Z</time></trkpt><trkpt lat="45.5417033" lon="10.8714267"><ele>288.6666666666667</ele><time>2026-04-25T10:44:39.891Z</time></trkpt><trkpt lat="45.54155" lon="10.871355"><ele>288.0</ele><time>2026-04-25T10:44:40.891Z</time></trkpt><trkpt lat="45.54142" lon="10.87129"><ele>288.0</ele><time>2026-04-25T10:44:41.886Z</time></trkpt><trkpt lat="45.5413233" lon="10.87123"><ele>288.0</ele><time>2026-04-25T10:44:42.888Z</time></trkpt><trkpt lat="45.5412433" lon="10.8711733"><ele>288.0</ele><time>2026-04-25T10:44:43.881Z</time></trkpt><trkpt lat="45.5411983" lon="10.8711067"><ele>288.0</ele><time>2026-04-25T10:44:44.887Z</time></trkpt><trkpt lat="45.541255" lon="10.871025"><ele>288.0</ele><time>2026-04-25T10:44:45.885Z</time></trkpt><trkpt lat="45.54131" lon="10.8709733"><ele>288.0</ele><time>2026-04-25T10:44:46.879Z</time></trkpt><trkpt lat="45.5413733" lon="10.8709467"><ele>288.0</ele><time>2026-04-25T10:44:47.893Z</time></trkpt><trkpt lat="45.541475" lon="10.8710017"><ele>288.0</ele><time>2026-04-25T10:44:48.885Z</time></trkpt><trkpt lat="45.541585" lon="10.8710883"><ele>288.0</ele><time>2026-04-25T10:44:49.889Z</time></trkpt><trkpt lat="45.541705" lon="10.87118"><ele>288.0</ele><time>2026-04-25T10:44:50.876Z</time></trkpt><trkpt lat="45.5418583" lon="10.871215"><ele>288.0</ele><time>2026-04-25T10:44:51.898Z</time></trkpt><trkpt lat="45.5420317" lon="10.8711767"><ele>288.0</ele><time>2026-04-25T10:44:52.89Z</time></trkpt><trkpt lat="45.5422133" lon="10.8711433"><ele>288.0</ele><time>2026-04-25T10:44:53.885Z</time></trkpt><trkpt lat="45.542405" lon="10.8710933"><ele>288.3333333333333</ele><time>2026-04-25T10:44:54.883Z</time></trkpt><trkpt lat="45.5426017" lon="10.8710383"><ele>288.66666666666663</ele><time>2026-04-25T10:44:55.888Z</time></trkpt><trkpt lat="45.542795" lon="10.8709983"><ele>289.0</ele><time>2026-04-25T10:44:56.878Z</time></trkpt><trkpt lat="45.542955" lon="10.870995"><ele>289.0</ele><time>2026-04-25T10:44:57.879Z</time></trkpt><trkpt lat="45.543105" lon="10.8709417"><ele>289.0</ele><time>2026-04-25T10:44:58.883Z</time></trkpt><trkpt lat="45.5432333" lon="10.87092"><ele>289.0</ele><time>2026-04-25T10:44:59.882Z</time></trkpt><trkpt lat="45.543335" lon="10.8708867"><ele>289.0</ele><time>2026-04-25T10:45:00.883Z</time></trkpt><trkpt lat="45.54339" lon="10.8708133"><ele>293.16666666666663</ele><time>2026-04-25T10:45:01.888Z</time></trkpt><trkpt lat="45.5434083" lon="10.870725"><ele>297.3333333333333</ele><time>2026-04-25T10:45:02.889Z</time></trkpt><trkpt lat="45.5433883" lon="10.8706333"><ele>301.5</ele><time>2026-04-25T10:45:03.889Z</time></trkpt><trkpt lat="45.5433483" lon="10.8705417"><ele>305.6666666666667</ele><time>2026-04-25T10:45:04.883Z</time></trkpt><trkpt lat="45.5432933" lon="10.8704817"><ele>309.83333333333337</ele><time>2026-04-25T10:45:05.897Z</time></trkpt><trkpt lat="45.5431933" lon="10.8704217"><ele>314.0</ele><time>2026-04-25T10:45:06.879Z</time></trkpt><trkpt lat="45.5430783" lon="10.870375"><ele>314.0</ele><time>2026-04-25T10:45:07.881Z</time></trkpt><trkpt lat="45.5429383" lon="10.8703367"><ele>314.0</ele><time>2026-04-25T10:45:08.891Z</time></trkpt><trkpt lat="45.542785" lon="10.87031"><ele>314.0</ele><time>2026-04-25T10:45:09.885Z</time></trkpt><trkpt lat="45.5426483" lon="10.870285"><ele>314.0</ele><time>2026-04-25T10:45:10.888Z</time></trkpt><trkpt lat="45.54249" lon="10.8702417"><ele>314.0</ele><time>2026-04-25T10:45:11.887Z</time></trkpt><trkpt lat="45.542315" lon="10.870185"><ele>314.0</ele><time>2026-04-25T10:45:12.885Z</time></trkpt><trkpt lat="45.542145" lon="10.8700883"><ele>314.0</ele><time>2026-04-25T10:45:13.882Z</time></trkpt><trkpt lat="45.5419833" lon="10.8699617"><ele>318.33333333333337</ele><time>2026-04-25T10:45:14.893Z</time></trkpt><trkpt lat="45.5418333" lon="10.8698067"><ele>322.6666666666667</ele><time>2026-04-25T10:45:15.88Z</time></trkpt><trkpt lat="45.5416917" lon="10.86964"><ele>327.0</ele><time>2026-04-25T10:45:16.887Z</time></trkpt><trkpt lat="45.5415467" lon="10.8695167"><ele>327.0</ele><time>2026-04-25T10:45:17.905Z</time></trkpt><trkpt lat="45.54141" lon="10.869425"><ele>327.0</ele><time>2026-04-25T10:45:18.888Z</time></trkpt><trkpt lat="45.5413033" lon="10.8693717"><ele>327.0</ele><time>2026-04-25T10:45:19.884Z</time></trkpt><trkpt lat="45.5412317" lon="10.8693233"><ele>327.0</ele><time>2026-04-25T10:45:20.884Z</time></trkpt><trkpt lat="45.541205" lon="10.8692083"><ele>327.0</ele><time>2026-04-25T10:45:22.884Z</time></trkpt><trkpt lat="45.5412917" lon="10.869235"><ele>327.0</ele><time>2026-04-25T10:45:23.889Z</time></trkpt><trkpt lat="45.5413667" lon="10.8692783"><ele>327.0</ele><time>2026-04-25T10:45:24.89Z</time></trkpt><trkpt lat="45.5414533" lon="10.86937"><ele>327.0</ele><time>2026-04-25T10:45:25.887Z</time></trkpt><trkpt lat="45.5415517" lon="10.8695017"><ele>327.0</ele><time>2026-04-25T10:45:26.884Z</time></trkpt><trkpt lat="45.5416683" lon="10.8696183"><ele>327.0</ele><time>2026-04-25T10:45:27.885Z</time></trkpt><trkpt lat="45.5418067" lon="10.869735"><ele>327.0</ele><time>2026-04-25T10:45:28.881Z</time></trkpt><trkpt lat="45.5419367" lon="10.8698333"><ele>327.0</ele><time>2026-04-25T10:45:29.891Z</time></trkpt><trkpt lat="45.5420967" lon="10.8698867"><ele>331.0</ele><time>2026-04-25T10:45:30.883Z</time></trkpt><trkpt lat="45.542285" lon="10.8699"><ele>335.0</ele><time>2026-04-25T10:45:31.895Z</time></trkpt><trkpt lat="45.542475" lon="10.869895"><ele>339.0</ele><time>2026-04-25T10:45:32.884Z</time></trkpt><trkpt lat="45.54266" lon="10.8698817"><ele>339.0</ele><time>2026-04-25T10:45:33.888Z</time></trkpt><trkpt lat="45.54285" lon="10.8698633"><ele>339.0</ele><time>2026-04-25T10:45:34.882Z</time></trkpt><trkpt lat="45.54305" lon="10.8698267"><ele>339.0</ele><time>2026-04-25T10:45:35.886Z</time></trkpt><trkpt lat="45.5432417" lon="10.8697583"><ele>338.6666666666667</ele><time>2026-04-25T10:45:36.895Z</time></trkpt><trkpt lat="45.5434117" lon="10.8696833"><ele>338.33333333333337</ele><time>2026-04-25T10:45:37.887Z</time></trkpt><trkpt lat="45.5435517" lon="10.8695733"><ele>338.0</ele><time>2026-04-25T10:45:38.886Z</time></trkpt><trkpt lat="45.5436983" lon="10.8694517"><ele>343.0</ele><time>2026-04-25T10:45:39.886Z</time></trkpt><trkpt lat="45.543835" lon="10.869275"><ele>348.0</ele><time>2026-04-25T10:45:40.908Z</time></trkpt><trkpt lat="45.5439767" lon="10.86915"><ele>353.0</ele><time>2026-04-25T10:45:41.887Z</time></trkpt><trkpt lat="45.544145" lon="10.869025"><ele>353.0</ele><time>2026-04-25T10:45:42.893Z</time></trkpt><trkpt lat="45.544325" lon="10.8689283"><ele>353.0</ele><time>2026-04-25T10:45:43.887Z</time></trkpt><trkpt lat="45.5445167" lon="10.8688567"><ele>353.0</ele><time>2026-04-25T10:45:44.89Z</time></trkpt><trkpt lat="45.54471" lon="10.8687817"><ele>355.33333333333337</ele><time>2026-04-25T10:45:45.879Z</time></trkpt><trkpt lat="45.5448867" lon="10.8687233"><ele>357.6666666666667</ele><time>2026-04-25T10:45:46.892Z</time></trkpt><trkpt lat="45.54505" lon="10.8686533"><ele>360.0</ele><time>2026-04-25T10:45:47.924Z</time></trkpt><trkpt lat="45.5451667" lon="10.86861"><ele>360.0</ele><time>2026-04-25T10:45:48.887Z</time></trkpt><trkpt lat="45.5452583" lon="10.8686383"><ele>360.0</ele><time>2026-04-25T10:45:49.886Z</time></trkpt><trkpt lat="45.54532" lon="10.8687533"><ele>360.0</ele><time>2026-04-25T10:45:50.886Z</time></trkpt><trkpt lat="45.5453717" lon="10.8689"><ele>360.0</ele><time>2026-04-25T10:45:51.881Z</time></trkpt><trkpt lat="45.5454033" lon="10.869095"><ele>361.0</ele><time>2026-04-25T10:45:52.884Z</time></trkpt><trkpt lat="45.5454733" lon="10.8692933"><ele>362.0</ele><time>2026-04-25T10:45:53.892Z</time></trkpt><trkpt lat="45.5455567" lon="10.8694583"><ele>363.0</ele><time>2026-04-25T10:45:54.895Z</time></trkpt><trkpt lat="45.545685" lon="10.8695817"><ele>363.0</ele><time>2026-04-25T10:45:55.891Z</time></trkpt><trkpt lat="45.5458267" lon="10.8696983"><ele>363.0</ele><time>2026-04-25T10:45:56.89Z</time></trkpt><trkpt lat="45.5459967" lon="10.8697433"><ele>363.0</ele><time>2026-04-25T10:45:57.884Z</time></trkpt><trkpt lat="45.5461717" lon="10.8697667"><ele>364.3333333333333</ele><time>2026-04-25T10:45:58.891Z</time></trkpt><trkpt lat="45.5463617" lon="10.8697183"><ele>365.66666666666663</ele><time>2026-04-25T10:45:59.899Z</time></trkpt><trkpt lat="45.546545" lon="10.8696583"><ele>367.0</ele><time>2026-04-25T10:46:00.886Z</time></trkpt><trkpt lat="45.5467133" lon="10.8695967"><ele>367.0</ele><time>2026-04-25T10:46:01.888Z</time></trkpt><trkpt lat="45.5468683" lon="10.8695317"><ele>367.0</ele><time>2026-04-25T10:46:02.887Z</time></trkpt><trkpt lat="45.5469867" lon="10.8695267"><ele>367.0</ele><time>2026-04-25T10:46:03.89Z</time></trkpt><trkpt lat="45.5470883" lon="10.869505"><ele>367.0</ele><time>2026-04-25T10:46:04.882Z</time></trkpt><trkpt lat="45.5471167" lon="10.8693983"><ele>366.0</ele><time>2026-04-25T10:46:05.884Z</time></trkpt><trkpt lat="45.5471067" lon="10.8692867"><ele>365.0</ele><time>2026-04-25T10:46:06.893Z</time></trkpt><trkpt lat="45.547065" lon="10.8691967"><ele>364.0</ele><time>2026-04-25T10:46:07.893Z</time></trkpt><trkpt lat="45.5470083" lon="10.8691283"><ele>363.0</ele><time>2026-04-25T10:46:08.887Z</time></trkpt><trkpt lat="45.5468867" lon="10.869155"><ele>362.0</ele><time>2026-04-25T10:46:09.887Z</time></trkpt><trkpt lat="45.5467783" lon="10.869175"><ele>371.0</ele><time>2026-04-25T10:46:10.886Z</time></trkpt><trkpt lat="45.5466167" lon="10.8692133"><ele>380.0</ele><time>2026-04-25T10:46:11.896Z</time></trkpt><trkpt lat="45.5464717" lon="10.8692567"><ele>389.0</ele><time>2026-04-25T10:46:12.89Z</time></trkpt><trkpt lat="45.5463167" lon="10.8692033"><ele>386.3333333333333</ele><time>2026-04-25T10:46:13.881Z</time></trkpt><trkpt lat="45.54617" lon="10.8691533"><ele>383.66666666666663</ele><time>2026-04-25T10:46:14.896Z</time></trkpt><trkpt lat="45.5460317" lon="10.869045"><ele>381.0</ele><time>2026-04-25T10:46:15.887Z</time></trkpt><trkpt lat="45.5459183" lon="10.8689"><ele>381.0</ele><time>2026-04-25T10:46:16.886Z</time></trkpt><trkpt lat="45.5458583" lon="10.8687167"><ele>381.0</ele><time>2026-04-25T10:46:17.891Z</time></trkpt><trkpt lat="45.545795" lon="10.86852"><ele>381.0</ele><time>2026-04-25T10:46:18.895Z</time></trkpt><trkpt lat="45.5457233" lon="10.86835"><ele>381.0</ele><time>2026-04-25T10:46:19.881Z</time></trkpt><trkpt lat="45.5456517" lon="10.8681717"><ele>381.5</ele><time>2026-04-25T10:46:20.88Z</time></trkpt><trkpt lat="45.5455733" lon="10.8680417"><ele>382.0</ele><time>2026-04-25T10:46:21.897Z</time></trkpt><trkpt lat="45.5454817" lon="10.8679083"><ele>382.5</ele><time>2026-04-25T10:46:22.884Z</time></trkpt><trkpt lat="45.5453833" lon="10.867825"><ele>383.0</ele><time>2026-04-25T10:46:23.883Z</time></trkpt><trkpt lat="45.5452833" lon="10.8677517"><ele>383.0</ele><time>2026-04-25T10:46:24.877Z</time></trkpt><trkpt lat="45.545135" lon="10.8677233"><ele>383.0</ele><time>2026-04-25T10:46:25.891Z</time></trkpt><trkpt lat="45.5449567" lon="10.8677433"><ele>383.0</ele><time>2026-04-25T10:46:26.882Z</time></trkpt><trkpt lat="45.544755" lon="10.86778"><ele>381.6666666666667</ele><time>2026-04-25T10:46:27.886Z</time></trkpt><trkpt lat="45.5445417" lon="10.8678067"><ele>380.3333333333333</ele><time>2026-04-25T10:46:28.898Z</time></trkpt><trkpt lat="45.54433" lon="10.8678033"><ele>379.0</ele><time>2026-04-25T10:46:29.898Z</time></trkpt><trkpt lat="45.5441333" lon="10.8677817"><ele>379.0</ele><time>2026-04-25T10:46:30.885Z</time></trkpt><trkpt lat="45.5439417" lon="10.86773"><ele>379.0</ele><time>2026-04-25T10:46:31.898Z</time></trkpt><trkpt lat="45.543755" lon="10.8676517"><ele>379.0</ele><time>2026-04-25T10:46:32.887Z</time></trkpt><trkpt lat="45.543605" lon="10.8675583"><ele>383.25</ele><time>2026-04-25T10:46:33.88Z</time></trkpt><trkpt lat="45.543465" lon="10.8674833"><ele>387.5</ele><time>2026-04-25T10:46:34.892Z</time></trkpt><trkpt lat="45.5433733" lon="10.8674033"><ele>391.75</ele><time>2026-04-25T10:46:35.891Z</time></trkpt><trkpt lat="45.5433383" lon="10.86725"><ele>396.0</ele><time>2026-04-25T10:46:36.89Z</time></trkpt><trkpt lat="45.5433083" lon="10.8670083"><ele>396.0</ele><time>2026-04-25T10:46:37.904Z</time></trkpt><trkpt lat="45.5433017" lon="10.866805"><ele>396.0</ele><time>2026-04-25T10:46:38.886Z</time></trkpt><trkpt lat="45.5432817" lon="10.866575"><ele>396.0</ele><time>2026-04-25T10:46:39.887Z</time></trkpt><trkpt lat="45.54327" lon="10.8663417"><ele>397.5</ele><time>2026-04-25T10:46:40.884Z</time></trkpt><trkpt lat="45.5432617" lon="10.866125"><ele>399.0</ele><time>2026-04-25T10:46:41.891Z</time></trkpt><trkpt lat="45.5432583" lon="10.865925"><ele>400.5</ele><time>2026-04-25T10:46:42.885Z</time></trkpt><trkpt lat="45.5432983" lon="10.8657683"><ele>402.0</ele><time>2026-04-25T10:46:43.884Z</time></trkpt><trkpt lat="45.543355" lon="10.865595"><ele>402.0</ele><time>2026-04-25T10:46:44.894Z</time></trkpt><trkpt lat="45.5434517" lon="10.8654233"><ele>402.0</ele><time>2026-04-25T10:46:45.896Z</time></trkpt><trkpt lat="45.543545" lon="10.86524"><ele>402.0</ele><time>2026-04-25T10:46:46.89Z</time></trkpt><trkpt lat="45.5436483" lon="10.8650717"><ele>404.25</ele><time>2026-04-25T10:46:47.906Z</time></trkpt><trkpt lat="45.5437417" lon="10.8649117"><ele>406.5</ele><time>2026-04-25T10:46:48.893Z</time></trkpt><trkpt lat="45.5438567" lon="10.8647917"><ele>408.75</ele><time>2026-04-25T10:46:49.944Z</time></trkpt><trkpt lat="45.544" lon="10.8647417"><ele>411.0</ele><time>2026-04-25T10:46:50.888Z</time></trkpt><trkpt lat="45.5441567" lon="10.86472"><ele>411.0</ele><time>2026-04-25T10:46:51.891Z</time></trkpt><trkpt lat="45.5443083" lon="10.86472"><ele>411.0</ele><time>2026-04-25T10:46:52.902Z</time></trkpt><trkpt lat="45.5444667" lon="10.8647833"><ele>411.0</ele><time>2026-04-25T10:46:53.899Z</time></trkpt><trkpt lat="45.5446017" lon="10.864915"><ele>414.0</ele><time>2026-04-25T10:46:54.891Z</time></trkpt><trkpt lat="45.5447167" lon="10.8650867"><ele>417.0</ele><time>2026-04-25T10:46:55.883Z</time></trkpt><trkpt lat="45.54484" lon="10.8652833"><ele>420.0</ele><time>2026-04-25T10:46:56.897Z</time></trkpt><trkpt lat="45.54508" lon="10.8656783"><ele>420.0</ele><time>2026-04-25T10:46:58.886Z</time></trkpt><trkpt lat="45.5452183" lon="10.8658867"><ele>420.0</ele><time>2026-04-25T10:46:59.911Z</time></trkpt><trkpt lat="45.5453483" lon="10.866075"><ele>420.0</ele><time>2026-04-25T10:47:00.906Z</time></trkpt><trkpt lat="45.545505" lon="10.866235"><ele>423.0</ele><time>2026-04-25T10:47:01.887Z</time></trkpt><trkpt lat="45.5456633" lon="10.866375"><ele>426.0</ele><time>2026-04-25T10:47:02.888Z</time></trkpt><trkpt lat="45.5458333" lon="10.866505"><ele>429.0</ele><time>2026-04-25T10:47:03.9Z</time></trkpt><trkpt lat="45.5460183" lon="10.8666267"><ele>429.0</ele><time>2026-04-25T10:47:04.883Z</time></trkpt><trkpt lat="45.546205" lon="10.86674"><ele>429.0</ele><time>2026-04-25T10:47:05.89Z</time></trkpt><trkpt lat="45.54638" lon="10.86686"><ele>429.0</ele><time>2026-04-25T10:47:06.899Z</time></trkpt><trkpt lat="45.5465683" lon="10.86698"><ele>428.0</ele><time>2026-04-25T10:47:07.893Z</time></trkpt><trkpt lat="45.546765" lon="10.8670583"><ele>427.0</ele><time>2026-04-25T10:47:08.917Z</time></trkpt><trkpt lat="45.54695" lon="10.8671217"><ele>426.0</ele><time>2026-04-25T10:47:09.916Z</time></trkpt><trkpt lat="45.54711" lon="10.8671917"><ele>428.6</ele><time>2026-04-25T10:47:10.899Z</time></trkpt><trkpt lat="45.54723" lon="10.8672417"><ele>431.20000000000005</ele><time>2026-04-25T10:47:11.891Z</time></trkpt><trkpt lat="45.5473167" lon="10.8672867"><ele>433.79999999999995</ele><time>2026-04-25T10:47:12.892Z</time></trkpt><trkpt lat="45.5474" lon="10.86725"><ele>436.4</ele><time>2026-04-25T10:47:13.893Z</time></trkpt><trkpt lat="45.5474783" lon="10.8672517"><ele>439.0</ele><time>2026-04-25T10:47:14.883Z</time></trkpt><trkpt lat="45.54757" lon="10.8672117"><ele>439.0</ele><time>2026-04-25T10:47:15.892Z</time></trkpt><trkpt lat="45.5476833" lon="10.8671167"><ele>439.0</ele><time>2026-04-25T10:47:16.893Z</time></trkpt><trkpt lat="45.5477917" lon="10.867"><ele>439.0</ele><time>2026-04-25T10:47:17.876Z</time></trkpt><trkpt lat="45.5478967" lon="10.86687"><ele>439.0</ele><time>2026-04-25T10:47:18.886Z</time></trkpt><trkpt lat="45.5480383" lon="10.8667233"><ele>442.33333333333337</ele><time>2026-04-25T10:47:19.892Z</time></trkpt><trkpt lat="45.5481867" lon="10.8665817"><ele>445.66666666666663</ele><time>2026-04-25T10:47:20.885Z</time></trkpt><trkpt lat="45.5483583" lon="10.86645"><ele>449.0</ele><time>2026-04-25T10:47:21.88Z</time></trkpt><trkpt lat="45.5485383" lon="10.8663283"><ele>447.0</ele><time>2026-04-25T10:47:22.886Z</time></trkpt><trkpt lat="45.5487333" lon="10.8662267"><ele>445.0</ele><time>2026-04-25T10:47:23.897Z</time></trkpt><trkpt lat="45.5489333" lon="10.8660983"><ele>443.0</ele><time>2026-04-25T10:47:24.907Z</time></trkpt><trkpt lat="45.549155" lon="10.8660133"><ele>445.5</ele><time>2026-04-25T10:47:25.896Z</time></trkpt><trkpt lat="45.549385" lon="10.865905"><ele>448.0</ele><time>2026-04-25T10:47:26.892Z</time></trkpt><trkpt lat="45.54959" lon="10.8658083"><ele>448.0</ele><time>2026-04-25T10:47:27.883Z</time></trkpt><trkpt lat="45.549775" lon="10.8657"><ele>448.0</ele><time>2026-04-25T10:47:28.885Z</time></trkpt><trkpt lat="45.549955" lon="10.865615"><ele>448.0</ele><time>2026-04-25T10:47:29.886Z</time></trkpt><trkpt lat="45.5501083" lon="10.8655617"><ele>448.0</ele><time>2026-04-25T10:47:30.887Z</time></trkpt><trkpt lat="45.5502767" lon="10.8655567"><ele>448.0</ele><time>2026-04-25T10:47:31.891Z</time></trkpt><trkpt lat="45.5504383" lon="10.8655917"><ele>448.0</ele><time>2026-04-25T10:47:32.887Z</time></trkpt><trkpt lat="45.5506017" lon="10.865665"><ele>449.33333333333337</ele><time>2026-04-25T10:47:33.885Z</time></trkpt><trkpt lat="45.5507817" lon="10.865765"><ele>450.66666666666663</ele><time>2026-04-25T10:47:34.879Z</time></trkpt><trkpt lat="45.550975" lon="10.8659067"><ele>452.0</ele><time>2026-04-25T10:47:35.889Z</time></trkpt><trkpt lat="45.5511367" lon="10.8660483"><ele>451.66666666666663</ele><time>2026-04-25T10:47:36.876Z</time></trkpt><trkpt lat="45.5513267" lon="10.8661833"><ele>451.33333333333337</ele><time>2026-04-25T10:47:37.882Z</time></trkpt><trkpt lat="45.5514967" lon="10.86629"><ele>451.0</ele><time>2026-04-25T10:47:38.906Z</time></trkpt><trkpt lat="45.5516283" lon="10.8663017"><ele>451.0</ele><time>2026-04-25T10:47:39.902Z</time></trkpt><trkpt lat="45.5517817" lon="10.8662567"><ele>451.0</ele><time>2026-04-25T10:47:40.888Z</time></trkpt><trkpt lat="45.551945" lon="10.8662417"><ele>451.0</ele><time>2026-04-25T10:47:41.885Z</time></trkpt><trkpt lat="45.5521267" lon="10.86621"><ele>449.6666666666667</ele><time>2026-04-25T10:47:42.9Z</time></trkpt><trkpt lat="45.55231" lon="10.866245"><ele>448.33333333333337</ele><time>2026-04-25T10:47:43.885Z</time></trkpt><trkpt lat="45.55251" lon="10.8662883"><ele>447.0</ele><time>2026-04-25T10:47:44.89Z</time></trkpt><trkpt lat="45.5527133" lon="10.86633"><ele>447.33333333333337</ele><time>2026-04-25T10:47:45.9Z</time></trkpt><trkpt lat="45.552925" lon="10.866385"><ele>447.6666666666667</ele><time>2026-04-25T10:47:46.884Z</time></trkpt><trkpt lat="45.553125" lon="10.86639"><ele>448.0</ele><time>2026-04-25T10:47:47.883Z</time></trkpt><trkpt lat="45.55334" lon="10.8664133"><ele>448.0</ele><time>2026-04-25T10:47:48.893Z</time></trkpt><trkpt lat="45.5535617" lon="10.8663767"><ele>448.0</ele><time>2026-04-25T10:47:49.879Z</time></trkpt><trkpt lat="45.5538017" lon="10.86633"><ele>445.5</ele><time>2026-04-25T10:47:50.89Z</time></trkpt><trkpt lat="45.5540467" lon="10.8662517"><ele>443.0</ele><time>2026-04-25T10:47:51.883Z</time></trkpt><trkpt lat="45.5542783" lon="10.8661367"><ele>443.0</ele><time>2026-04-25T10:47:52.888Z</time></trkpt><trkpt lat="45.554475" lon="10.8660767"><ele>443.0</ele><time>2026-04-25T10:47:53.882Z</time></trkpt><trkpt lat="45.554665" lon="10.8660517"><ele>443.0</ele><time>2026-04-25T10:47:54.888Z</time></trkpt><trkpt lat="45.5548467" lon="10.8660567"><ele>445.66666666666663</ele><time>2026-04-25T10:47:55.878Z</time></trkpt><trkpt lat="45.5550033" lon="10.8661433"><ele>448.33333333333337</ele><time>2026-04-25T10:47:56.885Z</time></trkpt><trkpt lat="45.5551433" lon="10.8662833"><ele>451.0</ele><time>2026-04-25T10:47:57.88Z</time></trkpt><trkpt lat="45.555265" lon="10.8664283"><ele>447.6666666666667</ele><time>2026-04-25T10:47:58.898Z</time></trkpt><trkpt lat="45.5553783" lon="10.8666"><ele>444.33333333333337</ele><time>2026-04-25T10:47:59.881Z</time></trkpt><trkpt lat="45.5554917" lon="10.8667583"><ele>441.0</ele><time>2026-04-25T10:48:00.894Z</time></trkpt><trkpt lat="45.5556233" lon="10.8668817"><ele>441.0</ele><time>2026-04-25T10:48:01.885Z</time></trkpt><trkpt lat="45.5557767" lon="10.8669633"><ele>441.0</ele><time>2026-04-25T10:48:02.883Z</time></trkpt><trkpt lat="45.55594" lon="10.86702"><ele>441.0</ele><time>2026-04-25T10:48:03.886Z</time></trkpt><trkpt lat="45.5561283" lon="10.8669767"><ele>440.33333333333337</ele><time>2026-04-25T10:48:04.876Z</time></trkpt><trkpt lat="45.5563" lon="10.8669117"><ele>439.6666666666667</ele><time>2026-04-25T10:48:05.886Z</time></trkpt><trkpt lat="45.5564767" lon="10.8668"><ele>439.0</ele><time>2026-04-25T10:48:06.881Z</time></trkpt><trkpt lat="45.5566" lon="10.8665983"><ele>444.6666666666667</ele><time>2026-04-25T10:48:07.889Z</time></trkpt><trkpt lat="45.5567333" lon="10.8664333"><ele>450.33333333333337</ele><time>2026-04-25T10:48:08.881Z</time></trkpt><trkpt lat="45.5568683" lon="10.8662833"><ele>456.0</ele><time>2026-04-25T10:48:09.878Z</time></trkpt><trkpt lat="45.5570117" lon="10.8661567"><ele>452.66666666666663</ele><time>2026-04-25T10:48:10.891Z</time></trkpt><trkpt lat="45.5571883" lon="10.8660833"><ele>449.3333333333333</ele><time>2026-04-25T10:48:11.9Z</time></trkpt><trkpt lat="45.55736" lon="10.8659767"><ele>446.0</ele><time>2026-04-25T10:48:12.883Z</time></trkpt><trkpt lat="45.5575333" lon="10.8658617"><ele>452.66666666666663</ele><time>2026-04-25T10:48:13.89Z</time></trkpt><trkpt lat="45.55771" lon="10.8657417"><ele>459.33333333333337</ele><time>2026-04-25T10:48:14.888Z</time></trkpt><trkpt lat="45.5578917" lon="10.86563"><ele>466.0</ele><time>2026-04-25T10:48:15.88Z</time></trkpt><trkpt lat="45.5580717" lon="10.86556"><ele>466.0</ele><time>2026-04-25T10:48:16.885Z</time></trkpt><trkpt lat="45.5582567" lon="10.865535"><ele>466.0</ele><time>2026-04-25T10:48:17.903Z</time></trkpt><trkpt lat="45.558445" lon="10.8655467"><ele>466.0</ele><time>2026-04-25T10:48:18.888Z</time></trkpt><trkpt lat="45.558635" lon="10.8656117"><ele>463.6666666666667</ele><time>2026-04-25T10:48:19.877Z</time></trkpt><trkpt lat="45.55883" lon="10.8657083"><ele>461.33333333333337</ele><time>2026-04-25T10:48:20.886Z</time></trkpt><trkpt lat="45.5590333" lon="10.8658217"><ele>459.0</ele><time>2026-04-25T10:48:21.885Z</time></trkpt><trkpt lat="45.559235" lon="10.8659633"><ele>459.0</ele><time>2026-04-25T10:48:22.881Z</time></trkpt><trkpt lat="45.5594417" lon="10.86612"><ele>459.0</ele><time>2026-04-25T10:48:23.884Z</time></trkpt><trkpt lat="45.5596467" lon="10.86628"><ele>469.0</ele><time>2026-04-25T10:48:24.885Z</time></trkpt><trkpt lat="45.5598417" lon="10.86646"><ele>479.0</ele><time>2026-04-25T10:48:25.887Z</time></trkpt><trkpt lat="45.5600333" lon="10.8666183"><ele>479.0</ele><time>2026-04-25T10:48:26.896Z</time></trkpt><trkpt lat="45.5602183" lon="10.866765"><ele>479.0</ele><time>2026-04-25T10:48:27.874Z</time></trkpt><trkpt lat="45.5603933" lon="10.8668783"><ele>479.0</ele><time>2026-04-25T10:48:28.886Z</time></trkpt><trkpt lat="45.5605433" lon="10.866975"><ele>478.5</ele><time>2026-04-25T10:48:29.874Z</time></trkpt><trkpt lat="45.560665" lon="10.867"><ele>478.0</ele><time>2026-04-25T10:48:30.891Z</time></trkpt><trkpt lat="45.56078" lon="10.8670133"><ele>477.5</ele><time>2026-04-25T10:48:31.88Z</time></trkpt><trkpt lat="45.56091" lon="10.8669183"><ele>477.0</ele><time>2026-04-25T10:48:32.919Z</time></trkpt><trkpt lat="45.5609817" lon="10.8667733"><ele>480.33333333333337</ele><time>2026-04-25T10:48:33.886Z</time></trkpt><trkpt lat="45.5611017" lon="10.8666117"><ele>483.6666666666667</ele><time>2026-04-25T10:48:34.882Z</time></trkpt><trkpt lat="45.5612417" lon="10.86646"><ele>487.0</ele><time>2026-04-25T10:48:35.886Z</time></trkpt><trkpt lat="45.561595" lon="10.8662367"><ele>488.33333333333337</ele><time>2026-04-25T10:48:37.884Z</time></trkpt><trkpt lat="45.561765" lon="10.8662417"><ele>489.66666666666663</ele><time>2026-04-25T10:48:38.879Z</time></trkpt><trkpt lat="45.56196" lon="10.8662917"><ele>491.0</ele><time>2026-04-25T10:48:39.887Z</time></trkpt><trkpt lat="45.5621483" lon="10.8663583"><ele>494.0</ele><time>2026-04-25T10:48:40.875Z</time></trkpt><trkpt lat="45.5623467" lon="10.8664517"><ele>497.0</ele><time>2026-04-25T10:48:41.882Z</time></trkpt><trkpt lat="45.5625417" lon="10.866615"><ele>500.0</ele><time>2026-04-25T10:48:42.878Z</time></trkpt><trkpt lat="45.5627417" lon="10.86677"><ele>501.0</ele><time>2026-04-25T10:48:43.885Z</time></trkpt><trkpt lat="45.5629367" lon="10.8669217"><ele>502.0</ele><time>2026-04-25T10:48:44.883Z</time></trkpt><trkpt lat="45.5631333" lon="10.8670633"><ele>503.0</ele><time>2026-04-25T10:48:45.898Z</time></trkpt><trkpt lat="45.5633383" lon="10.8671783"><ele>503.0</ele><time>2026-04-25T10:48:46.89Z</time></trkpt><trkpt lat="45.5635367" lon="10.8672783"><ele>503.0</ele><time>2026-04-25T10:48:47.893Z</time></trkpt><trkpt lat="45.56371" lon="10.8673833"><ele>503.0</ele><time>2026-04-25T10:48:48.883Z</time></trkpt><trkpt lat="45.563875" lon="10.8674467"><ele>505.4</ele><time>2026-04-25T10:48:49.884Z</time></trkpt><trkpt lat="45.56401" lon="10.867495"><ele>507.79999999999995</ele><time>2026-04-25T10:48:50.88Z</time></trkpt><trkpt lat="45.5641067" lon="10.86757"><ele>510.2</ele><time>2026-04-25T10:48:51.884Z</time></trkpt><trkpt lat="45.5641533" lon="10.8676917"><ele>512.6</ele><time>2026-04-25T10:48:52.881Z</time></trkpt><trkpt lat="45.5641717" lon="10.8678267"><ele>515.0</ele><time>2026-04-25T10:48:53.895Z</time></trkpt><trkpt lat="45.56412" lon="10.86797"><ele>515.0</ele><time>2026-04-25T10:48:54.885Z</time></trkpt><trkpt lat="45.56404" lon="10.8681117"><ele>515.0</ele><time>2026-04-25T10:48:55.891Z</time></trkpt><trkpt lat="45.5639317" lon="10.8682517"><ele>515.0</ele><time>2026-04-25T10:48:56.89Z</time></trkpt><trkpt lat="45.5638417" lon="10.8683917"><ele>515.0</ele><time>2026-04-25T10:48:57.877Z</time></trkpt><trkpt lat="45.563785" lon="10.8685267"><ele>514.6</ele><time>2026-04-25T10:48:58.888Z</time></trkpt><trkpt lat="45.56379" lon="10.8686667"><ele>514.2</ele><time>2026-04-25T10:48:59.89Z</time></trkpt><trkpt lat="45.563855" lon="10.86876"><ele>513.8</ele><time>2026-04-25T10:49:00.881Z</time></trkpt><trkpt lat="45.5639367" lon="10.8688283"><ele>513.4</ele><time>2026-04-25T10:49:01.888Z</time></trkpt><trkpt lat="45.5640583" lon="10.8688567"><ele>513.0</ele><time>2026-04-25T10:49:02.878Z</time></trkpt><trkpt lat="45.5642167" lon="10.868825"><ele>513.0</ele><time>2026-04-25T10:49:03.888Z</time></trkpt><trkpt lat="45.5643833" lon="10.868795"><ele>513.0</ele><time>2026-04-25T10:49:04.879Z</time></trkpt><trkpt lat="45.5645483" lon="10.8687867"><ele>513.0</ele><time>2026-04-25T10:49:05.881Z</time></trkpt><trkpt lat="45.56473" lon="10.868835"><ele>516.6666666666666</ele><time>2026-04-25T10:49:06.884Z</time></trkpt><trkpt lat="45.5649317" lon="10.8688967"><ele>520.3333333333333</ele><time>2026-04-25T10:49:07.892Z</time></trkpt><trkpt lat="45.5651283" lon="10.8689767"><ele>524.0</ele><time>2026-04-25T10:49:08.89Z</time></trkpt><trkpt lat="45.565305" lon="10.8690933"><ele>526.3333333333333</ele><time>2026-04-25T10:49:09.886Z</time></trkpt><trkpt lat="45.5654883" lon="10.86923"><ele>528.6666666666666</ele><time>2026-04-25T10:49:10.881Z</time></trkpt><trkpt lat="45.565655" lon="10.8693383"><ele>531.0</ele><time>2026-04-25T10:49:11.881Z</time></trkpt><trkpt lat="45.565795" lon="10.8694067"><ele>531.0</ele><time>2026-04-25T10:49:12.879Z</time></trkpt><trkpt lat="45.5659117" lon="10.86944"><ele>531.0</ele><time>2026-04-25T10:49:13.879Z</time></trkpt><trkpt lat="45.5660033" lon="10.86937"><ele>531.0</ele><time>2026-04-25T10:49:14.885Z</time></trkpt><trkpt lat="45.5661517" lon="10.869295"><ele>531.0</ele><time>2026-04-25T10:49:15.893Z</time></trkpt><trkpt lat="45.5662967" lon="10.8691617"><ele>534.0</ele><time>2026-04-25T10:49:16.886Z</time></trkpt><trkpt lat="45.5664167" lon="10.86902"><ele>537.0</ele><time>2026-04-25T10:49:17.883Z</time></trkpt><trkpt lat="45.5665333" lon="10.8689267"><ele>540.0</ele><time>2026-04-25T10:49:18.885Z</time></trkpt><trkpt lat="45.566645" lon="10.8689"><ele>543.0</ele><time>2026-04-25T10:49:19.883Z</time></trkpt><trkpt lat="45.56675" lon="10.86898"><ele>543.0</ele><time>2026-04-25T10:49:20.887Z</time></trkpt><trkpt lat="45.56682" lon="10.8690967"><ele>543.0</ele><time>2026-04-25T10:49:21.896Z</time></trkpt><trkpt lat="45.5668617" lon="10.86925"><ele>543.0</ele><time>2026-04-25T10:49:22.88Z</time></trkpt><trkpt lat="45.5669" lon="10.8694367"><ele>543.0</ele><time>2026-04-25T10:49:23.875Z</time></trkpt><trkpt lat="45.5669183" lon="10.8696683"><ele>543.3333333333334</ele><time>2026-04-25T10:49:24.888Z</time></trkpt><trkpt lat="45.5669317" lon="10.869925"><ele>543.6666666666667</ele><time>2026-04-25T10:49:25.883Z</time></trkpt><trkpt lat="45.5669533" lon="10.8702217"><ele>544.0</ele><time>2026-04-25T10:49:26.882Z</time></trkpt><trkpt lat="45.5669917" lon="10.8705117"><ele>552.0</ele><time>2026-04-25T10:49:27.897Z</time></trkpt><trkpt lat="45.56703" lon="10.870805"><ele>560.0</ele><time>2026-04-25T10:49:28.892Z</time></trkpt><trkpt lat="45.5670933" lon="10.8710767"><ele>568.0</ele><time>2026-04-25T10:49:29.875Z</time></trkpt><trkpt lat="45.5671333" lon="10.8713483"><ele>568.6666666666667</ele><time>2026-04-25T10:49:30.887Z</time></trkpt><trkpt lat="45.5671783" lon="10.8715533"><ele>569.3333333333334</ele><time>2026-04-25T10:49:31.882Z</time></trkpt><trkpt lat="45.5672117" lon="10.8717783"><ele>570.0</ele><time>2026-04-25T10:49:32.928Z</time></trkpt><trkpt lat="45.5671967" lon="10.8720033"><ele>571.6666666666666</ele><time>2026-04-25T10:49:33.885Z</time></trkpt><trkpt lat="45.5671283" lon="10.87225"><ele>573.3333333333333</ele><time>2026-04-25T10:49:34.879Z</time></trkpt><trkpt lat="45.56705" lon="10.8725017"><ele>575.0</ele><time>2026-04-25T10:49:35.878Z</time></trkpt><trkpt lat="45.5669717" lon="10.87276"><ele>574.0</ele><time>2026-04-25T10:49:36.899Z</time></trkpt><trkpt lat="45.5668933" lon="10.8730367"><ele>573.0</ele><time>2026-04-25T10:49:37.88Z</time></trkpt><trkpt lat="45.56681" lon="10.87331"><ele>572.0</ele><time>2026-04-25T10:49:38.877Z</time></trkpt><trkpt lat="45.5667317" lon="10.8735917"><ele>572.0</ele><time>2026-04-25T10:49:39.893Z</time></trkpt><trkpt lat="45.56667" lon="10.8738333"><ele>572.0</ele><time>2026-04-25T10:49:40.881Z</time></trkpt><trkpt lat="45.5666067" lon="10.874075"><ele>572.0</ele><time>2026-04-25T10:49:41.894Z</time></trkpt><trkpt lat="45.5665433" lon="10.8742783"><ele>576.0</ele><time>2026-04-25T10:49:42.881Z</time></trkpt><trkpt lat="45.566485" lon="10.8744933"><ele>580.0</ele><time>2026-04-25T10:49:43.891Z</time></trkpt><trkpt lat="45.5663783" lon="10.8746567"><ele>584.0</ele><time>2026-04-25T10:49:44.88Z</time></trkpt><trkpt lat="45.566245" lon="10.874785"><ele>582.25</ele><time>2026-04-25T10:49:45.883Z</time></trkpt><trkpt lat="45.5660883" lon="10.8748617"><ele>580.5</ele><time>2026-04-25T10:49:46.897Z</time></trkpt><trkpt lat="45.5659433" lon="10.8748817"><ele>578.75</ele><time>2026-04-25T10:49:47.884Z</time></trkpt><trkpt lat="45.565835" lon="10.87488"><ele>577.0</ele><time>2026-04-25T10:49:48.892Z</time></trkpt><trkpt lat="45.5657567" lon="10.8749217"><ele>579.8000000000001</ele><time>2026-04-25T10:49:49.894Z</time></trkpt><trkpt lat="45.56574" lon="10.875115"><ele>582.6</ele><time>2026-04-25T10:49:51.877Z</time></trkpt><trkpt lat="45.56576" lon="10.8752067"><ele>585.4000000000001</ele><time>2026-04-25T10:49:52.888Z</time></trkpt><trkpt lat="45.5658217" lon="10.8752783"><ele>588.2</ele><time>2026-04-25T10:49:53.882Z</time></trkpt><trkpt lat="45.56591" lon="10.8752917"><ele>591.0</ele><time>2026-04-25T10:49:54.887Z</time></trkpt><trkpt lat="45.5660433" lon="10.87524"><ele>592.6666666666666</ele><time>2026-04-25T10:49:55.885Z</time></trkpt><trkpt lat="45.5662367" lon="10.8751183"><ele>594.3333333333333</ele><time>2026-04-25T10:49:56.882Z</time></trkpt><trkpt lat="45.566415" lon="10.87505"><ele>596.0</ele><time>2026-04-25T10:49:57.883Z</time></trkpt><trkpt lat="45.566575" lon="10.874975"><ele>596.0</ele><time>2026-04-25T10:49:58.887Z</time></trkpt><trkpt lat="45.5667583" lon="10.8749067"><ele>596.0</ele><time>2026-04-25T10:49:59.884Z</time></trkpt><trkpt lat="45.56694" lon="10.87482"><ele>596.0</ele><time>2026-04-25T10:50:00.891Z</time></trkpt><trkpt lat="45.5671417" lon="10.874735"><ele>596.0</ele><time>2026-04-25T10:50:01.879Z</time></trkpt><trkpt lat="45.56737" lon="10.8746533"><ele>596.0</ele><time>2026-04-25T10:50:02.881Z</time></trkpt><trkpt lat="45.567585" lon="10.8745567"><ele>596.0</ele><time>2026-04-25T10:50:03.884Z</time></trkpt><trkpt lat="45.567835" lon="10.8744833"><ele>596.0</ele><time>2026-04-25T10:50:04.875Z</time></trkpt><trkpt lat="45.5680717" lon="10.8743817"><ele>596.0</ele><time>2026-04-25T10:50:05.915Z</time></trkpt><trkpt lat="45.56831" lon="10.87429"><ele>596.0</ele><time>2026-04-25T10:50:06.889Z</time></trkpt><trkpt lat="45.5685383" lon="10.8742033"><ele>598.3333333333333</ele><time>2026-04-25T10:50:07.888Z</time></trkpt><trkpt lat="45.56875" lon="10.8741233"><ele>600.6666666666666</ele><time>2026-04-25T10:50:08.892Z</time></trkpt><trkpt lat="45.5689333" lon="10.8740467"><ele>603.0</ele><time>2026-04-25T10:50:09.889Z</time></trkpt><trkpt lat="45.5691" lon="10.8739783"><ele>603.0</ele><time>2026-04-25T10:50:10.898Z</time></trkpt><trkpt lat="45.56925" lon="10.87392"><ele>603.0</ele><time>2026-04-25T10:50:11.898Z</time></trkpt><trkpt lat="45.5693833" lon="10.8738767"><ele>603.0</ele><time>2026-04-25T10:50:12.883Z</time></trkpt><trkpt lat="45.5695083" lon="10.8738467"><ele>603.0</ele><time>2026-04-25T10:50:13.885Z</time></trkpt><trkpt lat="45.5696417" lon="10.87382"><ele>602.0</ele><time>2026-04-25T10:50:14.893Z</time></trkpt><trkpt lat="45.56979" lon="10.873825"><ele>601.0</ele><time>2026-04-25T10:50:15.884Z</time></trkpt><trkpt lat="45.569945" lon="10.873845"><ele>600.0</ele><time>2026-04-25T10:50:16.882Z</time></trkpt><trkpt lat="45.5700933" lon="10.8738433"><ele>600.0</ele><time>2026-04-25T10:50:17.889Z</time></trkpt><trkpt lat="45.5702283" lon="10.87381"><ele>600.0</ele><time>2026-04-25T10:50:18.884Z</time></trkpt><trkpt lat="45.5703467" lon="10.8737233"><ele>600.0</ele><time>2026-04-25T10:50:19.893Z</time></trkpt><trkpt lat="45.5704517" lon="10.873605"><ele>600.0</ele><time>2026-04-25T10:50:20.876Z</time></trkpt><trkpt lat="45.5705233" lon="10.873435"><ele>600.0</ele><time>2026-04-25T10:50:21.891Z</time></trkpt><trkpt lat="45.5705633" lon="10.8732283"><ele>600.0</ele><time>2026-04-25T10:50:22.884Z</time></trkpt><trkpt lat="45.5705817" lon="10.8729917"><ele>600.0</ele><time>2026-04-25T10:50:23.885Z</time></trkpt><trkpt lat="45.570595" lon="10.8727467"><ele>601.75</ele><time>2026-04-25T10:50:24.886Z</time></trkpt><trkpt lat="45.5706183" lon="10.8725233"><ele>603.5</ele><time>2026-04-25T10:50:25.877Z</time></trkpt><trkpt lat="45.57066" lon="10.8723433"><ele>605.25</ele><time>2026-04-25T10:50:26.881Z</time></trkpt><trkpt lat="45.57072" lon="10.8722283"><ele>607.0</ele><time>2026-04-25T10:50:27.884Z</time></trkpt><trkpt lat="45.5708133" lon="10.872185"><ele>607.0</ele><time>2026-04-25T10:50:28.88Z</time></trkpt><trkpt lat="45.57091" lon="10.872175"><ele>607.0</ele><time>2026-04-25T10:50:29.885Z</time></trkpt><trkpt lat="45.5710033" lon="10.872275"><ele>607.0</ele><time>2026-04-25T10:50:30.888Z</time></trkpt><trkpt lat="45.5710867" lon="10.872415"><ele>607.0</ele><time>2026-04-25T10:50:31.884Z</time></trkpt><trkpt lat="45.57118" lon="10.8725667"><ele>609.5</ele><time>2026-04-25T10:50:32.886Z</time></trkpt><trkpt lat="45.5712617" lon="10.87271"><ele>612.0</ele><time>2026-04-25T10:50:33.883Z</time></trkpt><trkpt lat="45.571355" lon="10.8728367"><ele>614.5</ele><time>2026-04-25T10:50:34.884Z</time></trkpt><trkpt lat="45.5714133" lon="10.87292"><ele>617.0</ele><time>2026-04-25T10:50:35.881Z</time></trkpt><trkpt lat="45.5715333" lon="10.872925"><ele>617.0</ele><time>2026-04-25T10:50:37.902Z</time></trkpt><trkpt lat="45.57157" lon="10.872815"><ele>617.0</ele><time>2026-04-25T10:50:38.881Z</time></trkpt><trkpt lat="45.5715617" lon="10.87267"><ele>617.0</ele><time>2026-04-25T10:50:39.879Z</time></trkpt><trkpt lat="45.5714967" lon="10.8724933"><ele>617.0</ele><time>2026-04-25T10:50:40.879Z</time></trkpt><trkpt lat="45.571455" lon="10.872335"><ele>617.0</ele><time>2026-04-25T10:50:41.893Z</time></trkpt><trkpt lat="45.571415" lon="10.8721467"><ele>620.75</ele><time>2026-04-25T10:50:42.885Z</time></trkpt><trkpt lat="45.5713867" lon="10.871955"><ele>624.5</ele><time>2026-04-25T10:50:43.887Z</time></trkpt><trkpt lat="45.5713567" lon="10.871755"><ele>628.25</ele><time>2026-04-25T10:50:44.886Z</time></trkpt><trkpt lat="45.5713417" lon="10.8715967"><ele>632.0</ele><time>2026-04-25T10:50:45.882Z</time></trkpt><trkpt lat="45.5713767" lon="10.8714133"><ele>632.25</ele><time>2026-04-25T10:50:46.894Z</time></trkpt><trkpt lat="45.571445" lon="10.8712233"><ele>632.5</ele><time>2026-04-25T10:50:47.886Z</time></trkpt><trkpt lat="45.5715383" lon="10.8710517"><ele>632.75</ele><time>2026-04-25T10:50:48.879Z</time></trkpt><trkpt lat="45.571635" lon="10.8709433"><ele>633.0</ele><time>2026-04-25T10:50:49.886Z</time></trkpt><trkpt lat="45.571705" lon="10.87081"><ele>633.0</ele><time>2026-04-25T10:50:50.878Z</time></trkpt><trkpt lat="45.5717583" lon="10.8707033"><ele>633.0</ele><time>2026-04-25T10:50:51.904Z</time></trkpt><trkpt lat="45.5718217" lon="10.870575"><ele>633.0</ele><time>2026-04-25T10:50:52.884Z</time></trkpt><trkpt lat="45.571925" lon="10.8703967"><ele>633.0</ele><time>2026-04-25T10:50:53.894Z</time></trkpt><trkpt lat="45.5720217" lon="10.8703083"><ele>637.25</ele><time>2026-04-25T10:50:54.889Z</time></trkpt><trkpt lat="45.57216" lon="10.8702417"><ele>641.5</ele><time>2026-04-25T10:50:55.878Z</time></trkpt><trkpt lat="45.572305" lon="10.8701983"><ele>645.75</ele><time>2026-04-25T10:50:56.892Z</time></trkpt><trkpt lat="45.5724567" lon="10.8701867"><ele>650.0</ele><time>2026-04-25T10:50:57.881Z</time></trkpt><trkpt lat="45.572615" lon="10.8702683"><ele>650.0</ele><time>2026-04-25T10:50:58.881Z</time></trkpt><trkpt lat="45.572745" lon="10.8702933"><ele>650.0</ele><time>2026-04-25T10:50:59.886Z</time></trkpt><trkpt lat="45.5728367" lon="10.8703617"><ele>650.0</ele><time>2026-04-25T10:51:00.888Z</time></trkpt><trkpt lat="45.5729167" lon="10.87048"><ele>650.0</ele><time>2026-04-25T10:51:01.884Z</time></trkpt><trkpt lat="45.5729683" lon="10.870575"><ele>650.0</ele><time>2026-04-25T10:51:02.89Z</time></trkpt><trkpt lat="45.57306" lon="10.870725"><ele>651.0</ele><time>2026-04-25T10:51:03.887Z</time></trkpt><trkpt lat="45.5731683" lon="10.8708667"><ele>652.0</ele><time>2026-04-25T10:51:04.893Z</time></trkpt><trkpt lat="45.573275" lon="10.8710167"><ele>653.0</ele><time>2026-04-25T10:51:05.885Z</time></trkpt><trkpt lat="45.5733883" lon="10.8711633"><ele>654.0</ele><time>2026-04-25T10:51:06.894Z</time></trkpt><trkpt lat="45.5735033" lon="10.8713083"><ele>654.0</ele><time>2026-04-25T10:51:07.871Z</time></trkpt><trkpt lat="45.57362" lon="10.8714517"><ele>654.0</ele><time>2026-04-25T10:51:08.879Z</time></trkpt><trkpt lat="45.573775" lon="10.8716033"><ele>654.0</ele><time>2026-04-25T10:51:09.883Z</time></trkpt><trkpt lat="45.5739533" lon="10.87173"><ele>649.3333333333334</ele><time>2026-04-25T10:51:10.883Z</time></trkpt><trkpt lat="45.5741283" lon="10.871875"><ele>644.6666666666667</ele><time>2026-04-25T10:51:11.886Z</time></trkpt><trkpt lat="45.5743067" lon="10.8720233"><ele>640.0</ele><time>2026-04-25T10:51:12.882Z</time></trkpt><trkpt lat="45.5744867" lon="10.8721667"><ele>640.0</ele><time>2026-04-25T10:51:13.889Z</time></trkpt><trkpt lat="45.57467" lon="10.8722933"><ele>640.0</ele><time>2026-04-25T10:51:14.879Z</time></trkpt><trkpt lat="45.5748183" lon="10.872445"><ele>640.0</ele><time>2026-04-25T10:51:15.883Z</time></trkpt><trkpt lat="45.5749617" lon="10.8726467"><ele>640.0</ele><time>2026-04-25T10:51:16.883Z</time></trkpt><trkpt lat="45.5750683" lon="10.8728433"><ele>640.0</ele><time>2026-04-25T10:51:17.884Z</time></trkpt><trkpt lat="45.5752" lon="10.8730033"><ele>640.0</ele><time>2026-04-25T10:51:18.881Z</time></trkpt><trkpt lat="45.57531" lon="10.8731883"><ele>646.6666666666667</ele><time>2026-04-25T10:51:19.893Z</time></trkpt><trkpt lat="45.5754533" lon="10.8732967"><ele>653.3333333333334</ele><time>2026-04-25T10:51:20.875Z</time></trkpt><trkpt lat="45.57562" lon="10.8733567"><ele>660.0</ele><time>2026-04-25T10:51:21.883Z</time></trkpt><trkpt lat="45.5758067" lon="10.87339"><ele>660.0</ele><time>2026-04-25T10:51:22.89Z</time></trkpt><trkpt lat="45.575995" lon="10.8733767"><ele>660.0</ele><time>2026-04-25T10:51:23.895Z</time></trkpt><trkpt lat="45.5761833" lon="10.87334"><ele>660.0</ele><time>2026-04-25T10:51:24.879Z</time></trkpt><trkpt lat="45.576345" lon="10.8732683"><ele>661.0</ele><time>2026-04-25T10:51:25.891Z</time></trkpt><trkpt lat="45.5764967" lon="10.8731483"><ele>662.0</ele><time>2026-04-25T10:51:26.889Z</time></trkpt><trkpt lat="45.57661" lon="10.873005"><ele>663.0</ele><time>2026-04-25T10:51:27.885Z</time></trkpt><trkpt lat="45.57673" lon="10.8729017"><ele>663.0</ele><time>2026-04-25T10:51:28.891Z</time></trkpt><trkpt lat="45.57685" lon="10.87285"><ele>663.0</ele><time>2026-04-25T10:51:29.899Z</time></trkpt><trkpt lat="45.576985" lon="10.8728517"><ele>663.0</ele><time>2026-04-25T10:51:30.882Z</time></trkpt><trkpt lat="45.5771217" lon="10.8729333"><ele>663.0</ele><time>2026-04-25T10:51:31.883Z</time></trkpt><trkpt lat="45.5772433" lon="10.8730283"><ele>660.3333333333334</ele><time>2026-04-25T10:51:32.9Z</time></trkpt><trkpt lat="45.57738" lon="10.8731983"><ele>657.6666666666667</ele><time>2026-04-25T10:51:33.878Z</time></trkpt><trkpt lat="45.5775217" lon="10.8733917"><ele>655.0</ele><time>2026-04-25T10:51:34.882Z</time></trkpt><trkpt lat="45.5776717" lon="10.8735783"><ele>655.0</ele><time>2026-04-25T10:51:35.882Z</time></trkpt><trkpt lat="45.5778283" lon="10.87377"><ele>655.0</ele><time>2026-04-25T10:51:36.883Z</time></trkpt><trkpt lat="45.5780033" lon="10.8739283"><ele>655.0</ele><time>2026-04-25T10:51:37.886Z</time></trkpt><trkpt lat="45.5781917" lon="10.8740583"><ele>661.0</ele><time>2026-04-25T10:51:38.892Z</time></trkpt><trkpt lat="45.578375" lon="10.8741683"><ele>667.0</ele><time>2026-04-25T10:51:39.878Z</time></trkpt><trkpt lat="45.578545" lon="10.8742417"><ele>673.0</ele><time>2026-04-25T10:51:40.886Z</time></trkpt><trkpt lat="45.5787383" lon="10.8742683"><ele>679.6666666666667</ele><time>2026-04-25T10:51:41.893Z</time></trkpt><trkpt lat="45.5789317" lon="10.8742267"><ele>686.3333333333334</ele><time>2026-04-25T10:51:42.889Z</time></trkpt><trkpt lat="45.5791333" lon="10.8742167"><ele>693.0</ele><time>2026-04-25T10:51:43.881Z</time></trkpt><trkpt lat="45.5793367" lon="10.87426"><ele>692.3333333333334</ele><time>2026-04-25T10:51:44.879Z</time></trkpt><trkpt lat="45.5794833" lon="10.874395"><ele>691.6666666666667</ele><time>2026-04-25T10:51:45.901Z</time></trkpt><trkpt lat="45.5796083" lon="10.8745067"><ele>691.0</ele><time>2026-04-25T10:51:46.877Z</time></trkpt><trkpt lat="45.5797317" lon="10.8746133"><ele>691.0</ele><time>2026-04-25T10:51:47.893Z</time></trkpt><trkpt lat="45.579855" lon="10.874685"><ele>691.0</ele><time>2026-04-25T10:51:48.884Z</time></trkpt><trkpt lat="45.579995" lon="10.8747917"><ele>691.0</ele><time>2026-04-25T10:51:49.893Z</time></trkpt><trkpt lat="45.5801383" lon="10.874915"><ele>691.0</ele><time>2026-04-25T10:51:50.875Z</time></trkpt><trkpt lat="45.5802533" lon="10.8750833"><ele>691.0</ele><time>2026-04-25T10:51:51.882Z</time></trkpt><trkpt lat="45.580395" lon="10.8752317"><ele>691.0</ele><time>2026-04-25T10:51:52.89Z</time></trkpt><trkpt lat="45.5805517" lon="10.8753983"><ele>690.6666666666667</ele><time>2026-04-25T10:51:53.887Z</time></trkpt><trkpt lat="45.5806833" lon="10.875585"><ele>690.3333333333334</ele><time>2026-04-25T10:51:54.93Z</time></trkpt><trkpt lat="45.5808183" lon="10.8758233"><ele>690.0</ele><time>2026-04-25T10:51:55.895Z</time></trkpt><trkpt lat="45.5809433" lon="10.8760517"><ele>690.0</ele><time>2026-04-25T10:51:56.916Z</time></trkpt><trkpt lat="45.58112" lon="10.8764383"><ele>690.0</ele><time>2026-04-25T10:51:58.893Z</time></trkpt><trkpt lat="45.5812183" lon="10.8766383"><ele>691.3333333333334</ele><time>2026-04-25T10:51:59.883Z</time></trkpt><trkpt lat="45.5813317" lon="10.8768183"><ele>692.6666666666667</ele><time>2026-04-25T10:52:00.91Z</time></trkpt><trkpt lat="45.581475" lon="10.87696"><ele>694.0</ele><time>2026-04-25T10:52:01.886Z</time></trkpt><trkpt lat="45.5816183" lon="10.877025"><ele>694.0</ele><time>2026-04-25T10:52:02.894Z</time></trkpt><trkpt lat="45.5817517" lon="10.8770617"><ele>694.0</ele><time>2026-04-25T10:52:03.889Z</time></trkpt><trkpt lat="45.5818583" lon="10.8771467"><ele>694.0</ele><time>2026-04-25T10:52:04.91Z</time></trkpt><trkpt lat="45.5819617" lon="10.8772833"><ele>694.0</ele><time>2026-04-25T10:52:05.882Z</time></trkpt><trkpt lat="45.58206" lon="10.8774567"><ele>700.25</ele><time>2026-04-25T10:52:06.895Z</time></trkpt><trkpt lat="45.5821467" lon="10.87763"><ele>706.5</ele><time>2026-04-25T10:52:07.887Z</time></trkpt><trkpt lat="45.5822033" lon="10.8777867"><ele>712.75</ele><time>2026-04-25T10:52:08.882Z</time></trkpt><trkpt lat="45.58222" lon="10.8779333"><ele>719.0</ele><time>2026-04-25T10:52:09.883Z</time></trkpt><trkpt lat="45.582165" lon="10.878065"><ele>719.0</ele><time>2026-04-25T10:52:10.887Z</time></trkpt><trkpt lat="45.58208" lon="10.8782067"><ele>719.0</ele><time>2026-04-25T10:52:11.884Z</time></trkpt><trkpt lat="45.58199" lon="10.8783683"><ele>719.0</ele><time>2026-04-25T10:52:12.892Z</time></trkpt><trkpt lat="45.5818917" lon="10.8785517"><ele>719.0</ele><time>2026-04-25T10:52:13.881Z</time></trkpt><trkpt lat="45.5817733" lon="10.87873"><ele>714.6666666666666</ele><time>2026-04-25T10:52:14.881Z</time></trkpt><trkpt lat="45.5816133" lon="10.8788767"><ele>710.3333333333334</ele><time>2026-04-25T10:52:15.883Z</time></trkpt><trkpt lat="45.581485" lon="10.8790483"><ele>706.0</ele><time>2026-04-25T10:52:16.893Z</time></trkpt><trkpt lat="45.5813717" lon="10.8792017"><ele>706.0</ele><time>2026-04-25T10:52:17.895Z</time></trkpt><trkpt lat="45.5812833" lon="10.8793717"><ele>706.0</ele><time>2026-04-25T10:52:18.892Z</time></trkpt><trkpt lat="45.5812333" lon="10.87956"><ele>706.0</ele><time>2026-04-25T10:52:19.886Z</time></trkpt><trkpt lat="45.5812433" lon="10.879795"><ele>706.0</ele><time>2026-04-25T10:52:20.891Z</time></trkpt><trkpt lat="45.5812583" lon="10.8800483"><ele>706.0</ele><time>2026-04-25T10:52:21.888Z</time></trkpt><trkpt lat="45.58132" lon="10.880325"><ele>706.0</ele><time>2026-04-25T10:52:22.882Z</time></trkpt><trkpt lat="45.5813783" lon="10.8806"><ele>703.0</ele><time>2026-04-25T10:52:23.902Z</time></trkpt><trkpt lat="45.581485" lon="10.8809"><ele>700.0</ele><time>2026-04-25T10:52:24.888Z</time></trkpt><trkpt lat="45.58157" lon="10.881205"><ele>699.3333333333334</ele><time>2026-04-25T10:52:25.88Z</time></trkpt><trkpt lat="45.5816367" lon="10.8814617"><ele>698.6666666666666</ele><time>2026-04-25T10:52:26.89Z</time></trkpt><trkpt lat="45.581705" lon="10.881705"><ele>698.0</ele><time>2026-04-25T10:52:27.888Z</time></trkpt><trkpt lat="45.5817933" lon="10.8819367"><ele>697.0</ele><time>2026-04-25T10:52:28.884Z</time></trkpt><trkpt lat="45.5818867" lon="10.882135"><ele>696.0</ele><time>2026-04-25T10:52:29.891Z</time></trkpt><trkpt lat="45.5820117" lon="10.8822883"><ele>695.0</ele><time>2026-04-25T10:52:30.899Z</time></trkpt><trkpt lat="45.58215" lon="10.8824267"><ele>699.3333333333333</ele><time>2026-04-25T10:52:31.889Z</time></trkpt><trkpt lat="45.58227" lon="10.882615"><ele>703.6666666666666</ele><time>2026-04-25T10:52:32.894Z</time></trkpt><trkpt lat="45.5823767" lon="10.8828317"><ele>708.0</ele><time>2026-04-25T10:52:33.893Z</time></trkpt><trkpt lat="45.5824467" lon="10.8830883"><ele>708.0</ele><time>2026-04-25T10:52:34.875Z</time></trkpt><trkpt lat="45.5825317" lon="10.88332"><ele>708.0</ele><time>2026-04-25T10:52:35.884Z</time></trkpt><trkpt lat="45.58261" lon="10.8835733"><ele>708.0</ele><time>2026-04-25T10:52:36.886Z</time></trkpt><trkpt lat="45.58271" lon="10.8837983"><ele>708.3333333333334</ele><time>2026-04-25T10:52:37.879Z</time></trkpt><trkpt lat="45.5828333" lon="10.88405"><ele>708.6666666666667</ele><time>2026-04-25T10:52:38.886Z</time></trkpt><trkpt lat="45.5829617" lon="10.8842933"><ele>709.0</ele><time>2026-04-25T10:52:39.885Z</time></trkpt><trkpt lat="45.5830833" lon="10.884545"><ele>711.6666666666667</ele><time>2026-04-25T10:52:40.882Z</time></trkpt><trkpt lat="45.5831917" lon="10.8848317"><ele>714.3333333333334</ele><time>2026-04-25T10:52:41.884Z</time></trkpt><trkpt lat="45.5832367" lon="10.8851117"><ele>717.0</ele><time>2026-04-25T10:52:42.878Z</time></trkpt><trkpt lat="45.5832783" lon="10.8853733"><ele>717.0</ele><time>2026-04-25T10:52:43.888Z</time></trkpt><trkpt lat="45.5833233" lon="10.8855767"><ele>717.0</ele><time>2026-04-25T10:52:44.875Z</time></trkpt><trkpt lat="45.5833867" lon="10.8857067"><ele>717.0</ele><time>2026-04-25T10:52:45.885Z</time></trkpt><trkpt lat="45.5834883" lon="10.8858367"><ele>717.0</ele><time>2026-04-25T10:52:46.887Z</time></trkpt><trkpt lat="45.5836133" lon="10.8859217"><ele>717.0</ele><time>2026-04-25T10:52:47.875Z</time></trkpt><trkpt lat="45.5837517" lon="10.886"><ele>717.0</ele><time>2026-04-25T10:52:48.873Z</time></trkpt><trkpt lat="45.5839017" lon="10.8860033"><ele>717.0</ele><time>2026-04-25T10:52:49.899Z</time></trkpt><trkpt lat="45.58408" lon="10.8859433"><ele>719.6666666666666</ele><time>2026-04-25T10:52:50.884Z</time></trkpt><trkpt lat="45.58425" lon="10.88582"><ele>722.3333333333333</ele><time>2026-04-25T10:52:51.887Z</time></trkpt><trkpt lat="45.5844083" lon="10.8856933"><ele>725.0</ele><time>2026-04-25T10:52:52.876Z</time></trkpt><trkpt lat="45.5845767" lon="10.8855567"><ele>728.0</ele><time>2026-04-25T10:52:53.883Z</time></trkpt><trkpt lat="45.5847417" lon="10.885395"><ele>731.0</ele><time>2026-04-25T10:52:54.883Z</time></trkpt><trkpt lat="45.5849033" lon="10.88528"><ele>734.0</ele><time>2026-04-25T10:52:55.89Z</time></trkpt><trkpt lat="45.5850733" lon="10.8852067"><ele>734.0</ele><time>2026-04-25T10:52:56.882Z</time></trkpt><trkpt lat="45.5851967" lon="10.8851483"><ele>734.0</ele><time>2026-04-25T10:52:57.876Z</time></trkpt><trkpt lat="45.5853317" lon="10.8850967"><ele>734.0</ele><time>2026-04-25T10:52:58.883Z</time></trkpt><trkpt lat="45.5854833" lon="10.8851083"><ele>734.0</ele><time>2026-04-25T10:52:59.907Z</time></trkpt><trkpt lat="45.5856017" lon="10.8851483"><ele>736.75</ele><time>2026-04-25T10:53:00.897Z</time></trkpt><trkpt lat="45.5857233" lon="10.885205"><ele>739.5</ele><time>2026-04-25T10:53:01.899Z</time></trkpt><trkpt lat="45.5858317" lon="10.8852683"><ele>742.25</ele><time>2026-04-25T10:53:02.887Z</time></trkpt><trkpt lat="45.58591" lon="10.8853833"><ele>745.0</ele><time>2026-04-25T10:53:03.88Z</time></trkpt><trkpt lat="45.5859983" lon="10.8854667"><ele>745.0</ele><time>2026-04-25T10:53:04.886Z</time></trkpt><trkpt lat="45.586085" lon="10.885565"><ele>745.0</ele><time>2026-04-25T10:53:05.885Z</time></trkpt><trkpt lat="45.5861533" lon="10.88567"><ele>745.0</ele><time>2026-04-25T10:53:06.878Z</time></trkpt><trkpt lat="45.5862267" lon="10.8857417"><ele>745.0</ele><time>2026-04-25T10:53:07.878Z</time></trkpt><trkpt lat="45.5863017" lon="10.8858033"><ele>745.0</ele><time>2026-04-25T10:53:08.892Z</time></trkpt><trkpt lat="45.5863833" lon="10.8858667"><ele>743.25</ele><time>2026-04-25T10:53:09.882Z</time></trkpt><trkpt lat="45.5864767" lon="10.8859117"><ele>741.5</ele><time>2026-04-25T10:53:10.881Z</time></trkpt><trkpt lat="45.5865767" lon="10.8859433"><ele>739.75</ele><time>2026-04-25T10:53:11.891Z</time></trkpt><trkpt lat="45.5866983" lon="10.8859517"><ele>738.0</ele><time>2026-04-25T10:53:12.884Z</time></trkpt><trkpt lat="45.5868583" lon="10.8859333"><ele>745.6666666666666</ele><time>2026-04-25T10:53:13.878Z</time></trkpt><trkpt lat="45.5870317" lon="10.8859183"><ele>753.3333333333333</ele><time>2026-04-25T10:53:14.88Z</time></trkpt><trkpt lat="45.587225" lon="10.8859017"><ele>761.0</ele><time>2026-04-25T10:53:15.883Z</time></trkpt><trkpt lat="45.58743" lon="10.88588"><ele>761.0</ele><time>2026-04-25T10:53:16.886Z</time></trkpt><trkpt lat="45.5876583" lon="10.8858633"><ele>761.0</ele><time>2026-04-25T10:53:17.885Z</time></trkpt><trkpt lat="45.58788" lon="10.8858367"><ele>763.0</ele><time>2026-04-25T10:53:18.885Z</time></trkpt><trkpt lat="45.5881067" lon="10.88582"><ele>765.0</ele><time>2026-04-25T10:53:19.881Z</time></trkpt><trkpt lat="45.5883433" lon="10.885785"><ele>765.0</ele><time>2026-04-25T10:53:20.879Z</time></trkpt><trkpt lat="45.5885533" lon="10.8857033"><ele>765.0</ele><time>2026-04-25T10:53:21.894Z</time></trkpt><trkpt lat="45.5887133" lon="10.8856917"><ele>765.0</ele><time>2026-04-25T10:53:22.879Z</time></trkpt><trkpt lat="45.5888983" lon="10.8855783"><ele>765.3333333333334</ele><time>2026-04-25T10:53:23.888Z</time></trkpt><trkpt lat="45.5890667" lon="10.8854567"><ele>765.6666666666667</ele><time>2026-04-25T10:53:24.885Z</time></trkpt><trkpt lat="45.5892517" lon="10.88532"><ele>766.0</ele><time>2026-04-25T10:53:25.888Z</time></trkpt><trkpt lat="45.5894117" lon="10.885145"><ele>771.0</ele><time>2026-04-25T10:53:26.891Z</time></trkpt><trkpt lat="45.5895667" lon="10.8849717"><ele>776.0</ele><time>2026-04-25T10:53:27.891Z</time></trkpt><trkpt lat="45.5897383" lon="10.884785"><ele>781.0</ele><time>2026-04-25T10:53:28.883Z</time></trkpt><trkpt lat="45.5899017" lon="10.8846317"><ele>781.0</ele><time>2026-04-25T10:53:29.881Z</time></trkpt><trkpt lat="45.5901017" lon="10.8845117"><ele>781.0</ele><time>2026-04-25T10:53:30.885Z</time></trkpt><trkpt lat="45.590315" lon="10.8844417"><ele>781.0</ele><time>2026-04-25T10:53:31.882Z</time></trkpt><trkpt lat="45.590525" lon="10.8843917"><ele>783.25</ele><time>2026-04-25T10:53:32.881Z</time></trkpt><trkpt lat="45.5907117" lon="10.8843467"><ele>785.5</ele><time>2026-04-25T10:53:33.883Z</time></trkpt><trkpt lat="45.5908533" lon="10.884325"><ele>787.75</ele><time>2026-04-25T10:53:34.888Z</time></trkpt><trkpt lat="45.59096" lon="10.884375"><ele>790.0</ele><time>2026-04-25T10:53:35.876Z</time></trkpt><trkpt lat="45.59105" lon="10.884435"><ele>790.0</ele><time>2026-04-25T10:53:36.883Z</time></trkpt><trkpt lat="45.5911267" lon="10.884545"><ele>790.0</ele><time>2026-04-25T10:53:37.888Z</time></trkpt><trkpt lat="45.59116" lon="10.8846933"><ele>790.0</ele><time>2026-04-25T10:53:38.89Z</time></trkpt><trkpt lat="45.5911517" lon="10.8849283"><ele>790.0</ele><time>2026-04-25T10:53:39.879Z</time></trkpt><trkpt lat="45.591105" lon="10.8851383"><ele>790.6666666666666</ele><time>2026-04-25T10:53:40.878Z</time></trkpt><trkpt lat="45.59103" lon="10.8853583"><ele>791.3333333333333</ele><time>2026-04-25T10:53:41.881Z</time></trkpt><trkpt lat="45.5909317" lon="10.8855667"><ele>792.0</ele><time>2026-04-25T10:53:42.885Z</time></trkpt><trkpt lat="45.5908417" lon="10.8858033"><ele>794.0</ele><time>2026-04-25T10:53:43.878Z</time></trkpt><trkpt lat="45.59074" lon="10.88604"><ele>796.0</ele><time>2026-04-25T10:53:44.89Z</time></trkpt><trkpt lat="45.590645" lon="10.88625"><ele>798.0</ele><time>2026-04-25T10:53:45.877Z</time></trkpt><trkpt lat="45.590565" lon="10.8864417"><ele>798.0</ele><time>2026-04-25T10:53:46.885Z</time></trkpt><trkpt lat="45.5904983" lon="10.8866"><ele>798.0</ele><time>2026-04-25T10:53:47.891Z</time></trkpt><trkpt lat="45.5905117" lon="10.8867583"><ele>798.0</ele><time>2026-04-25T10:53:48.887Z</time></trkpt><trkpt lat="45.5905517" lon="10.8869183"><ele>798.0</ele><time>2026-04-25T10:53:49.889Z</time></trkpt><trkpt lat="45.5906383" lon="10.8871033"><ele>797.0</ele><time>2026-04-25T10:53:50.89Z</time></trkpt><trkpt lat="45.5907367" lon="10.8872967"><ele>796.0</ele><time>2026-04-25T10:53:51.881Z</time></trkpt><trkpt lat="45.5908117" lon="10.8875267"><ele>795.0</ele><time>2026-04-25T10:53:52.892Z</time></trkpt><trkpt lat="45.5909" lon="10.887785"><ele>794.6666666666667</ele><time>2026-04-25T10:53:53.895Z</time></trkpt><trkpt lat="45.5909883" lon="10.88804"><ele>794.3333333333334</ele><time>2026-04-25T10:53:54.893Z</time></trkpt><trkpt lat="45.59108" lon="10.888285"><ele>794.0</ele><time>2026-04-25T10:53:55.889Z</time></trkpt><trkpt lat="45.59116" lon="10.8884983"><ele>793.25</ele><time>2026-04-25T10:53:56.896Z</time></trkpt><trkpt lat="45.591255" lon="10.8886583"><ele>792.5</ele><time>2026-04-25T10:53:57.883Z</time></trkpt><trkpt lat="45.591365" lon="10.888785"><ele>791.75</ele><time>2026-04-25T10:53:58.883Z</time></trkpt><trkpt lat="45.5914833" lon="10.8888617"><ele>791.0</ele><time>2026-04-25T10:53:59.892Z</time></trkpt><trkpt lat="45.59165" lon="10.8889167"><ele>791.0</ele><time>2026-04-25T10:54:00.883Z</time></trkpt><trkpt lat="45.5918167" lon="10.888925"><ele>791.0</ele><time>2026-04-25T10:54:01.887Z</time></trkpt><trkpt lat="45.5919967" lon="10.888885"><ele>791.0</ele><time>2026-04-25T10:54:02.889Z</time></trkpt><trkpt lat="45.592195" lon="10.888875"><ele>790.5</ele><time>2026-04-25T10:54:03.884Z</time></trkpt><trkpt lat="45.5924167" lon="10.888815"><ele>790.0</ele><time>2026-04-25T10:54:04.88Z</time></trkpt><trkpt lat="45.592655" lon="10.888765"><ele>787.0</ele><time>2026-04-25T10:54:05.883Z</time></trkpt><trkpt lat="45.59288" lon="10.88874"><ele>784.0</ele><time>2026-04-25T10:54:06.887Z</time></trkpt><trkpt lat="45.5931283" lon="10.888685"><ele>784.0</ele><time>2026-04-25T10:54:07.881Z</time></trkpt><trkpt lat="45.5933917" lon="10.8886283"><ele>784.0</ele><time>2026-04-25T10:54:08.886Z</time></trkpt><trkpt lat="45.5936333" lon="10.8885967"><ele>782.6666666666666</ele><time>2026-04-25T10:54:09.884Z</time></trkpt><trkpt lat="45.5938533" lon="10.8885517"><ele>781.3333333333333</ele><time>2026-04-25T10:54:10.882Z</time></trkpt><trkpt lat="45.5940767" lon="10.8885117"><ele>780.0</ele><time>2026-04-25T10:54:11.881Z</time></trkpt><trkpt lat="45.594285" lon="10.8884733"><ele>780.0</ele><time>2026-04-25T10:54:12.882Z</time></trkpt><trkpt lat="45.5945017" lon="10.8884567"><ele>780.0</ele><time>2026-04-25T10:54:13.884Z</time></trkpt><trkpt lat="45.594695" lon="10.8883983"><ele>780.0</ele><time>2026-04-25T10:54:14.886Z</time></trkpt><trkpt lat="45.59488" lon="10.88832"><ele>785.3333333333333</ele><time>2026-04-25T10:54:15.883Z</time></trkpt><trkpt lat="45.59503" lon="10.8881917"><ele>790.6666666666666</ele><time>2026-04-25T10:54:16.888Z</time></trkpt><trkpt lat="45.5951667" lon="10.8881067"><ele>796.0</ele><time>2026-04-25T10:54:17.931Z</time></trkpt><trkpt lat="45.5952867" lon="10.8880467"><ele>797.4</ele><time>2026-04-25T10:54:18.894Z</time></trkpt><trkpt lat="45.5954033" lon="10.888045"><ele>798.8</ele><time>2026-04-25T10:54:19.878Z</time></trkpt><trkpt lat="45.5954767" lon="10.88809"><ele>800.1999999999999</ele><time>2026-04-25T10:54:20.923Z</time></trkpt><trkpt lat="45.595555" lon="10.8881933"><ele>801.5999999999999</ele><time>2026-04-25T10:54:21.88Z</time></trkpt><trkpt lat="45.5956267" lon="10.8883733"><ele>803.0</ele><time>2026-04-25T10:54:22.876Z</time></trkpt><trkpt lat="45.595685" lon="10.8885617"><ele>803.0</ele><time>2026-04-25T10:54:23.882Z</time></trkpt><trkpt lat="45.5957233" lon="10.8887717"><ele>803.0</ele><time>2026-04-25T10:54:24.886Z</time></trkpt><trkpt lat="45.5957417" lon="10.8889917"><ele>803.0</ele><time>2026-04-25T10:54:25.879Z</time></trkpt><trkpt lat="45.5957433" lon="10.88922"><ele>801.6666666666667</ele><time>2026-04-25T10:54:26.892Z</time></trkpt><trkpt lat="45.5957217" lon="10.8894733"><ele>800.3333333333333</ele><time>2026-04-25T10:54:27.883Z</time></trkpt><trkpt lat="45.595665" lon="10.8897117"><ele>799.0</ele><time>2026-04-25T10:54:28.88Z</time></trkpt><trkpt lat="45.5956117" lon="10.889925"><ele>796.25</ele><time>2026-04-25T10:54:29.875Z</time></trkpt><trkpt lat="45.5955767" lon="10.8901133"><ele>793.5</ele><time>2026-04-25T10:54:30.883Z</time></trkpt><trkpt lat="45.59559" lon="10.8902517"><ele>790.75</ele><time>2026-04-25T10:54:31.879Z</time></trkpt><trkpt lat="45.5957083" lon="10.8903783"><ele>788.0</ele><time>2026-04-25T10:54:33.883Z</time></trkpt><trkpt lat="45.5958117" lon="10.8903867"><ele>788.0</ele><time>2026-04-25T10:54:34.886Z</time></trkpt><trkpt lat="45.59595" lon="10.8903883"><ele>788.0</ele><time>2026-04-25T10:54:35.876Z</time></trkpt><trkpt lat="45.59609" lon="10.8903467"><ele>788.0</ele><time>2026-04-25T10:54:36.878Z</time></trkpt><trkpt lat="45.5962667" lon="10.890285"><ele>788.3333333333334</ele><time>2026-04-25T10:54:37.882Z</time></trkpt><trkpt lat="45.5964367" lon="10.8902817"><ele>788.6666666666667</ele><time>2026-04-25T10:54:38.879Z</time></trkpt><trkpt lat="45.5966267" lon="10.8902867"><ele>789.0</ele><time>2026-04-25T10:54:39.876Z</time></trkpt><trkpt lat="45.59684" lon="10.8902617"><ele>788.0</ele><time>2026-04-25T10:54:40.886Z</time></trkpt><trkpt lat="45.597075" lon="10.89023"><ele>787.0</ele><time>2026-04-25T10:54:41.879Z</time></trkpt><trkpt lat="45.5973133" lon="10.8901933"><ele>787.0</ele><time>2026-04-25T10:54:42.878Z</time></trkpt><trkpt lat="45.59755" lon="10.8901717"><ele>787.0</ele><time>2026-04-25T10:54:43.878Z</time></trkpt><trkpt lat="45.5978033" lon="10.89015"><ele>781.5</ele><time>2026-04-25T10:54:44.876Z</time></trkpt><trkpt lat="45.59805" lon="10.890115"><ele>776.0</ele><time>2026-04-25T10:54:45.875Z</time></trkpt><trkpt lat="45.5982933" lon="10.8900933"><ele>785.3333333333334</ele><time>2026-04-25T10:54:46.895Z</time></trkpt><trkpt lat="45.5985183" lon="10.890055"><ele>794.6666666666667</ele><time>2026-04-25T10:54:47.879Z</time></trkpt><trkpt lat="45.5987367" lon="10.89006"><ele>804.0</ele><time>2026-04-25T10:54:48.879Z</time></trkpt><trkpt lat="45.5989583" lon="10.8900533"><ele>804.0</ele><time>2026-04-25T10:54:49.886Z</time></trkpt><trkpt lat="45.5991717" lon="10.8900433"><ele>804.0</ele><time>2026-04-25T10:54:50.882Z</time></trkpt><trkpt lat="45.599375" lon="10.88998"><ele>804.0</ele><time>2026-04-25T10:54:51.883Z</time></trkpt><trkpt lat="45.5995833" lon="10.8898983"><ele>802.5</ele><time>2026-04-25T10:54:52.876Z</time></trkpt><trkpt lat="45.5997983" lon="10.8897933"><ele>801.0</ele><time>2026-04-25T10:54:53.886Z</time></trkpt><trkpt lat="45.6000183" lon="10.8896717"><ele>801.0</ele><time>2026-04-25T10:54:54.892Z</time></trkpt><trkpt lat="45.6002433" lon="10.8895483"><ele>801.0</ele><time>2026-04-25T10:54:55.883Z</time></trkpt><trkpt lat="45.6004983" lon="10.889375"><ele>809.5</ele><time>2026-04-25T10:54:56.876Z</time></trkpt><trkpt lat="45.60071" lon="10.8892233"><ele>818.0</ele><time>2026-04-25T10:54:57.886Z</time></trkpt><trkpt lat="45.6009283" lon="10.88908"><ele>818.0</ele><time>2026-04-25T10:54:58.878Z</time></trkpt><trkpt lat="45.6011617" lon="10.88896"><ele>818.0</ele><time>2026-04-25T10:54:59.884Z</time></trkpt><trkpt lat="45.6014133" lon="10.8888467"><ele>815.0</ele><time>2026-04-25T10:55:00.883Z</time></trkpt><trkpt lat="45.6016867" lon="10.8887483"><ele>812.0</ele><time>2026-04-25T10:55:01.885Z</time></trkpt><trkpt lat="45.6019467" lon="10.888685"><ele>809.0</ele><time>2026-04-25T10:55:02.885Z</time></trkpt><trkpt lat="45.6022133" lon="10.888605"><ele>806.0</ele><time>2026-04-25T10:55:03.887Z</time></trkpt><trkpt lat="45.6024667" lon="10.8885067"><ele>819.0</ele><time>2026-04-25T10:55:04.886Z</time></trkpt><trkpt lat="45.6027167" lon="10.888395"><ele>832.0</ele><time>2026-04-25T10:55:05.88Z</time></trkpt><trkpt lat="45.6029467" lon="10.8882633"><ele>832.0</ele><time>2026-04-25T10:55:06.895Z</time></trkpt><trkpt lat="45.6031267" lon="10.888145"><ele>832.0</ele><time>2026-04-25T10:55:07.883Z</time></trkpt><trkpt lat="45.6032917" lon="10.8880517"><ele>832.0</ele><time>2026-04-25T10:55:08.879Z</time></trkpt><trkpt lat="45.603465" lon="10.88799"><ele>832.0</ele><time>2026-04-25T10:55:09.887Z</time></trkpt><trkpt lat="45.6036533" lon="10.88798"><ele>832.0</ele><time>2026-04-25T10:55:10.882Z</time></trkpt><trkpt lat="45.6038333" lon="10.8880117"><ele>832.0</ele><time>2026-04-25T10:55:11.882Z</time></trkpt><trkpt lat="45.6040017" lon="10.888095"><ele>834.6666666666666</ele><time>2026-04-25T10:55:12.883Z</time></trkpt><trkpt lat="45.6041683" lon="10.8881933"><ele>837.3333333333333</ele><time>2026-04-25T10:55:13.88Z</time></trkpt><trkpt lat="45.6043617" lon="10.8882683"><ele>840.0</ele><time>2026-04-25T10:55:14.887Z</time></trkpt><trkpt lat="45.6045817" lon="10.8883067"><ele>842.0</ele><time>2026-04-25T10:55:15.886Z</time></trkpt><trkpt lat="45.6048217" lon="10.8883033"><ele>844.0</ele><time>2026-04-25T10:55:16.882Z</time></trkpt><trkpt lat="45.6050483" lon="10.888255"><ele>844.0</ele><time>2026-04-25T10:55:17.889Z</time></trkpt><trkpt lat="45.6052833" lon="10.8881883"><ele>844.0</ele><time>2026-04-25T10:55:18.884Z</time></trkpt><trkpt lat="45.6055383" lon="10.8880883"><ele>844.3333333333333</ele><time>2026-04-25T10:55:19.894Z</time></trkpt><trkpt lat="45.6057567" lon="10.88802"><ele>844.6666666666667</ele><time>2026-04-25T10:55:20.88Z</time></trkpt><trkpt lat="45.6059417" lon="10.8879683"><ele>845.0</ele><time>2026-04-25T10:55:21.883Z</time></trkpt><trkpt lat="45.6061233" lon="10.8879517"><ele>849.3333333333334</ele><time>2026-04-25T10:55:22.878Z</time></trkpt><trkpt lat="45.6062933" lon="10.8879833"><ele>853.6666666666667</ele><time>2026-04-25T10:55:23.878Z</time></trkpt><trkpt lat="45.606445" lon="10.888115"><ele>858.0</ele><time>2026-04-25T10:55:24.885Z</time></trkpt><trkpt lat="45.6067667" lon="10.8883383"><ele>858.0</ele><time>2026-04-25T10:55:26.883Z</time></trkpt><trkpt lat="45.6069383" lon="10.8884133"><ele>858.0</ele><time>2026-04-25T10:55:27.876Z</time></trkpt><trkpt lat="45.6071267" lon="10.888455"><ele>858.0</ele><time>2026-04-25T10:55:28.882Z</time></trkpt><trkpt lat="45.607315" lon="10.88847"><ele>854.6666666666667</ele><time>2026-04-25T10:55:29.888Z</time></trkpt><trkpt lat="45.6074933" lon="10.8884967"><ele>851.3333333333334</ele><time>2026-04-25T10:55:30.892Z</time></trkpt><trkpt lat="45.6076817" lon="10.888495"><ele>848.0</ele><time>2026-04-25T10:55:31.875Z</time></trkpt><trkpt lat="45.6078517" lon="10.8885467"><ele>848.0</ele><time>2026-04-25T10:55:32.882Z</time></trkpt><trkpt lat="45.6080217" lon="10.888595"><ele>848.0</ele><time>2026-04-25T10:55:33.881Z</time></trkpt><trkpt lat="45.6082233" lon="10.8886417"><ele>848.0</ele><time>2026-04-25T10:55:34.878Z</time></trkpt><trkpt lat="45.60843" lon="10.8886533"><ele>848.0</ele><time>2026-04-25T10:55:35.883Z</time></trkpt><trkpt lat="45.6086433" lon="10.8886783"><ele>848.0</ele><time>2026-04-25T10:55:36.879Z</time></trkpt><trkpt lat="45.6088483" lon="10.8887083"><ele>848.0</ele><time>2026-04-25T10:55:37.883Z</time></trkpt><trkpt lat="45.6090783" lon="10.888715"><ele>850.0</ele><time>2026-04-25T10:55:38.883Z</time></trkpt><trkpt lat="45.60928" lon="10.8886933"><ele>852.0</ele><time>2026-04-25T10:55:39.876Z</time></trkpt><trkpt lat="45.6095083" lon="10.8886967"><ele>854.0</ele><time>2026-04-25T10:55:40.874Z</time></trkpt><trkpt lat="45.6097333" lon="10.8886933"><ele>860.5</ele><time>2026-04-25T10:55:41.884Z</time></trkpt><trkpt lat="45.6099583" lon="10.8887283"><ele>867.0</ele><time>2026-04-25T10:55:42.885Z</time></trkpt><trkpt lat="45.6101883" lon="10.88878"><ele>873.5</ele><time>2026-04-25T10:55:43.873Z</time></trkpt><trkpt lat="45.6104183" lon="10.8888117"><ele>880.0</ele><time>2026-04-25T10:55:44.886Z</time></trkpt><trkpt lat="45.610635" lon="10.8888567"><ele>880.0</ele><time>2026-04-25T10:55:45.881Z</time></trkpt><trkpt lat="45.6108233" lon="10.8889017"><ele>880.0</ele><time>2026-04-25T10:55:46.881Z</time></trkpt><trkpt lat="45.6110117" lon="10.88893"><ele>880.0</ele><time>2026-04-25T10:55:47.872Z</time></trkpt><trkpt lat="45.6111617" lon="10.8889517"><ele>883.0</ele><time>2026-04-25T10:55:48.89Z</time></trkpt><trkpt lat="45.6112817" lon="10.888985"><ele>886.0</ele><time>2026-04-25T10:55:49.882Z</time></trkpt><trkpt lat="45.6114233" lon="10.8890083"><ele>889.0</ele><time>2026-04-25T10:55:50.88Z</time></trkpt><trkpt lat="45.6115583" lon="10.88906"><ele>892.0</ele><time>2026-04-25T10:55:51.883Z</time></trkpt><trkpt lat="45.6116783" lon="10.88911"><ele>892.0</ele><time>2026-04-25T10:55:52.877Z</time></trkpt><trkpt lat="45.61182" lon="10.8892"><ele>892.0</ele><time>2026-04-25T10:55:53.876Z</time></trkpt><trkpt lat="45.6119483" lon="10.8893133"><ele>892.0</ele><time>2026-04-25T10:55:54.877Z</time></trkpt><trkpt lat="45.6120717" lon="10.8894467"><ele>893.0</ele><time>2026-04-25T10:55:55.872Z</time></trkpt><trkpt lat="45.6122017" lon="10.8895867"><ele>894.0</ele><time>2026-04-25T10:55:56.872Z</time></trkpt><trkpt lat="45.61234" lon="10.8897683"><ele>895.0</ele><time>2026-04-25T10:55:57.877Z</time></trkpt><trkpt lat="45.6124633" lon="10.8899733"><ele>890.6666666666666</ele><time>2026-04-25T10:55:58.872Z</time></trkpt><trkpt lat="45.6125917" lon="10.8901617"><ele>886.3333333333333</ele><time>2026-04-25T10:55:59.874Z</time></trkpt><trkpt lat="45.612725" lon="10.89039"><ele>882.0</ele><time>2026-04-25T10:56:00.874Z</time></trkpt><trkpt lat="45.6128667" lon="10.8906017"><ele>886.3333333333333</ele><time>2026-04-25T10:56:01.875Z</time></trkpt><trkpt lat="45.6130133" lon="10.890855"><ele>890.6666666666666</ele><time>2026-04-25T10:56:02.875Z</time></trkpt><trkpt lat="45.61313" lon="10.8911"><ele>895.0</ele><time>2026-04-25T10:56:03.877Z</time></trkpt><trkpt lat="45.6132767" lon="10.8913133"><ele>895.0</ele><time>2026-04-25T10:56:04.872Z</time></trkpt><trkpt lat="45.6134583" lon="10.8914967"><ele>895.0</ele><time>2026-04-25T10:56:05.873Z</time></trkpt><trkpt lat="45.6136167" lon="10.8916517"><ele>895.0</ele><time>2026-04-25T10:56:06.871Z</time></trkpt><trkpt lat="45.6137783" lon="10.8918033"><ele>900.3333333333333</ele><time>2026-04-25T10:56:07.882Z</time></trkpt><trkpt lat="45.613935" lon="10.8919467"><ele>905.6666666666667</ele><time>2026-04-25T10:56:08.872Z</time></trkpt><trkpt lat="45.6140767" lon="10.8920933"><ele>911.0</ele><time>2026-04-25T10:56:09.871Z</time></trkpt><trkpt lat="45.61417" lon="10.89225"><ele>911.0</ele><time>2026-04-25T10:56:10.874Z</time></trkpt><trkpt lat="45.6142317" lon="10.8924667"><ele>911.0</ele><time>2026-04-25T10:56:11.872Z</time></trkpt><trkpt lat="45.61427" lon="10.8927317"><ele>911.0</ele><time>2026-04-25T10:56:12.871Z</time></trkpt><trkpt lat="45.6142983" lon="10.8930183"><ele>907.6666666666667</ele><time>2026-04-25T10:56:13.876Z</time></trkpt><trkpt lat="45.6143233" lon="10.8933167"><ele>904.3333333333333</ele><time>2026-04-25T10:56:14.874Z</time></trkpt><trkpt lat="45.6143567" lon="10.8936183"><ele>901.0</ele><time>2026-04-25T10:56:15.874Z</time></trkpt><trkpt lat="45.6144017" lon="10.8939117"><ele>901.0</ele><time>2026-04-25T10:56:16.874Z</time></trkpt><trkpt lat="45.61446" lon="10.8941717"><ele>901.0</ele><time>2026-04-25T10:56:17.878Z</time></trkpt><trkpt lat="45.614535" lon="10.8944117"><ele>901.0</ele><time>2026-04-25T10:56:18.881Z</time></trkpt><trkpt lat="45.6146183" lon="10.8946167"><ele>901.5</ele><time>2026-04-25T10:56:19.872Z</time></trkpt><trkpt lat="45.61471" lon="10.8948017"><ele>902.0</ele><time>2026-04-25T10:56:20.875Z</time></trkpt><trkpt lat="45.6147967" lon="10.8949633"><ele>902.5</ele><time>2026-04-25T10:56:21.869Z</time></trkpt><trkpt lat="45.6148983" lon="10.8951083"><ele>903.0</ele><time>2026-04-25T10:56:22.877Z</time></trkpt><trkpt lat="45.6150017" lon="10.8952517"><ele>903.0</ele><time>2026-04-25T10:56:23.881Z</time></trkpt><trkpt lat="45.6150933" lon="10.8953517"><ele>903.0</ele><time>2026-04-25T10:56:24.874Z</time></trkpt><trkpt lat="45.6151783" lon="10.895435"><ele>903.0</ele><time>2026-04-25T10:56:25.878Z</time></trkpt><trkpt lat="45.6152983" lon="10.8955183"><ele>903.0</ele><time>2026-04-25T10:56:26.876Z</time></trkpt><trkpt lat="45.615445" lon="10.895595"><ele>900.6666666666667</ele><time>2026-04-25T10:56:27.871Z</time></trkpt><trkpt lat="45.6156267" lon="10.89566"><ele>898.3333333333334</ele><time>2026-04-25T10:56:28.873Z</time></trkpt><trkpt lat="45.6157917" lon="10.8957217"><ele>896.0</ele><time>2026-04-25T10:56:29.876Z</time></trkpt><trkpt lat="45.615965" lon="10.8957833"><ele>896.0</ele><time>2026-04-25T10:56:30.872Z</time></trkpt><trkpt lat="45.6161467" lon="10.895895"><ele>896.0</ele><time>2026-04-25T10:56:31.872Z</time></trkpt><trkpt lat="45.61634" lon="10.8960267"><ele>896.0</ele><time>2026-04-25T10:56:32.871Z</time></trkpt><trkpt lat="45.61653" lon="10.8961767"><ele>893.3333333333334</ele><time>2026-04-25T10:56:33.877Z</time></trkpt><trkpt lat="45.6167117" lon="10.8963117"><ele>890.6666666666667</ele><time>2026-04-25T10:56:34.875Z</time></trkpt><trkpt lat="45.6168767" lon="10.8964367"><ele>888.0</ele><time>2026-04-25T10:56:35.88Z</time></trkpt><trkpt lat="45.6170517" lon="10.8965333"><ele>886.3333333333333</ele><time>2026-04-25T10:56:36.873Z</time></trkpt><trkpt lat="45.617215" lon="10.89665"><ele>884.6666666666666</ele><time>2026-04-25T10:56:37.873Z</time></trkpt><trkpt lat="45.6173767" lon="10.89678"><ele>883.0</ele><time>2026-04-25T10:56:38.875Z</time></trkpt><trkpt lat="45.6175167" lon="10.896905"><ele>879.5</ele><time>2026-04-25T10:56:39.872Z</time></trkpt><trkpt lat="45.6176417" lon="10.8970267"><ele>876.0</ele><time>2026-04-25T10:56:40.871Z</time></trkpt><trkpt lat="45.617745" lon="10.8971333"><ele>872.5</ele><time>2026-04-25T10:56:41.872Z</time></trkpt><trkpt lat="45.6178383" lon="10.8972317"><ele>869.0</ele><time>2026-04-25T10:56:42.872Z</time></trkpt><trkpt lat="45.6179533" lon="10.8972883"><ele>867.0</ele><time>2026-04-25T10:56:43.877Z</time></trkpt><trkpt lat="45.618035" lon="10.8973017"><ele>865.0</ele><time>2026-04-25T10:56:44.872Z</time></trkpt><trkpt lat="45.6181267" lon="10.8972567"><ele>863.0</ele><time>2026-04-25T10:56:45.883Z</time></trkpt><trkpt lat="45.618235" lon="10.897135"><ele>861.0</ele><time>2026-04-25T10:56:46.876Z</time></trkpt><trkpt lat="45.61835" lon="10.8969467"><ele>861.0</ele><time>2026-04-25T10:56:47.872Z</time></trkpt><trkpt lat="45.6184517" lon="10.8967783"><ele>861.0</ele><time>2026-04-25T10:56:48.88Z</time></trkpt><trkpt lat="45.61854" lon="10.8966183"><ele>861.0</ele><time>2026-04-25T10:56:49.872Z</time></trkpt><trkpt lat="45.61862" lon="10.89648"><ele>861.0</ele><time>2026-04-25T10:56:50.87Z</time></trkpt><trkpt lat="45.618725" lon="10.8963617"><ele>859.75</ele><time>2026-04-25T10:56:51.872Z</time></trkpt><trkpt lat="45.61887" lon="10.8963017"><ele>858.5</ele><time>2026-04-25T10:56:52.875Z</time></trkpt><trkpt lat="45.6189817" lon="10.8962133"><ele>857.25</ele><time>2026-04-25T10:56:53.87Z</time></trkpt><trkpt lat="45.6191183" lon="10.8961717"><ele>856.0</ele><time>2026-04-25T10:56:54.879Z</time></trkpt><trkpt lat="45.6192933" lon="10.8961617"><ele>856.0</ele><time>2026-04-25T10:56:55.879Z</time></trkpt><trkpt lat="45.61945" lon="10.8962033"><ele>856.0</ele><time>2026-04-25T10:56:56.872Z</time></trkpt><trkpt lat="45.6196033" lon="10.896305"><ele>856.0</ele><time>2026-04-25T10:56:57.874Z</time></trkpt><trkpt lat="45.61975" lon="10.896435"><ele>856.3333333333333</ele><time>2026-04-25T10:56:58.878Z</time></trkpt><trkpt lat="45.6198483" lon="10.89659"><ele>856.6666666666667</ele><time>2026-04-25T10:56:59.875Z</time></trkpt><trkpt lat="45.6199717" lon="10.8968167"><ele>857.0</ele><time>2026-04-25T10:57:00.87Z</time></trkpt><trkpt lat="45.6200817" lon="10.8970717"><ele>852.0</ele><time>2026-04-25T10:57:01.877Z</time></trkpt><trkpt lat="45.6202367" lon="10.89734"><ele>847.0</ele><time>2026-04-25T10:57:02.877Z</time></trkpt><trkpt lat="45.620385" lon="10.897625"><ele>847.0</ele><time>2026-04-25T10:57:03.872Z</time></trkpt><trkpt lat="45.6205517" lon="10.8979267"><ele>847.0</ele><time>2026-04-25T10:57:04.88Z</time></trkpt><trkpt lat="45.6206917" lon="10.8982633"><ele>845.5</ele><time>2026-04-25T10:57:05.872Z</time></trkpt><trkpt lat="45.6208317" lon="10.898585"><ele>844.0</ele><time>2026-04-25T10:57:06.873Z</time></trkpt><trkpt lat="45.6209617" lon="10.8988817"><ele>844.0</ele><time>2026-04-25T10:57:07.874Z</time></trkpt><trkpt lat="45.6210683" lon="10.899165"><ele>844.0</ele><time>2026-04-25T10:57:08.871Z</time></trkpt><trkpt lat="45.6211717" lon="10.8994517"><ele>845.3333333333333</ele><time>2026-04-25T10:57:09.877Z</time></trkpt><trkpt lat="45.621265" lon="10.8997117"><ele>846.6666666666667</ele><time>2026-04-25T10:57:10.879Z</time></trkpt><trkpt lat="45.6213533" lon="10.899975"><ele>848.0</ele><time>2026-04-25T10:57:11.886Z</time></trkpt><trkpt lat="45.6214317" lon="10.90023"><ele>848.0</ele><time>2026-04-25T10:57:12.878Z</time></trkpt><trkpt lat="45.62154" lon="10.9004783"><ele>848.0</ele><time>2026-04-25T10:57:13.877Z</time></trkpt><trkpt lat="45.621645" lon="10.90074"><ele>848.0</ele><time>2026-04-25T10:57:14.878Z</time></trkpt><trkpt lat="45.6217533" lon="10.9010033"><ele>849.3333333333334</ele><time>2026-04-25T10:57:15.879Z</time></trkpt><trkpt lat="45.6218667" lon="10.9012567"><ele>850.6666666666667</ele><time>2026-04-25T10:57:16.898Z</time></trkpt><trkpt lat="45.6219633" lon="10.9015117"><ele>852.0</ele><time>2026-04-25T10:57:17.884Z</time></trkpt><trkpt lat="45.6220617" lon="10.9017233"><ele>850.75</ele><time>2026-04-25T10:57:18.878Z</time></trkpt><trkpt lat="45.6221483" lon="10.9019167"><ele>849.5</ele><time>2026-04-25T10:57:19.874Z</time></trkpt><trkpt lat="45.622225" lon="10.9020483"><ele>848.25</ele><time>2026-04-25T10:57:20.892Z</time></trkpt><trkpt lat="45.622275" lon="10.9021317"><ele>847.0</ele><time>2026-04-25T10:57:21.878Z</time></trkpt><trkpt lat="45.6223817" lon="10.90229"><ele>847.0</ele><time>2026-04-25T10:57:23.878Z</time></trkpt><trkpt lat="45.6224867" lon="10.9023917"><ele>847.0</ele><time>2026-04-25T10:57:24.894Z</time></trkpt><trkpt lat="45.62262" lon="10.9024867"><ele>847.0</ele><time>2026-04-25T10:57:25.877Z</time></trkpt><trkpt lat="45.622765" lon="10.90262"><ele>847.0</ele><time>2026-04-25T10:57:26.878Z</time></trkpt><trkpt lat="45.6228867" lon="10.9027417"><ele>847.0</ele><time>2026-04-25T10:57:27.88Z</time></trkpt><trkpt lat="45.62301" lon="10.902845"><ele>847.0</ele><time>2026-04-25T10:57:28.875Z</time></trkpt><trkpt lat="45.6231167" lon="10.9029433"><ele>847.0</ele><time>2026-04-25T10:57:29.877Z</time></trkpt><trkpt lat="45.62323" lon="10.9030367"><ele>847.0</ele><time>2026-04-25T10:57:30.882Z</time></trkpt><trkpt lat="45.6233833" lon="10.90309"><ele>847.0</ele><time>2026-04-25T10:57:31.875Z</time></trkpt><trkpt lat="45.6234867" lon="10.9031433"><ele>847.0</ele><time>2026-04-25T10:57:32.869Z</time></trkpt><trkpt lat="45.62362" lon="10.9032383"><ele>847.0</ele><time>2026-04-25T10:57:33.884Z</time></trkpt><trkpt lat="45.6237217" lon="10.9032717"><ele>847.0</ele><time>2026-04-25T10:57:34.879Z</time></trkpt><trkpt lat="45.6238017" lon="10.9032867"><ele>847.0</ele><time>2026-04-25T10:57:35.868Z</time></trkpt><trkpt lat="45.6238983" lon="10.903325"><ele>848.0</ele><time>2026-04-25T10:57:37.883Z</time></trkpt><trkpt lat="45.6239767" lon="10.903275"><ele>849.0</ele><time>2026-04-25T10:57:43.873Z</time></trkpt><trkpt lat="45.6240533" lon="10.90313"><ele>850.0</ele><time>2026-04-25T10:57:45.884Z</time></trkpt><trkpt lat="45.6240767" lon="10.9030033"><ele>851.0</ele><time>2026-04-25T10:57:46.889Z</time></trkpt><trkpt lat="45.6240867" lon="10.9028833"><ele>852.0</ele><time>2026-04-25T10:57:47.872Z</time></trkpt><trkpt lat="45.6240867" lon="10.9027833"><ele>852.0</ele><time>2026-04-25T10:57:48.877Z</time></trkpt><trkpt lat="45.624095" lon="10.9026717"><ele>852.0</ele><time>2026-04-25T10:57:49.9Z</time></trkpt><trkpt lat="45.6241117" lon="10.9025733"><ele>852.0</ele><time>2026-04-25T10:57:50.884Z</time></trkpt><trkpt lat="45.6242033" lon="10.9025717"><ele>852.0</ele><time>2026-04-25T10:57:52.886Z</time></trkpt><trkpt lat="45.6242917" lon="10.9026417"><ele>852.0</ele><time>2026-04-25T10:57:53.887Z</time></trkpt><trkpt lat="45.62439" lon="10.9027383"><ele>852.0</ele><time>2026-04-25T10:57:54.883Z</time></trkpt><trkpt lat="45.62447" lon="10.9028283"><ele>852.0</ele><time>2026-04-25T10:57:55.884Z</time></trkpt><trkpt lat="45.624545" lon="10.9028917"><ele>852.0</ele><time>2026-04-25T10:57:56.884Z</time></trkpt><trkpt lat="45.6246067" lon="10.9029517"><ele>852.0</ele><time>2026-04-25T10:57:57.9Z</time></trkpt><trkpt lat="45.6246533" lon="10.9030183"><ele>852.0</ele><time>2026-04-25T10:57:58.887Z</time></trkpt><trkpt lat="45.624715" lon="10.9031567"><ele>852.0</ele><time>2026-04-25T10:58:00.879Z</time></trkpt><trkpt lat="45.624735" lon="10.9033183"><ele>854.6</ele><time>2026-04-25T10:58:02.876Z</time></trkpt><trkpt lat="45.62475" lon="10.903415"><ele>857.2</ele><time>2026-04-25T10:58:03.876Z</time></trkpt><trkpt lat="45.6247633" lon="10.9035317"><ele>859.8</ele><time>2026-04-25T10:58:04.872Z</time></trkpt><trkpt lat="45.6247867" lon="10.90368"><ele>862.4</ele><time>2026-04-25T10:58:05.879Z</time></trkpt><trkpt lat="45.6248117" lon="10.9038267"><ele>865.0</ele><time>2026-04-25T10:58:06.875Z</time></trkpt><trkpt lat="45.6248367" lon="10.9039783"><ele>864.9999999999999</ele><time>2026-04-25T10:58:07.872Z</time></trkpt><trkpt lat="45.6248533" lon="10.9041333"><ele>865.0</ele><time>2026-04-25T10:58:08.872Z</time></trkpt><trkpt lat="45.6248633" lon="10.9042667"><ele>865.0</ele><time>2026-04-25T10:58:09.874Z</time></trkpt><trkpt lat="45.62487" lon="10.90438"><ele>865.0</ele><time>2026-04-25T10:58:10.874Z</time></trkpt><trkpt lat="45.6248567" lon="10.9045067"><ele>864.9999999999999</ele><time>2026-04-25T10:58:12.874Z</time></trkpt><trkpt lat="45.6249217" lon="10.9045417"><ele>865.0</ele><time>2026-04-25T10:58:18.878Z</time></trkpt><trkpt lat="45.62502" lon="10.9045817"><ele>866.1666666666666</ele><time>2026-04-25T10:58:20.875Z</time></trkpt><trkpt lat="45.6250983" lon="10.9045567"><ele>867.3333333333333</ele><time>2026-04-25T10:58:22.877Z</time></trkpt><trkpt lat="45.6251417" lon="10.9044783"><ele>868.5</ele><time>2026-04-25T10:58:25.877Z</time></trkpt><trkpt lat="45.6251083" lon="10.904595"><ele>869.6666666666667</ele><time>2026-04-25T10:58:29.874Z</time></trkpt><trkpt lat="45.6250167" lon="10.904625"><ele>870.8333333333334</ele><time>2026-04-25T10:58:32.872Z</time></trkpt><trkpt lat="45.624965" lon="10.904515"><ele>872.0</ele><time>2026-04-25T10:58:34.873Z</time></trkpt><trkpt lat="45.624895" lon="10.9044817"><ele>872.0000000000001</ele><time>2026-04-25T10:58:36.872Z</time></trkpt><trkpt lat="45.6248317" lon="10.9045633"><ele>872.0</ele><time>2026-04-25T10:58:39.871Z</time></trkpt><trkpt lat="45.6248067" lon="10.9046483"><ele>872.0</ele><time>2026-04-25T10:58:40.87Z</time></trkpt><trkpt lat="45.6247717" lon="10.90475"><ele>872.0</ele><time>2026-04-25T10:58:41.874Z</time></trkpt><trkpt lat="45.62473" lon="10.9048467"><ele>872.0000000000001</ele><time>2026-04-25T10:58:42.88Z</time></trkpt><trkpt lat="45.6246917" lon="10.9049433"><ele>872.0</ele><time>2026-04-25T10:58:43.876Z</time></trkpt><trkpt lat="45.62467" lon="10.9050533"><ele>872.1666666666667</ele><time>2026-04-25T10:58:44.87Z</time></trkpt><trkpt lat="45.6246683" lon="10.9051567"><ele>872.3333333333334</ele><time>2026-04-25T10:58:45.874Z</time></trkpt><trkpt lat="45.624675" lon="10.90526"><ele>872.5</ele><time>2026-04-25T10:58:46.872Z</time></trkpt><trkpt lat="45.6246933" lon="10.9053667"><ele>872.6666666666667</ele><time>2026-04-25T10:58:47.871Z</time></trkpt><trkpt lat="45.62472" lon="10.90549"><ele>872.8333333333334</ele><time>2026-04-25T10:58:48.872Z</time></trkpt><trkpt lat="45.6247417" lon="10.9056217"><ele>873.0</ele><time>2026-04-25T10:58:49.877Z</time></trkpt><trkpt lat="45.6247817" lon="10.9057883"><ele>872.25</ele><time>2026-04-25T10:58:50.883Z</time></trkpt><trkpt lat="45.6248133" lon="10.905975"><ele>871.5</ele><time>2026-04-25T10:58:51.877Z</time></trkpt><trkpt lat="45.624845" lon="10.9061683"><ele>870.75</ele><time>2026-04-25T10:58:52.877Z</time></trkpt><trkpt lat="45.6248733" lon="10.9063417"><ele>870.0</ele><time>2026-04-25T10:58:53.884Z</time></trkpt><trkpt lat="45.624915" lon="10.906535"><ele>870.0</ele><time>2026-04-25T10:58:54.881Z</time></trkpt><trkpt lat="45.6249417" lon="10.90671"><ele>870.0</ele><time>2026-04-25T10:58:55.882Z</time></trkpt><trkpt lat="45.6249867" lon="10.9069217"><ele>870.0</ele><time>2026-04-25T10:58:56.879Z</time></trkpt><trkpt lat="45.6250133" lon="10.9071183"><ele>870.0</ele><time>2026-04-25T10:58:57.874Z</time></trkpt><trkpt lat="45.625065" lon="10.9073017"><ele>871.5</ele><time>2026-04-25T10:58:58.874Z</time></trkpt><trkpt lat="45.6251417" lon="10.9074733"><ele>873.0</ele><time>2026-04-25T10:58:59.878Z</time></trkpt><trkpt lat="45.6252133" lon="10.9076617"><ele>874.5</ele><time>2026-04-25T10:59:00.893Z</time></trkpt><trkpt lat="45.6253033" lon="10.9078217"><ele>876.0</ele><time>2026-04-25T10:59:01.89Z</time></trkpt><trkpt lat="45.6253967" lon="10.9079283"><ele>876.25</ele><time>2026-04-25T10:59:02.885Z</time></trkpt><trkpt lat="45.6255117" lon="10.9080567"><ele>876.5</ele><time>2026-04-25T10:59:03.879Z</time></trkpt><trkpt lat="45.6255967" lon="10.9081217"><ele>876.75</ele><time>2026-04-25T10:59:04.878Z</time></trkpt><trkpt lat="45.6256717" lon="10.9082567"><ele>877.0</ele><time>2026-04-25T10:59:05.884Z</time></trkpt><trkpt lat="45.6257617" lon="10.9084117"><ele>877.5</ele><time>2026-04-25T10:59:06.885Z</time></trkpt><trkpt lat="45.62583" lon="10.9085717"><ele>878.0</ele><time>2026-04-25T10:59:07.872Z</time></trkpt><trkpt lat="45.6258883" lon="10.9087633"><ele>878.5</ele><time>2026-04-25T10:59:08.887Z</time></trkpt><trkpt lat="45.62592" lon="10.9089883"><ele>879.0</ele><time>2026-04-25T10:59:09.884Z</time></trkpt><trkpt lat="45.6259667" lon="10.9091917"><ele>878.0</ele><time>2026-04-25T10:59:10.891Z</time></trkpt><trkpt lat="45.6260483" lon="10.9094383"><ele>877.0</ele><time>2026-04-25T10:59:11.881Z</time></trkpt><trkpt lat="45.626115" lon="10.9096217"><ele>876.0</ele><time>2026-04-25T10:59:12.885Z</time></trkpt><trkpt lat="45.6262" lon="10.9097967"><ele>876.0</ele><time>2026-04-25T10:59:13.884Z</time></trkpt><trkpt lat="45.6262383" lon="10.9099633"><ele>876.0</ele><time>2026-04-25T10:59:14.883Z</time></trkpt><trkpt lat="45.6263367" lon="10.9101367"><ele>876.0</ele><time>2026-04-25T10:59:15.875Z</time></trkpt><trkpt lat="45.6264533" lon="10.9103"><ele>876.0</ele><time>2026-04-25T10:59:16.877Z</time></trkpt><trkpt lat="45.62657" lon="10.9104467"><ele>876.75</ele><time>2026-04-25T10:59:17.893Z</time></trkpt><trkpt lat="45.6266683" lon="10.91055"><ele>877.5</ele><time>2026-04-25T10:59:18.883Z</time></trkpt><trkpt lat="45.62678" lon="10.91063"><ele>878.25</ele><time>2026-04-25T10:59:19.876Z</time></trkpt><trkpt lat="45.6268733" lon="10.9107083"><ele>879.0</ele><time>2026-04-25T10:59:20.887Z</time></trkpt><trkpt lat="45.62697" lon="10.9107667"><ele>878.6</ele><time>2026-04-25T10:59:21.88Z</time></trkpt><trkpt lat="45.62707" lon="10.9108217"><ele>878.2</ele><time>2026-04-25T10:59:22.876Z</time></trkpt><trkpt lat="45.627155" lon="10.9108767"><ele>877.8000000000001</ele><time>2026-04-25T10:59:23.876Z</time></trkpt><trkpt lat="45.6272533" lon="10.9109417"><ele>877.4000000000001</ele><time>2026-04-25T10:59:24.875Z</time></trkpt><trkpt lat="45.627365" lon="10.9110283"><ele>877.0</ele><time>2026-04-25T10:59:25.877Z</time></trkpt><trkpt lat="45.6274917" lon="10.9110817"><ele>877.0</ele><time>2026-04-25T10:59:26.872Z</time></trkpt><trkpt lat="45.6276317" lon="10.9111417"><ele>877.0</ele><time>2026-04-25T10:59:27.872Z</time></trkpt><trkpt lat="45.62778" lon="10.9112633"><ele>877.0</ele><time>2026-04-25T10:59:28.871Z</time></trkpt><trkpt lat="45.6279517" lon="10.9113733"><ele>879.3333333333333</ele><time>2026-04-25T10:59:29.887Z</time></trkpt><trkpt lat="45.6281017" lon="10.9115383"><ele>881.6666666666667</ele><time>2026-04-25T10:59:30.871Z</time></trkpt><trkpt lat="45.6282217" lon="10.911755"><ele>884.0</ele><time>2026-04-25T10:59:31.871Z</time></trkpt><trkpt lat="45.6283467" lon="10.9119667"><ele>884.0</ele><time>2026-04-25T10:59:32.87Z</time></trkpt><trkpt lat="45.6284783" lon="10.9121933"><ele>884.0</ele><time>2026-04-25T10:59:33.871Z</time></trkpt><trkpt lat="45.6286183" lon="10.912435"><ele>884.0</ele><time>2026-04-25T10:59:34.875Z</time></trkpt><trkpt lat="45.6287683" lon="10.9127017"><ele>893.5</ele><time>2026-04-25T10:59:35.886Z</time></trkpt><trkpt lat="45.62892" lon="10.9129733"><ele>903.0</ele><time>2026-04-25T10:59:36.871Z</time></trkpt><trkpt lat="45.6290617" lon="10.91325"><ele>900.0</ele><time>2026-04-25T10:59:37.871Z</time></trkpt><trkpt lat="45.6291867" lon="10.9135183"><ele>897.0</ele><time>2026-04-25T10:59:38.88Z</time></trkpt><trkpt lat="45.6293317" lon="10.9137733"><ele>900.3333333333333</ele><time>2026-04-25T10:59:39.874Z</time></trkpt><trkpt lat="45.6294883" lon="10.9139767"><ele>903.6666666666666</ele><time>2026-04-25T10:59:40.872Z</time></trkpt><trkpt lat="45.6296117" lon="10.9141433"><ele>907.0</ele><time>2026-04-25T10:59:41.879Z</time></trkpt><trkpt lat="45.6297283" lon="10.9142683"><ele>907.0</ele><time>2026-04-25T10:59:42.872Z</time></trkpt><trkpt lat="45.6298783" lon="10.91437"><ele>907.0</ele><time>2026-04-25T10:59:43.872Z</time></trkpt><trkpt lat="45.6300383" lon="10.9144683"><ele>907.0</ele><time>2026-04-25T10:59:44.879Z</time></trkpt><trkpt lat="45.6301683" lon="10.9145883"><ele>907.0</ele><time>2026-04-25T10:59:45.877Z</time></trkpt><trkpt lat="45.6302817" lon="10.9147267"><ele>907.0</ele><time>2026-04-25T10:59:46.873Z</time></trkpt><trkpt lat="45.6303717" lon="10.9149083"><ele>907.0</ele><time>2026-04-25T10:59:47.872Z</time></trkpt><trkpt lat="45.6304467" lon="10.915125"><ele>905.6666666666666</ele><time>2026-04-25T10:59:48.877Z</time></trkpt><trkpt lat="45.6305133" lon="10.9153667"><ele>904.3333333333333</ele><time>2026-04-25T10:59:49.881Z</time></trkpt><trkpt lat="45.6305883" lon="10.915625"><ele>903.0</ele><time>2026-04-25T10:59:50.88Z</time></trkpt><trkpt lat="45.6306667" lon="10.9158983"><ele>904.0</ele><time>2026-04-25T10:59:51.878Z</time></trkpt><trkpt lat="45.63075" lon="10.9161733"><ele>905.0</ele><time>2026-04-25T10:59:52.873Z</time></trkpt><trkpt lat="45.63083" lon="10.9164367"><ele>906.0</ele><time>2026-04-25T10:59:53.876Z</time></trkpt><trkpt lat="45.6309083" lon="10.9166867"><ele>906.3333333333333</ele><time>2026-04-25T10:59:54.896Z</time></trkpt><trkpt lat="45.6309933" lon="10.9169383"><ele>906.6666666666666</ele><time>2026-04-25T10:59:55.878Z</time></trkpt><trkpt lat="45.63109" lon="10.9171867"><ele>907.0</ele><time>2026-04-25T10:59:56.885Z</time></trkpt><trkpt lat="45.631205" lon="10.917435"><ele>908.6666666666666</ele><time>2026-04-25T10:59:57.892Z</time></trkpt><trkpt lat="45.631335" lon="10.917675"><ele>910.3333333333333</ele><time>2026-04-25T10:59:58.892Z</time></trkpt><trkpt lat="45.6314883" lon="10.9179017"><ele>912.0</ele><time>2026-04-25T10:59:59.882Z</time></trkpt><trkpt lat="45.6316333" lon="10.91811"><ele>912.0</ele><time>2026-04-25T11:00:00.897Z</time></trkpt><trkpt lat="45.6318167" lon="10.9183583"><ele>912.0</ele><time>2026-04-25T11:00:01.89Z</time></trkpt><trkpt lat="45.6319683" lon="10.9185967"><ele>915.5</ele><time>2026-04-25T11:00:02.879Z</time></trkpt><trkpt lat="45.63213" lon="10.918815"><ele>919.0</ele><time>2026-04-25T11:00:03.88Z</time></trkpt><trkpt lat="45.6323167" lon="10.9190483"><ele>921.5</ele><time>2026-04-25T11:00:04.89Z</time></trkpt><trkpt lat="45.6325033" lon="10.919285"><ele>924.0</ele><time>2026-04-25T11:00:05.878Z</time></trkpt><trkpt lat="45.632675" lon="10.9195217"><ele>925.5</ele><time>2026-04-25T11:00:06.9Z</time></trkpt><trkpt lat="45.6328467" lon="10.9197583"><ele>927.0</ele><time>2026-04-25T11:00:07.887Z</time></trkpt><trkpt lat="45.6330083" lon="10.9199833"><ele>929.6666666666667</ele><time>2026-04-25T11:00:08.884Z</time></trkpt><trkpt lat="45.633155" lon="10.9201917"><ele>932.3333333333334</ele><time>2026-04-25T11:00:09.888Z</time></trkpt><trkpt lat="45.633285" lon="10.92037"><ele>935.0</ele><time>2026-04-25T11:00:10.877Z</time></trkpt><trkpt lat="45.6334067" lon="10.9205133"><ele>935.0</ele><time>2026-04-25T11:00:11.879Z</time></trkpt><trkpt lat="45.6335217" lon="10.920625"><ele>935.0</ele><time>2026-04-25T11:00:12.895Z</time></trkpt><trkpt lat="45.6336567" lon="10.92072"><ele>935.0</ele><time>2026-04-25T11:00:13.878Z</time></trkpt><trkpt lat="45.6337883" lon="10.920805"><ele>935.0</ele><time>2026-04-25T11:00:14.884Z</time></trkpt><trkpt lat="45.63392" lon="10.9209017"><ele>935.75</ele><time>2026-04-25T11:00:15.88Z</time></trkpt><trkpt lat="45.634055" lon="10.921"><ele>936.5</ele><time>2026-04-25T11:00:16.878Z</time></trkpt><trkpt lat="45.6341783" lon="10.9211067"><ele>937.25</ele><time>2026-04-25T11:00:17.882Z</time></trkpt><trkpt lat="45.6342983" lon="10.921215"><ele>938.0</ele><time>2026-04-25T11:00:18.883Z</time></trkpt><trkpt lat="45.634365" lon="10.921295"><ele>938.0</ele><time>2026-04-25T11:00:19.889Z</time></trkpt><trkpt lat="45.6344167" lon="10.92135"><ele>938.0</ele><time>2026-04-25T11:00:20.879Z</time></trkpt><trkpt lat="45.634475" lon="10.9213917"><ele>938.0</ele><time>2026-04-25T11:00:22.882Z</time></trkpt><trkpt lat="45.63457" lon="10.9214417"><ele>938.0</ele><time>2026-04-25T11:00:29.884Z</time></trkpt><trkpt lat="45.6346583" lon="10.9215"><ele>938.0</ele><time>2026-04-25T11:00:30.887Z</time></trkpt><trkpt lat="45.6347783" lon="10.9215483"><ele>938.25</ele><time>2026-04-25T11:00:31.889Z</time></trkpt><trkpt lat="45.6349033" lon="10.9216367"><ele>938.5</ele><time>2026-04-25T11:00:32.881Z</time></trkpt><trkpt lat="45.635045" lon="10.9216783"><ele>938.75</ele><time>2026-04-25T11:00:33.878Z</time></trkpt><trkpt lat="45.635185" lon="10.92173"><ele>939.0</ele><time>2026-04-25T11:00:34.884Z</time></trkpt><trkpt lat="45.635345" lon="10.9218017"><ele>942.0</ele><time>2026-04-25T11:00:35.886Z</time></trkpt><trkpt lat="45.6355467" lon="10.9218467"><ele>945.0</ele><time>2026-04-25T11:00:36.89Z</time></trkpt><trkpt lat="45.6357433" lon="10.9218917"><ele>948.0</ele><time>2026-04-25T11:00:37.876Z</time></trkpt><trkpt lat="45.635955" lon="10.9219317"><ele>950.3333333333333</ele><time>2026-04-25T11:00:38.885Z</time></trkpt><trkpt lat="45.6361533" lon="10.9219583"><ele>952.6666666666666</ele><time>2026-04-25T11:00:39.88Z</time></trkpt><trkpt lat="45.6363617" lon="10.921975"><ele>955.0</ele><time>2026-04-25T11:00:40.889Z</time></trkpt><trkpt lat="45.63658" lon="10.92197"><ele>955.0</ele><time>2026-04-25T11:00:41.908Z</time></trkpt><trkpt lat="45.63683" lon="10.9219983"><ele>955.0</ele><time>2026-04-25T11:00:42.954Z</time></trkpt><trkpt lat="45.637045" lon="10.9220667"><ele>955.0</ele><time>2026-04-25T11:00:43.872Z</time></trkpt><trkpt lat="45.6372133" lon="10.9220967"><ele>955.0</ele><time>2026-04-25T11:00:44.911Z</time></trkpt><trkpt lat="45.637385" lon="10.9220783"><ele>955.0</ele><time>2026-04-25T11:00:45.89Z</time></trkpt><trkpt lat="45.6375283" lon="10.9221567"><ele>955.0</ele><time>2026-04-25T11:00:46.881Z</time></trkpt><trkpt lat="45.63767" lon="10.922225"><ele>955.0</ele><time>2026-04-25T11:00:47.884Z</time></trkpt><trkpt lat="45.63785" lon="10.92235"><ele>955.0</ele><time>2026-04-25T11:00:48.876Z</time></trkpt><trkpt lat="45.638015" lon="10.9224717"><ele>956.0</ele><time>2026-04-25T11:00:49.884Z</time></trkpt><trkpt lat="45.6381867" lon="10.922615"><ele>957.0</ele><time>2026-04-25T11:00:50.878Z</time></trkpt><trkpt lat="45.6383783" lon="10.9227567"><ele>958.0</ele><time>2026-04-25T11:00:51.889Z</time></trkpt><trkpt lat="45.638525" lon="10.9229567"><ele>956.6666666666666</ele><time>2026-04-25T11:00:52.876Z</time></trkpt><trkpt lat="45.6387183" lon="10.9230583"><ele>955.3333333333333</ele><time>2026-04-25T11:00:53.881Z</time></trkpt><trkpt lat="45.638925" lon="10.923205"><ele>954.0</ele><time>2026-04-25T11:00:54.882Z</time></trkpt><trkpt lat="45.6391167" lon="10.9233417"><ele>956.3333333333333</ele><time>2026-04-25T11:00:55.886Z</time></trkpt><trkpt lat="45.6393167" lon="10.9235033"><ele>958.6666666666666</ele><time>2026-04-25T11:00:56.882Z</time></trkpt><trkpt lat="45.639505" lon="10.9236483"><ele>961.0</ele><time>2026-04-25T11:00:57.876Z</time></trkpt><trkpt lat="45.6396917" lon="10.923805"><ele>961.0</ele><time>2026-04-25T11:00:58.883Z</time></trkpt><trkpt lat="45.6398817" lon="10.923965"><ele>961.0</ele><time>2026-04-25T11:00:59.894Z</time></trkpt><trkpt lat="45.6400717" lon="10.9241183"><ele>961.0</ele><time>2026-04-25T11:01:00.879Z</time></trkpt><trkpt lat="45.6402633" lon="10.924275"><ele>963.6666666666666</ele><time>2026-04-25T11:01:01.888Z</time></trkpt><trkpt lat="45.6404467" lon="10.924425"><ele>966.3333333333333</ele><time>2026-04-25T11:01:02.875Z</time></trkpt><trkpt lat="45.6406267" lon="10.9245783"><ele>969.0</ele><time>2026-04-25T11:01:03.885Z</time></trkpt><trkpt lat="45.6408067" lon="10.924715"><ele>969.0</ele><time>2026-04-25T11:01:04.892Z</time></trkpt><trkpt lat="45.6409517" lon="10.9248267"><ele>969.0</ele><time>2026-04-25T11:01:05.894Z</time></trkpt><trkpt lat="45.6410583" lon="10.9249483"><ele>969.0</ele><time>2026-04-25T11:01:06.881Z</time></trkpt><trkpt lat="45.64112" lon="10.925125"><ele>969.0</ele><time>2026-04-25T11:01:07.879Z</time></trkpt><trkpt lat="45.6411767" lon="10.92532"><ele>971.0</ele><time>2026-04-25T11:01:08.891Z</time></trkpt><trkpt lat="45.6412183" lon="10.9255533"><ele>973.0</ele><time>2026-04-25T11:01:09.895Z</time></trkpt><trkpt lat="45.641245" lon="10.9257833"><ele>975.0</ele><time>2026-04-25T11:01:10.879Z</time></trkpt><trkpt lat="45.6412833" lon="10.9260017"><ele>975.0</ele><time>2026-04-25T11:01:11.884Z</time></trkpt><trkpt lat="45.6413017" lon="10.9261867"><ele>975.0</ele><time>2026-04-25T11:01:12.88Z</time></trkpt><trkpt lat="45.6413383" lon="10.9263133"><ele>975.0</ele><time>2026-04-25T11:01:13.897Z</time></trkpt><trkpt lat="45.6413983" lon="10.926395"><ele>975.0</ele><time>2026-04-25T11:01:14.879Z</time></trkpt><trkpt lat="45.6414767" lon="10.92644"><ele>975.0</ele><time>2026-04-25T11:01:15.886Z</time></trkpt><trkpt lat="45.641575" lon="10.9264617"><ele>975.0</ele><time>2026-04-25T11:01:16.873Z</time></trkpt><trkpt lat="45.6416783" lon="10.926395"><ele>975.0</ele><time>2026-04-25T11:01:17.885Z</time></trkpt><trkpt lat="45.6418017" lon="10.9263683"><ele>975.0</ele><time>2026-04-25T11:01:18.884Z</time></trkpt><trkpt lat="45.6419233" lon="10.9263433"><ele>975.0</ele><time>2026-04-25T11:01:19.875Z</time></trkpt><trkpt lat="45.642025" lon="10.926335"><ele>975.25</ele><time>2026-04-25T11:01:20.878Z</time></trkpt><trkpt lat="45.6421433" lon="10.92637"><ele>975.5</ele><time>2026-04-25T11:01:21.878Z</time></trkpt><trkpt lat="45.6422633" lon="10.9264567"><ele>975.75</ele><time>2026-04-25T11:01:22.872Z</time></trkpt><trkpt lat="45.6423867" lon="10.926525"><ele>976.0</ele><time>2026-04-25T11:01:23.883Z</time></trkpt><trkpt lat="45.642515" lon="10.92661"><ele>976.0</ele><time>2026-04-25T11:01:24.876Z</time></trkpt><trkpt lat="45.64265" lon="10.9267267"><ele>976.0</ele><time>2026-04-25T11:01:25.883Z</time></trkpt><trkpt lat="45.6427733" lon="10.926835"><ele>976.0</ele><time>2026-04-25T11:01:26.873Z</time></trkpt><trkpt lat="45.642925" lon="10.9269283"><ele>977.0</ele><time>2026-04-25T11:01:27.876Z</time></trkpt><trkpt lat="45.6430867" lon="10.9270283"><ele>978.0</ele><time>2026-04-25T11:01:28.876Z</time></trkpt><trkpt lat="45.6432367" lon="10.92714"><ele>979.0</ele><time>2026-04-25T11:01:29.884Z</time></trkpt><trkpt lat="45.6433833" lon="10.9272333"><ele>979.0</ele><time>2026-04-25T11:01:30.894Z</time></trkpt><trkpt lat="45.6435267" lon="10.927345"><ele>979.0</ele><time>2026-04-25T11:01:31.876Z</time></trkpt><trkpt lat="45.6436583" lon="10.9274867"><ele>979.0</ele><time>2026-04-25T11:01:32.874Z</time></trkpt><trkpt lat="45.6437633" lon="10.9276517"><ele>979.0</ele><time>2026-04-25T11:01:33.875Z</time></trkpt><trkpt lat="45.64388" lon="10.9278317"><ele>979.0</ele><time>2026-04-25T11:01:34.875Z</time></trkpt><trkpt lat="45.6441083" lon="10.9281967"><ele>979.0</ele><time>2026-04-25T11:01:36.122Z</time></trkpt><trkpt lat="45.6442267" lon="10.928335"><ele>979.0</ele><time>2026-04-25T11:01:37.1Z</time></trkpt><trkpt lat="45.6443317" lon="10.9284983"><ele>979.0</ele><time>2026-04-25T11:01:38.101Z</time></trkpt><trkpt lat="45.644435" lon="10.9286683"><ele>971.0</ele><time>2026-04-25T11:01:39.606Z</time></trkpt><trkpt lat="45.6445167" lon="10.9288783"><ele>963.0</ele><time>2026-04-25T11:01:40.611Z</time></trkpt><trkpt lat="45.6446783" lon="10.929335"><ele>963.0</ele><time>2026-04-25T11:01:41.913Z</time></trkpt><trkpt lat="45.644735" lon="10.92956"><ele>963.0</ele><time>2026-04-25T11:01:42.896Z</time></trkpt><trkpt lat="45.6448033" lon="10.9297717"><ele>963.0</ele><time>2026-04-25T11:01:43.886Z</time></trkpt><trkpt lat="45.6448733" lon="10.9299617"><ele>965.0</ele><time>2026-04-25T11:01:44.878Z</time></trkpt><trkpt lat="45.6449283" lon="10.9301367"><ele>967.0</ele><time>2026-04-25T11:01:45.899Z</time></trkpt><trkpt lat="45.6449983" lon="10.9303133"><ele>969.0</ele><time>2026-04-25T11:01:46.912Z</time></trkpt><trkpt lat="45.6450833" lon="10.9305067"><ele>971.0</ele><time>2026-04-25T11:01:47.889Z</time></trkpt><trkpt lat="45.6451617" lon="10.93069"><ele>971.0</ele><time>2026-04-25T11:01:48.9Z</time></trkpt><trkpt lat="45.6452283" lon="10.9308567"><ele>971.0</ele><time>2026-04-25T11:01:49.893Z</time></trkpt><trkpt lat="45.64529" lon="10.9310367"><ele>971.0</ele><time>2026-04-25T11:01:50.895Z</time></trkpt><trkpt lat="45.6453167" lon="10.93124"><ele>971.0</ele><time>2026-04-25T11:01:51.922Z</time></trkpt><trkpt lat="45.6453083" lon="10.931465"><ele>963.0</ele><time>2026-04-25T11:01:52.94Z</time></trkpt><trkpt lat="45.645305" lon="10.93167"><ele>955.0</ele><time>2026-04-25T11:01:53.909Z</time></trkpt><trkpt lat="45.64528" lon="10.931915"><ele>947.0</ele><time>2026-04-25T11:01:54.909Z</time></trkpt><trkpt lat="45.6452333" lon="10.9321067"><ele>947.0</ele><time>2026-04-25T11:01:55.886Z</time></trkpt><trkpt lat="45.6451867" lon="10.9322517"><ele>947.0</ele><time>2026-04-25T11:01:56.886Z</time></trkpt><trkpt lat="45.6451083" lon="10.93238"><ele>947.0</ele><time>2026-04-25T11:01:57.882Z</time></trkpt><trkpt lat="45.6450083" lon="10.932495"><ele>947.0</ele><time>2026-04-25T11:01:58.892Z</time></trkpt><trkpt lat="45.64488" lon="10.9325817"><ele>948.0</ele><time>2026-04-25T11:01:59.887Z</time></trkpt><trkpt lat="45.6447067" lon="10.9327383"><ele>949.0</ele><time>2026-04-25T11:02:00.882Z</time></trkpt><trkpt lat="45.6445417" lon="10.93285"><ele>950.0</ele><time>2026-04-25T11:02:01.89Z</time></trkpt><trkpt lat="45.644395" lon="10.93295"><ele>950.0</ele><time>2026-04-25T11:02:02.882Z</time></trkpt><trkpt lat="45.644275" lon="10.93303"><ele>950.0</ele><time>2026-04-25T11:02:03.886Z</time></trkpt><trkpt lat="45.6441617" lon="10.9331133"><ele>950.0</ele><time>2026-04-25T11:02:04.889Z</time></trkpt><trkpt lat="45.6440567" lon="10.9332067"><ele>950.0</ele><time>2026-04-25T11:02:05.896Z</time></trkpt><trkpt lat="45.643985" lon="10.933315"><ele>948.4</ele><time>2026-04-25T11:02:06.904Z</time></trkpt><trkpt lat="45.64394" lon="10.9334117"><ele>946.8</ele><time>2026-04-25T11:02:07.889Z</time></trkpt><trkpt lat="45.6439333" lon="10.9335067"><ele>945.2</ele><time>2026-04-25T11:02:08.885Z</time></trkpt><trkpt lat="45.6439367" lon="10.9336167"><ele>943.6</ele><time>2026-04-25T11:02:09.881Z</time></trkpt><trkpt lat="45.6439633" lon="10.9337617"><ele>942.0</ele><time>2026-04-25T11:02:10.88Z</time></trkpt><trkpt lat="45.644" lon="10.9339317"><ele>942.0</ele><time>2026-04-25T11:02:11.884Z</time></trkpt><trkpt lat="45.644025" lon="10.9341117"><ele>942.0</ele><time>2026-04-25T11:02:12.886Z</time></trkpt><trkpt lat="45.6440417" lon="10.9343067"><ele>942.0</ele><time>2026-04-25T11:02:13.879Z</time></trkpt><trkpt lat="45.6440567" lon="10.9344733"><ele>942.0</ele><time>2026-04-25T11:02:14.889Z</time></trkpt><trkpt lat="45.64403" lon="10.934615"><ele>940.75</ele><time>2026-04-25T11:02:15.887Z</time></trkpt><trkpt lat="45.6440017" lon="10.9347733"><ele>939.5</ele><time>2026-04-25T11:02:16.878Z</time></trkpt><trkpt lat="45.6439633" lon="10.934955"><ele>938.25</ele><time>2026-04-25T11:02:17.886Z</time></trkpt><trkpt lat="45.6439117" lon="10.9351517"><ele>937.0</ele><time>2026-04-25T11:02:18.888Z</time></trkpt><trkpt lat="45.6438433" lon="10.9353333"><ele>937.2</ele><time>2026-04-25T11:02:19.875Z</time></trkpt><trkpt lat="45.64378" lon="10.9354933"><ele>937.4000000000001</ele><time>2026-04-25T11:02:20.891Z</time></trkpt><trkpt lat="45.6437133" lon="10.93563"><ele>937.5999999999999</ele><time>2026-04-25T11:02:21.875Z</time></trkpt><trkpt lat="45.64366" lon="10.9357517"><ele>937.8</ele><time>2026-04-25T11:02:22.877Z</time></trkpt><trkpt lat="45.64362" lon="10.935865"><ele>938.0</ele><time>2026-04-25T11:02:23.881Z</time></trkpt><trkpt lat="45.6436067" lon="10.93599"><ele>938.0000000000001</ele><time>2026-04-25T11:02:24.885Z</time></trkpt><trkpt lat="45.643585" lon="10.936095"><ele>938.0</ele><time>2026-04-25T11:02:25.879Z</time></trkpt><trkpt lat="45.6435717" lon="10.9361917"><ele>938.0</ele><time>2026-04-25T11:02:26.879Z</time></trkpt><trkpt lat="45.6435533" lon="10.9363183"><ele>938.0</ele><time>2026-04-25T11:02:28.877Z</time></trkpt><trkpt lat="45.64347" lon="10.9363417"><ele>938.0000000000001</ele><time>2026-04-25T11:02:32.877Z</time></trkpt><trkpt lat="45.6433567" lon="10.9363317"><ele>938.0</ele><time>2026-04-25T11:02:34.881Z</time></trkpt><trkpt lat="45.6432667" lon="10.9362883"><ele>938.0</ele><time>2026-04-25T11:02:35.875Z</time></trkpt><trkpt lat="45.643175" lon="10.9362667"><ele>938.0</ele><time>2026-04-25T11:02:36.884Z</time></trkpt><trkpt lat="45.643065" lon="10.9362417"><ele>938.0</ele><time>2026-04-25T11:02:37.883Z</time></trkpt><trkpt lat="45.6429567" lon="10.936215"><ele>938.0</ele><time>2026-04-25T11:02:38.874Z</time></trkpt><trkpt lat="45.64284" lon="10.9362"><ele>938.0</ele><time>2026-04-25T11:02:39.885Z</time></trkpt><trkpt lat="45.64272" lon="10.9362083"><ele>937.75</ele><time>2026-04-25T11:02:40.877Z</time></trkpt><trkpt lat="45.64259" lon="10.9362967"><ele>937.5</ele><time>2026-04-25T11:02:41.877Z</time></trkpt><trkpt lat="45.642465" lon="10.9364133"><ele>937.25</ele><time>2026-04-25T11:02:42.883Z</time></trkpt><trkpt lat="45.6423417" lon="10.9365133"><ele>937.0</ele><time>2026-04-25T11:02:43.881Z</time></trkpt><trkpt lat="45.6422283" lon="10.9366217"><ele>937.3333333333333</ele><time>2026-04-25T11:02:44.881Z</time></trkpt><trkpt lat="45.6421017" lon="10.9367267"><ele>937.6666666666667</ele><time>2026-04-25T11:02:45.881Z</time></trkpt><trkpt lat="45.6419383" lon="10.936815"><ele>938.0</ele><time>2026-04-25T11:02:46.882Z</time></trkpt><trkpt lat="45.6417917" lon="10.9369183"><ele>938.0</ele><time>2026-04-25T11:02:47.885Z</time></trkpt><trkpt lat="45.641655" lon="10.9370333"><ele>938.0</ele><time>2026-04-25T11:02:48.874Z</time></trkpt><trkpt lat="45.641535" lon="10.93712"><ele>938.0</ele><time>2026-04-25T11:02:49.881Z</time></trkpt><trkpt lat="45.6414183" lon="10.93718"><ele>938.0</ele><time>2026-04-25T11:02:50.88Z</time></trkpt><trkpt lat="45.641255" lon="10.9372033"><ele>939.0</ele><time>2026-04-25T11:02:51.878Z</time></trkpt><trkpt lat="45.64111" lon="10.9372217"><ele>940.0</ele><time>2026-04-25T11:02:52.911Z</time></trkpt><trkpt lat="45.6409617" lon="10.9372583"><ele>941.0</ele><time>2026-04-25T11:02:53.885Z</time></trkpt><trkpt lat="45.64081" lon="10.93737"><ele>941.0</ele><time>2026-04-25T11:02:54.881Z</time></trkpt><trkpt lat="45.640685" lon="10.9375283"><ele>941.0</ele><time>2026-04-25T11:02:55.881Z</time></trkpt><trkpt lat="45.64057" lon="10.9376983"><ele>941.0</ele><time>2026-04-25T11:02:56.885Z</time></trkpt><trkpt lat="45.6404983" lon="10.9379233"><ele>939.6666666666667</ele><time>2026-04-25T11:02:57.878Z</time></trkpt><trkpt lat="45.6404483" lon="10.9381867"><ele>938.3333333333333</ele><time>2026-04-25T11:02:58.891Z</time></trkpt><trkpt lat="45.64042" lon="10.9384117"><ele>937.0</ele><time>2026-04-25T11:02:59.891Z</time></trkpt><trkpt lat="45.640405" lon="10.9386217"><ele>937.0</ele><time>2026-04-25T11:03:00.881Z</time></trkpt><trkpt lat="45.6403983" lon="10.9388583"><ele>937.0</ele><time>2026-04-25T11:03:01.883Z</time></trkpt><trkpt lat="45.64037" lon="10.939065"><ele>937.0</ele><time>2026-04-25T11:03:02.886Z</time></trkpt><trkpt lat="45.64032" lon="10.9392283"><ele>937.0</ele><time>2026-04-25T11:03:03.875Z</time></trkpt><trkpt lat="45.64022" lon="10.9393217"><ele>938.5</ele><time>2026-04-25T11:03:04.88Z</time></trkpt><trkpt lat="45.6400817" lon="10.9393717"><ele>940.0</ele><time>2026-04-25T11:03:05.892Z</time></trkpt><trkpt lat="45.639935" lon="10.939405"><ele>941.5</ele><time>2026-04-25T11:03:06.892Z</time></trkpt><trkpt lat="45.6397833" lon="10.9394383"><ele>943.0</ele><time>2026-04-25T11:03:08.885Z</time></trkpt><trkpt lat="45.6396217" lon="10.9394883"><ele>944.0</ele><time>2026-04-25T11:03:09.878Z</time></trkpt><trkpt lat="45.6394467" lon="10.93955"><ele>945.0</ele><time>2026-04-25T11:03:10.878Z</time></trkpt><trkpt lat="45.6392683" lon="10.939605"><ele>946.0</ele><time>2026-04-25T11:03:11.879Z</time></trkpt><trkpt lat="45.639075" lon="10.93966"><ele>946.0</ele><time>2026-04-25T11:03:12.274Z</time></trkpt><trkpt lat="45.6388583" lon="10.9396933"><ele>946.0</ele><time>2026-04-25T11:03:13.263Z</time></trkpt><trkpt lat="45.6386283" lon="10.9397317"><ele>946.0</ele><time>2026-04-25T11:03:14.221Z</time></trkpt><trkpt lat="45.6384117" lon="10.9397333"><ele>948.0</ele><time>2026-04-25T11:03:15.226Z</time></trkpt><trkpt lat="45.6382017" lon="10.9397433"><ele>950.0</ele><time>2026-04-25T11:03:16.227Z</time></trkpt><trkpt lat="45.6380033" lon="10.9397783"><ele>952.0</ele><time>2026-04-25T11:03:17.229Z</time></trkpt><trkpt lat="45.6378017" lon="10.93984"><ele>955.6666666666666</ele><time>2026-04-25T11:03:18.229Z</time></trkpt><trkpt lat="45.6376133" lon="10.9398917"><ele>959.3333333333333</ele><time>2026-04-25T11:03:19.222Z</time></trkpt><trkpt lat="45.6374583" lon="10.9399467"><ele>963.0</ele><time>2026-04-25T11:03:20.22Z</time></trkpt><trkpt lat="45.6373133" lon="10.94"><ele>961.25</ele><time>2026-04-25T11:03:21.224Z</time></trkpt><trkpt lat="45.6372233" lon="10.94012"><ele>959.5</ele><time>2026-04-25T11:03:22.228Z</time></trkpt><trkpt lat="45.637145" lon="10.9402367"><ele>957.75</ele><time>2026-04-25T11:03:23.219Z</time></trkpt><trkpt lat="45.6370967" lon="10.940425"><ele>956.0</ele><time>2026-04-25T11:03:24.224Z</time></trkpt><trkpt lat="45.6370967" lon="10.94062"><ele>956.0</ele><time>2026-04-25T11:03:25.228Z</time></trkpt><trkpt lat="45.63711" lon="10.9408133"><ele>956.0</ele><time>2026-04-25T11:03:26.217Z</time></trkpt><trkpt lat="45.637155" lon="10.9409917"><ele>956.0</ele><time>2026-04-25T11:03:27.223Z</time></trkpt><trkpt lat="45.63716" lon="10.9411933"><ele>956.0</ele><time>2026-04-25T11:03:28.224Z</time></trkpt><trkpt lat="45.6371583" lon="10.9413867"><ele>957.5</ele><time>2026-04-25T11:03:29.219Z</time></trkpt><trkpt lat="45.6371283" lon="10.9415617"><ele>959.0</ele><time>2026-04-25T11:03:30.222Z</time></trkpt><trkpt lat="45.637075" lon="10.9416883"><ele>960.5</ele><time>2026-04-25T11:03:31.251Z</time></trkpt><trkpt lat="45.6369933" lon="10.9418217"><ele>962.0</ele><time>2026-04-25T11:03:32.238Z</time></trkpt><trkpt lat="45.6368833" lon="10.9419967"><ele>965.0</ele><time>2026-04-25T11:03:33.226Z</time></trkpt><trkpt lat="45.6367917" lon="10.94214"><ele>968.0</ele><time>2026-04-25T11:03:34.221Z</time></trkpt><trkpt lat="45.63669" lon="10.9422833"><ele>971.0</ele><time>2026-04-25T11:03:35.226Z</time></trkpt><trkpt lat="45.6366283" lon="10.9423817"><ele>974.0</ele><time>2026-04-25T11:03:36.227Z</time></trkpt><trkpt lat="45.6365667" lon="10.9424867"><ele>973.8333333333334</ele><time>2026-04-25T11:03:37.218Z</time></trkpt><trkpt lat="45.6365183" lon="10.9425483"><ele>973.6666666666667</ele><time>2026-04-25T11:03:38.22Z</time></trkpt><trkpt lat="45.6365017" lon="10.9426567"><ele>973.5</ele><time>2026-04-25T11:03:40.223Z</time></trkpt><trkpt lat="45.63659" lon="10.9427183"><ele>973.3333333333333</ele><time>2026-04-25T11:03:42.218Z</time></trkpt><trkpt lat="45.6366517" lon="10.94275"><ele>973.1666666666666</ele><time>2026-04-25T11:03:43.222Z</time></trkpt><trkpt lat="45.636755" lon="10.9428017"><ele>973.0</ele><time>2026-04-25T11:03:44.219Z</time></trkpt><trkpt lat="45.636855" lon="10.9428683"><ele>973.5</ele><time>2026-04-25T11:03:45.214Z</time></trkpt><trkpt lat="45.6369833" lon="10.942955"><ele>974.0</ele><time>2026-04-25T11:03:46.222Z</time></trkpt><trkpt lat="45.6371067" lon="10.943025"><ele>974.5</ele><time>2026-04-25T11:03:47.232Z</time></trkpt><trkpt lat="45.6372267" lon="10.9431017"><ele>975.0</ele><time>2026-04-25T11:03:48.22Z</time></trkpt><trkpt lat="45.6373567" lon="10.94319"><ele>975.0</ele><time>2026-04-25T11:03:49.216Z</time></trkpt><trkpt lat="45.6374967" lon="10.943275"><ele>975.0</ele><time>2026-04-25T11:03:50.219Z</time></trkpt><trkpt lat="45.6376067" lon="10.9433417"><ele>975.0</ele><time>2026-04-25T11:03:51.221Z</time></trkpt><trkpt lat="45.6377017" lon="10.94343"><ele>975.0</ele><time>2026-04-25T11:03:52.221Z</time></trkpt><trkpt lat="45.6377967" lon="10.9435117"><ele>973.25</ele><time>2026-04-25T11:03:53.218Z</time></trkpt><trkpt lat="45.6379283" lon="10.9436"><ele>971.5</ele><time>2026-04-25T11:03:54.219Z</time></trkpt><trkpt lat="45.6380517" lon="10.9436517"><ele>969.75</ele><time>2026-04-25T11:03:55.215Z</time></trkpt><trkpt lat="45.638185" lon="10.9436967"><ele>968.0</ele><time>2026-04-25T11:03:56.216Z</time></trkpt><trkpt lat="45.6383167" lon="10.943735"><ele>968.0</ele><time>2026-04-25T11:03:57.218Z</time></trkpt><trkpt lat="45.6384367" lon="10.94378"><ele>968.0</ele><time>2026-04-25T11:03:58.219Z</time></trkpt><trkpt lat="45.6385517" lon="10.943825"><ele>968.0</ele><time>2026-04-25T11:03:59.215Z</time></trkpt><trkpt lat="45.6386567" lon="10.9438733"><ele>968.0</ele><time>2026-04-25T11:04:00.215Z</time></trkpt><trkpt lat="45.6387183" lon="10.9439267"><ele>968.0</ele><time>2026-04-25T11:04:01.22Z</time></trkpt><trkpt lat="45.6387883" lon="10.9439867"><ele>967.8</ele><time>2026-04-25T11:04:02.214Z</time></trkpt><trkpt lat="45.6388283" lon="10.9438783"><ele>967.5999999999999</ele><time>2026-04-25T11:04:06.218Z</time></trkpt><trkpt lat="45.6389217" lon="10.943795"><ele>967.4000000000001</ele><time>2026-04-25T11:04:08.217Z</time></trkpt><trkpt lat="45.6389967" lon="10.9437467"><ele>967.2</ele><time>2026-04-25T11:04:10.218Z</time></trkpt><trkpt lat="45.63906" lon="10.94367"><ele>967.0</ele><time>2026-04-25T11:04:12.218Z</time></trkpt><trkpt lat="45.6391467" lon="10.9435933"><ele>966.9999999999999</ele><time>2026-04-25T11:04:14.217Z</time></trkpt><trkpt lat="45.6392217" lon="10.94362"><ele>967.0</ele><time>2026-04-25T11:04:16.217Z</time></trkpt><trkpt lat="45.63927" lon="10.943735"><ele>967.0</ele><time>2026-04-25T11:04:18.219Z</time></trkpt><trkpt lat="45.639295" lon="10.94387"><ele>967.0</ele><time>2026-04-25T11:04:20.219Z</time></trkpt><trkpt lat="45.6393333" lon="10.943995"><ele>966.9999999999999</ele><time>2026-04-25T11:04:22.222Z</time></trkpt><trkpt lat="45.6393617" lon="10.9441017"><ele>967.0</ele><time>2026-04-25T11:04:24.215Z</time></trkpt><trkpt lat="45.6394083" lon="10.9441817"><ele>967.0</ele><time>2026-04-25T11:04:30.219Z</time></trkpt><trkpt lat="45.6394617" lon="10.9441167"><ele>967.0</ele><time>2026-04-25T11:04:33.216Z</time></trkpt><trkpt lat="45.6393883" lon="10.94407"><ele>967.0</ele><time>2026-04-25T11:04:39.218Z</time></trkpt><trkpt lat="45.6393533" lon="10.9439683"><ele>967.0</ele><time>2026-04-25T11:04:41.216Z</time></trkpt><trkpt lat="45.6392917" lon="10.943825"><ele>967.0</ele><time>2026-04-25T11:04:43.214Z</time></trkpt><trkpt lat="45.6392433" lon="10.9436717"><ele>967.0</ele><time>2026-04-25T11:04:45.223Z</time></trkpt><trkpt lat="45.6391917" lon="10.943575"><ele>967.0</ele><time>2026-04-25T11:04:47.223Z</time></trkpt><trkpt lat="45.6391167" lon="10.9435583"><ele>967.0</ele><time>2026-04-25T11:04:49.22Z</time></trkpt><trkpt lat="45.6390283" lon="10.9436233"><ele>967.0</ele><time>2026-04-25T11:04:51.22Z</time></trkpt><trkpt lat="45.6389317" lon="10.943685"><ele>967.0</ele><time>2026-04-25T11:04:53.219Z</time></trkpt><trkpt lat="45.6388733" lon="10.9437783"><ele>966.9999999999999</ele><time>2026-04-25T11:04:55.219Z</time></trkpt><trkpt lat="45.6388367" lon="10.9438683"><ele>967.0</ele><time>2026-04-25T11:04:57.223Z</time></trkpt><trkpt lat="45.6387983" lon="10.9439733"><ele>967.0</ele><time>2026-04-25T11:04:59.216Z</time></trkpt><trkpt lat="45.6387967" lon="10.94407"><ele>967.0</ele><time>2026-04-25T11:05:02.217Z</time></trkpt><trkpt lat="45.6387917" lon="10.9439383"><ele>966.9999999999999</ele><time>2026-04-25T11:05:09.215Z</time></trkpt><trkpt lat="45.6387267" lon="10.94388"><ele>967.0</ele><time>2026-04-25T11:05:12.222Z</time></trkpt><trkpt lat="45.63866" lon="10.94383"><ele>967.2</ele><time>2026-04-25T11:05:13.219Z</time></trkpt><trkpt lat="45.6385983" lon="10.9437983"><ele>967.4000000000001</ele><time>2026-04-25T11:05:14.23Z</time></trkpt><trkpt lat="45.638505" lon="10.9437617"><ele>967.5999999999999</ele><time>2026-04-25T11:05:15.215Z</time></trkpt><trkpt lat="45.6384017" lon="10.9437217"><ele>967.8</ele><time>2026-04-25T11:05:16.212Z</time></trkpt><trkpt lat="45.6382833" lon="10.9436617"><ele>968.0</ele><time>2026-04-25T11:05:17.223Z</time></trkpt><trkpt lat="45.6381533" lon="10.9436583"><ele>968.0</ele><time>2026-04-25T11:05:18.219Z</time></trkpt><trkpt lat="45.6379983" lon="10.94361"><ele>968.0</ele><time>2026-04-25T11:05:19.217Z</time></trkpt><trkpt lat="45.637855" lon="10.9435533"><ele>968.0</ele><time>2026-04-25T11:05:20.221Z</time></trkpt><trkpt lat="45.6377433" lon="10.9434833"><ele>968.0</ele><time>2026-04-25T11:05:21.213Z</time></trkpt><trkpt lat="45.6376317" lon="10.943395"><ele>969.75</ele><time>2026-04-25T11:05:22.221Z</time></trkpt><trkpt lat="45.637525" lon="10.9433033"><ele>971.5</ele><time>2026-04-25T11:05:23.217Z</time></trkpt><trkpt lat="45.6374117" lon="10.9432117"><ele>973.25</ele><time>2026-04-25T11:05:24.221Z</time></trkpt><trkpt lat="45.6372967" lon="10.9431233"><ele>975.0</ele><time>2026-04-25T11:05:25.211Z</time></trkpt><trkpt lat="45.6371783" lon="10.9430417"><ele>975.0</ele><time>2026-04-25T11:05:26.219Z</time></trkpt><trkpt lat="45.6370633" lon="10.942955"><ele>975.0</ele><time>2026-04-25T11:05:27.219Z</time></trkpt><trkpt lat="45.6369583" lon="10.9428767"><ele>975.0</ele><time>2026-04-25T11:05:28.213Z</time></trkpt><trkpt lat="45.6368683" lon="10.9428083"><ele>975.0</ele><time>2026-04-25T11:05:29.212Z</time></trkpt><trkpt lat="45.6367833" lon="10.9427483"><ele>975.0</ele><time>2026-04-25T11:05:30.218Z</time></trkpt><trkpt lat="45.63671" lon="10.9426917"><ele>974.6666666666666</ele><time>2026-04-25T11:05:31.213Z</time></trkpt><trkpt lat="45.6366433" lon="10.9426433"><ele>974.3333333333333</ele><time>2026-04-25T11:05:32.215Z</time></trkpt><trkpt lat="45.636575" lon="10.9426017"><ele>974.0</ele><time>2026-04-25T11:05:33.222Z</time></trkpt><trkpt lat="45.6364967" lon="10.9425817"><ele>973.6666666666666</ele><time>2026-04-25T11:05:34.217Z</time></trkpt><trkpt lat="45.6364133" lon="10.942575"><ele>973.3333333333333</ele><time>2026-04-25T11:05:35.212Z</time></trkpt><trkpt lat="45.6362883" lon="10.9425983"><ele>973.0</ele><time>2026-04-25T11:05:36.216Z</time></trkpt><trkpt lat="45.6361583" lon="10.9426067"><ele>967.0</ele><time>2026-04-25T11:05:37.221Z</time></trkpt><trkpt lat="45.6360183" lon="10.94268"><ele>961.0</ele><time>2026-04-25T11:05:38.214Z</time></trkpt><trkpt lat="45.6356983" lon="10.94278"><ele>961.0</ele><time>2026-04-25T11:05:40.224Z</time></trkpt><trkpt lat="45.6355217" lon="10.9428233"><ele>961.0</ele><time>2026-04-25T11:05:41.24Z</time></trkpt><trkpt lat="45.6353317" lon="10.9428683"><ele>961.0</ele><time>2026-04-25T11:05:42.269Z</time></trkpt><trkpt lat="45.6351383" lon="10.9429033"><ele>961.6666666666666</ele><time>2026-04-25T11:05:43.223Z</time></trkpt><trkpt lat="45.63495" lon="10.9429267"><ele>962.3333333333333</ele><time>2026-04-25T11:05:44.243Z</time></trkpt><trkpt lat="45.6347733" lon="10.9429517"><ele>963.0</ele><time>2026-04-25T11:05:45.221Z</time></trkpt><trkpt lat="45.63461" lon="10.942975"><ele>963.0</ele><time>2026-04-25T11:05:46.225Z</time></trkpt><trkpt lat="45.6344583" lon="10.9429917"><ele>963.0</ele><time>2026-04-25T11:05:47.242Z</time></trkpt><trkpt lat="45.6343167" lon="10.9429917"><ele>963.0</ele><time>2026-04-25T11:05:48.233Z</time></trkpt><trkpt lat="45.6341867" lon="10.94297"><ele>963.0</ele><time>2026-04-25T11:05:49.214Z</time></trkpt><trkpt lat="45.63407" lon="10.9428667"><ele>963.0</ele><time>2026-04-25T11:05:50.225Z</time></trkpt><trkpt lat="45.6339617" lon="10.9427267"><ele>963.0</ele><time>2026-04-25T11:05:51.214Z</time></trkpt><trkpt lat="45.6338433" lon="10.9425933"><ele>963.0</ele><time>2026-04-25T11:05:52.214Z</time></trkpt><trkpt lat="45.6337067" lon="10.9424767"><ele>972.3333333333333</ele><time>2026-04-25T11:05:53.243Z</time></trkpt><trkpt lat="45.6335617" lon="10.9423817"><ele>981.6666666666666</ele><time>2026-04-25T11:05:54.218Z</time></trkpt><trkpt lat="45.6334167" lon="10.9423183"><ele>991.0</ele><time>2026-04-25T11:05:55.215Z</time></trkpt><trkpt lat="45.6332717" lon="10.9423067"><ele>991.0</ele><time>2026-04-25T11:05:56.22Z</time></trkpt><trkpt lat="45.633115" lon="10.9423417"><ele>991.0</ele><time>2026-04-25T11:05:57.215Z</time></trkpt><trkpt lat="45.632935" lon="10.9424333"><ele>991.0</ele><time>2026-04-25T11:05:58.218Z</time></trkpt><trkpt lat="45.6327433" lon="10.9425567"><ele>986.0</ele><time>2026-04-25T11:05:59.221Z</time></trkpt><trkpt lat="45.632575" lon="10.9426667"><ele>981.0</ele><time>2026-04-25T11:06:00.215Z</time></trkpt><trkpt lat="45.632405" lon="10.9428083"><ele>976.0</ele><time>2026-04-25T11:06:01.218Z</time></trkpt><trkpt lat="45.6322433" lon="10.942965"><ele>976.0</ele><time>2026-04-25T11:06:02.218Z</time></trkpt><trkpt lat="45.6321267" lon="10.94316"><ele>976.0</ele><time>2026-04-25T11:06:03.214Z</time></trkpt><trkpt lat="45.6320267" lon="10.9433267"><ele>976.0</ele><time>2026-04-25T11:06:04.22Z</time></trkpt><trkpt lat="45.6319633" lon="10.9434933"><ele>981.3333333333333</ele><time>2026-04-25T11:06:05.217Z</time></trkpt><trkpt lat="45.6319417" lon="10.943725"><ele>986.6666666666667</ele><time>2026-04-25T11:06:06.22Z</time></trkpt><trkpt lat="45.631935" lon="10.9439617"><ele>992.0</ele><time>2026-04-25T11:06:07.22Z</time></trkpt><trkpt lat="45.63195" lon="10.9441983"><ele>988.0</ele><time>2026-04-25T11:06:08.216Z</time></trkpt><trkpt lat="45.6320167" lon="10.9444233"><ele>984.0</ele><time>2026-04-25T11:06:09.216Z</time></trkpt><trkpt lat="45.63214" lon="10.94462"><ele>980.0</ele><time>2026-04-25T11:06:10.215Z</time></trkpt><trkpt lat="45.6322533" lon="10.9447767"><ele>980.0</ele><time>2026-04-25T11:06:11.226Z</time></trkpt><trkpt lat="45.6323583" lon="10.9448983"><ele>980.0</ele><time>2026-04-25T11:06:12.22Z</time></trkpt><trkpt lat="45.6324317" lon="10.945045"><ele>980.0</ele><time>2026-04-25T11:06:13.216Z</time></trkpt><trkpt lat="45.6324517" lon="10.9452083"><ele>980.0</ele><time>2026-04-25T11:06:14.217Z</time></trkpt><trkpt lat="45.6324333" lon="10.9453917"><ele>979.75</ele><time>2026-04-25T11:06:15.221Z</time></trkpt><trkpt lat="45.6323617" lon="10.9455233"><ele>979.5</ele><time>2026-04-25T11:06:16.227Z</time></trkpt><trkpt lat="45.6322583" lon="10.9456567"><ele>979.25</ele><time>2026-04-25T11:06:17.219Z</time></trkpt><trkpt lat="45.6321317" lon="10.94581"><ele>979.0</ele><time>2026-04-25T11:06:18.22Z</time></trkpt><trkpt lat="45.6320033" lon="10.9459683"><ele>978.0</ele><time>2026-04-25T11:06:19.215Z</time></trkpt><trkpt lat="45.631865" lon="10.94609"><ele>977.0</ele><time>2026-04-25T11:06:20.219Z</time></trkpt><trkpt lat="45.6317183" lon="10.94619"><ele>976.0</ele><time>2026-04-25T11:06:21.219Z</time></trkpt><trkpt lat="45.631555" lon="10.94627"><ele>976.0</ele><time>2026-04-25T11:06:22.219Z</time></trkpt><trkpt lat="45.631405" lon="10.946395"><ele>976.0</ele><time>2026-04-25T11:06:23.214Z</time></trkpt><trkpt lat="45.6312567" lon="10.9465283"><ele>976.0</ele><time>2026-04-25T11:06:24.219Z</time></trkpt><trkpt lat="45.6311117" lon="10.946675"><ele>974.6666666666666</ele><time>2026-04-25T11:06:25.215Z</time></trkpt><trkpt lat="45.6309617" lon="10.9468367"><ele>973.3333333333333</ele><time>2026-04-25T11:06:26.228Z</time></trkpt><trkpt lat="45.63082" lon="10.947015"><ele>972.0</ele><time>2026-04-25T11:06:27.211Z</time></trkpt><trkpt lat="45.6306783" lon="10.9471717"><ele>972.0</ele><time>2026-04-25T11:06:28.228Z</time></trkpt><trkpt lat="45.630565" lon="10.9473333"><ele>972.0</ele><time>2026-04-25T11:06:29.227Z</time></trkpt><trkpt lat="45.6304567" lon="10.94748"><ele>972.0</ele><time>2026-04-25T11:06:30.227Z</time></trkpt><trkpt lat="45.63035" lon="10.94763"><ele>972.0</ele><time>2026-04-25T11:06:31.231Z</time></trkpt><trkpt lat="45.6302183" lon="10.9477733"><ele>972.0</ele><time>2026-04-25T11:06:32.213Z</time></trkpt><trkpt lat="45.6301117" lon="10.9479467"><ele>972.0</ele><time>2026-04-25T11:06:33.218Z</time></trkpt><trkpt lat="45.629995" lon="10.9481283"><ele>972.0</ele><time>2026-04-25T11:06:34.221Z</time></trkpt><trkpt lat="45.6298917" lon="10.9483033"><ele>972.0</ele><time>2026-04-25T11:06:35.221Z</time></trkpt><trkpt lat="45.6298" lon="10.9485067"><ele>972.0</ele><time>2026-04-25T11:06:36.217Z</time></trkpt><trkpt lat="45.6296983" lon="10.9486917"><ele>970.0</ele><time>2026-04-25T11:06:37.222Z</time></trkpt><trkpt lat="45.6296367" lon="10.9488883"><ele>968.0</ele><time>2026-04-25T11:06:38.219Z</time></trkpt><trkpt lat="45.6295917" lon="10.9490817"><ele>966.0</ele><time>2026-04-25T11:06:39.215Z</time></trkpt><trkpt lat="45.6295933" lon="10.949265"><ele>964.0</ele><time>2026-04-25T11:06:40.218Z</time></trkpt><trkpt lat="45.6296" lon="10.9494867"><ele>962.25</ele><time>2026-04-25T11:06:41.222Z</time></trkpt><trkpt lat="45.629645" lon="10.949695"><ele>960.5</ele><time>2026-04-25T11:06:42.215Z</time></trkpt><trkpt lat="45.6296817" lon="10.9498783"><ele>958.75</ele><time>2026-04-25T11:06:43.221Z</time></trkpt><trkpt lat="45.629735" lon="10.9500383"><ele>957.0</ele><time>2026-04-25T11:06:44.226Z</time></trkpt><trkpt lat="45.62975" lon="10.9501733"><ele>956.2</ele><time>2026-04-25T11:06:45.218Z</time></trkpt><trkpt lat="45.6297133" lon="10.9502933"><ele>955.4000000000001</ele><time>2026-04-25T11:06:46.215Z</time></trkpt><trkpt lat="45.6296467" lon="10.9503817"><ele>954.5999999999999</ele><time>2026-04-25T11:06:47.23Z</time></trkpt><trkpt lat="45.6295567" lon="10.9504583"><ele>953.8</ele><time>2026-04-25T11:06:48.214Z</time></trkpt><trkpt lat="45.62942" lon="10.9505383"><ele>953.0</ele><time>2026-04-25T11:06:49.216Z</time></trkpt><trkpt lat="45.6293117" lon="10.9506483"><ele>953.0</ele><time>2026-04-25T11:06:50.223Z</time></trkpt><trkpt lat="45.6291917" lon="10.9507433"><ele>953.0</ele><time>2026-04-25T11:06:51.217Z</time></trkpt><trkpt lat="45.6290733" lon="10.9508567"><ele>953.0</ele><time>2026-04-25T11:06:52.218Z</time></trkpt><trkpt lat="45.6289717" lon="10.9509267"><ele>953.0</ele><time>2026-04-25T11:06:53.216Z</time></trkpt><trkpt lat="45.6288567" lon="10.950985"><ele>950.25</ele><time>2026-04-25T11:06:54.235Z</time></trkpt><trkpt lat="45.6287467" lon="10.9510267"><ele>947.5</ele><time>2026-04-25T11:06:55.217Z</time></trkpt><trkpt lat="45.628625" lon="10.9510683"><ele>944.75</ele><time>2026-04-25T11:06:56.217Z</time></trkpt><trkpt lat="45.6284917" lon="10.9510967"><ele>942.0</ele><time>2026-04-25T11:06:57.216Z</time></trkpt><trkpt lat="45.6283417" lon="10.95114"><ele>942.0</ele><time>2026-04-25T11:06:58.215Z</time></trkpt><trkpt lat="45.6281833" lon="10.9511983"><ele>942.0</ele><time>2026-04-25T11:06:59.217Z</time></trkpt><trkpt lat="45.6280517" lon="10.9512283"><ele>942.0</ele><time>2026-04-25T11:07:00.241Z</time></trkpt><trkpt lat="45.62796" lon="10.95121"><ele>942.0</ele><time>2026-04-25T11:07:01.22Z</time></trkpt><trkpt lat="45.627895" lon="10.9512283"><ele>942.0</ele><time>2026-04-25T11:07:02.222Z</time></trkpt><trkpt lat="45.627815" lon="10.951215"><ele>942.0</ele><time>2026-04-25T11:07:04.216Z</time></trkpt><trkpt lat="45.6277467" lon="10.9512233"><ele>942.0</ele><time>2026-04-25T11:07:07.212Z</time></trkpt><trkpt lat="45.6276783" lon="10.9512433"><ele>942.0</ele><time>2026-04-25T11:08:28.217Z</time></trkpt><trkpt lat="45.627605" lon="10.9512783"><ele>942.0</ele><time>2026-04-25T11:08:30.217Z</time></trkpt><trkpt lat="45.62755" lon="10.951355"><ele>942.0</ele><time>2026-04-25T11:08:32.219Z</time></trkpt><trkpt lat="45.6275117" lon="10.9514583"><ele>942.0</ele><time>2026-04-25T11:08:34.216Z</time></trkpt><trkpt lat="45.6274867" lon="10.9515583"><ele>942.0</ele><time>2026-04-25T11:08:36.226Z</time></trkpt><trkpt lat="45.6274667" lon="10.9516667"><ele>942.0</ele><time>2026-04-25T11:08:38.216Z</time></trkpt><trkpt lat="45.62748" lon="10.9517567"><ele>942.0</ele><time>2026-04-25T11:08:40.219Z</time></trkpt><trkpt lat="45.62752" lon="10.9518467"><ele>942.0</ele><time>2026-04-25T11:08:42.219Z</time></trkpt><trkpt lat="45.627625" lon="10.9518917"><ele>942.0</ele><time>2026-04-25T11:08:46.214Z</time></trkpt><trkpt lat="45.62769" lon="10.9518817"><ele>940.4000000000001</ele><time>2026-04-25T11:08:48.223Z</time></trkpt><trkpt lat="45.6278117" lon="10.95185"><ele>938.8000000000001</ele><time>2026-04-25T11:08:52.214Z</time></trkpt><trkpt lat="45.6279133" lon="10.9519283"><ele>937.2</ele><time>2026-04-25T11:09:07.215Z</time></trkpt><trkpt lat="45.6280067" lon="10.9519583"><ele>935.6</ele><time>2026-04-25T11:09:09.217Z</time></trkpt><trkpt lat="45.62807" lon="10.9519767"><ele>934.0</ele><time>2026-04-25T11:09:10.214Z</time></trkpt><trkpt lat="45.6281933" lon="10.952025"><ele>934.0</ele><time>2026-04-25T11:09:12.218Z</time></trkpt><trkpt lat="45.6283183" lon="10.952065"><ele>934.0000000000001</ele><time>2026-04-25T11:09:14.219Z</time></trkpt><trkpt lat="45.6283983" lon="10.9520733"><ele>934.0000000000001</ele><time>2026-04-25T11:09:15.217Z</time></trkpt><trkpt lat="45.6284867" lon="10.9520717"><ele>934.0</ele><time>2026-04-25T11:09:16.213Z</time></trkpt><trkpt lat="45.62858" lon="10.9520617"><ele>934.0</ele><time>2026-04-25T11:09:17.221Z</time></trkpt><trkpt lat="45.6286783" lon="10.9520283"><ele>932.0</ele><time>2026-04-25T11:09:18.218Z</time></trkpt><trkpt lat="45.6287783" lon="10.95198"><ele>930.0</ele><time>2026-04-25T11:09:19.222Z</time></trkpt><trkpt lat="45.6289783" lon="10.9517867"><ele>928.0</ele><time>2026-04-25T11:09:21.221Z</time></trkpt><trkpt lat="45.6290917" lon="10.9516867"><ele>928.0</ele><time>2026-04-25T11:09:22.222Z</time></trkpt><trkpt lat="45.6291967" lon="10.9515833"><ele>928.0</ele><time>2026-04-25T11:09:23.223Z</time></trkpt><trkpt lat="45.6293117" lon="10.9514833"><ele>928.0</ele><time>2026-04-25T11:09:24.217Z</time></trkpt><trkpt lat="45.6294467" lon="10.951385"><ele>928.0</ele><time>2026-04-25T11:09:25.231Z</time></trkpt><trkpt lat="45.6295833" lon="10.9513067"><ele>922.6666666666666</ele><time>2026-04-25T11:09:26.212Z</time></trkpt><trkpt lat="45.6298817" lon="10.9511967"><ele>917.3333333333333</ele><time>2026-04-25T11:09:28.214Z</time></trkpt><trkpt lat="45.63002" lon="10.9511983"><ele>912.0</ele><time>2026-04-25T11:09:29.213Z</time></trkpt><trkpt lat="45.6301383" lon="10.9511733"><ele>906.0</ele><time>2026-04-25T11:09:30.228Z</time></trkpt><trkpt lat="45.6303833" lon="10.9510867"><ele>900.0</ele><time>2026-04-25T11:09:32.215Z</time></trkpt><trkpt lat="45.6305717" lon="10.950955"><ele>904.0</ele><time>2026-04-25T11:09:34.221Z</time></trkpt><trkpt lat="45.63069" lon="10.9507067"><ele>908.0</ele><time>2026-04-25T11:09:36.223Z</time></trkpt><trkpt lat="45.6306533" lon="10.9503717"><ele>912.0</ele><time>2026-04-25T11:09:38.224Z</time></trkpt><trkpt lat="45.6306117" lon="10.9500333"><ele>914.6666666666667</ele><time>2026-04-25T11:09:40.216Z</time></trkpt><trkpt lat="45.6306033" lon="10.94988"><ele>917.3333333333334</ele><time>2026-04-25T11:09:41.221Z</time></trkpt><trkpt lat="45.6306417" lon="10.9497217"><ele>920.0</ele><time>2026-04-25T11:09:42.217Z</time></trkpt><trkpt lat="45.6307583" lon="10.94943"><ele>920.0</ele><time>2026-04-25T11:09:44.226Z</time></trkpt><trkpt lat="45.631035" lon="10.9492483"><ele>920.0</ele><time>2026-04-25T11:09:46.224Z</time></trkpt><trkpt lat="45.63134" lon="10.9490717"><ele>917.6666666666667</ele><time>2026-04-25T11:09:48.221Z</time></trkpt><trkpt lat="45.6314983" lon="10.9489683"><ele>915.3333333333333</ele><time>2026-04-25T11:09:49.221Z</time></trkpt><trkpt lat="45.6316483" lon="10.9488633"><ele>913.0</ele><time>2026-04-25T11:09:50.22Z</time></trkpt><trkpt lat="45.6317967" lon="10.9487583"><ele>911.5</ele><time>2026-04-25T11:09:51.213Z</time></trkpt><trkpt lat="45.6321167" lon="10.948535"><ele>910.0</ele><time>2026-04-25T11:09:53.232Z</time></trkpt><trkpt lat="45.6326133" lon="10.94818"><ele>910.0</ele><time>2026-04-25T11:09:56.217Z</time></trkpt><trkpt lat="45.6327717" lon="10.948065"><ele>910.0</ele><time>2026-04-25T11:09:57.218Z</time></trkpt><trkpt lat="45.632905" lon="10.9479467"><ele>910.0</ele><time>2026-04-25T11:09:58.223Z</time></trkpt><trkpt lat="45.633045" lon="10.9478133"><ele>912.0</ele><time>2026-04-25T11:09:59.229Z</time></trkpt><trkpt lat="45.633185" lon="10.94767"><ele>914.0</ele><time>2026-04-25T11:10:00.217Z</time></trkpt><trkpt lat="45.6334617" lon="10.9473583"><ele>914.0</ele><time>2026-04-25T11:10:02.224Z</time></trkpt><trkpt lat="45.6335883" lon="10.9472133"><ele>914.0</ele><time>2026-04-25T11:10:03.225Z</time></trkpt><trkpt lat="45.6337033" lon="10.9470733"><ele>914.0</ele><time>2026-04-25T11:10:04.219Z</time></trkpt><trkpt lat="45.6339167" lon="10.9467867"><ele>912.0</ele><time>2026-04-25T11:10:06.212Z</time></trkpt><trkpt lat="45.63402" lon="10.9466267"><ele>910.0</ele><time>2026-04-25T11:10:07.219Z</time></trkpt><trkpt lat="45.6341183" lon="10.9464517"><ele>908.0</ele><time>2026-04-25T11:10:08.218Z</time></trkpt><trkpt lat="45.6342633" lon="10.9461"><ele>908.25</ele><time>2026-04-25T11:10:10.223Z</time></trkpt><trkpt lat="45.6343117" lon="10.9458683"><ele>908.5</ele><time>2026-04-25T11:10:12.229Z</time></trkpt><trkpt lat="45.6343967" lon="10.9458067"><ele>908.75</ele><time>2026-04-25T11:10:40.222Z</time></trkpt><trkpt lat="45.6345167" lon="10.9458517"><ele>909.0</ele><time>2026-04-25T11:10:42.218Z</time></trkpt><trkpt lat="45.6345783" lon="10.9459233"><ele>909.0</ele><time>2026-04-25T11:10:43.217Z</time></trkpt><trkpt lat="45.6346467" lon="10.9460283"><ele>909.0</ele><time>2026-04-25T11:10:44.218Z</time></trkpt><trkpt lat="45.6347033" lon="10.9461633"><ele>909.0</ele><time>2026-04-25T11:10:45.215Z</time></trkpt><trkpt lat="45.63476" lon="10.9463167"><ele>909.0</ele><time>2026-04-25T11:10:46.222Z</time></trkpt><trkpt lat="45.6348083" lon="10.9464767"><ele>909.0</ele><time>2026-04-25T11:10:47.219Z</time></trkpt><trkpt lat="45.63481" lon="10.9467067"><ele>909.0</ele><time>2026-04-25T11:10:48.217Z</time></trkpt><trkpt lat="45.6348267" lon="10.9469133"><ele>909.0</ele><time>2026-04-25T11:10:49.213Z</time></trkpt><trkpt lat="45.6348533" lon="10.9470867"><ele>909.0</ele><time>2026-04-25T11:10:50.22Z</time></trkpt><trkpt lat="45.6348467" lon="10.947245"><ele>907.6666666666666</ele><time>2026-04-25T11:10:51.226Z</time></trkpt><trkpt lat="45.6348783" lon="10.947395"><ele>906.3333333333333</ele><time>2026-04-25T11:10:52.215Z</time></trkpt><trkpt lat="45.63491" lon="10.9475233"><ele>905.0</ele><time>2026-04-25T11:10:53.217Z</time></trkpt><trkpt lat="45.6349483" lon="10.9476083"><ele>903.6666666666666</ele><time>2026-04-25T11:10:54.218Z</time></trkpt><trkpt lat="45.6350333" lon="10.9476783"><ele>902.3333333333333</ele><time>2026-04-25T11:10:56.214Z</time></trkpt><trkpt lat="45.6351067" lon="10.9476583"><ele>901.0</ele><time>2026-04-25T11:10:58.217Z</time></trkpt><trkpt lat="45.6352" lon="10.9476117"><ele>901.4</ele><time>2026-04-25T11:11:00.216Z</time></trkpt><trkpt lat="45.6352733" lon="10.94757"><ele>901.8</ele><time>2026-04-25T11:11:01.215Z</time></trkpt><trkpt lat="45.6353583" lon="10.9475217"><ele>902.1999999999999</ele><time>2026-04-25T11:11:02.215Z</time></trkpt><trkpt lat="45.6354533" lon="10.9474483"><ele>902.5999999999999</ele><time>2026-04-25T11:11:03.22Z</time></trkpt><trkpt lat="45.6355733" lon="10.9474"><ele>903.0</ele><time>2026-04-25T11:11:04.215Z</time></trkpt><trkpt lat="45.6357183" lon="10.947405"><ele>903.0</ele><time>2026-04-25T11:11:05.212Z</time></trkpt><trkpt lat="45.6358617" lon="10.9474083"><ele>903.0</ele><time>2026-04-25T11:11:06.233Z</time></trkpt><trkpt lat="45.6360017" lon="10.9474483"><ele>903.0</ele><time>2026-04-25T11:11:07.217Z</time></trkpt><trkpt lat="45.636165" lon="10.947495"><ele>902.0</ele><time>2026-04-25T11:11:08.215Z</time></trkpt><trkpt lat="45.6363317" lon="10.9475233"><ele>901.0</ele><time>2026-04-25T11:11:09.227Z</time></trkpt><trkpt lat="45.636505" lon="10.9475683"><ele>900.0</ele><time>2026-04-25T11:11:10.221Z</time></trkpt><trkpt lat="45.636685" lon="10.9476233"><ele>897.0</ele><time>2026-04-25T11:11:11.216Z</time></trkpt><trkpt lat="45.6368517" lon="10.9476833"><ele>894.0</ele><time>2026-04-25T11:11:12.222Z</time></trkpt><trkpt lat="45.6370317" lon="10.9477667"><ele>891.0</ele><time>2026-04-25T11:11:13.229Z</time></trkpt><trkpt lat="45.6371783" lon="10.9478833"><ele>888.6666666666667</ele><time>2026-04-25T11:11:14.218Z</time></trkpt><trkpt lat="45.63733" lon="10.9480033"><ele>886.3333333333334</ele><time>2026-04-25T11:11:15.227Z</time></trkpt><trkpt lat="45.637485" lon="10.9481167"><ele>884.0</ele><time>2026-04-25T11:11:16.219Z</time></trkpt><trkpt lat="45.63763" lon="10.94821"><ele>884.0</ele><time>2026-04-25T11:11:17.217Z</time></trkpt><trkpt lat="45.637765" lon="10.9482967"><ele>884.0</ele><time>2026-04-25T11:11:18.219Z</time></trkpt><trkpt lat="45.6378833" lon="10.9483933"><ele>884.0</ele><time>2026-04-25T11:11:19.22Z</time></trkpt><trkpt lat="45.6379733" lon="10.94844"><ele>884.0</ele><time>2026-04-25T11:11:20.21Z</time></trkpt><trkpt lat="45.6380633" lon="10.9484417"><ele>884.75</ele><time>2026-04-25T11:11:21.225Z</time></trkpt><trkpt lat="45.638165" lon="10.94841"><ele>885.5</ele><time>2026-04-25T11:11:22.219Z</time></trkpt><trkpt lat="45.6382633" lon="10.9483117"><ele>886.25</ele><time>2026-04-25T11:11:23.221Z</time></trkpt><trkpt lat="45.6383767" lon="10.9481933"><ele>887.0</ele><time>2026-04-25T11:11:24.215Z</time></trkpt><trkpt lat="45.6384783" lon="10.948085"><ele>887.0</ele><time>2026-04-25T11:11:25.224Z</time></trkpt><trkpt lat="45.638565" lon="10.9479717"><ele>887.0</ele><time>2026-04-25T11:11:26.221Z</time></trkpt><trkpt lat="45.6386517" lon="10.94789"><ele>887.0</ele><time>2026-04-25T11:11:27.215Z</time></trkpt><trkpt lat="45.6387333" lon="10.94787"><ele>887.0</ele><time>2026-04-25T11:11:28.217Z</time></trkpt><trkpt lat="45.638815" lon="10.9478967"><ele>887.0</ele><time>2026-04-25T11:11:29.219Z</time></trkpt><trkpt lat="45.638895" lon="10.94796"><ele>886.0</ele><time>2026-04-25T11:11:30.214Z</time></trkpt><trkpt lat="45.6389317" lon="10.94808"><ele>885.0</ele><time>2026-04-25T11:11:31.221Z</time></trkpt><trkpt lat="45.6389517" lon="10.948205"><ele>884.0</ele><time>2026-04-25T11:11:32.211Z</time></trkpt><trkpt lat="45.63895" lon="10.94835"><ele>883.0</ele><time>2026-04-25T11:11:33.219Z</time></trkpt><trkpt lat="45.6389317" lon="10.9485017"><ele>882.0</ele><time>2026-04-25T11:11:34.213Z</time></trkpt><trkpt lat="45.6388867" lon="10.9486767"><ele>882.0</ele><time>2026-04-25T11:11:35.22Z</time></trkpt><trkpt lat="45.63885" lon="10.9488867"><ele>882.0</ele><time>2026-04-25T11:11:36.215Z</time></trkpt><trkpt lat="45.63885" lon="10.9491017"><ele>882.0</ele><time>2026-04-25T11:11:37.213Z</time></trkpt><trkpt lat="45.6388667" lon="10.9493267"><ele>878.5</ele><time>2026-04-25T11:11:38.219Z</time></trkpt><trkpt lat="45.6388883" lon="10.9495267"><ele>875.0</ele><time>2026-04-25T11:11:39.222Z</time></trkpt><trkpt lat="45.6389333" lon="10.94969"><ele>871.5</ele><time>2026-04-25T11:11:40.214Z</time></trkpt><trkpt lat="45.6389683" lon="10.949815"><ele>868.0</ele><time>2026-04-25T11:11:41.229Z</time></trkpt><trkpt lat="45.6390433" lon="10.94991"><ele>868.0</ele><time>2026-04-25T11:11:42.221Z</time></trkpt><trkpt lat="45.63913" lon="10.9499567"><ele>868.0</ele><time>2026-04-25T11:11:43.217Z</time></trkpt><trkpt lat="45.63926" lon="10.949975"><ele>868.0</ele><time>2026-04-25T11:11:44.226Z</time></trkpt><trkpt lat="45.6393933" lon="10.949945"><ele>868.0</ele><time>2026-04-25T11:11:45.224Z</time></trkpt><trkpt lat="45.6395217" lon="10.949915"><ele>865.6666666666666</ele><time>2026-04-25T11:11:46.219Z</time></trkpt><trkpt lat="45.6396683" lon="10.949825"><ele>863.3333333333333</ele><time>2026-04-25T11:11:47.218Z</time></trkpt><trkpt lat="45.6398167" lon="10.9497283"><ele>861.0</ele><time>2026-04-25T11:11:48.219Z</time></trkpt><trkpt lat="45.6399667" lon="10.9496033"><ele>861.0</ele><time>2026-04-25T11:11:49.217Z</time></trkpt><trkpt lat="45.640115" lon="10.9494967"><ele>861.0</ele><time>2026-04-25T11:11:50.229Z</time></trkpt><trkpt lat="45.6402417" lon="10.9493917"><ele>861.0</ele><time>2026-04-25T11:11:51.231Z</time></trkpt><trkpt lat="45.6403567" lon="10.9492933"><ele>861.0</ele><time>2026-04-25T11:11:52.213Z</time></trkpt><trkpt lat="45.64047" lon="10.9492183"><ele>859.8</ele><time>2026-04-25T11:11:53.217Z</time></trkpt><trkpt lat="45.6405583" lon="10.9491533"><ele>858.5999999999999</ele><time>2026-04-25T11:11:54.22Z</time></trkpt><trkpt lat="45.6406517" lon="10.94912"><ele>857.4</ele><time>2026-04-25T11:11:55.215Z</time></trkpt><trkpt lat="45.6407333" lon="10.94914"><ele>856.2</ele><time>2026-04-25T11:11:56.213Z</time></trkpt><trkpt lat="45.64082" lon="10.9492033"><ele>855.0</ele><time>2026-04-25T11:11:57.22Z</time></trkpt><trkpt lat="45.64089" lon="10.9493267"><ele>855.0</ele><time>2026-04-25T11:11:58.216Z</time></trkpt><trkpt lat="45.64096" lon="10.9494983"><ele>855.0</ele><time>2026-04-25T11:11:59.216Z</time></trkpt><trkpt lat="45.641005" lon="10.9496633"><ele>855.0</ele><time>2026-04-25T11:12:00.214Z</time></trkpt><trkpt lat="45.6410733" lon="10.9497917"><ele>855.0</ele><time>2026-04-25T11:12:01.22Z</time></trkpt><trkpt lat="45.6411417" lon="10.94988"><ele>852.75</ele><time>2026-04-25T11:12:02.215Z</time></trkpt><trkpt lat="45.6412617" lon="10.9499417"><ele>850.5</ele><time>2026-04-25T11:12:03.217Z</time></trkpt><trkpt lat="45.641405" lon="10.9499817"><ele>848.25</ele><time>2026-04-25T11:12:04.219Z</time></trkpt><trkpt lat="45.6415417" lon="10.9500267"><ele>846.0</ele><time>2026-04-25T11:12:05.218Z</time></trkpt><trkpt lat="45.641675" lon="10.95008"><ele>846.0</ele><time>2026-04-25T11:12:06.217Z</time></trkpt><trkpt lat="45.6418167" lon="10.950145"><ele>846.0</ele><time>2026-04-25T11:12:07.219Z</time></trkpt><trkpt lat="45.6419583" lon="10.9502267"><ele>846.0</ele><time>2026-04-25T11:12:08.215Z</time></trkpt><trkpt lat="45.64212" lon="10.9502733"><ele>847.0</ele><time>2026-04-25T11:12:09.217Z</time></trkpt><trkpt lat="45.6422867" lon="10.950325"><ele>848.0</ele><time>2026-04-25T11:12:10.22Z</time></trkpt><trkpt lat="45.642465" lon="10.950375"><ele>849.0</ele><time>2026-04-25T11:12:11.214Z</time></trkpt><trkpt lat="45.6426133" lon="10.9504383"><ele>849.0</ele><time>2026-04-25T11:12:12.217Z</time></trkpt><trkpt lat="45.64278" lon="10.9504783"><ele>849.0</ele><time>2026-04-25T11:12:13.219Z</time></trkpt><trkpt lat="45.642925" lon="10.95048"><ele>849.0</ele><time>2026-04-25T11:12:14.22Z</time></trkpt><trkpt lat="45.6430717" lon="10.9504733"><ele>848.75</ele><time>2026-04-25T11:12:15.214Z</time></trkpt><trkpt lat="45.6432017" lon="10.95042"><ele>848.5</ele><time>2026-04-25T11:12:16.218Z</time></trkpt><trkpt lat="45.6433167" lon="10.9503383"><ele>848.25</ele><time>2026-04-25T11:12:17.224Z</time></trkpt><trkpt lat="45.6434283" lon="10.9502133"><ele>848.0</ele><time>2026-04-25T11:12:18.218Z</time></trkpt><trkpt lat="45.64351" lon="10.9500583"><ele>849.25</ele><time>2026-04-25T11:12:19.215Z</time></trkpt><trkpt lat="45.6436067" lon="10.949935"><ele>850.5</ele><time>2026-04-25T11:12:20.22Z</time></trkpt><trkpt lat="45.6436867" lon="10.9498267"><ele>851.75</ele><time>2026-04-25T11:12:21.215Z</time></trkpt><trkpt lat="45.64377" lon="10.949725"><ele>853.0</ele><time>2026-04-25T11:12:22.224Z</time></trkpt><trkpt lat="45.6438917" lon="10.9496533"><ele>852.9999999999999</ele><time>2026-04-25T11:12:24.218Z</time></trkpt><trkpt lat="45.6439667" lon="10.9496483"><ele>853.0</ele><time>2026-04-25T11:12:25.226Z</time></trkpt><trkpt lat="45.6440467" lon="10.9496617"><ele>853.0</ele><time>2026-04-25T11:12:26.236Z</time></trkpt><trkpt lat="45.6441333" lon="10.9496717"><ele>853.0</ele><time>2026-04-25T11:12:27.214Z</time></trkpt><trkpt lat="45.6442233" lon="10.94972"><ele>852.9999999999999</ele><time>2026-04-25T11:12:28.227Z</time></trkpt><trkpt lat="45.644295" lon="10.9497333"><ele>853.0</ele><time>2026-04-25T11:12:29.236Z</time></trkpt><trkpt lat="45.6443717" lon="10.9497467"><ele>852.9999999999999</ele><time>2026-04-25T11:12:30.216Z</time></trkpt><trkpt lat="45.6444333" lon="10.94977"><ele>853.0</ele><time>2026-04-25T11:12:31.211Z</time></trkpt><trkpt lat="45.644515" lon="10.9498667"><ele>853.0</ele><time>2026-04-25T11:12:33.219Z</time></trkpt><trkpt lat="45.64457" lon="10.94999"><ele>853.0</ele><time>2026-04-25T11:12:35.224Z</time></trkpt><trkpt lat="45.6446083" lon="10.9500817"><ele>852.9999999999999</ele><time>2026-04-25T11:12:36.217Z</time></trkpt><trkpt lat="45.6446567" lon="10.9502033"><ele>853.0</ele><time>2026-04-25T11:12:37.216Z</time></trkpt><trkpt lat="45.6447233" lon="10.9503533"><ele>852.8</ele><time>2026-04-25T11:12:38.214Z</time></trkpt><trkpt lat="45.644765" lon="10.9505"><ele>852.5999999999999</ele><time>2026-04-25T11:12:39.219Z</time></trkpt><trkpt lat="45.6447967" lon="10.9506667"><ele>852.4000000000001</ele><time>2026-04-25T11:12:40.218Z</time></trkpt><trkpt lat="45.64482" lon="10.9508"><ele>852.2</ele><time>2026-04-25T11:12:41.221Z</time></trkpt><trkpt lat="45.644845" lon="10.95093"><ele>852.0</ele><time>2026-04-25T11:12:42.23Z</time></trkpt><trkpt lat="45.644865" lon="10.95105"><ele>852.0</ele><time>2026-04-25T11:12:43.221Z</time></trkpt><trkpt lat="45.6448767" lon="10.9511667"><ele>852.0</ele><time>2026-04-25T11:12:44.218Z</time></trkpt><trkpt lat="45.644895" lon="10.9512917"><ele>852.0</ele><time>2026-04-25T11:12:45.224Z</time></trkpt><trkpt lat="45.644915" lon="10.9514333"><ele>852.0</ele><time>2026-04-25T11:12:46.218Z</time></trkpt><trkpt lat="45.644925" lon="10.95159"><ele>852.0</ele><time>2026-04-25T11:12:47.22Z</time></trkpt><trkpt lat="45.6449417" lon="10.9517467"><ele>852.75</ele><time>2026-04-25T11:12:48.228Z</time></trkpt><trkpt lat="45.6449667" lon="10.9518967"><ele>853.5</ele><time>2026-04-25T11:12:49.215Z</time></trkpt><trkpt lat="45.6450033" lon="10.9520533"><ele>854.25</ele><time>2026-04-25T11:12:50.224Z</time></trkpt><trkpt lat="45.64505" lon="10.9522367"><ele>855.0</ele><time>2026-04-25T11:12:51.222Z</time></trkpt><trkpt lat="45.6450933" lon="10.9524183"><ele>857.75</ele><time>2026-04-25T11:12:52.224Z</time></trkpt><trkpt lat="45.6451583" lon="10.9525717"><ele>860.5</ele><time>2026-04-25T11:12:53.216Z</time></trkpt><trkpt lat="45.6452417" lon="10.9527317"><ele>863.25</ele><time>2026-04-25T11:12:54.216Z</time></trkpt><trkpt lat="45.6453483" lon="10.952845"><ele>866.0</ele><time>2026-04-25T11:12:55.22Z</time></trkpt><trkpt lat="45.645475" lon="10.9529383"><ele>866.0</ele><time>2026-04-25T11:12:56.23Z</time></trkpt><trkpt lat="45.645585" lon="10.9530167"><ele>866.0</ele><time>2026-04-25T11:12:57.225Z</time></trkpt><trkpt lat="45.6456983" lon="10.9530817"><ele>866.0</ele><time>2026-04-25T11:12:58.219Z</time></trkpt><trkpt lat="45.645815" lon="10.9531517"><ele>866.0</ele><time>2026-04-25T11:12:59.219Z</time></trkpt><trkpt lat="45.64593" lon="10.9532"><ele>866.0</ele><time>2026-04-25T11:13:00.226Z</time></trkpt><trkpt lat="45.6460367" lon="10.9532767"><ele>865.9999999999999</ele><time>2026-04-25T11:13:01.221Z</time></trkpt><trkpt lat="45.6461483" lon="10.9533433"><ele>865.9999999999999</ele><time>2026-04-25T11:13:02.218Z</time></trkpt><trkpt lat="45.6462433" lon="10.9534"><ele>866.0</ele><time>2026-04-25T11:13:03.211Z</time></trkpt><trkpt lat="45.6463033" lon="10.9534433"><ele>866.0</ele><time>2026-04-25T11:13:04.213Z</time></trkpt><trkpt lat="45.64636" lon="10.9535"><ele>866.5999999999999</ele><time>2026-04-25T11:13:06.214Z</time></trkpt><trkpt lat="45.6462917" lon="10.95333"><ele>867.1999999999999</ele><time>2026-04-25T11:13:26.677Z</time></trkpt><trkpt lat="45.646205" lon="10.95324"><ele>867.8000000000001</ele><time>2026-04-25T11:13:28.677Z</time></trkpt><trkpt lat="45.6462817" lon="10.9531817"><ele>868.4000000000001</ele><time>2026-04-25T11:13:32.699Z</time></trkpt><trkpt lat="45.6463383" lon="10.9532317"><ele>869.0</ele><time>2026-04-25T11:13:33.677Z</time></trkpt><trkpt lat="45.6464117" lon="10.9533"><ele>869.0</ele><time>2026-04-25T11:13:34.678Z</time></trkpt><trkpt lat="45.6464883" lon="10.9533583"><ele>869.0000000000001</ele><time>2026-04-25T11:13:35.68Z</time></trkpt><trkpt lat="45.6465767" lon="10.9534283"><ele>869.0000000000001</ele><time>2026-04-25T11:13:36.681Z</time></trkpt><trkpt lat="45.6466867" lon="10.95351"><ele>869.0</ele><time>2026-04-25T11:13:37.674Z</time></trkpt><trkpt lat="45.6468033" lon="10.9535433"><ele>869.0</ele><time>2026-04-25T11:13:38.682Z</time></trkpt><trkpt lat="45.6469467" lon="10.9535833"><ele>872.25</ele><time>2026-04-25T11:13:39.676Z</time></trkpt><trkpt lat="45.6470817" lon="10.9536383"><ele>875.5</ele><time>2026-04-25T11:13:40.687Z</time></trkpt><trkpt lat="45.647205" lon="10.9537233"><ele>878.75</ele><time>2026-04-25T11:13:41.678Z</time></trkpt><trkpt lat="45.6473417" lon="10.9537917"><ele>882.0</ele><time>2026-04-25T11:13:42.681Z</time></trkpt><trkpt lat="45.647465" lon="10.9538733"><ele>882.0</ele><time>2026-04-25T11:13:43.677Z</time></trkpt><trkpt lat="45.647595" lon="10.9539317"><ele>882.0</ele><time>2026-04-25T11:13:44.681Z</time></trkpt><trkpt lat="45.647725" lon="10.9539367"><ele>882.0</ele><time>2026-04-25T11:13:45.681Z</time></trkpt><trkpt lat="45.64787" lon="10.9539333"><ele>882.0</ele><time>2026-04-25T11:13:46.677Z</time></trkpt><trkpt lat="45.64804" lon="10.9539217"><ele>883.6666666666667</ele><time>2026-04-25T11:13:47.68Z</time></trkpt><trkpt lat="45.6482067" lon="10.95392"><ele>885.3333333333334</ele><time>2026-04-25T11:13:48.682Z</time></trkpt><trkpt lat="45.64836" lon="10.9539167"><ele>887.0</ele><time>2026-04-25T11:13:49.68Z</time></trkpt><trkpt lat="45.64849" lon="10.9538483"><ele>891.0</ele><time>2026-04-25T11:13:50.678Z</time></trkpt><trkpt lat="45.6486383" lon="10.95377"><ele>895.0</ele><time>2026-04-25T11:13:51.681Z</time></trkpt><trkpt lat="45.648785" lon="10.9536717"><ele>899.0</ele><time>2026-04-25T11:13:52.677Z</time></trkpt><trkpt lat="45.6489333" lon="10.9535383"><ele>899.0</ele><time>2026-04-25T11:13:53.678Z</time></trkpt><trkpt lat="45.6490633" lon="10.95346"><ele>899.0</ele><time>2026-04-25T11:13:54.677Z</time></trkpt><trkpt lat="45.6491617" lon="10.9534483"><ele>899.0</ele><time>2026-04-25T11:13:55.685Z</time></trkpt><trkpt lat="45.6492483" lon="10.9534733"><ele>899.0</ele><time>2026-04-25T11:13:56.679Z</time></trkpt><trkpt lat="45.6492383" lon="10.9536633"><ele>899.0000000000001</ele><time>2026-04-25T11:13:58.683Z</time></trkpt><trkpt lat="45.6492067" lon="10.9537533"><ele>899.0</ele><time>2026-04-25T11:13:59.681Z</time></trkpt><trkpt lat="45.6491417" lon="10.953825"><ele>899.0</ele><time>2026-04-25T11:14:00.679Z</time></trkpt><trkpt lat="45.6490817" lon="10.953905"><ele>899.0</ele><time>2026-04-25T11:14:01.68Z</time></trkpt><trkpt lat="45.6490517" lon="10.9540033"><ele>899.0000000000001</ele><time>2026-04-25T11:14:02.675Z</time></trkpt><trkpt lat="45.649085" lon="10.954145"><ele>899.0</ele><time>2026-04-25T11:14:03.676Z</time></trkpt><trkpt lat="45.6491383" lon="10.954275"><ele>899.6</ele><time>2026-04-25T11:14:04.682Z</time></trkpt><trkpt lat="45.6492083" lon="10.95441"><ele>900.2</ele><time>2026-04-25T11:14:05.681Z</time></trkpt><trkpt lat="45.649285" lon="10.9545183"><ele>900.8000000000001</ele><time>2026-04-25T11:14:06.681Z</time></trkpt><trkpt lat="45.6493683" lon="10.95462"><ele>901.4000000000001</ele><time>2026-04-25T11:14:07.678Z</time></trkpt><trkpt lat="45.6494567" lon="10.95471"><ele>902.0</ele><time>2026-04-25T11:14:08.687Z</time></trkpt><trkpt lat="45.6495533" lon="10.95475"><ele>904.0000000000001</ele><time>2026-04-25T11:14:09.676Z</time></trkpt><trkpt lat="45.6496233" lon="10.9547417"><ele>906.0</ele><time>2026-04-25T11:14:10.681Z</time></trkpt><trkpt lat="45.6496717" lon="10.9546633"><ele>908.0</ele><time>2026-04-25T11:14:11.679Z</time></trkpt><trkpt lat="45.6497117" lon="10.954565"><ele>910.0</ele><time>2026-04-25T11:14:12.677Z</time></trkpt><trkpt lat="45.649715" lon="10.95443"><ele>912.0000000000001</ele><time>2026-04-25T11:14:13.677Z</time></trkpt><trkpt lat="45.6497217" lon="10.954285"><ele>914.0</ele><time>2026-04-25T11:14:14.683Z</time></trkpt><trkpt lat="45.649775" lon="10.95416"><ele>914.25</ele><time>2026-04-25T11:14:15.679Z</time></trkpt><trkpt lat="45.64983" lon="10.954005"><ele>914.5</ele><time>2026-04-25T11:14:16.681Z</time></trkpt><trkpt lat="45.6499083" lon="10.95384"><ele>914.75</ele><time>2026-04-25T11:14:17.683Z</time></trkpt><trkpt lat="45.650015" lon="10.95372"><ele>915.0</ele><time>2026-04-25T11:14:18.678Z</time></trkpt><trkpt lat="45.6501517" lon="10.9535817"><ele>915.0</ele><time>2026-04-25T11:14:19.682Z</time></trkpt><trkpt lat="45.6502683" lon="10.95352"><ele>915.0</ele><time>2026-04-25T11:14:20.68Z</time></trkpt><trkpt lat="45.650385" lon="10.95352"><ele>915.0</ele><time>2026-04-25T11:14:21.682Z</time></trkpt><trkpt lat="45.6504733" lon="10.953565"><ele>915.0</ele><time>2026-04-25T11:14:22.676Z</time></trkpt><trkpt lat="45.6505433" lon="10.9536617"><ele>915.0</ele><time>2026-04-25T11:14:23.681Z</time></trkpt><trkpt lat="45.6505967" lon="10.9537967"><ele>917.25</ele><time>2026-04-25T11:14:24.683Z</time></trkpt><trkpt lat="45.6506483" lon="10.95395"><ele>919.5</ele><time>2026-04-25T11:14:25.682Z</time></trkpt><trkpt lat="45.6507233" lon="10.9541317"><ele>921.75</ele><time>2026-04-25T11:14:26.682Z</time></trkpt><trkpt lat="45.6507917" lon="10.9543033"><ele>924.0</ele><time>2026-04-25T11:14:27.686Z</time></trkpt><trkpt lat="45.6508783" lon="10.9544167"><ele>924.0</ele><time>2026-04-25T11:14:28.677Z</time></trkpt><trkpt lat="45.6509867" lon="10.9545"><ele>924.0</ele><time>2026-04-25T11:14:29.681Z</time></trkpt><trkpt lat="45.6511467" lon="10.95449"><ele>924.0</ele><time>2026-04-25T11:14:30.682Z</time></trkpt><trkpt lat="45.65129" lon="10.954515"><ele>924.0</ele><time>2026-04-25T11:14:31.678Z</time></trkpt><trkpt lat="45.65145" lon="10.9545467"><ele>927.0</ele><time>2026-04-25T11:14:32.679Z</time></trkpt><trkpt lat="45.6516233" lon="10.9545833"><ele>930.0</ele><time>2026-04-25T11:14:33.682Z</time></trkpt><trkpt lat="45.6517817" lon="10.954655"><ele>933.0</ele><time>2026-04-25T11:14:34.676Z</time></trkpt><trkpt lat="45.651935" lon="10.9547517"><ele>937.6666666666667</ele><time>2026-04-25T11:14:35.682Z</time></trkpt><trkpt lat="45.6520767" lon="10.9548833"><ele>942.3333333333334</ele><time>2026-04-25T11:14:36.689Z</time></trkpt><trkpt lat="45.6522367" lon="10.955045"><ele>947.0</ele><time>2026-04-25T11:14:37.675Z</time></trkpt><trkpt lat="45.6523867" lon="10.9551917"><ele>947.0</ele><time>2026-04-25T11:14:38.678Z</time></trkpt><trkpt lat="45.6525433" lon="10.95536"><ele>947.0</ele><time>2026-04-25T11:14:39.681Z</time></trkpt><trkpt lat="45.6527067" lon="10.9555333"><ele>947.0</ele><time>2026-04-25T11:14:40.683Z</time></trkpt><trkpt lat="45.65288" lon="10.9556983"><ele>951.3333333333334</ele><time>2026-04-25T11:14:41.676Z</time></trkpt><trkpt lat="45.6530683" lon="10.9558617"><ele>955.6666666666667</ele><time>2026-04-25T11:14:42.684Z</time></trkpt><trkpt lat="45.6532433" lon="10.9560017"><ele>960.0</ele><time>2026-04-25T11:14:43.677Z</time></trkpt><trkpt lat="45.6534117" lon="10.9561417"><ele>960.0</ele><time>2026-04-25T11:14:44.677Z</time></trkpt><trkpt lat="45.6535667" lon="10.956295"><ele>960.0</ele><time>2026-04-25T11:14:45.68Z</time></trkpt><trkpt lat="45.6536967" lon="10.9564683"><ele>960.0</ele><time>2026-04-25T11:14:46.682Z</time></trkpt><trkpt lat="45.65382" lon="10.9566483"><ele>966.0</ele><time>2026-04-25T11:14:47.683Z</time></trkpt><trkpt lat="45.6539483" lon="10.9568067"><ele>972.0</ele><time>2026-04-25T11:14:48.682Z</time></trkpt><trkpt lat="45.6540783" lon="10.9569883"><ele>978.0</ele><time>2026-04-25T11:14:49.682Z</time></trkpt><trkpt lat="45.654165" lon="10.9571733"><ele>978.0</ele><time>2026-04-25T11:14:50.675Z</time></trkpt><trkpt lat="45.654235" lon="10.9573583"><ele>978.0</ele><time>2026-04-25T11:14:51.68Z</time></trkpt><trkpt lat="45.6542917" lon="10.95751"><ele>978.0</ele><time>2026-04-25T11:14:52.684Z</time></trkpt><trkpt lat="45.6543633" lon="10.9576333"><ele>978.0</ele><time>2026-04-25T11:14:53.685Z</time></trkpt><trkpt lat="45.654495" lon="10.95773"><ele>983.3333333333333</ele><time>2026-04-25T11:14:54.682Z</time></trkpt><trkpt lat="45.654625" lon="10.9578717"><ele>988.6666666666666</ele><time>2026-04-25T11:14:55.686Z</time></trkpt><trkpt lat="45.65475" lon="10.95805"><ele>994.0</ele><time>2026-04-25T11:14:56.688Z</time></trkpt><trkpt lat="45.6548567" lon="10.958225"><ele>993.6666666666666</ele><time>2026-04-25T11:14:57.678Z</time></trkpt><trkpt lat="45.6549633" lon="10.958395"><ele>993.3333333333333</ele><time>2026-04-25T11:14:58.684Z</time></trkpt><trkpt lat="45.6550717" lon="10.9585467"><ele>993.0</ele><time>2026-04-25T11:14:59.686Z</time></trkpt><trkpt lat="45.6551767" lon="10.9586967"><ele>994.75</ele><time>2026-04-25T11:15:00.692Z</time></trkpt><trkpt lat="45.6552917" lon="10.9587967"><ele>996.5</ele><time>2026-04-25T11:15:01.68Z</time></trkpt><trkpt lat="45.65542" lon="10.9588667"><ele>998.25</ele><time>2026-04-25T11:15:02.681Z</time></trkpt><trkpt lat="45.6555633" lon="10.9589183"><ele>1000.0</ele><time>2026-04-25T11:15:03.706Z</time></trkpt><trkpt lat="45.6557217" lon="10.9590117"><ele>1000.0</ele><time>2026-04-25T11:15:04.682Z</time></trkpt><trkpt lat="45.6558867" lon="10.95908"><ele>1000.0</ele><time>2026-04-25T11:15:05.688Z</time></trkpt><trkpt lat="45.6560683" lon="10.9590833"><ele>1000.0</ele><time>2026-04-25T11:15:06.683Z</time></trkpt><trkpt lat="45.6562117" lon="10.9590433"><ele>1001.4999999999999</ele><time>2026-04-25T11:15:07.68Z</time></trkpt><trkpt lat="45.6563383" lon="10.95903"><ele>1003.0</ele><time>2026-04-25T11:15:08.686Z</time></trkpt><trkpt lat="45.6564117" lon="10.95905"><ele>1004.5</ele><time>2026-04-25T11:15:09.683Z</time></trkpt><trkpt lat="45.656475" lon="10.9590533"><ele>1006.0</ele><time>2026-04-25T11:15:10.686Z</time></trkpt><trkpt lat="45.6565533" lon="10.9590583"><ele>1007.4999999999999</ele><time>2026-04-25T11:15:11.692Z</time></trkpt><trkpt lat="45.6566383" lon="10.95906"><ele>1009.0</ele><time>2026-04-25T11:15:12.689Z</time></trkpt><trkpt lat="45.6567217" lon="10.9590883"><ele>1008.9999999999999</ele><time>2026-04-25T11:15:13.684Z</time></trkpt><trkpt lat="45.6567983" lon="10.959105"><ele>1009.0</ele><time>2026-04-25T11:15:14.692Z</time></trkpt><trkpt lat="45.6568617" lon="10.959115"><ele>1009.0</ele><time>2026-04-25T11:15:15.685Z</time></trkpt><trkpt lat="45.65693" lon="10.9590933"><ele>1009.0</ele><time>2026-04-25T11:15:18.693Z</time></trkpt><trkpt lat="45.65684" lon="10.95908"><ele>1008.9999999999999</ele><time>2026-04-25T11:15:22.687Z</time></trkpt><trkpt lat="45.656775" lon="10.9590983"><ele>1009.0</ele><time>2026-04-25T11:15:23.688Z</time></trkpt><trkpt lat="45.6566917" lon="10.9590867"><ele>1008.9999999999999</ele><time>2026-04-25T11:15:24.684Z</time></trkpt><trkpt lat="45.6566067" lon="10.9590733"><ele>1009.0</ele><time>2026-04-25T11:15:25.686Z</time></trkpt><trkpt lat="45.656515" lon="10.9590617"><ele>1009.0</ele><time>2026-04-25T11:15:26.683Z</time></trkpt><trkpt lat="45.65643" lon="10.9590617"><ele>1009.0</ele><time>2026-04-25T11:15:27.689Z</time></trkpt><trkpt lat="45.6563533" lon="10.959065"><ele>1008.9999999999999</ele><time>2026-04-25T11:15:28.689Z</time></trkpt><trkpt lat="45.6562883" lon="10.9590667"><ele>1009.0</ele><time>2026-04-25T11:15:29.694Z</time></trkpt><trkpt lat="45.65621" lon="10.9590583"><ele>1008.9999999999999</ele><time>2026-04-25T11:15:31.691Z</time></trkpt><trkpt lat="45.6562833" lon="10.95908"><ele>1009.0</ele><time>2026-04-25T11:15:42.706Z</time></trkpt><trkpt lat="45.6563567" lon="10.9590767"><ele>1009.0</ele><time>2026-04-25T11:15:43.692Z</time></trkpt><trkpt lat="45.65644" lon="10.9590733"><ele>1009.0</ele><time>2026-04-25T11:15:44.685Z</time></trkpt><trkpt lat="45.6565267" lon="10.9590817"><ele>1008.9999999999999</ele><time>2026-04-25T11:15:45.682Z</time></trkpt><trkpt lat="45.6566233" lon="10.95911"><ele>1009.0</ele><time>2026-04-25T11:15:46.693Z</time></trkpt><trkpt lat="45.6567383" lon="10.9591517"><ele>1008.9999999999999</ele><time>2026-04-25T11:15:47.68Z</time></trkpt><trkpt lat="45.6568133" lon="10.9591567"><ele>1009.0</ele><time>2026-04-25T11:15:48.695Z</time></trkpt><trkpt lat="45.6568767" lon="10.9591467"><ele>1009.0</ele><time>2026-04-25T11:15:49.69Z</time></trkpt><trkpt lat="45.6568667" lon="10.9590283"><ele>1009.0</ele><time>2026-04-25T11:15:51.688Z</time></trkpt><trkpt lat="45.6568117" lon="10.9589667"><ele>1008.9999999999999</ele><time>2026-04-25T11:15:52.687Z</time></trkpt><trkpt lat="45.6567367" lon="10.958915"><ele>1009.0</ele><time>2026-04-25T11:15:53.693Z</time></trkpt><trkpt lat="45.65666" lon="10.9588767"><ele>1009.0</ele><time>2026-04-25T11:15:54.681Z</time></trkpt><trkpt lat="45.6565817" lon="10.9588233"><ele>1009.0000000000001</ele><time>2026-04-25T11:15:55.692Z</time></trkpt><trkpt lat="45.6565017" lon="10.9587483"><ele>1009.0000000000001</ele><time>2026-04-25T11:15:56.69Z</time></trkpt><trkpt lat="45.656425" lon="10.958675"><ele>1009.0</ele><time>2026-04-25T11:15:57.693Z</time></trkpt><trkpt lat="45.6563117" lon="10.9586017"><ele>1009.0</ele><time>2026-04-25T11:15:58.683Z</time></trkpt><trkpt lat="45.65622" lon="10.9585133"><ele>1009.0</ele><time>2026-04-25T11:15:59.694Z</time></trkpt><trkpt lat="45.65613" lon="10.9584267"><ele>1009.0</ele><time>2026-04-25T11:16:00.694Z</time></trkpt><trkpt lat="45.656075" lon="10.9583067"><ele>1009.0</ele><time>2026-04-25T11:16:01.691Z</time></trkpt><trkpt lat="45.6560567" lon="10.95813"><ele>1009.0</ele><time>2026-04-25T11:16:03.686Z</time></trkpt><trkpt lat="45.6561783" lon="10.9580883"><ele>1011.6</ele><time>2026-04-25T11:16:05.686Z</time></trkpt><trkpt lat="45.65627" lon="10.9580983"><ele>1014.2</ele><time>2026-04-25T11:16:06.684Z</time></trkpt><trkpt lat="45.65637" lon="10.958125"><ele>1016.8000000000001</ele><time>2026-04-25T11:16:07.679Z</time></trkpt><trkpt lat="45.6564767" lon="10.9581733"><ele>1019.4000000000001</ele><time>2026-04-25T11:16:08.68Z</time></trkpt><trkpt lat="45.6565833" lon="10.9582017"><ele>1022.0</ele><time>2026-04-25T11:16:09.683Z</time></trkpt><trkpt lat="45.6566983" lon="10.958195"><ele>1022.0</ele><time>2026-04-25T11:16:10.676Z</time></trkpt><trkpt lat="45.656805" lon="10.958205"><ele>1022.0</ele><time>2026-04-25T11:16:11.68Z</time></trkpt><trkpt lat="45.6569017" lon="10.9582083"><ele>1022.0</ele><time>2026-04-25T11:16:12.683Z</time></trkpt><trkpt lat="45.6569833" lon="10.9582283"><ele>1022.0</ele><time>2026-04-25T11:16:13.677Z</time></trkpt><trkpt lat="45.6570867" lon="10.9582517"><ele>1022.0</ele><time>2026-04-25T11:16:14.681Z</time></trkpt><trkpt lat="45.65717" lon="10.9582633"><ele>1024.2</ele><time>2026-04-25T11:16:15.682Z</time></trkpt><trkpt lat="45.657255" lon="10.9582783"><ele>1026.4</ele><time>2026-04-25T11:16:16.685Z</time></trkpt><trkpt lat="45.657345" lon="10.9582783"><ele>1028.6</ele><time>2026-04-25T11:16:17.689Z</time></trkpt><trkpt lat="45.6574433" lon="10.9583133"><ele>1030.8</ele><time>2026-04-25T11:16:18.686Z</time></trkpt><trkpt lat="45.6575367" lon="10.9582917"><ele>1033.0</ele><time>2026-04-25T11:16:20.442Z</time></trkpt><trkpt lat="45.6577583" lon="10.9582667"><ele>1035.8</ele><time>2026-04-25T11:16:22.443Z</time></trkpt><trkpt lat="45.657865" lon="10.9582483"><ele>1038.6</ele><time>2026-04-25T11:16:23.442Z</time></trkpt><trkpt lat="45.657965" lon="10.9582517"><ele>1041.4</ele><time>2026-04-25T11:16:24.442Z</time></trkpt><trkpt lat="45.6580667" lon="10.958255"><ele>1044.2</ele><time>2026-04-25T11:16:25.439Z</time></trkpt><trkpt lat="45.6581517" lon="10.958315"><ele>1047.0</ele><time>2026-04-25T11:16:26.442Z</time></trkpt><trkpt lat="45.6582417" lon="10.958395"><ele>1047.25</ele><time>2026-04-25T11:16:27.441Z</time></trkpt><trkpt lat="45.658315" lon="10.958515"><ele>1047.5</ele><time>2026-04-25T11:16:28.438Z</time></trkpt><trkpt lat="45.65837" lon="10.95868"><ele>1047.75</ele><time>2026-04-25T11:16:29.446Z</time></trkpt><trkpt lat="45.6583883" lon="10.9588467"><ele>1048.0</ele><time>2026-04-25T11:16:30.443Z</time></trkpt><trkpt lat="45.6583683" lon="10.959"><ele>1048.0</ele><time>2026-04-25T11:16:31.431Z</time></trkpt><trkpt lat="45.6583167" lon="10.95918"><ele>1048.0</ele><time>2026-04-25T11:16:32.436Z</time></trkpt><trkpt lat="45.6582633" lon="10.959335"><ele>1048.0</ele><time>2026-04-25T11:16:33.436Z</time></trkpt><trkpt lat="45.6582117" lon="10.959465"><ele>1048.0</ele><time>2026-04-25T11:16:34.441Z</time></trkpt><trkpt lat="45.65819" lon="10.9595867"><ele>1048.0</ele><time>2026-04-25T11:16:35.439Z</time></trkpt><trkpt lat="45.6581967" lon="10.959715"><ele>1048.2</ele><time>2026-04-25T11:16:36.44Z</time></trkpt><trkpt lat="45.6582283" lon="10.959835"><ele>1048.4</ele><time>2026-04-25T11:16:37.447Z</time></trkpt><trkpt lat="45.6582883" lon="10.9599417"><ele>1048.6000000000001</ele><time>2026-04-25T11:16:38.442Z</time></trkpt><trkpt lat="45.6583683" lon="10.9600233"><ele>1048.8</ele><time>2026-04-25T11:16:39.442Z</time></trkpt><trkpt lat="45.65846" lon="10.9600867"><ele>1049.0</ele><time>2026-04-25T11:16:40.434Z</time></trkpt><trkpt lat="45.6585767" lon="10.9601183"><ele>1049.5</ele><time>2026-04-25T11:16:41.441Z</time></trkpt><trkpt lat="45.6587" lon="10.960125"><ele>1050.0</ele><time>2026-04-25T11:16:42.434Z</time></trkpt><trkpt lat="45.6588283" lon="10.9601367"><ele>1050.5</ele><time>2026-04-25T11:16:43.44Z</time></trkpt><trkpt lat="45.6589567" lon="10.9601867"><ele>1051.0</ele><time>2026-04-25T11:16:44.434Z</time></trkpt><trkpt lat="45.6590683" lon="10.9602167"><ele>1051.0</ele><time>2026-04-25T11:16:45.434Z</time></trkpt><trkpt lat="45.65916" lon="10.9602267"><ele>1051.0</ele><time>2026-04-25T11:16:46.443Z</time></trkpt><trkpt lat="45.659265" lon="10.9602667"><ele>1051.0</ele><time>2026-04-25T11:16:47.439Z</time></trkpt><trkpt lat="45.6593167" lon="10.96036"><ele>1051.0</ele><time>2026-04-25T11:16:48.439Z</time></trkpt><trkpt lat="45.65937" lon="10.9604733"><ele>1051.0</ele><time>2026-04-25T11:16:49.437Z</time></trkpt><trkpt lat="45.659405" lon="10.96059"><ele>1051.0</ele><time>2026-04-25T11:16:50.445Z</time></trkpt><trkpt lat="45.6594267" lon="10.9606917"><ele>1051.0</ele><time>2026-04-25T11:16:51.439Z</time></trkpt><trkpt lat="45.659455" lon="10.9608167"><ele>1051.0</ele><time>2026-04-25T11:16:53.435Z</time></trkpt><trkpt lat="45.6595267" lon="10.96089"><ele>1051.0</ele><time>2026-04-25T11:16:56.437Z</time></trkpt><trkpt lat="45.6596117" lon="10.960955"><ele>1051.0</ele><time>2026-04-25T11:16:58.441Z</time></trkpt><trkpt lat="45.65972" lon="10.96105"><ele>1053.0</ele><time>2026-04-25T11:17:00.442Z</time></trkpt><trkpt lat="45.6597783" lon="10.9610983"><ele>1055.0</ele><time>2026-04-25T11:17:01.44Z</time></trkpt><trkpt lat="45.6598367" lon="10.9611583"><ele>1057.0</ele><time>2026-04-25T11:17:02.445Z</time></trkpt><trkpt lat="45.6598917" lon="10.96123"><ele>1059.0</ele><time>2026-04-25T11:17:03.438Z</time></trkpt><trkpt lat="45.6599433" lon="10.9613133"><ele>1061.0</ele><time>2026-04-25T11:17:04.444Z</time></trkpt><trkpt lat="45.659995" lon="10.9613983"><ele>1063.0</ele><time>2026-04-25T11:17:05.436Z</time></trkpt><trkpt lat="45.6600433" lon="10.9614767"><ele>1065.0</ele><time>2026-04-25T11:17:06.446Z</time></trkpt><trkpt lat="45.660085" lon="10.96155"><ele>1065.8333333333333</ele><time>2026-04-25T11:17:07.442Z</time></trkpt><trkpt lat="45.6601417" lon="10.9617083"><ele>1066.6666666666667</ele><time>2026-04-25T11:17:09.433Z</time></trkpt><trkpt lat="45.6601617" lon="10.9618067"><ele>1067.5</ele><time>2026-04-25T11:17:10.443Z</time></trkpt><trkpt lat="45.6601783" lon="10.9619167"><ele>1068.3333333333335</ele><time>2026-04-25T11:17:11.444Z</time></trkpt><trkpt lat="45.6601783" lon="10.9620433"><ele>1069.1666666666667</ele><time>2026-04-25T11:17:12.435Z</time></trkpt><trkpt lat="45.6601817" lon="10.962165"><ele>1070.0</ele><time>2026-04-25T11:17:13.441Z</time></trkpt><trkpt lat="45.6601733" lon="10.9623"><ele>1070.0</ele><time>2026-04-25T11:17:14.443Z</time></trkpt><trkpt lat="45.660155" lon="10.9624517"><ele>1070.0</ele><time>2026-04-25T11:17:15.441Z</time></trkpt><trkpt lat="45.6601233" lon="10.96259"><ele>1070.0</ele><time>2026-04-25T11:17:16.435Z</time></trkpt><trkpt lat="45.6601067" lon="10.9627183"><ele>1070.0</ele><time>2026-04-25T11:17:17.446Z</time></trkpt><trkpt lat="45.6600883" lon="10.962845"><ele>1070.0</ele><time>2026-04-25T11:17:18.439Z</time></trkpt><trkpt lat="45.6600667" lon="10.9629683"><ele>1072.1666666666667</ele><time>2026-04-25T11:17:19.447Z</time></trkpt><trkpt lat="45.6600433" lon="10.963085"><ele>1074.3333333333335</ele><time>2026-04-25T11:17:20.44Z</time></trkpt><trkpt lat="45.6600283" lon="10.9632083"><ele>1076.5</ele><time>2026-04-25T11:17:21.438Z</time></trkpt><trkpt lat="45.6600167" lon="10.9633367"><ele>1078.6666666666667</ele><time>2026-04-25T11:17:22.433Z</time></trkpt><trkpt lat="45.6600067" lon="10.9634717"><ele>1080.8333333333333</ele><time>2026-04-25T11:17:23.448Z</time></trkpt><trkpt lat="45.6599983" lon="10.9636017"><ele>1083.0</ele><time>2026-04-25T11:17:24.434Z</time></trkpt><trkpt lat="45.6599767" lon="10.9637133"><ele>1084.1666666666667</ele><time>2026-04-25T11:17:25.433Z</time></trkpt><trkpt lat="45.6599983" lon="10.9638667"><ele>1085.3333333333333</ele><time>2026-04-25T11:17:26.444Z</time></trkpt><trkpt lat="45.6600067" lon="10.9639983"><ele>1086.5</ele><time>2026-04-25T11:17:27.444Z</time></trkpt><trkpt lat="45.6600217" lon="10.9641183"><ele>1087.6666666666665</ele><time>2026-04-25T11:17:28.435Z</time></trkpt><trkpt lat="45.6600167" lon="10.9642233"><ele>1088.8333333333333</ele><time>2026-04-25T11:17:29.441Z</time></trkpt><trkpt lat="45.6599633" lon="10.9642967"><ele>1090.0</ele><time>2026-04-25T11:17:30.44Z</time></trkpt><trkpt lat="45.6598867" lon="10.96432"><ele>1090.0</ele><time>2026-04-25T11:17:31.432Z</time></trkpt><trkpt lat="45.6598017" lon="10.96432"><ele>1090.0</ele><time>2026-04-25T11:17:32.441Z</time></trkpt><trkpt lat="45.65971" lon="10.9642967"><ele>1090.0</ele><time>2026-04-25T11:17:33.444Z</time></trkpt><trkpt lat="45.6596033" lon="10.9642283"><ele>1090.0</ele><time>2026-04-25T11:17:34.435Z</time></trkpt><trkpt lat="45.6594967" lon="10.96415"><ele>1090.0</ele><time>2026-04-25T11:17:35.432Z</time></trkpt><trkpt lat="45.659385" lon="10.9641283"><ele>1090.0</ele><time>2026-04-25T11:17:36.437Z</time></trkpt><trkpt lat="45.6592517" lon="10.9641183"><ele>1090.0</ele><time>2026-04-25T11:17:37.434Z</time></trkpt><trkpt lat="45.6591283" lon="10.9641333"><ele>1090.0</ele><time>2026-04-25T11:17:38.442Z</time></trkpt><trkpt lat="45.65901" lon="10.964165"><ele>1090.0</ele><time>2026-04-25T11:17:39.437Z</time></trkpt><trkpt lat="45.65892" lon="10.9641983"><ele>1092.0</ele><time>2026-04-25T11:17:40.44Z</time></trkpt><trkpt lat="45.658845" lon="10.9642567"><ele>1094.0</ele><time>2026-04-25T11:17:41.432Z</time></trkpt><trkpt lat="45.6588067" lon="10.9643483"><ele>1096.0</ele><time>2026-04-25T11:17:42.447Z</time></trkpt><trkpt lat="45.6587867" lon="10.9644517"><ele>1098.0</ele><time>2026-04-25T11:17:43.448Z</time></trkpt><trkpt lat="45.6588" lon="10.9645833"><ele>1100.0</ele><time>2026-04-25T11:17:44.436Z</time></trkpt><trkpt lat="45.65882" lon="10.9647267"><ele>1102.0</ele><time>2026-04-25T11:17:45.437Z</time></trkpt><trkpt lat="45.6588667" lon="10.9648883"><ele>1103.4</ele><time>2026-04-25T11:17:46.443Z</time></trkpt><trkpt lat="45.658915" lon="10.96503"><ele>1104.8000000000002</ele><time>2026-04-25T11:17:47.439Z</time></trkpt><trkpt lat="45.65896" lon="10.96516"><ele>1106.2</ele><time>2026-04-25T11:17:48.433Z</time></trkpt><trkpt lat="45.659015" lon="10.965285"><ele>1107.6000000000001</ele><time>2026-04-25T11:17:49.44Z</time></trkpt><trkpt lat="45.6590933" lon="10.96542"><ele>1109.0</ele><time>2026-04-25T11:17:50.433Z</time></trkpt><trkpt lat="45.6591883" lon="10.9654683"><ele>1109.0</ele><time>2026-04-25T11:17:51.455Z</time></trkpt><trkpt lat="45.6592833" lon="10.9655233"><ele>1109.0</ele><time>2026-04-25T11:17:52.441Z</time></trkpt><trkpt lat="45.6593633" lon="10.9655683"><ele>1109.0</ele><time>2026-04-25T11:17:53.437Z</time></trkpt><trkpt lat="45.6594117" lon="10.9656483"><ele>1109.0</ele><time>2026-04-25T11:17:54.433Z</time></trkpt><trkpt lat="45.659425" lon="10.9657483"><ele>1109.0</ele><time>2026-04-25T11:17:55.44Z</time></trkpt><trkpt lat="45.6594117" lon="10.96585"><ele>1109.0</ele><time>2026-04-25T11:17:56.431Z</time></trkpt><trkpt lat="45.659375" lon="10.965955"><ele>1112.25</ele><time>2026-04-25T11:17:57.432Z</time></trkpt><trkpt lat="45.6592883" lon="10.9660733"><ele>1115.5</ele><time>2026-04-25T11:17:58.44Z</time></trkpt><trkpt lat="45.6591817" lon="10.9661833"><ele>1118.75</ele><time>2026-04-25T11:17:59.441Z</time></trkpt><trkpt lat="45.6590583" lon="10.9662617"><ele>1122.0</ele><time>2026-04-25T11:18:00.433Z</time></trkpt><trkpt lat="45.658925" lon="10.9663267"><ele>1122.0</ele><time>2026-04-25T11:18:01.435Z</time></trkpt><trkpt lat="45.65879" lon="10.9663667"><ele>1122.0</ele><time>2026-04-25T11:18:02.44Z</time></trkpt><trkpt lat="45.6586783" lon="10.96641"><ele>1122.0</ele><time>2026-04-25T11:18:03.436Z</time></trkpt><trkpt lat="45.6585633" lon="10.96646"><ele>1122.0</ele><time>2026-04-25T11:18:04.433Z</time></trkpt><trkpt lat="45.658465" lon="10.9664967"><ele>1118.0</ele><time>2026-04-25T11:18:05.435Z</time></trkpt><trkpt lat="45.658365" lon="10.9665333"><ele>1118.0</ele><time>2026-04-25T11:18:07.437Z</time></trkpt><trkpt lat="45.6582633" lon="10.9665783"><ele>1118.0</ele><time>2026-04-25T11:18:17.442Z</time></trkpt><trkpt lat="45.658195" lon="10.9665883"><ele>1118.0</ele><time>2026-04-25T11:18:19.436Z</time></trkpt><trkpt lat="45.6581567" lon="10.9666633"><ele>1118.0</ele><time>2026-04-25T11:18:22.437Z</time></trkpt><trkpt lat="45.6582483" lon="10.966645"><ele>1118.0</ele><time>2026-04-25T11:21:59.428Z</time></trkpt></trkseg></trk></gpx>